<?xml version="1.0" encoding="UTF-8" standalone="no" ?>
<gpx xmlns="http://www.topografix.com/GPX/1/1" xmlns:xsi="http://www.w3.org/2001/XMLSchema-instance" xsi:schemaLocation="http://www.topografix.com/GPX/1/1 http://www.topografix.com/GPX/1/1/gpx.xsd" version="1.1" creator="VisuGPX - https://www.visugpx.com">
  <metadata>
    <name>avrillé - st nicolas - lac de maine</name>
    <desc><![CDATA[circuit varié]]></desc>
  </metadata>
  <trk>
    <name><![CDATA[avrillé - st nicolas - lac de maine_1]]></name>
    <trkseg>
      <trkpt lat="47.49001" lon="-0.58138">
        <ele>53</ele>
        <time>2015-07-07T07:54:55.000Z</time>
      </trkpt>
      <trkpt lat="47.49001" lon="-0.58138">
        <ele>53</ele>
        <time>2015-07-07T07:54:56.000Z</time>
      </trkpt>
      <trkpt lat="47.49001" lon="-0.58139">
        <ele>53</ele>
        <time>2015-07-07T07:54:57.000Z</time>
      </trkpt>
      <trkpt lat="47.49001" lon="-0.58141">
        <ele>53</ele>
        <time>2015-07-07T07:54:58.000Z</time>
      </trkpt>
      <trkpt lat="47.49001" lon="-0.58144">
        <ele>53</ele>
        <time>2015-07-07T07:54:59.000Z</time>
      </trkpt>
      <trkpt lat="47.49001" lon="-0.58146">
        <ele>53</ele>
        <time>2015-07-07T07:55:00.000Z</time>
      </trkpt>
      <trkpt lat="47.49001" lon="-0.58149">
        <ele>53</ele>
        <time>2015-07-07T07:55:01.000Z</time>
      </trkpt>
      <trkpt lat="47.49" lon="-0.58152">
        <ele>53</ele>
        <time>2015-07-07T07:55:02.000Z</time>
      </trkpt>
      <trkpt lat="47.49" lon="-0.58155">
        <ele>53</ele>
        <time>2015-07-07T07:55:03.000Z</time>
      </trkpt>
      <trkpt lat="47.48999" lon="-0.58158">
        <ele>53</ele>
        <time>2015-07-07T07:55:04.000Z</time>
      </trkpt>
      <trkpt lat="47.48999" lon="-0.58162">
        <ele>53</ele>
        <time>2015-07-07T07:55:05.000Z</time>
      </trkpt>
      <trkpt lat="47.48999" lon="-0.58166">
        <ele>53</ele>
        <time>2015-07-07T07:55:06.000Z</time>
      </trkpt>
      <trkpt lat="47.48999" lon="-0.5817">
        <ele>54</ele>
        <time>2015-07-07T07:55:07.000Z</time>
      </trkpt>
      <trkpt lat="47.49" lon="-0.58174">
        <ele>54</ele>
        <time>2015-07-07T07:55:08.000Z</time>
      </trkpt>
      <trkpt lat="47.49001" lon="-0.58178">
        <ele>54</ele>
        <time>2015-07-07T07:55:09.000Z</time>
      </trkpt>
      <trkpt lat="47.49003" lon="-0.58182">
        <ele>54</ele>
        <time>2015-07-07T07:55:10.000Z</time>
      </trkpt>
      <trkpt lat="47.49004" lon="-0.58186">
        <ele>55</ele>
        <time>2015-07-07T07:55:11.000Z</time>
      </trkpt>
      <trkpt lat="47.49006" lon="-0.5819">
        <ele>55</ele>
        <time>2015-07-07T07:55:12.000Z</time>
      </trkpt>
      <trkpt lat="47.49007" lon="-0.58193">
        <ele>55</ele>
        <time>2015-07-07T07:55:13.000Z</time>
      </trkpt>
      <trkpt lat="47.49009" lon="-0.58197">
        <ele>55</ele>
        <time>2015-07-07T07:55:14.000Z</time>
      </trkpt>
      <trkpt lat="47.4901" lon="-0.582">
        <ele>55</ele>
        <time>2015-07-07T07:55:15.000Z</time>
      </trkpt>
      <trkpt lat="47.49012" lon="-0.58204">
        <ele>55</ele>
        <time>2015-07-07T07:55:16.000Z</time>
      </trkpt>
      <trkpt lat="47.49013" lon="-0.58207">
        <ele>56</ele>
        <time>2015-07-07T07:55:17.000Z</time>
      </trkpt>
      <trkpt lat="47.49014" lon="-0.58211">
        <ele>56</ele>
        <time>2015-07-07T07:55:18.000Z</time>
      </trkpt>
      <trkpt lat="47.49015" lon="-0.58215">
        <ele>56</ele>
        <time>2015-07-07T07:55:19.000Z</time>
      </trkpt>
      <trkpt lat="47.49016" lon="-0.58219">
        <ele>56</ele>
        <time>2015-07-07T07:55:20.000Z</time>
      </trkpt>
      <trkpt lat="47.49017" lon="-0.58222">
        <ele>56</ele>
        <time>2015-07-07T07:55:21.000Z</time>
      </trkpt>
      <trkpt lat="47.49018" lon="-0.58226">
        <ele>57</ele>
        <time>2015-07-07T07:55:22.000Z</time>
      </trkpt>
      <trkpt lat="47.49019" lon="-0.5823">
        <ele>57</ele>
        <time>2015-07-07T07:55:23.000Z</time>
      </trkpt>
      <trkpt lat="47.49019" lon="-0.58233">
        <ele>56</ele>
        <time>2015-07-07T07:55:24.000Z</time>
      </trkpt>
      <trkpt lat="47.49019" lon="-0.58237">
        <ele>56</ele>
        <time>2015-07-07T07:55:25.000Z</time>
      </trkpt>
      <trkpt lat="47.49019" lon="-0.58241">
        <ele>57</ele>
        <time>2015-07-07T07:55:26.000Z</time>
      </trkpt>
      <trkpt lat="47.49017" lon="-0.58245">
        <ele>57</ele>
        <time>2015-07-07T07:55:27.000Z</time>
      </trkpt>
      <trkpt lat="47.49016" lon="-0.58248">
        <ele>57</ele>
        <time>2015-07-07T07:55:28.000Z</time>
      </trkpt>
      <trkpt lat="47.49015" lon="-0.58251">
        <ele>56</ele>
        <time>2015-07-07T07:55:29.000Z</time>
      </trkpt>
      <trkpt lat="47.49013" lon="-0.58253">
        <ele>56</ele>
        <time>2015-07-07T07:55:30.000Z</time>
      </trkpt>
      <trkpt lat="47.49011" lon="-0.58256">
        <ele>56</ele>
        <time>2015-07-07T07:55:31.000Z</time>
      </trkpt>
      <trkpt lat="47.49009" lon="-0.58258">
        <ele>55</ele>
        <time>2015-07-07T07:55:32.000Z</time>
      </trkpt>
      <trkpt lat="47.49007" lon="-0.5826">
        <ele>55</ele>
        <time>2015-07-07T07:55:33.000Z</time>
      </trkpt>
      <trkpt lat="47.49005" lon="-0.58261">
        <ele>56</ele>
        <time>2015-07-07T07:55:34.000Z</time>
      </trkpt>
      <trkpt lat="47.49002" lon="-0.58263">
        <ele>55</ele>
        <time>2015-07-07T07:55:35.000Z</time>
      </trkpt>
      <trkpt lat="47.49" lon="-0.58264">
        <ele>56</ele>
        <time>2015-07-07T07:55:36.000Z</time>
      </trkpt>
      <trkpt lat="47.48998" lon="-0.58267">
        <ele>56</ele>
        <time>2015-07-07T07:55:37.000Z</time>
      </trkpt>
      <trkpt lat="47.48996" lon="-0.58269">
        <ele>55</ele>
        <time>2015-07-07T07:55:38.000Z</time>
      </trkpt>
      <trkpt lat="47.48995" lon="-0.58272">
        <ele>55</ele>
        <time>2015-07-07T07:55:39.000Z</time>
      </trkpt>
      <trkpt lat="47.48993" lon="-0.58275">
        <ele>55</ele>
        <time>2015-07-07T07:55:40.000Z</time>
      </trkpt>
      <trkpt lat="47.48991" lon="-0.58278">
        <ele>56</ele>
        <time>2015-07-07T07:55:41.000Z</time>
      </trkpt>
      <trkpt lat="47.48989" lon="-0.5828">
        <ele>56</ele>
        <time>2015-07-07T07:55:42.000Z</time>
      </trkpt>
      <trkpt lat="47.48987" lon="-0.58283">
        <ele>56</ele>
        <time>2015-07-07T07:55:43.000Z</time>
      </trkpt>
      <trkpt lat="47.48985" lon="-0.58286">
        <ele>56</ele>
        <time>2015-07-07T07:55:44.000Z</time>
      </trkpt>
      <trkpt lat="47.48983" lon="-0.58288">
        <ele>57</ele>
        <time>2015-07-07T07:55:45.000Z</time>
      </trkpt>
      <trkpt lat="47.48981" lon="-0.5829">
        <ele>57</ele>
        <time>2015-07-07T07:55:46.000Z</time>
      </trkpt>
      <trkpt lat="47.4898" lon="-0.58293">
        <ele>57</ele>
        <time>2015-07-07T07:55:47.000Z</time>
      </trkpt>
      <trkpt lat="47.48979" lon="-0.58296">
        <ele>56</ele>
        <time>2015-07-07T07:55:48.000Z</time>
      </trkpt>
      <trkpt lat="47.48978" lon="-0.58301">
        <ele>55</ele>
        <time>2015-07-07T07:55:49.000Z</time>
      </trkpt>
      <trkpt lat="47.48978" lon="-0.58305">
        <ele>55</ele>
        <time>2015-07-07T07:55:50.000Z</time>
      </trkpt>
      <trkpt lat="47.48977" lon="-0.58309">
        <ele>55</ele>
        <time>2015-07-07T07:55:51.000Z</time>
      </trkpt>
      <trkpt lat="47.48976" lon="-0.58313">
        <ele>55</ele>
        <time>2015-07-07T07:55:52.000Z</time>
      </trkpt>
      <trkpt lat="47.48976" lon="-0.58317">
        <ele>55</ele>
        <time>2015-07-07T07:55:53.000Z</time>
      </trkpt>
      <trkpt lat="47.48975" lon="-0.5832">
        <ele>55</ele>
        <time>2015-07-07T07:55:54.000Z</time>
      </trkpt>
      <trkpt lat="47.48974" lon="-0.58323">
        <ele>55</ele>
        <time>2015-07-07T07:55:55.000Z</time>
      </trkpt>
      <trkpt lat="47.48973" lon="-0.58326">
        <ele>54</ele>
        <time>2015-07-07T07:55:56.000Z</time>
      </trkpt>
      <trkpt lat="47.48971" lon="-0.58329">
        <ele>54</ele>
        <time>2015-07-07T07:55:57.000Z</time>
      </trkpt>
      <trkpt lat="47.4897" lon="-0.58332">
        <ele>54</ele>
        <time>2015-07-07T07:55:58.000Z</time>
      </trkpt>
      <trkpt lat="47.48968" lon="-0.58335">
        <ele>54</ele>
        <time>2015-07-07T07:55:59.000Z</time>
      </trkpt>
      <trkpt lat="47.48967" lon="-0.58338">
        <ele>54</ele>
        <time>2015-07-07T07:56:00.000Z</time>
      </trkpt>
      <trkpt lat="47.48965" lon="-0.58341">
        <ele>54</ele>
        <time>2015-07-07T07:56:01.000Z</time>
      </trkpt>
      <trkpt lat="47.48963" lon="-0.58344">
        <ele>53</ele>
        <time>2015-07-07T07:56:02.000Z</time>
      </trkpt>
      <trkpt lat="47.48961" lon="-0.58347">
        <ele>54</ele>
        <time>2015-07-07T07:56:03.000Z</time>
      </trkpt>
      <trkpt lat="47.4896" lon="-0.58349">
        <ele>54</ele>
        <time>2015-07-07T07:56:04.000Z</time>
      </trkpt>
      <trkpt lat="47.48958" lon="-0.58352">
        <ele>54</ele>
        <time>2015-07-07T07:56:05.000Z</time>
      </trkpt>
      <trkpt lat="47.48956" lon="-0.58354">
        <ele>53</ele>
        <time>2015-07-07T07:56:06.000Z</time>
      </trkpt>
      <trkpt lat="47.48955" lon="-0.58357">
        <ele>53</ele>
        <time>2015-07-07T07:56:07.000Z</time>
      </trkpt>
      <trkpt lat="47.48954" lon="-0.58359">
        <ele>52</ele>
        <time>2015-07-07T07:56:08.000Z</time>
      </trkpt>
      <trkpt lat="47.48952" lon="-0.58362">
        <ele>53</ele>
        <time>2015-07-07T07:56:09.000Z</time>
      </trkpt>
      <trkpt lat="47.48951" lon="-0.58364">
        <ele>52</ele>
        <time>2015-07-07T07:56:10.000Z</time>
      </trkpt>
      <trkpt lat="47.48949" lon="-0.58367">
        <ele>52</ele>
        <time>2015-07-07T07:56:11.000Z</time>
      </trkpt>
      <trkpt lat="47.48948" lon="-0.5837">
        <ele>51</ele>
        <time>2015-07-07T07:56:12.000Z</time>
      </trkpt>
      <trkpt lat="47.48946" lon="-0.58373">
        <ele>50</ele>
        <time>2015-07-07T07:56:13.000Z</time>
      </trkpt>
      <trkpt lat="47.48945" lon="-0.58375">
        <ele>50</ele>
        <time>2015-07-07T07:56:14.000Z</time>
      </trkpt>
      <trkpt lat="47.48944" lon="-0.58378">
        <ele>49</ele>
        <time>2015-07-07T07:56:15.000Z</time>
      </trkpt>
      <trkpt lat="47.48943" lon="-0.58381">
        <ele>49</ele>
        <time>2015-07-07T07:56:16.000Z</time>
      </trkpt>
      <trkpt lat="47.48942" lon="-0.58384">
        <ele>49</ele>
        <time>2015-07-07T07:56:17.000Z</time>
      </trkpt>
      <trkpt lat="47.48941" lon="-0.58387">
        <ele>50</ele>
        <time>2015-07-07T07:56:18.000Z</time>
      </trkpt>
      <trkpt lat="47.48939" lon="-0.5839">
        <ele>51</ele>
        <time>2015-07-07T07:56:19.000Z</time>
      </trkpt>
      <trkpt lat="47.48938" lon="-0.58393">
        <ele>52</ele>
        <time>2015-07-07T07:56:20.000Z</time>
      </trkpt>
      <trkpt lat="47.48936" lon="-0.58397">
        <ele>52</ele>
        <time>2015-07-07T07:56:21.000Z</time>
      </trkpt>
      <trkpt lat="47.48935" lon="-0.584">
        <ele>53</ele>
        <time>2015-07-07T07:56:22.000Z</time>
      </trkpt>
      <trkpt lat="47.48934" lon="-0.58403">
        <ele>53</ele>
        <time>2015-07-07T07:56:23.000Z</time>
      </trkpt>
      <trkpt lat="47.48933" lon="-0.58406">
        <ele>53</ele>
        <time>2015-07-07T07:56:24.000Z</time>
      </trkpt>
      <trkpt lat="47.48932" lon="-0.58408">
        <ele>54</ele>
        <time>2015-07-07T07:56:25.000Z</time>
      </trkpt>
      <trkpt lat="47.4893" lon="-0.58411">
        <ele>54</ele>
        <time>2015-07-07T07:56:26.000Z</time>
      </trkpt>
      <trkpt lat="47.48929" lon="-0.58414">
        <ele>54</ele>
        <time>2015-07-07T07:56:27.000Z</time>
      </trkpt>
      <trkpt lat="47.48927" lon="-0.58417">
        <ele>53</ele>
        <time>2015-07-07T07:56:28.000Z</time>
      </trkpt>
      <trkpt lat="47.48926" lon="-0.58419">
        <ele>54</ele>
        <time>2015-07-07T07:56:29.000Z</time>
      </trkpt>
      <trkpt lat="47.48924" lon="-0.58423">
        <ele>56</ele>
        <time>2015-07-07T07:56:30.000Z</time>
      </trkpt>
      <trkpt lat="47.48922" lon="-0.58426">
        <ele>57</ele>
        <time>2015-07-07T07:56:31.000Z</time>
      </trkpt>
      <trkpt lat="47.4892" lon="-0.58429">
        <ele>57</ele>
        <time>2015-07-07T07:56:32.000Z</time>
      </trkpt>
      <trkpt lat="47.48918" lon="-0.58433">
        <ele>57</ele>
        <time>2015-07-07T07:56:33.000Z</time>
      </trkpt>
      <trkpt lat="47.48915" lon="-0.58436">
        <ele>57</ele>
        <time>2015-07-07T07:56:34.000Z</time>
      </trkpt>
      <trkpt lat="47.48913" lon="-0.58439">
        <ele>57</ele>
        <time>2015-07-07T07:56:35.000Z</time>
      </trkpt>
      <trkpt lat="47.48911" lon="-0.58443">
        <ele>57</ele>
        <time>2015-07-07T07:56:36.000Z</time>
      </trkpt>
      <trkpt lat="47.48909" lon="-0.58448">
        <ele>57</ele>
        <time>2015-07-07T07:56:37.000Z</time>
      </trkpt>
      <trkpt lat="47.48907" lon="-0.58452">
        <ele>57</ele>
        <time>2015-07-07T07:56:38.000Z</time>
      </trkpt>
      <trkpt lat="47.48905" lon="-0.58455">
        <ele>56</ele>
        <time>2015-07-07T07:56:39.000Z</time>
      </trkpt>
      <trkpt lat="47.48903" lon="-0.58459">
        <ele>56</ele>
        <time>2015-07-07T07:56:40.000Z</time>
      </trkpt>
      <trkpt lat="47.48902" lon="-0.58462">
        <ele>56</ele>
        <time>2015-07-07T07:56:41.000Z</time>
      </trkpt>
      <trkpt lat="47.489" lon="-0.58465">
        <ele>57</ele>
        <time>2015-07-07T07:56:42.000Z</time>
      </trkpt>
      <trkpt lat="47.48898" lon="-0.58469">
        <ele>57</ele>
        <time>2015-07-07T07:56:43.000Z</time>
      </trkpt>
      <trkpt lat="47.48896" lon="-0.58472">
        <ele>57</ele>
        <time>2015-07-07T07:56:44.000Z</time>
      </trkpt>
      <trkpt lat="47.48894" lon="-0.58475">
        <ele>58</ele>
        <time>2015-07-07T07:56:45.000Z</time>
      </trkpt>
      <trkpt lat="47.48893" lon="-0.58477">
        <ele>58</ele>
        <time>2015-07-07T07:56:46.000Z</time>
      </trkpt>
      <trkpt lat="47.48891" lon="-0.5848">
        <ele>59</ele>
        <time>2015-07-07T07:56:47.000Z</time>
      </trkpt>
      <trkpt lat="47.48889" lon="-0.58482">
        <ele>60</ele>
        <time>2015-07-07T07:56:48.000Z</time>
      </trkpt>
      <trkpt lat="47.48887" lon="-0.58485">
        <ele>60</ele>
        <time>2015-07-07T07:56:49.000Z</time>
      </trkpt>
      <trkpt lat="47.48886" lon="-0.58488">
        <ele>60</ele>
        <time>2015-07-07T07:56:50.000Z</time>
      </trkpt>
      <trkpt lat="47.48884" lon="-0.58491">
        <ele>61</ele>
        <time>2015-07-07T07:56:51.000Z</time>
      </trkpt>
      <trkpt lat="47.48882" lon="-0.58494">
        <ele>61</ele>
        <time>2015-07-07T07:56:52.000Z</time>
      </trkpt>
      <trkpt lat="47.4888" lon="-0.58497">
        <ele>61</ele>
        <time>2015-07-07T07:56:53.000Z</time>
      </trkpt>
      <trkpt lat="47.48878" lon="-0.585">
        <ele>61</ele>
        <time>2015-07-07T07:56:54.000Z</time>
      </trkpt>
      <trkpt lat="47.48876" lon="-0.58504">
        <ele>61</ele>
        <time>2015-07-07T07:56:55.000Z</time>
      </trkpt>
      <trkpt lat="47.48874" lon="-0.58507">
        <ele>61</ele>
        <time>2015-07-07T07:56:56.000Z</time>
      </trkpt>
      <trkpt lat="47.48872" lon="-0.5851">
        <ele>61</ele>
        <time>2015-07-07T07:56:57.000Z</time>
      </trkpt>
      <trkpt lat="47.4887" lon="-0.58514">
        <ele>61</ele>
        <time>2015-07-07T07:56:58.000Z</time>
      </trkpt>
      <trkpt lat="47.48868" lon="-0.58517">
        <ele>61</ele>
        <time>2015-07-07T07:56:59.000Z</time>
      </trkpt>
      <trkpt lat="47.48866" lon="-0.5852">
        <ele>60</ele>
        <time>2015-07-07T07:57:00.000Z</time>
      </trkpt>
      <trkpt lat="47.48864" lon="-0.58523">
        <ele>60</ele>
        <time>2015-07-07T07:57:01.000Z</time>
      </trkpt>
      <trkpt lat="47.48862" lon="-0.58527">
        <ele>59</ele>
        <time>2015-07-07T07:57:02.000Z</time>
      </trkpt>
      <trkpt lat="47.48861" lon="-0.5853">
        <ele>59</ele>
        <time>2015-07-07T07:57:03.000Z</time>
      </trkpt>
      <trkpt lat="47.48859" lon="-0.58533">
        <ele>59</ele>
        <time>2015-07-07T07:57:04.000Z</time>
      </trkpt>
      <trkpt lat="47.48858" lon="-0.58537">
        <ele>58</ele>
        <time>2015-07-07T07:57:05.000Z</time>
      </trkpt>
      <trkpt lat="47.48856" lon="-0.5854">
        <ele>58</ele>
        <time>2015-07-07T07:57:06.000Z</time>
      </trkpt>
      <trkpt lat="47.48854" lon="-0.58543">
        <ele>57</ele>
        <time>2015-07-07T07:57:07.000Z</time>
      </trkpt>
      <trkpt lat="47.48852" lon="-0.58547">
        <ele>58</ele>
        <time>2015-07-07T07:57:08.000Z</time>
      </trkpt>
      <trkpt lat="47.4885" lon="-0.5855">
        <ele>58</ele>
        <time>2015-07-07T07:57:09.000Z</time>
      </trkpt>
      <trkpt lat="47.48848" lon="-0.58554">
        <ele>57</ele>
        <time>2015-07-07T07:57:10.000Z</time>
      </trkpt>
      <trkpt lat="47.48846" lon="-0.58557">
        <ele>57</ele>
        <time>2015-07-07T07:57:11.000Z</time>
      </trkpt>
      <trkpt lat="47.48845" lon="-0.5856">
        <ele>57</ele>
        <time>2015-07-07T07:57:12.000Z</time>
      </trkpt>
      <trkpt lat="47.48843" lon="-0.58564">
        <ele>57</ele>
        <time>2015-07-07T07:57:13.000Z</time>
      </trkpt>
      <trkpt lat="47.48841" lon="-0.58567">
        <ele>57</ele>
        <time>2015-07-07T07:57:14.000Z</time>
      </trkpt>
      <trkpt lat="47.48839" lon="-0.5857">
        <ele>57</ele>
        <time>2015-07-07T07:57:15.000Z</time>
      </trkpt>
      <trkpt lat="47.48838" lon="-0.58573">
        <ele>57</ele>
        <time>2015-07-07T07:57:16.000Z</time>
      </trkpt>
      <trkpt lat="47.48836" lon="-0.58577">
        <ele>57</ele>
        <time>2015-07-07T07:57:17.000Z</time>
      </trkpt>
      <trkpt lat="47.48834" lon="-0.58581">
        <ele>57</ele>
        <time>2015-07-07T07:57:18.000Z</time>
      </trkpt>
      <trkpt lat="47.48833" lon="-0.58584">
        <ele>56</ele>
        <time>2015-07-07T07:57:19.000Z</time>
      </trkpt>
      <trkpt lat="47.48832" lon="-0.58588">
        <ele>56</ele>
        <time>2015-07-07T07:57:20.000Z</time>
      </trkpt>
      <trkpt lat="47.48831" lon="-0.58591">
        <ele>57</ele>
        <time>2015-07-07T07:57:21.000Z</time>
      </trkpt>
      <trkpt lat="47.4883" lon="-0.58595">
        <ele>56</ele>
        <time>2015-07-07T07:57:22.000Z</time>
      </trkpt>
      <trkpt lat="47.48829" lon="-0.58599">
        <ele>55</ele>
        <time>2015-07-07T07:57:23.000Z</time>
      </trkpt>
      <trkpt lat="47.48828" lon="-0.58603">
        <ele>55</ele>
        <time>2015-07-07T07:57:24.000Z</time>
      </trkpt>
      <trkpt lat="47.48827" lon="-0.58607">
        <ele>55</ele>
        <time>2015-07-07T07:57:25.000Z</time>
      </trkpt>
      <trkpt lat="47.48826" lon="-0.58611">
        <ele>54</ele>
        <time>2015-07-07T07:57:26.000Z</time>
      </trkpt>
      <trkpt lat="47.48825" lon="-0.58615">
        <ele>55</ele>
        <time>2015-07-07T07:57:27.000Z</time>
      </trkpt>
      <trkpt lat="47.48824" lon="-0.58619">
        <ele>55</ele>
        <time>2015-07-07T07:57:28.000Z</time>
      </trkpt>
      <trkpt lat="47.48824" lon="-0.58622">
        <ele>54</ele>
        <time>2015-07-07T07:57:29.000Z</time>
      </trkpt>
      <trkpt lat="47.48823" lon="-0.58626">
        <ele>54</ele>
        <time>2015-07-07T07:57:30.000Z</time>
      </trkpt>
      <trkpt lat="47.48823" lon="-0.5863">
        <ele>53</ele>
        <time>2015-07-07T07:57:31.000Z</time>
      </trkpt>
      <trkpt lat="47.48823" lon="-0.58635">
        <ele>53</ele>
        <time>2015-07-07T07:57:32.000Z</time>
      </trkpt>
      <trkpt lat="47.48822" lon="-0.58639">
        <ele>53</ele>
        <time>2015-07-07T07:57:33.000Z</time>
      </trkpt>
      <trkpt lat="47.48822" lon="-0.58644">
        <ele>53</ele>
        <time>2015-07-07T07:57:34.000Z</time>
      </trkpt>
      <trkpt lat="47.48821" lon="-0.58648">
        <ele>53</ele>
        <time>2015-07-07T07:57:35.000Z</time>
      </trkpt>
      <trkpt lat="47.48821" lon="-0.58652">
        <ele>53</ele>
        <time>2015-07-07T07:57:36.000Z</time>
      </trkpt>
      <trkpt lat="47.48821" lon="-0.58656">
        <ele>53</ele>
        <time>2015-07-07T07:57:37.000Z</time>
      </trkpt>
      <trkpt lat="47.48821" lon="-0.5866">
        <ele>53</ele>
        <time>2015-07-07T07:57:38.000Z</time>
      </trkpt>
      <trkpt lat="47.48821" lon="-0.58664">
        <ele>53</ele>
        <time>2015-07-07T07:57:39.000Z</time>
      </trkpt>
      <trkpt lat="47.48821" lon="-0.58668">
        <ele>54</ele>
        <time>2015-07-07T07:57:40.000Z</time>
      </trkpt>
      <trkpt lat="47.48821" lon="-0.58672">
        <ele>54</ele>
        <time>2015-07-07T07:57:41.000Z</time>
      </trkpt>
      <trkpt lat="47.48821" lon="-0.58676">
        <ele>54</ele>
        <time>2015-07-07T07:57:42.000Z</time>
      </trkpt>
      <trkpt lat="47.48822" lon="-0.5868">
        <ele>54</ele>
        <time>2015-07-07T07:57:43.000Z</time>
      </trkpt>
      <trkpt lat="47.48822" lon="-0.58684">
        <ele>55</ele>
        <time>2015-07-07T07:57:44.000Z</time>
      </trkpt>
      <trkpt lat="47.48822" lon="-0.58688">
        <ele>55</ele>
        <time>2015-07-07T07:57:45.000Z</time>
      </trkpt>
      <trkpt lat="47.48822" lon="-0.58691">
        <ele>55</ele>
        <time>2015-07-07T07:57:46.000Z</time>
      </trkpt>
      <trkpt lat="47.48821" lon="-0.58693">
        <ele>55</ele>
        <time>2015-07-07T07:57:47.000Z</time>
      </trkpt>
      <trkpt lat="47.48819" lon="-0.58695">
        <ele>56</ele>
        <time>2015-07-07T07:57:48.000Z</time>
      </trkpt>
      <trkpt lat="47.48817" lon="-0.58696">
        <ele>56</ele>
        <time>2015-07-07T07:57:49.000Z</time>
      </trkpt>
      <trkpt lat="47.48815" lon="-0.58698">
        <ele>56</ele>
        <time>2015-07-07T07:57:50.000Z</time>
      </trkpt>
      <trkpt lat="47.48814" lon="-0.58701">
        <ele>56</ele>
        <time>2015-07-07T07:57:51.000Z</time>
      </trkpt>
      <trkpt lat="47.48813" lon="-0.58704">
        <ele>57</ele>
        <time>2015-07-07T07:57:52.000Z</time>
      </trkpt>
      <trkpt lat="47.48812" lon="-0.58708">
        <ele>57</ele>
        <time>2015-07-07T07:57:53.000Z</time>
      </trkpt>
      <trkpt lat="47.48811" lon="-0.58711">
        <ele>57</ele>
        <time>2015-07-07T07:57:54.000Z</time>
      </trkpt>
      <trkpt lat="47.48811" lon="-0.58714">
        <ele>56</ele>
        <time>2015-07-07T07:57:55.000Z</time>
      </trkpt>
      <trkpt lat="47.4881" lon="-0.58717">
        <ele>56</ele>
        <time>2015-07-07T07:57:56.000Z</time>
      </trkpt>
      <trkpt lat="47.48809" lon="-0.58719">
        <ele>55</ele>
        <time>2015-07-07T07:57:57.000Z</time>
      </trkpt>
      <trkpt lat="47.48808" lon="-0.58721">
        <ele>56</ele>
        <time>2015-07-07T07:57:58.000Z</time>
      </trkpt>
      <trkpt lat="47.48806" lon="-0.58722">
        <ele>56</ele>
        <time>2015-07-07T07:57:59.000Z</time>
      </trkpt>
      <trkpt lat="47.48804" lon="-0.58724">
        <ele>57</ele>
        <time>2015-07-07T07:58:00.000Z</time>
      </trkpt>
      <trkpt lat="47.48801" lon="-0.58725">
        <ele>57</ele>
        <time>2015-07-07T07:58:01.000Z</time>
      </trkpt>
      <trkpt lat="47.48799" lon="-0.58726">
        <ele>57</ele>
        <time>2015-07-07T07:58:02.000Z</time>
      </trkpt>
      <trkpt lat="47.48797" lon="-0.58727">
        <ele>57</ele>
        <time>2015-07-07T07:58:03.000Z</time>
      </trkpt>
      <trkpt lat="47.48795" lon="-0.58728">
        <ele>57</ele>
        <time>2015-07-07T07:58:04.000Z</time>
      </trkpt>
      <trkpt lat="47.48793" lon="-0.58729">
        <ele>58</ele>
        <time>2015-07-07T07:58:05.000Z</time>
      </trkpt>
      <trkpt lat="47.4879" lon="-0.5873">
        <ele>58</ele>
        <time>2015-07-07T07:58:06.000Z</time>
      </trkpt>
      <trkpt lat="47.48788" lon="-0.58731">
        <ele>58</ele>
        <time>2015-07-07T07:58:07.000Z</time>
      </trkpt>
      <trkpt lat="47.48786" lon="-0.58733">
        <ele>58</ele>
        <time>2015-07-07T07:58:08.000Z</time>
      </trkpt>
      <trkpt lat="47.48784" lon="-0.58734">
        <ele>59</ele>
        <time>2015-07-07T07:58:09.000Z</time>
      </trkpt>
      <trkpt lat="47.48781" lon="-0.58736">
        <ele>60</ele>
        <time>2015-07-07T07:58:10.000Z</time>
      </trkpt>
      <trkpt lat="47.48779" lon="-0.58737">
        <ele>59</ele>
        <time>2015-07-07T07:58:11.000Z</time>
      </trkpt>
      <trkpt lat="47.48777" lon="-0.58738">
        <ele>60</ele>
        <time>2015-07-07T07:58:12.000Z</time>
      </trkpt>
      <trkpt lat="47.48775" lon="-0.5874">
        <ele>60</ele>
        <time>2015-07-07T07:58:13.000Z</time>
      </trkpt>
      <trkpt lat="47.48772" lon="-0.58741">
        <ele>60</ele>
        <time>2015-07-07T07:58:14.000Z</time>
      </trkpt>
      <trkpt lat="47.48769" lon="-0.58742">
        <ele>61</ele>
        <time>2015-07-07T07:58:15.000Z</time>
      </trkpt>
      <trkpt lat="47.48767" lon="-0.58743">
        <ele>61</ele>
        <time>2015-07-07T07:58:16.000Z</time>
      </trkpt>
      <trkpt lat="47.48764" lon="-0.58744">
        <ele>62</ele>
        <time>2015-07-07T07:58:17.000Z</time>
      </trkpt>
      <trkpt lat="47.48761" lon="-0.58745">
        <ele>62</ele>
        <time>2015-07-07T07:58:18.000Z</time>
      </trkpt>
      <trkpt lat="47.48759" lon="-0.58747">
        <ele>62</ele>
        <time>2015-07-07T07:58:19.000Z</time>
      </trkpt>
      <trkpt lat="47.48756" lon="-0.58748">
        <ele>64</ele>
        <time>2015-07-07T07:58:20.000Z</time>
      </trkpt>
      <trkpt lat="47.48753" lon="-0.58749">
        <ele>64</ele>
        <time>2015-07-07T07:58:21.000Z</time>
      </trkpt>
      <trkpt lat="47.4875" lon="-0.58751">
        <ele>64</ele>
        <time>2015-07-07T07:58:22.000Z</time>
      </trkpt>
      <trkpt lat="47.48748" lon="-0.58753">
        <ele>64</ele>
        <time>2015-07-07T07:58:23.000Z</time>
      </trkpt>
      <trkpt lat="47.48745" lon="-0.58754">
        <ele>65</ele>
        <time>2015-07-07T07:58:24.000Z</time>
      </trkpt>
      <trkpt lat="47.48743" lon="-0.58756">
        <ele>65</ele>
        <time>2015-07-07T07:58:25.000Z</time>
      </trkpt>
      <trkpt lat="47.48741" lon="-0.58758">
        <ele>65</ele>
        <time>2015-07-07T07:58:26.000Z</time>
      </trkpt>
      <trkpt lat="47.48739" lon="-0.5876">
        <ele>65</ele>
        <time>2015-07-07T07:58:27.000Z</time>
      </trkpt>
      <trkpt lat="47.48737" lon="-0.58762">
        <ele>65</ele>
        <time>2015-07-07T07:58:28.000Z</time>
      </trkpt>
      <trkpt lat="47.48734" lon="-0.58764">
        <ele>65</ele>
        <time>2015-07-07T07:58:29.000Z</time>
      </trkpt>
      <trkpt lat="47.48732" lon="-0.58765">
        <ele>65</ele>
        <time>2015-07-07T07:58:30.000Z</time>
      </trkpt>
      <trkpt lat="47.4873" lon="-0.58767">
        <ele>65</ele>
        <time>2015-07-07T07:58:31.000Z</time>
      </trkpt>
      <trkpt lat="47.48727" lon="-0.58769">
        <ele>67</ele>
        <time>2015-07-07T07:58:32.000Z</time>
      </trkpt>
      <trkpt lat="47.48724" lon="-0.5877">
        <ele>67</ele>
        <time>2015-07-07T07:58:33.000Z</time>
      </trkpt>
      <trkpt lat="47.48722" lon="-0.58771">
        <ele>69</ele>
        <time>2015-07-07T07:58:34.000Z</time>
      </trkpt>
      <trkpt lat="47.48719" lon="-0.58772">
        <ele>69</ele>
        <time>2015-07-07T07:58:35.000Z</time>
      </trkpt>
      <trkpt lat="47.48716" lon="-0.58774">
        <ele>70</ele>
        <time>2015-07-07T07:58:36.000Z</time>
      </trkpt>
      <trkpt lat="47.48714" lon="-0.58776">
        <ele>69</ele>
        <time>2015-07-07T07:58:37.000Z</time>
      </trkpt>
      <trkpt lat="47.48712" lon="-0.58778">
        <ele>70</ele>
        <time>2015-07-07T07:58:38.000Z</time>
      </trkpt>
      <trkpt lat="47.48709" lon="-0.5878">
        <ele>70</ele>
        <time>2015-07-07T07:58:39.000Z</time>
      </trkpt>
      <trkpt lat="47.48707" lon="-0.58782">
        <ele>70</ele>
        <time>2015-07-07T07:58:40.000Z</time>
      </trkpt>
      <trkpt lat="47.48705" lon="-0.58784">
        <ele>70</ele>
        <time>2015-07-07T07:58:41.000Z</time>
      </trkpt>
      <trkpt lat="47.48703" lon="-0.58786">
        <ele>70</ele>
        <time>2015-07-07T07:58:42.000Z</time>
      </trkpt>
      <trkpt lat="47.48701" lon="-0.58788">
        <ele>71</ele>
        <time>2015-07-07T07:58:43.000Z</time>
      </trkpt>
      <trkpt lat="47.48699" lon="-0.5879">
        <ele>71</ele>
        <time>2015-07-07T07:58:44.000Z</time>
      </trkpt>
      <trkpt lat="47.48696" lon="-0.58792">
        <ele>70</ele>
        <time>2015-07-07T07:58:45.000Z</time>
      </trkpt>
      <trkpt lat="47.48694" lon="-0.58794">
        <ele>70</ele>
        <time>2015-07-07T07:58:46.000Z</time>
      </trkpt>
      <trkpt lat="47.48692" lon="-0.58796">
        <ele>69</ele>
        <time>2015-07-07T07:58:47.000Z</time>
      </trkpt>
      <trkpt lat="47.48689" lon="-0.58798">
        <ele>69</ele>
        <time>2015-07-07T07:58:48.000Z</time>
      </trkpt>
      <trkpt lat="47.48687" lon="-0.58801">
        <ele>69</ele>
        <time>2015-07-07T07:58:49.000Z</time>
      </trkpt>
      <trkpt lat="47.48685" lon="-0.58803">
        <ele>68</ele>
        <time>2015-07-07T07:58:50.000Z</time>
      </trkpt>
      <trkpt lat="47.48683" lon="-0.58805">
        <ele>68</ele>
        <time>2015-07-07T07:58:51.000Z</time>
      </trkpt>
      <trkpt lat="47.48681" lon="-0.58808">
        <ele>68</ele>
        <time>2015-07-07T07:58:52.000Z</time>
      </trkpt>
      <trkpt lat="47.48678" lon="-0.5881">
        <ele>67</ele>
        <time>2015-07-07T07:58:53.000Z</time>
      </trkpt>
      <trkpt lat="47.48676" lon="-0.58812">
        <ele>67</ele>
        <time>2015-07-07T07:58:54.000Z</time>
      </trkpt>
      <trkpt lat="47.48674" lon="-0.58814">
        <ele>66</ele>
        <time>2015-07-07T07:58:55.000Z</time>
      </trkpt>
      <trkpt lat="47.48672" lon="-0.58816">
        <ele>66</ele>
        <time>2015-07-07T07:58:56.000Z</time>
      </trkpt>
      <trkpt lat="47.4867" lon="-0.58818">
        <ele>66</ele>
        <time>2015-07-07T07:58:57.000Z</time>
      </trkpt>
      <trkpt lat="47.48668" lon="-0.58821">
        <ele>66</ele>
        <time>2015-07-07T07:58:58.000Z</time>
      </trkpt>
      <trkpt lat="47.48666" lon="-0.58823">
        <ele>65</ele>
        <time>2015-07-07T07:58:59.000Z</time>
      </trkpt>
      <trkpt lat="47.48664" lon="-0.58826">
        <ele>64</ele>
        <time>2015-07-07T07:59:00.000Z</time>
      </trkpt>
      <trkpt lat="47.48662" lon="-0.58829">
        <ele>63</ele>
        <time>2015-07-07T07:59:01.000Z</time>
      </trkpt>
      <trkpt lat="47.48661" lon="-0.58833">
        <ele>59</ele>
        <time>2015-07-07T07:59:02.000Z</time>
      </trkpt>
      <trkpt lat="47.4866" lon="-0.58837">
        <ele>55</ele>
        <time>2015-07-07T07:59:03.000Z</time>
      </trkpt>
      <trkpt lat="47.48659" lon="-0.58841">
        <ele>53</ele>
        <time>2015-07-07T07:59:04.000Z</time>
      </trkpt>
      <trkpt lat="47.4866" lon="-0.58845">
        <ele>52</ele>
        <time>2015-07-07T07:59:05.000Z</time>
      </trkpt>
      <trkpt lat="47.4866" lon="-0.58848">
        <ele>50</ele>
        <time>2015-07-07T07:59:06.000Z</time>
      </trkpt>
      <trkpt lat="47.48661" lon="-0.58852">
        <ele>49</ele>
        <time>2015-07-07T07:59:07.000Z</time>
      </trkpt>
      <trkpt lat="47.48663" lon="-0.58855">
        <ele>49</ele>
        <time>2015-07-07T07:59:08.000Z</time>
      </trkpt>
      <trkpt lat="47.48664" lon="-0.58859">
        <ele>49</ele>
        <time>2015-07-07T07:59:09.000Z</time>
      </trkpt>
      <trkpt lat="47.48665" lon="-0.58862">
        <ele>48</ele>
        <time>2015-07-07T07:59:10.000Z</time>
      </trkpt>
      <trkpt lat="47.48666" lon="-0.58866">
        <ele>48</ele>
        <time>2015-07-07T07:59:11.000Z</time>
      </trkpt>
      <trkpt lat="47.48668" lon="-0.58869">
        <ele>48</ele>
        <time>2015-07-07T07:59:12.000Z</time>
      </trkpt>
      <trkpt lat="47.48669" lon="-0.58873">
        <ele>47</ele>
        <time>2015-07-07T07:59:13.000Z</time>
      </trkpt>
      <trkpt lat="47.4867" lon="-0.58876">
        <ele>47</ele>
        <time>2015-07-07T07:59:14.000Z</time>
      </trkpt>
      <trkpt lat="47.48672" lon="-0.58879">
        <ele>47</ele>
        <time>2015-07-07T07:59:15.000Z</time>
      </trkpt>
      <trkpt lat="47.48673" lon="-0.58883">
        <ele>47</ele>
        <time>2015-07-07T07:59:16.000Z</time>
      </trkpt>
      <trkpt lat="47.48675" lon="-0.58887">
        <ele>47</ele>
        <time>2015-07-07T07:59:17.000Z</time>
      </trkpt>
      <trkpt lat="47.48676" lon="-0.58891">
        <ele>47</ele>
        <time>2015-07-07T07:59:18.000Z</time>
      </trkpt>
      <trkpt lat="47.48677" lon="-0.58895">
        <ele>48</ele>
        <time>2015-07-07T07:59:19.000Z</time>
      </trkpt>
      <trkpt lat="47.48678" lon="-0.58899">
        <ele>48</ele>
        <time>2015-07-07T07:59:20.000Z</time>
      </trkpt>
      <trkpt lat="47.48679" lon="-0.58903">
        <ele>48</ele>
        <time>2015-07-07T07:59:21.000Z</time>
      </trkpt>
      <trkpt lat="47.4868" lon="-0.58907">
        <ele>47</ele>
        <time>2015-07-07T07:59:22.000Z</time>
      </trkpt>
      <trkpt lat="47.48681" lon="-0.5891">
        <ele>47</ele>
        <time>2015-07-07T07:59:23.000Z</time>
      </trkpt>
      <trkpt lat="47.48682" lon="-0.58914">
        <ele>47</ele>
        <time>2015-07-07T07:59:24.000Z</time>
      </trkpt>
      <trkpt lat="47.48683" lon="-0.58918">
        <ele>47</ele>
        <time>2015-07-07T07:59:25.000Z</time>
      </trkpt>
      <trkpt lat="47.48683" lon="-0.58922">
        <ele>47</ele>
        <time>2015-07-07T07:59:26.000Z</time>
      </trkpt>
      <trkpt lat="47.48684" lon="-0.58926">
        <ele>46</ele>
        <time>2015-07-07T07:59:27.000Z</time>
      </trkpt>
      <trkpt lat="47.48685" lon="-0.58929">
        <ele>46</ele>
        <time>2015-07-07T07:59:28.000Z</time>
      </trkpt>
      <trkpt lat="47.48685" lon="-0.58933">
        <ele>46</ele>
        <time>2015-07-07T07:59:29.000Z</time>
      </trkpt>
      <trkpt lat="47.48686" lon="-0.58937">
        <ele>46</ele>
        <time>2015-07-07T07:59:30.000Z</time>
      </trkpt>
      <trkpt lat="47.48687" lon="-0.58941">
        <ele>45</ele>
        <time>2015-07-07T07:59:31.000Z</time>
      </trkpt>
      <trkpt lat="47.48688" lon="-0.58944">
        <ele>46</ele>
        <time>2015-07-07T07:59:32.000Z</time>
      </trkpt>
      <trkpt lat="47.48689" lon="-0.58948">
        <ele>45</ele>
        <time>2015-07-07T07:59:33.000Z</time>
      </trkpt>
      <trkpt lat="47.4869" lon="-0.58951">
        <ele>44</ele>
        <time>2015-07-07T07:59:34.000Z</time>
      </trkpt>
      <trkpt lat="47.48692" lon="-0.58954">
        <ele>44</ele>
        <time>2015-07-07T07:59:35.000Z</time>
      </trkpt>
      <trkpt lat="47.48693" lon="-0.58958">
        <ele>44</ele>
        <time>2015-07-07T07:59:36.000Z</time>
      </trkpt>
      <trkpt lat="47.48694" lon="-0.58961">
        <ele>44</ele>
        <time>2015-07-07T07:59:37.000Z</time>
      </trkpt>
      <trkpt lat="47.48696" lon="-0.58964">
        <ele>44</ele>
        <time>2015-07-07T07:59:38.000Z</time>
      </trkpt>
      <trkpt lat="47.48697" lon="-0.58968">
        <ele>44</ele>
        <time>2015-07-07T07:59:39.000Z</time>
      </trkpt>
      <trkpt lat="47.48698" lon="-0.58971">
        <ele>44</ele>
        <time>2015-07-07T07:59:40.000Z</time>
      </trkpt>
      <trkpt lat="47.487" lon="-0.58974">
        <ele>44</ele>
        <time>2015-07-07T07:59:41.000Z</time>
      </trkpt>
      <trkpt lat="47.48701" lon="-0.58978">
        <ele>44</ele>
        <time>2015-07-07T07:59:42.000Z</time>
      </trkpt>
      <trkpt lat="47.48703" lon="-0.58981">
        <ele>44</ele>
        <time>2015-07-07T07:59:43.000Z</time>
      </trkpt>
      <trkpt lat="47.48704" lon="-0.58985">
        <ele>44</ele>
        <time>2015-07-07T07:59:44.000Z</time>
      </trkpt>
      <trkpt lat="47.48705" lon="-0.58988">
        <ele>45</ele>
        <time>2015-07-07T07:59:45.000Z</time>
      </trkpt>
      <trkpt lat="47.48707" lon="-0.58992">
        <ele>44</ele>
        <time>2015-07-07T07:59:46.000Z</time>
      </trkpt>
      <trkpt lat="47.48708" lon="-0.58996">
        <ele>44</ele>
        <time>2015-07-07T07:59:47.000Z</time>
      </trkpt>
      <trkpt lat="47.4871" lon="-0.59">
        <ele>43</ele>
        <time>2015-07-07T07:59:48.000Z</time>
      </trkpt>
      <trkpt lat="47.48711" lon="-0.59003">
        <ele>43</ele>
        <time>2015-07-07T07:59:49.000Z</time>
      </trkpt>
      <trkpt lat="47.48713" lon="-0.59007">
        <ele>43</ele>
        <time>2015-07-07T07:59:50.000Z</time>
      </trkpt>
      <trkpt lat="47.48714" lon="-0.5901">
        <ele>43</ele>
        <time>2015-07-07T07:59:51.000Z</time>
      </trkpt>
      <trkpt lat="47.48715" lon="-0.59013">
        <ele>44</ele>
        <time>2015-07-07T07:59:52.000Z</time>
      </trkpt>
      <trkpt lat="47.48716" lon="-0.59016">
        <ele>43</ele>
        <time>2015-07-07T07:59:53.000Z</time>
      </trkpt>
      <trkpt lat="47.48718" lon="-0.5902">
        <ele>43</ele>
        <time>2015-07-07T07:59:54.000Z</time>
      </trkpt>
      <trkpt lat="47.48719" lon="-0.59023">
        <ele>43</ele>
        <time>2015-07-07T07:59:55.000Z</time>
      </trkpt>
      <trkpt lat="47.4872" lon="-0.59026">
        <ele>43</ele>
        <time>2015-07-07T07:59:56.000Z</time>
      </trkpt>
      <trkpt lat="47.48721" lon="-0.59029">
        <ele>43</ele>
        <time>2015-07-07T07:59:57.000Z</time>
      </trkpt>
      <trkpt lat="47.48723" lon="-0.59033">
        <ele>42</ele>
        <time>2015-07-07T07:59:58.000Z</time>
      </trkpt>
      <trkpt lat="47.48724" lon="-0.59036">
        <ele>41</ele>
        <time>2015-07-07T07:59:59.000Z</time>
      </trkpt>
      <trkpt lat="47.48726" lon="-0.5904">
        <ele>41</ele>
        <time>2015-07-07T08:00:00.000Z</time>
      </trkpt>
      <trkpt lat="47.48727" lon="-0.59043">
        <ele>40</ele>
        <time>2015-07-07T08:00:01.000Z</time>
      </trkpt>
      <trkpt lat="47.48729" lon="-0.59047">
        <ele>41</ele>
        <time>2015-07-07T08:00:02.000Z</time>
      </trkpt>
      <trkpt lat="47.4873" lon="-0.5905">
        <ele>41</ele>
        <time>2015-07-07T08:00:03.000Z</time>
      </trkpt>
      <trkpt lat="47.48732" lon="-0.59054">
        <ele>41</ele>
        <time>2015-07-07T08:00:04.000Z</time>
      </trkpt>
      <trkpt lat="47.48733" lon="-0.59058">
        <ele>42</ele>
        <time>2015-07-07T08:00:05.000Z</time>
      </trkpt>
      <trkpt lat="47.48735" lon="-0.59062">
        <ele>42</ele>
        <time>2015-07-07T08:00:06.000Z</time>
      </trkpt>
      <trkpt lat="47.48736" lon="-0.59066">
        <ele>42</ele>
        <time>2015-07-07T08:00:07.000Z</time>
      </trkpt>
      <trkpt lat="47.48737" lon="-0.59069">
        <ele>42</ele>
        <time>2015-07-07T08:00:08.000Z</time>
      </trkpt>
      <trkpt lat="47.48738" lon="-0.59073">
        <ele>43</ele>
        <time>2015-07-07T08:00:09.000Z</time>
      </trkpt>
      <trkpt lat="47.48739" lon="-0.59077">
        <ele>43</ele>
        <time>2015-07-07T08:00:10.000Z</time>
      </trkpt>
      <trkpt lat="47.48739" lon="-0.5908">
        <ele>42</ele>
        <time>2015-07-07T08:00:11.000Z</time>
      </trkpt>
      <trkpt lat="47.48738" lon="-0.59083">
        <ele>43</ele>
        <time>2015-07-07T08:00:12.000Z</time>
      </trkpt>
      <trkpt lat="47.48737" lon="-0.59086">
        <ele>44</ele>
        <time>2015-07-07T08:00:13.000Z</time>
      </trkpt>
      <trkpt lat="47.48736" lon="-0.59088">
        <ele>43</ele>
        <time>2015-07-07T08:00:14.000Z</time>
      </trkpt>
      <trkpt lat="47.48734" lon="-0.5909">
        <ele>44</ele>
        <time>2015-07-07T08:00:15.000Z</time>
      </trkpt>
      <trkpt lat="47.48733" lon="-0.59091">
        <ele>43</ele>
        <time>2015-07-07T08:00:16.000Z</time>
      </trkpt>
      <trkpt lat="47.48731" lon="-0.59094">
        <ele>43</ele>
        <time>2015-07-07T08:00:17.000Z</time>
      </trkpt>
      <trkpt lat="47.48729" lon="-0.59096">
        <ele>43</ele>
        <time>2015-07-07T08:00:18.000Z</time>
      </trkpt>
      <trkpt lat="47.48727" lon="-0.59098">
        <ele>44</ele>
        <time>2015-07-07T08:00:19.000Z</time>
      </trkpt>
      <trkpt lat="47.48724" lon="-0.59099">
        <ele>44</ele>
        <time>2015-07-07T08:00:20.000Z</time>
      </trkpt>
      <trkpt lat="47.48722" lon="-0.59101">
        <ele>45</ele>
        <time>2015-07-07T08:00:21.000Z</time>
      </trkpt>
      <trkpt lat="47.4872" lon="-0.59103">
        <ele>45</ele>
        <time>2015-07-07T08:00:22.000Z</time>
      </trkpt>
      <trkpt lat="47.48719" lon="-0.59104">
        <ele>47</ele>
        <time>2015-07-07T08:00:23.000Z</time>
      </trkpt>
      <trkpt lat="47.48716" lon="-0.59105">
        <ele>48</ele>
        <time>2015-07-07T08:00:24.000Z</time>
      </trkpt>
      <trkpt lat="47.48714" lon="-0.59106">
        <ele>48</ele>
        <time>2015-07-07T08:00:25.000Z</time>
      </trkpt>
      <trkpt lat="47.48711" lon="-0.59107">
        <ele>48</ele>
        <time>2015-07-07T08:00:26.000Z</time>
      </trkpt>
      <trkpt lat="47.48709" lon="-0.59108">
        <ele>47</ele>
        <time>2015-07-07T08:00:27.000Z</time>
      </trkpt>
      <trkpt lat="47.48706" lon="-0.59109">
        <ele>47</ele>
        <time>2015-07-07T08:00:28.000Z</time>
      </trkpt>
      <trkpt lat="47.48703" lon="-0.5911">
        <ele>48</ele>
        <time>2015-07-07T08:00:29.000Z</time>
      </trkpt>
      <trkpt lat="47.48701" lon="-0.59111">
        <ele>48</ele>
        <time>2015-07-07T08:00:30.000Z</time>
      </trkpt>
      <trkpt lat="47.48698" lon="-0.59112">
        <ele>48</ele>
        <time>2015-07-07T08:00:31.000Z</time>
      </trkpt>
      <trkpt lat="47.48696" lon="-0.59113">
        <ele>48</ele>
        <time>2015-07-07T08:00:32.000Z</time>
      </trkpt>
      <trkpt lat="47.48694" lon="-0.59114">
        <ele>48</ele>
        <time>2015-07-07T08:00:33.000Z</time>
      </trkpt>
      <trkpt lat="47.48691" lon="-0.59115">
        <ele>48</ele>
        <time>2015-07-07T08:00:34.000Z</time>
      </trkpt>
      <trkpt lat="47.48689" lon="-0.59116">
        <ele>48</ele>
        <time>2015-07-07T08:00:35.000Z</time>
      </trkpt>
      <trkpt lat="47.48686" lon="-0.59117">
        <ele>49</ele>
        <time>2015-07-07T08:00:36.000Z</time>
      </trkpt>
      <trkpt lat="47.48683" lon="-0.59117">
        <ele>49</ele>
        <time>2015-07-07T08:00:37.000Z</time>
      </trkpt>
      <trkpt lat="47.48681" lon="-0.59118">
        <ele>50</ele>
        <time>2015-07-07T08:00:38.000Z</time>
      </trkpt>
      <trkpt lat="47.48678" lon="-0.59119">
        <ele>50</ele>
        <time>2015-07-07T08:00:39.000Z</time>
      </trkpt>
      <trkpt lat="47.48676" lon="-0.5912">
        <ele>50</ele>
        <time>2015-07-07T08:00:40.000Z</time>
      </trkpt>
      <trkpt lat="47.48673" lon="-0.59122">
        <ele>51</ele>
        <time>2015-07-07T08:00:41.000Z</time>
      </trkpt>
      <trkpt lat="47.48671" lon="-0.59122">
        <ele>51</ele>
        <time>2015-07-07T08:00:42.000Z</time>
      </trkpt>
      <trkpt lat="47.48668" lon="-0.59123">
        <ele>51</ele>
        <time>2015-07-07T08:00:43.000Z</time>
      </trkpt>
      <trkpt lat="47.48665" lon="-0.59124">
        <ele>51</ele>
        <time>2015-07-07T08:00:44.000Z</time>
      </trkpt>
      <trkpt lat="47.48663" lon="-0.59125">
        <ele>52</ele>
        <time>2015-07-07T08:00:45.000Z</time>
      </trkpt>
      <trkpt lat="47.48661" lon="-0.59127">
        <ele>51</ele>
        <time>2015-07-07T08:00:46.000Z</time>
      </trkpt>
      <trkpt lat="47.48658" lon="-0.59128">
        <ele>51</ele>
        <time>2015-07-07T08:00:47.000Z</time>
      </trkpt>
      <trkpt lat="47.48656" lon="-0.59129">
        <ele>51</ele>
        <time>2015-07-07T08:00:48.000Z</time>
      </trkpt>
      <trkpt lat="47.48653" lon="-0.59131">
        <ele>51</ele>
        <time>2015-07-07T08:00:49.000Z</time>
      </trkpt>
      <trkpt lat="47.48651" lon="-0.59132">
        <ele>51</ele>
        <time>2015-07-07T08:00:50.000Z</time>
      </trkpt>
      <trkpt lat="47.48648" lon="-0.59133">
        <ele>51</ele>
        <time>2015-07-07T08:00:51.000Z</time>
      </trkpt>
      <trkpt lat="47.48646" lon="-0.59134">
        <ele>51</ele>
        <time>2015-07-07T08:00:52.000Z</time>
      </trkpt>
      <trkpt lat="47.48644" lon="-0.59134">
        <ele>50</ele>
        <time>2015-07-07T08:00:53.000Z</time>
      </trkpt>
      <trkpt lat="47.48641" lon="-0.59135">
        <ele>49</ele>
        <time>2015-07-07T08:00:54.000Z</time>
      </trkpt>
      <trkpt lat="47.48639" lon="-0.59135">
        <ele>50</ele>
        <time>2015-07-07T08:00:55.000Z</time>
      </trkpt>
      <trkpt lat="47.48636" lon="-0.59136">
        <ele>50</ele>
        <time>2015-07-07T08:00:56.000Z</time>
      </trkpt>
      <trkpt lat="47.48634" lon="-0.59137">
        <ele>50</ele>
        <time>2015-07-07T08:00:57.000Z</time>
      </trkpt>
      <trkpt lat="47.48631" lon="-0.59138">
        <ele>50</ele>
        <time>2015-07-07T08:00:58.000Z</time>
      </trkpt>
      <trkpt lat="47.48628" lon="-0.59139">
        <ele>50</ele>
        <time>2015-07-07T08:00:59.000Z</time>
      </trkpt>
      <trkpt lat="47.48626" lon="-0.5914">
        <ele>50</ele>
        <time>2015-07-07T08:01:00.000Z</time>
      </trkpt>
      <trkpt lat="47.48623" lon="-0.59142">
        <ele>50</ele>
        <time>2015-07-07T08:01:01.000Z</time>
      </trkpt>
      <trkpt lat="47.48621" lon="-0.59143">
        <ele>50</ele>
        <time>2015-07-07T08:01:02.000Z</time>
      </trkpt>
      <trkpt lat="47.48618" lon="-0.59144">
        <ele>50</ele>
        <time>2015-07-07T08:01:03.000Z</time>
      </trkpt>
      <trkpt lat="47.48615" lon="-0.59145">
        <ele>50</ele>
        <time>2015-07-07T08:01:04.000Z</time>
      </trkpt>
      <trkpt lat="47.48613" lon="-0.59146">
        <ele>50</ele>
        <time>2015-07-07T08:01:05.000Z</time>
      </trkpt>
      <trkpt lat="47.4861" lon="-0.59147">
        <ele>51</ele>
        <time>2015-07-07T08:01:06.000Z</time>
      </trkpt>
      <trkpt lat="47.48607" lon="-0.59148">
        <ele>52</ele>
        <time>2015-07-07T08:01:07.000Z</time>
      </trkpt>
      <trkpt lat="47.48605" lon="-0.59149">
        <ele>52</ele>
        <time>2015-07-07T08:01:08.000Z</time>
      </trkpt>
      <trkpt lat="47.48602" lon="-0.5915">
        <ele>52</ele>
        <time>2015-07-07T08:01:09.000Z</time>
      </trkpt>
      <trkpt lat="47.48599" lon="-0.59151">
        <ele>53</ele>
        <time>2015-07-07T08:01:10.000Z</time>
      </trkpt>
      <trkpt lat="47.48596" lon="-0.59152">
        <ele>53</ele>
        <time>2015-07-07T08:01:11.000Z</time>
      </trkpt>
      <trkpt lat="47.48594" lon="-0.59153">
        <ele>53</ele>
        <time>2015-07-07T08:01:12.000Z</time>
      </trkpt>
      <trkpt lat="47.48591" lon="-0.59154">
        <ele>53</ele>
        <time>2015-07-07T08:01:13.000Z</time>
      </trkpt>
      <trkpt lat="47.48589" lon="-0.59156">
        <ele>54</ele>
        <time>2015-07-07T08:01:14.000Z</time>
      </trkpt>
      <trkpt lat="47.48586" lon="-0.59157">
        <ele>54</ele>
        <time>2015-07-07T08:01:15.000Z</time>
      </trkpt>
      <trkpt lat="47.48584" lon="-0.59158">
        <ele>55</ele>
        <time>2015-07-07T08:01:16.000Z</time>
      </trkpt>
      <trkpt lat="47.48581" lon="-0.59159">
        <ele>54</ele>
        <time>2015-07-07T08:01:17.000Z</time>
      </trkpt>
      <trkpt lat="47.48579" lon="-0.5916">
        <ele>54</ele>
        <time>2015-07-07T08:01:18.000Z</time>
      </trkpt>
      <trkpt lat="47.48576" lon="-0.59161">
        <ele>53</ele>
        <time>2015-07-07T08:01:19.000Z</time>
      </trkpt>
      <trkpt lat="47.48573" lon="-0.59163">
        <ele>53</ele>
        <time>2015-07-07T08:01:20.000Z</time>
      </trkpt>
      <trkpt lat="47.4857" lon="-0.59164">
        <ele>52</ele>
        <time>2015-07-07T08:01:21.000Z</time>
      </trkpt>
      <trkpt lat="47.48568" lon="-0.59165">
        <ele>52</ele>
        <time>2015-07-07T08:01:22.000Z</time>
      </trkpt>
      <trkpt lat="47.48565" lon="-0.59166">
        <ele>52</ele>
        <time>2015-07-07T08:01:23.000Z</time>
      </trkpt>
      <trkpt lat="47.48562" lon="-0.59167">
        <ele>52</ele>
        <time>2015-07-07T08:01:24.000Z</time>
      </trkpt>
      <trkpt lat="47.4856" lon="-0.59169">
        <ele>52</ele>
        <time>2015-07-07T08:01:25.000Z</time>
      </trkpt>
      <trkpt lat="47.48558" lon="-0.5917">
        <ele>52</ele>
        <time>2015-07-07T08:01:26.000Z</time>
      </trkpt>
      <trkpt lat="47.48555" lon="-0.59171">
        <ele>52</ele>
        <time>2015-07-07T08:01:27.000Z</time>
      </trkpt>
      <trkpt lat="47.48552" lon="-0.59173">
        <ele>52</ele>
        <time>2015-07-07T08:01:28.000Z</time>
      </trkpt>
      <trkpt lat="47.4855" lon="-0.59174">
        <ele>52</ele>
        <time>2015-07-07T08:01:29.000Z</time>
      </trkpt>
      <trkpt lat="47.48548" lon="-0.59175">
        <ele>52</ele>
        <time>2015-07-07T08:01:30.000Z</time>
      </trkpt>
      <trkpt lat="47.48545" lon="-0.59176">
        <ele>51</ele>
        <time>2015-07-07T08:01:31.000Z</time>
      </trkpt>
      <trkpt lat="47.48543" lon="-0.59178">
        <ele>51</ele>
        <time>2015-07-07T08:01:32.000Z</time>
      </trkpt>
      <trkpt lat="47.4854" lon="-0.5918">
        <ele>51</ele>
        <time>2015-07-07T08:01:33.000Z</time>
      </trkpt>
      <trkpt lat="47.48538" lon="-0.59181">
        <ele>50</ele>
        <time>2015-07-07T08:01:34.000Z</time>
      </trkpt>
      <trkpt lat="47.48535" lon="-0.59182">
        <ele>50</ele>
        <time>2015-07-07T08:01:35.000Z</time>
      </trkpt>
      <trkpt lat="47.48533" lon="-0.59183">
        <ele>49</ele>
        <time>2015-07-07T08:01:36.000Z</time>
      </trkpt>
      <trkpt lat="47.48531" lon="-0.59184">
        <ele>50</ele>
        <time>2015-07-07T08:01:37.000Z</time>
      </trkpt>
      <trkpt lat="47.48528" lon="-0.59186">
        <ele>50</ele>
        <time>2015-07-07T08:01:38.000Z</time>
      </trkpt>
      <trkpt lat="47.48525" lon="-0.59187">
        <ele>49</ele>
        <time>2015-07-07T08:01:39.000Z</time>
      </trkpt>
      <trkpt lat="47.48523" lon="-0.59188">
        <ele>49</ele>
        <time>2015-07-07T08:01:40.000Z</time>
      </trkpt>
      <trkpt lat="47.4852" lon="-0.5919">
        <ele>49</ele>
        <time>2015-07-07T08:01:41.000Z</time>
      </trkpt>
      <trkpt lat="47.48517" lon="-0.59191">
        <ele>49</ele>
        <time>2015-07-07T08:01:42.000Z</time>
      </trkpt>
      <trkpt lat="47.48515" lon="-0.59191">
        <ele>49</ele>
        <time>2015-07-07T08:01:43.000Z</time>
      </trkpt>
      <trkpt lat="47.48512" lon="-0.59192">
        <ele>49</ele>
        <time>2015-07-07T08:01:44.000Z</time>
      </trkpt>
      <trkpt lat="47.4851" lon="-0.59194">
        <ele>49</ele>
        <time>2015-07-07T08:01:45.000Z</time>
      </trkpt>
      <trkpt lat="47.48507" lon="-0.59195">
        <ele>50</ele>
        <time>2015-07-07T08:01:46.000Z</time>
      </trkpt>
      <trkpt lat="47.48504" lon="-0.59196">
        <ele>51</ele>
        <time>2015-07-07T08:01:47.000Z</time>
      </trkpt>
      <trkpt lat="47.48502" lon="-0.59197">
        <ele>52</ele>
        <time>2015-07-07T08:01:48.000Z</time>
      </trkpt>
      <trkpt lat="47.48499" lon="-0.59198">
        <ele>51</ele>
        <time>2015-07-07T08:01:49.000Z</time>
      </trkpt>
      <trkpt lat="47.48497" lon="-0.59199">
        <ele>52</ele>
        <time>2015-07-07T08:01:50.000Z</time>
      </trkpt>
      <trkpt lat="47.48495" lon="-0.59201">
        <ele>51</ele>
        <time>2015-07-07T08:01:51.000Z</time>
      </trkpt>
      <trkpt lat="47.48492" lon="-0.59202">
        <ele>51</ele>
        <time>2015-07-07T08:01:52.000Z</time>
      </trkpt>
      <trkpt lat="47.4849" lon="-0.59204">
        <ele>50</ele>
        <time>2015-07-07T08:01:53.000Z</time>
      </trkpt>
      <trkpt lat="47.48487" lon="-0.59205">
        <ele>49</ele>
        <time>2015-07-07T08:01:54.000Z</time>
      </trkpt>
      <trkpt lat="47.48484" lon="-0.59207">
        <ele>48</ele>
        <time>2015-07-07T08:01:55.000Z</time>
      </trkpt>
      <trkpt lat="47.48482" lon="-0.59208">
        <ele>48</ele>
        <time>2015-07-07T08:01:56.000Z</time>
      </trkpt>
      <trkpt lat="47.48479" lon="-0.59209">
        <ele>48</ele>
        <time>2015-07-07T08:01:57.000Z</time>
      </trkpt>
      <trkpt lat="47.48477" lon="-0.5921">
        <ele>48</ele>
        <time>2015-07-07T08:01:58.000Z</time>
      </trkpt>
      <trkpt lat="47.48474" lon="-0.59211">
        <ele>48</ele>
        <time>2015-07-07T08:01:59.000Z</time>
      </trkpt>
      <trkpt lat="47.48472" lon="-0.59212">
        <ele>48</ele>
        <time>2015-07-07T08:02:00.000Z</time>
      </trkpt>
      <trkpt lat="47.48469" lon="-0.59213">
        <ele>48</ele>
        <time>2015-07-07T08:02:01.000Z</time>
      </trkpt>
      <trkpt lat="47.48467" lon="-0.59214">
        <ele>48</ele>
        <time>2015-07-07T08:02:02.000Z</time>
      </trkpt>
      <trkpt lat="47.48464" lon="-0.59215">
        <ele>48</ele>
        <time>2015-07-07T08:02:03.000Z</time>
      </trkpt>
      <trkpt lat="47.48462" lon="-0.59216">
        <ele>49</ele>
        <time>2015-07-07T08:02:04.000Z</time>
      </trkpt>
      <trkpt lat="47.4846" lon="-0.59218">
        <ele>49</ele>
        <time>2015-07-07T08:02:05.000Z</time>
      </trkpt>
      <trkpt lat="47.48457" lon="-0.59219">
        <ele>49</ele>
        <time>2015-07-07T08:02:06.000Z</time>
      </trkpt>
      <trkpt lat="47.48455" lon="-0.59221">
        <ele>48</ele>
        <time>2015-07-07T08:02:07.000Z</time>
      </trkpt>
      <trkpt lat="47.48452" lon="-0.59222">
        <ele>48</ele>
        <time>2015-07-07T08:02:08.000Z</time>
      </trkpt>
      <trkpt lat="47.48449" lon="-0.59223">
        <ele>48</ele>
        <time>2015-07-07T08:02:09.000Z</time>
      </trkpt>
      <trkpt lat="47.48447" lon="-0.59225">
        <ele>48</ele>
        <time>2015-07-07T08:02:10.000Z</time>
      </trkpt>
      <trkpt lat="47.48444" lon="-0.59227">
        <ele>47</ele>
        <time>2015-07-07T08:02:11.000Z</time>
      </trkpt>
      <trkpt lat="47.48442" lon="-0.5923">
        <ele>45</ele>
        <time>2015-07-07T08:02:12.000Z</time>
      </trkpt>
      <trkpt lat="47.4844" lon="-0.59232">
        <ele>43</ele>
        <time>2015-07-07T08:02:13.000Z</time>
      </trkpt>
      <trkpt lat="47.48438" lon="-0.59236">
        <ele>41</ele>
        <time>2015-07-07T08:02:14.000Z</time>
      </trkpt>
      <trkpt lat="47.48437" lon="-0.59239">
        <ele>40</ele>
        <time>2015-07-07T08:02:15.000Z</time>
      </trkpt>
      <trkpt lat="47.48435" lon="-0.59243">
        <ele>40</ele>
        <time>2015-07-07T08:02:16.000Z</time>
      </trkpt>
      <trkpt lat="47.48433" lon="-0.59246">
        <ele>39</ele>
        <time>2015-07-07T08:02:17.000Z</time>
      </trkpt>
      <trkpt lat="47.48432" lon="-0.59249">
        <ele>39</ele>
        <time>2015-07-07T08:02:18.000Z</time>
      </trkpt>
      <trkpt lat="47.48431" lon="-0.59252">
        <ele>38</ele>
        <time>2015-07-07T08:02:19.000Z</time>
      </trkpt>
      <trkpt lat="47.4843" lon="-0.59256">
        <ele>37</ele>
        <time>2015-07-07T08:02:20.000Z</time>
      </trkpt>
      <trkpt lat="47.4843" lon="-0.59259">
        <ele>38</ele>
        <time>2015-07-07T08:02:21.000Z</time>
      </trkpt>
      <trkpt lat="47.4843" lon="-0.59261">
        <ele>37</ele>
        <time>2015-07-07T08:02:22.000Z</time>
      </trkpt>
      <trkpt lat="47.48429" lon="-0.59263">
        <ele>37</ele>
        <time>2015-07-07T08:02:23.000Z</time>
      </trkpt>
      <trkpt lat="47.48428" lon="-0.59263">
        <ele>37</ele>
        <time>2015-07-07T08:02:24.000Z</time>
      </trkpt>
      <trkpt lat="47.48427" lon="-0.59263">
        <ele>36</ele>
        <time>2015-07-07T08:02:25.000Z</time>
      </trkpt>
      <trkpt lat="47.48426" lon="-0.59261">
        <ele>36</ele>
        <time>2015-07-07T08:02:26.000Z</time>
      </trkpt>
      <trkpt lat="47.48425" lon="-0.59259">
        <ele>35</ele>
        <time>2015-07-07T08:02:27.000Z</time>
      </trkpt>
      <trkpt lat="47.48424" lon="-0.59256">
        <ele>34</ele>
        <time>2015-07-07T08:02:28.000Z</time>
      </trkpt>
      <trkpt lat="47.48422" lon="-0.59254">
        <ele>35</ele>
        <time>2015-07-07T08:02:29.000Z</time>
      </trkpt>
      <trkpt lat="47.48421" lon="-0.59251">
        <ele>34</ele>
        <time>2015-07-07T08:02:30.000Z</time>
      </trkpt>
      <trkpt lat="47.48419" lon="-0.59249">
        <ele>34</ele>
        <time>2015-07-07T08:02:31.000Z</time>
      </trkpt>
      <trkpt lat="47.48417" lon="-0.59247">
        <ele>33</ele>
        <time>2015-07-07T08:02:32.000Z</time>
      </trkpt>
      <trkpt lat="47.48415" lon="-0.59246">
        <ele>33</ele>
        <time>2015-07-07T08:02:33.000Z</time>
      </trkpt>
      <trkpt lat="47.48414" lon="-0.59245">
        <ele>32</ele>
        <time>2015-07-07T08:02:34.000Z</time>
      </trkpt>
      <trkpt lat="47.48412" lon="-0.59245">
        <ele>32</ele>
        <time>2015-07-07T08:02:35.000Z</time>
      </trkpt>
      <trkpt lat="47.4841" lon="-0.59246">
        <ele>32</ele>
        <time>2015-07-07T08:02:36.000Z</time>
      </trkpt>
      <trkpt lat="47.48409" lon="-0.59247">
        <ele>32</ele>
        <time>2015-07-07T08:02:37.000Z</time>
      </trkpt>
      <trkpt lat="47.48408" lon="-0.59249">
        <ele>33</ele>
        <time>2015-07-07T08:02:38.000Z</time>
      </trkpt>
      <trkpt lat="47.48407" lon="-0.59251">
        <ele>35</ele>
        <time>2015-07-07T08:02:39.000Z</time>
      </trkpt>
      <trkpt lat="47.48407" lon="-0.59254">
        <ele>34</ele>
        <time>2015-07-07T08:02:40.000Z</time>
      </trkpt>
      <trkpt lat="47.48406" lon="-0.59256">
        <ele>35</ele>
        <time>2015-07-07T08:02:41.000Z</time>
      </trkpt>
      <trkpt lat="47.48405" lon="-0.59259">
        <ele>34</ele>
        <time>2015-07-07T08:02:42.000Z</time>
      </trkpt>
      <trkpt lat="47.48404" lon="-0.59261">
        <ele>34</ele>
        <time>2015-07-07T08:02:43.000Z</time>
      </trkpt>
      <trkpt lat="47.48403" lon="-0.59264">
        <ele>33</ele>
        <time>2015-07-07T08:02:44.000Z</time>
      </trkpt>
      <trkpt lat="47.48401" lon="-0.59266">
        <ele>34</ele>
        <time>2015-07-07T08:02:45.000Z</time>
      </trkpt>
      <trkpt lat="47.48399" lon="-0.59267">
        <ele>34</ele>
        <time>2015-07-07T08:02:46.000Z</time>
      </trkpt>
      <trkpt lat="47.48397" lon="-0.59269">
        <ele>35</ele>
        <time>2015-07-07T08:02:47.000Z</time>
      </trkpt>
      <trkpt lat="47.48395" lon="-0.5927">
        <ele>36</ele>
        <time>2015-07-07T08:02:48.000Z</time>
      </trkpt>
      <trkpt lat="47.48393" lon="-0.5927">
        <ele>35</ele>
        <time>2015-07-07T08:02:49.000Z</time>
      </trkpt>
      <trkpt lat="47.48391" lon="-0.59271">
        <ele>35</ele>
        <time>2015-07-07T08:02:50.000Z</time>
      </trkpt>
      <trkpt lat="47.48389" lon="-0.59271">
        <ele>35</ele>
        <time>2015-07-07T08:02:51.000Z</time>
      </trkpt>
      <trkpt lat="47.48387" lon="-0.59271">
        <ele>35</ele>
        <time>2015-07-07T08:02:52.000Z</time>
      </trkpt>
      <trkpt lat="47.48385" lon="-0.59271">
        <ele>35</ele>
        <time>2015-07-07T08:02:53.000Z</time>
      </trkpt>
      <trkpt lat="47.48382" lon="-0.59271">
        <ele>35</ele>
        <time>2015-07-07T08:02:54.000Z</time>
      </trkpt>
      <trkpt lat="47.48379" lon="-0.5927">
        <ele>34</ele>
        <time>2015-07-07T08:02:55.000Z</time>
      </trkpt>
      <trkpt lat="47.48376" lon="-0.5927">
        <ele>33</ele>
        <time>2015-07-07T08:02:56.000Z</time>
      </trkpt>
      <trkpt lat="47.48374" lon="-0.5927">
        <ele>32</ele>
        <time>2015-07-07T08:02:57.000Z</time>
      </trkpt>
      <trkpt lat="47.48372" lon="-0.5927">
        <ele>32</ele>
        <time>2015-07-07T08:02:58.000Z</time>
      </trkpt>
      <trkpt lat="47.4837" lon="-0.5927">
        <ele>32</ele>
        <time>2015-07-07T08:02:59.000Z</time>
      </trkpt>
      <trkpt lat="47.48368" lon="-0.5927">
        <ele>32</ele>
        <time>2015-07-07T08:03:00.000Z</time>
      </trkpt>
      <trkpt lat="47.48366" lon="-0.5927">
        <ele>31</ele>
        <time>2015-07-07T08:03:01.000Z</time>
      </trkpt>
      <trkpt lat="47.48364" lon="-0.59269">
        <ele>30</ele>
        <time>2015-07-07T08:03:02.000Z</time>
      </trkpt>
      <trkpt lat="47.48362" lon="-0.59268">
        <ele>30</ele>
        <time>2015-07-07T08:03:03.000Z</time>
      </trkpt>
      <trkpt lat="47.4836" lon="-0.59268">
        <ele>30</ele>
        <time>2015-07-07T08:03:04.000Z</time>
      </trkpt>
      <trkpt lat="47.48359" lon="-0.59268">
        <ele>30</ele>
        <time>2015-07-07T08:03:05.000Z</time>
      </trkpt>
      <trkpt lat="47.48356" lon="-0.59269">
        <ele>29</ele>
        <time>2015-07-07T08:03:06.000Z</time>
      </trkpt>
      <trkpt lat="47.48354" lon="-0.59269">
        <ele>28</ele>
        <time>2015-07-07T08:03:07.000Z</time>
      </trkpt>
      <trkpt lat="47.48351" lon="-0.5927">
        <ele>27</ele>
        <time>2015-07-07T08:03:08.000Z</time>
      </trkpt>
      <trkpt lat="47.48347" lon="-0.59272">
        <ele>27</ele>
        <time>2015-07-07T08:03:09.000Z</time>
      </trkpt>
      <trkpt lat="47.48345" lon="-0.59274">
        <ele>26</ele>
        <time>2015-07-07T08:03:10.000Z</time>
      </trkpt>
      <trkpt lat="47.48342" lon="-0.59278">
        <ele>29</ele>
        <time>2015-07-07T08:03:11.000Z</time>
      </trkpt>
      <trkpt lat="47.48341" lon="-0.59281">
        <ele>29</ele>
        <time>2015-07-07T08:03:12.000Z</time>
      </trkpt>
      <trkpt lat="47.4834" lon="-0.59285">
        <ele>29</ele>
        <time>2015-07-07T08:03:13.000Z</time>
      </trkpt>
      <trkpt lat="47.48338" lon="-0.59289">
        <ele>29</ele>
        <time>2015-07-07T08:03:14.000Z</time>
      </trkpt>
      <trkpt lat="47.48337" lon="-0.59292">
        <ele>28</ele>
        <time>2015-07-07T08:03:15.000Z</time>
      </trkpt>
      <trkpt lat="47.48336" lon="-0.59296">
        <ele>28</ele>
        <time>2015-07-07T08:03:16.000Z</time>
      </trkpt>
      <trkpt lat="47.48335" lon="-0.593">
        <ele>29</ele>
        <time>2015-07-07T08:03:17.000Z</time>
      </trkpt>
      <trkpt lat="47.48335" lon="-0.59304">
        <ele>29</ele>
        <time>2015-07-07T08:03:18.000Z</time>
      </trkpt>
      <trkpt lat="47.48335" lon="-0.59308">
        <ele>30</ele>
        <time>2015-07-07T08:03:19.000Z</time>
      </trkpt>
      <trkpt lat="47.48335" lon="-0.59312">
        <ele>30</ele>
        <time>2015-07-07T08:03:20.000Z</time>
      </trkpt>
      <trkpt lat="47.48335" lon="-0.59315">
        <ele>30</ele>
        <time>2015-07-07T08:03:21.000Z</time>
      </trkpt>
      <trkpt lat="47.48334" lon="-0.5932">
        <ele>29</ele>
        <time>2015-07-07T08:03:22.000Z</time>
      </trkpt>
      <trkpt lat="47.48334" lon="-0.59324">
        <ele>28</ele>
        <time>2015-07-07T08:03:23.000Z</time>
      </trkpt>
      <trkpt lat="47.48333" lon="-0.59328">
        <ele>28</ele>
        <time>2015-07-07T08:03:24.000Z</time>
      </trkpt>
      <trkpt lat="47.48333" lon="-0.59331">
        <ele>28</ele>
        <time>2015-07-07T08:03:25.000Z</time>
      </trkpt>
      <trkpt lat="47.48333" lon="-0.59335">
        <ele>28</ele>
        <time>2015-07-07T08:03:26.000Z</time>
      </trkpt>
      <trkpt lat="47.48332" lon="-0.59339">
        <ele>26</ele>
        <time>2015-07-07T08:03:27.000Z</time>
      </trkpt>
      <trkpt lat="47.48331" lon="-0.59343">
        <ele>26</ele>
        <time>2015-07-07T08:03:28.000Z</time>
      </trkpt>
      <trkpt lat="47.48331" lon="-0.59347">
        <ele>26</ele>
        <time>2015-07-07T08:03:29.000Z</time>
      </trkpt>
      <trkpt lat="47.48331" lon="-0.59351">
        <ele>27</ele>
        <time>2015-07-07T08:03:30.000Z</time>
      </trkpt>
      <trkpt lat="47.48331" lon="-0.59355">
        <ele>28</ele>
        <time>2015-07-07T08:03:31.000Z</time>
      </trkpt>
      <trkpt lat="47.48332" lon="-0.59359">
        <ele>28</ele>
        <time>2015-07-07T08:03:32.000Z</time>
      </trkpt>
      <trkpt lat="47.48332" lon="-0.59362">
        <ele>28</ele>
        <time>2015-07-07T08:03:33.000Z</time>
      </trkpt>
      <trkpt lat="47.48332" lon="-0.59366">
        <ele>29</ele>
        <time>2015-07-07T08:03:34.000Z</time>
      </trkpt>
      <trkpt lat="47.48331" lon="-0.5937">
        <ele>29</ele>
        <time>2015-07-07T08:03:35.000Z</time>
      </trkpt>
      <trkpt lat="47.48331" lon="-0.59374">
        <ele>29</ele>
        <time>2015-07-07T08:03:36.000Z</time>
      </trkpt>
      <trkpt lat="47.48331" lon="-0.59378">
        <ele>29</ele>
        <time>2015-07-07T08:03:37.000Z</time>
      </trkpt>
      <trkpt lat="47.48332" lon="-0.59382">
        <ele>29</ele>
        <time>2015-07-07T08:03:38.000Z</time>
      </trkpt>
      <trkpt lat="47.48332" lon="-0.59385">
        <ele>29</ele>
        <time>2015-07-07T08:03:39.000Z</time>
      </trkpt>
      <trkpt lat="47.48332" lon="-0.59389">
        <ele>29</ele>
        <time>2015-07-07T08:03:40.000Z</time>
      </trkpt>
      <trkpt lat="47.48333" lon="-0.59393">
        <ele>28</ele>
        <time>2015-07-07T08:03:41.000Z</time>
      </trkpt>
      <trkpt lat="47.48333" lon="-0.59397">
        <ele>28</ele>
        <time>2015-07-07T08:03:42.000Z</time>
      </trkpt>
      <trkpt lat="47.48333" lon="-0.59401">
        <ele>28</ele>
        <time>2015-07-07T08:03:43.000Z</time>
      </trkpt>
      <trkpt lat="47.48333" lon="-0.59405">
        <ele>29</ele>
        <time>2015-07-07T08:03:44.000Z</time>
      </trkpt>
      <trkpt lat="47.48332" lon="-0.5941">
        <ele>29</ele>
        <time>2015-07-07T08:03:45.000Z</time>
      </trkpt>
      <trkpt lat="47.48332" lon="-0.59414">
        <ele>29</ele>
        <time>2015-07-07T08:03:46.000Z</time>
      </trkpt>
      <trkpt lat="47.48332" lon="-0.59418">
        <ele>29</ele>
        <time>2015-07-07T08:03:47.000Z</time>
      </trkpt>
      <trkpt lat="47.48332" lon="-0.59422">
        <ele>29</ele>
        <time>2015-07-07T08:03:48.000Z</time>
      </trkpt>
      <trkpt lat="47.48332" lon="-0.59426">
        <ele>29</ele>
        <time>2015-07-07T08:03:49.000Z</time>
      </trkpt>
      <trkpt lat="47.48332" lon="-0.5943">
        <ele>29</ele>
        <time>2015-07-07T08:03:50.000Z</time>
      </trkpt>
      <trkpt lat="47.48332" lon="-0.59434">
        <ele>28</ele>
        <time>2015-07-07T08:03:51.000Z</time>
      </trkpt>
      <trkpt lat="47.48331" lon="-0.59439">
        <ele>29</ele>
        <time>2015-07-07T08:03:52.000Z</time>
      </trkpt>
      <trkpt lat="47.48331" lon="-0.59443">
        <ele>29</ele>
        <time>2015-07-07T08:03:53.000Z</time>
      </trkpt>
      <trkpt lat="47.48331" lon="-0.59447">
        <ele>28</ele>
        <time>2015-07-07T08:03:54.000Z</time>
      </trkpt>
      <trkpt lat="47.48331" lon="-0.59451">
        <ele>28</ele>
        <time>2015-07-07T08:03:55.000Z</time>
      </trkpt>
      <trkpt lat="47.48331" lon="-0.59455">
        <ele>28</ele>
        <time>2015-07-07T08:03:56.000Z</time>
      </trkpt>
      <trkpt lat="47.48331" lon="-0.59459">
        <ele>28</ele>
        <time>2015-07-07T08:03:57.000Z</time>
      </trkpt>
      <trkpt lat="47.4833" lon="-0.59463">
        <ele>28</ele>
        <time>2015-07-07T08:03:58.000Z</time>
      </trkpt>
      <trkpt lat="47.48329" lon="-0.59467">
        <ele>29</ele>
        <time>2015-07-07T08:03:59.000Z</time>
      </trkpt>
      <trkpt lat="47.48329" lon="-0.59471">
        <ele>28</ele>
        <time>2015-07-07T08:04:00.000Z</time>
      </trkpt>
      <trkpt lat="47.48329" lon="-0.59475">
        <ele>27</ele>
        <time>2015-07-07T08:04:01.000Z</time>
      </trkpt>
      <trkpt lat="47.48329" lon="-0.59479">
        <ele>27</ele>
        <time>2015-07-07T08:04:02.000Z</time>
      </trkpt>
      <trkpt lat="47.48329" lon="-0.59484">
        <ele>26</ele>
        <time>2015-07-07T08:04:03.000Z</time>
      </trkpt>
      <trkpt lat="47.48329" lon="-0.59487">
        <ele>26</ele>
        <time>2015-07-07T08:04:04.000Z</time>
      </trkpt>
      <trkpt lat="47.48329" lon="-0.59491">
        <ele>26</ele>
        <time>2015-07-07T08:04:05.000Z</time>
      </trkpt>
      <trkpt lat="47.48329" lon="-0.59495">
        <ele>27</ele>
        <time>2015-07-07T08:04:06.000Z</time>
      </trkpt>
      <trkpt lat="47.48329" lon="-0.59499">
        <ele>27</ele>
        <time>2015-07-07T08:04:07.000Z</time>
      </trkpt>
      <trkpt lat="47.48329" lon="-0.59503">
        <ele>28</ele>
        <time>2015-07-07T08:04:08.000Z</time>
      </trkpt>
      <trkpt lat="47.4833" lon="-0.59507">
        <ele>28</ele>
        <time>2015-07-07T08:04:09.000Z</time>
      </trkpt>
      <trkpt lat="47.4833" lon="-0.5951">
        <ele>28</ele>
        <time>2015-07-07T08:04:10.000Z</time>
      </trkpt>
      <trkpt lat="47.4833" lon="-0.59514">
        <ele>28</ele>
        <time>2015-07-07T08:04:11.000Z</time>
      </trkpt>
      <trkpt lat="47.4833" lon="-0.59518">
        <ele>29</ele>
        <time>2015-07-07T08:04:12.000Z</time>
      </trkpt>
      <trkpt lat="47.48331" lon="-0.59522">
        <ele>29</ele>
        <time>2015-07-07T08:04:13.000Z</time>
      </trkpt>
      <trkpt lat="47.48331" lon="-0.59526">
        <ele>30</ele>
        <time>2015-07-07T08:04:14.000Z</time>
      </trkpt>
      <trkpt lat="47.48331" lon="-0.5953">
        <ele>30</ele>
        <time>2015-07-07T08:04:15.000Z</time>
      </trkpt>
      <trkpt lat="47.48331" lon="-0.59534">
        <ele>30</ele>
        <time>2015-07-07T08:04:16.000Z</time>
      </trkpt>
      <trkpt lat="47.48331" lon="-0.59538">
        <ele>31</ele>
        <time>2015-07-07T08:04:17.000Z</time>
      </trkpt>
      <trkpt lat="47.48331" lon="-0.59542">
        <ele>31</ele>
        <time>2015-07-07T08:04:18.000Z</time>
      </trkpt>
      <trkpt lat="47.48332" lon="-0.59546">
        <ele>31</ele>
        <time>2015-07-07T08:04:19.000Z</time>
      </trkpt>
      <trkpt lat="47.48332" lon="-0.5955">
        <ele>32</ele>
        <time>2015-07-07T08:04:20.000Z</time>
      </trkpt>
      <trkpt lat="47.48332" lon="-0.59554">
        <ele>32</ele>
        <time>2015-07-07T08:04:21.000Z</time>
      </trkpt>
      <trkpt lat="47.48333" lon="-0.59558">
        <ele>32</ele>
        <time>2015-07-07T08:04:22.000Z</time>
      </trkpt>
      <trkpt lat="47.48333" lon="-0.59561">
        <ele>32</ele>
        <time>2015-07-07T08:04:23.000Z</time>
      </trkpt>
      <trkpt lat="47.48334" lon="-0.59566">
        <ele>31</ele>
        <time>2015-07-07T08:04:24.000Z</time>
      </trkpt>
      <trkpt lat="47.48335" lon="-0.5957">
        <ele>30</ele>
        <time>2015-07-07T08:04:25.000Z</time>
      </trkpt>
      <trkpt lat="47.48336" lon="-0.59574">
        <ele>32</ele>
        <time>2015-07-07T08:04:26.000Z</time>
      </trkpt>
      <trkpt lat="47.48337" lon="-0.59578">
        <ele>32</ele>
        <time>2015-07-07T08:04:27.000Z</time>
      </trkpt>
      <trkpt lat="47.48337" lon="-0.59583">
        <ele>32</ele>
        <time>2015-07-07T08:04:28.000Z</time>
      </trkpt>
      <trkpt lat="47.48337" lon="-0.59587">
        <ele>32</ele>
        <time>2015-07-07T08:04:29.000Z</time>
      </trkpt>
      <trkpt lat="47.48337" lon="-0.5959">
        <ele>33</ele>
        <time>2015-07-07T08:04:30.000Z</time>
      </trkpt>
      <trkpt lat="47.48338" lon="-0.59594">
        <ele>33</ele>
        <time>2015-07-07T08:04:31.000Z</time>
      </trkpt>
      <trkpt lat="47.48338" lon="-0.59599">
        <ele>33</ele>
        <time>2015-07-07T08:04:32.000Z</time>
      </trkpt>
      <trkpt lat="47.48338" lon="-0.59603">
        <ele>33</ele>
        <time>2015-07-07T08:04:33.000Z</time>
      </trkpt>
      <trkpt lat="47.48338" lon="-0.59607">
        <ele>34</ele>
        <time>2015-07-07T08:04:34.000Z</time>
      </trkpt>
      <trkpt lat="47.48338" lon="-0.59611">
        <ele>34</ele>
        <time>2015-07-07T08:04:35.000Z</time>
      </trkpt>
      <trkpt lat="47.48339" lon="-0.59615">
        <ele>35</ele>
        <time>2015-07-07T08:04:36.000Z</time>
      </trkpt>
      <trkpt lat="47.4834" lon="-0.59619">
        <ele>34</ele>
        <time>2015-07-07T08:04:37.000Z</time>
      </trkpt>
      <trkpt lat="47.4834" lon="-0.59624">
        <ele>34</ele>
        <time>2015-07-07T08:04:38.000Z</time>
      </trkpt>
      <trkpt lat="47.48341" lon="-0.59628">
        <ele>33</ele>
        <time>2015-07-07T08:04:39.000Z</time>
      </trkpt>
      <trkpt lat="47.48341" lon="-0.59632">
        <ele>33</ele>
        <time>2015-07-07T08:04:40.000Z</time>
      </trkpt>
      <trkpt lat="47.48342" lon="-0.59636">
        <ele>34</ele>
        <time>2015-07-07T08:04:41.000Z</time>
      </trkpt>
      <trkpt lat="47.48342" lon="-0.5964">
        <ele>34</ele>
        <time>2015-07-07T08:04:42.000Z</time>
      </trkpt>
      <trkpt lat="47.48342" lon="-0.59644">
        <ele>34</ele>
        <time>2015-07-07T08:04:43.000Z</time>
      </trkpt>
      <trkpt lat="47.48342" lon="-0.59648">
        <ele>34</ele>
        <time>2015-07-07T08:04:44.000Z</time>
      </trkpt>
      <trkpt lat="47.48342" lon="-0.59651">
        <ele>35</ele>
        <time>2015-07-07T08:04:45.000Z</time>
      </trkpt>
      <trkpt lat="47.48343" lon="-0.59655">
        <ele>35</ele>
        <time>2015-07-07T08:04:46.000Z</time>
      </trkpt>
      <trkpt lat="47.48343" lon="-0.59658">
        <ele>35</ele>
        <time>2015-07-07T08:04:47.000Z</time>
      </trkpt>
      <trkpt lat="47.48343" lon="-0.59662">
        <ele>34</ele>
        <time>2015-07-07T08:04:48.000Z</time>
      </trkpt>
      <trkpt lat="47.48344" lon="-0.59666">
        <ele>34</ele>
        <time>2015-07-07T08:04:49.000Z</time>
      </trkpt>
      <trkpt lat="47.48344" lon="-0.5967">
        <ele>36</ele>
        <time>2015-07-07T08:04:50.000Z</time>
      </trkpt>
      <trkpt lat="47.48345" lon="-0.59673">
        <ele>36</ele>
        <time>2015-07-07T08:04:51.000Z</time>
      </trkpt>
      <trkpt lat="47.48346" lon="-0.59676">
        <ele>35</ele>
        <time>2015-07-07T08:04:52.000Z</time>
      </trkpt>
      <trkpt lat="47.48347" lon="-0.59679">
        <ele>35</ele>
        <time>2015-07-07T08:04:53.000Z</time>
      </trkpt>
      <trkpt lat="47.48347" lon="-0.59683">
        <ele>36</ele>
        <time>2015-07-07T08:04:54.000Z</time>
      </trkpt>
      <trkpt lat="47.48348" lon="-0.59687">
        <ele>35</ele>
        <time>2015-07-07T08:04:55.000Z</time>
      </trkpt>
      <trkpt lat="47.48348" lon="-0.59691">
        <ele>35</ele>
        <time>2015-07-07T08:04:56.000Z</time>
      </trkpt>
      <trkpt lat="47.48348" lon="-0.59695">
        <ele>33</ele>
        <time>2015-07-07T08:04:57.000Z</time>
      </trkpt>
      <trkpt lat="47.48349" lon="-0.59699">
        <ele>34</ele>
        <time>2015-07-07T08:04:58.000Z</time>
      </trkpt>
      <trkpt lat="47.48349" lon="-0.59703">
        <ele>35</ele>
        <time>2015-07-07T08:04:59.000Z</time>
      </trkpt>
      <trkpt lat="47.48349" lon="-0.59707">
        <ele>34</ele>
        <time>2015-07-07T08:05:00.000Z</time>
      </trkpt>
      <trkpt lat="47.4835" lon="-0.59711">
        <ele>35</ele>
        <time>2015-07-07T08:05:01.000Z</time>
      </trkpt>
      <trkpt lat="47.48351" lon="-0.59715">
        <ele>35</ele>
        <time>2015-07-07T08:05:02.000Z</time>
      </trkpt>
      <trkpt lat="47.48352" lon="-0.59718">
        <ele>35</ele>
        <time>2015-07-07T08:05:03.000Z</time>
      </trkpt>
      <trkpt lat="47.48351" lon="-0.59722">
        <ele>33</ele>
        <time>2015-07-07T08:05:04.000Z</time>
      </trkpt>
      <trkpt lat="47.48351" lon="-0.59725">
        <ele>32</ele>
        <time>2015-07-07T08:05:05.000Z</time>
      </trkpt>
      <trkpt lat="47.4835" lon="-0.5973">
        <ele>31</ele>
        <time>2015-07-07T08:05:06.000Z</time>
      </trkpt>
      <trkpt lat="47.4835" lon="-0.59733">
        <ele>30</ele>
        <time>2015-07-07T08:05:07.000Z</time>
      </trkpt>
      <trkpt lat="47.48351" lon="-0.59737">
        <ele>29</ele>
        <time>2015-07-07T08:05:08.000Z</time>
      </trkpt>
      <trkpt lat="47.48351" lon="-0.5974">
        <ele>28</ele>
        <time>2015-07-07T08:05:09.000Z</time>
      </trkpt>
      <trkpt lat="47.48352" lon="-0.59743">
        <ele>27</ele>
        <time>2015-07-07T08:05:10.000Z</time>
      </trkpt>
      <trkpt lat="47.48353" lon="-0.59745">
        <ele>26</ele>
        <time>2015-07-07T08:05:11.000Z</time>
      </trkpt>
      <trkpt lat="47.48354" lon="-0.59748">
        <ele>26</ele>
        <time>2015-07-07T08:05:12.000Z</time>
      </trkpt>
      <trkpt lat="47.48354" lon="-0.59752">
        <ele>26</ele>
        <time>2015-07-07T08:05:13.000Z</time>
      </trkpt>
      <trkpt lat="47.48354" lon="-0.59756">
        <ele>27</ele>
        <time>2015-07-07T08:05:14.000Z</time>
      </trkpt>
      <trkpt lat="47.48355" lon="-0.59759">
        <ele>26</ele>
        <time>2015-07-07T08:05:15.000Z</time>
      </trkpt>
      <trkpt lat="47.48355" lon="-0.59762">
        <ele>25</ele>
        <time>2015-07-07T08:05:16.000Z</time>
      </trkpt>
      <trkpt lat="47.48355" lon="-0.59766">
        <ele>26</ele>
        <time>2015-07-07T08:05:17.000Z</time>
      </trkpt>
      <trkpt lat="47.48355" lon="-0.5977">
        <ele>25</ele>
        <time>2015-07-07T08:05:18.000Z</time>
      </trkpt>
      <trkpt lat="47.48355" lon="-0.59775">
        <ele>24</ele>
        <time>2015-07-07T08:05:19.000Z</time>
      </trkpt>
      <trkpt lat="47.48355" lon="-0.59779">
        <ele>23</ele>
        <time>2015-07-07T08:05:20.000Z</time>
      </trkpt>
      <trkpt lat="47.48356" lon="-0.59783">
        <ele>22</ele>
        <time>2015-07-07T08:05:21.000Z</time>
      </trkpt>
      <trkpt lat="47.48356" lon="-0.59788">
        <ele>21</ele>
        <time>2015-07-07T08:05:22.000Z</time>
      </trkpt>
      <trkpt lat="47.48355" lon="-0.59792">
        <ele>20</ele>
        <time>2015-07-07T08:05:23.000Z</time>
      </trkpt>
      <trkpt lat="47.48355" lon="-0.59797">
        <ele>20</ele>
        <time>2015-07-07T08:05:24.000Z</time>
      </trkpt>
      <trkpt lat="47.48355" lon="-0.59801">
        <ele>20</ele>
        <time>2015-07-07T08:05:25.000Z</time>
      </trkpt>
      <trkpt lat="47.48355" lon="-0.59804">
        <ele>20</ele>
        <time>2015-07-07T08:05:26.000Z</time>
      </trkpt>
      <trkpt lat="47.48354" lon="-0.59808">
        <ele>20</ele>
        <time>2015-07-07T08:05:27.000Z</time>
      </trkpt>
      <trkpt lat="47.48354" lon="-0.59811">
        <ele>20</ele>
        <time>2015-07-07T08:05:28.000Z</time>
      </trkpt>
      <trkpt lat="47.48354" lon="-0.59816">
        <ele>22</ele>
        <time>2015-07-07T08:05:29.000Z</time>
      </trkpt>
      <trkpt lat="47.48355" lon="-0.5982">
        <ele>23</ele>
        <time>2015-07-07T08:05:30.000Z</time>
      </trkpt>
      <trkpt lat="47.48355" lon="-0.59824">
        <ele>23</ele>
        <time>2015-07-07T08:05:31.000Z</time>
      </trkpt>
      <trkpt lat="47.48356" lon="-0.59828">
        <ele>23</ele>
        <time>2015-07-07T08:05:32.000Z</time>
      </trkpt>
      <trkpt lat="47.48356" lon="-0.59831">
        <ele>23</ele>
        <time>2015-07-07T08:05:33.000Z</time>
      </trkpt>
      <trkpt lat="47.48356" lon="-0.59835">
        <ele>23</ele>
        <time>2015-07-07T08:05:34.000Z</time>
      </trkpt>
      <trkpt lat="47.48355" lon="-0.59839">
        <ele>23</ele>
        <time>2015-07-07T08:05:35.000Z</time>
      </trkpt>
      <trkpt lat="47.48355" lon="-0.59843">
        <ele>22</ele>
        <time>2015-07-07T08:05:36.000Z</time>
      </trkpt>
      <trkpt lat="47.48356" lon="-0.59846">
        <ele>22</ele>
        <time>2015-07-07T08:05:37.000Z</time>
      </trkpt>
      <trkpt lat="47.48356" lon="-0.5985">
        <ele>23</ele>
        <time>2015-07-07T08:05:38.000Z</time>
      </trkpt>
      <trkpt lat="47.48355" lon="-0.59853">
        <ele>23</ele>
        <time>2015-07-07T08:05:39.000Z</time>
      </trkpt>
      <trkpt lat="47.48355" lon="-0.59857">
        <ele>23</ele>
        <time>2015-07-07T08:05:40.000Z</time>
      </trkpt>
      <trkpt lat="47.48355" lon="-0.5986">
        <ele>24</ele>
        <time>2015-07-07T08:05:41.000Z</time>
      </trkpt>
      <trkpt lat="47.48355" lon="-0.59865">
        <ele>26</ele>
        <time>2015-07-07T08:05:42.000Z</time>
      </trkpt>
      <trkpt lat="47.48355" lon="-0.59869">
        <ele>25</ele>
        <time>2015-07-07T08:05:43.000Z</time>
      </trkpt>
      <trkpt lat="47.48355" lon="-0.59874">
        <ele>23</ele>
        <time>2015-07-07T08:05:44.000Z</time>
      </trkpt>
      <trkpt lat="47.48356" lon="-0.59878">
        <ele>23</ele>
        <time>2015-07-07T08:05:45.000Z</time>
      </trkpt>
      <trkpt lat="47.48356" lon="-0.59882">
        <ele>22</ele>
        <time>2015-07-07T08:05:46.000Z</time>
      </trkpt>
      <trkpt lat="47.48356" lon="-0.59886">
        <ele>22</ele>
        <time>2015-07-07T08:05:47.000Z</time>
      </trkpt>
      <trkpt lat="47.48356" lon="-0.5989">
        <ele>22</ele>
        <time>2015-07-07T08:05:48.000Z</time>
      </trkpt>
      <trkpt lat="47.48356" lon="-0.59894">
        <ele>23</ele>
        <time>2015-07-07T08:05:49.000Z</time>
      </trkpt>
      <trkpt lat="47.48356" lon="-0.59898">
        <ele>22</ele>
        <time>2015-07-07T08:05:50.000Z</time>
      </trkpt>
      <trkpt lat="47.48356" lon="-0.59902">
        <ele>22</ele>
        <time>2015-07-07T08:05:51.000Z</time>
      </trkpt>
      <trkpt lat="47.48356" lon="-0.59906">
        <ele>21</ele>
        <time>2015-07-07T08:05:52.000Z</time>
      </trkpt>
      <trkpt lat="47.48357" lon="-0.59911">
        <ele>20</ele>
        <time>2015-07-07T08:05:53.000Z</time>
      </trkpt>
      <trkpt lat="47.48357" lon="-0.59915">
        <ele>20</ele>
        <time>2015-07-07T08:05:54.000Z</time>
      </trkpt>
      <trkpt lat="47.48358" lon="-0.59919">
        <ele>20</ele>
        <time>2015-07-07T08:05:55.000Z</time>
      </trkpt>
      <trkpt lat="47.48359" lon="-0.59923">
        <ele>20</ele>
        <time>2015-07-07T08:05:56.000Z</time>
      </trkpt>
      <trkpt lat="47.4836" lon="-0.59926">
        <ele>20</ele>
        <time>2015-07-07T08:05:57.000Z</time>
      </trkpt>
      <trkpt lat="47.48361" lon="-0.5993">
        <ele>20</ele>
        <time>2015-07-07T08:05:58.000Z</time>
      </trkpt>
      <trkpt lat="47.48362" lon="-0.59933">
        <ele>20</ele>
        <time>2015-07-07T08:05:59.000Z</time>
      </trkpt>
      <trkpt lat="47.48364" lon="-0.59935">
        <ele>19</ele>
        <time>2015-07-07T08:06:00.000Z</time>
      </trkpt>
      <trkpt lat="47.48366" lon="-0.59936">
        <ele>19</ele>
        <time>2015-07-07T08:06:01.000Z</time>
      </trkpt>
      <trkpt lat="47.48368" lon="-0.59937">
        <ele>19</ele>
        <time>2015-07-07T08:06:02.000Z</time>
      </trkpt>
      <trkpt lat="47.4837" lon="-0.59939">
        <ele>19</ele>
        <time>2015-07-07T08:06:03.000Z</time>
      </trkpt>
      <trkpt lat="47.48372" lon="-0.59941">
        <ele>18</ele>
        <time>2015-07-07T08:06:04.000Z</time>
      </trkpt>
      <trkpt lat="47.48374" lon="-0.59942">
        <ele>18</ele>
        <time>2015-07-07T08:06:05.000Z</time>
      </trkpt>
      <trkpt lat="47.48376" lon="-0.59944">
        <ele>19</ele>
        <time>2015-07-07T08:06:06.000Z</time>
      </trkpt>
      <trkpt lat="47.48378" lon="-0.59945">
        <ele>18</ele>
        <time>2015-07-07T08:06:07.000Z</time>
      </trkpt>
      <trkpt lat="47.4838" lon="-0.59947">
        <ele>19</ele>
        <time>2015-07-07T08:06:08.000Z</time>
      </trkpt>
      <trkpt lat="47.48382" lon="-0.59949">
        <ele>19</ele>
        <time>2015-07-07T08:06:09.000Z</time>
      </trkpt>
      <trkpt lat="47.48384" lon="-0.5995">
        <ele>18</ele>
        <time>2015-07-07T08:06:10.000Z</time>
      </trkpt>
      <trkpt lat="47.48385" lon="-0.59952">
        <ele>18</ele>
        <time>2015-07-07T08:06:11.000Z</time>
      </trkpt>
      <trkpt lat="47.48387" lon="-0.59954">
        <ele>18</ele>
        <time>2015-07-07T08:06:12.000Z</time>
      </trkpt>
      <trkpt lat="47.48389" lon="-0.59956">
        <ele>18</ele>
        <time>2015-07-07T08:06:13.000Z</time>
      </trkpt>
      <trkpt lat="47.48391" lon="-0.59958">
        <ele>17</ele>
        <time>2015-07-07T08:06:14.000Z</time>
      </trkpt>
      <trkpt lat="47.48394" lon="-0.5996">
        <ele>18</ele>
        <time>2015-07-07T08:06:15.000Z</time>
      </trkpt>
      <trkpt lat="47.48396" lon="-0.5996">
        <ele>17</ele>
        <time>2015-07-07T08:06:16.000Z</time>
      </trkpt>
      <trkpt lat="47.48399" lon="-0.5996">
        <ele>17</ele>
        <time>2015-07-07T08:06:17.000Z</time>
      </trkpt>
      <trkpt lat="47.48401" lon="-0.5996">
        <ele>16</ele>
        <time>2015-07-07T08:06:18.000Z</time>
      </trkpt>
      <trkpt lat="47.48403" lon="-0.5996">
        <ele>16</ele>
        <time>2015-07-07T08:06:19.000Z</time>
      </trkpt>
      <trkpt lat="47.48405" lon="-0.59961">
        <ele>15</ele>
        <time>2015-07-07T08:06:20.000Z</time>
      </trkpt>
      <trkpt lat="47.48406" lon="-0.59962">
        <ele>15</ele>
        <time>2015-07-07T08:06:21.000Z</time>
      </trkpt>
      <trkpt lat="47.48408" lon="-0.59962">
        <ele>15</ele>
        <time>2015-07-07T08:06:22.000Z</time>
      </trkpt>
      <trkpt lat="47.4841" lon="-0.59962">
        <ele>14</ele>
        <time>2015-07-07T08:06:23.000Z</time>
      </trkpt>
      <trkpt lat="47.48412" lon="-0.59963">
        <ele>14</ele>
        <time>2015-07-07T08:06:24.000Z</time>
      </trkpt>
      <trkpt lat="47.48415" lon="-0.59962">
        <ele>14</ele>
        <time>2015-07-07T08:06:25.000Z</time>
      </trkpt>
      <trkpt lat="47.48417" lon="-0.59962">
        <ele>15</ele>
        <time>2015-07-07T08:06:26.000Z</time>
      </trkpt>
      <trkpt lat="47.48419" lon="-0.59961">
        <ele>15</ele>
        <time>2015-07-07T08:06:27.000Z</time>
      </trkpt>
      <trkpt lat="47.48421" lon="-0.59961">
        <ele>14</ele>
        <time>2015-07-07T08:06:28.000Z</time>
      </trkpt>
      <trkpt lat="47.48423" lon="-0.5996">
        <ele>14</ele>
        <time>2015-07-07T08:06:29.000Z</time>
      </trkpt>
      <trkpt lat="47.48426" lon="-0.59959">
        <ele>15</ele>
        <time>2015-07-07T08:06:30.000Z</time>
      </trkpt>
      <trkpt lat="47.48428" lon="-0.59958">
        <ele>15</ele>
        <time>2015-07-07T08:06:31.000Z</time>
      </trkpt>
      <trkpt lat="47.4843" lon="-0.59956">
        <ele>15</ele>
        <time>2015-07-07T08:06:32.000Z</time>
      </trkpt>
      <trkpt lat="47.48431" lon="-0.59954">
        <ele>15</ele>
        <time>2015-07-07T08:06:33.000Z</time>
      </trkpt>
      <trkpt lat="47.48433" lon="-0.59954">
        <ele>15</ele>
        <time>2015-07-07T08:06:34.000Z</time>
      </trkpt>
      <trkpt lat="47.48435" lon="-0.59953">
        <ele>16</ele>
        <time>2015-07-07T08:06:35.000Z</time>
      </trkpt>
      <trkpt lat="47.48437" lon="-0.59952">
        <ele>16</ele>
        <time>2015-07-07T08:06:36.000Z</time>
      </trkpt>
      <trkpt lat="47.48439" lon="-0.59951">
        <ele>16</ele>
        <time>2015-07-07T08:06:37.000Z</time>
      </trkpt>
      <trkpt lat="47.48442" lon="-0.59949">
        <ele>14</ele>
        <time>2015-07-07T08:06:38.000Z</time>
      </trkpt>
      <trkpt lat="47.48445" lon="-0.59948">
        <ele>14</ele>
        <time>2015-07-07T08:06:39.000Z</time>
      </trkpt>
      <trkpt lat="47.48448" lon="-0.59948">
        <ele>13</ele>
        <time>2015-07-07T08:06:40.000Z</time>
      </trkpt>
      <trkpt lat="47.48451" lon="-0.59947">
        <ele>12</ele>
        <time>2015-07-07T08:06:41.000Z</time>
      </trkpt>
      <trkpt lat="47.48454" lon="-0.59946">
        <ele>11</ele>
        <time>2015-07-07T08:06:42.000Z</time>
      </trkpt>
      <trkpt lat="47.48457" lon="-0.59945">
        <ele>10</ele>
        <time>2015-07-07T08:06:43.000Z</time>
      </trkpt>
      <trkpt lat="47.4846" lon="-0.59945">
        <ele>10</ele>
        <time>2015-07-07T08:06:44.000Z</time>
      </trkpt>
      <trkpt lat="47.48462" lon="-0.59945">
        <ele>10</ele>
        <time>2015-07-07T08:06:45.000Z</time>
      </trkpt>
      <trkpt lat="47.48465" lon="-0.59945">
        <ele>10</ele>
        <time>2015-07-07T08:06:46.000Z</time>
      </trkpt>
      <trkpt lat="47.48467" lon="-0.59944">
        <ele>9</ele>
        <time>2015-07-07T08:06:47.000Z</time>
      </trkpt>
      <trkpt lat="47.4847" lon="-0.59943">
        <ele>9</ele>
        <time>2015-07-07T08:06:48.000Z</time>
      </trkpt>
      <trkpt lat="47.48473" lon="-0.59942">
        <ele>8</ele>
        <time>2015-07-07T08:06:49.000Z</time>
      </trkpt>
      <trkpt lat="47.48476" lon="-0.59941">
        <ele>7</ele>
        <time>2015-07-07T08:06:50.000Z</time>
      </trkpt>
      <trkpt lat="47.48479" lon="-0.5994">
        <ele>7</ele>
        <time>2015-07-07T08:06:51.000Z</time>
      </trkpt>
      <trkpt lat="47.48481" lon="-0.59939">
        <ele>7</ele>
        <time>2015-07-07T08:06:52.000Z</time>
      </trkpt>
      <trkpt lat="47.48483" lon="-0.59939">
        <ele>7</ele>
        <time>2015-07-07T08:06:53.000Z</time>
      </trkpt>
      <trkpt lat="47.48486" lon="-0.59938">
        <ele>7</ele>
        <time>2015-07-07T08:06:54.000Z</time>
      </trkpt>
      <trkpt lat="47.48488" lon="-0.59938">
        <ele>7</ele>
        <time>2015-07-07T08:06:55.000Z</time>
      </trkpt>
      <trkpt lat="47.4849" lon="-0.59937">
        <ele>8</ele>
        <time>2015-07-07T08:06:56.000Z</time>
      </trkpt>
      <trkpt lat="47.48492" lon="-0.59937">
        <ele>8</ele>
        <time>2015-07-07T08:06:57.000Z</time>
      </trkpt>
      <trkpt lat="47.48494" lon="-0.59936">
        <ele>7</ele>
        <time>2015-07-07T08:06:58.000Z</time>
      </trkpt>
      <trkpt lat="47.48497" lon="-0.59935">
        <ele>8</ele>
        <time>2015-07-07T08:06:59.000Z</time>
      </trkpt>
      <trkpt lat="47.48499" lon="-0.59935">
        <ele>9</ele>
        <time>2015-07-07T08:07:00.000Z</time>
      </trkpt>
      <trkpt lat="47.48502" lon="-0.59934">
        <ele>10</ele>
        <time>2015-07-07T08:07:01.000Z</time>
      </trkpt>
      <trkpt lat="47.48504" lon="-0.59933">
        <ele>12</ele>
        <time>2015-07-07T08:07:02.000Z</time>
      </trkpt>
      <trkpt lat="47.48507" lon="-0.59933">
        <ele>14</ele>
        <time>2015-07-07T08:07:03.000Z</time>
      </trkpt>
      <trkpt lat="47.48509" lon="-0.59933">
        <ele>15</ele>
        <time>2015-07-07T08:07:04.000Z</time>
      </trkpt>
      <trkpt lat="47.48512" lon="-0.59933">
        <ele>16</ele>
        <time>2015-07-07T08:07:05.000Z</time>
      </trkpt>
      <trkpt lat="47.48514" lon="-0.59932">
        <ele>17</ele>
        <time>2015-07-07T08:07:06.000Z</time>
      </trkpt>
      <trkpt lat="47.48516" lon="-0.59932">
        <ele>18</ele>
        <time>2015-07-07T08:07:07.000Z</time>
      </trkpt>
      <trkpt lat="47.48518" lon="-0.59932">
        <ele>19</ele>
        <time>2015-07-07T08:07:08.000Z</time>
      </trkpt>
      <trkpt lat="47.48521" lon="-0.59932">
        <ele>20</ele>
        <time>2015-07-07T08:07:09.000Z</time>
      </trkpt>
      <trkpt lat="47.48523" lon="-0.59932">
        <ele>21</ele>
        <time>2015-07-07T08:07:10.000Z</time>
      </trkpt>
      <trkpt lat="47.48526" lon="-0.59932">
        <ele>22</ele>
        <time>2015-07-07T08:07:11.000Z</time>
      </trkpt>
      <trkpt lat="47.48528" lon="-0.59932">
        <ele>23</ele>
        <time>2015-07-07T08:07:12.000Z</time>
      </trkpt>
      <trkpt lat="47.48531" lon="-0.59932">
        <ele>24</ele>
        <time>2015-07-07T08:07:13.000Z</time>
      </trkpt>
      <trkpt lat="47.48533" lon="-0.59932">
        <ele>25</ele>
        <time>2015-07-07T08:07:14.000Z</time>
      </trkpt>
      <trkpt lat="47.48535" lon="-0.59933">
        <ele>26</ele>
        <time>2015-07-07T08:07:15.000Z</time>
      </trkpt>
      <trkpt lat="47.48538" lon="-0.59935">
        <ele>26</ele>
        <time>2015-07-07T08:07:16.000Z</time>
      </trkpt>
      <trkpt lat="47.4854" lon="-0.59936">
        <ele>26</ele>
        <time>2015-07-07T08:07:17.000Z</time>
      </trkpt>
      <trkpt lat="47.48543" lon="-0.59936">
        <ele>26</ele>
        <time>2015-07-07T08:07:18.000Z</time>
      </trkpt>
      <trkpt lat="47.48545" lon="-0.59937">
        <ele>26</ele>
        <time>2015-07-07T08:07:19.000Z</time>
      </trkpt>
      <trkpt lat="47.48547" lon="-0.59938">
        <ele>27</ele>
        <time>2015-07-07T08:07:20.000Z</time>
      </trkpt>
      <trkpt lat="47.48548" lon="-0.59939">
        <ele>26</ele>
        <time>2015-07-07T08:07:21.000Z</time>
      </trkpt>
      <trkpt lat="47.4855" lon="-0.5994">
        <ele>26</ele>
        <time>2015-07-07T08:07:22.000Z</time>
      </trkpt>
      <trkpt lat="47.48552" lon="-0.59939">
        <ele>26</ele>
        <time>2015-07-07T08:07:23.000Z</time>
      </trkpt>
      <trkpt lat="47.48554" lon="-0.59938">
        <ele>26</ele>
        <time>2015-07-07T08:07:24.000Z</time>
      </trkpt>
      <trkpt lat="47.48556" lon="-0.59936">
        <ele>26</ele>
        <time>2015-07-07T08:07:25.000Z</time>
      </trkpt>
      <trkpt lat="47.48558" lon="-0.59935">
        <ele>26</ele>
        <time>2015-07-07T08:07:26.000Z</time>
      </trkpt>
      <trkpt lat="47.4856" lon="-0.59933">
        <ele>26</ele>
        <time>2015-07-07T08:07:27.000Z</time>
      </trkpt>
      <trkpt lat="47.48562" lon="-0.59932">
        <ele>26</ele>
        <time>2015-07-07T08:07:28.000Z</time>
      </trkpt>
      <trkpt lat="47.48564" lon="-0.59932">
        <ele>25</ele>
        <time>2015-07-07T08:07:29.000Z</time>
      </trkpt>
      <trkpt lat="47.48566" lon="-0.59931">
        <ele>25</ele>
        <time>2015-07-07T08:07:30.000Z</time>
      </trkpt>
      <trkpt lat="47.48568" lon="-0.59932">
        <ele>26</ele>
        <time>2015-07-07T08:07:31.000Z</time>
      </trkpt>
      <trkpt lat="47.48571" lon="-0.59932">
        <ele>25</ele>
        <time>2015-07-07T08:07:32.000Z</time>
      </trkpt>
      <trkpt lat="47.48574" lon="-0.59933">
        <ele>25</ele>
        <time>2015-07-07T08:07:33.000Z</time>
      </trkpt>
      <trkpt lat="47.48576" lon="-0.59934">
        <ele>25</ele>
        <time>2015-07-07T08:07:34.000Z</time>
      </trkpt>
      <trkpt lat="47.48579" lon="-0.59936">
        <ele>25</ele>
        <time>2015-07-07T08:07:35.000Z</time>
      </trkpt>
      <trkpt lat="47.48581" lon="-0.59939">
        <ele>26</ele>
        <time>2015-07-07T08:07:36.000Z</time>
      </trkpt>
      <trkpt lat="47.48583" lon="-0.59942">
        <ele>26</ele>
        <time>2015-07-07T08:07:37.000Z</time>
      </trkpt>
      <trkpt lat="47.48585" lon="-0.59945">
        <ele>26</ele>
        <time>2015-07-07T08:07:38.000Z</time>
      </trkpt>
      <trkpt lat="47.48587" lon="-0.59946">
        <ele>27</ele>
        <time>2015-07-07T08:07:39.000Z</time>
      </trkpt>
      <trkpt lat="47.48589" lon="-0.59945">
        <ele>26</ele>
        <time>2015-07-07T08:07:40.000Z</time>
      </trkpt>
      <trkpt lat="47.48591" lon="-0.59944">
        <ele>24</ele>
        <time>2015-07-07T08:07:41.000Z</time>
      </trkpt>
      <trkpt lat="47.48592" lon="-0.59942">
        <ele>23</ele>
        <time>2015-07-07T08:07:42.000Z</time>
      </trkpt>
      <trkpt lat="47.48594" lon="-0.5994">
        <ele>23</ele>
        <time>2015-07-07T08:07:43.000Z</time>
      </trkpt>
      <trkpt lat="47.48596" lon="-0.59938">
        <ele>23</ele>
        <time>2015-07-07T08:07:44.000Z</time>
      </trkpt>
      <trkpt lat="47.48597" lon="-0.59935">
        <ele>22</ele>
        <time>2015-07-07T08:07:45.000Z</time>
      </trkpt>
      <trkpt lat="47.48599" lon="-0.59933">
        <ele>22</ele>
        <time>2015-07-07T08:07:46.000Z</time>
      </trkpt>
      <trkpt lat="47.48601" lon="-0.5993">
        <ele>22</ele>
        <time>2015-07-07T08:07:47.000Z</time>
      </trkpt>
      <trkpt lat="47.48603" lon="-0.59929">
        <ele>21</ele>
        <time>2015-07-07T08:07:48.000Z</time>
      </trkpt>
      <trkpt lat="47.48605" lon="-0.59928">
        <ele>21</ele>
        <time>2015-07-07T08:07:49.000Z</time>
      </trkpt>
      <trkpt lat="47.48607" lon="-0.59928">
        <ele>20</ele>
        <time>2015-07-07T08:07:50.000Z</time>
      </trkpt>
      <trkpt lat="47.4861" lon="-0.5993">
        <ele>18</ele>
        <time>2015-07-07T08:07:51.000Z</time>
      </trkpt>
      <trkpt lat="47.48613" lon="-0.59932">
        <ele>16</ele>
        <time>2015-07-07T08:07:52.000Z</time>
      </trkpt>
      <trkpt lat="47.48615" lon="-0.59934">
        <ele>15</ele>
        <time>2015-07-07T08:07:53.000Z</time>
      </trkpt>
      <trkpt lat="47.48618" lon="-0.59936">
        <ele>15</ele>
        <time>2015-07-07T08:07:54.000Z</time>
      </trkpt>
      <trkpt lat="47.4862" lon="-0.59938">
        <ele>15</ele>
        <time>2015-07-07T08:07:55.000Z</time>
      </trkpt>
      <trkpt lat="47.48622" lon="-0.5994">
        <ele>16</ele>
        <time>2015-07-07T08:07:56.000Z</time>
      </trkpt>
      <trkpt lat="47.48623" lon="-0.59942">
        <ele>16</ele>
        <time>2015-07-07T08:07:57.000Z</time>
      </trkpt>
      <trkpt lat="47.48624" lon="-0.59945">
        <ele>16</ele>
        <time>2015-07-07T08:07:58.000Z</time>
      </trkpt>
      <trkpt lat="47.48625" lon="-0.59949">
        <ele>16</ele>
        <time>2015-07-07T08:07:59.000Z</time>
      </trkpt>
      <trkpt lat="47.48627" lon="-0.59953">
        <ele>15</ele>
        <time>2015-07-07T08:08:00.000Z</time>
      </trkpt>
      <trkpt lat="47.48629" lon="-0.59957">
        <ele>15</ele>
        <time>2015-07-07T08:08:01.000Z</time>
      </trkpt>
      <trkpt lat="47.48631" lon="-0.59961">
        <ele>15</ele>
        <time>2015-07-07T08:08:02.000Z</time>
      </trkpt>
      <trkpt lat="47.48633" lon="-0.59964">
        <ele>15</ele>
        <time>2015-07-07T08:08:03.000Z</time>
      </trkpt>
      <trkpt lat="47.48635" lon="-0.59967">
        <ele>14</ele>
        <time>2015-07-07T08:08:04.000Z</time>
      </trkpt>
      <trkpt lat="47.48637" lon="-0.5997">
        <ele>14</ele>
        <time>2015-07-07T08:08:05.000Z</time>
      </trkpt>
      <trkpt lat="47.48639" lon="-0.59972">
        <ele>14</ele>
        <time>2015-07-07T08:08:06.000Z</time>
      </trkpt>
      <trkpt lat="47.48641" lon="-0.59974">
        <ele>13</ele>
        <time>2015-07-07T08:08:07.000Z</time>
      </trkpt>
      <trkpt lat="47.48642" lon="-0.59976">
        <ele>12</ele>
        <time>2015-07-07T08:08:08.000Z</time>
      </trkpt>
      <trkpt lat="47.48644" lon="-0.59978">
        <ele>12</ele>
        <time>2015-07-07T08:08:09.000Z</time>
      </trkpt>
      <trkpt lat="47.48645" lon="-0.5998">
        <ele>12</ele>
        <time>2015-07-07T08:08:10.000Z</time>
      </trkpt>
      <trkpt lat="47.48646" lon="-0.59983">
        <ele>12</ele>
        <time>2015-07-07T08:08:11.000Z</time>
      </trkpt>
      <trkpt lat="47.48647" lon="-0.59986">
        <ele>14</ele>
        <time>2015-07-07T08:08:12.000Z</time>
      </trkpt>
      <trkpt lat="47.48648" lon="-0.59989">
        <ele>14</ele>
        <time>2015-07-07T08:08:13.000Z</time>
      </trkpt>
      <trkpt lat="47.4865" lon="-0.59993">
        <ele>13</ele>
        <time>2015-07-07T08:08:14.000Z</time>
      </trkpt>
      <trkpt lat="47.48651" lon="-0.59996">
        <ele>13</ele>
        <time>2015-07-07T08:08:15.000Z</time>
      </trkpt>
      <trkpt lat="47.48653" lon="-0.59999">
        <ele>14</ele>
        <time>2015-07-07T08:08:16.000Z</time>
      </trkpt>
      <trkpt lat="47.48654" lon="-0.60002">
        <ele>14</ele>
        <time>2015-07-07T08:08:17.000Z</time>
      </trkpt>
      <trkpt lat="47.48655" lon="-0.60005">
        <ele>15</ele>
        <time>2015-07-07T08:08:18.000Z</time>
      </trkpt>
      <trkpt lat="47.48657" lon="-0.60008">
        <ele>16</ele>
        <time>2015-07-07T08:08:19.000Z</time>
      </trkpt>
      <trkpt lat="47.48658" lon="-0.60011">
        <ele>17</ele>
        <time>2015-07-07T08:08:20.000Z</time>
      </trkpt>
      <trkpt lat="47.4866" lon="-0.60015">
        <ele>18</ele>
        <time>2015-07-07T08:08:21.000Z</time>
      </trkpt>
      <trkpt lat="47.48662" lon="-0.60018">
        <ele>18</ele>
        <time>2015-07-07T08:08:22.000Z</time>
      </trkpt>
      <trkpt lat="47.48664" lon="-0.60022">
        <ele>20</ele>
        <time>2015-07-07T08:08:23.000Z</time>
      </trkpt>
      <trkpt lat="47.48666" lon="-0.60025">
        <ele>19</ele>
        <time>2015-07-07T08:08:24.000Z</time>
      </trkpt>
      <trkpt lat="47.48668" lon="-0.60028">
        <ele>20</ele>
        <time>2015-07-07T08:08:25.000Z</time>
      </trkpt>
      <trkpt lat="47.48669" lon="-0.60031">
        <ele>21</ele>
        <time>2015-07-07T08:08:26.000Z</time>
      </trkpt>
      <trkpt lat="47.48669" lon="-0.60035">
        <ele>25</ele>
        <time>2015-07-07T08:08:27.000Z</time>
      </trkpt>
      <trkpt lat="47.4867" lon="-0.60041">
        <ele>28</ele>
        <time>2015-07-07T08:08:28.000Z</time>
      </trkpt>
      <trkpt lat="47.4867" lon="-0.60046">
        <ele>28</ele>
        <time>2015-07-07T08:08:29.000Z</time>
      </trkpt>
      <trkpt lat="47.48671" lon="-0.60051">
        <ele>30</ele>
        <time>2015-07-07T08:08:30.000Z</time>
      </trkpt>
      <trkpt lat="47.48672" lon="-0.60055">
        <ele>31</ele>
        <time>2015-07-07T08:08:31.000Z</time>
      </trkpt>
      <trkpt lat="47.48672" lon="-0.60059">
        <ele>32</ele>
        <time>2015-07-07T08:08:32.000Z</time>
      </trkpt>
      <trkpt lat="47.48673" lon="-0.60062">
        <ele>33</ele>
        <time>2015-07-07T08:08:33.000Z</time>
      </trkpt>
      <trkpt lat="47.48673" lon="-0.60066">
        <ele>34</ele>
        <time>2015-07-07T08:08:34.000Z</time>
      </trkpt>
      <trkpt lat="47.48674" lon="-0.60069">
        <ele>35</ele>
        <time>2015-07-07T08:08:35.000Z</time>
      </trkpt>
      <trkpt lat="47.48675" lon="-0.60073">
        <ele>34</ele>
        <time>2015-07-07T08:08:36.000Z</time>
      </trkpt>
      <trkpt lat="47.48675" lon="-0.60078">
        <ele>34</ele>
        <time>2015-07-07T08:08:37.000Z</time>
      </trkpt>
      <trkpt lat="47.48675" lon="-0.60082">
        <ele>34</ele>
        <time>2015-07-07T08:08:38.000Z</time>
      </trkpt>
      <trkpt lat="47.48675" lon="-0.60087">
        <ele>35</ele>
        <time>2015-07-07T08:08:39.000Z</time>
      </trkpt>
      <trkpt lat="47.48676" lon="-0.60092">
        <ele>36</ele>
        <time>2015-07-07T08:08:40.000Z</time>
      </trkpt>
      <trkpt lat="47.48676" lon="-0.60097">
        <ele>36</ele>
        <time>2015-07-07T08:08:41.000Z</time>
      </trkpt>
      <trkpt lat="47.48677" lon="-0.60101">
        <ele>36</ele>
        <time>2015-07-07T08:08:42.000Z</time>
      </trkpt>
      <trkpt lat="47.48678" lon="-0.60106">
        <ele>36</ele>
        <time>2015-07-07T08:08:43.000Z</time>
      </trkpt>
      <trkpt lat="47.48678" lon="-0.60111">
        <ele>36</ele>
        <time>2015-07-07T08:08:44.000Z</time>
      </trkpt>
      <trkpt lat="47.48678" lon="-0.60115">
        <ele>36</ele>
        <time>2015-07-07T08:08:45.000Z</time>
      </trkpt>
      <trkpt lat="47.48678" lon="-0.6012">
        <ele>37</ele>
        <time>2015-07-07T08:08:46.000Z</time>
      </trkpt>
      <trkpt lat="47.48679" lon="-0.60124">
        <ele>36</ele>
        <time>2015-07-07T08:08:47.000Z</time>
      </trkpt>
      <trkpt lat="47.4868" lon="-0.60129">
        <ele>34</ele>
        <time>2015-07-07T08:08:48.000Z</time>
      </trkpt>
      <trkpt lat="47.4868" lon="-0.60133">
        <ele>33</ele>
        <time>2015-07-07T08:08:49.000Z</time>
      </trkpt>
      <trkpt lat="47.48681" lon="-0.60137">
        <ele>33</ele>
        <time>2015-07-07T08:08:50.000Z</time>
      </trkpt>
      <trkpt lat="47.48681" lon="-0.60142">
        <ele>34</ele>
        <time>2015-07-07T08:08:51.000Z</time>
      </trkpt>
      <trkpt lat="47.48681" lon="-0.60147">
        <ele>35</ele>
        <time>2015-07-07T08:08:52.000Z</time>
      </trkpt>
      <trkpt lat="47.48681" lon="-0.60151">
        <ele>35</ele>
        <time>2015-07-07T08:08:53.000Z</time>
      </trkpt>
      <trkpt lat="47.48681" lon="-0.60156">
        <ele>35</ele>
        <time>2015-07-07T08:08:54.000Z</time>
      </trkpt>
      <trkpt lat="47.48681" lon="-0.6016">
        <ele>36</ele>
        <time>2015-07-07T08:08:55.000Z</time>
      </trkpt>
      <trkpt lat="47.48681" lon="-0.60164">
        <ele>35</ele>
        <time>2015-07-07T08:08:56.000Z</time>
      </trkpt>
      <trkpt lat="47.48681" lon="-0.60169">
        <ele>35</ele>
        <time>2015-07-07T08:08:57.000Z</time>
      </trkpt>
      <trkpt lat="47.48681" lon="-0.60173">
        <ele>35</ele>
        <time>2015-07-07T08:08:58.000Z</time>
      </trkpt>
      <trkpt lat="47.48681" lon="-0.60178">
        <ele>35</ele>
        <time>2015-07-07T08:08:59.000Z</time>
      </trkpt>
      <trkpt lat="47.4868" lon="-0.60182">
        <ele>33</ele>
        <time>2015-07-07T08:09:00.000Z</time>
      </trkpt>
      <trkpt lat="47.4868" lon="-0.60185">
        <ele>33</ele>
        <time>2015-07-07T08:09:01.000Z</time>
      </trkpt>
      <trkpt lat="47.48679" lon="-0.60189">
        <ele>32</ele>
        <time>2015-07-07T08:09:02.000Z</time>
      </trkpt>
      <trkpt lat="47.48679" lon="-0.60193">
        <ele>32</ele>
        <time>2015-07-07T08:09:03.000Z</time>
      </trkpt>
      <trkpt lat="47.48679" lon="-0.60197">
        <ele>31</ele>
        <time>2015-07-07T08:09:04.000Z</time>
      </trkpt>
      <trkpt lat="47.4868" lon="-0.60201">
        <ele>31</ele>
        <time>2015-07-07T08:09:05.000Z</time>
      </trkpt>
      <trkpt lat="47.4868" lon="-0.60205">
        <ele>31</ele>
        <time>2015-07-07T08:09:06.000Z</time>
      </trkpt>
      <trkpt lat="47.4868" lon="-0.60209">
        <ele>32</ele>
        <time>2015-07-07T08:09:07.000Z</time>
      </trkpt>
      <trkpt lat="47.48681" lon="-0.60212">
        <ele>32</ele>
        <time>2015-07-07T08:09:08.000Z</time>
      </trkpt>
      <trkpt lat="47.48681" lon="-0.60216">
        <ele>33</ele>
        <time>2015-07-07T08:09:09.000Z</time>
      </trkpt>
      <trkpt lat="47.48681" lon="-0.6022">
        <ele>33</ele>
        <time>2015-07-07T08:09:10.000Z</time>
      </trkpt>
      <trkpt lat="47.48681" lon="-0.60224">
        <ele>33</ele>
        <time>2015-07-07T08:09:11.000Z</time>
      </trkpt>
      <trkpt lat="47.48681" lon="-0.60228">
        <ele>33</ele>
        <time>2015-07-07T08:09:12.000Z</time>
      </trkpt>
      <trkpt lat="47.48681" lon="-0.60232">
        <ele>33</ele>
        <time>2015-07-07T08:09:13.000Z</time>
      </trkpt>
      <trkpt lat="47.48681" lon="-0.60236">
        <ele>32</ele>
        <time>2015-07-07T08:09:14.000Z</time>
      </trkpt>
      <trkpt lat="47.48681" lon="-0.6024">
        <ele>33</ele>
        <time>2015-07-07T08:09:15.000Z</time>
      </trkpt>
      <trkpt lat="47.4868" lon="-0.60244">
        <ele>32</ele>
        <time>2015-07-07T08:09:16.000Z</time>
      </trkpt>
      <trkpt lat="47.4868" lon="-0.60247">
        <ele>31</ele>
        <time>2015-07-07T08:09:17.000Z</time>
      </trkpt>
      <trkpt lat="47.4868" lon="-0.6025">
        <ele>31</ele>
        <time>2015-07-07T08:09:18.000Z</time>
      </trkpt>
      <trkpt lat="47.4868" lon="-0.60253">
        <ele>30</ele>
        <time>2015-07-07T08:09:19.000Z</time>
      </trkpt>
      <trkpt lat="47.4868" lon="-0.60258">
        <ele>31</ele>
        <time>2015-07-07T08:09:20.000Z</time>
      </trkpt>
      <trkpt lat="47.4868" lon="-0.60262">
        <ele>31</ele>
        <time>2015-07-07T08:09:21.000Z</time>
      </trkpt>
      <trkpt lat="47.4868" lon="-0.60266">
        <ele>30</ele>
        <time>2015-07-07T08:09:22.000Z</time>
      </trkpt>
      <trkpt lat="47.4868" lon="-0.6027">
        <ele>30</ele>
        <time>2015-07-07T08:09:23.000Z</time>
      </trkpt>
      <trkpt lat="47.48681" lon="-0.60273">
        <ele>30</ele>
        <time>2015-07-07T08:09:24.000Z</time>
      </trkpt>
      <trkpt lat="47.48681" lon="-0.60277">
        <ele>30</ele>
        <time>2015-07-07T08:09:25.000Z</time>
      </trkpt>
      <trkpt lat="47.48681" lon="-0.6028">
        <ele>30</ele>
        <time>2015-07-07T08:09:26.000Z</time>
      </trkpt>
      <trkpt lat="47.48682" lon="-0.60284">
        <ele>30</ele>
        <time>2015-07-07T08:09:27.000Z</time>
      </trkpt>
      <trkpt lat="47.48682" lon="-0.60288">
        <ele>30</ele>
        <time>2015-07-07T08:09:28.000Z</time>
      </trkpt>
      <trkpt lat="47.48682" lon="-0.60291">
        <ele>31</ele>
        <time>2015-07-07T08:09:29.000Z</time>
      </trkpt>
      <trkpt lat="47.48683" lon="-0.60295">
        <ele>31</ele>
        <time>2015-07-07T08:09:30.000Z</time>
      </trkpt>
      <trkpt lat="47.48683" lon="-0.60298">
        <ele>31</ele>
        <time>2015-07-07T08:09:31.000Z</time>
      </trkpt>
      <trkpt lat="47.48683" lon="-0.60302">
        <ele>31</ele>
        <time>2015-07-07T08:09:32.000Z</time>
      </trkpt>
      <trkpt lat="47.48684" lon="-0.60305">
        <ele>31</ele>
        <time>2015-07-07T08:09:33.000Z</time>
      </trkpt>
      <trkpt lat="47.48685" lon="-0.60308">
        <ele>31</ele>
        <time>2015-07-07T08:09:34.000Z</time>
      </trkpt>
      <trkpt lat="47.48686" lon="-0.60311">
        <ele>31</ele>
        <time>2015-07-07T08:09:35.000Z</time>
      </trkpt>
      <trkpt lat="47.48687" lon="-0.60315">
        <ele>30</ele>
        <time>2015-07-07T08:09:36.000Z</time>
      </trkpt>
      <trkpt lat="47.48687" lon="-0.60319">
        <ele>28</ele>
        <time>2015-07-07T08:09:37.000Z</time>
      </trkpt>
      <trkpt lat="47.48687" lon="-0.60322">
        <ele>28</ele>
        <time>2015-07-07T08:09:38.000Z</time>
      </trkpt>
      <trkpt lat="47.48686" lon="-0.60325">
        <ele>28</ele>
        <time>2015-07-07T08:09:39.000Z</time>
      </trkpt>
      <trkpt lat="47.48686" lon="-0.60329">
        <ele>28</ele>
        <time>2015-07-07T08:09:40.000Z</time>
      </trkpt>
      <trkpt lat="47.48686" lon="-0.60333">
        <ele>27</ele>
        <time>2015-07-07T08:09:41.000Z</time>
      </trkpt>
      <trkpt lat="47.48685" lon="-0.60337">
        <ele>28</ele>
        <time>2015-07-07T08:09:42.000Z</time>
      </trkpt>
      <trkpt lat="47.48685" lon="-0.6034">
        <ele>29</ele>
        <time>2015-07-07T08:09:43.000Z</time>
      </trkpt>
      <trkpt lat="47.48685" lon="-0.60344">
        <ele>30</ele>
        <time>2015-07-07T08:09:44.000Z</time>
      </trkpt>
      <trkpt lat="47.48686" lon="-0.60348">
        <ele>30</ele>
        <time>2015-07-07T08:09:45.000Z</time>
      </trkpt>
      <trkpt lat="47.48686" lon="-0.60352">
        <ele>31</ele>
        <time>2015-07-07T08:09:46.000Z</time>
      </trkpt>
      <trkpt lat="47.48686" lon="-0.60355">
        <ele>32</ele>
        <time>2015-07-07T08:09:47.000Z</time>
      </trkpt>
      <trkpt lat="47.48686" lon="-0.60359">
        <ele>33</ele>
        <time>2015-07-07T08:09:48.000Z</time>
      </trkpt>
      <trkpt lat="47.48687" lon="-0.60363">
        <ele>32</ele>
        <time>2015-07-07T08:09:49.000Z</time>
      </trkpt>
      <trkpt lat="47.48687" lon="-0.60367">
        <ele>32</ele>
        <time>2015-07-07T08:09:50.000Z</time>
      </trkpt>
      <trkpt lat="47.48687" lon="-0.60371">
        <ele>33</ele>
        <time>2015-07-07T08:09:51.000Z</time>
      </trkpt>
      <trkpt lat="47.48687" lon="-0.60375">
        <ele>33</ele>
        <time>2015-07-07T08:09:52.000Z</time>
      </trkpt>
      <trkpt lat="47.48688" lon="-0.6038">
        <ele>33</ele>
        <time>2015-07-07T08:09:53.000Z</time>
      </trkpt>
      <trkpt lat="47.48688" lon="-0.60384">
        <ele>34</ele>
        <time>2015-07-07T08:09:54.000Z</time>
      </trkpt>
      <trkpt lat="47.48689" lon="-0.60388">
        <ele>34</ele>
        <time>2015-07-07T08:09:55.000Z</time>
      </trkpt>
      <trkpt lat="47.4869" lon="-0.60392">
        <ele>34</ele>
        <time>2015-07-07T08:09:56.000Z</time>
      </trkpt>
      <trkpt lat="47.4869" lon="-0.60396">
        <ele>34</ele>
        <time>2015-07-07T08:09:57.000Z</time>
      </trkpt>
      <trkpt lat="47.48691" lon="-0.604">
        <ele>33</ele>
        <time>2015-07-07T08:09:58.000Z</time>
      </trkpt>
      <trkpt lat="47.48691" lon="-0.60404">
        <ele>33</ele>
        <time>2015-07-07T08:09:59.000Z</time>
      </trkpt>
      <trkpt lat="47.48691" lon="-0.60408">
        <ele>34</ele>
        <time>2015-07-07T08:10:00.000Z</time>
      </trkpt>
      <trkpt lat="47.48691" lon="-0.60412">
        <ele>34</ele>
        <time>2015-07-07T08:10:01.000Z</time>
      </trkpt>
      <trkpt lat="47.48691" lon="-0.60417">
        <ele>34</ele>
        <time>2015-07-07T08:10:02.000Z</time>
      </trkpt>
      <trkpt lat="47.48692" lon="-0.60421">
        <ele>33</ele>
        <time>2015-07-07T08:10:03.000Z</time>
      </trkpt>
      <trkpt lat="47.48693" lon="-0.60425">
        <ele>32</ele>
        <time>2015-07-07T08:10:04.000Z</time>
      </trkpt>
      <trkpt lat="47.48694" lon="-0.60428">
        <ele>31</ele>
        <time>2015-07-07T08:10:05.000Z</time>
      </trkpt>
      <trkpt lat="47.48695" lon="-0.60432">
        <ele>30</ele>
        <time>2015-07-07T08:10:06.000Z</time>
      </trkpt>
      <trkpt lat="47.48696" lon="-0.60435">
        <ele>29</ele>
        <time>2015-07-07T08:10:07.000Z</time>
      </trkpt>
      <trkpt lat="47.48697" lon="-0.6044">
        <ele>28</ele>
        <time>2015-07-07T08:10:08.000Z</time>
      </trkpt>
      <trkpt lat="47.48699" lon="-0.60444">
        <ele>26</ele>
        <time>2015-07-07T08:10:09.000Z</time>
      </trkpt>
      <trkpt lat="47.487" lon="-0.60448">
        <ele>26</ele>
        <time>2015-07-07T08:10:10.000Z</time>
      </trkpt>
      <trkpt lat="47.48702" lon="-0.60452">
        <ele>25</ele>
        <time>2015-07-07T08:10:11.000Z</time>
      </trkpt>
      <trkpt lat="47.48703" lon="-0.60455">
        <ele>24</ele>
        <time>2015-07-07T08:10:12.000Z</time>
      </trkpt>
      <trkpt lat="47.48704" lon="-0.60458">
        <ele>24</ele>
        <time>2015-07-07T08:10:13.000Z</time>
      </trkpt>
      <trkpt lat="47.48705" lon="-0.60461">
        <ele>23</ele>
        <time>2015-07-07T08:10:14.000Z</time>
      </trkpt>
      <trkpt lat="47.48706" lon="-0.60464">
        <ele>23</ele>
        <time>2015-07-07T08:10:15.000Z</time>
      </trkpt>
      <trkpt lat="47.48707" lon="-0.60467">
        <ele>23</ele>
        <time>2015-07-07T08:10:16.000Z</time>
      </trkpt>
      <trkpt lat="47.48708" lon="-0.6047">
        <ele>22</ele>
        <time>2015-07-07T08:10:17.000Z</time>
      </trkpt>
      <trkpt lat="47.48709" lon="-0.60473">
        <ele>22</ele>
        <time>2015-07-07T08:10:18.000Z</time>
      </trkpt>
      <trkpt lat="47.4871" lon="-0.60477">
        <ele>21</ele>
        <time>2015-07-07T08:10:19.000Z</time>
      </trkpt>
      <trkpt lat="47.48711" lon="-0.60479">
        <ele>20</ele>
        <time>2015-07-07T08:10:20.000Z</time>
      </trkpt>
      <trkpt lat="47.48713" lon="-0.60482">
        <ele>21</ele>
        <time>2015-07-07T08:10:21.000Z</time>
      </trkpt>
      <trkpt lat="47.48713" lon="-0.60485">
        <ele>21</ele>
        <time>2015-07-07T08:10:22.000Z</time>
      </trkpt>
      <trkpt lat="47.48714" lon="-0.60488">
        <ele>22</ele>
        <time>2015-07-07T08:10:23.000Z</time>
      </trkpt>
      <trkpt lat="47.48715" lon="-0.60491">
        <ele>22</ele>
        <time>2015-07-07T08:10:24.000Z</time>
      </trkpt>
      <trkpt lat="47.48716" lon="-0.60495">
        <ele>23</ele>
        <time>2015-07-07T08:10:25.000Z</time>
      </trkpt>
      <trkpt lat="47.48717" lon="-0.60499">
        <ele>23</ele>
        <time>2015-07-07T08:10:26.000Z</time>
      </trkpt>
      <trkpt lat="47.48717" lon="-0.60503">
        <ele>23</ele>
        <time>2015-07-07T08:10:27.000Z</time>
      </trkpt>
      <trkpt lat="47.48718" lon="-0.60507">
        <ele>23</ele>
        <time>2015-07-07T08:10:28.000Z</time>
      </trkpt>
      <trkpt lat="47.48719" lon="-0.60511">
        <ele>23</ele>
        <time>2015-07-07T08:10:29.000Z</time>
      </trkpt>
      <trkpt lat="47.4872" lon="-0.60514">
        <ele>23</ele>
        <time>2015-07-07T08:10:30.000Z</time>
      </trkpt>
      <trkpt lat="47.48721" lon="-0.60518">
        <ele>22</ele>
        <time>2015-07-07T08:10:31.000Z</time>
      </trkpt>
      <trkpt lat="47.48722" lon="-0.60521">
        <ele>22</ele>
        <time>2015-07-07T08:10:32.000Z</time>
      </trkpt>
      <trkpt lat="47.48723" lon="-0.60524">
        <ele>22</ele>
        <time>2015-07-07T08:10:33.000Z</time>
      </trkpt>
      <trkpt lat="47.48724" lon="-0.60527">
        <ele>22</ele>
        <time>2015-07-07T08:10:34.000Z</time>
      </trkpt>
      <trkpt lat="47.48726" lon="-0.60531">
        <ele>21</ele>
        <time>2015-07-07T08:10:35.000Z</time>
      </trkpt>
      <trkpt lat="47.48727" lon="-0.60534">
        <ele>20</ele>
        <time>2015-07-07T08:10:36.000Z</time>
      </trkpt>
      <trkpt lat="47.48729" lon="-0.60538">
        <ele>20</ele>
        <time>2015-07-07T08:10:37.000Z</time>
      </trkpt>
      <trkpt lat="47.4873" lon="-0.60541">
        <ele>21</ele>
        <time>2015-07-07T08:10:38.000Z</time>
      </trkpt>
      <trkpt lat="47.48732" lon="-0.60544">
        <ele>21</ele>
        <time>2015-07-07T08:10:39.000Z</time>
      </trkpt>
      <trkpt lat="47.48733" lon="-0.60547">
        <ele>21</ele>
        <time>2015-07-07T08:10:40.000Z</time>
      </trkpt>
      <trkpt lat="47.48735" lon="-0.6055">
        <ele>21</ele>
        <time>2015-07-07T08:10:41.000Z</time>
      </trkpt>
      <trkpt lat="47.48736" lon="-0.60553">
        <ele>22</ele>
        <time>2015-07-07T08:10:42.000Z</time>
      </trkpt>
      <trkpt lat="47.48737" lon="-0.60556">
        <ele>23</ele>
        <time>2015-07-07T08:10:43.000Z</time>
      </trkpt>
      <trkpt lat="47.48738" lon="-0.60561">
        <ele>23</ele>
        <time>2015-07-07T08:10:44.000Z</time>
      </trkpt>
      <trkpt lat="47.4874" lon="-0.60565">
        <ele>23</ele>
        <time>2015-07-07T08:10:45.000Z</time>
      </trkpt>
      <trkpt lat="47.48741" lon="-0.60569">
        <ele>23</ele>
        <time>2015-07-07T08:10:46.000Z</time>
      </trkpt>
      <trkpt lat="47.48742" lon="-0.60572">
        <ele>23</ele>
        <time>2015-07-07T08:10:47.000Z</time>
      </trkpt>
      <trkpt lat="47.48743" lon="-0.60576">
        <ele>23</ele>
        <time>2015-07-07T08:10:48.000Z</time>
      </trkpt>
      <trkpt lat="47.48744" lon="-0.60579">
        <ele>23</ele>
        <time>2015-07-07T08:10:49.000Z</time>
      </trkpt>
      <trkpt lat="47.48745" lon="-0.60581">
        <ele>23</ele>
        <time>2015-07-07T08:10:50.000Z</time>
      </trkpt>
      <trkpt lat="47.48746" lon="-0.60583">
        <ele>22</ele>
        <time>2015-07-07T08:10:51.000Z</time>
      </trkpt>
      <trkpt lat="47.48748" lon="-0.60585">
        <ele>22</ele>
        <time>2015-07-07T08:10:52.000Z</time>
      </trkpt>
      <trkpt lat="47.48749" lon="-0.60587">
        <ele>22</ele>
        <time>2015-07-07T08:10:53.000Z</time>
      </trkpt>
      <trkpt lat="47.4875" lon="-0.60589">
        <ele>21</ele>
        <time>2015-07-07T08:10:54.000Z</time>
      </trkpt>
      <trkpt lat="47.48751" lon="-0.60592">
        <ele>22</ele>
        <time>2015-07-07T08:10:55.000Z</time>
      </trkpt>
      <trkpt lat="47.48752" lon="-0.60596">
        <ele>21</ele>
        <time>2015-07-07T08:10:56.000Z</time>
      </trkpt>
      <trkpt lat="47.48753" lon="-0.60599">
        <ele>20</ele>
        <time>2015-07-07T08:10:57.000Z</time>
      </trkpt>
      <trkpt lat="47.48754" lon="-0.60603">
        <ele>20</ele>
        <time>2015-07-07T08:10:58.000Z</time>
      </trkpt>
      <trkpt lat="47.48755" lon="-0.60606">
        <ele>19</ele>
        <time>2015-07-07T08:10:59.000Z</time>
      </trkpt>
      <trkpt lat="47.48757" lon="-0.60609">
        <ele>18</ele>
        <time>2015-07-07T08:11:00.000Z</time>
      </trkpt>
      <trkpt lat="47.48759" lon="-0.60611">
        <ele>17</ele>
        <time>2015-07-07T08:11:01.000Z</time>
      </trkpt>
      <trkpt lat="47.48761" lon="-0.60614">
        <ele>17</ele>
        <time>2015-07-07T08:11:02.000Z</time>
      </trkpt>
      <trkpt lat="47.48762" lon="-0.60616">
        <ele>16</ele>
        <time>2015-07-07T08:11:03.000Z</time>
      </trkpt>
      <trkpt lat="47.48764" lon="-0.60619">
        <ele>17</ele>
        <time>2015-07-07T08:11:04.000Z</time>
      </trkpt>
      <trkpt lat="47.48766" lon="-0.60622">
        <ele>16</ele>
        <time>2015-07-07T08:11:05.000Z</time>
      </trkpt>
      <trkpt lat="47.48768" lon="-0.60625">
        <ele>17</ele>
        <time>2015-07-07T08:11:06.000Z</time>
      </trkpt>
      <trkpt lat="47.48771" lon="-0.60628">
        <ele>17</ele>
        <time>2015-07-07T08:11:07.000Z</time>
      </trkpt>
      <trkpt lat="47.48773" lon="-0.60631">
        <ele>17</ele>
        <time>2015-07-07T08:11:08.000Z</time>
      </trkpt>
      <trkpt lat="47.48775" lon="-0.60634">
        <ele>17</ele>
        <time>2015-07-07T08:11:09.000Z</time>
      </trkpt>
      <trkpt lat="47.48777" lon="-0.60637">
        <ele>17</ele>
        <time>2015-07-07T08:11:10.000Z</time>
      </trkpt>
      <trkpt lat="47.48779" lon="-0.6064">
        <ele>16</ele>
        <time>2015-07-07T08:11:11.000Z</time>
      </trkpt>
      <trkpt lat="47.48781" lon="-0.60643">
        <ele>16</ele>
        <time>2015-07-07T08:11:12.000Z</time>
      </trkpt>
      <trkpt lat="47.48783" lon="-0.60646">
        <ele>14</ele>
        <time>2015-07-07T08:11:13.000Z</time>
      </trkpt>
      <trkpt lat="47.48785" lon="-0.60648">
        <ele>14</ele>
        <time>2015-07-07T08:11:14.000Z</time>
      </trkpt>
      <trkpt lat="47.48787" lon="-0.60651">
        <ele>14</ele>
        <time>2015-07-07T08:11:15.000Z</time>
      </trkpt>
      <trkpt lat="47.48789" lon="-0.60654">
        <ele>14</ele>
        <time>2015-07-07T08:11:16.000Z</time>
      </trkpt>
      <trkpt lat="47.48792" lon="-0.60657">
        <ele>14</ele>
        <time>2015-07-07T08:11:17.000Z</time>
      </trkpt>
      <trkpt lat="47.48795" lon="-0.6066">
        <ele>15</ele>
        <time>2015-07-07T08:11:18.000Z</time>
      </trkpt>
      <trkpt lat="47.48797" lon="-0.60663">
        <ele>15</ele>
        <time>2015-07-07T08:11:19.000Z</time>
      </trkpt>
      <trkpt lat="47.488" lon="-0.60665">
        <ele>15</ele>
        <time>2015-07-07T08:11:20.000Z</time>
      </trkpt>
      <trkpt lat="47.48802" lon="-0.60667">
        <ele>15</ele>
        <time>2015-07-07T08:11:21.000Z</time>
      </trkpt>
      <trkpt lat="47.48805" lon="-0.60668">
        <ele>15</ele>
        <time>2015-07-07T08:11:22.000Z</time>
      </trkpt>
      <trkpt lat="47.48807" lon="-0.60669">
        <ele>14</ele>
        <time>2015-07-07T08:11:23.000Z</time>
      </trkpt>
      <trkpt lat="47.4881" lon="-0.6067">
        <ele>14</ele>
        <time>2015-07-07T08:11:24.000Z</time>
      </trkpt>
      <trkpt lat="47.48813" lon="-0.60671">
        <ele>14</ele>
        <time>2015-07-07T08:11:25.000Z</time>
      </trkpt>
      <trkpt lat="47.48815" lon="-0.60672">
        <ele>14</ele>
        <time>2015-07-07T08:11:26.000Z</time>
      </trkpt>
      <trkpt lat="47.48818" lon="-0.60674">
        <ele>15</ele>
        <time>2015-07-07T08:11:27.000Z</time>
      </trkpt>
      <trkpt lat="47.48821" lon="-0.60675">
        <ele>14</ele>
        <time>2015-07-07T08:11:28.000Z</time>
      </trkpt>
      <trkpt lat="47.48824" lon="-0.60676">
        <ele>14</ele>
        <time>2015-07-07T08:11:29.000Z</time>
      </trkpt>
      <trkpt lat="47.48826" lon="-0.60677">
        <ele>13</ele>
        <time>2015-07-07T08:11:30.000Z</time>
      </trkpt>
      <trkpt lat="47.48829" lon="-0.60677">
        <ele>14</ele>
        <time>2015-07-07T08:11:31.000Z</time>
      </trkpt>
      <trkpt lat="47.48832" lon="-0.60677">
        <ele>14</ele>
        <time>2015-07-07T08:11:32.000Z</time>
      </trkpt>
      <trkpt lat="47.48834" lon="-0.60677">
        <ele>14</ele>
        <time>2015-07-07T08:11:33.000Z</time>
      </trkpt>
      <trkpt lat="47.48836" lon="-0.60676">
        <ele>13</ele>
        <time>2015-07-07T08:11:34.000Z</time>
      </trkpt>
      <trkpt lat="47.48839" lon="-0.60674">
        <ele>13</ele>
        <time>2015-07-07T08:11:35.000Z</time>
      </trkpt>
      <trkpt lat="47.48841" lon="-0.60673">
        <ele>13</ele>
        <time>2015-07-07T08:11:36.000Z</time>
      </trkpt>
      <trkpt lat="47.48843" lon="-0.60671">
        <ele>13</ele>
        <time>2015-07-07T08:11:37.000Z</time>
      </trkpt>
      <trkpt lat="47.48845" lon="-0.60669">
        <ele>13</ele>
        <time>2015-07-07T08:11:38.000Z</time>
      </trkpt>
      <trkpt lat="47.48846" lon="-0.60667">
        <ele>13</ele>
        <time>2015-07-07T08:11:39.000Z</time>
      </trkpt>
      <trkpt lat="47.48848" lon="-0.60664">
        <ele>13</ele>
        <time>2015-07-07T08:11:40.000Z</time>
      </trkpt>
      <trkpt lat="47.4885" lon="-0.60662">
        <ele>14</ele>
        <time>2015-07-07T08:11:41.000Z</time>
      </trkpt>
      <trkpt lat="47.48852" lon="-0.60659">
        <ele>14</ele>
        <time>2015-07-07T08:11:42.000Z</time>
      </trkpt>
      <trkpt lat="47.48853" lon="-0.60656">
        <ele>13</ele>
        <time>2015-07-07T08:11:43.000Z</time>
      </trkpt>
      <trkpt lat="47.48854" lon="-0.60654">
        <ele>13</ele>
        <time>2015-07-07T08:11:44.000Z</time>
      </trkpt>
      <trkpt lat="47.48855" lon="-0.60651">
        <ele>13</ele>
        <time>2015-07-07T08:11:45.000Z</time>
      </trkpt>
      <trkpt lat="47.48856" lon="-0.60648">
        <ele>14</ele>
        <time>2015-07-07T08:11:46.000Z</time>
      </trkpt>
      <trkpt lat="47.48857" lon="-0.60644">
        <ele>13</ele>
        <time>2015-07-07T08:11:47.000Z</time>
      </trkpt>
      <trkpt lat="47.48858" lon="-0.60641">
        <ele>13</ele>
        <time>2015-07-07T08:11:48.000Z</time>
      </trkpt>
      <trkpt lat="47.48859" lon="-0.60637">
        <ele>13</ele>
        <time>2015-07-07T08:11:49.000Z</time>
      </trkpt>
      <trkpt lat="47.48859" lon="-0.60633">
        <ele>12</ele>
        <time>2015-07-07T08:11:50.000Z</time>
      </trkpt>
      <trkpt lat="47.4886" lon="-0.6063">
        <ele>13</ele>
        <time>2015-07-07T08:11:51.000Z</time>
      </trkpt>
      <trkpt lat="47.48862" lon="-0.60627">
        <ele>13</ele>
        <time>2015-07-07T08:11:52.000Z</time>
      </trkpt>
      <trkpt lat="47.48864" lon="-0.60624">
        <ele>13</ele>
        <time>2015-07-07T08:11:53.000Z</time>
      </trkpt>
      <trkpt lat="47.48866" lon="-0.60623">
        <ele>14</ele>
        <time>2015-07-07T08:11:54.000Z</time>
      </trkpt>
      <trkpt lat="47.48867" lon="-0.60621">
        <ele>13</ele>
        <time>2015-07-07T08:11:55.000Z</time>
      </trkpt>
      <trkpt lat="47.48869" lon="-0.6062">
        <ele>13</ele>
        <time>2015-07-07T08:11:56.000Z</time>
      </trkpt>
      <trkpt lat="47.48871" lon="-0.60617">
        <ele>13</ele>
        <time>2015-07-07T08:11:57.000Z</time>
      </trkpt>
      <trkpt lat="47.48873" lon="-0.60614">
        <ele>13</ele>
        <time>2015-07-07T08:11:58.000Z</time>
      </trkpt>
      <trkpt lat="47.48875" lon="-0.60612">
        <ele>15</ele>
        <time>2015-07-07T08:11:59.000Z</time>
      </trkpt>
      <trkpt lat="47.48877" lon="-0.6061">
        <ele>14</ele>
        <time>2015-07-07T08:12:00.000Z</time>
      </trkpt>
      <trkpt lat="47.48879" lon="-0.60607">
        <ele>15</ele>
        <time>2015-07-07T08:12:01.000Z</time>
      </trkpt>
      <trkpt lat="47.48881" lon="-0.60604">
        <ele>15</ele>
        <time>2015-07-07T08:12:02.000Z</time>
      </trkpt>
      <trkpt lat="47.48882" lon="-0.60602">
        <ele>15</ele>
        <time>2015-07-07T08:12:03.000Z</time>
      </trkpt>
      <trkpt lat="47.48885" lon="-0.60599">
        <ele>16</ele>
        <time>2015-07-07T08:12:04.000Z</time>
      </trkpt>
      <trkpt lat="47.48887" lon="-0.60596">
        <ele>16</ele>
        <time>2015-07-07T08:12:05.000Z</time>
      </trkpt>
      <trkpt lat="47.48889" lon="-0.60594">
        <ele>17</ele>
        <time>2015-07-07T08:12:06.000Z</time>
      </trkpt>
      <trkpt lat="47.48891" lon="-0.60592">
        <ele>18</ele>
        <time>2015-07-07T08:12:07.000Z</time>
      </trkpt>
      <trkpt lat="47.48892" lon="-0.60591">
        <ele>18</ele>
        <time>2015-07-07T08:12:08.000Z</time>
      </trkpt>
      <trkpt lat="47.48894" lon="-0.60591">
        <ele>19</ele>
        <time>2015-07-07T08:12:09.000Z</time>
      </trkpt>
      <trkpt lat="47.48897" lon="-0.60592">
        <ele>20</ele>
        <time>2015-07-07T08:12:10.000Z</time>
      </trkpt>
      <trkpt lat="47.48899" lon="-0.60594">
        <ele>20</ele>
        <time>2015-07-07T08:12:11.000Z</time>
      </trkpt>
      <trkpt lat="47.48901" lon="-0.60597">
        <ele>20</ele>
        <time>2015-07-07T08:12:12.000Z</time>
      </trkpt>
      <trkpt lat="47.48902" lon="-0.60599">
        <ele>19</ele>
        <time>2015-07-07T08:12:13.000Z</time>
      </trkpt>
      <trkpt lat="47.48903" lon="-0.60602">
        <ele>18</ele>
        <time>2015-07-07T08:12:14.000Z</time>
      </trkpt>
      <trkpt lat="47.48904" lon="-0.60604">
        <ele>18</ele>
        <time>2015-07-07T08:12:15.000Z</time>
      </trkpt>
      <trkpt lat="47.48904" lon="-0.60606">
        <ele>18</ele>
        <time>2015-07-07T08:12:16.000Z</time>
      </trkpt>
      <trkpt lat="47.48905" lon="-0.60609">
        <ele>19</ele>
        <time>2015-07-07T08:12:17.000Z</time>
      </trkpt>
      <trkpt lat="47.48907" lon="-0.60612">
        <ele>18</ele>
        <time>2015-07-07T08:12:18.000Z</time>
      </trkpt>
      <trkpt lat="47.48908" lon="-0.60615">
        <ele>17</ele>
        <time>2015-07-07T08:12:19.000Z</time>
      </trkpt>
      <trkpt lat="47.48909" lon="-0.60618">
        <ele>17</ele>
        <time>2015-07-07T08:12:20.000Z</time>
      </trkpt>
      <trkpt lat="47.4891" lon="-0.60621">
        <ele>17</ele>
        <time>2015-07-07T08:12:21.000Z</time>
      </trkpt>
      <trkpt lat="47.48912" lon="-0.60625">
        <ele>17</ele>
        <time>2015-07-07T08:12:22.000Z</time>
      </trkpt>
      <trkpt lat="47.48913" lon="-0.60628">
        <ele>16</ele>
        <time>2015-07-07T08:12:23.000Z</time>
      </trkpt>
      <trkpt lat="47.48915" lon="-0.60631">
        <ele>16</ele>
        <time>2015-07-07T08:12:24.000Z</time>
      </trkpt>
      <trkpt lat="47.48916" lon="-0.60634">
        <ele>15</ele>
        <time>2015-07-07T08:12:25.000Z</time>
      </trkpt>
      <trkpt lat="47.48917" lon="-0.60637">
        <ele>15</ele>
        <time>2015-07-07T08:12:26.000Z</time>
      </trkpt>
      <trkpt lat="47.48918" lon="-0.60639">
        <ele>14</ele>
        <time>2015-07-07T08:12:27.000Z</time>
      </trkpt>
      <trkpt lat="47.48919" lon="-0.60643">
        <ele>14</ele>
        <time>2015-07-07T08:12:28.000Z</time>
      </trkpt>
      <trkpt lat="47.4892" lon="-0.60646">
        <ele>14</ele>
        <time>2015-07-07T08:12:29.000Z</time>
      </trkpt>
      <trkpt lat="47.48921" lon="-0.6065">
        <ele>14</ele>
        <time>2015-07-07T08:12:30.000Z</time>
      </trkpt>
      <trkpt lat="47.48922" lon="-0.60654">
        <ele>14</ele>
        <time>2015-07-07T08:12:31.000Z</time>
      </trkpt>
      <trkpt lat="47.48923" lon="-0.60657">
        <ele>13</ele>
        <time>2015-07-07T08:12:32.000Z</time>
      </trkpt>
      <trkpt lat="47.48924" lon="-0.60661">
        <ele>15</ele>
        <time>2015-07-07T08:12:33.000Z</time>
      </trkpt>
      <trkpt lat="47.48925" lon="-0.60665">
        <ele>16</ele>
        <time>2015-07-07T08:12:34.000Z</time>
      </trkpt>
      <trkpt lat="47.48926" lon="-0.6067">
        <ele>17</ele>
        <time>2015-07-07T08:12:35.000Z</time>
      </trkpt>
      <trkpt lat="47.48926" lon="-0.60674">
        <ele>18</ele>
        <time>2015-07-07T08:12:36.000Z</time>
      </trkpt>
      <trkpt lat="47.48925" lon="-0.60678">
        <ele>19</ele>
        <time>2015-07-07T08:12:37.000Z</time>
      </trkpt>
      <trkpt lat="47.48924" lon="-0.60682">
        <ele>20</ele>
        <time>2015-07-07T08:12:38.000Z</time>
      </trkpt>
      <trkpt lat="47.48923" lon="-0.60686">
        <ele>22</ele>
        <time>2015-07-07T08:12:39.000Z</time>
      </trkpt>
      <trkpt lat="47.48921" lon="-0.60689">
        <ele>24</ele>
        <time>2015-07-07T08:12:40.000Z</time>
      </trkpt>
      <trkpt lat="47.4892" lon="-0.60693">
        <ele>23</ele>
        <time>2015-07-07T08:12:41.000Z</time>
      </trkpt>
      <trkpt lat="47.48917" lon="-0.60697">
        <ele>23</ele>
        <time>2015-07-07T08:12:42.000Z</time>
      </trkpt>
      <trkpt lat="47.48915" lon="-0.60699">
        <ele>24</ele>
        <time>2015-07-07T08:12:43.000Z</time>
      </trkpt>
      <trkpt lat="47.48913" lon="-0.60701">
        <ele>24</ele>
        <time>2015-07-07T08:12:44.000Z</time>
      </trkpt>
      <trkpt lat="47.48911" lon="-0.60703">
        <ele>24</ele>
        <time>2015-07-07T08:12:45.000Z</time>
      </trkpt>
      <trkpt lat="47.48909" lon="-0.60704">
        <ele>24</ele>
        <time>2015-07-07T08:12:46.000Z</time>
      </trkpt>
      <trkpt lat="47.48907" lon="-0.60706">
        <ele>25</ele>
        <time>2015-07-07T08:12:47.000Z</time>
      </trkpt>
      <trkpt lat="47.48905" lon="-0.60707">
        <ele>25</ele>
        <time>2015-07-07T08:12:48.000Z</time>
      </trkpt>
      <trkpt lat="47.48903" lon="-0.60708">
        <ele>25</ele>
        <time>2015-07-07T08:12:49.000Z</time>
      </trkpt>
      <trkpt lat="47.48901" lon="-0.60709">
        <ele>26</ele>
        <time>2015-07-07T08:12:50.000Z</time>
      </trkpt>
      <trkpt lat="47.48898" lon="-0.6071">
        <ele>25</ele>
        <time>2015-07-07T08:12:51.000Z</time>
      </trkpt>
      <trkpt lat="47.48896" lon="-0.60712">
        <ele>26</ele>
        <time>2015-07-07T08:12:52.000Z</time>
      </trkpt>
      <trkpt lat="47.48894" lon="-0.60713">
        <ele>25</ele>
        <time>2015-07-07T08:12:53.000Z</time>
      </trkpt>
      <trkpt lat="47.48892" lon="-0.60715">
        <ele>24</ele>
        <time>2015-07-07T08:12:54.000Z</time>
      </trkpt>
      <trkpt lat="47.48889" lon="-0.60717">
        <ele>24</ele>
        <time>2015-07-07T08:12:55.000Z</time>
      </trkpt>
      <trkpt lat="47.48887" lon="-0.60719">
        <ele>24</ele>
        <time>2015-07-07T08:12:56.000Z</time>
      </trkpt>
      <trkpt lat="47.48885" lon="-0.60721">
        <ele>24</ele>
        <time>2015-07-07T08:12:57.000Z</time>
      </trkpt>
      <trkpt lat="47.48883" lon="-0.60724">
        <ele>24</ele>
        <time>2015-07-07T08:12:58.000Z</time>
      </trkpt>
      <trkpt lat="47.48881" lon="-0.60727">
        <ele>24</ele>
        <time>2015-07-07T08:12:59.000Z</time>
      </trkpt>
      <trkpt lat="47.48879" lon="-0.6073">
        <ele>24</ele>
        <time>2015-07-07T08:13:00.000Z</time>
      </trkpt>
      <trkpt lat="47.48877" lon="-0.60733">
        <ele>25</ele>
        <time>2015-07-07T08:13:01.000Z</time>
      </trkpt>
      <trkpt lat="47.48875" lon="-0.60736">
        <ele>25</ele>
        <time>2015-07-07T08:13:02.000Z</time>
      </trkpt>
      <trkpt lat="47.48872" lon="-0.60739">
        <ele>26</ele>
        <time>2015-07-07T08:13:03.000Z</time>
      </trkpt>
      <trkpt lat="47.4887" lon="-0.60742">
        <ele>26</ele>
        <time>2015-07-07T08:13:04.000Z</time>
      </trkpt>
      <trkpt lat="47.48868" lon="-0.60745">
        <ele>26</ele>
        <time>2015-07-07T08:13:05.000Z</time>
      </trkpt>
      <trkpt lat="47.48866" lon="-0.60747">
        <ele>26</ele>
        <time>2015-07-07T08:13:06.000Z</time>
      </trkpt>
      <trkpt lat="47.48864" lon="-0.6075">
        <ele>26</ele>
        <time>2015-07-07T08:13:07.000Z</time>
      </trkpt>
      <trkpt lat="47.48862" lon="-0.60752">
        <ele>26</ele>
        <time>2015-07-07T08:13:08.000Z</time>
      </trkpt>
      <trkpt lat="47.4886" lon="-0.60754">
        <ele>26</ele>
        <time>2015-07-07T08:13:09.000Z</time>
      </trkpt>
      <trkpt lat="47.48858" lon="-0.60757">
        <ele>27</ele>
        <time>2015-07-07T08:13:10.000Z</time>
      </trkpt>
      <trkpt lat="47.48856" lon="-0.60759">
        <ele>28</ele>
        <time>2015-07-07T08:13:11.000Z</time>
      </trkpt>
      <trkpt lat="47.48854" lon="-0.60762">
        <ele>28</ele>
        <time>2015-07-07T08:13:12.000Z</time>
      </trkpt>
      <trkpt lat="47.48853" lon="-0.60766">
        <ele>29</ele>
        <time>2015-07-07T08:13:13.000Z</time>
      </trkpt>
      <trkpt lat="47.48851" lon="-0.60769">
        <ele>30</ele>
        <time>2015-07-07T08:13:14.000Z</time>
      </trkpt>
      <trkpt lat="47.4885" lon="-0.60772">
        <ele>30</ele>
        <time>2015-07-07T08:13:15.000Z</time>
      </trkpt>
      <trkpt lat="47.48849" lon="-0.60775">
        <ele>31</ele>
        <time>2015-07-07T08:13:16.000Z</time>
      </trkpt>
      <trkpt lat="47.48848" lon="-0.60778">
        <ele>32</ele>
        <time>2015-07-07T08:13:17.000Z</time>
      </trkpt>
      <trkpt lat="47.48846" lon="-0.60782">
        <ele>32</ele>
        <time>2015-07-07T08:13:18.000Z</time>
      </trkpt>
      <trkpt lat="47.48844" lon="-0.60785">
        <ele>32</ele>
        <time>2015-07-07T08:13:19.000Z</time>
      </trkpt>
      <trkpt lat="47.48843" lon="-0.60788">
        <ele>32</ele>
        <time>2015-07-07T08:13:20.000Z</time>
      </trkpt>
      <trkpt lat="47.48842" lon="-0.60792">
        <ele>33</ele>
        <time>2015-07-07T08:13:21.000Z</time>
      </trkpt>
      <trkpt lat="47.48841" lon="-0.60795">
        <ele>33</ele>
        <time>2015-07-07T08:13:22.000Z</time>
      </trkpt>
      <trkpt lat="47.48839" lon="-0.60798">
        <ele>33</ele>
        <time>2015-07-07T08:13:23.000Z</time>
      </trkpt>
      <trkpt lat="47.48837" lon="-0.60802">
        <ele>34</ele>
        <time>2015-07-07T08:13:24.000Z</time>
      </trkpt>
      <trkpt lat="47.48835" lon="-0.60805">
        <ele>34</ele>
        <time>2015-07-07T08:13:25.000Z</time>
      </trkpt>
      <trkpt lat="47.48833" lon="-0.60808">
        <ele>31</ele>
        <time>2015-07-07T08:13:26.000Z</time>
      </trkpt>
      <trkpt lat="47.4883" lon="-0.6081">
        <ele>30</ele>
        <time>2015-07-07T08:13:27.000Z</time>
      </trkpt>
      <trkpt lat="47.48827" lon="-0.60812">
        <ele>29</ele>
        <time>2015-07-07T08:13:28.000Z</time>
      </trkpt>
      <trkpt lat="47.48824" lon="-0.60814">
        <ele>29</ele>
        <time>2015-07-07T08:13:29.000Z</time>
      </trkpt>
      <trkpt lat="47.48821" lon="-0.60815">
        <ele>28</ele>
        <time>2015-07-07T08:13:30.000Z</time>
      </trkpt>
      <trkpt lat="47.48818" lon="-0.60816">
        <ele>29</ele>
        <time>2015-07-07T08:13:31.000Z</time>
      </trkpt>
      <trkpt lat="47.48816" lon="-0.60817">
        <ele>29</ele>
        <time>2015-07-07T08:13:32.000Z</time>
      </trkpt>
      <trkpt lat="47.48814" lon="-0.60818">
        <ele>29</ele>
        <time>2015-07-07T08:13:33.000Z</time>
      </trkpt>
      <trkpt lat="47.48811" lon="-0.60818">
        <ele>30</ele>
        <time>2015-07-07T08:13:34.000Z</time>
      </trkpt>
      <trkpt lat="47.48809" lon="-0.60818">
        <ele>30</ele>
        <time>2015-07-07T08:13:35.000Z</time>
      </trkpt>
      <trkpt lat="47.48806" lon="-0.60818">
        <ele>30</ele>
        <time>2015-07-07T08:13:36.000Z</time>
      </trkpt>
      <trkpt lat="47.48804" lon="-0.60817">
        <ele>29</ele>
        <time>2015-07-07T08:13:37.000Z</time>
      </trkpt>
      <trkpt lat="47.48801" lon="-0.60817">
        <ele>29</ele>
        <time>2015-07-07T08:13:38.000Z</time>
      </trkpt>
      <trkpt lat="47.48799" lon="-0.60817">
        <ele>28</ele>
        <time>2015-07-07T08:13:39.000Z</time>
      </trkpt>
      <trkpt lat="47.48797" lon="-0.60816">
        <ele>28</ele>
        <time>2015-07-07T08:13:40.000Z</time>
      </trkpt>
      <trkpt lat="47.48795" lon="-0.60815">
        <ele>27</ele>
        <time>2015-07-07T08:13:41.000Z</time>
      </trkpt>
      <trkpt lat="47.48793" lon="-0.60814">
        <ele>26</ele>
        <time>2015-07-07T08:13:42.000Z</time>
      </trkpt>
      <trkpt lat="47.48791" lon="-0.60812">
        <ele>26</ele>
        <time>2015-07-07T08:13:43.000Z</time>
      </trkpt>
      <trkpt lat="47.48789" lon="-0.6081">
        <ele>26</ele>
        <time>2015-07-07T08:13:44.000Z</time>
      </trkpt>
      <trkpt lat="47.48787" lon="-0.60808">
        <ele>24</ele>
        <time>2015-07-07T08:13:45.000Z</time>
      </trkpt>
      <trkpt lat="47.48786" lon="-0.60806">
        <ele>22</ele>
        <time>2015-07-07T08:13:46.000Z</time>
      </trkpt>
      <trkpt lat="47.48784" lon="-0.60804">
        <ele>21</ele>
        <time>2015-07-07T08:13:47.000Z</time>
      </trkpt>
      <trkpt lat="47.48782" lon="-0.60802">
        <ele>21</ele>
        <time>2015-07-07T08:13:48.000Z</time>
      </trkpt>
      <trkpt lat="47.4878" lon="-0.60801">
        <ele>21</ele>
        <time>2015-07-07T08:13:49.000Z</time>
      </trkpt>
      <trkpt lat="47.48778" lon="-0.608">
        <ele>20</ele>
        <time>2015-07-07T08:13:50.000Z</time>
      </trkpt>
      <trkpt lat="47.48776" lon="-0.608">
        <ele>18</ele>
        <time>2015-07-07T08:13:51.000Z</time>
      </trkpt>
      <trkpt lat="47.48774" lon="-0.60801">
        <ele>17</ele>
        <time>2015-07-07T08:13:52.000Z</time>
      </trkpt>
      <trkpt lat="47.48772" lon="-0.60801">
        <ele>17</ele>
        <time>2015-07-07T08:13:53.000Z</time>
      </trkpt>
      <trkpt lat="47.4877" lon="-0.608">
        <ele>16</ele>
        <time>2015-07-07T08:13:54.000Z</time>
      </trkpt>
      <trkpt lat="47.48768" lon="-0.60798">
        <ele>17</ele>
        <time>2015-07-07T08:13:55.000Z</time>
      </trkpt>
      <trkpt lat="47.48766" lon="-0.60796">
        <ele>16</ele>
        <time>2015-07-07T08:13:56.000Z</time>
      </trkpt>
      <trkpt lat="47.48764" lon="-0.60794">
        <ele>16</ele>
        <time>2015-07-07T08:13:57.000Z</time>
      </trkpt>
      <trkpt lat="47.48762" lon="-0.60792">
        <ele>16</ele>
        <time>2015-07-07T08:13:58.000Z</time>
      </trkpt>
      <trkpt lat="47.4876" lon="-0.6079">
        <ele>14</ele>
        <time>2015-07-07T08:13:59.000Z</time>
      </trkpt>
      <trkpt lat="47.48758" lon="-0.60789">
        <ele>14</ele>
        <time>2015-07-07T08:14:00.000Z</time>
      </trkpt>
      <trkpt lat="47.48756" lon="-0.60788">
        <ele>14</ele>
        <time>2015-07-07T08:14:01.000Z</time>
      </trkpt>
      <trkpt lat="47.48754" lon="-0.60788">
        <ele>18</ele>
        <time>2015-07-07T08:14:02.000Z</time>
      </trkpt>
      <trkpt lat="47.48751" lon="-0.60788">
        <ele>20</ele>
        <time>2015-07-07T08:14:03.000Z</time>
      </trkpt>
      <trkpt lat="47.48749" lon="-0.60787">
        <ele>21</ele>
        <time>2015-07-07T08:14:04.000Z</time>
      </trkpt>
      <trkpt lat="47.48747" lon="-0.60787">
        <ele>21</ele>
        <time>2015-07-07T08:14:05.000Z</time>
      </trkpt>
      <trkpt lat="47.48746" lon="-0.60788">
        <ele>24</ele>
        <time>2015-07-07T08:14:06.000Z</time>
      </trkpt>
      <trkpt lat="47.48746" lon="-0.60789">
        <ele>24</ele>
        <time>2015-07-07T08:14:07.000Z</time>
      </trkpt>
      <trkpt lat="47.48745" lon="-0.6079">
        <ele>24</ele>
        <time>2015-07-07T08:14:08.000Z</time>
      </trkpt>
      <trkpt lat="47.48746" lon="-0.60792">
        <ele>24</ele>
        <time>2015-07-07T08:14:09.000Z</time>
      </trkpt>
      <trkpt lat="47.48746" lon="-0.60795">
        <ele>22</ele>
        <time>2015-07-07T08:14:10.000Z</time>
      </trkpt>
      <trkpt lat="47.48747" lon="-0.60798">
        <ele>23</ele>
        <time>2015-07-07T08:14:11.000Z</time>
      </trkpt>
      <trkpt lat="47.48748" lon="-0.608">
        <ele>22</ele>
        <time>2015-07-07T08:14:12.000Z</time>
      </trkpt>
      <trkpt lat="47.4875" lon="-0.60803">
        <ele>21</ele>
        <time>2015-07-07T08:14:13.000Z</time>
      </trkpt>
      <trkpt lat="47.48751" lon="-0.60805">
        <ele>20</ele>
        <time>2015-07-07T08:14:14.000Z</time>
      </trkpt>
      <trkpt lat="47.48753" lon="-0.60808">
        <ele>20</ele>
        <time>2015-07-07T08:14:15.000Z</time>
      </trkpt>
      <trkpt lat="47.48755" lon="-0.60811">
        <ele>20</ele>
        <time>2015-07-07T08:14:16.000Z</time>
      </trkpt>
      <trkpt lat="47.48756" lon="-0.60814">
        <ele>19</ele>
        <time>2015-07-07T08:14:17.000Z</time>
      </trkpt>
      <trkpt lat="47.48758" lon="-0.60816">
        <ele>19</ele>
        <time>2015-07-07T08:14:18.000Z</time>
      </trkpt>
      <trkpt lat="47.48759" lon="-0.6082">
        <ele>18</ele>
        <time>2015-07-07T08:14:19.000Z</time>
      </trkpt>
      <trkpt lat="47.4876" lon="-0.60823">
        <ele>18</ele>
        <time>2015-07-07T08:14:20.000Z</time>
      </trkpt>
      <trkpt lat="47.48761" lon="-0.60826">
        <ele>18</ele>
        <time>2015-07-07T08:14:21.000Z</time>
      </trkpt>
      <trkpt lat="47.48762" lon="-0.6083">
        <ele>19</ele>
        <time>2015-07-07T08:14:22.000Z</time>
      </trkpt>
      <trkpt lat="47.48762" lon="-0.60834">
        <ele>19</ele>
        <time>2015-07-07T08:14:23.000Z</time>
      </trkpt>
      <trkpt lat="47.48763" lon="-0.60839">
        <ele>19</ele>
        <time>2015-07-07T08:14:24.000Z</time>
      </trkpt>
      <trkpt lat="47.48764" lon="-0.60843">
        <ele>18</ele>
        <time>2015-07-07T08:14:25.000Z</time>
      </trkpt>
      <trkpt lat="47.48764" lon="-0.60846">
        <ele>18</ele>
        <time>2015-07-07T08:14:26.000Z</time>
      </trkpt>
      <trkpt lat="47.48765" lon="-0.6085">
        <ele>17</ele>
        <time>2015-07-07T08:14:27.000Z</time>
      </trkpt>
      <trkpt lat="47.48766" lon="-0.60853">
        <ele>17</ele>
        <time>2015-07-07T08:14:28.000Z</time>
      </trkpt>
      <trkpt lat="47.48767" lon="-0.60857">
        <ele>16</ele>
        <time>2015-07-07T08:14:29.000Z</time>
      </trkpt>
      <trkpt lat="47.48768" lon="-0.6086">
        <ele>16</ele>
        <time>2015-07-07T08:14:30.000Z</time>
      </trkpt>
      <trkpt lat="47.48769" lon="-0.60863">
        <ele>15</ele>
        <time>2015-07-07T08:14:31.000Z</time>
      </trkpt>
      <trkpt lat="47.4877" lon="-0.60866">
        <ele>15</ele>
        <time>2015-07-07T08:14:32.000Z</time>
      </trkpt>
      <trkpt lat="47.48771" lon="-0.60869">
        <ele>15</ele>
        <time>2015-07-07T08:14:33.000Z</time>
      </trkpt>
      <trkpt lat="47.48771" lon="-0.60873">
        <ele>15</ele>
        <time>2015-07-07T08:14:34.000Z</time>
      </trkpt>
      <trkpt lat="47.48772" lon="-0.60876">
        <ele>15</ele>
        <time>2015-07-07T08:14:35.000Z</time>
      </trkpt>
      <trkpt lat="47.48773" lon="-0.6088">
        <ele>15</ele>
        <time>2015-07-07T08:14:36.000Z</time>
      </trkpt>
      <trkpt lat="47.48773" lon="-0.60883">
        <ele>15</ele>
        <time>2015-07-07T08:14:37.000Z</time>
      </trkpt>
      <trkpt lat="47.48774" lon="-0.60887">
        <ele>16</ele>
        <time>2015-07-07T08:14:38.000Z</time>
      </trkpt>
      <trkpt lat="47.48774" lon="-0.6089">
        <ele>16</ele>
        <time>2015-07-07T08:14:39.000Z</time>
      </trkpt>
      <trkpt lat="47.48775" lon="-0.60894">
        <ele>17</ele>
        <time>2015-07-07T08:14:40.000Z</time>
      </trkpt>
      <trkpt lat="47.48775" lon="-0.60897">
        <ele>18</ele>
        <time>2015-07-07T08:14:41.000Z</time>
      </trkpt>
      <trkpt lat="47.48776" lon="-0.60901">
        <ele>17</ele>
        <time>2015-07-07T08:14:42.000Z</time>
      </trkpt>
      <trkpt lat="47.48776" lon="-0.60905">
        <ele>17</ele>
        <time>2015-07-07T08:14:43.000Z</time>
      </trkpt>
      <trkpt lat="47.48776" lon="-0.60908">
        <ele>18</ele>
        <time>2015-07-07T08:14:44.000Z</time>
      </trkpt>
      <trkpt lat="47.48777" lon="-0.60912">
        <ele>18</ele>
        <time>2015-07-07T08:14:45.000Z</time>
      </trkpt>
      <trkpt lat="47.48778" lon="-0.60916">
        <ele>18</ele>
        <time>2015-07-07T08:14:46.000Z</time>
      </trkpt>
      <trkpt lat="47.48778" lon="-0.60919">
        <ele>18</ele>
        <time>2015-07-07T08:14:47.000Z</time>
      </trkpt>
      <trkpt lat="47.48778" lon="-0.60924">
        <ele>18</ele>
        <time>2015-07-07T08:14:48.000Z</time>
      </trkpt>
      <trkpt lat="47.48779" lon="-0.60928">
        <ele>18</ele>
        <time>2015-07-07T08:14:49.000Z</time>
      </trkpt>
      <trkpt lat="47.48779" lon="-0.60932">
        <ele>19</ele>
        <time>2015-07-07T08:14:50.000Z</time>
      </trkpt>
      <trkpt lat="47.4878" lon="-0.60937">
        <ele>20</ele>
        <time>2015-07-07T08:14:51.000Z</time>
      </trkpt>
      <trkpt lat="47.4878" lon="-0.60942">
        <ele>21</ele>
        <time>2015-07-07T08:14:52.000Z</time>
      </trkpt>
      <trkpt lat="47.48781" lon="-0.60946">
        <ele>20</ele>
        <time>2015-07-07T08:14:53.000Z</time>
      </trkpt>
      <trkpt lat="47.48782" lon="-0.60949">
        <ele>19</ele>
        <time>2015-07-07T08:14:54.000Z</time>
      </trkpt>
      <trkpt lat="47.48782" lon="-0.60953">
        <ele>19</ele>
        <time>2015-07-07T08:14:55.000Z</time>
      </trkpt>
      <trkpt lat="47.48782" lon="-0.60957">
        <ele>19</ele>
        <time>2015-07-07T08:14:56.000Z</time>
      </trkpt>
      <trkpt lat="47.48782" lon="-0.60961">
        <ele>19</ele>
        <time>2015-07-07T08:14:57.000Z</time>
      </trkpt>
      <trkpt lat="47.48782" lon="-0.60966">
        <ele>18</ele>
        <time>2015-07-07T08:14:58.000Z</time>
      </trkpt>
      <trkpt lat="47.48781" lon="-0.6097">
        <ele>19</ele>
        <time>2015-07-07T08:14:59.000Z</time>
      </trkpt>
      <trkpt lat="47.48781" lon="-0.60974">
        <ele>19</ele>
        <time>2015-07-07T08:15:00.000Z</time>
      </trkpt>
      <trkpt lat="47.48781" lon="-0.60978">
        <ele>20</ele>
        <time>2015-07-07T08:15:01.000Z</time>
      </trkpt>
      <trkpt lat="47.48781" lon="-0.60982">
        <ele>19</ele>
        <time>2015-07-07T08:15:02.000Z</time>
      </trkpt>
      <trkpt lat="47.4878" lon="-0.60986">
        <ele>19</ele>
        <time>2015-07-07T08:15:03.000Z</time>
      </trkpt>
      <trkpt lat="47.4878" lon="-0.60991">
        <ele>19</ele>
        <time>2015-07-07T08:15:04.000Z</time>
      </trkpt>
      <trkpt lat="47.4878" lon="-0.60995">
        <ele>18</ele>
        <time>2015-07-07T08:15:05.000Z</time>
      </trkpt>
      <trkpt lat="47.48779" lon="-0.60998">
        <ele>18</ele>
        <time>2015-07-07T08:15:06.000Z</time>
      </trkpt>
      <trkpt lat="47.48779" lon="-0.61002">
        <ele>19</ele>
        <time>2015-07-07T08:15:07.000Z</time>
      </trkpt>
      <trkpt lat="47.48779" lon="-0.61006">
        <ele>19</ele>
        <time>2015-07-07T08:15:08.000Z</time>
      </trkpt>
      <trkpt lat="47.48778" lon="-0.6101">
        <ele>19</ele>
        <time>2015-07-07T08:15:09.000Z</time>
      </trkpt>
      <trkpt lat="47.48777" lon="-0.61013">
        <ele>19</ele>
        <time>2015-07-07T08:15:10.000Z</time>
      </trkpt>
      <trkpt lat="47.48777" lon="-0.61016">
        <ele>20</ele>
        <time>2015-07-07T08:15:11.000Z</time>
      </trkpt>
      <trkpt lat="47.48776" lon="-0.6102">
        <ele>20</ele>
        <time>2015-07-07T08:15:12.000Z</time>
      </trkpt>
      <trkpt lat="47.48776" lon="-0.61024">
        <ele>21</ele>
        <time>2015-07-07T08:15:13.000Z</time>
      </trkpt>
      <trkpt lat="47.48776" lon="-0.61028">
        <ele>21</ele>
        <time>2015-07-07T08:15:14.000Z</time>
      </trkpt>
      <trkpt lat="47.48776" lon="-0.61031">
        <ele>21</ele>
        <time>2015-07-07T08:15:15.000Z</time>
      </trkpt>
      <trkpt lat="47.48776" lon="-0.61035">
        <ele>21</ele>
        <time>2015-07-07T08:15:16.000Z</time>
      </trkpt>
      <trkpt lat="47.48776" lon="-0.61038">
        <ele>21</ele>
        <time>2015-07-07T08:15:17.000Z</time>
      </trkpt>
      <trkpt lat="47.48776" lon="-0.61042">
        <ele>20</ele>
        <time>2015-07-07T08:15:18.000Z</time>
      </trkpt>
      <trkpt lat="47.48776" lon="-0.61045">
        <ele>21</ele>
        <time>2015-07-07T08:15:19.000Z</time>
      </trkpt>
      <trkpt lat="47.48775" lon="-0.61049">
        <ele>22</ele>
        <time>2015-07-07T08:15:20.000Z</time>
      </trkpt>
      <trkpt lat="47.48775" lon="-0.61053">
        <ele>22</ele>
        <time>2015-07-07T08:15:21.000Z</time>
      </trkpt>
      <trkpt lat="47.48775" lon="-0.61057">
        <ele>23</ele>
        <time>2015-07-07T08:15:22.000Z</time>
      </trkpt>
      <trkpt lat="47.48776" lon="-0.6106">
        <ele>24</ele>
        <time>2015-07-07T08:15:23.000Z</time>
      </trkpt>
      <trkpt lat="47.48776" lon="-0.61064">
        <ele>25</ele>
        <time>2015-07-07T08:15:24.000Z</time>
      </trkpt>
      <trkpt lat="47.48776" lon="-0.61067">
        <ele>25</ele>
        <time>2015-07-07T08:15:25.000Z</time>
      </trkpt>
      <trkpt lat="47.48776" lon="-0.6107">
        <ele>25</ele>
        <time>2015-07-07T08:15:26.000Z</time>
      </trkpt>
      <trkpt lat="47.48777" lon="-0.61073">
        <ele>26</ele>
        <time>2015-07-07T08:15:27.000Z</time>
      </trkpt>
      <trkpt lat="47.48777" lon="-0.61076">
        <ele>26</ele>
        <time>2015-07-07T08:15:28.000Z</time>
      </trkpt>
      <trkpt lat="47.48776" lon="-0.6108">
        <ele>28</ele>
        <time>2015-07-07T08:15:29.000Z</time>
      </trkpt>
      <trkpt lat="47.48776" lon="-0.61084">
        <ele>28</ele>
        <time>2015-07-07T08:15:30.000Z</time>
      </trkpt>
      <trkpt lat="47.48775" lon="-0.61087">
        <ele>30</ele>
        <time>2015-07-07T08:15:31.000Z</time>
      </trkpt>
      <trkpt lat="47.48774" lon="-0.6109">
        <ele>31</ele>
        <time>2015-07-07T08:15:32.000Z</time>
      </trkpt>
      <trkpt lat="47.48773" lon="-0.61093">
        <ele>32</ele>
        <time>2015-07-07T08:15:33.000Z</time>
      </trkpt>
      <trkpt lat="47.48772" lon="-0.61096">
        <ele>32</ele>
        <time>2015-07-07T08:15:34.000Z</time>
      </trkpt>
      <trkpt lat="47.4877" lon="-0.61099">
        <ele>33</ele>
        <time>2015-07-07T08:15:35.000Z</time>
      </trkpt>
      <trkpt lat="47.48769" lon="-0.61101">
        <ele>34</ele>
        <time>2015-07-07T08:15:36.000Z</time>
      </trkpt>
      <trkpt lat="47.48768" lon="-0.61103">
        <ele>34</ele>
        <time>2015-07-07T08:15:37.000Z</time>
      </trkpt>
      <trkpt lat="47.48767" lon="-0.61105">
        <ele>35</ele>
        <time>2015-07-07T08:15:38.000Z</time>
      </trkpt>
      <trkpt lat="47.48765" lon="-0.61107">
        <ele>35</ele>
        <time>2015-07-07T08:15:39.000Z</time>
      </trkpt>
      <trkpt lat="47.48764" lon="-0.61109">
        <ele>36</ele>
        <time>2015-07-07T08:15:40.000Z</time>
      </trkpt>
      <trkpt lat="47.48763" lon="-0.61111">
        <ele>38</ele>
        <time>2015-07-07T08:15:41.000Z</time>
      </trkpt>
      <trkpt lat="47.48761" lon="-0.61113">
        <ele>38</ele>
        <time>2015-07-07T08:15:42.000Z</time>
      </trkpt>
      <trkpt lat="47.48759" lon="-0.61115">
        <ele>39</ele>
        <time>2015-07-07T08:15:43.000Z</time>
      </trkpt>
      <trkpt lat="47.48757" lon="-0.61117">
        <ele>39</ele>
        <time>2015-07-07T08:15:44.000Z</time>
      </trkpt>
      <trkpt lat="47.48755" lon="-0.61119">
        <ele>40</ele>
        <time>2015-07-07T08:15:45.000Z</time>
      </trkpt>
      <trkpt lat="47.48753" lon="-0.61121">
        <ele>40</ele>
        <time>2015-07-07T08:15:46.000Z</time>
      </trkpt>
      <trkpt lat="47.48751" lon="-0.61123">
        <ele>41</ele>
        <time>2015-07-07T08:15:47.000Z</time>
      </trkpt>
      <trkpt lat="47.4875" lon="-0.61125">
        <ele>42</ele>
        <time>2015-07-07T08:15:48.000Z</time>
      </trkpt>
      <trkpt lat="47.48748" lon="-0.61127">
        <ele>42</ele>
        <time>2015-07-07T08:15:49.000Z</time>
      </trkpt>
      <trkpt lat="47.48747" lon="-0.61128">
        <ele>43</ele>
        <time>2015-07-07T08:15:50.000Z</time>
      </trkpt>
      <trkpt lat="47.48745" lon="-0.61129">
        <ele>43</ele>
        <time>2015-07-07T08:15:51.000Z</time>
      </trkpt>
      <trkpt lat="47.48743" lon="-0.61131">
        <ele>44</ele>
        <time>2015-07-07T08:15:52.000Z</time>
      </trkpt>
      <trkpt lat="47.48741" lon="-0.61132">
        <ele>44</ele>
        <time>2015-07-07T08:15:53.000Z</time>
      </trkpt>
      <trkpt lat="47.48739" lon="-0.61134">
        <ele>43</ele>
        <time>2015-07-07T08:15:54.000Z</time>
      </trkpt>
      <trkpt lat="47.48738" lon="-0.61135">
        <ele>44</ele>
        <time>2015-07-07T08:15:55.000Z</time>
      </trkpt>
      <trkpt lat="47.48736" lon="-0.61137">
        <ele>45</ele>
        <time>2015-07-07T08:15:56.000Z</time>
      </trkpt>
      <trkpt lat="47.48734" lon="-0.61139">
        <ele>46</ele>
        <time>2015-07-07T08:15:57.000Z</time>
      </trkpt>
      <trkpt lat="47.48732" lon="-0.61141">
        <ele>47</ele>
        <time>2015-07-07T08:15:58.000Z</time>
      </trkpt>
      <trkpt lat="47.4873" lon="-0.61142">
        <ele>48</ele>
        <time>2015-07-07T08:15:59.000Z</time>
      </trkpt>
      <trkpt lat="47.48728" lon="-0.61144">
        <ele>48</ele>
        <time>2015-07-07T08:16:00.000Z</time>
      </trkpt>
      <trkpt lat="47.48726" lon="-0.61146">
        <ele>48</ele>
        <time>2015-07-07T08:16:01.000Z</time>
      </trkpt>
      <trkpt lat="47.48725" lon="-0.61147">
        <ele>47</ele>
        <time>2015-07-07T08:16:02.000Z</time>
      </trkpt>
      <trkpt lat="47.48723" lon="-0.61148">
        <ele>48</ele>
        <time>2015-07-07T08:16:03.000Z</time>
      </trkpt>
      <trkpt lat="47.48721" lon="-0.61149">
        <ele>49</ele>
        <time>2015-07-07T08:16:04.000Z</time>
      </trkpt>
      <trkpt lat="47.48719" lon="-0.61151">
        <ele>51</ele>
        <time>2015-07-07T08:16:05.000Z</time>
      </trkpt>
      <trkpt lat="47.48717" lon="-0.61153">
        <ele>51</ele>
        <time>2015-07-07T08:16:06.000Z</time>
      </trkpt>
      <trkpt lat="47.48716" lon="-0.61155">
        <ele>48</ele>
        <time>2015-07-07T08:16:07.000Z</time>
      </trkpt>
      <trkpt lat="47.48714" lon="-0.61158">
        <ele>48</ele>
        <time>2015-07-07T08:16:08.000Z</time>
      </trkpt>
      <trkpt lat="47.48713" lon="-0.6116">
        <ele>49</ele>
        <time>2015-07-07T08:16:09.000Z</time>
      </trkpt>
      <trkpt lat="47.48711" lon="-0.61162">
        <ele>47</ele>
        <time>2015-07-07T08:16:10.000Z</time>
      </trkpt>
      <trkpt lat="47.4871" lon="-0.61163">
        <ele>47</ele>
        <time>2015-07-07T08:16:11.000Z</time>
      </trkpt>
      <trkpt lat="47.48708" lon="-0.61163">
        <ele>47</ele>
        <time>2015-07-07T08:16:12.000Z</time>
      </trkpt>
      <trkpt lat="47.48706" lon="-0.61163">
        <ele>47</ele>
        <time>2015-07-07T08:16:13.000Z</time>
      </trkpt>
      <trkpt lat="47.48705" lon="-0.61163">
        <ele>48</ele>
        <time>2015-07-07T08:16:14.000Z</time>
      </trkpt>
      <trkpt lat="47.48703" lon="-0.61161">
        <ele>48</ele>
        <time>2015-07-07T08:16:15.000Z</time>
      </trkpt>
      <trkpt lat="47.48701" lon="-0.61159">
        <ele>48</ele>
        <time>2015-07-07T08:16:16.000Z</time>
      </trkpt>
      <trkpt lat="47.487" lon="-0.61157">
        <ele>49</ele>
        <time>2015-07-07T08:16:17.000Z</time>
      </trkpt>
      <trkpt lat="47.48698" lon="-0.61155">
        <ele>49</ele>
        <time>2015-07-07T08:16:18.000Z</time>
      </trkpt>
      <trkpt lat="47.48696" lon="-0.61153">
        <ele>50</ele>
        <time>2015-07-07T08:16:19.000Z</time>
      </trkpt>
      <trkpt lat="47.48694" lon="-0.61151">
        <ele>50</ele>
        <time>2015-07-07T08:16:20.000Z</time>
      </trkpt>
      <trkpt lat="47.48692" lon="-0.61148">
        <ele>49</ele>
        <time>2015-07-07T08:16:21.000Z</time>
      </trkpt>
      <trkpt lat="47.4869" lon="-0.61146">
        <ele>50</ele>
        <time>2015-07-07T08:16:22.000Z</time>
      </trkpt>
      <trkpt lat="47.48689" lon="-0.61144">
        <ele>50</ele>
        <time>2015-07-07T08:16:23.000Z</time>
      </trkpt>
      <trkpt lat="47.48687" lon="-0.61141">
        <ele>50</ele>
        <time>2015-07-07T08:16:24.000Z</time>
      </trkpt>
      <trkpt lat="47.48685" lon="-0.61139">
        <ele>49</ele>
        <time>2015-07-07T08:16:25.000Z</time>
      </trkpt>
      <trkpt lat="47.48683" lon="-0.61137">
        <ele>50</ele>
        <time>2015-07-07T08:16:26.000Z</time>
      </trkpt>
      <trkpt lat="47.4868" lon="-0.61135">
        <ele>50</ele>
        <time>2015-07-07T08:16:27.000Z</time>
      </trkpt>
      <trkpt lat="47.48678" lon="-0.61133">
        <ele>50</ele>
        <time>2015-07-07T08:16:28.000Z</time>
      </trkpt>
      <trkpt lat="47.48676" lon="-0.61131">
        <ele>50</ele>
        <time>2015-07-07T08:16:29.000Z</time>
      </trkpt>
      <trkpt lat="47.48673" lon="-0.61129">
        <ele>50</ele>
        <time>2015-07-07T08:16:30.000Z</time>
      </trkpt>
      <trkpt lat="47.48671" lon="-0.61128">
        <ele>50</ele>
        <time>2015-07-07T08:16:31.000Z</time>
      </trkpt>
      <trkpt lat="47.48668" lon="-0.61127">
        <ele>51</ele>
        <time>2015-07-07T08:16:32.000Z</time>
      </trkpt>
      <trkpt lat="47.48666" lon="-0.61126">
        <ele>51</ele>
        <time>2015-07-07T08:16:33.000Z</time>
      </trkpt>
      <trkpt lat="47.48663" lon="-0.61125">
        <ele>51</ele>
        <time>2015-07-07T08:16:34.000Z</time>
      </trkpt>
      <trkpt lat="47.48661" lon="-0.61124">
        <ele>51</ele>
        <time>2015-07-07T08:16:35.000Z</time>
      </trkpt>
      <trkpt lat="47.48658" lon="-0.61124">
        <ele>51</ele>
        <time>2015-07-07T08:16:36.000Z</time>
      </trkpt>
      <trkpt lat="47.48656" lon="-0.61123">
        <ele>50</ele>
        <time>2015-07-07T08:16:37.000Z</time>
      </trkpt>
      <trkpt lat="47.48653" lon="-0.61123">
        <ele>50</ele>
        <time>2015-07-07T08:16:38.000Z</time>
      </trkpt>
      <trkpt lat="47.48651" lon="-0.61123">
        <ele>50</ele>
        <time>2015-07-07T08:16:39.000Z</time>
      </trkpt>
      <trkpt lat="47.48648" lon="-0.61122">
        <ele>50</ele>
        <time>2015-07-07T08:16:40.000Z</time>
      </trkpt>
      <trkpt lat="47.48646" lon="-0.61121">
        <ele>49</ele>
        <time>2015-07-07T08:16:41.000Z</time>
      </trkpt>
      <trkpt lat="47.48644" lon="-0.61119">
        <ele>49</ele>
        <time>2015-07-07T08:16:42.000Z</time>
      </trkpt>
      <trkpt lat="47.48642" lon="-0.61116">
        <ele>48</ele>
        <time>2015-07-07T08:16:43.000Z</time>
      </trkpt>
      <trkpt lat="47.4864" lon="-0.61112">
        <ele>47</ele>
        <time>2015-07-07T08:16:44.000Z</time>
      </trkpt>
      <trkpt lat="47.48638" lon="-0.61109">
        <ele>47</ele>
        <time>2015-07-07T08:16:45.000Z</time>
      </trkpt>
      <trkpt lat="47.48636" lon="-0.61105">
        <ele>47</ele>
        <time>2015-07-07T08:16:46.000Z</time>
      </trkpt>
      <trkpt lat="47.48634" lon="-0.61102">
        <ele>47</ele>
        <time>2015-07-07T08:16:47.000Z</time>
      </trkpt>
      <trkpt lat="47.48632" lon="-0.61098">
        <ele>47</ele>
        <time>2015-07-07T08:16:48.000Z</time>
      </trkpt>
      <trkpt lat="47.48631" lon="-0.61094">
        <ele>47</ele>
        <time>2015-07-07T08:16:49.000Z</time>
      </trkpt>
      <trkpt lat="47.48629" lon="-0.61091">
        <ele>47</ele>
        <time>2015-07-07T08:16:50.000Z</time>
      </trkpt>
      <trkpt lat="47.48627" lon="-0.61087">
        <ele>47</ele>
        <time>2015-07-07T08:16:51.000Z</time>
      </trkpt>
      <trkpt lat="47.48626" lon="-0.61084">
        <ele>46</ele>
        <time>2015-07-07T08:16:52.000Z</time>
      </trkpt>
      <trkpt lat="47.48624" lon="-0.61081">
        <ele>46</ele>
        <time>2015-07-07T08:16:53.000Z</time>
      </trkpt>
      <trkpt lat="47.48623" lon="-0.61079">
        <ele>47</ele>
        <time>2015-07-07T08:16:54.000Z</time>
      </trkpt>
      <trkpt lat="47.48622" lon="-0.61077">
        <ele>47</ele>
        <time>2015-07-07T08:16:55.000Z</time>
      </trkpt>
      <trkpt lat="47.48621" lon="-0.61074">
        <ele>47</ele>
        <time>2015-07-07T08:16:56.000Z</time>
      </trkpt>
      <trkpt lat="47.4862" lon="-0.6107">
        <ele>47</ele>
        <time>2015-07-07T08:16:57.000Z</time>
      </trkpt>
      <trkpt lat="47.48618" lon="-0.61066">
        <ele>47</ele>
        <time>2015-07-07T08:16:58.000Z</time>
      </trkpt>
      <trkpt lat="47.48616" lon="-0.61063">
        <ele>47</ele>
        <time>2015-07-07T08:16:59.000Z</time>
      </trkpt>
      <trkpt lat="47.48614" lon="-0.61059">
        <ele>47</ele>
        <time>2015-07-07T08:17:00.000Z</time>
      </trkpt>
      <trkpt lat="47.48612" lon="-0.61056">
        <ele>46</ele>
        <time>2015-07-07T08:17:01.000Z</time>
      </trkpt>
      <trkpt lat="47.4861" lon="-0.61053">
        <ele>46</ele>
        <time>2015-07-07T08:17:02.000Z</time>
      </trkpt>
      <trkpt lat="47.48609" lon="-0.61049">
        <ele>46</ele>
        <time>2015-07-07T08:17:03.000Z</time>
      </trkpt>
      <trkpt lat="47.48607" lon="-0.61045">
        <ele>45</ele>
        <time>2015-07-07T08:17:04.000Z</time>
      </trkpt>
      <trkpt lat="47.48606" lon="-0.61042">
        <ele>44</ele>
        <time>2015-07-07T08:17:05.000Z</time>
      </trkpt>
      <trkpt lat="47.48604" lon="-0.61038">
        <ele>44</ele>
        <time>2015-07-07T08:17:06.000Z</time>
      </trkpt>
      <trkpt lat="47.48603" lon="-0.61034">
        <ele>43</ele>
        <time>2015-07-07T08:17:07.000Z</time>
      </trkpt>
      <trkpt lat="47.48601" lon="-0.6103">
        <ele>43</ele>
        <time>2015-07-07T08:17:08.000Z</time>
      </trkpt>
      <trkpt lat="47.48599" lon="-0.61026">
        <ele>43</ele>
        <time>2015-07-07T08:17:09.000Z</time>
      </trkpt>
      <trkpt lat="47.48598" lon="-0.61022">
        <ele>42</ele>
        <time>2015-07-07T08:17:10.000Z</time>
      </trkpt>
      <trkpt lat="47.48596" lon="-0.61019">
        <ele>42</ele>
        <time>2015-07-07T08:17:11.000Z</time>
      </trkpt>
      <trkpt lat="47.48595" lon="-0.61015">
        <ele>42</ele>
        <time>2015-07-07T08:17:12.000Z</time>
      </trkpt>
      <trkpt lat="47.48593" lon="-0.61011">
        <ele>42</ele>
        <time>2015-07-07T08:17:13.000Z</time>
      </trkpt>
      <trkpt lat="47.48592" lon="-0.61007">
        <ele>41</ele>
        <time>2015-07-07T08:17:14.000Z</time>
      </trkpt>
      <trkpt lat="47.4859" lon="-0.61003">
        <ele>41</ele>
        <time>2015-07-07T08:17:15.000Z</time>
      </trkpt>
      <trkpt lat="47.48589" lon="-0.60999">
        <ele>41</ele>
        <time>2015-07-07T08:17:16.000Z</time>
      </trkpt>
      <trkpt lat="47.48588" lon="-0.60995">
        <ele>41</ele>
        <time>2015-07-07T08:17:17.000Z</time>
      </trkpt>
      <trkpt lat="47.48586" lon="-0.60991">
        <ele>41</ele>
        <time>2015-07-07T08:17:18.000Z</time>
      </trkpt>
      <trkpt lat="47.48585" lon="-0.60987">
        <ele>40</ele>
        <time>2015-07-07T08:17:19.000Z</time>
      </trkpt>
      <trkpt lat="47.48584" lon="-0.60983">
        <ele>42</ele>
        <time>2015-07-07T08:17:20.000Z</time>
      </trkpt>
      <trkpt lat="47.48583" lon="-0.60978">
        <ele>41</ele>
        <time>2015-07-07T08:17:21.000Z</time>
      </trkpt>
      <trkpt lat="47.48581" lon="-0.60974">
        <ele>42</ele>
        <time>2015-07-07T08:17:22.000Z</time>
      </trkpt>
      <trkpt lat="47.4858" lon="-0.6097">
        <ele>42</ele>
        <time>2015-07-07T08:17:23.000Z</time>
      </trkpt>
      <trkpt lat="47.48579" lon="-0.60966">
        <ele>42</ele>
        <time>2015-07-07T08:17:24.000Z</time>
      </trkpt>
      <trkpt lat="47.48577" lon="-0.60962">
        <ele>42</ele>
        <time>2015-07-07T08:17:25.000Z</time>
      </trkpt>
      <trkpt lat="47.48576" lon="-0.60958">
        <ele>41</ele>
        <time>2015-07-07T08:17:26.000Z</time>
      </trkpt>
      <trkpt lat="47.48575" lon="-0.60954">
        <ele>41</ele>
        <time>2015-07-07T08:17:27.000Z</time>
      </trkpt>
      <trkpt lat="47.48573" lon="-0.6095">
        <ele>41</ele>
        <time>2015-07-07T08:17:28.000Z</time>
      </trkpt>
      <trkpt lat="47.48572" lon="-0.60947">
        <ele>41</ele>
        <time>2015-07-07T08:17:29.000Z</time>
      </trkpt>
      <trkpt lat="47.4857" lon="-0.60943">
        <ele>41</ele>
        <time>2015-07-07T08:17:30.000Z</time>
      </trkpt>
      <trkpt lat="47.48569" lon="-0.60939">
        <ele>41</ele>
        <time>2015-07-07T08:17:31.000Z</time>
      </trkpt>
      <trkpt lat="47.48568" lon="-0.60936">
        <ele>41</ele>
        <time>2015-07-07T08:17:32.000Z</time>
      </trkpt>
      <trkpt lat="47.48567" lon="-0.60932">
        <ele>41</ele>
        <time>2015-07-07T08:17:33.000Z</time>
      </trkpt>
      <trkpt lat="47.48565" lon="-0.60928">
        <ele>41</ele>
        <time>2015-07-07T08:17:34.000Z</time>
      </trkpt>
      <trkpt lat="47.48564" lon="-0.60925">
        <ele>41</ele>
        <time>2015-07-07T08:17:35.000Z</time>
      </trkpt>
      <trkpt lat="47.48563" lon="-0.60921">
        <ele>41</ele>
        <time>2015-07-07T08:17:36.000Z</time>
      </trkpt>
      <trkpt lat="47.48561" lon="-0.60917">
        <ele>41</ele>
        <time>2015-07-07T08:17:37.000Z</time>
      </trkpt>
      <trkpt lat="47.4856" lon="-0.60913">
        <ele>41</ele>
        <time>2015-07-07T08:17:38.000Z</time>
      </trkpt>
      <trkpt lat="47.48558" lon="-0.60909">
        <ele>40</ele>
        <time>2015-07-07T08:17:39.000Z</time>
      </trkpt>
      <trkpt lat="47.48557" lon="-0.60905">
        <ele>40</ele>
        <time>2015-07-07T08:17:40.000Z</time>
      </trkpt>
      <trkpt lat="47.48555" lon="-0.60901">
        <ele>40</ele>
        <time>2015-07-07T08:17:41.000Z</time>
      </trkpt>
      <trkpt lat="47.48554" lon="-0.60898">
        <ele>40</ele>
        <time>2015-07-07T08:17:42.000Z</time>
      </trkpt>
      <trkpt lat="47.48552" lon="-0.60894">
        <ele>40</ele>
        <time>2015-07-07T08:17:43.000Z</time>
      </trkpt>
      <trkpt lat="47.48551" lon="-0.6089">
        <ele>39</ele>
        <time>2015-07-07T08:17:44.000Z</time>
      </trkpt>
      <trkpt lat="47.48549" lon="-0.60887">
        <ele>39</ele>
        <time>2015-07-07T08:17:45.000Z</time>
      </trkpt>
      <trkpt lat="47.48548" lon="-0.60883">
        <ele>39</ele>
        <time>2015-07-07T08:17:46.000Z</time>
      </trkpt>
      <trkpt lat="47.48546" lon="-0.60879">
        <ele>39</ele>
        <time>2015-07-07T08:17:47.000Z</time>
      </trkpt>
      <trkpt lat="47.48545" lon="-0.60875">
        <ele>39</ele>
        <time>2015-07-07T08:17:48.000Z</time>
      </trkpt>
      <trkpt lat="47.48544" lon="-0.6087">
        <ele>39</ele>
        <time>2015-07-07T08:17:49.000Z</time>
      </trkpt>
      <trkpt lat="47.48543" lon="-0.60865">
        <ele>39</ele>
        <time>2015-07-07T08:17:50.000Z</time>
      </trkpt>
      <trkpt lat="47.48542" lon="-0.60861">
        <ele>37</ele>
        <time>2015-07-07T08:17:51.000Z</time>
      </trkpt>
      <trkpt lat="47.48541" lon="-0.60857">
        <ele>36</ele>
        <time>2015-07-07T08:17:52.000Z</time>
      </trkpt>
      <trkpt lat="47.4854" lon="-0.60853">
        <ele>36</ele>
        <time>2015-07-07T08:17:53.000Z</time>
      </trkpt>
      <trkpt lat="47.48539" lon="-0.60849">
        <ele>36</ele>
        <time>2015-07-07T08:17:54.000Z</time>
      </trkpt>
      <trkpt lat="47.48538" lon="-0.60846">
        <ele>36</ele>
        <time>2015-07-07T08:17:55.000Z</time>
      </trkpt>
      <trkpt lat="47.48538" lon="-0.60843">
        <ele>36</ele>
        <time>2015-07-07T08:17:56.000Z</time>
      </trkpt>
      <trkpt lat="47.48538" lon="-0.60842">
        <ele>35</ele>
        <time>2015-07-07T08:17:57.000Z</time>
      </trkpt>
      <trkpt lat="47.48538" lon="-0.60841">
        <ele>35</ele>
        <time>2015-07-07T08:17:58.000Z</time>
      </trkpt>
      <trkpt lat="47.48539" lon="-0.60841">
        <ele>34</ele>
        <time>2015-07-07T08:17:59.000Z</time>
      </trkpt>
      <trkpt lat="47.4854" lon="-0.60842">
        <ele>33</ele>
        <time>2015-07-07T08:18:00.000Z</time>
      </trkpt>
      <trkpt lat="47.48541" lon="-0.60842">
        <ele>33</ele>
        <time>2015-07-07T08:18:01.000Z</time>
      </trkpt>
      <trkpt lat="47.48541" lon="-0.60843">
        <ele>32</ele>
        <time>2015-07-07T08:18:02.000Z</time>
      </trkpt>
      <trkpt lat="47.48542" lon="-0.60844">
        <ele>31</ele>
        <time>2015-07-07T08:18:03.000Z</time>
      </trkpt>
      <trkpt lat="47.48542" lon="-0.60845">
        <ele>30</ele>
        <time>2015-07-07T08:18:04.000Z</time>
      </trkpt>
      <trkpt lat="47.48543" lon="-0.60845">
        <ele>30</ele>
        <time>2015-07-07T08:18:05.000Z</time>
      </trkpt>
      <trkpt lat="47.48543" lon="-0.60846">
        <ele>28</ele>
        <time>2015-07-07T08:18:06.000Z</time>
      </trkpt>
      <trkpt lat="47.48543" lon="-0.60847">
        <ele>29</ele>
        <time>2015-07-07T08:18:07.000Z</time>
      </trkpt>
      <trkpt lat="47.48544" lon="-0.60848">
        <ele>28</ele>
        <time>2015-07-07T08:18:08.000Z</time>
      </trkpt>
      <trkpt lat="47.48545" lon="-0.60848">
        <ele>27</ele>
        <time>2015-07-07T08:18:09.000Z</time>
      </trkpt>
      <trkpt lat="47.48546" lon="-0.60848">
        <ele>26</ele>
        <time>2015-07-07T08:18:10.000Z</time>
      </trkpt>
      <trkpt lat="47.48548" lon="-0.60848">
        <ele>25</ele>
        <time>2015-07-07T08:18:11.000Z</time>
      </trkpt>
      <trkpt lat="47.48549" lon="-0.60847">
        <ele>24</ele>
        <time>2015-07-07T08:18:12.000Z</time>
      </trkpt>
      <trkpt lat="47.48551" lon="-0.60846">
        <ele>23</ele>
        <time>2015-07-07T08:18:13.000Z</time>
      </trkpt>
      <trkpt lat="47.48552" lon="-0.60845">
        <ele>22</ele>
        <time>2015-07-07T08:18:14.000Z</time>
      </trkpt>
      <trkpt lat="47.48554" lon="-0.60843">
        <ele>21</ele>
        <time>2015-07-07T08:18:15.000Z</time>
      </trkpt>
      <trkpt lat="47.48555" lon="-0.60841">
        <ele>21</ele>
        <time>2015-07-07T08:18:16.000Z</time>
      </trkpt>
      <trkpt lat="47.48557" lon="-0.60839">
        <ele>20</ele>
        <time>2015-07-07T08:18:17.000Z</time>
      </trkpt>
      <trkpt lat="47.48558" lon="-0.60836">
        <ele>20</ele>
        <time>2015-07-07T08:18:18.000Z</time>
      </trkpt>
      <trkpt lat="47.4856" lon="-0.60834">
        <ele>20</ele>
        <time>2015-07-07T08:18:19.000Z</time>
      </trkpt>
      <trkpt lat="47.48562" lon="-0.60831">
        <ele>19</ele>
        <time>2015-07-07T08:18:20.000Z</time>
      </trkpt>
      <trkpt lat="47.48564" lon="-0.60827">
        <ele>19</ele>
        <time>2015-07-07T08:18:21.000Z</time>
      </trkpt>
      <trkpt lat="47.48566" lon="-0.60824">
        <ele>19</ele>
        <time>2015-07-07T08:18:22.000Z</time>
      </trkpt>
      <trkpt lat="47.48567" lon="-0.60821">
        <ele>20</ele>
        <time>2015-07-07T08:18:23.000Z</time>
      </trkpt>
      <trkpt lat="47.48569" lon="-0.60818">
        <ele>20</ele>
        <time>2015-07-07T08:18:24.000Z</time>
      </trkpt>
      <trkpt lat="47.48571" lon="-0.60814">
        <ele>21</ele>
        <time>2015-07-07T08:18:25.000Z</time>
      </trkpt>
      <trkpt lat="47.48573" lon="-0.60812">
        <ele>21</ele>
        <time>2015-07-07T08:18:26.000Z</time>
      </trkpt>
      <trkpt lat="47.48575" lon="-0.6081">
        <ele>21</ele>
        <time>2015-07-07T08:18:27.000Z</time>
      </trkpt>
      <trkpt lat="47.48577" lon="-0.60807">
        <ele>21</ele>
        <time>2015-07-07T08:18:28.000Z</time>
      </trkpt>
      <trkpt lat="47.48579" lon="-0.60805">
        <ele>20</ele>
        <time>2015-07-07T08:18:29.000Z</time>
      </trkpt>
      <trkpt lat="47.48582" lon="-0.60802">
        <ele>20</ele>
        <time>2015-07-07T08:18:30.000Z</time>
      </trkpt>
      <trkpt lat="47.48585" lon="-0.60799">
        <ele>21</ele>
        <time>2015-07-07T08:18:31.000Z</time>
      </trkpt>
      <trkpt lat="47.48587" lon="-0.60797">
        <ele>21</ele>
        <time>2015-07-07T08:18:32.000Z</time>
      </trkpt>
      <trkpt lat="47.48589" lon="-0.60794">
        <ele>22</ele>
        <time>2015-07-07T08:18:33.000Z</time>
      </trkpt>
      <trkpt lat="47.48591" lon="-0.60791">
        <ele>22</ele>
        <time>2015-07-07T08:18:34.000Z</time>
      </trkpt>
      <trkpt lat="47.48593" lon="-0.60788">
        <ele>23</ele>
        <time>2015-07-07T08:18:35.000Z</time>
      </trkpt>
      <trkpt lat="47.48595" lon="-0.60785">
        <ele>22</ele>
        <time>2015-07-07T08:18:36.000Z</time>
      </trkpt>
      <trkpt lat="47.48597" lon="-0.60783">
        <ele>22</ele>
        <time>2015-07-07T08:18:37.000Z</time>
      </trkpt>
      <trkpt lat="47.486" lon="-0.6078">
        <ele>22</ele>
        <time>2015-07-07T08:18:38.000Z</time>
      </trkpt>
      <trkpt lat="47.48602" lon="-0.60777">
        <ele>21</ele>
        <time>2015-07-07T08:18:39.000Z</time>
      </trkpt>
      <trkpt lat="47.48604" lon="-0.60774">
        <ele>21</ele>
        <time>2015-07-07T08:18:40.000Z</time>
      </trkpt>
      <trkpt lat="47.48606" lon="-0.60771">
        <ele>21</ele>
        <time>2015-07-07T08:18:41.000Z</time>
      </trkpt>
      <trkpt lat="47.48608" lon="-0.60768">
        <ele>21</ele>
        <time>2015-07-07T08:18:42.000Z</time>
      </trkpt>
      <trkpt lat="47.4861" lon="-0.60765">
        <ele>20</ele>
        <time>2015-07-07T08:18:43.000Z</time>
      </trkpt>
      <trkpt lat="47.48612" lon="-0.60762">
        <ele>20</ele>
        <time>2015-07-07T08:18:44.000Z</time>
      </trkpt>
      <trkpt lat="47.48614" lon="-0.60759">
        <ele>20</ele>
        <time>2015-07-07T08:18:45.000Z</time>
      </trkpt>
      <trkpt lat="47.48615" lon="-0.60757">
        <ele>21</ele>
        <time>2015-07-07T08:18:46.000Z</time>
      </trkpt>
      <trkpt lat="47.48617" lon="-0.60755">
        <ele>20</ele>
        <time>2015-07-07T08:18:47.000Z</time>
      </trkpt>
      <trkpt lat="47.4862" lon="-0.60752">
        <ele>21</ele>
        <time>2015-07-07T08:18:48.000Z</time>
      </trkpt>
      <trkpt lat="47.48622" lon="-0.60751">
        <ele>21</ele>
        <time>2015-07-07T08:18:49.000Z</time>
      </trkpt>
      <trkpt lat="47.48624" lon="-0.6075">
        <ele>22</ele>
        <time>2015-07-07T08:18:50.000Z</time>
      </trkpt>
      <trkpt lat="47.48625" lon="-0.60748">
        <ele>22</ele>
        <time>2015-07-07T08:18:51.000Z</time>
      </trkpt>
      <trkpt lat="47.48626" lon="-0.60747">
        <ele>21</ele>
        <time>2015-07-07T08:18:52.000Z</time>
      </trkpt>
      <trkpt lat="47.48628" lon="-0.60744">
        <ele>22</ele>
        <time>2015-07-07T08:18:53.000Z</time>
      </trkpt>
      <trkpt lat="47.48629" lon="-0.60742">
        <ele>21</ele>
        <time>2015-07-07T08:18:54.000Z</time>
      </trkpt>
      <trkpt lat="47.4863" lon="-0.60739">
        <ele>20</ele>
        <time>2015-07-07T08:18:55.000Z</time>
      </trkpt>
      <trkpt lat="47.48631" lon="-0.60736">
        <ele>20</ele>
        <time>2015-07-07T08:18:56.000Z</time>
      </trkpt>
      <trkpt lat="47.48632" lon="-0.60733">
        <ele>21</ele>
        <time>2015-07-07T08:18:57.000Z</time>
      </trkpt>
      <trkpt lat="47.48632" lon="-0.6073">
        <ele>21</ele>
        <time>2015-07-07T08:18:58.000Z</time>
      </trkpt>
      <trkpt lat="47.48632" lon="-0.60728">
        <ele>21</ele>
        <time>2015-07-07T08:18:59.000Z</time>
      </trkpt>
      <trkpt lat="47.48632" lon="-0.60727">
        <ele>22</ele>
        <time>2015-07-07T08:19:00.000Z</time>
      </trkpt>
      <trkpt lat="47.4863" lon="-0.60726">
        <ele>23</ele>
        <time>2015-07-07T08:19:01.000Z</time>
      </trkpt>
      <trkpt lat="47.4863" lon="-0.60725">
        <ele>24</ele>
        <time>2015-07-07T08:19:02.000Z</time>
      </trkpt>
      <trkpt lat="47.4863" lon="-0.60723">
        <ele>24</ele>
        <time>2015-07-07T08:19:03.000Z</time>
      </trkpt>
      <trkpt lat="47.4863" lon="-0.60722">
        <ele>24</ele>
        <time>2015-07-07T08:19:04.000Z</time>
      </trkpt>
      <trkpt lat="47.4863" lon="-0.60721">
        <ele>25</ele>
        <time>2015-07-07T08:19:05.000Z</time>
      </trkpt>
      <trkpt lat="47.4863" lon="-0.60719">
        <ele>25</ele>
        <time>2015-07-07T08:19:06.000Z</time>
      </trkpt>
      <trkpt lat="47.4863" lon="-0.60718">
        <ele>26</ele>
        <time>2015-07-07T08:19:07.000Z</time>
      </trkpt>
      <trkpt lat="47.4863" lon="-0.60716">
        <ele>26</ele>
        <time>2015-07-07T08:19:08.000Z</time>
      </trkpt>
      <trkpt lat="47.4863" lon="-0.60714">
        <ele>25</ele>
        <time>2015-07-07T08:19:09.000Z</time>
      </trkpt>
      <trkpt lat="47.4863" lon="-0.60711">
        <ele>25</ele>
        <time>2015-07-07T08:19:10.000Z</time>
      </trkpt>
      <trkpt lat="47.4863" lon="-0.60708">
        <ele>25</ele>
        <time>2015-07-07T08:19:11.000Z</time>
      </trkpt>
      <trkpt lat="47.48629" lon="-0.60705">
        <ele>26</ele>
        <time>2015-07-07T08:19:12.000Z</time>
      </trkpt>
      <trkpt lat="47.48629" lon="-0.60702">
        <ele>26</ele>
        <time>2015-07-07T08:19:13.000Z</time>
      </trkpt>
      <trkpt lat="47.48628" lon="-0.60699">
        <ele>26</ele>
        <time>2015-07-07T08:19:14.000Z</time>
      </trkpt>
      <trkpt lat="47.48628" lon="-0.60696">
        <ele>27</ele>
        <time>2015-07-07T08:19:15.000Z</time>
      </trkpt>
      <trkpt lat="47.48627" lon="-0.60693">
        <ele>28</ele>
        <time>2015-07-07T08:19:16.000Z</time>
      </trkpt>
      <trkpt lat="47.48627" lon="-0.6069">
        <ele>28</ele>
        <time>2015-07-07T08:19:17.000Z</time>
      </trkpt>
      <trkpt lat="47.48627" lon="-0.60688">
        <ele>28</ele>
        <time>2015-07-07T08:19:18.000Z</time>
      </trkpt>
      <trkpt lat="47.48627" lon="-0.60684">
        <ele>28</ele>
        <time>2015-07-07T08:19:19.000Z</time>
      </trkpt>
      <trkpt lat="47.48627" lon="-0.60681">
        <ele>27</ele>
        <time>2015-07-07T08:19:20.000Z</time>
      </trkpt>
      <trkpt lat="47.48627" lon="-0.60677">
        <ele>27</ele>
        <time>2015-07-07T08:19:21.000Z</time>
      </trkpt>
      <trkpt lat="47.48627" lon="-0.60673">
        <ele>26</ele>
        <time>2015-07-07T08:19:22.000Z</time>
      </trkpt>
      <trkpt lat="47.48626" lon="-0.60669">
        <ele>25</ele>
        <time>2015-07-07T08:19:23.000Z</time>
      </trkpt>
      <trkpt lat="47.48626" lon="-0.60666">
        <ele>25</ele>
        <time>2015-07-07T08:19:24.000Z</time>
      </trkpt>
      <trkpt lat="47.48625" lon="-0.60661">
        <ele>26</ele>
        <time>2015-07-07T08:19:25.000Z</time>
      </trkpt>
      <trkpt lat="47.48624" lon="-0.60657">
        <ele>25</ele>
        <time>2015-07-07T08:19:26.000Z</time>
      </trkpt>
      <trkpt lat="47.48624" lon="-0.60654">
        <ele>25</ele>
        <time>2015-07-07T08:19:27.000Z</time>
      </trkpt>
      <trkpt lat="47.48623" lon="-0.60652">
        <ele>24</ele>
        <time>2015-07-07T08:19:28.000Z</time>
      </trkpt>
      <trkpt lat="47.48622" lon="-0.6065">
        <ele>24</ele>
        <time>2015-07-07T08:19:29.000Z</time>
      </trkpt>
      <trkpt lat="47.48621" lon="-0.60649">
        <ele>24</ele>
        <time>2015-07-07T08:19:30.000Z</time>
      </trkpt>
      <trkpt lat="47.48618" lon="-0.60647">
        <ele>25</ele>
        <time>2015-07-07T08:19:31.000Z</time>
      </trkpt>
      <trkpt lat="47.48616" lon="-0.60646">
        <ele>26</ele>
        <time>2015-07-07T08:19:32.000Z</time>
      </trkpt>
      <trkpt lat="47.48613" lon="-0.60645">
        <ele>26</ele>
        <time>2015-07-07T08:19:33.000Z</time>
      </trkpt>
      <trkpt lat="47.48611" lon="-0.60643">
        <ele>26</ele>
        <time>2015-07-07T08:19:34.000Z</time>
      </trkpt>
      <trkpt lat="47.48609" lon="-0.60641">
        <ele>26</ele>
        <time>2015-07-07T08:19:35.000Z</time>
      </trkpt>
      <trkpt lat="47.48608" lon="-0.60639">
        <ele>25</ele>
        <time>2015-07-07T08:19:36.000Z</time>
      </trkpt>
      <trkpt lat="47.48606" lon="-0.60638">
        <ele>25</ele>
        <time>2015-07-07T08:19:37.000Z</time>
      </trkpt>
      <trkpt lat="47.48604" lon="-0.60637">
        <ele>25</ele>
        <time>2015-07-07T08:19:38.000Z</time>
      </trkpt>
      <trkpt lat="47.48602" lon="-0.60636">
        <ele>26</ele>
        <time>2015-07-07T08:19:39.000Z</time>
      </trkpt>
      <trkpt lat="47.486" lon="-0.60636">
        <ele>27</ele>
        <time>2015-07-07T08:19:40.000Z</time>
      </trkpt>
      <trkpt lat="47.48598" lon="-0.60637">
        <ele>29</ele>
        <time>2015-07-07T08:19:41.000Z</time>
      </trkpt>
      <trkpt lat="47.48596" lon="-0.60638">
        <ele>31</ele>
        <time>2015-07-07T08:19:42.000Z</time>
      </trkpt>
      <trkpt lat="47.48594" lon="-0.60638">
        <ele>33</ele>
        <time>2015-07-07T08:19:43.000Z</time>
      </trkpt>
      <trkpt lat="47.48592" lon="-0.60639">
        <ele>35</ele>
        <time>2015-07-07T08:19:44.000Z</time>
      </trkpt>
      <trkpt lat="47.4859" lon="-0.6064">
        <ele>36</ele>
        <time>2015-07-07T08:19:45.000Z</time>
      </trkpt>
      <trkpt lat="47.48588" lon="-0.60641">
        <ele>38</ele>
        <time>2015-07-07T08:19:46.000Z</time>
      </trkpt>
      <trkpt lat="47.48587" lon="-0.60641">
        <ele>38</ele>
        <time>2015-07-07T08:19:47.000Z</time>
      </trkpt>
      <trkpt lat="47.48585" lon="-0.60639">
        <ele>37</ele>
        <time>2015-07-07T08:19:48.000Z</time>
      </trkpt>
      <trkpt lat="47.48583" lon="-0.60637">
        <ele>37</ele>
        <time>2015-07-07T08:19:49.000Z</time>
      </trkpt>
      <trkpt lat="47.48581" lon="-0.60634">
        <ele>36</ele>
        <time>2015-07-07T08:19:50.000Z</time>
      </trkpt>
      <trkpt lat="47.48579" lon="-0.60632">
        <ele>37</ele>
        <time>2015-07-07T08:19:51.000Z</time>
      </trkpt>
      <trkpt lat="47.48576" lon="-0.60629">
        <ele>38</ele>
        <time>2015-07-07T08:19:52.000Z</time>
      </trkpt>
      <trkpt lat="47.48574" lon="-0.60626">
        <ele>38</ele>
        <time>2015-07-07T08:19:53.000Z</time>
      </trkpt>
      <trkpt lat="47.48572" lon="-0.60623">
        <ele>38</ele>
        <time>2015-07-07T08:19:54.000Z</time>
      </trkpt>
      <trkpt lat="47.48571" lon="-0.60619">
        <ele>38</ele>
        <time>2015-07-07T08:19:55.000Z</time>
      </trkpt>
      <trkpt lat="47.4857" lon="-0.60614">
        <ele>38</ele>
        <time>2015-07-07T08:19:56.000Z</time>
      </trkpt>
      <trkpt lat="47.48568" lon="-0.6061">
        <ele>37</ele>
        <time>2015-07-07T08:19:57.000Z</time>
      </trkpt>
      <trkpt lat="47.48567" lon="-0.60607">
        <ele>38</ele>
        <time>2015-07-07T08:19:58.000Z</time>
      </trkpt>
      <trkpt lat="47.48567" lon="-0.60604">
        <ele>38</ele>
        <time>2015-07-07T08:19:59.000Z</time>
      </trkpt>
      <trkpt lat="47.48566" lon="-0.606">
        <ele>37</ele>
        <time>2015-07-07T08:20:00.000Z</time>
      </trkpt>
      <trkpt lat="47.48565" lon="-0.60596">
        <ele>37</ele>
        <time>2015-07-07T08:20:01.000Z</time>
      </trkpt>
      <trkpt lat="47.48564" lon="-0.60592">
        <ele>37</ele>
        <time>2015-07-07T08:20:02.000Z</time>
      </trkpt>
      <trkpt lat="47.48564" lon="-0.60587">
        <ele>37</ele>
        <time>2015-07-07T08:20:03.000Z</time>
      </trkpt>
      <trkpt lat="47.48564" lon="-0.60584">
        <ele>37</ele>
        <time>2015-07-07T08:20:04.000Z</time>
      </trkpt>
      <trkpt lat="47.48563" lon="-0.60581">
        <ele>37</ele>
        <time>2015-07-07T08:20:05.000Z</time>
      </trkpt>
      <trkpt lat="47.48563" lon="-0.60578">
        <ele>37</ele>
        <time>2015-07-07T08:20:06.000Z</time>
      </trkpt>
      <trkpt lat="47.48564" lon="-0.60575">
        <ele>36</ele>
        <time>2015-07-07T08:20:07.000Z</time>
      </trkpt>
      <trkpt lat="47.48564" lon="-0.60572">
        <ele>37</ele>
        <time>2015-07-07T08:20:08.000Z</time>
      </trkpt>
      <trkpt lat="47.48563" lon="-0.60569">
        <ele>38</ele>
        <time>2015-07-07T08:20:09.000Z</time>
      </trkpt>
      <trkpt lat="47.48562" lon="-0.60567">
        <ele>38</ele>
        <time>2015-07-07T08:20:10.000Z</time>
      </trkpt>
      <trkpt lat="47.48561" lon="-0.60565">
        <ele>39</ele>
        <time>2015-07-07T08:20:11.000Z</time>
      </trkpt>
      <trkpt lat="47.4856" lon="-0.60563">
        <ele>39</ele>
        <time>2015-07-07T08:20:12.000Z</time>
      </trkpt>
      <trkpt lat="47.4856" lon="-0.6056">
        <ele>39</ele>
        <time>2015-07-07T08:20:13.000Z</time>
      </trkpt>
      <trkpt lat="47.48559" lon="-0.60557">
        <ele>40</ele>
        <time>2015-07-07T08:20:14.000Z</time>
      </trkpt>
      <trkpt lat="47.48558" lon="-0.60553">
        <ele>41</ele>
        <time>2015-07-07T08:20:15.000Z</time>
      </trkpt>
      <trkpt lat="47.48558" lon="-0.60549">
        <ele>41</ele>
        <time>2015-07-07T08:20:16.000Z</time>
      </trkpt>
      <trkpt lat="47.48557" lon="-0.60545">
        <ele>42</ele>
        <time>2015-07-07T08:20:17.000Z</time>
      </trkpt>
      <trkpt lat="47.48558" lon="-0.60541">
        <ele>40</ele>
        <time>2015-07-07T08:20:18.000Z</time>
      </trkpt>
      <trkpt lat="47.48558" lon="-0.60537">
        <ele>41</ele>
        <time>2015-07-07T08:20:19.000Z</time>
      </trkpt>
      <trkpt lat="47.48559" lon="-0.60534">
        <ele>40</ele>
        <time>2015-07-07T08:20:20.000Z</time>
      </trkpt>
      <trkpt lat="47.48559" lon="-0.6053">
        <ele>40</ele>
        <time>2015-07-07T08:20:21.000Z</time>
      </trkpt>
      <trkpt lat="47.48559" lon="-0.60526">
        <ele>40</ele>
        <time>2015-07-07T08:20:22.000Z</time>
      </trkpt>
      <trkpt lat="47.48558" lon="-0.60522">
        <ele>40</ele>
        <time>2015-07-07T08:20:23.000Z</time>
      </trkpt>
      <trkpt lat="47.48557" lon="-0.60519">
        <ele>40</ele>
        <time>2015-07-07T08:20:24.000Z</time>
      </trkpt>
      <trkpt lat="47.48555" lon="-0.60516">
        <ele>39</ele>
        <time>2015-07-07T08:20:25.000Z</time>
      </trkpt>
      <trkpt lat="47.48554" lon="-0.60512">
        <ele>40</ele>
        <time>2015-07-07T08:20:26.000Z</time>
      </trkpt>
      <trkpt lat="47.48553" lon="-0.60508">
        <ele>39</ele>
        <time>2015-07-07T08:20:27.000Z</time>
      </trkpt>
      <trkpt lat="47.48552" lon="-0.60504">
        <ele>40</ele>
        <time>2015-07-07T08:20:28.000Z</time>
      </trkpt>
      <trkpt lat="47.4855" lon="-0.605">
        <ele>41</ele>
        <time>2015-07-07T08:20:29.000Z</time>
      </trkpt>
      <trkpt lat="47.48547" lon="-0.60498">
        <ele>41</ele>
        <time>2015-07-07T08:20:30.000Z</time>
      </trkpt>
      <trkpt lat="47.48545" lon="-0.60497">
        <ele>43</ele>
        <time>2015-07-07T08:20:31.000Z</time>
      </trkpt>
      <trkpt lat="47.48543" lon="-0.60496">
        <ele>43</ele>
        <time>2015-07-07T08:20:32.000Z</time>
      </trkpt>
      <trkpt lat="47.48541" lon="-0.60495">
        <ele>43</ele>
        <time>2015-07-07T08:20:33.000Z</time>
      </trkpt>
      <trkpt lat="47.48539" lon="-0.60494">
        <ele>43</ele>
        <time>2015-07-07T08:20:34.000Z</time>
      </trkpt>
      <trkpt lat="47.48537" lon="-0.60491">
        <ele>43</ele>
        <time>2015-07-07T08:20:35.000Z</time>
      </trkpt>
      <trkpt lat="47.48535" lon="-0.60489">
        <ele>43</ele>
        <time>2015-07-07T08:20:36.000Z</time>
      </trkpt>
      <trkpt lat="47.48533" lon="-0.60487">
        <ele>43</ele>
        <time>2015-07-07T08:20:37.000Z</time>
      </trkpt>
      <trkpt lat="47.48532" lon="-0.60485">
        <ele>43</ele>
        <time>2015-07-07T08:20:38.000Z</time>
      </trkpt>
      <trkpt lat="47.4853" lon="-0.60483">
        <ele>43</ele>
        <time>2015-07-07T08:20:39.000Z</time>
      </trkpt>
      <trkpt lat="47.48528" lon="-0.60481">
        <ele>43</ele>
        <time>2015-07-07T08:20:40.000Z</time>
      </trkpt>
      <trkpt lat="47.48526" lon="-0.60479">
        <ele>43</ele>
        <time>2015-07-07T08:20:41.000Z</time>
      </trkpt>
      <trkpt lat="47.48524" lon="-0.60477">
        <ele>43</ele>
        <time>2015-07-07T08:20:42.000Z</time>
      </trkpt>
      <trkpt lat="47.48522" lon="-0.60474">
        <ele>43</ele>
        <time>2015-07-07T08:20:43.000Z</time>
      </trkpt>
      <trkpt lat="47.4852" lon="-0.60472">
        <ele>43</ele>
        <time>2015-07-07T08:20:44.000Z</time>
      </trkpt>
      <trkpt lat="47.48519" lon="-0.60468">
        <ele>43</ele>
        <time>2015-07-07T08:20:45.000Z</time>
      </trkpt>
      <trkpt lat="47.48518" lon="-0.60465">
        <ele>42</ele>
        <time>2015-07-07T08:20:46.000Z</time>
      </trkpt>
      <trkpt lat="47.48517" lon="-0.6046">
        <ele>43</ele>
        <time>2015-07-07T08:20:47.000Z</time>
      </trkpt>
      <trkpt lat="47.48517" lon="-0.60456">
        <ele>44</ele>
        <time>2015-07-07T08:20:48.000Z</time>
      </trkpt>
      <trkpt lat="47.48516" lon="-0.60452">
        <ele>44</ele>
        <time>2015-07-07T08:20:49.000Z</time>
      </trkpt>
      <trkpt lat="47.48516" lon="-0.60448">
        <ele>44</ele>
        <time>2015-07-07T08:20:50.000Z</time>
      </trkpt>
      <trkpt lat="47.48515" lon="-0.60445">
        <ele>44</ele>
        <time>2015-07-07T08:20:51.000Z</time>
      </trkpt>
      <trkpt lat="47.48514" lon="-0.60441">
        <ele>43</ele>
        <time>2015-07-07T08:20:52.000Z</time>
      </trkpt>
      <trkpt lat="47.48512" lon="-0.60438">
        <ele>43</ele>
        <time>2015-07-07T08:20:53.000Z</time>
      </trkpt>
      <trkpt lat="47.4851" lon="-0.60436">
        <ele>42</ele>
        <time>2015-07-07T08:20:54.000Z</time>
      </trkpt>
      <trkpt lat="47.48508" lon="-0.60433">
        <ele>42</ele>
        <time>2015-07-07T08:20:55.000Z</time>
      </trkpt>
      <trkpt lat="47.48506" lon="-0.60431">
        <ele>42</ele>
        <time>2015-07-07T08:20:56.000Z</time>
      </trkpt>
      <trkpt lat="47.48504" lon="-0.60428">
        <ele>42</ele>
        <time>2015-07-07T08:20:57.000Z</time>
      </trkpt>
      <trkpt lat="47.48502" lon="-0.60426">
        <ele>42</ele>
        <time>2015-07-07T08:20:58.000Z</time>
      </trkpt>
      <trkpt lat="47.485" lon="-0.60424">
        <ele>42</ele>
        <time>2015-07-07T08:20:59.000Z</time>
      </trkpt>
      <trkpt lat="47.48497" lon="-0.60422">
        <ele>42</ele>
        <time>2015-07-07T08:21:00.000Z</time>
      </trkpt>
      <trkpt lat="47.48495" lon="-0.6042">
        <ele>42</ele>
        <time>2015-07-07T08:21:01.000Z</time>
      </trkpt>
      <trkpt lat="47.48493" lon="-0.60419">
        <ele>44</ele>
        <time>2015-07-07T08:21:02.000Z</time>
      </trkpt>
      <trkpt lat="47.48491" lon="-0.60418">
        <ele>44</ele>
        <time>2015-07-07T08:21:03.000Z</time>
      </trkpt>
      <trkpt lat="47.48488" lon="-0.60418">
        <ele>44</ele>
        <time>2015-07-07T08:21:04.000Z</time>
      </trkpt>
      <trkpt lat="47.48486" lon="-0.60417">
        <ele>45</ele>
        <time>2015-07-07T08:21:05.000Z</time>
      </trkpt>
      <trkpt lat="47.48484" lon="-0.60417">
        <ele>46</ele>
        <time>2015-07-07T08:21:06.000Z</time>
      </trkpt>
      <trkpt lat="47.48481" lon="-0.60417">
        <ele>47</ele>
        <time>2015-07-07T08:21:07.000Z</time>
      </trkpt>
      <trkpt lat="47.48478" lon="-0.60417">
        <ele>47</ele>
        <time>2015-07-07T08:21:08.000Z</time>
      </trkpt>
      <trkpt lat="47.48475" lon="-0.60417">
        <ele>47</ele>
        <time>2015-07-07T08:21:09.000Z</time>
      </trkpt>
      <trkpt lat="47.48473" lon="-0.60416">
        <ele>47</ele>
        <time>2015-07-07T08:21:10.000Z</time>
      </trkpt>
      <trkpt lat="47.4847" lon="-0.60414">
        <ele>49</ele>
        <time>2015-07-07T08:21:11.000Z</time>
      </trkpt>
      <trkpt lat="47.48468" lon="-0.60412">
        <ele>50</ele>
        <time>2015-07-07T08:21:12.000Z</time>
      </trkpt>
      <trkpt lat="47.48466" lon="-0.60409">
        <ele>51</ele>
        <time>2015-07-07T08:21:13.000Z</time>
      </trkpt>
      <trkpt lat="47.48464" lon="-0.60405">
        <ele>50</ele>
        <time>2015-07-07T08:21:14.000Z</time>
      </trkpt>
      <trkpt lat="47.48463" lon="-0.60402">
        <ele>50</ele>
        <time>2015-07-07T08:21:15.000Z</time>
      </trkpt>
      <trkpt lat="47.48462" lon="-0.60398">
        <ele>50</ele>
        <time>2015-07-07T08:21:16.000Z</time>
      </trkpt>
      <trkpt lat="47.48461" lon="-0.60395">
        <ele>49</ele>
        <time>2015-07-07T08:21:17.000Z</time>
      </trkpt>
      <trkpt lat="47.4846" lon="-0.60391">
        <ele>49</ele>
        <time>2015-07-07T08:21:18.000Z</time>
      </trkpt>
      <trkpt lat="47.4846" lon="-0.60388">
        <ele>49</ele>
        <time>2015-07-07T08:21:19.000Z</time>
      </trkpt>
      <trkpt lat="47.4846" lon="-0.60384">
        <ele>48</ele>
        <time>2015-07-07T08:21:20.000Z</time>
      </trkpt>
      <trkpt lat="47.4846" lon="-0.60381">
        <ele>48</ele>
        <time>2015-07-07T08:21:21.000Z</time>
      </trkpt>
      <trkpt lat="47.4846" lon="-0.60377">
        <ele>48</ele>
        <time>2015-07-07T08:21:22.000Z</time>
      </trkpt>
      <trkpt lat="47.4846" lon="-0.60373">
        <ele>48</ele>
        <time>2015-07-07T08:21:23.000Z</time>
      </trkpt>
      <trkpt lat="47.48459" lon="-0.60369">
        <ele>48</ele>
        <time>2015-07-07T08:21:24.000Z</time>
      </trkpt>
      <trkpt lat="47.48458" lon="-0.60366">
        <ele>50</ele>
        <time>2015-07-07T08:21:25.000Z</time>
      </trkpt>
      <trkpt lat="47.48456" lon="-0.60365">
        <ele>50</ele>
        <time>2015-07-07T08:21:26.000Z</time>
      </trkpt>
      <trkpt lat="47.48455" lon="-0.60365">
        <ele>50</ele>
        <time>2015-07-07T08:21:27.000Z</time>
      </trkpt>
      <trkpt lat="47.48453" lon="-0.60365">
        <ele>51</ele>
        <time>2015-07-07T08:21:28.000Z</time>
      </trkpt>
      <trkpt lat="47.48451" lon="-0.60364">
        <ele>51</ele>
        <time>2015-07-07T08:21:29.000Z</time>
      </trkpt>
      <trkpt lat="47.48449" lon="-0.60364">
        <ele>51</ele>
        <time>2015-07-07T08:21:30.000Z</time>
      </trkpt>
      <trkpt lat="47.48446" lon="-0.60363">
        <ele>51</ele>
        <time>2015-07-07T08:21:31.000Z</time>
      </trkpt>
      <trkpt lat="47.48443" lon="-0.60361">
        <ele>51</ele>
        <time>2015-07-07T08:21:32.000Z</time>
      </trkpt>
      <trkpt lat="47.48441" lon="-0.60359">
        <ele>51</ele>
        <time>2015-07-07T08:21:33.000Z</time>
      </trkpt>
      <trkpt lat="47.48439" lon="-0.60357">
        <ele>50</ele>
        <time>2015-07-07T08:21:34.000Z</time>
      </trkpt>
      <trkpt lat="47.48437" lon="-0.60355">
        <ele>50</ele>
        <time>2015-07-07T08:21:35.000Z</time>
      </trkpt>
      <trkpt lat="47.48435" lon="-0.60352">
        <ele>50</ele>
        <time>2015-07-07T08:21:36.000Z</time>
      </trkpt>
      <trkpt lat="47.48433" lon="-0.60349">
        <ele>49</ele>
        <time>2015-07-07T08:21:37.000Z</time>
      </trkpt>
      <trkpt lat="47.48431" lon="-0.60346">
        <ele>48</ele>
        <time>2015-07-07T08:21:38.000Z</time>
      </trkpt>
      <trkpt lat="47.4843" lon="-0.60343">
        <ele>47</ele>
        <time>2015-07-07T08:21:39.000Z</time>
      </trkpt>
      <trkpt lat="47.48429" lon="-0.60339">
        <ele>46</ele>
        <time>2015-07-07T08:21:40.000Z</time>
      </trkpt>
      <trkpt lat="47.48428" lon="-0.60336">
        <ele>44</ele>
        <time>2015-07-07T08:21:41.000Z</time>
      </trkpt>
      <trkpt lat="47.48427" lon="-0.60333">
        <ele>43</ele>
        <time>2015-07-07T08:21:42.000Z</time>
      </trkpt>
      <trkpt lat="47.48425" lon="-0.6033">
        <ele>43</ele>
        <time>2015-07-07T08:21:43.000Z</time>
      </trkpt>
      <trkpt lat="47.48423" lon="-0.60327">
        <ele>43</ele>
        <time>2015-07-07T08:21:44.000Z</time>
      </trkpt>
      <trkpt lat="47.48422" lon="-0.60323">
        <ele>43</ele>
        <time>2015-07-07T08:21:45.000Z</time>
      </trkpt>
      <trkpt lat="47.4842" lon="-0.6032">
        <ele>42</ele>
        <time>2015-07-07T08:21:46.000Z</time>
      </trkpt>
      <trkpt lat="47.4842" lon="-0.60316">
        <ele>42</ele>
        <time>2015-07-07T08:21:47.000Z</time>
      </trkpt>
      <trkpt lat="47.48419" lon="-0.60312">
        <ele>43</ele>
        <time>2015-07-07T08:21:48.000Z</time>
      </trkpt>
      <trkpt lat="47.48419" lon="-0.60308">
        <ele>42</ele>
        <time>2015-07-07T08:21:49.000Z</time>
      </trkpt>
      <trkpt lat="47.48419" lon="-0.60304">
        <ele>42</ele>
        <time>2015-07-07T08:21:50.000Z</time>
      </trkpt>
      <trkpt lat="47.48419" lon="-0.60301">
        <ele>42</ele>
        <time>2015-07-07T08:21:51.000Z</time>
      </trkpt>
      <trkpt lat="47.48419" lon="-0.60297">
        <ele>42</ele>
        <time>2015-07-07T08:21:52.000Z</time>
      </trkpt>
      <trkpt lat="47.48419" lon="-0.60293">
        <ele>43</ele>
        <time>2015-07-07T08:21:53.000Z</time>
      </trkpt>
      <trkpt lat="47.48419" lon="-0.6029">
        <ele>42</ele>
        <time>2015-07-07T08:21:54.000Z</time>
      </trkpt>
      <trkpt lat="47.48419" lon="-0.60288">
        <ele>42</ele>
        <time>2015-07-07T08:21:55.000Z</time>
      </trkpt>
      <trkpt lat="47.48417" lon="-0.60286">
        <ele>42</ele>
        <time>2015-07-07T08:21:56.000Z</time>
      </trkpt>
      <trkpt lat="47.48416" lon="-0.60284">
        <ele>42</ele>
        <time>2015-07-07T08:21:57.000Z</time>
      </trkpt>
      <trkpt lat="47.48415" lon="-0.60283">
        <ele>42</ele>
        <time>2015-07-07T08:21:58.000Z</time>
      </trkpt>
      <trkpt lat="47.48413" lon="-0.60282">
        <ele>42</ele>
        <time>2015-07-07T08:21:59.000Z</time>
      </trkpt>
      <trkpt lat="47.4841" lon="-0.60282">
        <ele>41</ele>
        <time>2015-07-07T08:22:00.000Z</time>
      </trkpt>
      <trkpt lat="47.48408" lon="-0.60283">
        <ele>41</ele>
        <time>2015-07-07T08:22:01.000Z</time>
      </trkpt>
      <trkpt lat="47.48405" lon="-0.60283">
        <ele>41</ele>
        <time>2015-07-07T08:22:02.000Z</time>
      </trkpt>
      <trkpt lat="47.48402" lon="-0.60283">
        <ele>41</ele>
        <time>2015-07-07T08:22:03.000Z</time>
      </trkpt>
      <trkpt lat="47.48399" lon="-0.60284">
        <ele>42</ele>
        <time>2015-07-07T08:22:04.000Z</time>
      </trkpt>
      <trkpt lat="47.48396" lon="-0.60284">
        <ele>43</ele>
        <time>2015-07-07T08:22:05.000Z</time>
      </trkpt>
      <trkpt lat="47.48393" lon="-0.60285">
        <ele>43</ele>
        <time>2015-07-07T08:22:06.000Z</time>
      </trkpt>
      <trkpt lat="47.4839" lon="-0.60285">
        <ele>44</ele>
        <time>2015-07-07T08:22:07.000Z</time>
      </trkpt>
      <trkpt lat="47.48387" lon="-0.60285">
        <ele>44</ele>
        <time>2015-07-07T08:22:08.000Z</time>
      </trkpt>
      <trkpt lat="47.48384" lon="-0.60285">
        <ele>45</ele>
        <time>2015-07-07T08:22:09.000Z</time>
      </trkpt>
      <trkpt lat="47.48381" lon="-0.60285">
        <ele>44</ele>
        <time>2015-07-07T08:22:10.000Z</time>
      </trkpt>
      <trkpt lat="47.48378" lon="-0.60285">
        <ele>45</ele>
        <time>2015-07-07T08:22:11.000Z</time>
      </trkpt>
      <trkpt lat="47.48375" lon="-0.60285">
        <ele>45</ele>
        <time>2015-07-07T08:22:12.000Z</time>
      </trkpt>
      <trkpt lat="47.48372" lon="-0.60285">
        <ele>46</ele>
        <time>2015-07-07T08:22:13.000Z</time>
      </trkpt>
      <trkpt lat="47.48369" lon="-0.60285">
        <ele>46</ele>
        <time>2015-07-07T08:22:14.000Z</time>
      </trkpt>
      <trkpt lat="47.48366" lon="-0.60285">
        <ele>46</ele>
        <time>2015-07-07T08:22:15.000Z</time>
      </trkpt>
      <trkpt lat="47.48364" lon="-0.60286">
        <ele>46</ele>
        <time>2015-07-07T08:22:16.000Z</time>
      </trkpt>
      <trkpt lat="47.48361" lon="-0.60286">
        <ele>46</ele>
        <time>2015-07-07T08:22:17.000Z</time>
      </trkpt>
      <trkpt lat="47.48358" lon="-0.60287">
        <ele>45</ele>
        <time>2015-07-07T08:22:18.000Z</time>
      </trkpt>
      <trkpt lat="47.48355" lon="-0.60287">
        <ele>45</ele>
        <time>2015-07-07T08:22:19.000Z</time>
      </trkpt>
      <trkpt lat="47.48353" lon="-0.60287">
        <ele>45</ele>
        <time>2015-07-07T08:22:20.000Z</time>
      </trkpt>
      <trkpt lat="47.4835" lon="-0.60287">
        <ele>45</ele>
        <time>2015-07-07T08:22:21.000Z</time>
      </trkpt>
      <trkpt lat="47.48348" lon="-0.60288">
        <ele>46</ele>
        <time>2015-07-07T08:22:22.000Z</time>
      </trkpt>
      <trkpt lat="47.48345" lon="-0.60288">
        <ele>45</ele>
        <time>2015-07-07T08:22:23.000Z</time>
      </trkpt>
      <trkpt lat="47.48342" lon="-0.60289">
        <ele>45</ele>
        <time>2015-07-07T08:22:24.000Z</time>
      </trkpt>
      <trkpt lat="47.48339" lon="-0.6029">
        <ele>45</ele>
        <time>2015-07-07T08:22:25.000Z</time>
      </trkpt>
      <trkpt lat="47.48337" lon="-0.60291">
        <ele>46</ele>
        <time>2015-07-07T08:22:26.000Z</time>
      </trkpt>
      <trkpt lat="47.48335" lon="-0.6029">
        <ele>45</ele>
        <time>2015-07-07T08:22:27.000Z</time>
      </trkpt>
      <trkpt lat="47.48332" lon="-0.60287">
        <ele>45</ele>
        <time>2015-07-07T08:22:28.000Z</time>
      </trkpt>
      <trkpt lat="47.4833" lon="-0.60284">
        <ele>45</ele>
        <time>2015-07-07T08:22:29.000Z</time>
      </trkpt>
      <trkpt lat="47.48328" lon="-0.60281">
        <ele>45</ele>
        <time>2015-07-07T08:22:30.000Z</time>
      </trkpt>
      <trkpt lat="47.48325" lon="-0.60277">
        <ele>44</ele>
        <time>2015-07-07T08:22:31.000Z</time>
      </trkpt>
      <trkpt lat="47.48324" lon="-0.60274">
        <ele>43</ele>
        <time>2015-07-07T08:22:32.000Z</time>
      </trkpt>
      <trkpt lat="47.48323" lon="-0.60272">
        <ele>41</ele>
        <time>2015-07-07T08:22:33.000Z</time>
      </trkpt>
      <trkpt lat="47.48321" lon="-0.6027">
        <ele>40</ele>
        <time>2015-07-07T08:22:34.000Z</time>
      </trkpt>
      <trkpt lat="47.48321" lon="-0.60267">
        <ele>40</ele>
        <time>2015-07-07T08:22:35.000Z</time>
      </trkpt>
      <trkpt lat="47.4832" lon="-0.60264">
        <ele>39</ele>
        <time>2015-07-07T08:22:36.000Z</time>
      </trkpt>
      <trkpt lat="47.48319" lon="-0.60261">
        <ele>39</ele>
        <time>2015-07-07T08:22:37.000Z</time>
      </trkpt>
      <trkpt lat="47.48318" lon="-0.60257">
        <ele>40</ele>
        <time>2015-07-07T08:22:38.000Z</time>
      </trkpt>
      <trkpt lat="47.48317" lon="-0.60252">
        <ele>39</ele>
        <time>2015-07-07T08:22:39.000Z</time>
      </trkpt>
      <trkpt lat="47.48316" lon="-0.60246">
        <ele>39</ele>
        <time>2015-07-07T08:22:40.000Z</time>
      </trkpt>
      <trkpt lat="47.48315" lon="-0.60241">
        <ele>39</ele>
        <time>2015-07-07T08:22:41.000Z</time>
      </trkpt>
      <trkpt lat="47.48315" lon="-0.60237">
        <ele>38</ele>
        <time>2015-07-07T08:22:42.000Z</time>
      </trkpt>
      <trkpt lat="47.48314" lon="-0.60233">
        <ele>37</ele>
        <time>2015-07-07T08:22:43.000Z</time>
      </trkpt>
      <trkpt lat="47.48313" lon="-0.60229">
        <ele>36</ele>
        <time>2015-07-07T08:22:44.000Z</time>
      </trkpt>
      <trkpt lat="47.48313" lon="-0.60226">
        <ele>36</ele>
        <time>2015-07-07T08:22:45.000Z</time>
      </trkpt>
      <trkpt lat="47.48314" lon="-0.60222">
        <ele>35</ele>
        <time>2015-07-07T08:22:46.000Z</time>
      </trkpt>
      <trkpt lat="47.48314" lon="-0.60219">
        <ele>34</ele>
        <time>2015-07-07T08:22:47.000Z</time>
      </trkpt>
      <trkpt lat="47.48315" lon="-0.60215">
        <ele>34</ele>
        <time>2015-07-07T08:22:48.000Z</time>
      </trkpt>
      <trkpt lat="47.48317" lon="-0.60212">
        <ele>33</ele>
        <time>2015-07-07T08:22:49.000Z</time>
      </trkpt>
      <trkpt lat="47.48319" lon="-0.60209">
        <ele>32</ele>
        <time>2015-07-07T08:22:50.000Z</time>
      </trkpt>
      <trkpt lat="47.48322" lon="-0.60207">
        <ele>31</ele>
        <time>2015-07-07T08:22:51.000Z</time>
      </trkpt>
      <trkpt lat="47.48324" lon="-0.60204">
        <ele>30</ele>
        <time>2015-07-07T08:22:52.000Z</time>
      </trkpt>
      <trkpt lat="47.48326" lon="-0.60202">
        <ele>30</ele>
        <time>2015-07-07T08:22:53.000Z</time>
      </trkpt>
      <trkpt lat="47.48328" lon="-0.60199">
        <ele>30</ele>
        <time>2015-07-07T08:22:54.000Z</time>
      </trkpt>
      <trkpt lat="47.4833" lon="-0.60196">
        <ele>29</ele>
        <time>2015-07-07T08:22:55.000Z</time>
      </trkpt>
      <trkpt lat="47.48331" lon="-0.60193">
        <ele>27</ele>
        <time>2015-07-07T08:22:56.000Z</time>
      </trkpt>
      <trkpt lat="47.48332" lon="-0.6019">
        <ele>26</ele>
        <time>2015-07-07T08:22:57.000Z</time>
      </trkpt>
      <trkpt lat="47.48333" lon="-0.60187">
        <ele>26</ele>
        <time>2015-07-07T08:22:58.000Z</time>
      </trkpt>
      <trkpt lat="47.48333" lon="-0.60184">
        <ele>28</ele>
        <time>2015-07-07T08:22:59.000Z</time>
      </trkpt>
      <trkpt lat="47.48334" lon="-0.60181">
        <ele>28</ele>
        <time>2015-07-07T08:23:00.000Z</time>
      </trkpt>
      <trkpt lat="47.48334" lon="-0.60177">
        <ele>26</ele>
        <time>2015-07-07T08:23:01.000Z</time>
      </trkpt>
      <trkpt lat="47.48334" lon="-0.60174">
        <ele>25</ele>
        <time>2015-07-07T08:23:02.000Z</time>
      </trkpt>
      <trkpt lat="47.48334" lon="-0.60171">
        <ele>24</ele>
        <time>2015-07-07T08:23:03.000Z</time>
      </trkpt>
      <trkpt lat="47.48334" lon="-0.60169">
        <ele>23</ele>
        <time>2015-07-07T08:23:04.000Z</time>
      </trkpt>
      <trkpt lat="47.48335" lon="-0.60166">
        <ele>23</ele>
        <time>2015-07-07T08:23:05.000Z</time>
      </trkpt>
      <trkpt lat="47.48335" lon="-0.60163">
        <ele>23</ele>
        <time>2015-07-07T08:23:06.000Z</time>
      </trkpt>
      <trkpt lat="47.48335" lon="-0.6016">
        <ele>23</ele>
        <time>2015-07-07T08:23:07.000Z</time>
      </trkpt>
      <trkpt lat="47.48335" lon="-0.60156">
        <ele>22</ele>
        <time>2015-07-07T08:23:08.000Z</time>
      </trkpt>
      <trkpt lat="47.48336" lon="-0.60153">
        <ele>22</ele>
        <time>2015-07-07T08:23:09.000Z</time>
      </trkpt>
      <trkpt lat="47.48337" lon="-0.6015">
        <ele>21</ele>
        <time>2015-07-07T08:23:10.000Z</time>
      </trkpt>
      <trkpt lat="47.48338" lon="-0.60148">
        <ele>21</ele>
        <time>2015-07-07T08:23:11.000Z</time>
      </trkpt>
      <trkpt lat="47.48339" lon="-0.60145">
        <ele>21</ele>
        <time>2015-07-07T08:23:12.000Z</time>
      </trkpt>
      <trkpt lat="47.4834" lon="-0.60143">
        <ele>20</ele>
        <time>2015-07-07T08:23:13.000Z</time>
      </trkpt>
      <trkpt lat="47.48343" lon="-0.60141">
        <ele>19</ele>
        <time>2015-07-07T08:23:14.000Z</time>
      </trkpt>
      <trkpt lat="47.48345" lon="-0.60139">
        <ele>19</ele>
        <time>2015-07-07T08:23:15.000Z</time>
      </trkpt>
      <trkpt lat="47.48348" lon="-0.60137">
        <ele>19</ele>
        <time>2015-07-07T08:23:16.000Z</time>
      </trkpt>
      <trkpt lat="47.48351" lon="-0.60135">
        <ele>19</ele>
        <time>2015-07-07T08:23:17.000Z</time>
      </trkpt>
      <trkpt lat="47.48353" lon="-0.60133">
        <ele>19</ele>
        <time>2015-07-07T08:23:18.000Z</time>
      </trkpt>
      <trkpt lat="47.48355" lon="-0.6013">
        <ele>19</ele>
        <time>2015-07-07T08:23:19.000Z</time>
      </trkpt>
      <trkpt lat="47.48356" lon="-0.60127">
        <ele>20</ele>
        <time>2015-07-07T08:23:20.000Z</time>
      </trkpt>
      <trkpt lat="47.48357" lon="-0.60123">
        <ele>20</ele>
        <time>2015-07-07T08:23:21.000Z</time>
      </trkpt>
      <trkpt lat="47.48357" lon="-0.6012">
        <ele>21</ele>
        <time>2015-07-07T08:23:22.000Z</time>
      </trkpt>
      <trkpt lat="47.48357" lon="-0.60117">
        <ele>22</ele>
        <time>2015-07-07T08:23:23.000Z</time>
      </trkpt>
      <trkpt lat="47.48357" lon="-0.60113">
        <ele>21</ele>
        <time>2015-07-07T08:23:24.000Z</time>
      </trkpt>
      <trkpt lat="47.48357" lon="-0.6011">
        <ele>20</ele>
        <time>2015-07-07T08:23:25.000Z</time>
      </trkpt>
      <trkpt lat="47.48356" lon="-0.60106">
        <ele>19</ele>
        <time>2015-07-07T08:23:26.000Z</time>
      </trkpt>
      <trkpt lat="47.48355" lon="-0.60103">
        <ele>19</ele>
        <time>2015-07-07T08:23:27.000Z</time>
      </trkpt>
      <trkpt lat="47.48355" lon="-0.601">
        <ele>20</ele>
        <time>2015-07-07T08:23:28.000Z</time>
      </trkpt>
      <trkpt lat="47.48354" lon="-0.60097">
        <ele>19</ele>
        <time>2015-07-07T08:23:29.000Z</time>
      </trkpt>
      <trkpt lat="47.48353" lon="-0.60095">
        <ele>18</ele>
        <time>2015-07-07T08:23:30.000Z</time>
      </trkpt>
      <trkpt lat="47.48351" lon="-0.60092">
        <ele>17</ele>
        <time>2015-07-07T08:23:31.000Z</time>
      </trkpt>
      <trkpt lat="47.4835" lon="-0.60089">
        <ele>16</ele>
        <time>2015-07-07T08:23:32.000Z</time>
      </trkpt>
      <trkpt lat="47.48348" lon="-0.60087">
        <ele>16</ele>
        <time>2015-07-07T08:23:33.000Z</time>
      </trkpt>
      <trkpt lat="47.48347" lon="-0.60084">
        <ele>14</ele>
        <time>2015-07-07T08:23:34.000Z</time>
      </trkpt>
      <trkpt lat="47.48346" lon="-0.60082">
        <ele>14</ele>
        <time>2015-07-07T08:23:35.000Z</time>
      </trkpt>
      <trkpt lat="47.48345" lon="-0.60079">
        <ele>12</ele>
        <time>2015-07-07T08:23:36.000Z</time>
      </trkpt>
      <trkpt lat="47.48344" lon="-0.60075">
        <ele>12</ele>
        <time>2015-07-07T08:23:37.000Z</time>
      </trkpt>
      <trkpt lat="47.48343" lon="-0.60072">
        <ele>12</ele>
        <time>2015-07-07T08:23:38.000Z</time>
      </trkpt>
      <trkpt lat="47.48342" lon="-0.60069">
        <ele>13</ele>
        <time>2015-07-07T08:23:39.000Z</time>
      </trkpt>
      <trkpt lat="47.48342" lon="-0.60066">
        <ele>13</ele>
        <time>2015-07-07T08:23:40.000Z</time>
      </trkpt>
      <trkpt lat="47.4834" lon="-0.60062">
        <ele>10</ele>
        <time>2015-07-07T08:23:41.000Z</time>
      </trkpt>
      <trkpt lat="47.48339" lon="-0.60059">
        <ele>9</ele>
        <time>2015-07-07T08:23:42.000Z</time>
      </trkpt>
      <trkpt lat="47.48338" lon="-0.60056">
        <ele>9</ele>
        <time>2015-07-07T08:23:43.000Z</time>
      </trkpt>
      <trkpt lat="47.48337" lon="-0.60054">
        <ele>7</ele>
        <time>2015-07-07T08:23:44.000Z</time>
      </trkpt>
      <trkpt lat="47.48335" lon="-0.60051">
        <ele>6</ele>
        <time>2015-07-07T08:23:45.000Z</time>
      </trkpt>
      <trkpt lat="47.48334" lon="-0.60049">
        <ele>5</ele>
        <time>2015-07-07T08:23:46.000Z</time>
      </trkpt>
      <trkpt lat="47.48332" lon="-0.60045">
        <ele>6</ele>
        <time>2015-07-07T08:23:47.000Z</time>
      </trkpt>
      <trkpt lat="47.48331" lon="-0.60041">
        <ele>7</ele>
        <time>2015-07-07T08:23:48.000Z</time>
      </trkpt>
      <trkpt lat="47.48329" lon="-0.60037">
        <ele>9</ele>
        <time>2015-07-07T08:23:49.000Z</time>
      </trkpt>
      <trkpt lat="47.48327" lon="-0.60031">
        <ele>12</ele>
        <time>2015-07-07T08:23:50.000Z</time>
      </trkpt>
      <trkpt lat="47.48325" lon="-0.60026">
        <ele>12</ele>
        <time>2015-07-07T08:23:51.000Z</time>
      </trkpt>
      <trkpt lat="47.48324" lon="-0.6002">
        <ele>13</ele>
        <time>2015-07-07T08:23:52.000Z</time>
      </trkpt>
      <trkpt lat="47.48322" lon="-0.60015">
        <ele>12</ele>
        <time>2015-07-07T08:23:53.000Z</time>
      </trkpt>
      <trkpt lat="47.48321" lon="-0.60009">
        <ele>13</ele>
        <time>2015-07-07T08:23:54.000Z</time>
      </trkpt>
      <trkpt lat="47.48319" lon="-0.60004">
        <ele>14</ele>
        <time>2015-07-07T08:23:55.000Z</time>
      </trkpt>
      <trkpt lat="47.48317" lon="-0.59998">
        <ele>15</ele>
        <time>2015-07-07T08:23:56.000Z</time>
      </trkpt>
      <trkpt lat="47.48316" lon="-0.59992">
        <ele>16</ele>
        <time>2015-07-07T08:23:57.000Z</time>
      </trkpt>
      <trkpt lat="47.48314" lon="-0.59987">
        <ele>17</ele>
        <time>2015-07-07T08:23:58.000Z</time>
      </trkpt>
      <trkpt lat="47.48313" lon="-0.59982">
        <ele>17</ele>
        <time>2015-07-07T08:23:59.000Z</time>
      </trkpt>
      <trkpt lat="47.48312" lon="-0.59977">
        <ele>18</ele>
        <time>2015-07-07T08:24:00.000Z</time>
      </trkpt>
      <trkpt lat="47.48311" lon="-0.59971">
        <ele>20</ele>
        <time>2015-07-07T08:24:01.000Z</time>
      </trkpt>
      <trkpt lat="47.4831" lon="-0.59966">
        <ele>21</ele>
        <time>2015-07-07T08:24:02.000Z</time>
      </trkpt>
      <trkpt lat="47.48308" lon="-0.5996">
        <ele>21</ele>
        <time>2015-07-07T08:24:03.000Z</time>
      </trkpt>
      <trkpt lat="47.48307" lon="-0.59956">
        <ele>20</ele>
        <time>2015-07-07T08:24:04.000Z</time>
      </trkpt>
      <trkpt lat="47.48306" lon="-0.59951">
        <ele>20</ele>
        <time>2015-07-07T08:24:05.000Z</time>
      </trkpt>
      <trkpt lat="47.48305" lon="-0.59946">
        <ele>21</ele>
        <time>2015-07-07T08:24:06.000Z</time>
      </trkpt>
      <trkpt lat="47.48304" lon="-0.59941">
        <ele>21</ele>
        <time>2015-07-07T08:24:07.000Z</time>
      </trkpt>
      <trkpt lat="47.48303" lon="-0.59936">
        <ele>21</ele>
        <time>2015-07-07T08:24:08.000Z</time>
      </trkpt>
      <trkpt lat="47.48302" lon="-0.59932">
        <ele>21</ele>
        <time>2015-07-07T08:24:09.000Z</time>
      </trkpt>
      <trkpt lat="47.48302" lon="-0.59927">
        <ele>22</ele>
        <time>2015-07-07T08:24:10.000Z</time>
      </trkpt>
      <trkpt lat="47.48301" lon="-0.59923">
        <ele>21</ele>
        <time>2015-07-07T08:24:11.000Z</time>
      </trkpt>
      <trkpt lat="47.48301" lon="-0.59919">
        <ele>20</ele>
        <time>2015-07-07T08:24:12.000Z</time>
      </trkpt>
      <trkpt lat="47.483" lon="-0.59915">
        <ele>19</ele>
        <time>2015-07-07T08:24:13.000Z</time>
      </trkpt>
      <trkpt lat="47.483" lon="-0.59911">
        <ele>20</ele>
        <time>2015-07-07T08:24:14.000Z</time>
      </trkpt>
      <trkpt lat="47.483" lon="-0.59907">
        <ele>20</ele>
        <time>2015-07-07T08:24:15.000Z</time>
      </trkpt>
      <trkpt lat="47.483" lon="-0.59904">
        <ele>19</ele>
        <time>2015-07-07T08:24:16.000Z</time>
      </trkpt>
      <trkpt lat="47.48299" lon="-0.599">
        <ele>19</ele>
        <time>2015-07-07T08:24:17.000Z</time>
      </trkpt>
      <trkpt lat="47.48298" lon="-0.59895">
        <ele>19</ele>
        <time>2015-07-07T08:24:18.000Z</time>
      </trkpt>
      <trkpt lat="47.48298" lon="-0.59892">
        <ele>18</ele>
        <time>2015-07-07T08:24:19.000Z</time>
      </trkpt>
      <trkpt lat="47.48297" lon="-0.59888">
        <ele>18</ele>
        <time>2015-07-07T08:24:20.000Z</time>
      </trkpt>
      <trkpt lat="47.48296" lon="-0.59884">
        <ele>18</ele>
        <time>2015-07-07T08:24:21.000Z</time>
      </trkpt>
      <trkpt lat="47.48296" lon="-0.5988">
        <ele>18</ele>
        <time>2015-07-07T08:24:22.000Z</time>
      </trkpt>
      <trkpt lat="47.48296" lon="-0.59875">
        <ele>19</ele>
        <time>2015-07-07T08:24:23.000Z</time>
      </trkpt>
      <trkpt lat="47.48295" lon="-0.59872">
        <ele>20</ele>
        <time>2015-07-07T08:24:24.000Z</time>
      </trkpt>
      <trkpt lat="47.48295" lon="-0.59868">
        <ele>19</ele>
        <time>2015-07-07T08:24:25.000Z</time>
      </trkpt>
      <trkpt lat="47.48295" lon="-0.59864">
        <ele>20</ele>
        <time>2015-07-07T08:24:26.000Z</time>
      </trkpt>
      <trkpt lat="47.48294" lon="-0.59859">
        <ele>20</ele>
        <time>2015-07-07T08:24:27.000Z</time>
      </trkpt>
      <trkpt lat="47.48294" lon="-0.59855">
        <ele>21</ele>
        <time>2015-07-07T08:24:28.000Z</time>
      </trkpt>
      <trkpt lat="47.48294" lon="-0.59852">
        <ele>23</ele>
        <time>2015-07-07T08:24:29.000Z</time>
      </trkpt>
      <trkpt lat="47.48294" lon="-0.59849">
        <ele>24</ele>
        <time>2015-07-07T08:24:30.000Z</time>
      </trkpt>
      <trkpt lat="47.48295" lon="-0.59847">
        <ele>24</ele>
        <time>2015-07-07T08:24:31.000Z</time>
      </trkpt>
      <trkpt lat="47.48295" lon="-0.59844">
        <ele>26</ele>
        <time>2015-07-07T08:24:32.000Z</time>
      </trkpt>
      <trkpt lat="47.48295" lon="-0.59842">
        <ele>27</ele>
        <time>2015-07-07T08:24:33.000Z</time>
      </trkpt>
      <trkpt lat="47.48296" lon="-0.59839">
        <ele>28</ele>
        <time>2015-07-07T08:24:34.000Z</time>
      </trkpt>
      <trkpt lat="47.48297" lon="-0.59836">
        <ele>29</ele>
        <time>2015-07-07T08:24:35.000Z</time>
      </trkpt>
      <trkpt lat="47.48297" lon="-0.59833">
        <ele>29</ele>
        <time>2015-07-07T08:24:36.000Z</time>
      </trkpt>
      <trkpt lat="47.48297" lon="-0.5983">
        <ele>29</ele>
        <time>2015-07-07T08:24:37.000Z</time>
      </trkpt>
      <trkpt lat="47.48298" lon="-0.59826">
        <ele>28</ele>
        <time>2015-07-07T08:24:38.000Z</time>
      </trkpt>
      <trkpt lat="47.48298" lon="-0.59823">
        <ele>29</ele>
        <time>2015-07-07T08:24:39.000Z</time>
      </trkpt>
      <trkpt lat="47.48299" lon="-0.59819">
        <ele>29</ele>
        <time>2015-07-07T08:24:40.000Z</time>
      </trkpt>
      <trkpt lat="47.483" lon="-0.59816">
        <ele>29</ele>
        <time>2015-07-07T08:24:41.000Z</time>
      </trkpt>
      <trkpt lat="47.483" lon="-0.59813">
        <ele>29</ele>
        <time>2015-07-07T08:24:42.000Z</time>
      </trkpt>
      <trkpt lat="47.483" lon="-0.59811">
        <ele>30</ele>
        <time>2015-07-07T08:24:43.000Z</time>
      </trkpt>
      <trkpt lat="47.483" lon="-0.59808">
        <ele>30</ele>
        <time>2015-07-07T08:24:44.000Z</time>
      </trkpt>
      <trkpt lat="47.48299" lon="-0.59804">
        <ele>30</ele>
        <time>2015-07-07T08:24:45.000Z</time>
      </trkpt>
      <trkpt lat="47.48297" lon="-0.598">
        <ele>30</ele>
        <time>2015-07-07T08:24:46.000Z</time>
      </trkpt>
      <trkpt lat="47.48296" lon="-0.59797">
        <ele>31</ele>
        <time>2015-07-07T08:24:47.000Z</time>
      </trkpt>
      <trkpt lat="47.48295" lon="-0.59793">
        <ele>31</ele>
        <time>2015-07-07T08:24:48.000Z</time>
      </trkpt>
      <trkpt lat="47.48294" lon="-0.59789">
        <ele>31</ele>
        <time>2015-07-07T08:24:49.000Z</time>
      </trkpt>
      <trkpt lat="47.48294" lon="-0.59785">
        <ele>31</ele>
        <time>2015-07-07T08:24:50.000Z</time>
      </trkpt>
      <trkpt lat="47.48293" lon="-0.59781">
        <ele>32</ele>
        <time>2015-07-07T08:24:51.000Z</time>
      </trkpt>
      <trkpt lat="47.48292" lon="-0.59777">
        <ele>31</ele>
        <time>2015-07-07T08:24:52.000Z</time>
      </trkpt>
      <trkpt lat="47.48292" lon="-0.59774">
        <ele>31</ele>
        <time>2015-07-07T08:24:53.000Z</time>
      </trkpt>
      <trkpt lat="47.48291" lon="-0.5977">
        <ele>31</ele>
        <time>2015-07-07T08:24:54.000Z</time>
      </trkpt>
      <trkpt lat="47.4829" lon="-0.59765">
        <ele>31</ele>
        <time>2015-07-07T08:24:55.000Z</time>
      </trkpt>
      <trkpt lat="47.48289" lon="-0.59761">
        <ele>31</ele>
        <time>2015-07-07T08:24:56.000Z</time>
      </trkpt>
      <trkpt lat="47.48288" lon="-0.59756">
        <ele>31</ele>
        <time>2015-07-07T08:24:57.000Z</time>
      </trkpt>
      <trkpt lat="47.48287" lon="-0.59752">
        <ele>31</ele>
        <time>2015-07-07T08:24:58.000Z</time>
      </trkpt>
      <trkpt lat="47.48287" lon="-0.59748">
        <ele>31</ele>
        <time>2015-07-07T08:24:59.000Z</time>
      </trkpt>
      <trkpt lat="47.48286" lon="-0.59743">
        <ele>32</ele>
        <time>2015-07-07T08:25:00.000Z</time>
      </trkpt>
      <trkpt lat="47.48286" lon="-0.59738">
        <ele>33</ele>
        <time>2015-07-07T08:25:01.000Z</time>
      </trkpt>
      <trkpt lat="47.48285" lon="-0.59734">
        <ele>33</ele>
        <time>2015-07-07T08:25:02.000Z</time>
      </trkpt>
      <trkpt lat="47.48284" lon="-0.59729">
        <ele>34</ele>
        <time>2015-07-07T08:25:03.000Z</time>
      </trkpt>
      <trkpt lat="47.48283" lon="-0.59725">
        <ele>34</ele>
        <time>2015-07-07T08:25:04.000Z</time>
      </trkpt>
      <trkpt lat="47.48282" lon="-0.59721">
        <ele>33</ele>
        <time>2015-07-07T08:25:05.000Z</time>
      </trkpt>
      <trkpt lat="47.48282" lon="-0.59717">
        <ele>33</ele>
        <time>2015-07-07T08:25:06.000Z</time>
      </trkpt>
      <trkpt lat="47.48282" lon="-0.59713">
        <ele>33</ele>
        <time>2015-07-07T08:25:07.000Z</time>
      </trkpt>
      <trkpt lat="47.48282" lon="-0.59708">
        <ele>33</ele>
        <time>2015-07-07T08:25:08.000Z</time>
      </trkpt>
      <trkpt lat="47.48282" lon="-0.59704">
        <ele>33</ele>
        <time>2015-07-07T08:25:09.000Z</time>
      </trkpt>
      <trkpt lat="47.48281" lon="-0.597">
        <ele>33</ele>
        <time>2015-07-07T08:25:10.000Z</time>
      </trkpt>
      <trkpt lat="47.48281" lon="-0.59696">
        <ele>32</ele>
        <time>2015-07-07T08:25:11.000Z</time>
      </trkpt>
      <trkpt lat="47.48281" lon="-0.59691">
        <ele>32</ele>
        <time>2015-07-07T08:25:12.000Z</time>
      </trkpt>
      <trkpt lat="47.48281" lon="-0.59687">
        <ele>32</ele>
        <time>2015-07-07T08:25:13.000Z</time>
      </trkpt>
      <trkpt lat="47.48281" lon="-0.59683">
        <ele>32</ele>
        <time>2015-07-07T08:25:14.000Z</time>
      </trkpt>
      <trkpt lat="47.4828" lon="-0.59679">
        <ele>32</ele>
        <time>2015-07-07T08:25:15.000Z</time>
      </trkpt>
      <trkpt lat="47.48279" lon="-0.59674">
        <ele>31</ele>
        <time>2015-07-07T08:25:16.000Z</time>
      </trkpt>
      <trkpt lat="47.48279" lon="-0.59669">
        <ele>30</ele>
        <time>2015-07-07T08:25:17.000Z</time>
      </trkpt>
      <trkpt lat="47.48278" lon="-0.59665">
        <ele>29</ele>
        <time>2015-07-07T08:25:18.000Z</time>
      </trkpt>
      <trkpt lat="47.48278" lon="-0.5966">
        <ele>29</ele>
        <time>2015-07-07T08:25:19.000Z</time>
      </trkpt>
      <trkpt lat="47.48277" lon="-0.59656">
        <ele>28</ele>
        <time>2015-07-07T08:25:20.000Z</time>
      </trkpt>
      <trkpt lat="47.48276" lon="-0.59652">
        <ele>28</ele>
        <time>2015-07-07T08:25:21.000Z</time>
      </trkpt>
      <trkpt lat="47.48275" lon="-0.59647">
        <ele>28</ele>
        <time>2015-07-07T08:25:22.000Z</time>
      </trkpt>
      <trkpt lat="47.48274" lon="-0.59643">
        <ele>28</ele>
        <time>2015-07-07T08:25:23.000Z</time>
      </trkpt>
      <trkpt lat="47.48273" lon="-0.59638">
        <ele>28</ele>
        <time>2015-07-07T08:25:24.000Z</time>
      </trkpt>
      <trkpt lat="47.48272" lon="-0.59634">
        <ele>28</ele>
        <time>2015-07-07T08:25:25.000Z</time>
      </trkpt>
      <trkpt lat="47.48271" lon="-0.5963">
        <ele>28</ele>
        <time>2015-07-07T08:25:26.000Z</time>
      </trkpt>
      <trkpt lat="47.4827" lon="-0.59627">
        <ele>27</ele>
        <time>2015-07-07T08:25:27.000Z</time>
      </trkpt>
      <trkpt lat="47.4827" lon="-0.59624">
        <ele>28</ele>
        <time>2015-07-07T08:25:28.000Z</time>
      </trkpt>
      <trkpt lat="47.48269" lon="-0.5962">
        <ele>27</ele>
        <time>2015-07-07T08:25:29.000Z</time>
      </trkpt>
      <trkpt lat="47.48268" lon="-0.59617">
        <ele>27</ele>
        <time>2015-07-07T08:25:30.000Z</time>
      </trkpt>
      <trkpt lat="47.48266" lon="-0.59613">
        <ele>27</ele>
        <time>2015-07-07T08:25:31.000Z</time>
      </trkpt>
      <trkpt lat="47.48265" lon="-0.59609">
        <ele>27</ele>
        <time>2015-07-07T08:25:32.000Z</time>
      </trkpt>
      <trkpt lat="47.48263" lon="-0.59604">
        <ele>27</ele>
        <time>2015-07-07T08:25:33.000Z</time>
      </trkpt>
      <trkpt lat="47.48262" lon="-0.596">
        <ele>27</ele>
        <time>2015-07-07T08:25:34.000Z</time>
      </trkpt>
      <trkpt lat="47.48261" lon="-0.59596">
        <ele>27</ele>
        <time>2015-07-07T08:25:35.000Z</time>
      </trkpt>
      <trkpt lat="47.4826" lon="-0.59592">
        <ele>26</ele>
        <time>2015-07-07T08:25:36.000Z</time>
      </trkpt>
      <trkpt lat="47.48259" lon="-0.59588">
        <ele>26</ele>
        <time>2015-07-07T08:25:37.000Z</time>
      </trkpt>
      <trkpt lat="47.48258" lon="-0.59585">
        <ele>26</ele>
        <time>2015-07-07T08:25:38.000Z</time>
      </trkpt>
      <trkpt lat="47.48257" lon="-0.5958">
        <ele>26</ele>
        <time>2015-07-07T08:25:39.000Z</time>
      </trkpt>
      <trkpt lat="47.48256" lon="-0.59576">
        <ele>26</ele>
        <time>2015-07-07T08:25:40.000Z</time>
      </trkpt>
      <trkpt lat="47.48256" lon="-0.59572">
        <ele>27</ele>
        <time>2015-07-07T08:25:41.000Z</time>
      </trkpt>
      <trkpt lat="47.48255" lon="-0.59568">
        <ele>27</ele>
        <time>2015-07-07T08:25:42.000Z</time>
      </trkpt>
      <trkpt lat="47.48255" lon="-0.59565">
        <ele>27</ele>
        <time>2015-07-07T08:25:43.000Z</time>
      </trkpt>
      <trkpt lat="47.48255" lon="-0.59561">
        <ele>27</ele>
        <time>2015-07-07T08:25:44.000Z</time>
      </trkpt>
      <trkpt lat="47.48254" lon="-0.59556">
        <ele>27</ele>
        <time>2015-07-07T08:25:45.000Z</time>
      </trkpt>
      <trkpt lat="47.48254" lon="-0.59551">
        <ele>27</ele>
        <time>2015-07-07T08:25:46.000Z</time>
      </trkpt>
      <trkpt lat="47.48253" lon="-0.59546">
        <ele>27</ele>
        <time>2015-07-07T08:25:47.000Z</time>
      </trkpt>
      <trkpt lat="47.48252" lon="-0.59542">
        <ele>26</ele>
        <time>2015-07-07T08:25:48.000Z</time>
      </trkpt>
      <trkpt lat="47.48251" lon="-0.59537">
        <ele>25</ele>
        <time>2015-07-07T08:25:49.000Z</time>
      </trkpt>
      <trkpt lat="47.48251" lon="-0.59532">
        <ele>25</ele>
        <time>2015-07-07T08:25:50.000Z</time>
      </trkpt>
      <trkpt lat="47.48251" lon="-0.59528">
        <ele>24</ele>
        <time>2015-07-07T08:25:51.000Z</time>
      </trkpt>
      <trkpt lat="47.48251" lon="-0.59523">
        <ele>24</ele>
        <time>2015-07-07T08:25:52.000Z</time>
      </trkpt>
      <trkpt lat="47.4825" lon="-0.59519">
        <ele>24</ele>
        <time>2015-07-07T08:25:53.000Z</time>
      </trkpt>
      <trkpt lat="47.48249" lon="-0.59515">
        <ele>24</ele>
        <time>2015-07-07T08:25:54.000Z</time>
      </trkpt>
      <trkpt lat="47.48248" lon="-0.59511">
        <ele>24</ele>
        <time>2015-07-07T08:25:55.000Z</time>
      </trkpt>
      <trkpt lat="47.48247" lon="-0.59507">
        <ele>23</ele>
        <time>2015-07-07T08:25:56.000Z</time>
      </trkpt>
      <trkpt lat="47.48247" lon="-0.59503">
        <ele>23</ele>
        <time>2015-07-07T08:25:57.000Z</time>
      </trkpt>
      <trkpt lat="47.48247" lon="-0.59499">
        <ele>23</ele>
        <time>2015-07-07T08:25:58.000Z</time>
      </trkpt>
      <trkpt lat="47.48246" lon="-0.59495">
        <ele>23</ele>
        <time>2015-07-07T08:25:59.000Z</time>
      </trkpt>
      <trkpt lat="47.48244" lon="-0.5949">
        <ele>23</ele>
        <time>2015-07-07T08:26:00.000Z</time>
      </trkpt>
      <trkpt lat="47.48243" lon="-0.59486">
        <ele>23</ele>
        <time>2015-07-07T08:26:01.000Z</time>
      </trkpt>
      <trkpt lat="47.48242" lon="-0.59481">
        <ele>23</ele>
        <time>2015-07-07T08:26:02.000Z</time>
      </trkpt>
      <trkpt lat="47.48242" lon="-0.59478">
        <ele>22</ele>
        <time>2015-07-07T08:26:03.000Z</time>
      </trkpt>
      <trkpt lat="47.48241" lon="-0.59475">
        <ele>23</ele>
        <time>2015-07-07T08:26:04.000Z</time>
      </trkpt>
      <trkpt lat="47.48241" lon="-0.59472">
        <ele>23</ele>
        <time>2015-07-07T08:26:05.000Z</time>
      </trkpt>
      <trkpt lat="47.4824" lon="-0.59468">
        <ele>23</ele>
        <time>2015-07-07T08:26:06.000Z</time>
      </trkpt>
      <trkpt lat="47.48239" lon="-0.59464">
        <ele>23</ele>
        <time>2015-07-07T08:26:07.000Z</time>
      </trkpt>
      <trkpt lat="47.48238" lon="-0.5946">
        <ele>23</ele>
        <time>2015-07-07T08:26:08.000Z</time>
      </trkpt>
      <trkpt lat="47.48237" lon="-0.59456">
        <ele>23</ele>
        <time>2015-07-07T08:26:09.000Z</time>
      </trkpt>
      <trkpt lat="47.48237" lon="-0.59452">
        <ele>23</ele>
        <time>2015-07-07T08:26:10.000Z</time>
      </trkpt>
      <trkpt lat="47.48236" lon="-0.59449">
        <ele>24</ele>
        <time>2015-07-07T08:26:11.000Z</time>
      </trkpt>
      <trkpt lat="47.48236" lon="-0.59445">
        <ele>23</ele>
        <time>2015-07-07T08:26:12.000Z</time>
      </trkpt>
      <trkpt lat="47.48235" lon="-0.59441">
        <ele>23</ele>
        <time>2015-07-07T08:26:13.000Z</time>
      </trkpt>
      <trkpt lat="47.48235" lon="-0.59436">
        <ele>22</ele>
        <time>2015-07-07T08:26:14.000Z</time>
      </trkpt>
      <trkpt lat="47.48235" lon="-0.59432">
        <ele>22</ele>
        <time>2015-07-07T08:26:15.000Z</time>
      </trkpt>
      <trkpt lat="47.48235" lon="-0.59428">
        <ele>22</ele>
        <time>2015-07-07T08:26:16.000Z</time>
      </trkpt>
      <trkpt lat="47.48234" lon="-0.59424">
        <ele>22</ele>
        <time>2015-07-07T08:26:17.000Z</time>
      </trkpt>
      <trkpt lat="47.48234" lon="-0.59419">
        <ele>23</ele>
        <time>2015-07-07T08:26:18.000Z</time>
      </trkpt>
      <trkpt lat="47.48234" lon="-0.59416">
        <ele>22</ele>
        <time>2015-07-07T08:26:19.000Z</time>
      </trkpt>
      <trkpt lat="47.48234" lon="-0.59411">
        <ele>22</ele>
        <time>2015-07-07T08:26:20.000Z</time>
      </trkpt>
      <trkpt lat="47.48234" lon="-0.59407">
        <ele>22</ele>
        <time>2015-07-07T08:26:21.000Z</time>
      </trkpt>
      <trkpt lat="47.48234" lon="-0.59403">
        <ele>21</ele>
        <time>2015-07-07T08:26:22.000Z</time>
      </trkpt>
      <trkpt lat="47.48233" lon="-0.59398">
        <ele>21</ele>
        <time>2015-07-07T08:26:23.000Z</time>
      </trkpt>
      <trkpt lat="47.48234" lon="-0.59394">
        <ele>21</ele>
        <time>2015-07-07T08:26:24.000Z</time>
      </trkpt>
      <trkpt lat="47.48233" lon="-0.59389">
        <ele>21</ele>
        <time>2015-07-07T08:26:25.000Z</time>
      </trkpt>
      <trkpt lat="47.48233" lon="-0.59384">
        <ele>20</ele>
        <time>2015-07-07T08:26:26.000Z</time>
      </trkpt>
      <trkpt lat="47.48232" lon="-0.59379">
        <ele>19</ele>
        <time>2015-07-07T08:26:27.000Z</time>
      </trkpt>
      <trkpt lat="47.48232" lon="-0.59374">
        <ele>19</ele>
        <time>2015-07-07T08:26:28.000Z</time>
      </trkpt>
      <trkpt lat="47.48231" lon="-0.5937">
        <ele>19</ele>
        <time>2015-07-07T08:26:29.000Z</time>
      </trkpt>
      <trkpt lat="47.48231" lon="-0.59366">
        <ele>18</ele>
        <time>2015-07-07T08:26:30.000Z</time>
      </trkpt>
      <trkpt lat="47.4823" lon="-0.59362">
        <ele>19</ele>
        <time>2015-07-07T08:26:31.000Z</time>
      </trkpt>
      <trkpt lat="47.48228" lon="-0.59357">
        <ele>19</ele>
        <time>2015-07-07T08:26:32.000Z</time>
      </trkpt>
      <trkpt lat="47.48227" lon="-0.59352">
        <ele>20</ele>
        <time>2015-07-07T08:26:33.000Z</time>
      </trkpt>
      <trkpt lat="47.48225" lon="-0.59348">
        <ele>20</ele>
        <time>2015-07-07T08:26:34.000Z</time>
      </trkpt>
      <trkpt lat="47.48224" lon="-0.59344">
        <ele>21</ele>
        <time>2015-07-07T08:26:35.000Z</time>
      </trkpt>
      <trkpt lat="47.48223" lon="-0.59341">
        <ele>21</ele>
        <time>2015-07-07T08:26:36.000Z</time>
      </trkpt>
      <trkpt lat="47.48222" lon="-0.59337">
        <ele>21</ele>
        <time>2015-07-07T08:26:37.000Z</time>
      </trkpt>
      <trkpt lat="47.48221" lon="-0.59334">
        <ele>21</ele>
        <time>2015-07-07T08:26:38.000Z</time>
      </trkpt>
      <trkpt lat="47.4822" lon="-0.5933">
        <ele>21</ele>
        <time>2015-07-07T08:26:39.000Z</time>
      </trkpt>
      <trkpt lat="47.4822" lon="-0.59326">
        <ele>21</ele>
        <time>2015-07-07T08:26:40.000Z</time>
      </trkpt>
      <trkpt lat="47.48219" lon="-0.59322">
        <ele>21</ele>
        <time>2015-07-07T08:26:41.000Z</time>
      </trkpt>
      <trkpt lat="47.4822" lon="-0.59318">
        <ele>20</ele>
        <time>2015-07-07T08:26:42.000Z</time>
      </trkpt>
      <trkpt lat="47.4822" lon="-0.59314">
        <ele>20</ele>
        <time>2015-07-07T08:26:43.000Z</time>
      </trkpt>
      <trkpt lat="47.48221" lon="-0.5931">
        <ele>21</ele>
        <time>2015-07-07T08:26:44.000Z</time>
      </trkpt>
      <trkpt lat="47.48221" lon="-0.59306">
        <ele>21</ele>
        <time>2015-07-07T08:26:45.000Z</time>
      </trkpt>
      <trkpt lat="47.4822" lon="-0.59302">
        <ele>22</ele>
        <time>2015-07-07T08:26:46.000Z</time>
      </trkpt>
      <trkpt lat="47.4822" lon="-0.59297">
        <ele>22</ele>
        <time>2015-07-07T08:26:47.000Z</time>
      </trkpt>
      <trkpt lat="47.4822" lon="-0.59292">
        <ele>24</ele>
        <time>2015-07-07T08:26:48.000Z</time>
      </trkpt>
      <trkpt lat="47.4822" lon="-0.59288">
        <ele>25</ele>
        <time>2015-07-07T08:26:49.000Z</time>
      </trkpt>
      <trkpt lat="47.4822" lon="-0.59284">
        <ele>26</ele>
        <time>2015-07-07T08:26:50.000Z</time>
      </trkpt>
      <trkpt lat="47.4822" lon="-0.5928">
        <ele>24</ele>
        <time>2015-07-07T08:26:51.000Z</time>
      </trkpt>
      <trkpt lat="47.4822" lon="-0.59275">
        <ele>25</ele>
        <time>2015-07-07T08:26:52.000Z</time>
      </trkpt>
      <trkpt lat="47.4822" lon="-0.5927">
        <ele>25</ele>
        <time>2015-07-07T08:26:53.000Z</time>
      </trkpt>
      <trkpt lat="47.48221" lon="-0.59264">
        <ele>23</ele>
        <time>2015-07-07T08:26:54.000Z</time>
      </trkpt>
      <trkpt lat="47.48221" lon="-0.59259">
        <ele>24</ele>
        <time>2015-07-07T08:26:55.000Z</time>
      </trkpt>
      <trkpt lat="47.48221" lon="-0.59254">
        <ele>25</ele>
        <time>2015-07-07T08:26:56.000Z</time>
      </trkpt>
      <trkpt lat="47.48222" lon="-0.59249">
        <ele>25</ele>
        <time>2015-07-07T08:26:57.000Z</time>
      </trkpt>
      <trkpt lat="47.48223" lon="-0.59245">
        <ele>26</ele>
        <time>2015-07-07T08:26:58.000Z</time>
      </trkpt>
      <trkpt lat="47.48223" lon="-0.59241">
        <ele>26</ele>
        <time>2015-07-07T08:26:59.000Z</time>
      </trkpt>
      <trkpt lat="47.48224" lon="-0.59237">
        <ele>27</ele>
        <time>2015-07-07T08:27:00.000Z</time>
      </trkpt>
      <trkpt lat="47.48225" lon="-0.59233">
        <ele>27</ele>
        <time>2015-07-07T08:27:01.000Z</time>
      </trkpt>
      <trkpt lat="47.48225" lon="-0.5923">
        <ele>27</ele>
        <time>2015-07-07T08:27:02.000Z</time>
      </trkpt>
      <trkpt lat="47.48225" lon="-0.59226">
        <ele>27</ele>
        <time>2015-07-07T08:27:03.000Z</time>
      </trkpt>
      <trkpt lat="47.48225" lon="-0.59223">
        <ele>27</ele>
        <time>2015-07-07T08:27:04.000Z</time>
      </trkpt>
      <trkpt lat="47.48225" lon="-0.59219">
        <ele>26</ele>
        <time>2015-07-07T08:27:05.000Z</time>
      </trkpt>
      <trkpt lat="47.48226" lon="-0.59216">
        <ele>27</ele>
        <time>2015-07-07T08:27:06.000Z</time>
      </trkpt>
      <trkpt lat="47.48226" lon="-0.59211">
        <ele>27</ele>
        <time>2015-07-07T08:27:07.000Z</time>
      </trkpt>
      <trkpt lat="47.48226" lon="-0.59207">
        <ele>27</ele>
        <time>2015-07-07T08:27:08.000Z</time>
      </trkpt>
      <trkpt lat="47.48226" lon="-0.59203">
        <ele>27</ele>
        <time>2015-07-07T08:27:09.000Z</time>
      </trkpt>
      <trkpt lat="47.48226" lon="-0.59199">
        <ele>28</ele>
        <time>2015-07-07T08:27:10.000Z</time>
      </trkpt>
      <trkpt lat="47.48226" lon="-0.59196">
        <ele>27</ele>
        <time>2015-07-07T08:27:11.000Z</time>
      </trkpt>
      <trkpt lat="47.48226" lon="-0.59192">
        <ele>27</ele>
        <time>2015-07-07T08:27:12.000Z</time>
      </trkpt>
      <trkpt lat="47.48225" lon="-0.59188">
        <ele>26</ele>
        <time>2015-07-07T08:27:13.000Z</time>
      </trkpt>
      <trkpt lat="47.48224" lon="-0.59184">
        <ele>26</ele>
        <time>2015-07-07T08:27:14.000Z</time>
      </trkpt>
      <trkpt lat="47.48224" lon="-0.5918">
        <ele>24</ele>
        <time>2015-07-07T08:27:15.000Z</time>
      </trkpt>
      <trkpt lat="47.48223" lon="-0.59175">
        <ele>24</ele>
        <time>2015-07-07T08:27:16.000Z</time>
      </trkpt>
      <trkpt lat="47.48223" lon="-0.59171">
        <ele>24</ele>
        <time>2015-07-07T08:27:17.000Z</time>
      </trkpt>
      <trkpt lat="47.48223" lon="-0.59167">
        <ele>23</ele>
        <time>2015-07-07T08:27:18.000Z</time>
      </trkpt>
      <trkpt lat="47.48223" lon="-0.59163">
        <ele>22</ele>
        <time>2015-07-07T08:27:19.000Z</time>
      </trkpt>
      <trkpt lat="47.48223" lon="-0.59158">
        <ele>21</ele>
        <time>2015-07-07T08:27:20.000Z</time>
      </trkpt>
      <trkpt lat="47.48223" lon="-0.59154">
        <ele>21</ele>
        <time>2015-07-07T08:27:21.000Z</time>
      </trkpt>
      <trkpt lat="47.48223" lon="-0.59149">
        <ele>20</ele>
        <time>2015-07-07T08:27:22.000Z</time>
      </trkpt>
      <trkpt lat="47.48223" lon="-0.59144">
        <ele>20</ele>
        <time>2015-07-07T08:27:23.000Z</time>
      </trkpt>
      <trkpt lat="47.48223" lon="-0.5914">
        <ele>20</ele>
        <time>2015-07-07T08:27:24.000Z</time>
      </trkpt>
      <trkpt lat="47.48223" lon="-0.59135">
        <ele>20</ele>
        <time>2015-07-07T08:27:25.000Z</time>
      </trkpt>
      <trkpt lat="47.48223" lon="-0.59131">
        <ele>19</ele>
        <time>2015-07-07T08:27:26.000Z</time>
      </trkpt>
      <trkpt lat="47.48224" lon="-0.59127">
        <ele>19</ele>
        <time>2015-07-07T08:27:27.000Z</time>
      </trkpt>
      <trkpt lat="47.48224" lon="-0.59123">
        <ele>19</ele>
        <time>2015-07-07T08:27:28.000Z</time>
      </trkpt>
      <trkpt lat="47.48225" lon="-0.59119">
        <ele>19</ele>
        <time>2015-07-07T08:27:29.000Z</time>
      </trkpt>
      <trkpt lat="47.48225" lon="-0.59115">
        <ele>18</ele>
        <time>2015-07-07T08:27:30.000Z</time>
      </trkpt>
      <trkpt lat="47.48225" lon="-0.59111">
        <ele>18</ele>
        <time>2015-07-07T08:27:31.000Z</time>
      </trkpt>
      <trkpt lat="47.48224" lon="-0.59107">
        <ele>18</ele>
        <time>2015-07-07T08:27:32.000Z</time>
      </trkpt>
      <trkpt lat="47.48224" lon="-0.59102">
        <ele>18</ele>
        <time>2015-07-07T08:27:33.000Z</time>
      </trkpt>
      <trkpt lat="47.48224" lon="-0.59098">
        <ele>18</ele>
        <time>2015-07-07T08:27:34.000Z</time>
      </trkpt>
      <trkpt lat="47.48224" lon="-0.59094">
        <ele>17</ele>
        <time>2015-07-07T08:27:35.000Z</time>
      </trkpt>
      <trkpt lat="47.48224" lon="-0.5909">
        <ele>18</ele>
        <time>2015-07-07T08:27:36.000Z</time>
      </trkpt>
      <trkpt lat="47.48224" lon="-0.59086">
        <ele>17</ele>
        <time>2015-07-07T08:27:37.000Z</time>
      </trkpt>
      <trkpt lat="47.48224" lon="-0.59082">
        <ele>16</ele>
        <time>2015-07-07T08:27:38.000Z</time>
      </trkpt>
      <trkpt lat="47.48223" lon="-0.59078">
        <ele>15</ele>
        <time>2015-07-07T08:27:39.000Z</time>
      </trkpt>
      <trkpt lat="47.48223" lon="-0.59075">
        <ele>15</ele>
        <time>2015-07-07T08:27:40.000Z</time>
      </trkpt>
      <trkpt lat="47.48223" lon="-0.59071">
        <ele>14</ele>
        <time>2015-07-07T08:27:41.000Z</time>
      </trkpt>
      <trkpt lat="47.48223" lon="-0.59067">
        <ele>14</ele>
        <time>2015-07-07T08:27:42.000Z</time>
      </trkpt>
      <trkpt lat="47.48223" lon="-0.59064">
        <ele>14</ele>
        <time>2015-07-07T08:27:43.000Z</time>
      </trkpt>
      <trkpt lat="47.48222" lon="-0.5906">
        <ele>16</ele>
        <time>2015-07-07T08:27:44.000Z</time>
      </trkpt>
      <trkpt lat="47.48222" lon="-0.59056">
        <ele>16</ele>
        <time>2015-07-07T08:27:45.000Z</time>
      </trkpt>
      <trkpt lat="47.48222" lon="-0.59053">
        <ele>17</ele>
        <time>2015-07-07T08:27:46.000Z</time>
      </trkpt>
      <trkpt lat="47.48221" lon="-0.5905">
        <ele>17</ele>
        <time>2015-07-07T08:27:47.000Z</time>
      </trkpt>
      <trkpt lat="47.48221" lon="-0.59046">
        <ele>18</ele>
        <time>2015-07-07T08:27:48.000Z</time>
      </trkpt>
      <trkpt lat="47.48219" lon="-0.59042">
        <ele>17</ele>
        <time>2015-07-07T08:27:49.000Z</time>
      </trkpt>
      <trkpt lat="47.48219" lon="-0.59038">
        <ele>17</ele>
        <time>2015-07-07T08:27:50.000Z</time>
      </trkpt>
      <trkpt lat="47.48218" lon="-0.59033">
        <ele>17</ele>
        <time>2015-07-07T08:27:51.000Z</time>
      </trkpt>
      <trkpt lat="47.48217" lon="-0.59029">
        <ele>16</ele>
        <time>2015-07-07T08:27:52.000Z</time>
      </trkpt>
      <trkpt lat="47.48216" lon="-0.59025">
        <ele>16</ele>
        <time>2015-07-07T08:27:53.000Z</time>
      </trkpt>
      <trkpt lat="47.48216" lon="-0.59021">
        <ele>16</ele>
        <time>2015-07-07T08:27:54.000Z</time>
      </trkpt>
      <trkpt lat="47.48216" lon="-0.59018">
        <ele>18</ele>
        <time>2015-07-07T08:27:55.000Z</time>
      </trkpt>
      <trkpt lat="47.48216" lon="-0.59014">
        <ele>18</ele>
        <time>2015-07-07T08:27:56.000Z</time>
      </trkpt>
      <trkpt lat="47.48216" lon="-0.5901">
        <ele>19</ele>
        <time>2015-07-07T08:27:57.000Z</time>
      </trkpt>
      <trkpt lat="47.48216" lon="-0.59006">
        <ele>20</ele>
        <time>2015-07-07T08:27:58.000Z</time>
      </trkpt>
      <trkpt lat="47.48216" lon="-0.59002">
        <ele>20</ele>
        <time>2015-07-07T08:27:59.000Z</time>
      </trkpt>
      <trkpt lat="47.48216" lon="-0.58997">
        <ele>21</ele>
        <time>2015-07-07T08:28:00.000Z</time>
      </trkpt>
      <trkpt lat="47.48216" lon="-0.58993">
        <ele>23</ele>
        <time>2015-07-07T08:28:01.000Z</time>
      </trkpt>
      <trkpt lat="47.48215" lon="-0.58989">
        <ele>23</ele>
        <time>2015-07-07T08:28:02.000Z</time>
      </trkpt>
      <trkpt lat="47.48214" lon="-0.58985">
        <ele>24</ele>
        <time>2015-07-07T08:28:03.000Z</time>
      </trkpt>
      <trkpt lat="47.48213" lon="-0.58981">
        <ele>25</ele>
        <time>2015-07-07T08:28:04.000Z</time>
      </trkpt>
      <trkpt lat="47.48212" lon="-0.58977">
        <ele>26</ele>
        <time>2015-07-07T08:28:05.000Z</time>
      </trkpt>
      <trkpt lat="47.48211" lon="-0.58974">
        <ele>26</ele>
        <time>2015-07-07T08:28:06.000Z</time>
      </trkpt>
      <trkpt lat="47.4821" lon="-0.58971">
        <ele>26</ele>
        <time>2015-07-07T08:28:07.000Z</time>
      </trkpt>
      <trkpt lat="47.48209" lon="-0.58967">
        <ele>25</ele>
        <time>2015-07-07T08:28:08.000Z</time>
      </trkpt>
      <trkpt lat="47.48208" lon="-0.58964">
        <ele>24</ele>
        <time>2015-07-07T08:28:09.000Z</time>
      </trkpt>
      <trkpt lat="47.48206" lon="-0.58961">
        <ele>24</ele>
        <time>2015-07-07T08:28:10.000Z</time>
      </trkpt>
      <trkpt lat="47.48205" lon="-0.58957">
        <ele>26</ele>
        <time>2015-07-07T08:28:11.000Z</time>
      </trkpt>
      <trkpt lat="47.48204" lon="-0.58952">
        <ele>26</ele>
        <time>2015-07-07T08:28:12.000Z</time>
      </trkpt>
      <trkpt lat="47.48202" lon="-0.58948">
        <ele>26</ele>
        <time>2015-07-07T08:28:13.000Z</time>
      </trkpt>
      <trkpt lat="47.48201" lon="-0.58944">
        <ele>26</ele>
        <time>2015-07-07T08:28:14.000Z</time>
      </trkpt>
      <trkpt lat="47.482" lon="-0.5894">
        <ele>26</ele>
        <time>2015-07-07T08:28:15.000Z</time>
      </trkpt>
      <trkpt lat="47.48199" lon="-0.58937">
        <ele>27</ele>
        <time>2015-07-07T08:28:16.000Z</time>
      </trkpt>
      <trkpt lat="47.48198" lon="-0.58933">
        <ele>26</ele>
        <time>2015-07-07T08:28:17.000Z</time>
      </trkpt>
      <trkpt lat="47.48196" lon="-0.5893">
        <ele>26</ele>
        <time>2015-07-07T08:28:18.000Z</time>
      </trkpt>
      <trkpt lat="47.48195" lon="-0.58926">
        <ele>26</ele>
        <time>2015-07-07T08:28:19.000Z</time>
      </trkpt>
      <trkpt lat="47.48194" lon="-0.58922">
        <ele>27</ele>
        <time>2015-07-07T08:28:20.000Z</time>
      </trkpt>
      <trkpt lat="47.48193" lon="-0.58918">
        <ele>27</ele>
        <time>2015-07-07T08:28:21.000Z</time>
      </trkpt>
      <trkpt lat="47.48192" lon="-0.58914">
        <ele>27</ele>
        <time>2015-07-07T08:28:22.000Z</time>
      </trkpt>
      <trkpt lat="47.48191" lon="-0.5891">
        <ele>26</ele>
        <time>2015-07-07T08:28:23.000Z</time>
      </trkpt>
      <trkpt lat="47.4819" lon="-0.58906">
        <ele>25</ele>
        <time>2015-07-07T08:28:24.000Z</time>
      </trkpt>
      <trkpt lat="47.48189" lon="-0.58903">
        <ele>25</ele>
        <time>2015-07-07T08:28:25.000Z</time>
      </trkpt>
      <trkpt lat="47.48189" lon="-0.58899">
        <ele>24</ele>
        <time>2015-07-07T08:28:26.000Z</time>
      </trkpt>
      <trkpt lat="47.48188" lon="-0.58895">
        <ele>25</ele>
        <time>2015-07-07T08:28:27.000Z</time>
      </trkpt>
      <trkpt lat="47.48187" lon="-0.58891">
        <ele>25</ele>
        <time>2015-07-07T08:28:28.000Z</time>
      </trkpt>
      <trkpt lat="47.48186" lon="-0.58886">
        <ele>24</ele>
        <time>2015-07-07T08:28:29.000Z</time>
      </trkpt>
      <trkpt lat="47.48185" lon="-0.58882">
        <ele>22</ele>
        <time>2015-07-07T08:28:30.000Z</time>
      </trkpt>
      <trkpt lat="47.48184" lon="-0.58878">
        <ele>20</ele>
        <time>2015-07-07T08:28:31.000Z</time>
      </trkpt>
      <trkpt lat="47.48183" lon="-0.58874">
        <ele>19</ele>
        <time>2015-07-07T08:28:32.000Z</time>
      </trkpt>
      <trkpt lat="47.48183" lon="-0.5887">
        <ele>19</ele>
        <time>2015-07-07T08:28:33.000Z</time>
      </trkpt>
      <trkpt lat="47.48182" lon="-0.58866">
        <ele>19</ele>
        <time>2015-07-07T08:28:34.000Z</time>
      </trkpt>
      <trkpt lat="47.48181" lon="-0.58863">
        <ele>18</ele>
        <time>2015-07-07T08:28:35.000Z</time>
      </trkpt>
      <trkpt lat="47.4818" lon="-0.5886">
        <ele>18</ele>
        <time>2015-07-07T08:28:36.000Z</time>
      </trkpt>
      <trkpt lat="47.48179" lon="-0.58856">
        <ele>18</ele>
        <time>2015-07-07T08:28:37.000Z</time>
      </trkpt>
      <trkpt lat="47.48179" lon="-0.58852">
        <ele>18</ele>
        <time>2015-07-07T08:28:38.000Z</time>
      </trkpt>
      <trkpt lat="47.48178" lon="-0.58847">
        <ele>18</ele>
        <time>2015-07-07T08:28:39.000Z</time>
      </trkpt>
      <trkpt lat="47.48176" lon="-0.58842">
        <ele>18</ele>
        <time>2015-07-07T08:28:40.000Z</time>
      </trkpt>
      <trkpt lat="47.48175" lon="-0.58838">
        <ele>16</ele>
        <time>2015-07-07T08:28:41.000Z</time>
      </trkpt>
      <trkpt lat="47.48174" lon="-0.58833">
        <ele>17</ele>
        <time>2015-07-07T08:28:42.000Z</time>
      </trkpt>
      <trkpt lat="47.48174" lon="-0.58829">
        <ele>18</ele>
        <time>2015-07-07T08:28:43.000Z</time>
      </trkpt>
      <trkpt lat="47.48174" lon="-0.58825">
        <ele>18</ele>
        <time>2015-07-07T08:28:44.000Z</time>
      </trkpt>
      <trkpt lat="47.48173" lon="-0.58821">
        <ele>19</ele>
        <time>2015-07-07T08:28:45.000Z</time>
      </trkpt>
      <trkpt lat="47.48173" lon="-0.58817">
        <ele>19</ele>
        <time>2015-07-07T08:28:46.000Z</time>
      </trkpt>
      <trkpt lat="47.48172" lon="-0.58813">
        <ele>20</ele>
        <time>2015-07-07T08:28:47.000Z</time>
      </trkpt>
      <trkpt lat="47.48171" lon="-0.58809">
        <ele>20</ele>
        <time>2015-07-07T08:28:48.000Z</time>
      </trkpt>
      <trkpt lat="47.48171" lon="-0.58805">
        <ele>20</ele>
        <time>2015-07-07T08:28:49.000Z</time>
      </trkpt>
      <trkpt lat="47.4817" lon="-0.58802">
        <ele>16</ele>
        <time>2015-07-07T08:28:50.000Z</time>
      </trkpt>
      <trkpt lat="47.48169" lon="-0.58798">
        <ele>14</ele>
        <time>2015-07-07T08:28:51.000Z</time>
      </trkpt>
      <trkpt lat="47.48168" lon="-0.58795">
        <ele>13</ele>
        <time>2015-07-07T08:28:52.000Z</time>
      </trkpt>
      <trkpt lat="47.48168" lon="-0.58791">
        <ele>11</ele>
        <time>2015-07-07T08:28:53.000Z</time>
      </trkpt>
      <trkpt lat="47.48168" lon="-0.58788">
        <ele>11</ele>
        <time>2015-07-07T08:28:54.000Z</time>
      </trkpt>
      <trkpt lat="47.48168" lon="-0.58784">
        <ele>11</ele>
        <time>2015-07-07T08:28:55.000Z</time>
      </trkpt>
      <trkpt lat="47.48167" lon="-0.5878">
        <ele>12</ele>
        <time>2015-07-07T08:28:56.000Z</time>
      </trkpt>
      <trkpt lat="47.48166" lon="-0.58775">
        <ele>13</ele>
        <time>2015-07-07T08:28:57.000Z</time>
      </trkpt>
      <trkpt lat="47.48166" lon="-0.5877">
        <ele>13</ele>
        <time>2015-07-07T08:28:58.000Z</time>
      </trkpt>
      <trkpt lat="47.48165" lon="-0.58766">
        <ele>13</ele>
        <time>2015-07-07T08:28:59.000Z</time>
      </trkpt>
      <trkpt lat="47.48165" lon="-0.58762">
        <ele>15</ele>
        <time>2015-07-07T08:29:00.000Z</time>
      </trkpt>
      <trkpt lat="47.48165" lon="-0.58758">
        <ele>17</ele>
        <time>2015-07-07T08:29:01.000Z</time>
      </trkpt>
      <trkpt lat="47.48165" lon="-0.58754">
        <ele>19</ele>
        <time>2015-07-07T08:29:02.000Z</time>
      </trkpt>
      <trkpt lat="47.48165" lon="-0.58751">
        <ele>19</ele>
        <time>2015-07-07T08:29:03.000Z</time>
      </trkpt>
      <trkpt lat="47.48165" lon="-0.58746">
        <ele>20</ele>
        <time>2015-07-07T08:29:04.000Z</time>
      </trkpt>
      <trkpt lat="47.48164" lon="-0.58742">
        <ele>19</ele>
        <time>2015-07-07T08:29:05.000Z</time>
      </trkpt>
      <trkpt lat="47.48163" lon="-0.58737">
        <ele>19</ele>
        <time>2015-07-07T08:29:06.000Z</time>
      </trkpt>
      <trkpt lat="47.48162" lon="-0.58731">
        <ele>19</ele>
        <time>2015-07-07T08:29:07.000Z</time>
      </trkpt>
      <trkpt lat="47.48162" lon="-0.58727">
        <ele>19</ele>
        <time>2015-07-07T08:29:08.000Z</time>
      </trkpt>
      <trkpt lat="47.48161" lon="-0.58722">
        <ele>19</ele>
        <time>2015-07-07T08:29:09.000Z</time>
      </trkpt>
      <trkpt lat="47.48161" lon="-0.58718">
        <ele>19</ele>
        <time>2015-07-07T08:29:10.000Z</time>
      </trkpt>
      <trkpt lat="47.4816" lon="-0.58714">
        <ele>21</ele>
        <time>2015-07-07T08:29:11.000Z</time>
      </trkpt>
      <trkpt lat="47.4816" lon="-0.5871">
        <ele>22</ele>
        <time>2015-07-07T08:29:12.000Z</time>
      </trkpt>
      <trkpt lat="47.4816" lon="-0.58706">
        <ele>22</ele>
        <time>2015-07-07T08:29:13.000Z</time>
      </trkpt>
      <trkpt lat="47.48159" lon="-0.58703">
        <ele>22</ele>
        <time>2015-07-07T08:29:14.000Z</time>
      </trkpt>
      <trkpt lat="47.48158" lon="-0.58699">
        <ele>22</ele>
        <time>2015-07-07T08:29:15.000Z</time>
      </trkpt>
      <trkpt lat="47.48157" lon="-0.58696">
        <ele>22</ele>
        <time>2015-07-07T08:29:16.000Z</time>
      </trkpt>
      <trkpt lat="47.48156" lon="-0.58694">
        <ele>22</ele>
        <time>2015-07-07T08:29:17.000Z</time>
      </trkpt>
      <trkpt lat="47.48155" lon="-0.58691">
        <ele>22</ele>
        <time>2015-07-07T08:29:18.000Z</time>
      </trkpt>
      <trkpt lat="47.48154" lon="-0.58689">
        <ele>23</ele>
        <time>2015-07-07T08:29:19.000Z</time>
      </trkpt>
      <trkpt lat="47.48153" lon="-0.58687">
        <ele>22</ele>
        <time>2015-07-07T08:29:20.000Z</time>
      </trkpt>
      <trkpt lat="47.48151" lon="-0.58685">
        <ele>23</ele>
        <time>2015-07-07T08:29:21.000Z</time>
      </trkpt>
      <trkpt lat="47.4815" lon="-0.58682">
        <ele>23</ele>
        <time>2015-07-07T08:29:22.000Z</time>
      </trkpt>
      <trkpt lat="47.48148" lon="-0.5868">
        <ele>24</ele>
        <time>2015-07-07T08:29:23.000Z</time>
      </trkpt>
      <trkpt lat="47.48146" lon="-0.58677">
        <ele>24</ele>
        <time>2015-07-07T08:29:24.000Z</time>
      </trkpt>
      <trkpt lat="47.48144" lon="-0.58675">
        <ele>24</ele>
        <time>2015-07-07T08:29:25.000Z</time>
      </trkpt>
      <trkpt lat="47.48142" lon="-0.58673">
        <ele>25</ele>
        <time>2015-07-07T08:29:26.000Z</time>
      </trkpt>
      <trkpt lat="47.4814" lon="-0.5867">
        <ele>25</ele>
        <time>2015-07-07T08:29:27.000Z</time>
      </trkpt>
      <trkpt lat="47.48138" lon="-0.58668">
        <ele>24</ele>
        <time>2015-07-07T08:29:28.000Z</time>
      </trkpt>
      <trkpt lat="47.48136" lon="-0.58666">
        <ele>23</ele>
        <time>2015-07-07T08:29:29.000Z</time>
      </trkpt>
      <trkpt lat="47.48134" lon="-0.58664">
        <ele>23</ele>
        <time>2015-07-07T08:29:30.000Z</time>
      </trkpt>
      <trkpt lat="47.48132" lon="-0.58662">
        <ele>22</ele>
        <time>2015-07-07T08:29:31.000Z</time>
      </trkpt>
      <trkpt lat="47.48131" lon="-0.5866">
        <ele>23</ele>
        <time>2015-07-07T08:29:32.000Z</time>
      </trkpt>
      <trkpt lat="47.48129" lon="-0.58658">
        <ele>23</ele>
        <time>2015-07-07T08:29:33.000Z</time>
      </trkpt>
      <trkpt lat="47.48127" lon="-0.58655">
        <ele>23</ele>
        <time>2015-07-07T08:29:34.000Z</time>
      </trkpt>
      <trkpt lat="47.48124" lon="-0.58652">
        <ele>22</ele>
        <time>2015-07-07T08:29:35.000Z</time>
      </trkpt>
      <trkpt lat="47.48121" lon="-0.58649">
        <ele>22</ele>
        <time>2015-07-07T08:29:36.000Z</time>
      </trkpt>
      <trkpt lat="47.48119" lon="-0.58646">
        <ele>20</ele>
        <time>2015-07-07T08:29:37.000Z</time>
      </trkpt>
      <trkpt lat="47.48116" lon="-0.58643">
        <ele>19</ele>
        <time>2015-07-07T08:29:38.000Z</time>
      </trkpt>
      <trkpt lat="47.48113" lon="-0.58641">
        <ele>19</ele>
        <time>2015-07-07T08:29:39.000Z</time>
      </trkpt>
      <trkpt lat="47.48111" lon="-0.58639">
        <ele>17</ele>
        <time>2015-07-07T08:29:40.000Z</time>
      </trkpt>
      <trkpt lat="47.48108" lon="-0.58637">
        <ele>16</ele>
        <time>2015-07-07T08:29:41.000Z</time>
      </trkpt>
      <trkpt lat="47.48106" lon="-0.58636">
        <ele>15</ele>
        <time>2015-07-07T08:29:42.000Z</time>
      </trkpt>
      <trkpt lat="47.48103" lon="-0.58634">
        <ele>13</ele>
        <time>2015-07-07T08:29:43.000Z</time>
      </trkpt>
      <trkpt lat="47.48101" lon="-0.58632">
        <ele>13</ele>
        <time>2015-07-07T08:29:44.000Z</time>
      </trkpt>
      <trkpt lat="47.48099" lon="-0.5863">
        <ele>13</ele>
        <time>2015-07-07T08:29:45.000Z</time>
      </trkpt>
      <trkpt lat="47.48097" lon="-0.58628">
        <ele>12</ele>
        <time>2015-07-07T08:29:46.000Z</time>
      </trkpt>
      <trkpt lat="47.48095" lon="-0.58626">
        <ele>11</ele>
        <time>2015-07-07T08:29:47.000Z</time>
      </trkpt>
      <trkpt lat="47.48093" lon="-0.58624">
        <ele>11</ele>
        <time>2015-07-07T08:29:48.000Z</time>
      </trkpt>
      <trkpt lat="47.4809" lon="-0.58623">
        <ele>10</ele>
        <time>2015-07-07T08:29:49.000Z</time>
      </trkpt>
      <trkpt lat="47.48087" lon="-0.58622">
        <ele>10</ele>
        <time>2015-07-07T08:29:50.000Z</time>
      </trkpt>
      <trkpt lat="47.48085" lon="-0.58621">
        <ele>9</ele>
        <time>2015-07-07T08:29:51.000Z</time>
      </trkpt>
      <trkpt lat="47.48082" lon="-0.5862">
        <ele>8</ele>
        <time>2015-07-07T08:29:52.000Z</time>
      </trkpt>
      <trkpt lat="47.4808" lon="-0.58618">
        <ele>8</ele>
        <time>2015-07-07T08:29:53.000Z</time>
      </trkpt>
      <trkpt lat="47.48078" lon="-0.58616">
        <ele>7</ele>
        <time>2015-07-07T08:29:54.000Z</time>
      </trkpt>
      <trkpt lat="47.48075" lon="-0.58614">
        <ele>6</ele>
        <time>2015-07-07T08:29:55.000Z</time>
      </trkpt>
      <trkpt lat="47.48073" lon="-0.58613">
        <ele>5</ele>
        <time>2015-07-07T08:29:56.000Z</time>
      </trkpt>
      <trkpt lat="47.4807" lon="-0.58612">
        <ele>5</ele>
        <time>2015-07-07T08:29:57.000Z</time>
      </trkpt>
      <trkpt lat="47.48068" lon="-0.58611">
        <ele>5</ele>
        <time>2015-07-07T08:29:58.000Z</time>
      </trkpt>
      <trkpt lat="47.48065" lon="-0.5861">
        <ele>5</ele>
        <time>2015-07-07T08:29:59.000Z</time>
      </trkpt>
      <trkpt lat="47.48063" lon="-0.5861">
        <ele>5</ele>
        <time>2015-07-07T08:30:00.000Z</time>
      </trkpt>
      <trkpt lat="47.48061" lon="-0.58609">
        <ele>4</ele>
        <time>2015-07-07T08:30:01.000Z</time>
      </trkpt>
      <trkpt lat="47.48059" lon="-0.58608">
        <ele>4</ele>
        <time>2015-07-07T08:30:02.000Z</time>
      </trkpt>
      <trkpt lat="47.48056" lon="-0.58606">
        <ele>4</ele>
        <time>2015-07-07T08:30:03.000Z</time>
      </trkpt>
      <trkpt lat="47.48054" lon="-0.58604">
        <ele>6</ele>
        <time>2015-07-07T08:30:04.000Z</time>
      </trkpt>
      <trkpt lat="47.48051" lon="-0.58601">
        <ele>8</ele>
        <time>2015-07-07T08:30:05.000Z</time>
      </trkpt>
      <trkpt lat="47.48047" lon="-0.58598">
        <ele>13</ele>
        <time>2015-07-07T08:30:06.000Z</time>
      </trkpt>
      <trkpt lat="47.48043" lon="-0.58593">
        <ele>17</ele>
        <time>2015-07-07T08:30:07.000Z</time>
      </trkpt>
      <trkpt lat="47.48039" lon="-0.5859">
        <ele>18</ele>
        <time>2015-07-07T08:30:08.000Z</time>
      </trkpt>
      <trkpt lat="47.48036" lon="-0.58587">
        <ele>18</ele>
        <time>2015-07-07T08:30:09.000Z</time>
      </trkpt>
      <trkpt lat="47.48033" lon="-0.58586">
        <ele>16</ele>
        <time>2015-07-07T08:30:10.000Z</time>
      </trkpt>
      <trkpt lat="47.4803" lon="-0.58583">
        <ele>17</ele>
        <time>2015-07-07T08:30:11.000Z</time>
      </trkpt>
      <trkpt lat="47.48028" lon="-0.5858">
        <ele>17</ele>
        <time>2015-07-07T08:30:12.000Z</time>
      </trkpt>
      <trkpt lat="47.48026" lon="-0.58577">
        <ele>16</ele>
        <time>2015-07-07T08:30:13.000Z</time>
      </trkpt>
      <trkpt lat="47.48025" lon="-0.58574">
        <ele>15</ele>
        <time>2015-07-07T08:30:14.000Z</time>
      </trkpt>
      <trkpt lat="47.48024" lon="-0.58571">
        <ele>14</ele>
        <time>2015-07-07T08:30:15.000Z</time>
      </trkpt>
      <trkpt lat="47.48022" lon="-0.58567">
        <ele>15</ele>
        <time>2015-07-07T08:30:16.000Z</time>
      </trkpt>
      <trkpt lat="47.48021" lon="-0.58563">
        <ele>15</ele>
        <time>2015-07-07T08:30:17.000Z</time>
      </trkpt>
      <trkpt lat="47.4802" lon="-0.58558">
        <ele>17</ele>
        <time>2015-07-07T08:30:18.000Z</time>
      </trkpt>
      <trkpt lat="47.48018" lon="-0.58553">
        <ele>18</ele>
        <time>2015-07-07T08:30:19.000Z</time>
      </trkpt>
      <trkpt lat="47.48017" lon="-0.58548">
        <ele>18</ele>
        <time>2015-07-07T08:30:20.000Z</time>
      </trkpt>
      <trkpt lat="47.48016" lon="-0.58545">
        <ele>16</ele>
        <time>2015-07-07T08:30:21.000Z</time>
      </trkpt>
      <trkpt lat="47.48015" lon="-0.58542">
        <ele>17</ele>
        <time>2015-07-07T08:30:22.000Z</time>
      </trkpt>
      <trkpt lat="47.48014" lon="-0.5854">
        <ele>18</ele>
        <time>2015-07-07T08:30:23.000Z</time>
      </trkpt>
      <trkpt lat="47.48013" lon="-0.58537">
        <ele>20</ele>
        <time>2015-07-07T08:30:24.000Z</time>
      </trkpt>
      <trkpt lat="47.48011" lon="-0.58534">
        <ele>18</ele>
        <time>2015-07-07T08:30:25.000Z</time>
      </trkpt>
      <trkpt lat="47.48009" lon="-0.58531">
        <ele>18</ele>
        <time>2015-07-07T08:30:26.000Z</time>
      </trkpt>
      <trkpt lat="47.48007" lon="-0.58527">
        <ele>20</ele>
        <time>2015-07-07T08:30:27.000Z</time>
      </trkpt>
      <trkpt lat="47.48005" lon="-0.58522">
        <ele>21</ele>
        <time>2015-07-07T08:30:28.000Z</time>
      </trkpt>
      <trkpt lat="47.48004" lon="-0.58518">
        <ele>24</ele>
        <time>2015-07-07T08:30:29.000Z</time>
      </trkpt>
      <trkpt lat="47.48003" lon="-0.58513">
        <ele>26</ele>
        <time>2015-07-07T08:30:30.000Z</time>
      </trkpt>
      <trkpt lat="47.48001" lon="-0.58509">
        <ele>27</ele>
        <time>2015-07-07T08:30:31.000Z</time>
      </trkpt>
      <trkpt lat="47.48" lon="-0.58504">
        <ele>27</ele>
        <time>2015-07-07T08:30:32.000Z</time>
      </trkpt>
      <trkpt lat="47.47998" lon="-0.585">
        <ele>29</ele>
        <time>2015-07-07T08:30:33.000Z</time>
      </trkpt>
      <trkpt lat="47.47997" lon="-0.58495">
        <ele>30</ele>
        <time>2015-07-07T08:30:34.000Z</time>
      </trkpt>
      <trkpt lat="47.47996" lon="-0.58491">
        <ele>30</ele>
        <time>2015-07-07T08:30:35.000Z</time>
      </trkpt>
      <trkpt lat="47.47995" lon="-0.58488">
        <ele>31</ele>
        <time>2015-07-07T08:30:36.000Z</time>
      </trkpt>
      <trkpt lat="47.47994" lon="-0.58485">
        <ele>33</ele>
        <time>2015-07-07T08:30:37.000Z</time>
      </trkpt>
      <trkpt lat="47.47994" lon="-0.58482">
        <ele>33</ele>
        <time>2015-07-07T08:30:38.000Z</time>
      </trkpt>
      <trkpt lat="47.47993" lon="-0.58478">
        <ele>34</ele>
        <time>2015-07-07T08:30:39.000Z</time>
      </trkpt>
      <trkpt lat="47.47992" lon="-0.58475">
        <ele>34</ele>
        <time>2015-07-07T08:30:40.000Z</time>
      </trkpt>
      <trkpt lat="47.47991" lon="-0.58472">
        <ele>35</ele>
        <time>2015-07-07T08:30:41.000Z</time>
      </trkpt>
      <trkpt lat="47.4799" lon="-0.58468">
        <ele>36</ele>
        <time>2015-07-07T08:30:42.000Z</time>
      </trkpt>
      <trkpt lat="47.47989" lon="-0.58464">
        <ele>37</ele>
        <time>2015-07-07T08:30:43.000Z</time>
      </trkpt>
      <trkpt lat="47.47988" lon="-0.5846">
        <ele>38</ele>
        <time>2015-07-07T08:30:44.000Z</time>
      </trkpt>
      <trkpt lat="47.47987" lon="-0.58456">
        <ele>39</ele>
        <time>2015-07-07T08:30:45.000Z</time>
      </trkpt>
      <trkpt lat="47.47987" lon="-0.58452">
        <ele>38</ele>
        <time>2015-07-07T08:30:46.000Z</time>
      </trkpt>
      <trkpt lat="47.47986" lon="-0.58448">
        <ele>39</ele>
        <time>2015-07-07T08:30:47.000Z</time>
      </trkpt>
      <trkpt lat="47.47986" lon="-0.58444">
        <ele>39</ele>
        <time>2015-07-07T08:30:48.000Z</time>
      </trkpt>
      <trkpt lat="47.47985" lon="-0.5844">
        <ele>39</ele>
        <time>2015-07-07T08:30:49.000Z</time>
      </trkpt>
      <trkpt lat="47.47984" lon="-0.58436">
        <ele>39</ele>
        <time>2015-07-07T08:30:50.000Z</time>
      </trkpt>
      <trkpt lat="47.47983" lon="-0.58431">
        <ele>39</ele>
        <time>2015-07-07T08:30:51.000Z</time>
      </trkpt>
      <trkpt lat="47.47982" lon="-0.58427">
        <ele>39</ele>
        <time>2015-07-07T08:30:52.000Z</time>
      </trkpt>
      <trkpt lat="47.4798" lon="-0.58422">
        <ele>40</ele>
        <time>2015-07-07T08:30:53.000Z</time>
      </trkpt>
      <trkpt lat="47.47979" lon="-0.58418">
        <ele>40</ele>
        <time>2015-07-07T08:30:54.000Z</time>
      </trkpt>
      <trkpt lat="47.47978" lon="-0.58413">
        <ele>40</ele>
        <time>2015-07-07T08:30:55.000Z</time>
      </trkpt>
      <trkpt lat="47.47977" lon="-0.58409">
        <ele>40</ele>
        <time>2015-07-07T08:30:56.000Z</time>
      </trkpt>
      <trkpt lat="47.47975" lon="-0.58405">
        <ele>40</ele>
        <time>2015-07-07T08:30:57.000Z</time>
      </trkpt>
      <trkpt lat="47.47974" lon="-0.58402">
        <ele>39</ele>
        <time>2015-07-07T08:30:58.000Z</time>
      </trkpt>
      <trkpt lat="47.47973" lon="-0.58399">
        <ele>38</ele>
        <time>2015-07-07T08:30:59.000Z</time>
      </trkpt>
      <trkpt lat="47.47972" lon="-0.58396">
        <ele>38</ele>
        <time>2015-07-07T08:31:00.000Z</time>
      </trkpt>
      <trkpt lat="47.47971" lon="-0.58393">
        <ele>39</ele>
        <time>2015-07-07T08:31:01.000Z</time>
      </trkpt>
      <trkpt lat="47.4797" lon="-0.5839">
        <ele>39</ele>
        <time>2015-07-07T08:31:02.000Z</time>
      </trkpt>
      <trkpt lat="47.47968" lon="-0.58388">
        <ele>38</ele>
        <time>2015-07-07T08:31:03.000Z</time>
      </trkpt>
      <trkpt lat="47.47967" lon="-0.58386">
        <ele>38</ele>
        <time>2015-07-07T08:31:04.000Z</time>
      </trkpt>
      <trkpt lat="47.47965" lon="-0.58385">
        <ele>38</ele>
        <time>2015-07-07T08:31:05.000Z</time>
      </trkpt>
      <trkpt lat="47.47963" lon="-0.58383">
        <ele>38</ele>
        <time>2015-07-07T08:31:06.000Z</time>
      </trkpt>
      <trkpt lat="47.47962" lon="-0.58382">
        <ele>37</ele>
        <time>2015-07-07T08:31:07.000Z</time>
      </trkpt>
      <trkpt lat="47.47962" lon="-0.5838">
        <ele>36</ele>
        <time>2015-07-07T08:31:08.000Z</time>
      </trkpt>
      <trkpt lat="47.4796" lon="-0.58379">
        <ele>36</ele>
        <time>2015-07-07T08:31:09.000Z</time>
      </trkpt>
      <trkpt lat="47.47959" lon="-0.58378">
        <ele>34</ele>
        <time>2015-07-07T08:31:10.000Z</time>
      </trkpt>
      <trkpt lat="47.47957" lon="-0.58376">
        <ele>35</ele>
        <time>2015-07-07T08:31:11.000Z</time>
      </trkpt>
      <trkpt lat="47.47956" lon="-0.58375">
        <ele>35</ele>
        <time>2015-07-07T08:31:12.000Z</time>
      </trkpt>
      <trkpt lat="47.47955" lon="-0.58373">
        <ele>35</ele>
        <time>2015-07-07T08:31:13.000Z</time>
      </trkpt>
      <trkpt lat="47.47955" lon="-0.5837">
        <ele>35</ele>
        <time>2015-07-07T08:31:14.000Z</time>
      </trkpt>
      <trkpt lat="47.47954" lon="-0.58367">
        <ele>33</ele>
        <time>2015-07-07T08:31:15.000Z</time>
      </trkpt>
      <trkpt lat="47.47953" lon="-0.58364">
        <ele>30</ele>
        <time>2015-07-07T08:31:16.000Z</time>
      </trkpt>
      <trkpt lat="47.47952" lon="-0.5836">
        <ele>30</ele>
        <time>2015-07-07T08:31:17.000Z</time>
      </trkpt>
      <trkpt lat="47.47951" lon="-0.58356">
        <ele>29</ele>
        <time>2015-07-07T08:31:18.000Z</time>
      </trkpt>
      <trkpt lat="47.47948" lon="-0.58351">
        <ele>29</ele>
        <time>2015-07-07T08:31:19.000Z</time>
      </trkpt>
      <trkpt lat="47.47946" lon="-0.58346">
        <ele>29</ele>
        <time>2015-07-07T08:31:20.000Z</time>
      </trkpt>
      <trkpt lat="47.47944" lon="-0.5834">
        <ele>28</ele>
        <time>2015-07-07T08:31:21.000Z</time>
      </trkpt>
      <trkpt lat="47.47942" lon="-0.58335">
        <ele>27</ele>
        <time>2015-07-07T08:31:22.000Z</time>
      </trkpt>
      <trkpt lat="47.47941" lon="-0.58331">
        <ele>27</ele>
        <time>2015-07-07T08:31:23.000Z</time>
      </trkpt>
      <trkpt lat="47.47938" lon="-0.58327">
        <ele>26</ele>
        <time>2015-07-07T08:31:24.000Z</time>
      </trkpt>
      <trkpt lat="47.47936" lon="-0.58322">
        <ele>26</ele>
        <time>2015-07-07T08:31:25.000Z</time>
      </trkpt>
      <trkpt lat="47.47933" lon="-0.58316">
        <ele>24</ele>
        <time>2015-07-07T08:31:26.000Z</time>
      </trkpt>
      <trkpt lat="47.4793" lon="-0.58311">
        <ele>24</ele>
        <time>2015-07-07T08:31:27.000Z</time>
      </trkpt>
      <trkpt lat="47.47927" lon="-0.58306">
        <ele>25</ele>
        <time>2015-07-07T08:31:28.000Z</time>
      </trkpt>
      <trkpt lat="47.47924" lon="-0.58301">
        <ele>25</ele>
        <time>2015-07-07T08:31:29.000Z</time>
      </trkpt>
      <trkpt lat="47.47922" lon="-0.58296">
        <ele>23</ele>
        <time>2015-07-07T08:31:30.000Z</time>
      </trkpt>
      <trkpt lat="47.4792" lon="-0.58291">
        <ele>22</ele>
        <time>2015-07-07T08:31:31.000Z</time>
      </trkpt>
      <trkpt lat="47.47919" lon="-0.58286">
        <ele>22</ele>
        <time>2015-07-07T08:31:32.000Z</time>
      </trkpt>
      <trkpt lat="47.47917" lon="-0.58281">
        <ele>22</ele>
        <time>2015-07-07T08:31:33.000Z</time>
      </trkpt>
      <trkpt lat="47.47917" lon="-0.58277">
        <ele>23</ele>
        <time>2015-07-07T08:31:34.000Z</time>
      </trkpt>
      <trkpt lat="47.47917" lon="-0.58273">
        <ele>26</ele>
        <time>2015-07-07T08:31:35.000Z</time>
      </trkpt>
      <trkpt lat="47.47918" lon="-0.58269">
        <ele>28</ele>
        <time>2015-07-07T08:31:36.000Z</time>
      </trkpt>
      <trkpt lat="47.47918" lon="-0.58266">
        <ele>29</ele>
        <time>2015-07-07T08:31:37.000Z</time>
      </trkpt>
      <trkpt lat="47.47916" lon="-0.58263">
        <ele>29</ele>
        <time>2015-07-07T08:31:38.000Z</time>
      </trkpt>
      <trkpt lat="47.47914" lon="-0.5826">
        <ele>29</ele>
        <time>2015-07-07T08:31:39.000Z</time>
      </trkpt>
      <trkpt lat="47.47913" lon="-0.58258">
        <ele>32</ele>
        <time>2015-07-07T08:31:40.000Z</time>
      </trkpt>
      <trkpt lat="47.47914" lon="-0.58257">
        <ele>33</ele>
        <time>2015-07-07T08:31:41.000Z</time>
      </trkpt>
      <trkpt lat="47.47913" lon="-0.58256">
        <ele>34</ele>
        <time>2015-07-07T08:31:42.000Z</time>
      </trkpt>
      <trkpt lat="47.47913" lon="-0.58255">
        <ele>33</ele>
        <time>2015-07-07T08:31:43.000Z</time>
      </trkpt>
      <trkpt lat="47.47911" lon="-0.58254">
        <ele>33</ele>
        <time>2015-07-07T08:31:44.000Z</time>
      </trkpt>
      <trkpt lat="47.47909" lon="-0.58253">
        <ele>33</ele>
        <time>2015-07-07T08:31:45.000Z</time>
      </trkpt>
      <trkpt lat="47.47907" lon="-0.58252">
        <ele>33</ele>
        <time>2015-07-07T08:31:46.000Z</time>
      </trkpt>
      <trkpt lat="47.47905" lon="-0.58251">
        <ele>33</ele>
        <time>2015-07-07T08:31:47.000Z</time>
      </trkpt>
      <trkpt lat="47.47902" lon="-0.58248">
        <ele>33</ele>
        <time>2015-07-07T08:31:48.000Z</time>
      </trkpt>
      <trkpt lat="47.47899" lon="-0.58245">
        <ele>32</ele>
        <time>2015-07-07T08:31:49.000Z</time>
      </trkpt>
      <trkpt lat="47.47895" lon="-0.58242">
        <ele>32</ele>
        <time>2015-07-07T08:31:50.000Z</time>
      </trkpt>
      <trkpt lat="47.47892" lon="-0.58238">
        <ele>32</ele>
        <time>2015-07-07T08:31:51.000Z</time>
      </trkpt>
      <trkpt lat="47.47888" lon="-0.58233">
        <ele>31</ele>
        <time>2015-07-07T08:31:52.000Z</time>
      </trkpt>
      <trkpt lat="47.47884" lon="-0.58228">
        <ele>28</ele>
        <time>2015-07-07T08:31:53.000Z</time>
      </trkpt>
      <trkpt lat="47.47881" lon="-0.58224">
        <ele>27</ele>
        <time>2015-07-07T08:31:54.000Z</time>
      </trkpt>
      <trkpt lat="47.47879" lon="-0.5822">
        <ele>26</ele>
        <time>2015-07-07T08:31:55.000Z</time>
      </trkpt>
      <trkpt lat="47.47876" lon="-0.58217">
        <ele>25</ele>
        <time>2015-07-07T08:31:56.000Z</time>
      </trkpt>
      <trkpt lat="47.47875" lon="-0.58212">
        <ele>24</ele>
        <time>2015-07-07T08:31:57.000Z</time>
      </trkpt>
      <trkpt lat="47.47872" lon="-0.58207">
        <ele>22</ele>
        <time>2015-07-07T08:31:58.000Z</time>
      </trkpt>
      <trkpt lat="47.47871" lon="-0.58202">
        <ele>22</ele>
        <time>2015-07-07T08:31:59.000Z</time>
      </trkpt>
      <trkpt lat="47.47869" lon="-0.58198">
        <ele>21</ele>
        <time>2015-07-07T08:32:00.000Z</time>
      </trkpt>
      <trkpt lat="47.47868" lon="-0.58193">
        <ele>21</ele>
        <time>2015-07-07T08:32:01.000Z</time>
      </trkpt>
      <trkpt lat="47.47866" lon="-0.58188">
        <ele>20</ele>
        <time>2015-07-07T08:32:02.000Z</time>
      </trkpt>
      <trkpt lat="47.47864" lon="-0.58183">
        <ele>21</ele>
        <time>2015-07-07T08:32:03.000Z</time>
      </trkpt>
      <trkpt lat="47.47862" lon="-0.58177">
        <ele>20</ele>
        <time>2015-07-07T08:32:04.000Z</time>
      </trkpt>
      <trkpt lat="47.47858" lon="-0.58172">
        <ele>20</ele>
        <time>2015-07-07T08:32:05.000Z</time>
      </trkpt>
      <trkpt lat="47.47855" lon="-0.58167">
        <ele>20</ele>
        <time>2015-07-07T08:32:06.000Z</time>
      </trkpt>
      <trkpt lat="47.47853" lon="-0.58163">
        <ele>19</ele>
        <time>2015-07-07T08:32:07.000Z</time>
      </trkpt>
      <trkpt lat="47.47851" lon="-0.58159">
        <ele>18</ele>
        <time>2015-07-07T08:32:08.000Z</time>
      </trkpt>
      <trkpt lat="47.4785" lon="-0.58155">
        <ele>17</ele>
        <time>2015-07-07T08:32:09.000Z</time>
      </trkpt>
      <trkpt lat="47.47847" lon="-0.5815">
        <ele>16</ele>
        <time>2015-07-07T08:32:10.000Z</time>
      </trkpt>
      <trkpt lat="47.47846" lon="-0.58146">
        <ele>17</ele>
        <time>2015-07-07T08:32:11.000Z</time>
      </trkpt>
      <trkpt lat="47.47845" lon="-0.58141">
        <ele>17</ele>
        <time>2015-07-07T08:32:12.000Z</time>
      </trkpt>
      <trkpt lat="47.47846" lon="-0.58136">
        <ele>17</ele>
        <time>2015-07-07T08:32:13.000Z</time>
      </trkpt>
      <trkpt lat="47.47847" lon="-0.58132">
        <ele>19</ele>
        <time>2015-07-07T08:32:14.000Z</time>
      </trkpt>
      <trkpt lat="47.47848" lon="-0.58128">
        <ele>19</ele>
        <time>2015-07-07T08:32:15.000Z</time>
      </trkpt>
      <trkpt lat="47.47849" lon="-0.58124">
        <ele>20</ele>
        <time>2015-07-07T08:32:16.000Z</time>
      </trkpt>
      <trkpt lat="47.4785" lon="-0.5812">
        <ele>20</ele>
        <time>2015-07-07T08:32:17.000Z</time>
      </trkpt>
      <trkpt lat="47.47851" lon="-0.58116">
        <ele>21</ele>
        <time>2015-07-07T08:32:18.000Z</time>
      </trkpt>
      <trkpt lat="47.47851" lon="-0.58113">
        <ele>22</ele>
        <time>2015-07-07T08:32:19.000Z</time>
      </trkpt>
      <trkpt lat="47.47851" lon="-0.5811">
        <ele>23</ele>
        <time>2015-07-07T08:32:20.000Z</time>
      </trkpt>
      <trkpt lat="47.47851" lon="-0.58107">
        <ele>23</ele>
        <time>2015-07-07T08:32:21.000Z</time>
      </trkpt>
      <trkpt lat="47.4785" lon="-0.58105">
        <ele>23</ele>
        <time>2015-07-07T08:32:22.000Z</time>
      </trkpt>
      <trkpt lat="47.4785" lon="-0.58102">
        <ele>23</ele>
        <time>2015-07-07T08:32:23.000Z</time>
      </trkpt>
      <trkpt lat="47.47849" lon="-0.58099">
        <ele>23</ele>
        <time>2015-07-07T08:32:24.000Z</time>
      </trkpt>
      <trkpt lat="47.47849" lon="-0.58096">
        <ele>23</ele>
        <time>2015-07-07T08:32:25.000Z</time>
      </trkpt>
      <trkpt lat="47.47848" lon="-0.58093">
        <ele>23</ele>
        <time>2015-07-07T08:32:26.000Z</time>
      </trkpt>
      <trkpt lat="47.47847" lon="-0.5809">
        <ele>23</ele>
        <time>2015-07-07T08:32:27.000Z</time>
      </trkpt>
      <trkpt lat="47.47846" lon="-0.58088">
        <ele>23</ele>
        <time>2015-07-07T08:32:28.000Z</time>
      </trkpt>
      <trkpt lat="47.47844" lon="-0.58085">
        <ele>23</ele>
        <time>2015-07-07T08:32:29.000Z</time>
      </trkpt>
      <trkpt lat="47.47842" lon="-0.58083">
        <ele>23</ele>
        <time>2015-07-07T08:32:30.000Z</time>
      </trkpt>
      <trkpt lat="47.4784" lon="-0.58081">
        <ele>23</ele>
        <time>2015-07-07T08:32:31.000Z</time>
      </trkpt>
      <trkpt lat="47.47838" lon="-0.58079">
        <ele>23</ele>
        <time>2015-07-07T08:32:32.000Z</time>
      </trkpt>
      <trkpt lat="47.47836" lon="-0.58077">
        <ele>23</ele>
        <time>2015-07-07T08:32:33.000Z</time>
      </trkpt>
      <trkpt lat="47.47834" lon="-0.58075">
        <ele>23</ele>
        <time>2015-07-07T08:32:34.000Z</time>
      </trkpt>
      <trkpt lat="47.47831" lon="-0.58074">
        <ele>23</ele>
        <time>2015-07-07T08:32:35.000Z</time>
      </trkpt>
      <trkpt lat="47.47829" lon="-0.58074">
        <ele>23</ele>
        <time>2015-07-07T08:32:36.000Z</time>
      </trkpt>
      <trkpt lat="47.47826" lon="-0.58075">
        <ele>24</ele>
        <time>2015-07-07T08:32:37.000Z</time>
      </trkpt>
      <trkpt lat="47.47824" lon="-0.58077">
        <ele>24</ele>
        <time>2015-07-07T08:32:38.000Z</time>
      </trkpt>
      <trkpt lat="47.47822" lon="-0.58079">
        <ele>23</ele>
        <time>2015-07-07T08:32:39.000Z</time>
      </trkpt>
      <trkpt lat="47.47819" lon="-0.58082">
        <ele>24</ele>
        <time>2015-07-07T08:32:40.000Z</time>
      </trkpt>
      <trkpt lat="47.47817" lon="-0.58085">
        <ele>24</ele>
        <time>2015-07-07T08:32:41.000Z</time>
      </trkpt>
      <trkpt lat="47.47815" lon="-0.58087">
        <ele>24</ele>
        <time>2015-07-07T08:32:42.000Z</time>
      </trkpt>
      <trkpt lat="47.47813" lon="-0.58089">
        <ele>24</ele>
        <time>2015-07-07T08:32:43.000Z</time>
      </trkpt>
      <trkpt lat="47.47811" lon="-0.58091">
        <ele>24</ele>
        <time>2015-07-07T08:32:44.000Z</time>
      </trkpt>
      <trkpt lat="47.47809" lon="-0.58093">
        <ele>25</ele>
        <time>2015-07-07T08:32:45.000Z</time>
      </trkpt>
      <trkpt lat="47.47807" lon="-0.58095">
        <ele>25</ele>
        <time>2015-07-07T08:32:46.000Z</time>
      </trkpt>
      <trkpt lat="47.47805" lon="-0.58097">
        <ele>25</ele>
        <time>2015-07-07T08:32:47.000Z</time>
      </trkpt>
      <trkpt lat="47.47803" lon="-0.58099">
        <ele>24</ele>
        <time>2015-07-07T08:32:48.000Z</time>
      </trkpt>
      <trkpt lat="47.47801" lon="-0.58101">
        <ele>24</ele>
        <time>2015-07-07T08:32:49.000Z</time>
      </trkpt>
      <trkpt lat="47.47799" lon="-0.58104">
        <ele>24</ele>
        <time>2015-07-07T08:32:50.000Z</time>
      </trkpt>
      <trkpt lat="47.47797" lon="-0.58107">
        <ele>24</ele>
        <time>2015-07-07T08:32:51.000Z</time>
      </trkpt>
      <trkpt lat="47.47796" lon="-0.58111">
        <ele>24</ele>
        <time>2015-07-07T08:32:52.000Z</time>
      </trkpt>
      <trkpt lat="47.47794" lon="-0.58114">
        <ele>24</ele>
        <time>2015-07-07T08:32:53.000Z</time>
      </trkpt>
      <trkpt lat="47.47792" lon="-0.58117">
        <ele>24</ele>
        <time>2015-07-07T08:32:54.000Z</time>
      </trkpt>
      <trkpt lat="47.4779" lon="-0.5812">
        <ele>24</ele>
        <time>2015-07-07T08:32:55.000Z</time>
      </trkpt>
      <trkpt lat="47.47788" lon="-0.58123">
        <ele>24</ele>
        <time>2015-07-07T08:32:56.000Z</time>
      </trkpt>
      <trkpt lat="47.47785" lon="-0.58126">
        <ele>24</ele>
        <time>2015-07-07T08:32:57.000Z</time>
      </trkpt>
      <trkpt lat="47.47783" lon="-0.58129">
        <ele>24</ele>
        <time>2015-07-07T08:32:58.000Z</time>
      </trkpt>
      <trkpt lat="47.4778" lon="-0.58131">
        <ele>25</ele>
        <time>2015-07-07T08:32:59.000Z</time>
      </trkpt>
      <trkpt lat="47.47778" lon="-0.58134">
        <ele>25</ele>
        <time>2015-07-07T08:33:00.000Z</time>
      </trkpt>
      <trkpt lat="47.47775" lon="-0.58136">
        <ele>25</ele>
        <time>2015-07-07T08:33:01.000Z</time>
      </trkpt>
      <trkpt lat="47.47773" lon="-0.58139">
        <ele>25</ele>
        <time>2015-07-07T08:33:02.000Z</time>
      </trkpt>
      <trkpt lat="47.4777" lon="-0.58141">
        <ele>25</ele>
        <time>2015-07-07T08:33:03.000Z</time>
      </trkpt>
      <trkpt lat="47.47768" lon="-0.58144">
        <ele>26</ele>
        <time>2015-07-07T08:33:04.000Z</time>
      </trkpt>
      <trkpt lat="47.47765" lon="-0.58146">
        <ele>26</ele>
        <time>2015-07-07T08:33:05.000Z</time>
      </trkpt>
      <trkpt lat="47.47764" lon="-0.58149">
        <ele>26</ele>
        <time>2015-07-07T08:33:06.000Z</time>
      </trkpt>
      <trkpt lat="47.47763" lon="-0.58151">
        <ele>26</ele>
        <time>2015-07-07T08:33:07.000Z</time>
      </trkpt>
      <trkpt lat="47.47761" lon="-0.58153">
        <ele>27</ele>
        <time>2015-07-07T08:33:08.000Z</time>
      </trkpt>
      <trkpt lat="47.47759" lon="-0.58156">
        <ele>27</ele>
        <time>2015-07-07T08:33:09.000Z</time>
      </trkpt>
      <trkpt lat="47.47757" lon="-0.58158">
        <ele>27</ele>
        <time>2015-07-07T08:33:10.000Z</time>
      </trkpt>
      <trkpt lat="47.47755" lon="-0.5816">
        <ele>27</ele>
        <time>2015-07-07T08:33:11.000Z</time>
      </trkpt>
      <trkpt lat="47.47752" lon="-0.58162">
        <ele>28</ele>
        <time>2015-07-07T08:33:12.000Z</time>
      </trkpt>
      <trkpt lat="47.4775" lon="-0.58164">
        <ele>28</ele>
        <time>2015-07-07T08:33:13.000Z</time>
      </trkpt>
      <trkpt lat="47.47748" lon="-0.58167">
        <ele>28</ele>
        <time>2015-07-07T08:33:14.000Z</time>
      </trkpt>
      <trkpt lat="47.47746" lon="-0.58169">
        <ele>28</ele>
        <time>2015-07-07T08:33:15.000Z</time>
      </trkpt>
      <trkpt lat="47.47744" lon="-0.58172">
        <ele>29</ele>
        <time>2015-07-07T08:33:16.000Z</time>
      </trkpt>
      <trkpt lat="47.47742" lon="-0.58176">
        <ele>29</ele>
        <time>2015-07-07T08:33:17.000Z</time>
      </trkpt>
      <trkpt lat="47.4774" lon="-0.58179">
        <ele>29</ele>
        <time>2015-07-07T08:33:18.000Z</time>
      </trkpt>
      <trkpt lat="47.47738" lon="-0.58182">
        <ele>30</ele>
        <time>2015-07-07T08:33:19.000Z</time>
      </trkpt>
      <trkpt lat="47.47736" lon="-0.58184">
        <ele>30</ele>
        <time>2015-07-07T08:33:20.000Z</time>
      </trkpt>
      <trkpt lat="47.47734" lon="-0.58188">
        <ele>30</ele>
        <time>2015-07-07T08:33:21.000Z</time>
      </trkpt>
      <trkpt lat="47.47732" lon="-0.58191">
        <ele>31</ele>
        <time>2015-07-07T08:33:22.000Z</time>
      </trkpt>
      <trkpt lat="47.4773" lon="-0.58195">
        <ele>31</ele>
        <time>2015-07-07T08:33:23.000Z</time>
      </trkpt>
      <trkpt lat="47.47727" lon="-0.58199">
        <ele>31</ele>
        <time>2015-07-07T08:33:24.000Z</time>
      </trkpt>
      <trkpt lat="47.47725" lon="-0.58202">
        <ele>31</ele>
        <time>2015-07-07T08:33:25.000Z</time>
      </trkpt>
      <trkpt lat="47.47724" lon="-0.58205">
        <ele>32</ele>
        <time>2015-07-07T08:33:26.000Z</time>
      </trkpt>
      <trkpt lat="47.47722" lon="-0.58208">
        <ele>32</ele>
        <time>2015-07-07T08:33:27.000Z</time>
      </trkpt>
      <trkpt lat="47.4772" lon="-0.5821">
        <ele>33</ele>
        <time>2015-07-07T08:33:28.000Z</time>
      </trkpt>
      <trkpt lat="47.47718" lon="-0.58212">
        <ele>33</ele>
        <time>2015-07-07T08:33:29.000Z</time>
      </trkpt>
      <trkpt lat="47.47716" lon="-0.58215">
        <ele>34</ele>
        <time>2015-07-07T08:33:30.000Z</time>
      </trkpt>
      <trkpt lat="47.47713" lon="-0.58218">
        <ele>34</ele>
        <time>2015-07-07T08:33:31.000Z</time>
      </trkpt>
      <trkpt lat="47.47711" lon="-0.58221">
        <ele>34</ele>
        <time>2015-07-07T08:33:32.000Z</time>
      </trkpt>
      <trkpt lat="47.47709" lon="-0.58224">
        <ele>35</ele>
        <time>2015-07-07T08:33:33.000Z</time>
      </trkpt>
      <trkpt lat="47.47707" lon="-0.58226">
        <ele>35</ele>
        <time>2015-07-07T08:33:34.000Z</time>
      </trkpt>
      <trkpt lat="47.47704" lon="-0.58228">
        <ele>35</ele>
        <time>2015-07-07T08:33:35.000Z</time>
      </trkpt>
      <trkpt lat="47.47701" lon="-0.5823">
        <ele>35</ele>
        <time>2015-07-07T08:33:36.000Z</time>
      </trkpt>
      <trkpt lat="47.47698" lon="-0.58232">
        <ele>35</ele>
        <time>2015-07-07T08:33:37.000Z</time>
      </trkpt>
      <trkpt lat="47.47696" lon="-0.58234">
        <ele>35</ele>
        <time>2015-07-07T08:33:38.000Z</time>
      </trkpt>
      <trkpt lat="47.47693" lon="-0.58235">
        <ele>35</ele>
        <time>2015-07-07T08:33:39.000Z</time>
      </trkpt>
      <trkpt lat="47.47691" lon="-0.58237">
        <ele>35</ele>
        <time>2015-07-07T08:33:40.000Z</time>
      </trkpt>
      <trkpt lat="47.47689" lon="-0.58238">
        <ele>35</ele>
        <time>2015-07-07T08:33:41.000Z</time>
      </trkpt>
      <trkpt lat="47.47687" lon="-0.5824">
        <ele>35</ele>
        <time>2015-07-07T08:33:42.000Z</time>
      </trkpt>
      <trkpt lat="47.47685" lon="-0.58242">
        <ele>35</ele>
        <time>2015-07-07T08:33:43.000Z</time>
      </trkpt>
      <trkpt lat="47.47683" lon="-0.58243">
        <ele>35</ele>
        <time>2015-07-07T08:33:44.000Z</time>
      </trkpt>
      <trkpt lat="47.4768" lon="-0.58246">
        <ele>35</ele>
        <time>2015-07-07T08:33:45.000Z</time>
      </trkpt>
      <trkpt lat="47.47677" lon="-0.58248">
        <ele>36</ele>
        <time>2015-07-07T08:33:46.000Z</time>
      </trkpt>
      <trkpt lat="47.47674" lon="-0.5825">
        <ele>35</ele>
        <time>2015-07-07T08:33:47.000Z</time>
      </trkpt>
      <trkpt lat="47.47671" lon="-0.58251">
        <ele>35</ele>
        <time>2015-07-07T08:33:48.000Z</time>
      </trkpt>
      <trkpt lat="47.47669" lon="-0.58251">
        <ele>34</ele>
        <time>2015-07-07T08:33:49.000Z</time>
      </trkpt>
      <trkpt lat="47.47666" lon="-0.58252">
        <ele>34</ele>
        <time>2015-07-07T08:33:50.000Z</time>
      </trkpt>
      <trkpt lat="47.47663" lon="-0.58253">
        <ele>33</ele>
        <time>2015-07-07T08:33:51.000Z</time>
      </trkpt>
      <trkpt lat="47.4766" lon="-0.58254">
        <ele>33</ele>
        <time>2015-07-07T08:33:52.000Z</time>
      </trkpt>
      <trkpt lat="47.47657" lon="-0.58255">
        <ele>32</ele>
        <time>2015-07-07T08:33:53.000Z</time>
      </trkpt>
      <trkpt lat="47.47654" lon="-0.58256">
        <ele>33</ele>
        <time>2015-07-07T08:33:54.000Z</time>
      </trkpt>
      <trkpt lat="47.47651" lon="-0.58258">
        <ele>33</ele>
        <time>2015-07-07T08:33:55.000Z</time>
      </trkpt>
      <trkpt lat="47.47648" lon="-0.5826">
        <ele>34</ele>
        <time>2015-07-07T08:33:56.000Z</time>
      </trkpt>
      <trkpt lat="47.47645" lon="-0.58263">
        <ele>35</ele>
        <time>2015-07-07T08:33:57.000Z</time>
      </trkpt>
      <trkpt lat="47.47643" lon="-0.58265">
        <ele>35</ele>
        <time>2015-07-07T08:33:58.000Z</time>
      </trkpt>
      <trkpt lat="47.4764" lon="-0.58268">
        <ele>36</ele>
        <time>2015-07-07T08:33:59.000Z</time>
      </trkpt>
      <trkpt lat="47.47638" lon="-0.5827">
        <ele>36</ele>
        <time>2015-07-07T08:34:00.000Z</time>
      </trkpt>
      <trkpt lat="47.47635" lon="-0.58272">
        <ele>35</ele>
        <time>2015-07-07T08:34:01.000Z</time>
      </trkpt>
      <trkpt lat="47.47633" lon="-0.58274">
        <ele>35</ele>
        <time>2015-07-07T08:34:02.000Z</time>
      </trkpt>
      <trkpt lat="47.47631" lon="-0.58277">
        <ele>35</ele>
        <time>2015-07-07T08:34:03.000Z</time>
      </trkpt>
      <trkpt lat="47.47629" lon="-0.58279">
        <ele>34</ele>
        <time>2015-07-07T08:34:04.000Z</time>
      </trkpt>
      <trkpt lat="47.47627" lon="-0.58281">
        <ele>35</ele>
        <time>2015-07-07T08:34:05.000Z</time>
      </trkpt>
      <trkpt lat="47.47624" lon="-0.58284">
        <ele>35</ele>
        <time>2015-07-07T08:34:06.000Z</time>
      </trkpt>
      <trkpt lat="47.47623" lon="-0.58286">
        <ele>34</ele>
        <time>2015-07-07T08:34:07.000Z</time>
      </trkpt>
      <trkpt lat="47.47621" lon="-0.58289">
        <ele>35</ele>
        <time>2015-07-07T08:34:08.000Z</time>
      </trkpt>
      <trkpt lat="47.47619" lon="-0.58292">
        <ele>35</ele>
        <time>2015-07-07T08:34:09.000Z</time>
      </trkpt>
      <trkpt lat="47.47616" lon="-0.58294">
        <ele>33</ele>
        <time>2015-07-07T08:34:10.000Z</time>
      </trkpt>
      <trkpt lat="47.47613" lon="-0.58295">
        <ele>33</ele>
        <time>2015-07-07T08:34:11.000Z</time>
      </trkpt>
      <trkpt lat="47.4761" lon="-0.58295">
        <ele>33</ele>
        <time>2015-07-07T08:34:12.000Z</time>
      </trkpt>
      <trkpt lat="47.47607" lon="-0.58294">
        <ele>32</ele>
        <time>2015-07-07T08:34:13.000Z</time>
      </trkpt>
      <trkpt lat="47.47605" lon="-0.58294">
        <ele>27</ele>
        <time>2015-07-07T08:34:14.000Z</time>
      </trkpt>
      <trkpt lat="47.47603" lon="-0.58295">
        <ele>27</ele>
        <time>2015-07-07T08:34:15.000Z</time>
      </trkpt>
      <trkpt lat="47.476" lon="-0.58295">
        <ele>26</ele>
        <time>2015-07-07T08:34:16.000Z</time>
      </trkpt>
      <trkpt lat="47.47598" lon="-0.58294">
        <ele>26</ele>
        <time>2015-07-07T08:34:17.000Z</time>
      </trkpt>
      <trkpt lat="47.47595" lon="-0.58294">
        <ele>25</ele>
        <time>2015-07-07T08:34:18.000Z</time>
      </trkpt>
      <trkpt lat="47.47593" lon="-0.58293">
        <ele>25</ele>
        <time>2015-07-07T08:34:19.000Z</time>
      </trkpt>
      <trkpt lat="47.47591" lon="-0.58293">
        <ele>25</ele>
        <time>2015-07-07T08:34:20.000Z</time>
      </trkpt>
      <trkpt lat="47.47589" lon="-0.58293">
        <ele>25</ele>
        <time>2015-07-07T08:34:21.000Z</time>
      </trkpt>
      <trkpt lat="47.47586" lon="-0.58292">
        <ele>26</ele>
        <time>2015-07-07T08:34:22.000Z</time>
      </trkpt>
      <trkpt lat="47.47584" lon="-0.58292">
        <ele>25</ele>
        <time>2015-07-07T08:34:23.000Z</time>
      </trkpt>
      <trkpt lat="47.47582" lon="-0.58291">
        <ele>25</ele>
        <time>2015-07-07T08:34:24.000Z</time>
      </trkpt>
      <trkpt lat="47.47579" lon="-0.58291">
        <ele>25</ele>
        <time>2015-07-07T08:34:25.000Z</time>
      </trkpt>
      <trkpt lat="47.47577" lon="-0.58291">
        <ele>24</ele>
        <time>2015-07-07T08:34:26.000Z</time>
      </trkpt>
      <trkpt lat="47.47575" lon="-0.58291">
        <ele>23</ele>
        <time>2015-07-07T08:34:27.000Z</time>
      </trkpt>
      <trkpt lat="47.47573" lon="-0.58292">
        <ele>23</ele>
        <time>2015-07-07T08:34:28.000Z</time>
      </trkpt>
      <trkpt lat="47.47571" lon="-0.58292">
        <ele>23</ele>
        <time>2015-07-07T08:34:29.000Z</time>
      </trkpt>
      <trkpt lat="47.4757" lon="-0.58292">
        <ele>24</ele>
        <time>2015-07-07T08:34:30.000Z</time>
      </trkpt>
      <trkpt lat="47.47567" lon="-0.58292">
        <ele>25</ele>
        <time>2015-07-07T08:34:31.000Z</time>
      </trkpt>
      <trkpt lat="47.47565" lon="-0.58291">
        <ele>25</ele>
        <time>2015-07-07T08:34:32.000Z</time>
      </trkpt>
      <trkpt lat="47.47563" lon="-0.5829">
        <ele>25</ele>
        <time>2015-07-07T08:34:33.000Z</time>
      </trkpt>
      <trkpt lat="47.4756" lon="-0.5829">
        <ele>25</ele>
        <time>2015-07-07T08:34:34.000Z</time>
      </trkpt>
      <trkpt lat="47.47558" lon="-0.58289">
        <ele>24</ele>
        <time>2015-07-07T08:34:35.000Z</time>
      </trkpt>
      <trkpt lat="47.47555" lon="-0.58287">
        <ele>23</ele>
        <time>2015-07-07T08:34:36.000Z</time>
      </trkpt>
      <trkpt lat="47.47553" lon="-0.58285">
        <ele>23</ele>
        <time>2015-07-07T08:34:37.000Z</time>
      </trkpt>
      <trkpt lat="47.4755" lon="-0.58283">
        <ele>22</ele>
        <time>2015-07-07T08:34:38.000Z</time>
      </trkpt>
      <trkpt lat="47.47548" lon="-0.5828">
        <ele>22</ele>
        <time>2015-07-07T08:34:39.000Z</time>
      </trkpt>
      <trkpt lat="47.47546" lon="-0.58277">
        <ele>21</ele>
        <time>2015-07-07T08:34:40.000Z</time>
      </trkpt>
      <trkpt lat="47.47544" lon="-0.58274">
        <ele>19</ele>
        <time>2015-07-07T08:34:41.000Z</time>
      </trkpt>
      <trkpt lat="47.47542" lon="-0.58272">
        <ele>18</ele>
        <time>2015-07-07T08:34:42.000Z</time>
      </trkpt>
      <trkpt lat="47.4754" lon="-0.5827">
        <ele>18</ele>
        <time>2015-07-07T08:34:43.000Z</time>
      </trkpt>
      <trkpt lat="47.47538" lon="-0.58268">
        <ele>19</ele>
        <time>2015-07-07T08:34:44.000Z</time>
      </trkpt>
      <trkpt lat="47.47535" lon="-0.58265">
        <ele>20</ele>
        <time>2015-07-07T08:34:45.000Z</time>
      </trkpt>
      <trkpt lat="47.47533" lon="-0.58261">
        <ele>19</ele>
        <time>2015-07-07T08:34:46.000Z</time>
      </trkpt>
      <trkpt lat="47.4753" lon="-0.58256">
        <ele>18</ele>
        <time>2015-07-07T08:34:47.000Z</time>
      </trkpt>
      <trkpt lat="47.47529" lon="-0.58251">
        <ele>16</ele>
        <time>2015-07-07T08:34:48.000Z</time>
      </trkpt>
      <trkpt lat="47.47528" lon="-0.58246">
        <ele>13</ele>
        <time>2015-07-07T08:34:49.000Z</time>
      </trkpt>
      <trkpt lat="47.47526" lon="-0.58241">
        <ele>11</ele>
        <time>2015-07-07T08:34:50.000Z</time>
      </trkpt>
      <trkpt lat="47.47524" lon="-0.58236">
        <ele>10</ele>
        <time>2015-07-07T08:34:51.000Z</time>
      </trkpt>
      <trkpt lat="47.47522" lon="-0.5823">
        <ele>10</ele>
        <time>2015-07-07T08:34:52.000Z</time>
      </trkpt>
      <trkpt lat="47.4752" lon="-0.58225">
        <ele>10</ele>
        <time>2015-07-07T08:34:53.000Z</time>
      </trkpt>
      <trkpt lat="47.47518" lon="-0.58219">
        <ele>9</ele>
        <time>2015-07-07T08:34:54.000Z</time>
      </trkpt>
      <trkpt lat="47.47516" lon="-0.58213">
        <ele>10</ele>
        <time>2015-07-07T08:34:55.000Z</time>
      </trkpt>
      <trkpt lat="47.47515" lon="-0.58208">
        <ele>10</ele>
        <time>2015-07-07T08:34:56.000Z</time>
      </trkpt>
      <trkpt lat="47.47514" lon="-0.58202">
        <ele>9</ele>
        <time>2015-07-07T08:34:57.000Z</time>
      </trkpt>
      <trkpt lat="47.47512" lon="-0.58198">
        <ele>9</ele>
        <time>2015-07-07T08:34:58.000Z</time>
      </trkpt>
      <trkpt lat="47.47511" lon="-0.58193">
        <ele>9</ele>
        <time>2015-07-07T08:34:59.000Z</time>
      </trkpt>
      <trkpt lat="47.4751" lon="-0.58189">
        <ele>9</ele>
        <time>2015-07-07T08:35:00.000Z</time>
      </trkpt>
      <trkpt lat="47.47509" lon="-0.58185">
        <ele>8</ele>
        <time>2015-07-07T08:35:01.000Z</time>
      </trkpt>
      <trkpt lat="47.4751" lon="-0.58182">
        <ele>11</ele>
        <time>2015-07-07T08:35:02.000Z</time>
      </trkpt>
      <trkpt lat="47.47513" lon="-0.5818">
        <ele>15</ele>
        <time>2015-07-07T08:35:03.000Z</time>
      </trkpt>
      <trkpt lat="47.47515" lon="-0.58179">
        <ele>16</ele>
        <time>2015-07-07T08:35:04.000Z</time>
      </trkpt>
      <trkpt lat="47.47517" lon="-0.58177">
        <ele>17</ele>
        <time>2015-07-07T08:35:05.000Z</time>
      </trkpt>
      <trkpt lat="47.47518" lon="-0.58175">
        <ele>18</ele>
        <time>2015-07-07T08:35:06.000Z</time>
      </trkpt>
      <trkpt lat="47.47519" lon="-0.58173">
        <ele>18</ele>
        <time>2015-07-07T08:35:07.000Z</time>
      </trkpt>
      <trkpt lat="47.47519" lon="-0.5817">
        <ele>19</ele>
        <time>2015-07-07T08:35:08.000Z</time>
      </trkpt>
      <trkpt lat="47.47519" lon="-0.58166">
        <ele>19</ele>
        <time>2015-07-07T08:35:09.000Z</time>
      </trkpt>
      <trkpt lat="47.47518" lon="-0.58163">
        <ele>20</ele>
        <time>2015-07-07T08:35:10.000Z</time>
      </trkpt>
      <trkpt lat="47.47518" lon="-0.5816">
        <ele>20</ele>
        <time>2015-07-07T08:35:11.000Z</time>
      </trkpt>
      <trkpt lat="47.47518" lon="-0.58156">
        <ele>19</ele>
        <time>2015-07-07T08:35:12.000Z</time>
      </trkpt>
      <trkpt lat="47.47518" lon="-0.58152">
        <ele>19</ele>
        <time>2015-07-07T08:35:13.000Z</time>
      </trkpt>
      <trkpt lat="47.47518" lon="-0.58148">
        <ele>20</ele>
        <time>2015-07-07T08:35:14.000Z</time>
      </trkpt>
      <trkpt lat="47.47518" lon="-0.58144">
        <ele>19</ele>
        <time>2015-07-07T08:35:15.000Z</time>
      </trkpt>
      <trkpt lat="47.47517" lon="-0.58139">
        <ele>20</ele>
        <time>2015-07-07T08:35:16.000Z</time>
      </trkpt>
      <trkpt lat="47.47517" lon="-0.58134">
        <ele>21</ele>
        <time>2015-07-07T08:35:17.000Z</time>
      </trkpt>
      <trkpt lat="47.47517" lon="-0.5813">
        <ele>21</ele>
        <time>2015-07-07T08:35:18.000Z</time>
      </trkpt>
      <trkpt lat="47.47517" lon="-0.58125">
        <ele>21</ele>
        <time>2015-07-07T08:35:19.000Z</time>
      </trkpt>
      <trkpt lat="47.47517" lon="-0.58121">
        <ele>20</ele>
        <time>2015-07-07T08:35:20.000Z</time>
      </trkpt>
      <trkpt lat="47.47518" lon="-0.58116">
        <ele>19</ele>
        <time>2015-07-07T08:35:21.000Z</time>
      </trkpt>
      <trkpt lat="47.47517" lon="-0.58112">
        <ele>18</ele>
        <time>2015-07-07T08:35:22.000Z</time>
      </trkpt>
      <trkpt lat="47.47517" lon="-0.58107">
        <ele>18</ele>
        <time>2015-07-07T08:35:23.000Z</time>
      </trkpt>
      <trkpt lat="47.47516" lon="-0.58102">
        <ele>18</ele>
        <time>2015-07-07T08:35:24.000Z</time>
      </trkpt>
      <trkpt lat="47.47514" lon="-0.58098">
        <ele>17</ele>
        <time>2015-07-07T08:35:25.000Z</time>
      </trkpt>
      <trkpt lat="47.47514" lon="-0.58093">
        <ele>18</ele>
        <time>2015-07-07T08:35:26.000Z</time>
      </trkpt>
      <trkpt lat="47.47513" lon="-0.58088">
        <ele>18</ele>
        <time>2015-07-07T08:35:27.000Z</time>
      </trkpt>
      <trkpt lat="47.47513" lon="-0.58083">
        <ele>18</ele>
        <time>2015-07-07T08:35:28.000Z</time>
      </trkpt>
      <trkpt lat="47.47512" lon="-0.58078">
        <ele>18</ele>
        <time>2015-07-07T08:35:29.000Z</time>
      </trkpt>
      <trkpt lat="47.47512" lon="-0.58073">
        <ele>18</ele>
        <time>2015-07-07T08:35:30.000Z</time>
      </trkpt>
      <trkpt lat="47.47512" lon="-0.58069">
        <ele>18</ele>
        <time>2015-07-07T08:35:31.000Z</time>
      </trkpt>
      <trkpt lat="47.47512" lon="-0.58065">
        <ele>20</ele>
        <time>2015-07-07T08:35:32.000Z</time>
      </trkpt>
      <trkpt lat="47.47514" lon="-0.58062">
        <ele>20</ele>
        <time>2015-07-07T08:35:33.000Z</time>
      </trkpt>
      <trkpt lat="47.47515" lon="-0.58059">
        <ele>20</ele>
        <time>2015-07-07T08:35:34.000Z</time>
      </trkpt>
      <trkpt lat="47.47517" lon="-0.58056">
        <ele>22</ele>
        <time>2015-07-07T08:35:35.000Z</time>
      </trkpt>
      <trkpt lat="47.47517" lon="-0.58053">
        <ele>21</ele>
        <time>2015-07-07T08:35:36.000Z</time>
      </trkpt>
      <trkpt lat="47.47518" lon="-0.5805">
        <ele>21</ele>
        <time>2015-07-07T08:35:37.000Z</time>
      </trkpt>
      <trkpt lat="47.47518" lon="-0.58047">
        <ele>20</ele>
        <time>2015-07-07T08:35:38.000Z</time>
      </trkpt>
      <trkpt lat="47.47518" lon="-0.58045">
        <ele>21</ele>
        <time>2015-07-07T08:35:39.000Z</time>
      </trkpt>
      <trkpt lat="47.47518" lon="-0.58041">
        <ele>22</ele>
        <time>2015-07-07T08:35:40.000Z</time>
      </trkpt>
      <trkpt lat="47.47518" lon="-0.58037">
        <ele>23</ele>
        <time>2015-07-07T08:35:41.000Z</time>
      </trkpt>
      <trkpt lat="47.47518" lon="-0.58032">
        <ele>24</ele>
        <time>2015-07-07T08:35:42.000Z</time>
      </trkpt>
      <trkpt lat="47.47518" lon="-0.58028">
        <ele>24</ele>
        <time>2015-07-07T08:35:43.000Z</time>
      </trkpt>
      <trkpt lat="47.47517" lon="-0.58024">
        <ele>24</ele>
        <time>2015-07-07T08:35:44.000Z</time>
      </trkpt>
      <trkpt lat="47.47517" lon="-0.58019">
        <ele>24</ele>
        <time>2015-07-07T08:35:45.000Z</time>
      </trkpt>
      <trkpt lat="47.47517" lon="-0.58015">
        <ele>23</ele>
        <time>2015-07-07T08:35:46.000Z</time>
      </trkpt>
      <trkpt lat="47.47517" lon="-0.58011">
        <ele>24</ele>
        <time>2015-07-07T08:35:47.000Z</time>
      </trkpt>
      <trkpt lat="47.47517" lon="-0.58007">
        <ele>24</ele>
        <time>2015-07-07T08:35:48.000Z</time>
      </trkpt>
      <trkpt lat="47.47516" lon="-0.58002">
        <ele>24</ele>
        <time>2015-07-07T08:35:49.000Z</time>
      </trkpt>
      <trkpt lat="47.47516" lon="-0.57998">
        <ele>25</ele>
        <time>2015-07-07T08:35:50.000Z</time>
      </trkpt>
      <trkpt lat="47.47516" lon="-0.57994">
        <ele>24</ele>
        <time>2015-07-07T08:35:51.000Z</time>
      </trkpt>
      <trkpt lat="47.47516" lon="-0.57991">
        <ele>25</ele>
        <time>2015-07-07T08:35:52.000Z</time>
      </trkpt>
      <trkpt lat="47.47516" lon="-0.57987">
        <ele>25</ele>
        <time>2015-07-07T08:35:53.000Z</time>
      </trkpt>
      <trkpt lat="47.47516" lon="-0.57983">
        <ele>25</ele>
        <time>2015-07-07T08:35:54.000Z</time>
      </trkpt>
      <trkpt lat="47.47516" lon="-0.5798">
        <ele>25</ele>
        <time>2015-07-07T08:35:55.000Z</time>
      </trkpt>
      <trkpt lat="47.47516" lon="-0.57976">
        <ele>25</ele>
        <time>2015-07-07T08:35:56.000Z</time>
      </trkpt>
      <trkpt lat="47.47516" lon="-0.57973">
        <ele>25</ele>
        <time>2015-07-07T08:35:57.000Z</time>
      </trkpt>
      <trkpt lat="47.47516" lon="-0.57969">
        <ele>25</ele>
        <time>2015-07-07T08:35:58.000Z</time>
      </trkpt>
      <trkpt lat="47.47515" lon="-0.57966">
        <ele>25</ele>
        <time>2015-07-07T08:35:59.000Z</time>
      </trkpt>
      <trkpt lat="47.47515" lon="-0.57961">
        <ele>25</ele>
        <time>2015-07-07T08:36:00.000Z</time>
      </trkpt>
      <trkpt lat="47.47515" lon="-0.57957">
        <ele>25</ele>
        <time>2015-07-07T08:36:01.000Z</time>
      </trkpt>
      <trkpt lat="47.47514" lon="-0.57953">
        <ele>25</ele>
        <time>2015-07-07T08:36:02.000Z</time>
      </trkpt>
      <trkpt lat="47.47513" lon="-0.57949">
        <ele>24</ele>
        <time>2015-07-07T08:36:03.000Z</time>
      </trkpt>
      <trkpt lat="47.47513" lon="-0.57945">
        <ele>24</ele>
        <time>2015-07-07T08:36:04.000Z</time>
      </trkpt>
      <trkpt lat="47.47512" lon="-0.57941">
        <ele>25</ele>
        <time>2015-07-07T08:36:05.000Z</time>
      </trkpt>
      <trkpt lat="47.47512" lon="-0.57937">
        <ele>25</ele>
        <time>2015-07-07T08:36:06.000Z</time>
      </trkpt>
      <trkpt lat="47.47511" lon="-0.57933">
        <ele>25</ele>
        <time>2015-07-07T08:36:07.000Z</time>
      </trkpt>
      <trkpt lat="47.47511" lon="-0.57929">
        <ele>24</ele>
        <time>2015-07-07T08:36:08.000Z</time>
      </trkpt>
      <trkpt lat="47.47511" lon="-0.57926">
        <ele>23</ele>
        <time>2015-07-07T08:36:09.000Z</time>
      </trkpt>
      <trkpt lat="47.4751" lon="-0.57922">
        <ele>22</ele>
        <time>2015-07-07T08:36:10.000Z</time>
      </trkpt>
      <trkpt lat="47.47509" lon="-0.57918">
        <ele>22</ele>
        <time>2015-07-07T08:36:11.000Z</time>
      </trkpt>
      <trkpt lat="47.47508" lon="-0.57914">
        <ele>21</ele>
        <time>2015-07-07T08:36:12.000Z</time>
      </trkpt>
      <trkpt lat="47.47507" lon="-0.5791">
        <ele>21</ele>
        <time>2015-07-07T08:36:13.000Z</time>
      </trkpt>
      <trkpt lat="47.47506" lon="-0.57906">
        <ele>20</ele>
        <time>2015-07-07T08:36:14.000Z</time>
      </trkpt>
      <trkpt lat="47.47505" lon="-0.57902">
        <ele>18</ele>
        <time>2015-07-07T08:36:15.000Z</time>
      </trkpt>
      <trkpt lat="47.47503" lon="-0.57897">
        <ele>17</ele>
        <time>2015-07-07T08:36:16.000Z</time>
      </trkpt>
      <trkpt lat="47.47502" lon="-0.57893">
        <ele>17</ele>
        <time>2015-07-07T08:36:17.000Z</time>
      </trkpt>
      <trkpt lat="47.47501" lon="-0.57888">
        <ele>18</ele>
        <time>2015-07-07T08:36:18.000Z</time>
      </trkpt>
      <trkpt lat="47.475" lon="-0.57884">
        <ele>19</ele>
        <time>2015-07-07T08:36:19.000Z</time>
      </trkpt>
      <trkpt lat="47.47498" lon="-0.5788">
        <ele>19</ele>
        <time>2015-07-07T08:36:20.000Z</time>
      </trkpt>
      <trkpt lat="47.47497" lon="-0.57875">
        <ele>20</ele>
        <time>2015-07-07T08:36:21.000Z</time>
      </trkpt>
      <trkpt lat="47.47495" lon="-0.57869">
        <ele>19</ele>
        <time>2015-07-07T08:36:22.000Z</time>
      </trkpt>
      <trkpt lat="47.47494" lon="-0.57864">
        <ele>19</ele>
        <time>2015-07-07T08:36:23.000Z</time>
      </trkpt>
      <trkpt lat="47.47492" lon="-0.5786">
        <ele>19</ele>
        <time>2015-07-07T08:36:24.000Z</time>
      </trkpt>
      <trkpt lat="47.47491" lon="-0.57856">
        <ele>19</ele>
        <time>2015-07-07T08:36:25.000Z</time>
      </trkpt>
      <trkpt lat="47.4749" lon="-0.57851">
        <ele>18</ele>
        <time>2015-07-07T08:36:26.000Z</time>
      </trkpt>
      <trkpt lat="47.47488" lon="-0.57847">
        <ele>16</ele>
        <time>2015-07-07T08:36:27.000Z</time>
      </trkpt>
      <trkpt lat="47.47487" lon="-0.57843">
        <ele>17</ele>
        <time>2015-07-07T08:36:28.000Z</time>
      </trkpt>
      <trkpt lat="47.47486" lon="-0.57839">
        <ele>17</ele>
        <time>2015-07-07T08:36:29.000Z</time>
      </trkpt>
      <trkpt lat="47.47485" lon="-0.57835">
        <ele>17</ele>
        <time>2015-07-07T08:36:30.000Z</time>
      </trkpt>
      <trkpt lat="47.47484" lon="-0.57831">
        <ele>17</ele>
        <time>2015-07-07T08:36:31.000Z</time>
      </trkpt>
      <trkpt lat="47.47483" lon="-0.57827">
        <ele>17</ele>
        <time>2015-07-07T08:36:32.000Z</time>
      </trkpt>
      <trkpt lat="47.47481" lon="-0.57823">
        <ele>18</ele>
        <time>2015-07-07T08:36:33.000Z</time>
      </trkpt>
      <trkpt lat="47.4748" lon="-0.57819">
        <ele>18</ele>
        <time>2015-07-07T08:36:34.000Z</time>
      </trkpt>
      <trkpt lat="47.47478" lon="-0.57815">
        <ele>18</ele>
        <time>2015-07-07T08:36:35.000Z</time>
      </trkpt>
      <trkpt lat="47.47476" lon="-0.57811">
        <ele>18</ele>
        <time>2015-07-07T08:36:36.000Z</time>
      </trkpt>
      <trkpt lat="47.47474" lon="-0.57808">
        <ele>17</ele>
        <time>2015-07-07T08:36:37.000Z</time>
      </trkpt>
      <trkpt lat="47.47472" lon="-0.57804">
        <ele>18</ele>
        <time>2015-07-07T08:36:38.000Z</time>
      </trkpt>
      <trkpt lat="47.4747" lon="-0.57801">
        <ele>18</ele>
        <time>2015-07-07T08:36:39.000Z</time>
      </trkpt>
      <trkpt lat="47.47468" lon="-0.57797">
        <ele>19</ele>
        <time>2015-07-07T08:36:40.000Z</time>
      </trkpt>
      <trkpt lat="47.47466" lon="-0.57794">
        <ele>20</ele>
        <time>2015-07-07T08:36:41.000Z</time>
      </trkpt>
      <trkpt lat="47.47463" lon="-0.57791">
        <ele>21</ele>
        <time>2015-07-07T08:36:42.000Z</time>
      </trkpt>
      <trkpt lat="47.47461" lon="-0.57788">
        <ele>22</ele>
        <time>2015-07-07T08:36:43.000Z</time>
      </trkpt>
      <trkpt lat="47.47459" lon="-0.57785">
        <ele>22</ele>
        <time>2015-07-07T08:36:44.000Z</time>
      </trkpt>
      <trkpt lat="47.47456" lon="-0.57782">
        <ele>21</ele>
        <time>2015-07-07T08:36:45.000Z</time>
      </trkpt>
      <trkpt lat="47.47454" lon="-0.5778">
        <ele>21</ele>
        <time>2015-07-07T08:36:46.000Z</time>
      </trkpt>
      <trkpt lat="47.47452" lon="-0.57778">
        <ele>21</ele>
        <time>2015-07-07T08:36:47.000Z</time>
      </trkpt>
      <trkpt lat="47.4745" lon="-0.57775">
        <ele>22</ele>
        <time>2015-07-07T08:36:48.000Z</time>
      </trkpt>
      <trkpt lat="47.47447" lon="-0.57773">
        <ele>22</ele>
        <time>2015-07-07T08:36:49.000Z</time>
      </trkpt>
      <trkpt lat="47.47445" lon="-0.57771">
        <ele>20</ele>
        <time>2015-07-07T08:36:50.000Z</time>
      </trkpt>
      <trkpt lat="47.47442" lon="-0.57769">
        <ele>21</ele>
        <time>2015-07-07T08:36:51.000Z</time>
      </trkpt>
      <trkpt lat="47.47439" lon="-0.57767">
        <ele>22</ele>
        <time>2015-07-07T08:36:52.000Z</time>
      </trkpt>
      <trkpt lat="47.47437" lon="-0.57763">
        <ele>22</ele>
        <time>2015-07-07T08:36:53.000Z</time>
      </trkpt>
      <trkpt lat="47.47435" lon="-0.5776">
        <ele>22</ele>
        <time>2015-07-07T08:36:54.000Z</time>
      </trkpt>
      <trkpt lat="47.47432" lon="-0.57755">
        <ele>22</ele>
        <time>2015-07-07T08:36:55.000Z</time>
      </trkpt>
      <trkpt lat="47.4743" lon="-0.5775">
        <ele>23</ele>
        <time>2015-07-07T08:36:56.000Z</time>
      </trkpt>
      <trkpt lat="47.47428" lon="-0.57744">
        <ele>23</ele>
        <time>2015-07-07T08:36:57.000Z</time>
      </trkpt>
      <trkpt lat="47.47425" lon="-0.57738">
        <ele>22</ele>
        <time>2015-07-07T08:36:58.000Z</time>
      </trkpt>
      <trkpt lat="47.47423" lon="-0.57732">
        <ele>22</ele>
        <time>2015-07-07T08:36:59.000Z</time>
      </trkpt>
      <trkpt lat="47.47421" lon="-0.57727">
        <ele>22</ele>
        <time>2015-07-07T08:37:00.000Z</time>
      </trkpt>
      <trkpt lat="47.4742" lon="-0.57722">
        <ele>21</ele>
        <time>2015-07-07T08:37:01.000Z</time>
      </trkpt>
      <trkpt lat="47.47419" lon="-0.57718">
        <ele>20</ele>
        <time>2015-07-07T08:37:02.000Z</time>
      </trkpt>
      <trkpt lat="47.47417" lon="-0.57714">
        <ele>20</ele>
        <time>2015-07-07T08:37:03.000Z</time>
      </trkpt>
      <trkpt lat="47.47416" lon="-0.5771">
        <ele>21</ele>
        <time>2015-07-07T08:37:04.000Z</time>
      </trkpt>
      <trkpt lat="47.47415" lon="-0.57707">
        <ele>21</ele>
        <time>2015-07-07T08:37:05.000Z</time>
      </trkpt>
      <trkpt lat="47.47413" lon="-0.57703">
        <ele>21</ele>
        <time>2015-07-07T08:37:06.000Z</time>
      </trkpt>
      <trkpt lat="47.47411" lon="-0.577">
        <ele>21</ele>
        <time>2015-07-07T08:37:07.000Z</time>
      </trkpt>
      <trkpt lat="47.47409" lon="-0.57696">
        <ele>21</ele>
        <time>2015-07-07T08:37:08.000Z</time>
      </trkpt>
      <trkpt lat="47.47406" lon="-0.57694">
        <ele>20</ele>
        <time>2015-07-07T08:37:09.000Z</time>
      </trkpt>
      <trkpt lat="47.47404" lon="-0.57692">
        <ele>20</ele>
        <time>2015-07-07T08:37:10.000Z</time>
      </trkpt>
      <trkpt lat="47.47403" lon="-0.5769">
        <ele>20</ele>
        <time>2015-07-07T08:37:11.000Z</time>
      </trkpt>
      <trkpt lat="47.47401" lon="-0.57688">
        <ele>20</ele>
        <time>2015-07-07T08:37:12.000Z</time>
      </trkpt>
      <trkpt lat="47.474" lon="-0.57685">
        <ele>19</ele>
        <time>2015-07-07T08:37:13.000Z</time>
      </trkpt>
      <trkpt lat="47.47399" lon="-0.57683">
        <ele>19</ele>
        <time>2015-07-07T08:37:14.000Z</time>
      </trkpt>
      <trkpt lat="47.47397" lon="-0.57682">
        <ele>19</ele>
        <time>2015-07-07T08:37:15.000Z</time>
      </trkpt>
      <trkpt lat="47.47396" lon="-0.57681">
        <ele>18</ele>
        <time>2015-07-07T08:37:16.000Z</time>
      </trkpt>
      <trkpt lat="47.47394" lon="-0.5768">
        <ele>18</ele>
        <time>2015-07-07T08:37:17.000Z</time>
      </trkpt>
      <trkpt lat="47.47392" lon="-0.57679">
        <ele>19</ele>
        <time>2015-07-07T08:37:18.000Z</time>
      </trkpt>
      <trkpt lat="47.47389" lon="-0.57679">
        <ele>19</ele>
        <time>2015-07-07T08:37:19.000Z</time>
      </trkpt>
      <trkpt lat="47.47387" lon="-0.57678">
        <ele>18</ele>
        <time>2015-07-07T08:37:20.000Z</time>
      </trkpt>
      <trkpt lat="47.47385" lon="-0.57678">
        <ele>19</ele>
        <time>2015-07-07T08:37:21.000Z</time>
      </trkpt>
      <trkpt lat="47.47383" lon="-0.57678">
        <ele>19</ele>
        <time>2015-07-07T08:37:22.000Z</time>
      </trkpt>
      <trkpt lat="47.47381" lon="-0.57677">
        <ele>20</ele>
        <time>2015-07-07T08:37:23.000Z</time>
      </trkpt>
      <trkpt lat="47.47378" lon="-0.57676">
        <ele>21</ele>
        <time>2015-07-07T08:37:24.000Z</time>
      </trkpt>
      <trkpt lat="47.47375" lon="-0.57676">
        <ele>22</ele>
        <time>2015-07-07T08:37:25.000Z</time>
      </trkpt>
      <trkpt lat="47.47372" lon="-0.57676">
        <ele>24</ele>
        <time>2015-07-07T08:37:26.000Z</time>
      </trkpt>
      <trkpt lat="47.47369" lon="-0.57676">
        <ele>25</ele>
        <time>2015-07-07T08:37:27.000Z</time>
      </trkpt>
      <trkpt lat="47.47366" lon="-0.57676">
        <ele>26</ele>
        <time>2015-07-07T08:37:28.000Z</time>
      </trkpt>
      <trkpt lat="47.47363" lon="-0.57676">
        <ele>27</ele>
        <time>2015-07-07T08:37:29.000Z</time>
      </trkpt>
      <trkpt lat="47.47359" lon="-0.57676">
        <ele>27</ele>
        <time>2015-07-07T08:37:30.000Z</time>
      </trkpt>
      <trkpt lat="47.47356" lon="-0.57676">
        <ele>28</ele>
        <time>2015-07-07T08:37:31.000Z</time>
      </trkpt>
      <trkpt lat="47.47353" lon="-0.57677">
        <ele>28</ele>
        <time>2015-07-07T08:37:32.000Z</time>
      </trkpt>
      <trkpt lat="47.4735" lon="-0.57677">
        <ele>28</ele>
        <time>2015-07-07T08:37:33.000Z</time>
      </trkpt>
      <trkpt lat="47.47347" lon="-0.57678">
        <ele>29</ele>
        <time>2015-07-07T08:37:34.000Z</time>
      </trkpt>
      <trkpt lat="47.47344" lon="-0.57678">
        <ele>29</ele>
        <time>2015-07-07T08:37:35.000Z</time>
      </trkpt>
      <trkpt lat="47.47341" lon="-0.57679">
        <ele>29</ele>
        <time>2015-07-07T08:37:36.000Z</time>
      </trkpt>
      <trkpt lat="47.47338" lon="-0.57679">
        <ele>29</ele>
        <time>2015-07-07T08:37:37.000Z</time>
      </trkpt>
      <trkpt lat="47.47335" lon="-0.5768">
        <ele>29</ele>
        <time>2015-07-07T08:37:38.000Z</time>
      </trkpt>
      <trkpt lat="47.47332" lon="-0.57681">
        <ele>29</ele>
        <time>2015-07-07T08:37:39.000Z</time>
      </trkpt>
      <trkpt lat="47.47329" lon="-0.57682">
        <ele>29</ele>
        <time>2015-07-07T08:37:40.000Z</time>
      </trkpt>
      <trkpt lat="47.47326" lon="-0.57683">
        <ele>29</ele>
        <time>2015-07-07T08:37:41.000Z</time>
      </trkpt>
      <trkpt lat="47.47322" lon="-0.57683">
        <ele>28</ele>
        <time>2015-07-07T08:37:42.000Z</time>
      </trkpt>
      <trkpt lat="47.47319" lon="-0.57684">
        <ele>29</ele>
        <time>2015-07-07T08:37:43.000Z</time>
      </trkpt>
      <trkpt lat="47.47316" lon="-0.57685">
        <ele>30</ele>
        <time>2015-07-07T08:37:44.000Z</time>
      </trkpt>
      <trkpt lat="47.47313" lon="-0.57686">
        <ele>30</ele>
        <time>2015-07-07T08:37:45.000Z</time>
      </trkpt>
      <trkpt lat="47.4731" lon="-0.57687">
        <ele>30</ele>
        <time>2015-07-07T08:37:46.000Z</time>
      </trkpt>
      <trkpt lat="47.47308" lon="-0.57687">
        <ele>30</ele>
        <time>2015-07-07T08:37:47.000Z</time>
      </trkpt>
      <trkpt lat="47.47305" lon="-0.57688">
        <ele>28</ele>
        <time>2015-07-07T08:37:48.000Z</time>
      </trkpt>
      <trkpt lat="47.47303" lon="-0.57688">
        <ele>28</ele>
        <time>2015-07-07T08:37:49.000Z</time>
      </trkpt>
      <trkpt lat="47.47301" lon="-0.57688">
        <ele>28</ele>
        <time>2015-07-07T08:37:50.000Z</time>
      </trkpt>
      <trkpt lat="47.47298" lon="-0.57688">
        <ele>28</ele>
        <time>2015-07-07T08:37:51.000Z</time>
      </trkpt>
      <trkpt lat="47.47297" lon="-0.57687">
        <ele>28</ele>
        <time>2015-07-07T08:37:52.000Z</time>
      </trkpt>
      <trkpt lat="47.47295" lon="-0.57687">
        <ele>28</ele>
        <time>2015-07-07T08:37:53.000Z</time>
      </trkpt>
      <trkpt lat="47.47293" lon="-0.57687">
        <ele>28</ele>
        <time>2015-07-07T08:37:54.000Z</time>
      </trkpt>
      <trkpt lat="47.4729" lon="-0.57688">
        <ele>29</ele>
        <time>2015-07-07T08:37:55.000Z</time>
      </trkpt>
      <trkpt lat="47.47287" lon="-0.57689">
        <ele>29</ele>
        <time>2015-07-07T08:37:56.000Z</time>
      </trkpt>
      <trkpt lat="47.47285" lon="-0.5769">
        <ele>29</ele>
        <time>2015-07-07T08:37:57.000Z</time>
      </trkpt>
      <trkpt lat="47.47282" lon="-0.57691">
        <ele>28</ele>
        <time>2015-07-07T08:37:58.000Z</time>
      </trkpt>
      <trkpt lat="47.47279" lon="-0.57691">
        <ele>28</ele>
        <time>2015-07-07T08:37:59.000Z</time>
      </trkpt>
      <trkpt lat="47.47277" lon="-0.57692">
        <ele>28</ele>
        <time>2015-07-07T08:38:00.000Z</time>
      </trkpt>
      <trkpt lat="47.47274" lon="-0.57693">
        <ele>27</ele>
        <time>2015-07-07T08:38:01.000Z</time>
      </trkpt>
      <trkpt lat="47.47271" lon="-0.57694">
        <ele>27</ele>
        <time>2015-07-07T08:38:02.000Z</time>
      </trkpt>
      <trkpt lat="47.47269" lon="-0.57696">
        <ele>27</ele>
        <time>2015-07-07T08:38:03.000Z</time>
      </trkpt>
      <trkpt lat="47.47266" lon="-0.57698">
        <ele>27</ele>
        <time>2015-07-07T08:38:04.000Z</time>
      </trkpt>
      <trkpt lat="47.47264" lon="-0.57701">
        <ele>28</ele>
        <time>2015-07-07T08:38:05.000Z</time>
      </trkpt>
      <trkpt lat="47.47261" lon="-0.57703">
        <ele>27</ele>
        <time>2015-07-07T08:38:06.000Z</time>
      </trkpt>
      <trkpt lat="47.47258" lon="-0.57705">
        <ele>27</ele>
        <time>2015-07-07T08:38:07.000Z</time>
      </trkpt>
      <trkpt lat="47.47256" lon="-0.57708">
        <ele>27</ele>
        <time>2015-07-07T08:38:08.000Z</time>
      </trkpt>
      <trkpt lat="47.47254" lon="-0.5771">
        <ele>27</ele>
        <time>2015-07-07T08:38:09.000Z</time>
      </trkpt>
      <trkpt lat="47.47251" lon="-0.57713">
        <ele>26</ele>
        <time>2015-07-07T08:38:10.000Z</time>
      </trkpt>
      <trkpt lat="47.47249" lon="-0.57715">
        <ele>27</ele>
        <time>2015-07-07T08:38:11.000Z</time>
      </trkpt>
      <trkpt lat="47.47247" lon="-0.57717">
        <ele>27</ele>
        <time>2015-07-07T08:38:12.000Z</time>
      </trkpt>
      <trkpt lat="47.47244" lon="-0.5772">
        <ele>27</ele>
        <time>2015-07-07T08:38:13.000Z</time>
      </trkpt>
      <trkpt lat="47.47242" lon="-0.57721">
        <ele>27</ele>
        <time>2015-07-07T08:38:14.000Z</time>
      </trkpt>
      <trkpt lat="47.47239" lon="-0.57723">
        <ele>27</ele>
        <time>2015-07-07T08:38:15.000Z</time>
      </trkpt>
      <trkpt lat="47.47237" lon="-0.57724">
        <ele>27</ele>
        <time>2015-07-07T08:38:16.000Z</time>
      </trkpt>
      <trkpt lat="47.47234" lon="-0.57725">
        <ele>27</ele>
        <time>2015-07-07T08:38:17.000Z</time>
      </trkpt>
      <trkpt lat="47.47232" lon="-0.57725">
        <ele>27</ele>
        <time>2015-07-07T08:38:18.000Z</time>
      </trkpt>
      <trkpt lat="47.4723" lon="-0.57726">
        <ele>26</ele>
        <time>2015-07-07T08:38:19.000Z</time>
      </trkpt>
      <trkpt lat="47.47227" lon="-0.57727">
        <ele>26</ele>
        <time>2015-07-07T08:38:20.000Z</time>
      </trkpt>
      <trkpt lat="47.47225" lon="-0.57728">
        <ele>26</ele>
        <time>2015-07-07T08:38:21.000Z</time>
      </trkpt>
      <trkpt lat="47.47222" lon="-0.57728">
        <ele>26</ele>
        <time>2015-07-07T08:38:22.000Z</time>
      </trkpt>
      <trkpt lat="47.47219" lon="-0.57728">
        <ele>26</ele>
        <time>2015-07-07T08:38:23.000Z</time>
      </trkpt>
      <trkpt lat="47.47217" lon="-0.57729">
        <ele>25</ele>
        <time>2015-07-07T08:38:24.000Z</time>
      </trkpt>
      <trkpt lat="47.47214" lon="-0.5773">
        <ele>25</ele>
        <time>2015-07-07T08:38:25.000Z</time>
      </trkpt>
      <trkpt lat="47.47211" lon="-0.5773">
        <ele>26</ele>
        <time>2015-07-07T08:38:26.000Z</time>
      </trkpt>
      <trkpt lat="47.47208" lon="-0.57732">
        <ele>26</ele>
        <time>2015-07-07T08:38:27.000Z</time>
      </trkpt>
      <trkpt lat="47.47205" lon="-0.57732">
        <ele>26</ele>
        <time>2015-07-07T08:38:28.000Z</time>
      </trkpt>
      <trkpt lat="47.47202" lon="-0.57733">
        <ele>26</ele>
        <time>2015-07-07T08:38:29.000Z</time>
      </trkpt>
      <trkpt lat="47.47199" lon="-0.57734">
        <ele>26</ele>
        <time>2015-07-07T08:38:30.000Z</time>
      </trkpt>
      <trkpt lat="47.47196" lon="-0.57734">
        <ele>26</ele>
        <time>2015-07-07T08:38:31.000Z</time>
      </trkpt>
      <trkpt lat="47.47194" lon="-0.57735">
        <ele>26</ele>
        <time>2015-07-07T08:38:32.000Z</time>
      </trkpt>
      <trkpt lat="47.47191" lon="-0.57736">
        <ele>26</ele>
        <time>2015-07-07T08:38:33.000Z</time>
      </trkpt>
      <trkpt lat="47.47188" lon="-0.57737">
        <ele>26</ele>
        <time>2015-07-07T08:38:34.000Z</time>
      </trkpt>
      <trkpt lat="47.47185" lon="-0.57737">
        <ele>26</ele>
        <time>2015-07-07T08:38:35.000Z</time>
      </trkpt>
      <trkpt lat="47.47182" lon="-0.57738">
        <ele>27</ele>
        <time>2015-07-07T08:38:36.000Z</time>
      </trkpt>
      <trkpt lat="47.47179" lon="-0.57739">
        <ele>28</ele>
        <time>2015-07-07T08:38:37.000Z</time>
      </trkpt>
      <trkpt lat="47.47176" lon="-0.57739">
        <ele>27</ele>
        <time>2015-07-07T08:38:38.000Z</time>
      </trkpt>
      <trkpt lat="47.47174" lon="-0.5774">
        <ele>26</ele>
        <time>2015-07-07T08:38:39.000Z</time>
      </trkpt>
      <trkpt lat="47.47171" lon="-0.5774">
        <ele>26</ele>
        <time>2015-07-07T08:38:40.000Z</time>
      </trkpt>
      <trkpt lat="47.47168" lon="-0.57741">
        <ele>26</ele>
        <time>2015-07-07T08:38:41.000Z</time>
      </trkpt>
      <trkpt lat="47.47166" lon="-0.57741">
        <ele>26</ele>
        <time>2015-07-07T08:38:42.000Z</time>
      </trkpt>
      <trkpt lat="47.47163" lon="-0.57741">
        <ele>25</ele>
        <time>2015-07-07T08:38:43.000Z</time>
      </trkpt>
      <trkpt lat="47.4716" lon="-0.57742">
        <ele>25</ele>
        <time>2015-07-07T08:38:44.000Z</time>
      </trkpt>
      <trkpt lat="47.47158" lon="-0.57742">
        <ele>25</ele>
        <time>2015-07-07T08:38:45.000Z</time>
      </trkpt>
      <trkpt lat="47.47156" lon="-0.57743">
        <ele>25</ele>
        <time>2015-07-07T08:38:46.000Z</time>
      </trkpt>
      <trkpt lat="47.47153" lon="-0.57743">
        <ele>25</ele>
        <time>2015-07-07T08:38:47.000Z</time>
      </trkpt>
      <trkpt lat="47.4715" lon="-0.57744">
        <ele>25</ele>
        <time>2015-07-07T08:38:48.000Z</time>
      </trkpt>
      <trkpt lat="47.47148" lon="-0.57744">
        <ele>24</ele>
        <time>2015-07-07T08:38:49.000Z</time>
      </trkpt>
      <trkpt lat="47.47145" lon="-0.57745">
        <ele>24</ele>
        <time>2015-07-07T08:38:50.000Z</time>
      </trkpt>
      <trkpt lat="47.47142" lon="-0.57746">
        <ele>23</ele>
        <time>2015-07-07T08:38:51.000Z</time>
      </trkpt>
      <trkpt lat="47.4714" lon="-0.57747">
        <ele>23</ele>
        <time>2015-07-07T08:38:52.000Z</time>
      </trkpt>
      <trkpt lat="47.47137" lon="-0.57749">
        <ele>22</ele>
        <time>2015-07-07T08:38:53.000Z</time>
      </trkpt>
      <trkpt lat="47.47134" lon="-0.5775">
        <ele>22</ele>
        <time>2015-07-07T08:38:54.000Z</time>
      </trkpt>
      <trkpt lat="47.47131" lon="-0.57751">
        <ele>21</ele>
        <time>2015-07-07T08:38:55.000Z</time>
      </trkpt>
      <trkpt lat="47.47129" lon="-0.57752">
        <ele>20</ele>
        <time>2015-07-07T08:38:56.000Z</time>
      </trkpt>
      <trkpt lat="47.47126" lon="-0.57752">
        <ele>20</ele>
        <time>2015-07-07T08:38:57.000Z</time>
      </trkpt>
      <trkpt lat="47.47124" lon="-0.57753">
        <ele>20</ele>
        <time>2015-07-07T08:38:58.000Z</time>
      </trkpt>
      <trkpt lat="47.47121" lon="-0.57754">
        <ele>20</ele>
        <time>2015-07-07T08:38:59.000Z</time>
      </trkpt>
      <trkpt lat="47.47119" lon="-0.57755">
        <ele>19</ele>
        <time>2015-07-07T08:39:00.000Z</time>
      </trkpt>
      <trkpt lat="47.47116" lon="-0.57756">
        <ele>19</ele>
        <time>2015-07-07T08:39:01.000Z</time>
      </trkpt>
      <trkpt lat="47.47113" lon="-0.57758">
        <ele>19</ele>
        <time>2015-07-07T08:39:02.000Z</time>
      </trkpt>
      <trkpt lat="47.4711" lon="-0.5776">
        <ele>18</ele>
        <time>2015-07-07T08:39:03.000Z</time>
      </trkpt>
      <trkpt lat="47.47107" lon="-0.57761">
        <ele>18</ele>
        <time>2015-07-07T08:39:04.000Z</time>
      </trkpt>
      <trkpt lat="47.47105" lon="-0.57762">
        <ele>17</ele>
        <time>2015-07-07T08:39:05.000Z</time>
      </trkpt>
      <trkpt lat="47.47102" lon="-0.57763">
        <ele>17</ele>
        <time>2015-07-07T08:39:06.000Z</time>
      </trkpt>
      <trkpt lat="47.47099" lon="-0.57763">
        <ele>17</ele>
        <time>2015-07-07T08:39:07.000Z</time>
      </trkpt>
      <trkpt lat="47.47096" lon="-0.57764">
        <ele>17</ele>
        <time>2015-07-07T08:39:08.000Z</time>
      </trkpt>
      <trkpt lat="47.47093" lon="-0.57764">
        <ele>17</ele>
        <time>2015-07-07T08:39:09.000Z</time>
      </trkpt>
      <trkpt lat="47.4709" lon="-0.57765">
        <ele>18</ele>
        <time>2015-07-07T08:39:10.000Z</time>
      </trkpt>
      <trkpt lat="47.47086" lon="-0.57766">
        <ele>17</ele>
        <time>2015-07-07T08:39:11.000Z</time>
      </trkpt>
      <trkpt lat="47.47083" lon="-0.57766">
        <ele>17</ele>
        <time>2015-07-07T08:39:12.000Z</time>
      </trkpt>
      <trkpt lat="47.4708" lon="-0.57766">
        <ele>16</ele>
        <time>2015-07-07T08:39:13.000Z</time>
      </trkpt>
      <trkpt lat="47.47076" lon="-0.57767">
        <ele>16</ele>
        <time>2015-07-07T08:39:14.000Z</time>
      </trkpt>
      <trkpt lat="47.47073" lon="-0.57767">
        <ele>17</ele>
        <time>2015-07-07T08:39:15.000Z</time>
      </trkpt>
      <trkpt lat="47.47071" lon="-0.57767">
        <ele>17</ele>
        <time>2015-07-07T08:39:16.000Z</time>
      </trkpt>
      <trkpt lat="47.47068" lon="-0.57768">
        <ele>16</ele>
        <time>2015-07-07T08:39:17.000Z</time>
      </trkpt>
      <trkpt lat="47.47065" lon="-0.57768">
        <ele>16</ele>
        <time>2015-07-07T08:39:18.000Z</time>
      </trkpt>
      <trkpt lat="47.47062" lon="-0.57768">
        <ele>16</ele>
        <time>2015-07-07T08:39:19.000Z</time>
      </trkpt>
      <trkpt lat="47.47059" lon="-0.57768">
        <ele>16</ele>
        <time>2015-07-07T08:39:20.000Z</time>
      </trkpt>
      <trkpt lat="47.47055" lon="-0.57768">
        <ele>16</ele>
        <time>2015-07-07T08:39:21.000Z</time>
      </trkpt>
      <trkpt lat="47.47051" lon="-0.57769">
        <ele>17</ele>
        <time>2015-07-07T08:39:22.000Z</time>
      </trkpt>
      <trkpt lat="47.47048" lon="-0.5777">
        <ele>17</ele>
        <time>2015-07-07T08:39:23.000Z</time>
      </trkpt>
      <trkpt lat="47.47044" lon="-0.5777">
        <ele>16</ele>
        <time>2015-07-07T08:39:24.000Z</time>
      </trkpt>
      <trkpt lat="47.47041" lon="-0.57771">
        <ele>16</ele>
        <time>2015-07-07T08:39:25.000Z</time>
      </trkpt>
      <trkpt lat="47.47038" lon="-0.57772">
        <ele>16</ele>
        <time>2015-07-07T08:39:26.000Z</time>
      </trkpt>
      <trkpt lat="47.47035" lon="-0.57773">
        <ele>17</ele>
        <time>2015-07-07T08:39:27.000Z</time>
      </trkpt>
      <trkpt lat="47.47031" lon="-0.57775">
        <ele>18</ele>
        <time>2015-07-07T08:39:28.000Z</time>
      </trkpt>
      <trkpt lat="47.47028" lon="-0.57777">
        <ele>18</ele>
        <time>2015-07-07T08:39:29.000Z</time>
      </trkpt>
      <trkpt lat="47.47024" lon="-0.57779">
        <ele>18</ele>
        <time>2015-07-07T08:39:30.000Z</time>
      </trkpt>
      <trkpt lat="47.47021" lon="-0.57781">
        <ele>18</ele>
        <time>2015-07-07T08:39:31.000Z</time>
      </trkpt>
      <trkpt lat="47.47018" lon="-0.57784">
        <ele>18</ele>
        <time>2015-07-07T08:39:32.000Z</time>
      </trkpt>
      <trkpt lat="47.47015" lon="-0.57786">
        <ele>19</ele>
        <time>2015-07-07T08:39:33.000Z</time>
      </trkpt>
      <trkpt lat="47.47012" lon="-0.57789">
        <ele>19</ele>
        <time>2015-07-07T08:39:34.000Z</time>
      </trkpt>
      <trkpt lat="47.47009" lon="-0.57792">
        <ele>20</ele>
        <time>2015-07-07T08:39:35.000Z</time>
      </trkpt>
      <trkpt lat="47.47007" lon="-0.57795">
        <ele>20</ele>
        <time>2015-07-07T08:39:36.000Z</time>
      </trkpt>
      <trkpt lat="47.47005" lon="-0.57798">
        <ele>21</ele>
        <time>2015-07-07T08:39:37.000Z</time>
      </trkpt>
      <trkpt lat="47.47003" lon="-0.57801">
        <ele>21</ele>
        <time>2015-07-07T08:39:38.000Z</time>
      </trkpt>
      <trkpt lat="47.47" lon="-0.57804">
        <ele>20</ele>
        <time>2015-07-07T08:39:39.000Z</time>
      </trkpt>
      <trkpt lat="47.46998" lon="-0.57807">
        <ele>20</ele>
        <time>2015-07-07T08:39:40.000Z</time>
      </trkpt>
      <trkpt lat="47.46996" lon="-0.5781">
        <ele>20</ele>
        <time>2015-07-07T08:39:41.000Z</time>
      </trkpt>
      <trkpt lat="47.46994" lon="-0.57813">
        <ele>21</ele>
        <time>2015-07-07T08:39:42.000Z</time>
      </trkpt>
      <trkpt lat="47.46992" lon="-0.57816">
        <ele>21</ele>
        <time>2015-07-07T08:39:43.000Z</time>
      </trkpt>
      <trkpt lat="47.46991" lon="-0.57819">
        <ele>20</ele>
        <time>2015-07-07T08:39:44.000Z</time>
      </trkpt>
      <trkpt lat="47.46989" lon="-0.57822">
        <ele>20</ele>
        <time>2015-07-07T08:39:45.000Z</time>
      </trkpt>
      <trkpt lat="47.46988" lon="-0.57825">
        <ele>20</ele>
        <time>2015-07-07T08:39:46.000Z</time>
      </trkpt>
      <trkpt lat="47.46986" lon="-0.57829">
        <ele>21</ele>
        <time>2015-07-07T08:39:47.000Z</time>
      </trkpt>
      <trkpt lat="47.46985" lon="-0.57833">
        <ele>21</ele>
        <time>2015-07-07T08:39:48.000Z</time>
      </trkpt>
      <trkpt lat="47.46984" lon="-0.57836">
        <ele>21</ele>
        <time>2015-07-07T08:39:49.000Z</time>
      </trkpt>
      <trkpt lat="47.46983" lon="-0.5784">
        <ele>21</ele>
        <time>2015-07-07T08:39:50.000Z</time>
      </trkpt>
      <trkpt lat="47.46983" lon="-0.57844">
        <ele>21</ele>
        <time>2015-07-07T08:39:51.000Z</time>
      </trkpt>
      <trkpt lat="47.46983" lon="-0.57848">
        <ele>20</ele>
        <time>2015-07-07T08:39:52.000Z</time>
      </trkpt>
      <trkpt lat="47.46983" lon="-0.57852">
        <ele>21</ele>
        <time>2015-07-07T08:39:53.000Z</time>
      </trkpt>
      <trkpt lat="47.46984" lon="-0.57856">
        <ele>21</ele>
        <time>2015-07-07T08:39:54.000Z</time>
      </trkpt>
      <trkpt lat="47.46984" lon="-0.5786">
        <ele>21</ele>
        <time>2015-07-07T08:39:55.000Z</time>
      </trkpt>
      <trkpt lat="47.46985" lon="-0.57864">
        <ele>21</ele>
        <time>2015-07-07T08:39:56.000Z</time>
      </trkpt>
      <trkpt lat="47.46985" lon="-0.57869">
        <ele>21</ele>
        <time>2015-07-07T08:39:57.000Z</time>
      </trkpt>
      <trkpt lat="47.46985" lon="-0.57873">
        <ele>21</ele>
        <time>2015-07-07T08:39:58.000Z</time>
      </trkpt>
      <trkpt lat="47.46986" lon="-0.57877">
        <ele>21</ele>
        <time>2015-07-07T08:39:59.000Z</time>
      </trkpt>
      <trkpt lat="47.46987" lon="-0.57881">
        <ele>21</ele>
        <time>2015-07-07T08:40:00.000Z</time>
      </trkpt>
      <trkpt lat="47.46988" lon="-0.57885">
        <ele>22</ele>
        <time>2015-07-07T08:40:01.000Z</time>
      </trkpt>
      <trkpt lat="47.46989" lon="-0.57889">
        <ele>22</ele>
        <time>2015-07-07T08:40:02.000Z</time>
      </trkpt>
      <trkpt lat="47.4699" lon="-0.57894">
        <ele>22</ele>
        <time>2015-07-07T08:40:03.000Z</time>
      </trkpt>
      <trkpt lat="47.46991" lon="-0.57898">
        <ele>22</ele>
        <time>2015-07-07T08:40:04.000Z</time>
      </trkpt>
      <trkpt lat="47.46993" lon="-0.57902">
        <ele>23</ele>
        <time>2015-07-07T08:40:05.000Z</time>
      </trkpt>
      <trkpt lat="47.46994" lon="-0.57906">
        <ele>23</ele>
        <time>2015-07-07T08:40:06.000Z</time>
      </trkpt>
      <trkpt lat="47.46996" lon="-0.57909">
        <ele>23</ele>
        <time>2015-07-07T08:40:07.000Z</time>
      </trkpt>
      <trkpt lat="47.46997" lon="-0.57913">
        <ele>24</ele>
        <time>2015-07-07T08:40:08.000Z</time>
      </trkpt>
      <trkpt lat="47.46999" lon="-0.57917">
        <ele>24</ele>
        <time>2015-07-07T08:40:09.000Z</time>
      </trkpt>
      <trkpt lat="47.47" lon="-0.57921">
        <ele>24</ele>
        <time>2015-07-07T08:40:10.000Z</time>
      </trkpt>
      <trkpt lat="47.47002" lon="-0.57925">
        <ele>24</ele>
        <time>2015-07-07T08:40:11.000Z</time>
      </trkpt>
      <trkpt lat="47.47003" lon="-0.57929">
        <ele>25</ele>
        <time>2015-07-07T08:40:12.000Z</time>
      </trkpt>
      <trkpt lat="47.47004" lon="-0.57932">
        <ele>25</ele>
        <time>2015-07-07T08:40:13.000Z</time>
      </trkpt>
      <trkpt lat="47.47005" lon="-0.57936">
        <ele>25</ele>
        <time>2015-07-07T08:40:14.000Z</time>
      </trkpt>
      <trkpt lat="47.47005" lon="-0.5794">
        <ele>25</ele>
        <time>2015-07-07T08:40:15.000Z</time>
      </trkpt>
      <trkpt lat="47.47005" lon="-0.57945">
        <ele>25</ele>
        <time>2015-07-07T08:40:16.000Z</time>
      </trkpt>
      <trkpt lat="47.47005" lon="-0.57949">
        <ele>25</ele>
        <time>2015-07-07T08:40:17.000Z</time>
      </trkpt>
      <trkpt lat="47.47005" lon="-0.57953">
        <ele>25</ele>
        <time>2015-07-07T08:40:18.000Z</time>
      </trkpt>
      <trkpt lat="47.47005" lon="-0.57957">
        <ele>25</ele>
        <time>2015-07-07T08:40:19.000Z</time>
      </trkpt>
      <trkpt lat="47.47005" lon="-0.57961">
        <ele>25</ele>
        <time>2015-07-07T08:40:20.000Z</time>
      </trkpt>
      <trkpt lat="47.47004" lon="-0.57966">
        <ele>25</ele>
        <time>2015-07-07T08:40:21.000Z</time>
      </trkpt>
      <trkpt lat="47.47003" lon="-0.5797">
        <ele>25</ele>
        <time>2015-07-07T08:40:22.000Z</time>
      </trkpt>
      <trkpt lat="47.47002" lon="-0.57975">
        <ele>25</ele>
        <time>2015-07-07T08:40:23.000Z</time>
      </trkpt>
      <trkpt lat="47.47001" lon="-0.57979">
        <ele>25</ele>
        <time>2015-07-07T08:40:24.000Z</time>
      </trkpt>
      <trkpt lat="47.46999" lon="-0.57983">
        <ele>25</ele>
        <time>2015-07-07T08:40:25.000Z</time>
      </trkpt>
      <trkpt lat="47.46998" lon="-0.57988">
        <ele>26</ele>
        <time>2015-07-07T08:40:26.000Z</time>
      </trkpt>
      <trkpt lat="47.46996" lon="-0.57992">
        <ele>26</ele>
        <time>2015-07-07T08:40:27.000Z</time>
      </trkpt>
      <trkpt lat="47.46995" lon="-0.57996">
        <ele>26</ele>
        <time>2015-07-07T08:40:28.000Z</time>
      </trkpt>
      <trkpt lat="47.46994" lon="-0.58001">
        <ele>27</ele>
        <time>2015-07-07T08:40:29.000Z</time>
      </trkpt>
      <trkpt lat="47.46992" lon="-0.58005">
        <ele>27</ele>
        <time>2015-07-07T08:40:30.000Z</time>
      </trkpt>
      <trkpt lat="47.46991" lon="-0.58009">
        <ele>27</ele>
        <time>2015-07-07T08:40:31.000Z</time>
      </trkpt>
      <trkpt lat="47.46989" lon="-0.58012">
        <ele>27</ele>
        <time>2015-07-07T08:40:32.000Z</time>
      </trkpt>
      <trkpt lat="47.46987" lon="-0.58014">
        <ele>27</ele>
        <time>2015-07-07T08:40:33.000Z</time>
      </trkpt>
      <trkpt lat="47.46985" lon="-0.58015">
        <ele>26</ele>
        <time>2015-07-07T08:40:34.000Z</time>
      </trkpt>
      <trkpt lat="47.46983" lon="-0.58016">
        <ele>26</ele>
        <time>2015-07-07T08:40:35.000Z</time>
      </trkpt>
      <trkpt lat="47.46981" lon="-0.58015">
        <ele>26</ele>
        <time>2015-07-07T08:40:36.000Z</time>
      </trkpt>
      <trkpt lat="47.46978" lon="-0.58014">
        <ele>26</ele>
        <time>2015-07-07T08:40:37.000Z</time>
      </trkpt>
      <trkpt lat="47.46976" lon="-0.58014">
        <ele>26</ele>
        <time>2015-07-07T08:40:38.000Z</time>
      </trkpt>
      <trkpt lat="47.46973" lon="-0.58013">
        <ele>26</ele>
        <time>2015-07-07T08:40:39.000Z</time>
      </trkpt>
      <trkpt lat="47.46971" lon="-0.58013">
        <ele>26</ele>
        <time>2015-07-07T08:40:40.000Z</time>
      </trkpt>
      <trkpt lat="47.46968" lon="-0.58012">
        <ele>26</ele>
        <time>2015-07-07T08:40:41.000Z</time>
      </trkpt>
      <trkpt lat="47.46965" lon="-0.58013">
        <ele>26</ele>
        <time>2015-07-07T08:40:42.000Z</time>
      </trkpt>
      <trkpt lat="47.46963" lon="-0.58014">
        <ele>25</ele>
        <time>2015-07-07T08:40:43.000Z</time>
      </trkpt>
      <trkpt lat="47.4696" lon="-0.58015">
        <ele>25</ele>
        <time>2015-07-07T08:40:44.000Z</time>
      </trkpt>
      <trkpt lat="47.46957" lon="-0.58016">
        <ele>25</ele>
        <time>2015-07-07T08:40:45.000Z</time>
      </trkpt>
      <trkpt lat="47.46954" lon="-0.58017">
        <ele>25</ele>
        <time>2015-07-07T08:40:46.000Z</time>
      </trkpt>
      <trkpt lat="47.46951" lon="-0.58018">
        <ele>25</ele>
        <time>2015-07-07T08:40:47.000Z</time>
      </trkpt>
      <trkpt lat="47.46948" lon="-0.5802">
        <ele>25</ele>
        <time>2015-07-07T08:40:48.000Z</time>
      </trkpt>
      <trkpt lat="47.46945" lon="-0.58022">
        <ele>24</ele>
        <time>2015-07-07T08:40:49.000Z</time>
      </trkpt>
      <trkpt lat="47.46943" lon="-0.58024">
        <ele>24</ele>
        <time>2015-07-07T08:40:50.000Z</time>
      </trkpt>
      <trkpt lat="47.46942" lon="-0.58027">
        <ele>25</ele>
        <time>2015-07-07T08:40:51.000Z</time>
      </trkpt>
      <trkpt lat="47.4694" lon="-0.5803">
        <ele>25</ele>
        <time>2015-07-07T08:40:52.000Z</time>
      </trkpt>
      <trkpt lat="47.46939" lon="-0.58033">
        <ele>24</ele>
        <time>2015-07-07T08:40:53.000Z</time>
      </trkpt>
      <trkpt lat="47.46937" lon="-0.58035">
        <ele>23</ele>
        <time>2015-07-07T08:40:54.000Z</time>
      </trkpt>
      <trkpt lat="47.46936" lon="-0.58038">
        <ele>23</ele>
        <time>2015-07-07T08:40:55.000Z</time>
      </trkpt>
      <trkpt lat="47.46935" lon="-0.58041">
        <ele>23</ele>
        <time>2015-07-07T08:40:56.000Z</time>
      </trkpt>
      <trkpt lat="47.46934" lon="-0.58045">
        <ele>23</ele>
        <time>2015-07-07T08:40:57.000Z</time>
      </trkpt>
      <trkpt lat="47.46933" lon="-0.58048">
        <ele>23</ele>
        <time>2015-07-07T08:40:58.000Z</time>
      </trkpt>
      <trkpt lat="47.46932" lon="-0.58051">
        <ele>23</ele>
        <time>2015-07-07T08:40:59.000Z</time>
      </trkpt>
      <trkpt lat="47.46931" lon="-0.58055">
        <ele>22</ele>
        <time>2015-07-07T08:41:00.000Z</time>
      </trkpt>
      <trkpt lat="47.4693" lon="-0.58058">
        <ele>22</ele>
        <time>2015-07-07T08:41:01.000Z</time>
      </trkpt>
      <trkpt lat="47.46928" lon="-0.58061">
        <ele>22</ele>
        <time>2015-07-07T08:41:02.000Z</time>
      </trkpt>
      <trkpt lat="47.46927" lon="-0.58065">
        <ele>22</ele>
        <time>2015-07-07T08:41:03.000Z</time>
      </trkpt>
      <trkpt lat="47.46926" lon="-0.58069">
        <ele>23</ele>
        <time>2015-07-07T08:41:04.000Z</time>
      </trkpt>
      <trkpt lat="47.46925" lon="-0.58073">
        <ele>23</ele>
        <time>2015-07-07T08:41:05.000Z</time>
      </trkpt>
      <trkpt lat="47.46923" lon="-0.58077">
        <ele>23</ele>
        <time>2015-07-07T08:41:06.000Z</time>
      </trkpt>
      <trkpt lat="47.46922" lon="-0.58081">
        <ele>23</ele>
        <time>2015-07-07T08:41:07.000Z</time>
      </trkpt>
      <trkpt lat="47.4692" lon="-0.58084">
        <ele>23</ele>
        <time>2015-07-07T08:41:08.000Z</time>
      </trkpt>
      <trkpt lat="47.46919" lon="-0.58086">
        <ele>22</ele>
        <time>2015-07-07T08:41:09.000Z</time>
      </trkpt>
      <trkpt lat="47.46917" lon="-0.58087">
        <ele>22</ele>
        <time>2015-07-07T08:41:10.000Z</time>
      </trkpt>
      <trkpt lat="47.46915" lon="-0.58087">
        <ele>22</ele>
        <time>2015-07-07T08:41:11.000Z</time>
      </trkpt>
      <trkpt lat="47.46913" lon="-0.58085">
        <ele>21</ele>
        <time>2015-07-07T08:41:12.000Z</time>
      </trkpt>
      <trkpt lat="47.4691" lon="-0.58083">
        <ele>20</ele>
        <time>2015-07-07T08:41:13.000Z</time>
      </trkpt>
      <trkpt lat="47.46908" lon="-0.5808">
        <ele>21</ele>
        <time>2015-07-07T08:41:14.000Z</time>
      </trkpt>
      <trkpt lat="47.46906" lon="-0.58076">
        <ele>19</ele>
        <time>2015-07-07T08:41:15.000Z</time>
      </trkpt>
      <trkpt lat="47.46905" lon="-0.58073">
        <ele>19</ele>
        <time>2015-07-07T08:41:16.000Z</time>
      </trkpt>
      <trkpt lat="47.46903" lon="-0.5807">
        <ele>19</ele>
        <time>2015-07-07T08:41:17.000Z</time>
      </trkpt>
      <trkpt lat="47.46901" lon="-0.58067">
        <ele>18</ele>
        <time>2015-07-07T08:41:18.000Z</time>
      </trkpt>
      <trkpt lat="47.46899" lon="-0.58064">
        <ele>19</ele>
        <time>2015-07-07T08:41:19.000Z</time>
      </trkpt>
      <trkpt lat="47.46896" lon="-0.5806">
        <ele>19</ele>
        <time>2015-07-07T08:41:20.000Z</time>
      </trkpt>
      <trkpt lat="47.46893" lon="-0.58057">
        <ele>18</ele>
        <time>2015-07-07T08:41:21.000Z</time>
      </trkpt>
      <trkpt lat="47.46891" lon="-0.58055">
        <ele>18</ele>
        <time>2015-07-07T08:41:22.000Z</time>
      </trkpt>
      <trkpt lat="47.46888" lon="-0.58053">
        <ele>17</ele>
        <time>2015-07-07T08:41:23.000Z</time>
      </trkpt>
      <trkpt lat="47.46885" lon="-0.58052">
        <ele>17</ele>
        <time>2015-07-07T08:41:24.000Z</time>
      </trkpt>
      <trkpt lat="47.46882" lon="-0.5805">
        <ele>16</ele>
        <time>2015-07-07T08:41:25.000Z</time>
      </trkpt>
      <trkpt lat="47.4688" lon="-0.58049">
        <ele>17</ele>
        <time>2015-07-07T08:41:26.000Z</time>
      </trkpt>
      <trkpt lat="47.46878" lon="-0.58048">
        <ele>17</ele>
        <time>2015-07-07T08:41:27.000Z</time>
      </trkpt>
      <trkpt lat="47.46875" lon="-0.58048">
        <ele>18</ele>
        <time>2015-07-07T08:41:28.000Z</time>
      </trkpt>
      <trkpt lat="47.46872" lon="-0.58049">
        <ele>18</ele>
        <time>2015-07-07T08:41:29.000Z</time>
      </trkpt>
      <trkpt lat="47.46869" lon="-0.5805">
        <ele>20</ele>
        <time>2015-07-07T08:41:30.000Z</time>
      </trkpt>
      <trkpt lat="47.46866" lon="-0.58052">
        <ele>21</ele>
        <time>2015-07-07T08:41:31.000Z</time>
      </trkpt>
      <trkpt lat="47.46864" lon="-0.58053">
        <ele>21</ele>
        <time>2015-07-07T08:41:32.000Z</time>
      </trkpt>
      <trkpt lat="47.46861" lon="-0.58054">
        <ele>22</ele>
        <time>2015-07-07T08:41:33.000Z</time>
      </trkpt>
      <trkpt lat="47.46858" lon="-0.58056">
        <ele>22</ele>
        <time>2015-07-07T08:41:34.000Z</time>
      </trkpt>
      <trkpt lat="47.46856" lon="-0.58057">
        <ele>22</ele>
        <time>2015-07-07T08:41:35.000Z</time>
      </trkpt>
      <trkpt lat="47.46853" lon="-0.58059">
        <ele>22</ele>
        <time>2015-07-07T08:41:36.000Z</time>
      </trkpt>
      <trkpt lat="47.4685" lon="-0.58061">
        <ele>21</ele>
        <time>2015-07-07T08:41:37.000Z</time>
      </trkpt>
      <trkpt lat="47.46847" lon="-0.58063">
        <ele>22</ele>
        <time>2015-07-07T08:41:38.000Z</time>
      </trkpt>
      <trkpt lat="47.46844" lon="-0.58065">
        <ele>22</ele>
        <time>2015-07-07T08:41:39.000Z</time>
      </trkpt>
      <trkpt lat="47.46842" lon="-0.58068">
        <ele>22</ele>
        <time>2015-07-07T08:41:40.000Z</time>
      </trkpt>
      <trkpt lat="47.46839" lon="-0.58071">
        <ele>22</ele>
        <time>2015-07-07T08:41:41.000Z</time>
      </trkpt>
      <trkpt lat="47.46838" lon="-0.58075">
        <ele>22</ele>
        <time>2015-07-07T08:41:42.000Z</time>
      </trkpt>
      <trkpt lat="47.46836" lon="-0.58078">
        <ele>22</ele>
        <time>2015-07-07T08:41:43.000Z</time>
      </trkpt>
      <trkpt lat="47.46835" lon="-0.58082">
        <ele>22</ele>
        <time>2015-07-07T08:41:44.000Z</time>
      </trkpt>
      <trkpt lat="47.46834" lon="-0.58085">
        <ele>21</ele>
        <time>2015-07-07T08:41:45.000Z</time>
      </trkpt>
      <trkpt lat="47.46833" lon="-0.58089">
        <ele>22</ele>
        <time>2015-07-07T08:41:46.000Z</time>
      </trkpt>
      <trkpt lat="47.46832" lon="-0.58093">
        <ele>22</ele>
        <time>2015-07-07T08:41:47.000Z</time>
      </trkpt>
      <trkpt lat="47.46831" lon="-0.58097">
        <ele>22</ele>
        <time>2015-07-07T08:41:48.000Z</time>
      </trkpt>
      <trkpt lat="47.4683" lon="-0.58101">
        <ele>22</ele>
        <time>2015-07-07T08:41:49.000Z</time>
      </trkpt>
      <trkpt lat="47.46829" lon="-0.58105">
        <ele>23</ele>
        <time>2015-07-07T08:41:50.000Z</time>
      </trkpt>
      <trkpt lat="47.46829" lon="-0.58109">
        <ele>23</ele>
        <time>2015-07-07T08:41:51.000Z</time>
      </trkpt>
      <trkpt lat="47.46829" lon="-0.58114">
        <ele>24</ele>
        <time>2015-07-07T08:41:52.000Z</time>
      </trkpt>
      <trkpt lat="47.46828" lon="-0.58118">
        <ele>23</ele>
        <time>2015-07-07T08:41:53.000Z</time>
      </trkpt>
      <trkpt lat="47.46828" lon="-0.58123">
        <ele>24</ele>
        <time>2015-07-07T08:41:54.000Z</time>
      </trkpt>
      <trkpt lat="47.46828" lon="-0.58127">
        <ele>23</ele>
        <time>2015-07-07T08:41:55.000Z</time>
      </trkpt>
      <trkpt lat="47.46828" lon="-0.58131">
        <ele>24</ele>
        <time>2015-07-07T08:41:56.000Z</time>
      </trkpt>
      <trkpt lat="47.46828" lon="-0.58136">
        <ele>24</ele>
        <time>2015-07-07T08:41:57.000Z</time>
      </trkpt>
      <trkpt lat="47.46828" lon="-0.5814">
        <ele>24</ele>
        <time>2015-07-07T08:41:58.000Z</time>
      </trkpt>
      <trkpt lat="47.46828" lon="-0.58145">
        <ele>24</ele>
        <time>2015-07-07T08:41:59.000Z</time>
      </trkpt>
      <trkpt lat="47.46828" lon="-0.58149">
        <ele>24</ele>
        <time>2015-07-07T08:42:00.000Z</time>
      </trkpt>
      <trkpt lat="47.46827" lon="-0.58154">
        <ele>24</ele>
        <time>2015-07-07T08:42:01.000Z</time>
      </trkpt>
      <trkpt lat="47.46827" lon="-0.58158">
        <ele>24</ele>
        <time>2015-07-07T08:42:02.000Z</time>
      </trkpt>
      <trkpt lat="47.46827" lon="-0.58163">
        <ele>24</ele>
        <time>2015-07-07T08:42:03.000Z</time>
      </trkpt>
      <trkpt lat="47.46826" lon="-0.58167">
        <ele>24</ele>
        <time>2015-07-07T08:42:04.000Z</time>
      </trkpt>
      <trkpt lat="47.46825" lon="-0.58172">
        <ele>23</ele>
        <time>2015-07-07T08:42:05.000Z</time>
      </trkpt>
      <trkpt lat="47.46824" lon="-0.58176">
        <ele>24</ele>
        <time>2015-07-07T08:42:06.000Z</time>
      </trkpt>
      <trkpt lat="47.46822" lon="-0.5818">
        <ele>23</ele>
        <time>2015-07-07T08:42:07.000Z</time>
      </trkpt>
      <trkpt lat="47.4682" lon="-0.58184">
        <ele>23</ele>
        <time>2015-07-07T08:42:08.000Z</time>
      </trkpt>
      <trkpt lat="47.46819" lon="-0.58187">
        <ele>23</ele>
        <time>2015-07-07T08:42:09.000Z</time>
      </trkpt>
      <trkpt lat="47.46817" lon="-0.5819">
        <ele>24</ele>
        <time>2015-07-07T08:42:10.000Z</time>
      </trkpt>
      <trkpt lat="47.46814" lon="-0.58193">
        <ele>24</ele>
        <time>2015-07-07T08:42:11.000Z</time>
      </trkpt>
      <trkpt lat="47.46812" lon="-0.58196">
        <ele>23</ele>
        <time>2015-07-07T08:42:12.000Z</time>
      </trkpt>
      <trkpt lat="47.46809" lon="-0.58198">
        <ele>23</ele>
        <time>2015-07-07T08:42:13.000Z</time>
      </trkpt>
      <trkpt lat="47.46807" lon="-0.58201">
        <ele>23</ele>
        <time>2015-07-07T08:42:14.000Z</time>
      </trkpt>
      <trkpt lat="47.46805" lon="-0.58204">
        <ele>23</ele>
        <time>2015-07-07T08:42:15.000Z</time>
      </trkpt>
      <trkpt lat="47.46803" lon="-0.58206">
        <ele>23</ele>
        <time>2015-07-07T08:42:16.000Z</time>
      </trkpt>
      <trkpt lat="47.468" lon="-0.58209">
        <ele>23</ele>
        <time>2015-07-07T08:42:17.000Z</time>
      </trkpt>
      <trkpt lat="47.46798" lon="-0.58212">
        <ele>23</ele>
        <time>2015-07-07T08:42:18.000Z</time>
      </trkpt>
      <trkpt lat="47.46796" lon="-0.58214">
        <ele>23</ele>
        <time>2015-07-07T08:42:19.000Z</time>
      </trkpt>
      <trkpt lat="47.46794" lon="-0.58217">
        <ele>22</ele>
        <time>2015-07-07T08:42:20.000Z</time>
      </trkpt>
      <trkpt lat="47.46791" lon="-0.58219">
        <ele>22</ele>
        <time>2015-07-07T08:42:21.000Z</time>
      </trkpt>
      <trkpt lat="47.46789" lon="-0.58221">
        <ele>22</ele>
        <time>2015-07-07T08:42:22.000Z</time>
      </trkpt>
      <trkpt lat="47.46787" lon="-0.58224">
        <ele>21</ele>
        <time>2015-07-07T08:42:23.000Z</time>
      </trkpt>
      <trkpt lat="47.46785" lon="-0.58226">
        <ele>20</ele>
        <time>2015-07-07T08:42:24.000Z</time>
      </trkpt>
      <trkpt lat="47.46784" lon="-0.58229">
        <ele>19</ele>
        <time>2015-07-07T08:42:25.000Z</time>
      </trkpt>
      <trkpt lat="47.46786" lon="-0.58233">
        <ele>21</ele>
        <time>2015-07-07T08:42:26.000Z</time>
      </trkpt>
      <trkpt lat="47.46788" lon="-0.58236">
        <ele>20</ele>
        <time>2015-07-07T08:42:27.000Z</time>
      </trkpt>
      <trkpt lat="47.4679" lon="-0.5824">
        <ele>19</ele>
        <time>2015-07-07T08:42:28.000Z</time>
      </trkpt>
      <trkpt lat="47.46792" lon="-0.58242">
        <ele>17</ele>
        <time>2015-07-07T08:42:29.000Z</time>
      </trkpt>
      <trkpt lat="47.46793" lon="-0.58244">
        <ele>17</ele>
        <time>2015-07-07T08:42:30.000Z</time>
      </trkpt>
      <trkpt lat="47.46794" lon="-0.58246">
        <ele>16</ele>
        <time>2015-07-07T08:42:31.000Z</time>
      </trkpt>
      <trkpt lat="47.46795" lon="-0.58248">
        <ele>15</ele>
        <time>2015-07-07T08:42:32.000Z</time>
      </trkpt>
      <trkpt lat="47.46797" lon="-0.5825">
        <ele>15</ele>
        <time>2015-07-07T08:42:33.000Z</time>
      </trkpt>
      <trkpt lat="47.46798" lon="-0.58252">
        <ele>15</ele>
        <time>2015-07-07T08:42:34.000Z</time>
      </trkpt>
      <trkpt lat="47.468" lon="-0.58254">
        <ele>14</ele>
        <time>2015-07-07T08:42:35.000Z</time>
      </trkpt>
      <trkpt lat="47.46803" lon="-0.58256">
        <ele>15</ele>
        <time>2015-07-07T08:42:36.000Z</time>
      </trkpt>
      <trkpt lat="47.46805" lon="-0.58257">
        <ele>14</ele>
        <time>2015-07-07T08:42:37.000Z</time>
      </trkpt>
      <trkpt lat="47.46807" lon="-0.58259">
        <ele>14</ele>
        <time>2015-07-07T08:42:38.000Z</time>
      </trkpt>
      <trkpt lat="47.46809" lon="-0.58262">
        <ele>15</ele>
        <time>2015-07-07T08:42:39.000Z</time>
      </trkpt>
      <trkpt lat="47.46811" lon="-0.58265">
        <ele>16</ele>
        <time>2015-07-07T08:42:40.000Z</time>
      </trkpt>
      <trkpt lat="47.46813" lon="-0.58268">
        <ele>18</ele>
        <time>2015-07-07T08:42:41.000Z</time>
      </trkpt>
      <trkpt lat="47.46815" lon="-0.58271">
        <ele>18</ele>
        <time>2015-07-07T08:42:42.000Z</time>
      </trkpt>
      <trkpt lat="47.46817" lon="-0.58275">
        <ele>19</ele>
        <time>2015-07-07T08:42:43.000Z</time>
      </trkpt>
      <trkpt lat="47.46819" lon="-0.58278">
        <ele>20</ele>
        <time>2015-07-07T08:42:44.000Z</time>
      </trkpt>
      <trkpt lat="47.4682" lon="-0.58282">
        <ele>20</ele>
        <time>2015-07-07T08:42:45.000Z</time>
      </trkpt>
      <trkpt lat="47.46821" lon="-0.58285">
        <ele>21</ele>
        <time>2015-07-07T08:42:46.000Z</time>
      </trkpt>
      <trkpt lat="47.46822" lon="-0.58288">
        <ele>21</ele>
        <time>2015-07-07T08:42:47.000Z</time>
      </trkpt>
      <trkpt lat="47.46823" lon="-0.58291">
        <ele>22</ele>
        <time>2015-07-07T08:42:48.000Z</time>
      </trkpt>
      <trkpt lat="47.46824" lon="-0.58293">
        <ele>22</ele>
        <time>2015-07-07T08:42:49.000Z</time>
      </trkpt>
      <trkpt lat="47.46825" lon="-0.58296">
        <ele>23</ele>
        <time>2015-07-07T08:42:50.000Z</time>
      </trkpt>
      <trkpt lat="47.46825" lon="-0.583">
        <ele>24</ele>
        <time>2015-07-07T08:42:51.000Z</time>
      </trkpt>
      <trkpt lat="47.46824" lon="-0.58304">
        <ele>24</ele>
        <time>2015-07-07T08:42:52.000Z</time>
      </trkpt>
      <trkpt lat="47.46823" lon="-0.58309">
        <ele>24</ele>
        <time>2015-07-07T08:42:53.000Z</time>
      </trkpt>
      <trkpt lat="47.46823" lon="-0.58313">
        <ele>25</ele>
        <time>2015-07-07T08:42:54.000Z</time>
      </trkpt>
      <trkpt lat="47.46821" lon="-0.58317">
        <ele>25</ele>
        <time>2015-07-07T08:42:55.000Z</time>
      </trkpt>
      <trkpt lat="47.4682" lon="-0.58321">
        <ele>25</ele>
        <time>2015-07-07T08:42:56.000Z</time>
      </trkpt>
      <trkpt lat="47.46819" lon="-0.58324">
        <ele>25</ele>
        <time>2015-07-07T08:42:57.000Z</time>
      </trkpt>
      <trkpt lat="47.46817" lon="-0.58328">
        <ele>26</ele>
        <time>2015-07-07T08:42:58.000Z</time>
      </trkpt>
      <trkpt lat="47.46816" lon="-0.58332">
        <ele>26</ele>
        <time>2015-07-07T08:42:59.000Z</time>
      </trkpt>
      <trkpt lat="47.46814" lon="-0.58336">
        <ele>26</ele>
        <time>2015-07-07T08:43:00.000Z</time>
      </trkpt>
      <trkpt lat="47.46813" lon="-0.58339">
        <ele>25</ele>
        <time>2015-07-07T08:43:01.000Z</time>
      </trkpt>
      <trkpt lat="47.46811" lon="-0.58343">
        <ele>25</ele>
        <time>2015-07-07T08:43:02.000Z</time>
      </trkpt>
      <trkpt lat="47.4681" lon="-0.58346">
        <ele>26</ele>
        <time>2015-07-07T08:43:03.000Z</time>
      </trkpt>
      <trkpt lat="47.46808" lon="-0.5835">
        <ele>26</ele>
        <time>2015-07-07T08:43:04.000Z</time>
      </trkpt>
      <trkpt lat="47.46807" lon="-0.58354">
        <ele>26</ele>
        <time>2015-07-07T08:43:05.000Z</time>
      </trkpt>
      <trkpt lat="47.46806" lon="-0.58357">
        <ele>26</ele>
        <time>2015-07-07T08:43:06.000Z</time>
      </trkpt>
      <trkpt lat="47.46805" lon="-0.58361">
        <ele>25</ele>
        <time>2015-07-07T08:43:07.000Z</time>
      </trkpt>
      <trkpt lat="47.46804" lon="-0.58365">
        <ele>25</ele>
        <time>2015-07-07T08:43:08.000Z</time>
      </trkpt>
      <trkpt lat="47.46803" lon="-0.58369">
        <ele>26</ele>
        <time>2015-07-07T08:43:09.000Z</time>
      </trkpt>
      <trkpt lat="47.46803" lon="-0.58374">
        <ele>26</ele>
        <time>2015-07-07T08:43:10.000Z</time>
      </trkpt>
      <trkpt lat="47.46803" lon="-0.58379">
        <ele>25</ele>
        <time>2015-07-07T08:43:11.000Z</time>
      </trkpt>
      <trkpt lat="47.46803" lon="-0.58383">
        <ele>25</ele>
        <time>2015-07-07T08:43:12.000Z</time>
      </trkpt>
      <trkpt lat="47.46803" lon="-0.58387">
        <ele>26</ele>
        <time>2015-07-07T08:43:13.000Z</time>
      </trkpt>
      <trkpt lat="47.46802" lon="-0.58392">
        <ele>26</ele>
        <time>2015-07-07T08:43:14.000Z</time>
      </trkpt>
      <trkpt lat="47.46802" lon="-0.58396">
        <ele>26</ele>
        <time>2015-07-07T08:43:15.000Z</time>
      </trkpt>
      <trkpt lat="47.46802" lon="-0.584">
        <ele>25</ele>
        <time>2015-07-07T08:43:16.000Z</time>
      </trkpt>
      <trkpt lat="47.46801" lon="-0.58404">
        <ele>25</ele>
        <time>2015-07-07T08:43:17.000Z</time>
      </trkpt>
      <trkpt lat="47.46801" lon="-0.58408">
        <ele>25</ele>
        <time>2015-07-07T08:43:18.000Z</time>
      </trkpt>
      <trkpt lat="47.468" lon="-0.58412">
        <ele>24</ele>
        <time>2015-07-07T08:43:19.000Z</time>
      </trkpt>
      <trkpt lat="47.468" lon="-0.58416">
        <ele>24</ele>
        <time>2015-07-07T08:43:20.000Z</time>
      </trkpt>
      <trkpt lat="47.46799" lon="-0.5842">
        <ele>24</ele>
        <time>2015-07-07T08:43:21.000Z</time>
      </trkpt>
      <trkpt lat="47.46798" lon="-0.58424">
        <ele>24</ele>
        <time>2015-07-07T08:43:22.000Z</time>
      </trkpt>
      <trkpt lat="47.46797" lon="-0.58428">
        <ele>24</ele>
        <time>2015-07-07T08:43:23.000Z</time>
      </trkpt>
      <trkpt lat="47.46795" lon="-0.58432">
        <ele>24</ele>
        <time>2015-07-07T08:43:24.000Z</time>
      </trkpt>
      <trkpt lat="47.46794" lon="-0.58436">
        <ele>24</ele>
        <time>2015-07-07T08:43:25.000Z</time>
      </trkpt>
      <trkpt lat="47.46792" lon="-0.58439">
        <ele>23</ele>
        <time>2015-07-07T08:43:26.000Z</time>
      </trkpt>
      <trkpt lat="47.46791" lon="-0.58442">
        <ele>23</ele>
        <time>2015-07-07T08:43:27.000Z</time>
      </trkpt>
      <trkpt lat="47.46789" lon="-0.58446">
        <ele>23</ele>
        <time>2015-07-07T08:43:28.000Z</time>
      </trkpt>
      <trkpt lat="47.46787" lon="-0.58449">
        <ele>23</ele>
        <time>2015-07-07T08:43:29.000Z</time>
      </trkpt>
      <trkpt lat="47.46785" lon="-0.58452">
        <ele>23</ele>
        <time>2015-07-07T08:43:30.000Z</time>
      </trkpt>
      <trkpt lat="47.46784" lon="-0.58455">
        <ele>23</ele>
        <time>2015-07-07T08:43:31.000Z</time>
      </trkpt>
      <trkpt lat="47.46782" lon="-0.58458">
        <ele>23</ele>
        <time>2015-07-07T08:43:32.000Z</time>
      </trkpt>
      <trkpt lat="47.46782" lon="-0.58458">
        <ele>23</ele>
        <time>2015-07-07T08:43:42.000Z</time>
      </trkpt>
      <trkpt lat="47.46782" lon="-0.58458">
        <ele>23</ele>
        <time>2015-07-07T08:43:43.000Z</time>
      </trkpt>
      <trkpt lat="47.46774" lon="-0.58472">
        <ele>23</ele>
        <time>2015-07-07T08:43:44.000Z</time>
      </trkpt>
      <trkpt lat="47.46765" lon="-0.58485">
        <ele>23</ele>
        <time>2015-07-07T08:43:45.000Z</time>
      </trkpt>
      <trkpt lat="47.46757" lon="-0.58499">
        <ele>23</ele>
        <time>2015-07-07T08:43:46.000Z</time>
      </trkpt>
      <trkpt lat="47.46754" lon="-0.585">
        <ele>24</ele>
        <time>2015-07-07T08:43:47.000Z</time>
      </trkpt>
      <trkpt lat="47.46752" lon="-0.58502">
        <ele>24</ele>
        <time>2015-07-07T08:43:48.000Z</time>
      </trkpt>
      <trkpt lat="47.46749" lon="-0.58504">
        <ele>24</ele>
        <time>2015-07-07T08:43:49.000Z</time>
      </trkpt>
      <trkpt lat="47.46747" lon="-0.58507">
        <ele>25</ele>
        <time>2015-07-07T08:43:50.000Z</time>
      </trkpt>
      <trkpt lat="47.46744" lon="-0.58509">
        <ele>25</ele>
        <time>2015-07-07T08:43:51.000Z</time>
      </trkpt>
      <trkpt lat="47.46741" lon="-0.5851">
        <ele>25</ele>
        <time>2015-07-07T08:43:52.000Z</time>
      </trkpt>
      <trkpt lat="47.46739" lon="-0.58512">
        <ele>26</ele>
        <time>2015-07-07T08:43:53.000Z</time>
      </trkpt>
      <trkpt lat="47.46737" lon="-0.58514">
        <ele>26</ele>
        <time>2015-07-07T08:43:54.000Z</time>
      </trkpt>
      <trkpt lat="47.46735" lon="-0.58517">
        <ele>27</ele>
        <time>2015-07-07T08:43:55.000Z</time>
      </trkpt>
      <trkpt lat="47.46733" lon="-0.58519">
        <ele>27</ele>
        <time>2015-07-07T08:43:56.000Z</time>
      </trkpt>
      <trkpt lat="47.46731" lon="-0.58521">
        <ele>27</ele>
        <time>2015-07-07T08:43:57.000Z</time>
      </trkpt>
      <trkpt lat="47.46728" lon="-0.58523">
        <ele>27</ele>
        <time>2015-07-07T08:43:58.000Z</time>
      </trkpt>
      <trkpt lat="47.46726" lon="-0.58524">
        <ele>27</ele>
        <time>2015-07-07T08:43:59.000Z</time>
      </trkpt>
      <trkpt lat="47.46724" lon="-0.58525">
        <ele>27</ele>
        <time>2015-07-07T08:44:00.000Z</time>
      </trkpt>
      <trkpt lat="47.46721" lon="-0.58526">
        <ele>27</ele>
        <time>2015-07-07T08:44:01.000Z</time>
      </trkpt>
      <trkpt lat="47.46719" lon="-0.58527">
        <ele>27</ele>
        <time>2015-07-07T08:44:02.000Z</time>
      </trkpt>
      <trkpt lat="47.46716" lon="-0.58528">
        <ele>28</ele>
        <time>2015-07-07T08:44:03.000Z</time>
      </trkpt>
      <trkpt lat="47.46714" lon="-0.5853">
        <ele>28</ele>
        <time>2015-07-07T08:44:04.000Z</time>
      </trkpt>
      <trkpt lat="47.46711" lon="-0.58532">
        <ele>27</ele>
        <time>2015-07-07T08:44:05.000Z</time>
      </trkpt>
      <trkpt lat="47.46709" lon="-0.58536">
        <ele>27</ele>
        <time>2015-07-07T08:44:06.000Z</time>
      </trkpt>
      <trkpt lat="47.46708" lon="-0.5854">
        <ele>27</ele>
        <time>2015-07-07T08:44:07.000Z</time>
      </trkpt>
      <trkpt lat="47.46708" lon="-0.58543">
        <ele>27</ele>
        <time>2015-07-07T08:44:08.000Z</time>
      </trkpt>
      <trkpt lat="47.46708" lon="-0.58547">
        <ele>27</ele>
        <time>2015-07-07T08:44:09.000Z</time>
      </trkpt>
      <trkpt lat="47.46707" lon="-0.5855">
        <ele>27</ele>
        <time>2015-07-07T08:44:10.000Z</time>
      </trkpt>
      <trkpt lat="47.46707" lon="-0.58553">
        <ele>25</ele>
        <time>2015-07-07T08:44:11.000Z</time>
      </trkpt>
      <trkpt lat="47.46706" lon="-0.58556">
        <ele>25</ele>
        <time>2015-07-07T08:44:12.000Z</time>
      </trkpt>
      <trkpt lat="47.46705" lon="-0.58558">
        <ele>24</ele>
        <time>2015-07-07T08:44:13.000Z</time>
      </trkpt>
      <trkpt lat="47.46705" lon="-0.5856">
        <ele>23</ele>
        <time>2015-07-07T08:44:14.000Z</time>
      </trkpt>
      <trkpt lat="47.46705" lon="-0.58563">
        <ele>23</ele>
        <time>2015-07-07T08:44:15.000Z</time>
      </trkpt>
      <trkpt lat="47.46704" lon="-0.58566">
        <ele>22</ele>
        <time>2015-07-07T08:44:16.000Z</time>
      </trkpt>
      <trkpt lat="47.46704" lon="-0.5857">
        <ele>22</ele>
        <time>2015-07-07T08:44:17.000Z</time>
      </trkpt>
      <trkpt lat="47.46703" lon="-0.58574">
        <ele>22</ele>
        <time>2015-07-07T08:44:18.000Z</time>
      </trkpt>
      <trkpt lat="47.46703" lon="-0.58579">
        <ele>24</ele>
        <time>2015-07-07T08:44:19.000Z</time>
      </trkpt>
      <trkpt lat="47.46704" lon="-0.58585">
        <ele>23</ele>
        <time>2015-07-07T08:44:20.000Z</time>
      </trkpt>
      <trkpt lat="47.46704" lon="-0.5859">
        <ele>24</ele>
        <time>2015-07-07T08:44:21.000Z</time>
      </trkpt>
      <trkpt lat="47.46704" lon="-0.58595">
        <ele>25</ele>
        <time>2015-07-07T08:44:22.000Z</time>
      </trkpt>
      <trkpt lat="47.46705" lon="-0.586">
        <ele>25</ele>
        <time>2015-07-07T08:44:23.000Z</time>
      </trkpt>
      <trkpt lat="47.46705" lon="-0.58604">
        <ele>25</ele>
        <time>2015-07-07T08:44:24.000Z</time>
      </trkpt>
      <trkpt lat="47.46705" lon="-0.58608">
        <ele>24</ele>
        <time>2015-07-07T08:44:25.000Z</time>
      </trkpt>
      <trkpt lat="47.46706" lon="-0.58612">
        <ele>24</ele>
        <time>2015-07-07T08:44:26.000Z</time>
      </trkpt>
      <trkpt lat="47.46707" lon="-0.58616">
        <ele>25</ele>
        <time>2015-07-07T08:44:27.000Z</time>
      </trkpt>
      <trkpt lat="47.46707" lon="-0.5862">
        <ele>25</ele>
        <time>2015-07-07T08:44:28.000Z</time>
      </trkpt>
      <trkpt lat="47.46707" lon="-0.58623">
        <ele>26</ele>
        <time>2015-07-07T08:44:29.000Z</time>
      </trkpt>
      <trkpt lat="47.46707" lon="-0.58627">
        <ele>25</ele>
        <time>2015-07-07T08:44:30.000Z</time>
      </trkpt>
      <trkpt lat="47.46706" lon="-0.58631">
        <ele>25</ele>
        <time>2015-07-07T08:44:31.000Z</time>
      </trkpt>
      <trkpt lat="47.46706" lon="-0.58635">
        <ele>26</ele>
        <time>2015-07-07T08:44:32.000Z</time>
      </trkpt>
      <trkpt lat="47.46705" lon="-0.5864">
        <ele>26</ele>
        <time>2015-07-07T08:44:33.000Z</time>
      </trkpt>
      <trkpt lat="47.46704" lon="-0.58644">
        <ele>26</ele>
        <time>2015-07-07T08:44:34.000Z</time>
      </trkpt>
      <trkpt lat="47.46703" lon="-0.58648">
        <ele>26</ele>
        <time>2015-07-07T08:44:35.000Z</time>
      </trkpt>
      <trkpt lat="47.46702" lon="-0.58652">
        <ele>25</ele>
        <time>2015-07-07T08:44:36.000Z</time>
      </trkpt>
      <trkpt lat="47.46701" lon="-0.58655">
        <ele>25</ele>
        <time>2015-07-07T08:44:37.000Z</time>
      </trkpt>
      <trkpt lat="47.467" lon="-0.58659">
        <ele>24</ele>
        <time>2015-07-07T08:44:38.000Z</time>
      </trkpt>
      <trkpt lat="47.46699" lon="-0.58663">
        <ele>23</ele>
        <time>2015-07-07T08:44:39.000Z</time>
      </trkpt>
      <trkpt lat="47.46698" lon="-0.58666">
        <ele>23</ele>
        <time>2015-07-07T08:44:40.000Z</time>
      </trkpt>
      <trkpt lat="47.46697" lon="-0.5867">
        <ele>23</ele>
        <time>2015-07-07T08:44:41.000Z</time>
      </trkpt>
      <trkpt lat="47.46696" lon="-0.58674">
        <ele>24</ele>
        <time>2015-07-07T08:44:42.000Z</time>
      </trkpt>
      <trkpt lat="47.46695" lon="-0.58679">
        <ele>25</ele>
        <time>2015-07-07T08:44:43.000Z</time>
      </trkpt>
      <trkpt lat="47.46695" lon="-0.58684">
        <ele>25</ele>
        <time>2015-07-07T08:44:44.000Z</time>
      </trkpt>
      <trkpt lat="47.46694" lon="-0.58689">
        <ele>25</ele>
        <time>2015-07-07T08:44:45.000Z</time>
      </trkpt>
      <trkpt lat="47.46694" lon="-0.58693">
        <ele>25</ele>
        <time>2015-07-07T08:44:46.000Z</time>
      </trkpt>
      <trkpt lat="47.46694" lon="-0.58697">
        <ele>24</ele>
        <time>2015-07-07T08:44:47.000Z</time>
      </trkpt>
      <trkpt lat="47.46694" lon="-0.58701">
        <ele>25</ele>
        <time>2015-07-07T08:44:48.000Z</time>
      </trkpt>
      <trkpt lat="47.46695" lon="-0.58705">
        <ele>25</ele>
        <time>2015-07-07T08:44:49.000Z</time>
      </trkpt>
      <trkpt lat="47.46696" lon="-0.58711">
        <ele>26</ele>
        <time>2015-07-07T08:44:50.000Z</time>
      </trkpt>
      <trkpt lat="47.46698" lon="-0.58716">
        <ele>26</ele>
        <time>2015-07-07T08:44:51.000Z</time>
      </trkpt>
      <trkpt lat="47.46699" lon="-0.58721">
        <ele>27</ele>
        <time>2015-07-07T08:44:52.000Z</time>
      </trkpt>
      <trkpt lat="47.467" lon="-0.58725">
        <ele>28</ele>
        <time>2015-07-07T08:44:53.000Z</time>
      </trkpt>
      <trkpt lat="47.46701" lon="-0.5873">
        <ele>28</ele>
        <time>2015-07-07T08:44:54.000Z</time>
      </trkpt>
      <trkpt lat="47.46702" lon="-0.58734">
        <ele>28</ele>
        <time>2015-07-07T08:44:55.000Z</time>
      </trkpt>
      <trkpt lat="47.46704" lon="-0.58738">
        <ele>28</ele>
        <time>2015-07-07T08:44:56.000Z</time>
      </trkpt>
      <trkpt lat="47.46705" lon="-0.58742">
        <ele>29</ele>
        <time>2015-07-07T08:44:57.000Z</time>
      </trkpt>
      <trkpt lat="47.46707" lon="-0.58745">
        <ele>29</ele>
        <time>2015-07-07T08:44:58.000Z</time>
      </trkpt>
      <trkpt lat="47.4671" lon="-0.58748">
        <ele>29</ele>
        <time>2015-07-07T08:44:59.000Z</time>
      </trkpt>
      <trkpt lat="47.46712" lon="-0.58751">
        <ele>29</ele>
        <time>2015-07-07T08:45:00.000Z</time>
      </trkpt>
      <trkpt lat="47.46714" lon="-0.58754">
        <ele>29</ele>
        <time>2015-07-07T08:45:01.000Z</time>
      </trkpt>
      <trkpt lat="47.46716" lon="-0.58757">
        <ele>28</ele>
        <time>2015-07-07T08:45:02.000Z</time>
      </trkpt>
      <trkpt lat="47.46718" lon="-0.5876">
        <ele>28</ele>
        <time>2015-07-07T08:45:03.000Z</time>
      </trkpt>
      <trkpt lat="47.4672" lon="-0.58763">
        <ele>28</ele>
        <time>2015-07-07T08:45:04.000Z</time>
      </trkpt>
      <trkpt lat="47.46722" lon="-0.58766">
        <ele>28</ele>
        <time>2015-07-07T08:45:05.000Z</time>
      </trkpt>
      <trkpt lat="47.46724" lon="-0.58769">
        <ele>28</ele>
        <time>2015-07-07T08:45:06.000Z</time>
      </trkpt>
      <trkpt lat="47.46726" lon="-0.58771">
        <ele>29</ele>
        <time>2015-07-07T08:45:07.000Z</time>
      </trkpt>
      <trkpt lat="47.46728" lon="-0.58774">
        <ele>29</ele>
        <time>2015-07-07T08:45:08.000Z</time>
      </trkpt>
      <trkpt lat="47.4673" lon="-0.58777">
        <ele>29</ele>
        <time>2015-07-07T08:45:09.000Z</time>
      </trkpt>
      <trkpt lat="47.46732" lon="-0.5878">
        <ele>29</ele>
        <time>2015-07-07T08:45:10.000Z</time>
      </trkpt>
      <trkpt lat="47.46734" lon="-0.58783">
        <ele>29</ele>
        <time>2015-07-07T08:45:11.000Z</time>
      </trkpt>
      <trkpt lat="47.46735" lon="-0.58787">
        <ele>30</ele>
        <time>2015-07-07T08:45:12.000Z</time>
      </trkpt>
      <trkpt lat="47.46736" lon="-0.58791">
        <ele>30</ele>
        <time>2015-07-07T08:45:13.000Z</time>
      </trkpt>
      <trkpt lat="47.46737" lon="-0.58795">
        <ele>29</ele>
        <time>2015-07-07T08:45:14.000Z</time>
      </trkpt>
      <trkpt lat="47.46738" lon="-0.58798">
        <ele>29</ele>
        <time>2015-07-07T08:45:15.000Z</time>
      </trkpt>
      <trkpt lat="47.46739" lon="-0.58802">
        <ele>28</ele>
        <time>2015-07-07T08:45:16.000Z</time>
      </trkpt>
      <trkpt lat="47.46739" lon="-0.58806">
        <ele>28</ele>
        <time>2015-07-07T08:45:17.000Z</time>
      </trkpt>
      <trkpt lat="47.4674" lon="-0.58809">
        <ele>28</ele>
        <time>2015-07-07T08:45:18.000Z</time>
      </trkpt>
      <trkpt lat="47.4674" lon="-0.58813">
        <ele>28</ele>
        <time>2015-07-07T08:45:19.000Z</time>
      </trkpt>
      <trkpt lat="47.46741" lon="-0.58816">
        <ele>29</ele>
        <time>2015-07-07T08:45:20.000Z</time>
      </trkpt>
      <trkpt lat="47.46741" lon="-0.5882">
        <ele>30</ele>
        <time>2015-07-07T08:45:21.000Z</time>
      </trkpt>
      <trkpt lat="47.46742" lon="-0.58824">
        <ele>30</ele>
        <time>2015-07-07T08:45:22.000Z</time>
      </trkpt>
      <trkpt lat="47.46742" lon="-0.58828">
        <ele>30</ele>
        <time>2015-07-07T08:45:23.000Z</time>
      </trkpt>
      <trkpt lat="47.46742" lon="-0.58831">
        <ele>30</ele>
        <time>2015-07-07T08:45:24.000Z</time>
      </trkpt>
      <trkpt lat="47.46742" lon="-0.58834">
        <ele>30</ele>
        <time>2015-07-07T08:45:25.000Z</time>
      </trkpt>
      <trkpt lat="47.46742" lon="-0.58837">
        <ele>31</ele>
        <time>2015-07-07T08:45:26.000Z</time>
      </trkpt>
      <trkpt lat="47.46741" lon="-0.58841">
        <ele>32</ele>
        <time>2015-07-07T08:45:27.000Z</time>
      </trkpt>
      <trkpt lat="47.4674" lon="-0.58845">
        <ele>32</ele>
        <time>2015-07-07T08:45:28.000Z</time>
      </trkpt>
      <trkpt lat="47.46739" lon="-0.58849">
        <ele>32</ele>
        <time>2015-07-07T08:45:29.000Z</time>
      </trkpt>
      <trkpt lat="47.46737" lon="-0.58852">
        <ele>31</ele>
        <time>2015-07-07T08:45:30.000Z</time>
      </trkpt>
      <trkpt lat="47.46735" lon="-0.58855">
        <ele>31</ele>
        <time>2015-07-07T08:45:31.000Z</time>
      </trkpt>
      <trkpt lat="47.46733" lon="-0.58858">
        <ele>32</ele>
        <time>2015-07-07T08:45:32.000Z</time>
      </trkpt>
      <trkpt lat="47.46731" lon="-0.58861">
        <ele>33</ele>
        <time>2015-07-07T08:45:33.000Z</time>
      </trkpt>
      <trkpt lat="47.46729" lon="-0.58864">
        <ele>33</ele>
        <time>2015-07-07T08:45:34.000Z</time>
      </trkpt>
      <trkpt lat="47.46728" lon="-0.58866">
        <ele>34</ele>
        <time>2015-07-07T08:45:35.000Z</time>
      </trkpt>
      <trkpt lat="47.46726" lon="-0.58868">
        <ele>33</ele>
        <time>2015-07-07T08:45:36.000Z</time>
      </trkpt>
      <trkpt lat="47.46724" lon="-0.5887">
        <ele>33</ele>
        <time>2015-07-07T08:45:37.000Z</time>
      </trkpt>
      <trkpt lat="47.46721" lon="-0.58872">
        <ele>33</ele>
        <time>2015-07-07T08:45:38.000Z</time>
      </trkpt>
      <trkpt lat="47.46719" lon="-0.58875">
        <ele>33</ele>
        <time>2015-07-07T08:45:39.000Z</time>
      </trkpt>
      <trkpt lat="47.46717" lon="-0.58878">
        <ele>32</ele>
        <time>2015-07-07T08:45:40.000Z</time>
      </trkpt>
      <trkpt lat="47.46715" lon="-0.58881">
        <ele>31</ele>
        <time>2015-07-07T08:45:41.000Z</time>
      </trkpt>
      <trkpt lat="47.46712" lon="-0.58885">
        <ele>31</ele>
        <time>2015-07-07T08:45:42.000Z</time>
      </trkpt>
      <trkpt lat="47.4671" lon="-0.58888">
        <ele>30</ele>
        <time>2015-07-07T08:45:43.000Z</time>
      </trkpt>
      <trkpt lat="47.46707" lon="-0.58892">
        <ele>30</ele>
        <time>2015-07-07T08:45:44.000Z</time>
      </trkpt>
      <trkpt lat="47.46705" lon="-0.58896">
        <ele>30</ele>
        <time>2015-07-07T08:45:45.000Z</time>
      </trkpt>
      <trkpt lat="47.46702" lon="-0.58899">
        <ele>30</ele>
        <time>2015-07-07T08:45:46.000Z</time>
      </trkpt>
      <trkpt lat="47.467" lon="-0.58903">
        <ele>29</ele>
        <time>2015-07-07T08:45:47.000Z</time>
      </trkpt>
      <trkpt lat="47.46698" lon="-0.58906">
        <ele>29</ele>
        <time>2015-07-07T08:45:48.000Z</time>
      </trkpt>
      <trkpt lat="47.46696" lon="-0.58909">
        <ele>29</ele>
        <time>2015-07-07T08:45:49.000Z</time>
      </trkpt>
      <trkpt lat="47.46694" lon="-0.58911">
        <ele>29</ele>
        <time>2015-07-07T08:45:50.000Z</time>
      </trkpt>
      <trkpt lat="47.46692" lon="-0.58914">
        <ele>29</ele>
        <time>2015-07-07T08:45:51.000Z</time>
      </trkpt>
      <trkpt lat="47.4669" lon="-0.58917">
        <ele>29</ele>
        <time>2015-07-07T08:45:52.000Z</time>
      </trkpt>
      <trkpt lat="47.46688" lon="-0.58921">
        <ele>30</ele>
        <time>2015-07-07T08:45:53.000Z</time>
      </trkpt>
      <trkpt lat="47.46687" lon="-0.58925">
        <ele>30</ele>
        <time>2015-07-07T08:45:54.000Z</time>
      </trkpt>
      <trkpt lat="47.46686" lon="-0.58929">
        <ele>30</ele>
        <time>2015-07-07T08:45:55.000Z</time>
      </trkpt>
      <trkpt lat="47.46685" lon="-0.58933">
        <ele>29</ele>
        <time>2015-07-07T08:45:56.000Z</time>
      </trkpt>
      <trkpt lat="47.46684" lon="-0.58937">
        <ele>30</ele>
        <time>2015-07-07T08:45:57.000Z</time>
      </trkpt>
      <trkpt lat="47.46683" lon="-0.58941">
        <ele>29</ele>
        <time>2015-07-07T08:45:58.000Z</time>
      </trkpt>
      <trkpt lat="47.46683" lon="-0.58946">
        <ele>29</ele>
        <time>2015-07-07T08:45:59.000Z</time>
      </trkpt>
      <trkpt lat="47.46683" lon="-0.5895">
        <ele>28</ele>
        <time>2015-07-07T08:46:00.000Z</time>
      </trkpt>
      <trkpt lat="47.46683" lon="-0.58954">
        <ele>26</ele>
        <time>2015-07-07T08:46:01.000Z</time>
      </trkpt>
      <trkpt lat="47.46683" lon="-0.58958">
        <ele>25</ele>
        <time>2015-07-07T08:46:02.000Z</time>
      </trkpt>
      <trkpt lat="47.46683" lon="-0.58962">
        <ele>24</ele>
        <time>2015-07-07T08:46:03.000Z</time>
      </trkpt>
      <trkpt lat="47.46683" lon="-0.58966">
        <ele>23</ele>
        <time>2015-07-07T08:46:04.000Z</time>
      </trkpt>
      <trkpt lat="47.46684" lon="-0.58971">
        <ele>21</ele>
        <time>2015-07-07T08:46:05.000Z</time>
      </trkpt>
      <trkpt lat="47.46684" lon="-0.58975">
        <ele>21</ele>
        <time>2015-07-07T08:46:06.000Z</time>
      </trkpt>
      <trkpt lat="47.46685" lon="-0.58979">
        <ele>20</ele>
        <time>2015-07-07T08:46:07.000Z</time>
      </trkpt>
      <trkpt lat="47.46685" lon="-0.58983">
        <ele>20</ele>
        <time>2015-07-07T08:46:08.000Z</time>
      </trkpt>
      <trkpt lat="47.46685" lon="-0.58987">
        <ele>19</ele>
        <time>2015-07-07T08:46:09.000Z</time>
      </trkpt>
      <trkpt lat="47.46685" lon="-0.58992">
        <ele>18</ele>
        <time>2015-07-07T08:46:10.000Z</time>
      </trkpt>
      <trkpt lat="47.46684" lon="-0.58996">
        <ele>17</ele>
        <time>2015-07-07T08:46:11.000Z</time>
      </trkpt>
      <trkpt lat="47.46683" lon="-0.59001">
        <ele>16</ele>
        <time>2015-07-07T08:46:12.000Z</time>
      </trkpt>
      <trkpt lat="47.46683" lon="-0.59005">
        <ele>16</ele>
        <time>2015-07-07T08:46:13.000Z</time>
      </trkpt>
      <trkpt lat="47.46681" lon="-0.59009">
        <ele>15</ele>
        <time>2015-07-07T08:46:14.000Z</time>
      </trkpt>
      <trkpt lat="47.46679" lon="-0.59014">
        <ele>16</ele>
        <time>2015-07-07T08:46:15.000Z</time>
      </trkpt>
      <trkpt lat="47.46677" lon="-0.59018">
        <ele>17</ele>
        <time>2015-07-07T08:46:16.000Z</time>
      </trkpt>
      <trkpt lat="47.46675" lon="-0.59023">
        <ele>19</ele>
        <time>2015-07-07T08:46:17.000Z</time>
      </trkpt>
      <trkpt lat="47.46673" lon="-0.59028">
        <ele>19</ele>
        <time>2015-07-07T08:46:18.000Z</time>
      </trkpt>
      <trkpt lat="47.46671" lon="-0.59032">
        <ele>20</ele>
        <time>2015-07-07T08:46:19.000Z</time>
      </trkpt>
      <trkpt lat="47.46669" lon="-0.59036">
        <ele>20</ele>
        <time>2015-07-07T08:46:20.000Z</time>
      </trkpt>
      <trkpt lat="47.46667" lon="-0.5904">
        <ele>19</ele>
        <time>2015-07-07T08:46:21.000Z</time>
      </trkpt>
      <trkpt lat="47.46665" lon="-0.59044">
        <ele>20</ele>
        <time>2015-07-07T08:46:22.000Z</time>
      </trkpt>
      <trkpt lat="47.46663" lon="-0.59047">
        <ele>19</ele>
        <time>2015-07-07T08:46:23.000Z</time>
      </trkpt>
      <trkpt lat="47.46661" lon="-0.5905">
        <ele>19</ele>
        <time>2015-07-07T08:46:24.000Z</time>
      </trkpt>
      <trkpt lat="47.46659" lon="-0.59053">
        <ele>19</ele>
        <time>2015-07-07T08:46:25.000Z</time>
      </trkpt>
      <trkpt lat="47.46658" lon="-0.59056">
        <ele>19</ele>
        <time>2015-07-07T08:46:26.000Z</time>
      </trkpt>
      <trkpt lat="47.46656" lon="-0.59058">
        <ele>19</ele>
        <time>2015-07-07T08:46:27.000Z</time>
      </trkpt>
      <trkpt lat="47.46654" lon="-0.5906">
        <ele>19</ele>
        <time>2015-07-07T08:46:28.000Z</time>
      </trkpt>
      <trkpt lat="47.46651" lon="-0.59062">
        <ele>18</ele>
        <time>2015-07-07T08:46:29.000Z</time>
      </trkpt>
      <trkpt lat="47.4665" lon="-0.59063">
        <ele>19</ele>
        <time>2015-07-07T08:46:30.000Z</time>
      </trkpt>
      <trkpt lat="47.46648" lon="-0.59065">
        <ele>20</ele>
        <time>2015-07-07T08:46:31.000Z</time>
      </trkpt>
      <trkpt lat="47.46646" lon="-0.59067">
        <ele>20</ele>
        <time>2015-07-07T08:46:32.000Z</time>
      </trkpt>
      <trkpt lat="47.46644" lon="-0.59068">
        <ele>20</ele>
        <time>2015-07-07T08:46:33.000Z</time>
      </trkpt>
      <trkpt lat="47.46642" lon="-0.59069">
        <ele>19</ele>
        <time>2015-07-07T08:46:34.000Z</time>
      </trkpt>
      <trkpt lat="47.4664" lon="-0.5907">
        <ele>20</ele>
        <time>2015-07-07T08:46:35.000Z</time>
      </trkpt>
      <trkpt lat="47.46638" lon="-0.59073">
        <ele>23</ele>
        <time>2015-07-07T08:46:36.000Z</time>
      </trkpt>
      <trkpt lat="47.46635" lon="-0.59076">
        <ele>25</ele>
        <time>2015-07-07T08:46:37.000Z</time>
      </trkpt>
      <trkpt lat="47.46632" lon="-0.5908">
        <ele>25</ele>
        <time>2015-07-07T08:46:38.000Z</time>
      </trkpt>
      <trkpt lat="47.46629" lon="-0.59082">
        <ele>26</ele>
        <time>2015-07-07T08:46:39.000Z</time>
      </trkpt>
      <trkpt lat="47.46626" lon="-0.59084">
        <ele>27</ele>
        <time>2015-07-07T08:46:40.000Z</time>
      </trkpt>
      <trkpt lat="47.46624" lon="-0.59086">
        <ele>27</ele>
        <time>2015-07-07T08:46:41.000Z</time>
      </trkpt>
      <trkpt lat="47.46622" lon="-0.59088">
        <ele>27</ele>
        <time>2015-07-07T08:46:42.000Z</time>
      </trkpt>
      <trkpt lat="47.4662" lon="-0.59091">
        <ele>28</ele>
        <time>2015-07-07T08:46:43.000Z</time>
      </trkpt>
      <trkpt lat="47.46616" lon="-0.59093">
        <ele>28</ele>
        <time>2015-07-07T08:46:44.000Z</time>
      </trkpt>
      <trkpt lat="47.46613" lon="-0.59094">
        <ele>28</ele>
        <time>2015-07-07T08:46:45.000Z</time>
      </trkpt>
      <trkpt lat="47.4661" lon="-0.59096">
        <ele>28</ele>
        <time>2015-07-07T08:46:46.000Z</time>
      </trkpt>
      <trkpt lat="47.46607" lon="-0.59097">
        <ele>29</ele>
        <time>2015-07-07T08:46:47.000Z</time>
      </trkpt>
      <trkpt lat="47.46604" lon="-0.59099">
        <ele>29</ele>
        <time>2015-07-07T08:46:48.000Z</time>
      </trkpt>
      <trkpt lat="47.46602" lon="-0.59101">
        <ele>28</ele>
        <time>2015-07-07T08:46:49.000Z</time>
      </trkpt>
      <trkpt lat="47.46599" lon="-0.59103">
        <ele>28</ele>
        <time>2015-07-07T08:46:50.000Z</time>
      </trkpt>
      <trkpt lat="47.46596" lon="-0.59106">
        <ele>28</ele>
        <time>2015-07-07T08:46:51.000Z</time>
      </trkpt>
      <trkpt lat="47.46594" lon="-0.59108">
        <ele>29</ele>
        <time>2015-07-07T08:46:52.000Z</time>
      </trkpt>
      <trkpt lat="47.46591" lon="-0.59111">
        <ele>28</ele>
        <time>2015-07-07T08:46:53.000Z</time>
      </trkpt>
      <trkpt lat="47.46589" lon="-0.59113">
        <ele>28</ele>
        <time>2015-07-07T08:46:54.000Z</time>
      </trkpt>
      <trkpt lat="47.46586" lon="-0.59116">
        <ele>28</ele>
        <time>2015-07-07T08:46:55.000Z</time>
      </trkpt>
      <trkpt lat="47.46584" lon="-0.59118">
        <ele>29</ele>
        <time>2015-07-07T08:46:56.000Z</time>
      </trkpt>
      <trkpt lat="47.46581" lon="-0.5912">
        <ele>29</ele>
        <time>2015-07-07T08:46:57.000Z</time>
      </trkpt>
      <trkpt lat="47.46578" lon="-0.59123">
        <ele>30</ele>
        <time>2015-07-07T08:46:58.000Z</time>
      </trkpt>
      <trkpt lat="47.46576" lon="-0.59126">
        <ele>30</ele>
        <time>2015-07-07T08:46:59.000Z</time>
      </trkpt>
      <trkpt lat="47.46573" lon="-0.59128">
        <ele>30</ele>
        <time>2015-07-07T08:47:00.000Z</time>
      </trkpt>
      <trkpt lat="47.46571" lon="-0.5913">
        <ele>30</ele>
        <time>2015-07-07T08:47:01.000Z</time>
      </trkpt>
      <trkpt lat="47.46568" lon="-0.59132">
        <ele>30</ele>
        <time>2015-07-07T08:47:02.000Z</time>
      </trkpt>
      <trkpt lat="47.46565" lon="-0.59133">
        <ele>29</ele>
        <time>2015-07-07T08:47:03.000Z</time>
      </trkpt>
      <trkpt lat="47.46562" lon="-0.59135">
        <ele>30</ele>
        <time>2015-07-07T08:47:04.000Z</time>
      </trkpt>
      <trkpt lat="47.4656" lon="-0.59136">
        <ele>29</ele>
        <time>2015-07-07T08:47:05.000Z</time>
      </trkpt>
      <trkpt lat="47.46557" lon="-0.59138">
        <ele>29</ele>
        <time>2015-07-07T08:47:06.000Z</time>
      </trkpt>
      <trkpt lat="47.46554" lon="-0.5914">
        <ele>29</ele>
        <time>2015-07-07T08:47:07.000Z</time>
      </trkpt>
      <trkpt lat="47.46551" lon="-0.59141">
        <ele>29</ele>
        <time>2015-07-07T08:47:08.000Z</time>
      </trkpt>
      <trkpt lat="47.46549" lon="-0.59142">
        <ele>29</ele>
        <time>2015-07-07T08:47:09.000Z</time>
      </trkpt>
      <trkpt lat="47.46546" lon="-0.59143">
        <ele>29</ele>
        <time>2015-07-07T08:47:10.000Z</time>
      </trkpt>
      <trkpt lat="47.46543" lon="-0.59144">
        <ele>29</ele>
        <time>2015-07-07T08:47:11.000Z</time>
      </trkpt>
      <trkpt lat="47.4654" lon="-0.59146">
        <ele>29</ele>
        <time>2015-07-07T08:47:12.000Z</time>
      </trkpt>
      <trkpt lat="47.46537" lon="-0.59147">
        <ele>29</ele>
        <time>2015-07-07T08:47:13.000Z</time>
      </trkpt>
      <trkpt lat="47.46534" lon="-0.59148">
        <ele>29</ele>
        <time>2015-07-07T08:47:14.000Z</time>
      </trkpt>
      <trkpt lat="47.46532" lon="-0.5915">
        <ele>30</ele>
        <time>2015-07-07T08:47:15.000Z</time>
      </trkpt>
      <trkpt lat="47.46529" lon="-0.59151">
        <ele>29</ele>
        <time>2015-07-07T08:47:16.000Z</time>
      </trkpt>
      <trkpt lat="47.46526" lon="-0.59152">
        <ele>30</ele>
        <time>2015-07-07T08:47:17.000Z</time>
      </trkpt>
      <trkpt lat="47.46522" lon="-0.59153">
        <ele>30</ele>
        <time>2015-07-07T08:47:18.000Z</time>
      </trkpt>
      <trkpt lat="47.4652" lon="-0.59154">
        <ele>30</ele>
        <time>2015-07-07T08:47:19.000Z</time>
      </trkpt>
      <trkpt lat="47.46517" lon="-0.59155">
        <ele>30</ele>
        <time>2015-07-07T08:47:20.000Z</time>
      </trkpt>
      <trkpt lat="47.46514" lon="-0.59155">
        <ele>29</ele>
        <time>2015-07-07T08:47:21.000Z</time>
      </trkpt>
      <trkpt lat="47.46512" lon="-0.59155">
        <ele>30</ele>
        <time>2015-07-07T08:47:22.000Z</time>
      </trkpt>
      <trkpt lat="47.4651" lon="-0.59155">
        <ele>30</ele>
        <time>2015-07-07T08:47:23.000Z</time>
      </trkpt>
      <trkpt lat="47.46508" lon="-0.59155">
        <ele>30</ele>
        <time>2015-07-07T08:47:24.000Z</time>
      </trkpt>
      <trkpt lat="47.46506" lon="-0.59155">
        <ele>29</ele>
        <time>2015-07-07T08:47:25.000Z</time>
      </trkpt>
      <trkpt lat="47.46503" lon="-0.59155">
        <ele>29</ele>
        <time>2015-07-07T08:47:26.000Z</time>
      </trkpt>
      <trkpt lat="47.465" lon="-0.59155">
        <ele>29</ele>
        <time>2015-07-07T08:47:27.000Z</time>
      </trkpt>
      <trkpt lat="47.46498" lon="-0.59155">
        <ele>29</ele>
        <time>2015-07-07T08:47:28.000Z</time>
      </trkpt>
      <trkpt lat="47.46495" lon="-0.59155">
        <ele>29</ele>
        <time>2015-07-07T08:47:29.000Z</time>
      </trkpt>
      <trkpt lat="47.46492" lon="-0.59155">
        <ele>28</ele>
        <time>2015-07-07T08:47:30.000Z</time>
      </trkpt>
      <trkpt lat="47.46489" lon="-0.59155">
        <ele>28</ele>
        <time>2015-07-07T08:47:31.000Z</time>
      </trkpt>
      <trkpt lat="47.46486" lon="-0.59155">
        <ele>27</ele>
        <time>2015-07-07T08:47:32.000Z</time>
      </trkpt>
      <trkpt lat="47.46484" lon="-0.59155">
        <ele>27</ele>
        <time>2015-07-07T08:47:33.000Z</time>
      </trkpt>
      <trkpt lat="47.46481" lon="-0.59156">
        <ele>26</ele>
        <time>2015-07-07T08:47:34.000Z</time>
      </trkpt>
      <trkpt lat="47.46479" lon="-0.59156">
        <ele>25</ele>
        <time>2015-07-07T08:47:35.000Z</time>
      </trkpt>
      <trkpt lat="47.46476" lon="-0.59157">
        <ele>25</ele>
        <time>2015-07-07T08:47:36.000Z</time>
      </trkpt>
      <trkpt lat="47.46472" lon="-0.59158">
        <ele>26</ele>
        <time>2015-07-07T08:47:37.000Z</time>
      </trkpt>
      <trkpt lat="47.46469" lon="-0.59159">
        <ele>25</ele>
        <time>2015-07-07T08:47:38.000Z</time>
      </trkpt>
      <trkpt lat="47.46466" lon="-0.59159">
        <ele>25</ele>
        <time>2015-07-07T08:47:39.000Z</time>
      </trkpt>
      <trkpt lat="47.46463" lon="-0.5916">
        <ele>25</ele>
        <time>2015-07-07T08:47:40.000Z</time>
      </trkpt>
      <trkpt lat="47.4646" lon="-0.5916">
        <ele>25</ele>
        <time>2015-07-07T08:47:41.000Z</time>
      </trkpt>
      <trkpt lat="47.46457" lon="-0.5916">
        <ele>25</ele>
        <time>2015-07-07T08:47:42.000Z</time>
      </trkpt>
      <trkpt lat="47.46455" lon="-0.5916">
        <ele>25</ele>
        <time>2015-07-07T08:47:43.000Z</time>
      </trkpt>
      <trkpt lat="47.46452" lon="-0.5916">
        <ele>25</ele>
        <time>2015-07-07T08:47:44.000Z</time>
      </trkpt>
      <trkpt lat="47.46449" lon="-0.59159">
        <ele>26</ele>
        <time>2015-07-07T08:47:45.000Z</time>
      </trkpt>
      <trkpt lat="47.46447" lon="-0.59158">
        <ele>25</ele>
        <time>2015-07-07T08:47:46.000Z</time>
      </trkpt>
      <trkpt lat="47.46445" lon="-0.59157">
        <ele>25</ele>
        <time>2015-07-07T08:47:47.000Z</time>
      </trkpt>
      <trkpt lat="47.46443" lon="-0.59155">
        <ele>25</ele>
        <time>2015-07-07T08:47:48.000Z</time>
      </trkpt>
      <trkpt lat="47.46441" lon="-0.59152">
        <ele>24</ele>
        <time>2015-07-07T08:47:49.000Z</time>
      </trkpt>
      <trkpt lat="47.46439" lon="-0.59148">
        <ele>24</ele>
        <time>2015-07-07T08:47:50.000Z</time>
      </trkpt>
      <trkpt lat="47.46437" lon="-0.59144">
        <ele>24</ele>
        <time>2015-07-07T08:47:51.000Z</time>
      </trkpt>
      <trkpt lat="47.46435" lon="-0.5914">
        <ele>24</ele>
        <time>2015-07-07T08:47:52.000Z</time>
      </trkpt>
      <trkpt lat="47.46433" lon="-0.59136">
        <ele>24</ele>
        <time>2015-07-07T08:47:53.000Z</time>
      </trkpt>
      <trkpt lat="47.46431" lon="-0.59133">
        <ele>24</ele>
        <time>2015-07-07T08:47:54.000Z</time>
      </trkpt>
      <trkpt lat="47.4643" lon="-0.59129">
        <ele>23</ele>
        <time>2015-07-07T08:47:55.000Z</time>
      </trkpt>
      <trkpt lat="47.46427" lon="-0.59125">
        <ele>22</ele>
        <time>2015-07-07T08:47:56.000Z</time>
      </trkpt>
      <trkpt lat="47.46425" lon="-0.5912">
        <ele>22</ele>
        <time>2015-07-07T08:47:57.000Z</time>
      </trkpt>
      <trkpt lat="47.46424" lon="-0.59116">
        <ele>22</ele>
        <time>2015-07-07T08:47:58.000Z</time>
      </trkpt>
      <trkpt lat="47.46422" lon="-0.59112">
        <ele>21</ele>
        <time>2015-07-07T08:47:59.000Z</time>
      </trkpt>
      <trkpt lat="47.4642" lon="-0.59109">
        <ele>21</ele>
        <time>2015-07-07T08:48:00.000Z</time>
      </trkpt>
      <trkpt lat="47.46418" lon="-0.59105">
        <ele>20</ele>
        <time>2015-07-07T08:48:01.000Z</time>
      </trkpt>
      <trkpt lat="47.46416" lon="-0.59101">
        <ele>20</ele>
        <time>2015-07-07T08:48:02.000Z</time>
      </trkpt>
      <trkpt lat="47.46414" lon="-0.59097">
        <ele>20</ele>
        <time>2015-07-07T08:48:03.000Z</time>
      </trkpt>
      <trkpt lat="47.46411" lon="-0.59093">
        <ele>20</ele>
        <time>2015-07-07T08:48:04.000Z</time>
      </trkpt>
      <trkpt lat="47.46409" lon="-0.5909">
        <ele>20</ele>
        <time>2015-07-07T08:48:05.000Z</time>
      </trkpt>
      <trkpt lat="47.46407" lon="-0.59087">
        <ele>19</ele>
        <time>2015-07-07T08:48:06.000Z</time>
      </trkpt>
      <trkpt lat="47.46405" lon="-0.59084">
        <ele>19</ele>
        <time>2015-07-07T08:48:07.000Z</time>
      </trkpt>
      <trkpt lat="47.46403" lon="-0.59081">
        <ele>19</ele>
        <time>2015-07-07T08:48:08.000Z</time>
      </trkpt>
      <trkpt lat="47.46401" lon="-0.59078">
        <ele>19</ele>
        <time>2015-07-07T08:48:09.000Z</time>
      </trkpt>
      <trkpt lat="47.46399" lon="-0.59075">
        <ele>19</ele>
        <time>2015-07-07T08:48:10.000Z</time>
      </trkpt>
      <trkpt lat="47.46396" lon="-0.59073">
        <ele>18</ele>
        <time>2015-07-07T08:48:11.000Z</time>
      </trkpt>
      <trkpt lat="47.46394" lon="-0.59071">
        <ele>18</ele>
        <time>2015-07-07T08:48:12.000Z</time>
      </trkpt>
      <trkpt lat="47.46391" lon="-0.59071">
        <ele>19</ele>
        <time>2015-07-07T08:48:13.000Z</time>
      </trkpt>
      <trkpt lat="47.46388" lon="-0.5907">
        <ele>19</ele>
        <time>2015-07-07T08:48:14.000Z</time>
      </trkpt>
      <trkpt lat="47.46385" lon="-0.59071">
        <ele>20</ele>
        <time>2015-07-07T08:48:15.000Z</time>
      </trkpt>
      <trkpt lat="47.46383" lon="-0.59071">
        <ele>20</ele>
        <time>2015-07-07T08:48:16.000Z</time>
      </trkpt>
      <trkpt lat="47.4638" lon="-0.59073">
        <ele>19</ele>
        <time>2015-07-07T08:48:17.000Z</time>
      </trkpt>
      <trkpt lat="47.46378" lon="-0.59074">
        <ele>21</ele>
        <time>2015-07-07T08:48:18.000Z</time>
      </trkpt>
      <trkpt lat="47.46376" lon="-0.59075">
        <ele>22</ele>
        <time>2015-07-07T08:48:19.000Z</time>
      </trkpt>
      <trkpt lat="47.46374" lon="-0.59076">
        <ele>23</ele>
        <time>2015-07-07T08:48:20.000Z</time>
      </trkpt>
      <trkpt lat="47.46372" lon="-0.59078">
        <ele>22</ele>
        <time>2015-07-07T08:48:21.000Z</time>
      </trkpt>
      <trkpt lat="47.46369" lon="-0.5908">
        <ele>22</ele>
        <time>2015-07-07T08:48:22.000Z</time>
      </trkpt>
      <trkpt lat="47.46366" lon="-0.59082">
        <ele>22</ele>
        <time>2015-07-07T08:48:23.000Z</time>
      </trkpt>
      <trkpt lat="47.46363" lon="-0.59084">
        <ele>21</ele>
        <time>2015-07-07T08:48:24.000Z</time>
      </trkpt>
      <trkpt lat="47.4636" lon="-0.59086">
        <ele>20</ele>
        <time>2015-07-07T08:48:25.000Z</time>
      </trkpt>
      <trkpt lat="47.46357" lon="-0.59089">
        <ele>21</ele>
        <time>2015-07-07T08:48:26.000Z</time>
      </trkpt>
      <trkpt lat="47.46353" lon="-0.59091">
        <ele>21</ele>
        <time>2015-07-07T08:48:27.000Z</time>
      </trkpt>
      <trkpt lat="47.4635" lon="-0.59093">
        <ele>21</ele>
        <time>2015-07-07T08:48:28.000Z</time>
      </trkpt>
      <trkpt lat="47.46347" lon="-0.59096">
        <ele>20</ele>
        <time>2015-07-07T08:48:29.000Z</time>
      </trkpt>
      <trkpt lat="47.46344" lon="-0.59098">
        <ele>20</ele>
        <time>2015-07-07T08:48:30.000Z</time>
      </trkpt>
      <trkpt lat="47.46342" lon="-0.59101">
        <ele>20</ele>
        <time>2015-07-07T08:48:31.000Z</time>
      </trkpt>
      <trkpt lat="47.4634" lon="-0.59103">
        <ele>19</ele>
        <time>2015-07-07T08:48:32.000Z</time>
      </trkpt>
      <trkpt lat="47.46337" lon="-0.59106">
        <ele>19</ele>
        <time>2015-07-07T08:48:33.000Z</time>
      </trkpt>
      <trkpt lat="47.46335" lon="-0.59108">
        <ele>19</ele>
        <time>2015-07-07T08:48:34.000Z</time>
      </trkpt>
      <trkpt lat="47.46333" lon="-0.59111">
        <ele>19</ele>
        <time>2015-07-07T08:48:35.000Z</time>
      </trkpt>
      <trkpt lat="47.46331" lon="-0.59114">
        <ele>19</ele>
        <time>2015-07-07T08:48:36.000Z</time>
      </trkpt>
      <trkpt lat="47.46329" lon="-0.59118">
        <ele>19</ele>
        <time>2015-07-07T08:48:37.000Z</time>
      </trkpt>
      <trkpt lat="47.46326" lon="-0.59121">
        <ele>19</ele>
        <time>2015-07-07T08:48:38.000Z</time>
      </trkpt>
      <trkpt lat="47.46324" lon="-0.59124">
        <ele>19</ele>
        <time>2015-07-07T08:48:39.000Z</time>
      </trkpt>
      <trkpt lat="47.46322" lon="-0.59127">
        <ele>19</ele>
        <time>2015-07-07T08:48:40.000Z</time>
      </trkpt>
      <trkpt lat="47.4632" lon="-0.5913">
        <ele>18</ele>
        <time>2015-07-07T08:48:41.000Z</time>
      </trkpt>
      <trkpt lat="47.46318" lon="-0.59133">
        <ele>19</ele>
        <time>2015-07-07T08:48:42.000Z</time>
      </trkpt>
      <trkpt lat="47.46316" lon="-0.59136">
        <ele>18</ele>
        <time>2015-07-07T08:48:43.000Z</time>
      </trkpt>
      <trkpt lat="47.46314" lon="-0.59139">
        <ele>18</ele>
        <time>2015-07-07T08:48:44.000Z</time>
      </trkpt>
      <trkpt lat="47.46312" lon="-0.59142">
        <ele>19</ele>
        <time>2015-07-07T08:48:45.000Z</time>
      </trkpt>
      <trkpt lat="47.46311" lon="-0.59145">
        <ele>19</ele>
        <time>2015-07-07T08:48:46.000Z</time>
      </trkpt>
      <trkpt lat="47.46309" lon="-0.59147">
        <ele>19</ele>
        <time>2015-07-07T08:48:47.000Z</time>
      </trkpt>
      <trkpt lat="47.46307" lon="-0.5915">
        <ele>19</ele>
        <time>2015-07-07T08:48:48.000Z</time>
      </trkpt>
      <trkpt lat="47.46305" lon="-0.59152">
        <ele>19</ele>
        <time>2015-07-07T08:48:49.000Z</time>
      </trkpt>
      <trkpt lat="47.46302" lon="-0.59155">
        <ele>19</ele>
        <time>2015-07-07T08:48:50.000Z</time>
      </trkpt>
      <trkpt lat="47.463" lon="-0.59156">
        <ele>19</ele>
        <time>2015-07-07T08:48:51.000Z</time>
      </trkpt>
      <trkpt lat="47.46298" lon="-0.59158">
        <ele>19</ele>
        <time>2015-07-07T08:48:52.000Z</time>
      </trkpt>
      <trkpt lat="47.46296" lon="-0.5916">
        <ele>19</ele>
        <time>2015-07-07T08:48:53.000Z</time>
      </trkpt>
      <trkpt lat="47.46294" lon="-0.59163">
        <ele>19</ele>
        <time>2015-07-07T08:48:54.000Z</time>
      </trkpt>
      <trkpt lat="47.46292" lon="-0.59165">
        <ele>19</ele>
        <time>2015-07-07T08:48:55.000Z</time>
      </trkpt>
      <trkpt lat="47.46289" lon="-0.59167">
        <ele>20</ele>
        <time>2015-07-07T08:48:56.000Z</time>
      </trkpt>
      <trkpt lat="47.46287" lon="-0.59169">
        <ele>20</ele>
        <time>2015-07-07T08:48:57.000Z</time>
      </trkpt>
      <trkpt lat="47.46285" lon="-0.5917">
        <ele>20</ele>
        <time>2015-07-07T08:48:58.000Z</time>
      </trkpt>
      <trkpt lat="47.46283" lon="-0.59172">
        <ele>20</ele>
        <time>2015-07-07T08:48:59.000Z</time>
      </trkpt>
      <trkpt lat="47.46281" lon="-0.59174">
        <ele>21</ele>
        <time>2015-07-07T08:49:00.000Z</time>
      </trkpt>
      <trkpt lat="47.46278" lon="-0.59175">
        <ele>20</ele>
        <time>2015-07-07T08:49:01.000Z</time>
      </trkpt>
      <trkpt lat="47.46276" lon="-0.59176">
        <ele>20</ele>
        <time>2015-07-07T08:49:02.000Z</time>
      </trkpt>
      <trkpt lat="47.46273" lon="-0.59177">
        <ele>20</ele>
        <time>2015-07-07T08:49:03.000Z</time>
      </trkpt>
      <trkpt lat="47.46271" lon="-0.59179">
        <ele>20</ele>
        <time>2015-07-07T08:49:04.000Z</time>
      </trkpt>
      <trkpt lat="47.46269" lon="-0.5918">
        <ele>21</ele>
        <time>2015-07-07T08:49:05.000Z</time>
      </trkpt>
      <trkpt lat="47.46267" lon="-0.59181">
        <ele>21</ele>
        <time>2015-07-07T08:49:06.000Z</time>
      </trkpt>
      <trkpt lat="47.46264" lon="-0.59182">
        <ele>21</ele>
        <time>2015-07-07T08:49:07.000Z</time>
      </trkpt>
      <trkpt lat="47.46262" lon="-0.59183">
        <ele>21</ele>
        <time>2015-07-07T08:49:08.000Z</time>
      </trkpt>
      <trkpt lat="47.4626" lon="-0.59184">
        <ele>21</ele>
        <time>2015-07-07T08:49:09.000Z</time>
      </trkpt>
      <trkpt lat="47.46258" lon="-0.59186">
        <ele>22</ele>
        <time>2015-07-07T08:49:10.000Z</time>
      </trkpt>
      <trkpt lat="47.46256" lon="-0.59187">
        <ele>22</ele>
        <time>2015-07-07T08:49:11.000Z</time>
      </trkpt>
      <trkpt lat="47.46254" lon="-0.59188">
        <ele>23</ele>
        <time>2015-07-07T08:49:12.000Z</time>
      </trkpt>
      <trkpt lat="47.46251" lon="-0.59189">
        <ele>23</ele>
        <time>2015-07-07T08:49:13.000Z</time>
      </trkpt>
      <trkpt lat="47.46249" lon="-0.5919">
        <ele>22</ele>
        <time>2015-07-07T08:49:14.000Z</time>
      </trkpt>
      <trkpt lat="47.46246" lon="-0.59191">
        <ele>22</ele>
        <time>2015-07-07T08:49:15.000Z</time>
      </trkpt>
      <trkpt lat="47.46243" lon="-0.59192">
        <ele>23</ele>
        <time>2015-07-07T08:49:16.000Z</time>
      </trkpt>
      <trkpt lat="47.46241" lon="-0.59192">
        <ele>24</ele>
        <time>2015-07-07T08:49:17.000Z</time>
      </trkpt>
      <trkpt lat="47.46239" lon="-0.59194">
        <ele>24</ele>
        <time>2015-07-07T08:49:18.000Z</time>
      </trkpt>
      <trkpt lat="47.46237" lon="-0.59196">
        <ele>25</ele>
        <time>2015-07-07T08:49:19.000Z</time>
      </trkpt>
      <trkpt lat="47.46235" lon="-0.59197">
        <ele>25</ele>
        <time>2015-07-07T08:49:20.000Z</time>
      </trkpt>
      <trkpt lat="47.46233" lon="-0.59198">
        <ele>25</ele>
        <time>2015-07-07T08:49:21.000Z</time>
      </trkpt>
      <trkpt lat="47.4623" lon="-0.59199">
        <ele>25</ele>
        <time>2015-07-07T08:49:22.000Z</time>
      </trkpt>
      <trkpt lat="47.46227" lon="-0.59199">
        <ele>24</ele>
        <time>2015-07-07T08:49:23.000Z</time>
      </trkpt>
      <trkpt lat="47.46223" lon="-0.592">
        <ele>24</ele>
        <time>2015-07-07T08:49:24.000Z</time>
      </trkpt>
      <trkpt lat="47.4622" lon="-0.592">
        <ele>24</ele>
        <time>2015-07-07T08:49:25.000Z</time>
      </trkpt>
      <trkpt lat="47.46217" lon="-0.59201">
        <ele>22</ele>
        <time>2015-07-07T08:49:26.000Z</time>
      </trkpt>
      <trkpt lat="47.46212" lon="-0.59201">
        <ele>21</ele>
        <time>2015-07-07T08:49:27.000Z</time>
      </trkpt>
      <trkpt lat="47.46209" lon="-0.59201">
        <ele>21</ele>
        <time>2015-07-07T08:49:28.000Z</time>
      </trkpt>
      <trkpt lat="47.46205" lon="-0.59201">
        <ele>21</ele>
        <time>2015-07-07T08:49:29.000Z</time>
      </trkpt>
      <trkpt lat="47.46202" lon="-0.59202">
        <ele>21</ele>
        <time>2015-07-07T08:49:30.000Z</time>
      </trkpt>
      <trkpt lat="47.46199" lon="-0.59204">
        <ele>21</ele>
        <time>2015-07-07T08:49:31.000Z</time>
      </trkpt>
      <trkpt lat="47.46196" lon="-0.59205">
        <ele>20</ele>
        <time>2015-07-07T08:49:32.000Z</time>
      </trkpt>
      <trkpt lat="47.46193" lon="-0.59206">
        <ele>21</ele>
        <time>2015-07-07T08:49:33.000Z</time>
      </trkpt>
      <trkpt lat="47.4619" lon="-0.59207">
        <ele>21</ele>
        <time>2015-07-07T08:49:34.000Z</time>
      </trkpt>
      <trkpt lat="47.46187" lon="-0.59208">
        <ele>22</ele>
        <time>2015-07-07T08:49:35.000Z</time>
      </trkpt>
      <trkpt lat="47.46184" lon="-0.59208">
        <ele>22</ele>
        <time>2015-07-07T08:49:36.000Z</time>
      </trkpt>
      <trkpt lat="47.46181" lon="-0.59209">
        <ele>22</ele>
        <time>2015-07-07T08:49:37.000Z</time>
      </trkpt>
      <trkpt lat="47.46179" lon="-0.5921">
        <ele>23</ele>
        <time>2015-07-07T08:49:38.000Z</time>
      </trkpt>
      <trkpt lat="47.46176" lon="-0.59211">
        <ele>23</ele>
        <time>2015-07-07T08:49:39.000Z</time>
      </trkpt>
      <trkpt lat="47.46173" lon="-0.59212">
        <ele>23</ele>
        <time>2015-07-07T08:49:40.000Z</time>
      </trkpt>
      <trkpt lat="47.4617" lon="-0.59213">
        <ele>24</ele>
        <time>2015-07-07T08:49:41.000Z</time>
      </trkpt>
      <trkpt lat="47.46167" lon="-0.59214">
        <ele>24</ele>
        <time>2015-07-07T08:49:42.000Z</time>
      </trkpt>
      <trkpt lat="47.46165" lon="-0.59215">
        <ele>24</ele>
        <time>2015-07-07T08:49:43.000Z</time>
      </trkpt>
      <trkpt lat="47.46162" lon="-0.59216">
        <ele>25</ele>
        <time>2015-07-07T08:49:44.000Z</time>
      </trkpt>
      <trkpt lat="47.46159" lon="-0.59217">
        <ele>25</ele>
        <time>2015-07-07T08:49:45.000Z</time>
      </trkpt>
      <trkpt lat="47.46157" lon="-0.59218">
        <ele>26</ele>
        <time>2015-07-07T08:49:46.000Z</time>
      </trkpt>
      <trkpt lat="47.46154" lon="-0.59219">
        <ele>26</ele>
        <time>2015-07-07T08:49:47.000Z</time>
      </trkpt>
      <trkpt lat="47.46151" lon="-0.59221">
        <ele>26</ele>
        <time>2015-07-07T08:49:48.000Z</time>
      </trkpt>
      <trkpt lat="47.46149" lon="-0.59222">
        <ele>25</ele>
        <time>2015-07-07T08:49:49.000Z</time>
      </trkpt>
      <trkpt lat="47.46146" lon="-0.59224">
        <ele>25</ele>
        <time>2015-07-07T08:49:50.000Z</time>
      </trkpt>
      <trkpt lat="47.46144" lon="-0.59225">
        <ele>24</ele>
        <time>2015-07-07T08:49:51.000Z</time>
      </trkpt>
      <trkpt lat="47.46141" lon="-0.59226">
        <ele>24</ele>
        <time>2015-07-07T08:49:52.000Z</time>
      </trkpt>
      <trkpt lat="47.46138" lon="-0.59227">
        <ele>24</ele>
        <time>2015-07-07T08:49:53.000Z</time>
      </trkpt>
      <trkpt lat="47.46136" lon="-0.59228">
        <ele>25</ele>
        <time>2015-07-07T08:49:54.000Z</time>
      </trkpt>
      <trkpt lat="47.46133" lon="-0.59229">
        <ele>25</ele>
        <time>2015-07-07T08:49:55.000Z</time>
      </trkpt>
      <trkpt lat="47.4613" lon="-0.5923">
        <ele>24</ele>
        <time>2015-07-07T08:49:56.000Z</time>
      </trkpt>
      <trkpt lat="47.46128" lon="-0.59231">
        <ele>23</ele>
        <time>2015-07-07T08:49:57.000Z</time>
      </trkpt>
      <trkpt lat="47.46125" lon="-0.59232">
        <ele>22</ele>
        <time>2015-07-07T08:49:58.000Z</time>
      </trkpt>
      <trkpt lat="47.46122" lon="-0.59233">
        <ele>23</ele>
        <time>2015-07-07T08:49:59.000Z</time>
      </trkpt>
      <trkpt lat="47.46119" lon="-0.59234">
        <ele>22</ele>
        <time>2015-07-07T08:50:00.000Z</time>
      </trkpt>
      <trkpt lat="47.46116" lon="-0.59235">
        <ele>22</ele>
        <time>2015-07-07T08:50:01.000Z</time>
      </trkpt>
      <trkpt lat="47.46113" lon="-0.59236">
        <ele>22</ele>
        <time>2015-07-07T08:50:02.000Z</time>
      </trkpt>
      <trkpt lat="47.4611" lon="-0.59237">
        <ele>22</ele>
        <time>2015-07-07T08:50:03.000Z</time>
      </trkpt>
      <trkpt lat="47.46108" lon="-0.59237">
        <ele>21</ele>
        <time>2015-07-07T08:50:04.000Z</time>
      </trkpt>
      <trkpt lat="47.46105" lon="-0.59238">
        <ele>21</ele>
        <time>2015-07-07T08:50:05.000Z</time>
      </trkpt>
      <trkpt lat="47.46102" lon="-0.59239">
        <ele>21</ele>
        <time>2015-07-07T08:50:06.000Z</time>
      </trkpt>
      <trkpt lat="47.46099" lon="-0.59239">
        <ele>21</ele>
        <time>2015-07-07T08:50:07.000Z</time>
      </trkpt>
      <trkpt lat="47.46096" lon="-0.5924">
        <ele>20</ele>
        <time>2015-07-07T08:50:08.000Z</time>
      </trkpt>
      <trkpt lat="47.46093" lon="-0.5924">
        <ele>20</ele>
        <time>2015-07-07T08:50:09.000Z</time>
      </trkpt>
      <trkpt lat="47.4609" lon="-0.59241">
        <ele>20</ele>
        <time>2015-07-07T08:50:10.000Z</time>
      </trkpt>
      <trkpt lat="47.46088" lon="-0.59241">
        <ele>21</ele>
        <time>2015-07-07T08:50:11.000Z</time>
      </trkpt>
      <trkpt lat="47.46085" lon="-0.59242">
        <ele>21</ele>
        <time>2015-07-07T08:50:12.000Z</time>
      </trkpt>
      <trkpt lat="47.46082" lon="-0.59243">
        <ele>21</ele>
        <time>2015-07-07T08:50:13.000Z</time>
      </trkpt>
      <trkpt lat="47.4608" lon="-0.59243">
        <ele>20</ele>
        <time>2015-07-07T08:50:14.000Z</time>
      </trkpt>
      <trkpt lat="47.46077" lon="-0.59243">
        <ele>21</ele>
        <time>2015-07-07T08:50:15.000Z</time>
      </trkpt>
      <trkpt lat="47.46074" lon="-0.59243">
        <ele>21</ele>
        <time>2015-07-07T08:50:16.000Z</time>
      </trkpt>
      <trkpt lat="47.46071" lon="-0.59243">
        <ele>21</ele>
        <time>2015-07-07T08:50:17.000Z</time>
      </trkpt>
      <trkpt lat="47.46068" lon="-0.59243">
        <ele>21</ele>
        <time>2015-07-07T08:50:18.000Z</time>
      </trkpt>
      <trkpt lat="47.46065" lon="-0.59243">
        <ele>21</ele>
        <time>2015-07-07T08:50:19.000Z</time>
      </trkpt>
      <trkpt lat="47.46062" lon="-0.59243">
        <ele>21</ele>
        <time>2015-07-07T08:50:20.000Z</time>
      </trkpt>
      <trkpt lat="47.46059" lon="-0.59243">
        <ele>21</ele>
        <time>2015-07-07T08:50:21.000Z</time>
      </trkpt>
      <trkpt lat="47.46056" lon="-0.59242">
        <ele>22</ele>
        <time>2015-07-07T08:50:22.000Z</time>
      </trkpt>
      <trkpt lat="47.46053" lon="-0.59242">
        <ele>22</ele>
        <time>2015-07-07T08:50:23.000Z</time>
      </trkpt>
      <trkpt lat="47.4605" lon="-0.59242">
        <ele>22</ele>
        <time>2015-07-07T08:50:24.000Z</time>
      </trkpt>
      <trkpt lat="47.46048" lon="-0.59242">
        <ele>23</ele>
        <time>2015-07-07T08:50:25.000Z</time>
      </trkpt>
      <trkpt lat="47.46045" lon="-0.59242">
        <ele>22</ele>
        <time>2015-07-07T08:50:26.000Z</time>
      </trkpt>
      <trkpt lat="47.46042" lon="-0.59242">
        <ele>23</ele>
        <time>2015-07-07T08:50:27.000Z</time>
      </trkpt>
      <trkpt lat="47.46039" lon="-0.59242">
        <ele>23</ele>
        <time>2015-07-07T08:50:28.000Z</time>
      </trkpt>
      <trkpt lat="47.46036" lon="-0.59243">
        <ele>23</ele>
        <time>2015-07-07T08:50:29.000Z</time>
      </trkpt>
      <trkpt lat="47.46033" lon="-0.59243">
        <ele>24</ele>
        <time>2015-07-07T08:50:30.000Z</time>
      </trkpt>
      <trkpt lat="47.46031" lon="-0.59244">
        <ele>23</ele>
        <time>2015-07-07T08:50:31.000Z</time>
      </trkpt>
      <trkpt lat="47.46028" lon="-0.59245">
        <ele>23</ele>
        <time>2015-07-07T08:50:32.000Z</time>
      </trkpt>
      <trkpt lat="47.46025" lon="-0.59245">
        <ele>23</ele>
        <time>2015-07-07T08:50:33.000Z</time>
      </trkpt>
      <trkpt lat="47.46023" lon="-0.59246">
        <ele>23</ele>
        <time>2015-07-07T08:50:34.000Z</time>
      </trkpt>
      <trkpt lat="47.4602" lon="-0.59246">
        <ele>23</ele>
        <time>2015-07-07T08:50:35.000Z</time>
      </trkpt>
      <trkpt lat="47.46017" lon="-0.59247">
        <ele>23</ele>
        <time>2015-07-07T08:50:36.000Z</time>
      </trkpt>
      <trkpt lat="47.46014" lon="-0.59247">
        <ele>23</ele>
        <time>2015-07-07T08:50:37.000Z</time>
      </trkpt>
      <trkpt lat="47.46011" lon="-0.59247">
        <ele>23</ele>
        <time>2015-07-07T08:50:38.000Z</time>
      </trkpt>
      <trkpt lat="47.46008" lon="-0.59248">
        <ele>23</ele>
        <time>2015-07-07T08:50:39.000Z</time>
      </trkpt>
      <trkpt lat="47.46006" lon="-0.59248">
        <ele>23</ele>
        <time>2015-07-07T08:50:40.000Z</time>
      </trkpt>
      <trkpt lat="47.46003" lon="-0.59249">
        <ele>23</ele>
        <time>2015-07-07T08:50:41.000Z</time>
      </trkpt>
      <trkpt lat="47.46" lon="-0.5925">
        <ele>23</ele>
        <time>2015-07-07T08:50:42.000Z</time>
      </trkpt>
      <trkpt lat="47.45998" lon="-0.59252">
        <ele>23</ele>
        <time>2015-07-07T08:50:43.000Z</time>
      </trkpt>
      <trkpt lat="47.45995" lon="-0.59252">
        <ele>23</ele>
        <time>2015-07-07T08:50:44.000Z</time>
      </trkpt>
      <trkpt lat="47.45992" lon="-0.59253">
        <ele>23</ele>
        <time>2015-07-07T08:50:45.000Z</time>
      </trkpt>
      <trkpt lat="47.45989" lon="-0.59255">
        <ele>23</ele>
        <time>2015-07-07T08:50:46.000Z</time>
      </trkpt>
      <trkpt lat="47.45987" lon="-0.59256">
        <ele>23</ele>
        <time>2015-07-07T08:50:47.000Z</time>
      </trkpt>
      <trkpt lat="47.45984" lon="-0.59258">
        <ele>22</ele>
        <time>2015-07-07T08:50:48.000Z</time>
      </trkpt>
      <trkpt lat="47.45982" lon="-0.59261">
        <ele>22</ele>
        <time>2015-07-07T08:50:49.000Z</time>
      </trkpt>
      <trkpt lat="47.45979" lon="-0.59264">
        <ele>22</ele>
        <time>2015-07-07T08:50:50.000Z</time>
      </trkpt>
      <trkpt lat="47.45977" lon="-0.59266">
        <ele>21</ele>
        <time>2015-07-07T08:50:51.000Z</time>
      </trkpt>
      <trkpt lat="47.45974" lon="-0.59268">
        <ele>21</ele>
        <time>2015-07-07T08:50:52.000Z</time>
      </trkpt>
      <trkpt lat="47.45972" lon="-0.59271">
        <ele>21</ele>
        <time>2015-07-07T08:50:53.000Z</time>
      </trkpt>
      <trkpt lat="47.4597" lon="-0.59274">
        <ele>21</ele>
        <time>2015-07-07T08:50:54.000Z</time>
      </trkpt>
      <trkpt lat="47.45968" lon="-0.59277">
        <ele>22</ele>
        <time>2015-07-07T08:50:55.000Z</time>
      </trkpt>
      <trkpt lat="47.45966" lon="-0.5928">
        <ele>21</ele>
        <time>2015-07-07T08:50:56.000Z</time>
      </trkpt>
      <trkpt lat="47.45963" lon="-0.59283">
        <ele>21</ele>
        <time>2015-07-07T08:50:57.000Z</time>
      </trkpt>
      <trkpt lat="47.45961" lon="-0.59286">
        <ele>20</ele>
        <time>2015-07-07T08:50:58.000Z</time>
      </trkpt>
      <trkpt lat="47.45959" lon="-0.59289">
        <ele>20</ele>
        <time>2015-07-07T08:50:59.000Z</time>
      </trkpt>
      <trkpt lat="47.45957" lon="-0.59293">
        <ele>21</ele>
        <time>2015-07-07T08:51:00.000Z</time>
      </trkpt>
      <trkpt lat="47.45955" lon="-0.59296">
        <ele>21</ele>
        <time>2015-07-07T08:51:01.000Z</time>
      </trkpt>
      <trkpt lat="47.45954" lon="-0.593">
        <ele>21</ele>
        <time>2015-07-07T08:51:02.000Z</time>
      </trkpt>
      <trkpt lat="47.45952" lon="-0.59304">
        <ele>20</ele>
        <time>2015-07-07T08:51:03.000Z</time>
      </trkpt>
      <trkpt lat="47.4595" lon="-0.59307">
        <ele>21</ele>
        <time>2015-07-07T08:51:04.000Z</time>
      </trkpt>
      <trkpt lat="47.45948" lon="-0.59311">
        <ele>20</ele>
        <time>2015-07-07T08:51:05.000Z</time>
      </trkpt>
      <trkpt lat="47.45947" lon="-0.59314">
        <ele>21</ele>
        <time>2015-07-07T08:51:06.000Z</time>
      </trkpt>
      <trkpt lat="47.45945" lon="-0.59318">
        <ele>20</ele>
        <time>2015-07-07T08:51:07.000Z</time>
      </trkpt>
      <trkpt lat="47.45943" lon="-0.59321">
        <ele>21</ele>
        <time>2015-07-07T08:51:08.000Z</time>
      </trkpt>
      <trkpt lat="47.45942" lon="-0.59325">
        <ele>21</ele>
        <time>2015-07-07T08:51:09.000Z</time>
      </trkpt>
      <trkpt lat="47.45941" lon="-0.59329">
        <ele>21</ele>
        <time>2015-07-07T08:51:10.000Z</time>
      </trkpt>
      <trkpt lat="47.45939" lon="-0.59333">
        <ele>21</ele>
        <time>2015-07-07T08:51:11.000Z</time>
      </trkpt>
      <trkpt lat="47.45938" lon="-0.59336">
        <ele>21</ele>
        <time>2015-07-07T08:51:12.000Z</time>
      </trkpt>
      <trkpt lat="47.45937" lon="-0.5934">
        <ele>21</ele>
        <time>2015-07-07T08:51:13.000Z</time>
      </trkpt>
      <trkpt lat="47.45935" lon="-0.59344">
        <ele>21</ele>
        <time>2015-07-07T08:51:14.000Z</time>
      </trkpt>
      <trkpt lat="47.45935" lon="-0.59348">
        <ele>22</ele>
        <time>2015-07-07T08:51:15.000Z</time>
      </trkpt>
      <trkpt lat="47.45935" lon="-0.59352">
        <ele>22</ele>
        <time>2015-07-07T08:51:16.000Z</time>
      </trkpt>
      <trkpt lat="47.45934" lon="-0.59356">
        <ele>22</ele>
        <time>2015-07-07T08:51:17.000Z</time>
      </trkpt>
      <trkpt lat="47.45935" lon="-0.5936">
        <ele>22</ele>
        <time>2015-07-07T08:51:18.000Z</time>
      </trkpt>
      <trkpt lat="47.45935" lon="-0.59365">
        <ele>22</ele>
        <time>2015-07-07T08:51:19.000Z</time>
      </trkpt>
      <trkpt lat="47.45936" lon="-0.59369">
        <ele>22</ele>
        <time>2015-07-07T08:51:20.000Z</time>
      </trkpt>
      <trkpt lat="47.45937" lon="-0.59373">
        <ele>21</ele>
        <time>2015-07-07T08:51:21.000Z</time>
      </trkpt>
      <trkpt lat="47.45938" lon="-0.59377">
        <ele>21</ele>
        <time>2015-07-07T08:51:22.000Z</time>
      </trkpt>
      <trkpt lat="47.45939" lon="-0.59381">
        <ele>21</ele>
        <time>2015-07-07T08:51:23.000Z</time>
      </trkpt>
      <trkpt lat="47.4594" lon="-0.59385">
        <ele>20</ele>
        <time>2015-07-07T08:51:24.000Z</time>
      </trkpt>
      <trkpt lat="47.45941" lon="-0.59388">
        <ele>21</ele>
        <time>2015-07-07T08:51:25.000Z</time>
      </trkpt>
      <trkpt lat="47.45943" lon="-0.59392">
        <ele>20</ele>
        <time>2015-07-07T08:51:26.000Z</time>
      </trkpt>
      <trkpt lat="47.45944" lon="-0.59396">
        <ele>20</ele>
        <time>2015-07-07T08:51:27.000Z</time>
      </trkpt>
      <trkpt lat="47.45945" lon="-0.594">
        <ele>20</ele>
        <time>2015-07-07T08:51:28.000Z</time>
      </trkpt>
      <trkpt lat="47.45946" lon="-0.59404">
        <ele>20</ele>
        <time>2015-07-07T08:51:29.000Z</time>
      </trkpt>
      <trkpt lat="47.45947" lon="-0.59407">
        <ele>20</ele>
        <time>2015-07-07T08:51:30.000Z</time>
      </trkpt>
      <trkpt lat="47.45949" lon="-0.59411">
        <ele>20</ele>
        <time>2015-07-07T08:51:31.000Z</time>
      </trkpt>
      <trkpt lat="47.4595" lon="-0.59415">
        <ele>20</ele>
        <time>2015-07-07T08:51:32.000Z</time>
      </trkpt>
      <trkpt lat="47.45951" lon="-0.59418">
        <ele>19</ele>
        <time>2015-07-07T08:51:33.000Z</time>
      </trkpt>
      <trkpt lat="47.45953" lon="-0.59421">
        <ele>19</ele>
        <time>2015-07-07T08:51:34.000Z</time>
      </trkpt>
      <trkpt lat="47.45955" lon="-0.59424">
        <ele>19</ele>
        <time>2015-07-07T08:51:35.000Z</time>
      </trkpt>
      <trkpt lat="47.45956" lon="-0.59428">
        <ele>19</ele>
        <time>2015-07-07T08:51:36.000Z</time>
      </trkpt>
      <trkpt lat="47.45958" lon="-0.59431">
        <ele>19</ele>
        <time>2015-07-07T08:51:37.000Z</time>
      </trkpt>
      <trkpt lat="47.45959" lon="-0.59435">
        <ele>19</ele>
        <time>2015-07-07T08:51:38.000Z</time>
      </trkpt>
      <trkpt lat="47.45961" lon="-0.59438">
        <ele>19</ele>
        <time>2015-07-07T08:51:39.000Z</time>
      </trkpt>
      <trkpt lat="47.45962" lon="-0.59442">
        <ele>19</ele>
        <time>2015-07-07T08:51:40.000Z</time>
      </trkpt>
      <trkpt lat="47.45963" lon="-0.59445">
        <ele>18</ele>
        <time>2015-07-07T08:51:41.000Z</time>
      </trkpt>
      <trkpt lat="47.45965" lon="-0.59448">
        <ele>19</ele>
        <time>2015-07-07T08:51:42.000Z</time>
      </trkpt>
      <trkpt lat="47.45966" lon="-0.59452">
        <ele>20</ele>
        <time>2015-07-07T08:51:43.000Z</time>
      </trkpt>
      <trkpt lat="47.45967" lon="-0.59455">
        <ele>20</ele>
        <time>2015-07-07T08:51:44.000Z</time>
      </trkpt>
      <trkpt lat="47.45969" lon="-0.59459">
        <ele>20</ele>
        <time>2015-07-07T08:51:45.000Z</time>
      </trkpt>
      <trkpt lat="47.45969" lon="-0.59463">
        <ele>20</ele>
        <time>2015-07-07T08:51:46.000Z</time>
      </trkpt>
      <trkpt lat="47.4597" lon="-0.59467">
        <ele>20</ele>
        <time>2015-07-07T08:51:47.000Z</time>
      </trkpt>
      <trkpt lat="47.45971" lon="-0.59471">
        <ele>20</ele>
        <time>2015-07-07T08:51:48.000Z</time>
      </trkpt>
      <trkpt lat="47.45972" lon="-0.59475">
        <ele>20</ele>
        <time>2015-07-07T08:51:49.000Z</time>
      </trkpt>
      <trkpt lat="47.45973" lon="-0.59479">
        <ele>21</ele>
        <time>2015-07-07T08:51:50.000Z</time>
      </trkpt>
      <trkpt lat="47.45973" lon="-0.59483">
        <ele>20</ele>
        <time>2015-07-07T08:51:51.000Z</time>
      </trkpt>
      <trkpt lat="47.45973" lon="-0.59487">
        <ele>20</ele>
        <time>2015-07-07T08:51:52.000Z</time>
      </trkpt>
      <trkpt lat="47.45973" lon="-0.59491">
        <ele>20</ele>
        <time>2015-07-07T08:51:53.000Z</time>
      </trkpt>
      <trkpt lat="47.45973" lon="-0.59496">
        <ele>21</ele>
        <time>2015-07-07T08:51:54.000Z</time>
      </trkpt>
      <trkpt lat="47.45973" lon="-0.595">
        <ele>21</ele>
        <time>2015-07-07T08:51:55.000Z</time>
      </trkpt>
      <trkpt lat="47.45972" lon="-0.59504">
        <ele>21</ele>
        <time>2015-07-07T08:51:56.000Z</time>
      </trkpt>
      <trkpt lat="47.45971" lon="-0.59508">
        <ele>21</ele>
        <time>2015-07-07T08:51:57.000Z</time>
      </trkpt>
      <trkpt lat="47.45971" lon="-0.59512">
        <ele>21</ele>
        <time>2015-07-07T08:51:58.000Z</time>
      </trkpt>
      <trkpt lat="47.4597" lon="-0.59516">
        <ele>21</ele>
        <time>2015-07-07T08:51:59.000Z</time>
      </trkpt>
      <trkpt lat="47.45969" lon="-0.5952">
        <ele>20</ele>
        <time>2015-07-07T08:52:00.000Z</time>
      </trkpt>
      <trkpt lat="47.45969" lon="-0.59523">
        <ele>20</ele>
        <time>2015-07-07T08:52:01.000Z</time>
      </trkpt>
      <trkpt lat="47.45968" lon="-0.59527">
        <ele>19</ele>
        <time>2015-07-07T08:52:02.000Z</time>
      </trkpt>
      <trkpt lat="47.45967" lon="-0.5953">
        <ele>19</ele>
        <time>2015-07-07T08:52:03.000Z</time>
      </trkpt>
      <trkpt lat="47.45966" lon="-0.59534">
        <ele>19</ele>
        <time>2015-07-07T08:52:04.000Z</time>
      </trkpt>
      <trkpt lat="47.45965" lon="-0.59538">
        <ele>20</ele>
        <time>2015-07-07T08:52:05.000Z</time>
      </trkpt>
      <trkpt lat="47.45963" lon="-0.59543">
        <ele>21</ele>
        <time>2015-07-07T08:52:06.000Z</time>
      </trkpt>
      <trkpt lat="47.45962" lon="-0.59547">
        <ele>21</ele>
        <time>2015-07-07T08:52:07.000Z</time>
      </trkpt>
      <trkpt lat="47.45962" lon="-0.59552">
        <ele>21</ele>
        <time>2015-07-07T08:52:08.000Z</time>
      </trkpt>
      <trkpt lat="47.45961" lon="-0.59556">
        <ele>21</ele>
        <time>2015-07-07T08:52:09.000Z</time>
      </trkpt>
      <trkpt lat="47.4596" lon="-0.5956">
        <ele>21</ele>
        <time>2015-07-07T08:52:10.000Z</time>
      </trkpt>
      <trkpt lat="47.45959" lon="-0.59564">
        <ele>21</ele>
        <time>2015-07-07T08:52:11.000Z</time>
      </trkpt>
      <trkpt lat="47.45959" lon="-0.59568">
        <ele>22</ele>
        <time>2015-07-07T08:52:12.000Z</time>
      </trkpt>
      <trkpt lat="47.45959" lon="-0.59572">
        <ele>22</ele>
        <time>2015-07-07T08:52:13.000Z</time>
      </trkpt>
      <trkpt lat="47.45959" lon="-0.59576">
        <ele>21</ele>
        <time>2015-07-07T08:52:14.000Z</time>
      </trkpt>
      <trkpt lat="47.45959" lon="-0.59579">
        <ele>21</ele>
        <time>2015-07-07T08:52:15.000Z</time>
      </trkpt>
      <trkpt lat="47.45959" lon="-0.59584">
        <ele>22</ele>
        <time>2015-07-07T08:52:16.000Z</time>
      </trkpt>
      <trkpt lat="47.45959" lon="-0.59588">
        <ele>21</ele>
        <time>2015-07-07T08:52:17.000Z</time>
      </trkpt>
      <trkpt lat="47.45959" lon="-0.59591">
        <ele>21</ele>
        <time>2015-07-07T08:52:18.000Z</time>
      </trkpt>
      <trkpt lat="47.45959" lon="-0.59595">
        <ele>21</ele>
        <time>2015-07-07T08:52:19.000Z</time>
      </trkpt>
      <trkpt lat="47.45959" lon="-0.59599">
        <ele>22</ele>
        <time>2015-07-07T08:52:20.000Z</time>
      </trkpt>
      <trkpt lat="47.45959" lon="-0.59602">
        <ele>22</ele>
        <time>2015-07-07T08:52:21.000Z</time>
      </trkpt>
      <trkpt lat="47.45959" lon="-0.59605">
        <ele>21</ele>
        <time>2015-07-07T08:52:22.000Z</time>
      </trkpt>
      <trkpt lat="47.45959" lon="-0.59609">
        <ele>21</ele>
        <time>2015-07-07T08:52:23.000Z</time>
      </trkpt>
      <trkpt lat="47.45958" lon="-0.59612">
        <ele>20</ele>
        <time>2015-07-07T08:52:24.000Z</time>
      </trkpt>
      <trkpt lat="47.45958" lon="-0.59615">
        <ele>19</ele>
        <time>2015-07-07T08:52:25.000Z</time>
      </trkpt>
      <trkpt lat="47.45958" lon="-0.59619">
        <ele>19</ele>
        <time>2015-07-07T08:52:26.000Z</time>
      </trkpt>
      <trkpt lat="47.45957" lon="-0.59623">
        <ele>18</ele>
        <time>2015-07-07T08:52:27.000Z</time>
      </trkpt>
      <trkpt lat="47.45956" lon="-0.59627">
        <ele>19</ele>
        <time>2015-07-07T08:52:28.000Z</time>
      </trkpt>
      <trkpt lat="47.45956" lon="-0.59631">
        <ele>19</ele>
        <time>2015-07-07T08:52:29.000Z</time>
      </trkpt>
      <trkpt lat="47.45955" lon="-0.59636">
        <ele>21</ele>
        <time>2015-07-07T08:52:30.000Z</time>
      </trkpt>
      <trkpt lat="47.45956" lon="-0.59642">
        <ele>21</ele>
        <time>2015-07-07T08:52:31.000Z</time>
      </trkpt>
      <trkpt lat="47.45956" lon="-0.59647">
        <ele>21</ele>
        <time>2015-07-07T08:52:32.000Z</time>
      </trkpt>
      <trkpt lat="47.45956" lon="-0.59651">
        <ele>21</ele>
        <time>2015-07-07T08:52:33.000Z</time>
      </trkpt>
      <trkpt lat="47.45956" lon="-0.59655">
        <ele>21</ele>
        <time>2015-07-07T08:52:34.000Z</time>
      </trkpt>
      <trkpt lat="47.45956" lon="-0.59659">
        <ele>21</ele>
        <time>2015-07-07T08:52:35.000Z</time>
      </trkpt>
      <trkpt lat="47.45956" lon="-0.59663">
        <ele>21</ele>
        <time>2015-07-07T08:52:36.000Z</time>
      </trkpt>
      <trkpt lat="47.45956" lon="-0.59668">
        <ele>22</ele>
        <time>2015-07-07T08:52:37.000Z</time>
      </trkpt>
      <trkpt lat="47.45957" lon="-0.59672">
        <ele>21</ele>
        <time>2015-07-07T08:52:38.000Z</time>
      </trkpt>
      <trkpt lat="47.45958" lon="-0.59676">
        <ele>22</ele>
        <time>2015-07-07T08:52:39.000Z</time>
      </trkpt>
      <trkpt lat="47.45958" lon="-0.5968">
        <ele>23</ele>
        <time>2015-07-07T08:52:40.000Z</time>
      </trkpt>
      <trkpt lat="47.45959" lon="-0.59683">
        <ele>23</ele>
        <time>2015-07-07T08:52:41.000Z</time>
      </trkpt>
      <trkpt lat="47.4596" lon="-0.59687">
        <ele>24</ele>
        <time>2015-07-07T08:52:42.000Z</time>
      </trkpt>
      <trkpt lat="47.4596" lon="-0.5969">
        <ele>24</ele>
        <time>2015-07-07T08:52:43.000Z</time>
      </trkpt>
      <trkpt lat="47.4596" lon="-0.59694">
        <ele>24</ele>
        <time>2015-07-07T08:52:44.000Z</time>
      </trkpt>
      <trkpt lat="47.45959" lon="-0.59698">
        <ele>24</ele>
        <time>2015-07-07T08:52:45.000Z</time>
      </trkpt>
      <trkpt lat="47.45959" lon="-0.59702">
        <ele>25</ele>
        <time>2015-07-07T08:52:46.000Z</time>
      </trkpt>
      <trkpt lat="47.45958" lon="-0.59707">
        <ele>25</ele>
        <time>2015-07-07T08:52:47.000Z</time>
      </trkpt>
      <trkpt lat="47.45957" lon="-0.59711">
        <ele>25</ele>
        <time>2015-07-07T08:52:48.000Z</time>
      </trkpt>
      <trkpt lat="47.45956" lon="-0.59715">
        <ele>26</ele>
        <time>2015-07-07T08:52:49.000Z</time>
      </trkpt>
      <trkpt lat="47.45956" lon="-0.59719">
        <ele>25</ele>
        <time>2015-07-07T08:52:50.000Z</time>
      </trkpt>
      <trkpt lat="47.45955" lon="-0.59723">
        <ele>25</ele>
        <time>2015-07-07T08:52:51.000Z</time>
      </trkpt>
      <trkpt lat="47.45955" lon="-0.59727">
        <ele>26</ele>
        <time>2015-07-07T08:52:52.000Z</time>
      </trkpt>
      <trkpt lat="47.45955" lon="-0.59731">
        <ele>26</ele>
        <time>2015-07-07T08:52:53.000Z</time>
      </trkpt>
      <trkpt lat="47.45955" lon="-0.59736">
        <ele>26</ele>
        <time>2015-07-07T08:52:54.000Z</time>
      </trkpt>
      <trkpt lat="47.45955" lon="-0.5974">
        <ele>26</ele>
        <time>2015-07-07T08:52:55.000Z</time>
      </trkpt>
      <trkpt lat="47.45955" lon="-0.59745">
        <ele>26</ele>
        <time>2015-07-07T08:52:56.000Z</time>
      </trkpt>
      <trkpt lat="47.45955" lon="-0.59749">
        <ele>26</ele>
        <time>2015-07-07T08:52:57.000Z</time>
      </trkpt>
      <trkpt lat="47.45955" lon="-0.59753">
        <ele>27</ele>
        <time>2015-07-07T08:52:58.000Z</time>
      </trkpt>
      <trkpt lat="47.45955" lon="-0.59757">
        <ele>27</ele>
        <time>2015-07-07T08:52:59.000Z</time>
      </trkpt>
      <trkpt lat="47.45955" lon="-0.59761">
        <ele>26</ele>
        <time>2015-07-07T08:53:00.000Z</time>
      </trkpt>
      <trkpt lat="47.45956" lon="-0.59765">
        <ele>26</ele>
        <time>2015-07-07T08:53:01.000Z</time>
      </trkpt>
      <trkpt lat="47.45956" lon="-0.59769">
        <ele>27</ele>
        <time>2015-07-07T08:53:02.000Z</time>
      </trkpt>
      <trkpt lat="47.45956" lon="-0.59773">
        <ele>27</ele>
        <time>2015-07-07T08:53:03.000Z</time>
      </trkpt>
      <trkpt lat="47.45957" lon="-0.59777">
        <ele>27</ele>
        <time>2015-07-07T08:53:04.000Z</time>
      </trkpt>
      <trkpt lat="47.45957" lon="-0.59781">
        <ele>27</ele>
        <time>2015-07-07T08:53:05.000Z</time>
      </trkpt>
      <trkpt lat="47.45958" lon="-0.59785">
        <ele>27</ele>
        <time>2015-07-07T08:53:06.000Z</time>
      </trkpt>
      <trkpt lat="47.45959" lon="-0.59789">
        <ele>27</ele>
        <time>2015-07-07T08:53:07.000Z</time>
      </trkpt>
      <trkpt lat="47.4596" lon="-0.59792">
        <ele>27</ele>
        <time>2015-07-07T08:53:08.000Z</time>
      </trkpt>
      <trkpt lat="47.45961" lon="-0.59796">
        <ele>27</ele>
        <time>2015-07-07T08:53:09.000Z</time>
      </trkpt>
      <trkpt lat="47.45961" lon="-0.598">
        <ele>27</ele>
        <time>2015-07-07T08:53:10.000Z</time>
      </trkpt>
      <trkpt lat="47.45962" lon="-0.59804">
        <ele>28</ele>
        <time>2015-07-07T08:53:11.000Z</time>
      </trkpt>
      <trkpt lat="47.45963" lon="-0.59808">
        <ele>28</ele>
        <time>2015-07-07T08:53:12.000Z</time>
      </trkpt>
      <trkpt lat="47.45964" lon="-0.59811">
        <ele>28</ele>
        <time>2015-07-07T08:53:13.000Z</time>
      </trkpt>
      <trkpt lat="47.45964" lon="-0.59815">
        <ele>28</ele>
        <time>2015-07-07T08:53:14.000Z</time>
      </trkpt>
      <trkpt lat="47.45965" lon="-0.59819">
        <ele>28</ele>
        <time>2015-07-07T08:53:15.000Z</time>
      </trkpt>
      <trkpt lat="47.45966" lon="-0.59823">
        <ele>29</ele>
        <time>2015-07-07T08:53:16.000Z</time>
      </trkpt>
      <trkpt lat="47.45967" lon="-0.59827">
        <ele>29</ele>
        <time>2015-07-07T08:53:17.000Z</time>
      </trkpt>
      <trkpt lat="47.45968" lon="-0.5983">
        <ele>29</ele>
        <time>2015-07-07T08:53:18.000Z</time>
      </trkpt>
      <trkpt lat="47.45968" lon="-0.59834">
        <ele>29</ele>
        <time>2015-07-07T08:53:19.000Z</time>
      </trkpt>
      <trkpt lat="47.45969" lon="-0.59837">
        <ele>29</ele>
        <time>2015-07-07T08:53:20.000Z</time>
      </trkpt>
      <trkpt lat="47.45969" lon="-0.59841">
        <ele>29</ele>
        <time>2015-07-07T08:53:21.000Z</time>
      </trkpt>
      <trkpt lat="47.4597" lon="-0.59845">
        <ele>29</ele>
        <time>2015-07-07T08:53:22.000Z</time>
      </trkpt>
      <trkpt lat="47.4597" lon="-0.59849">
        <ele>29</ele>
        <time>2015-07-07T08:53:23.000Z</time>
      </trkpt>
      <trkpt lat="47.4597" lon="-0.59853">
        <ele>29</ele>
        <time>2015-07-07T08:53:24.000Z</time>
      </trkpt>
      <trkpt lat="47.4597" lon="-0.59857">
        <ele>29</ele>
        <time>2015-07-07T08:53:25.000Z</time>
      </trkpt>
      <trkpt lat="47.4597" lon="-0.59861">
        <ele>30</ele>
        <time>2015-07-07T08:53:26.000Z</time>
      </trkpt>
      <trkpt lat="47.4597" lon="-0.59865">
        <ele>30</ele>
        <time>2015-07-07T08:53:27.000Z</time>
      </trkpt>
      <trkpt lat="47.4597" lon="-0.59869">
        <ele>30</ele>
        <time>2015-07-07T08:53:28.000Z</time>
      </trkpt>
      <trkpt lat="47.4597" lon="-0.59873">
        <ele>31</ele>
        <time>2015-07-07T08:53:29.000Z</time>
      </trkpt>
      <trkpt lat="47.4597" lon="-0.59877">
        <ele>30</ele>
        <time>2015-07-07T08:53:30.000Z</time>
      </trkpt>
      <trkpt lat="47.4597" lon="-0.59881">
        <ele>30</ele>
        <time>2015-07-07T08:53:31.000Z</time>
      </trkpt>
      <trkpt lat="47.4597" lon="-0.59884">
        <ele>30</ele>
        <time>2015-07-07T08:53:32.000Z</time>
      </trkpt>
      <trkpt lat="47.4597" lon="-0.59888">
        <ele>30</ele>
        <time>2015-07-07T08:53:33.000Z</time>
      </trkpt>
      <trkpt lat="47.4597" lon="-0.59892">
        <ele>30</ele>
        <time>2015-07-07T08:53:34.000Z</time>
      </trkpt>
      <trkpt lat="47.45969" lon="-0.59895">
        <ele>30</ele>
        <time>2015-07-07T08:53:35.000Z</time>
      </trkpt>
      <trkpt lat="47.45969" lon="-0.59899">
        <ele>30</ele>
        <time>2015-07-07T08:53:36.000Z</time>
      </trkpt>
      <trkpt lat="47.45969" lon="-0.59902">
        <ele>30</ele>
        <time>2015-07-07T08:53:37.000Z</time>
      </trkpt>
      <trkpt lat="47.45968" lon="-0.59905">
        <ele>30</ele>
        <time>2015-07-07T08:53:38.000Z</time>
      </trkpt>
      <trkpt lat="47.45967" lon="-0.59909">
        <ele>31</ele>
        <time>2015-07-07T08:53:39.000Z</time>
      </trkpt>
      <trkpt lat="47.45966" lon="-0.59913">
        <ele>31</ele>
        <time>2015-07-07T08:53:40.000Z</time>
      </trkpt>
      <trkpt lat="47.45966" lon="-0.59917">
        <ele>31</ele>
        <time>2015-07-07T08:53:41.000Z</time>
      </trkpt>
      <trkpt lat="47.45965" lon="-0.5992">
        <ele>31</ele>
        <time>2015-07-07T08:53:42.000Z</time>
      </trkpt>
      <trkpt lat="47.45964" lon="-0.59923">
        <ele>31</ele>
        <time>2015-07-07T08:53:43.000Z</time>
      </trkpt>
      <trkpt lat="47.45964" lon="-0.59926">
        <ele>31</ele>
        <time>2015-07-07T08:53:44.000Z</time>
      </trkpt>
      <trkpt lat="47.45963" lon="-0.59929">
        <ele>31</ele>
        <time>2015-07-07T08:53:45.000Z</time>
      </trkpt>
      <trkpt lat="47.45962" lon="-0.59933">
        <ele>31</ele>
        <time>2015-07-07T08:53:46.000Z</time>
      </trkpt>
      <trkpt lat="47.45962" lon="-0.59937">
        <ele>31</ele>
        <time>2015-07-07T08:53:47.000Z</time>
      </trkpt>
      <trkpt lat="47.45961" lon="-0.5994">
        <ele>31</ele>
        <time>2015-07-07T08:53:48.000Z</time>
      </trkpt>
      <trkpt lat="47.4596" lon="-0.59944">
        <ele>31</ele>
        <time>2015-07-07T08:53:49.000Z</time>
      </trkpt>
      <trkpt lat="47.4596" lon="-0.59947">
        <ele>31</ele>
        <time>2015-07-07T08:53:50.000Z</time>
      </trkpt>
      <trkpt lat="47.45959" lon="-0.59951">
        <ele>31</ele>
        <time>2015-07-07T08:53:51.000Z</time>
      </trkpt>
      <trkpt lat="47.45959" lon="-0.59954">
        <ele>31</ele>
        <time>2015-07-07T08:53:52.000Z</time>
      </trkpt>
      <trkpt lat="47.45958" lon="-0.59958">
        <ele>31</ele>
        <time>2015-07-07T08:53:53.000Z</time>
      </trkpt>
      <trkpt lat="47.45958" lon="-0.59962">
        <ele>31</ele>
        <time>2015-07-07T08:53:54.000Z</time>
      </trkpt>
      <trkpt lat="47.45958" lon="-0.59965">
        <ele>32</ele>
        <time>2015-07-07T08:53:55.000Z</time>
      </trkpt>
      <trkpt lat="47.45957" lon="-0.59969">
        <ele>32</ele>
        <time>2015-07-07T08:53:56.000Z</time>
      </trkpt>
      <trkpt lat="47.45957" lon="-0.59973">
        <ele>32</ele>
        <time>2015-07-07T08:53:57.000Z</time>
      </trkpt>
      <trkpt lat="47.45957" lon="-0.59976">
        <ele>32</ele>
        <time>2015-07-07T08:53:58.000Z</time>
      </trkpt>
      <trkpt lat="47.45957" lon="-0.5998">
        <ele>33</ele>
        <time>2015-07-07T08:53:59.000Z</time>
      </trkpt>
      <trkpt lat="47.45958" lon="-0.59984">
        <ele>33</ele>
        <time>2015-07-07T08:54:00.000Z</time>
      </trkpt>
      <trkpt lat="47.45958" lon="-0.59988">
        <ele>34</ele>
        <time>2015-07-07T08:54:01.000Z</time>
      </trkpt>
      <trkpt lat="47.45958" lon="-0.59992">
        <ele>34</ele>
        <time>2015-07-07T08:54:02.000Z</time>
      </trkpt>
      <trkpt lat="47.45958" lon="-0.59996">
        <ele>34</ele>
        <time>2015-07-07T08:54:03.000Z</time>
      </trkpt>
      <trkpt lat="47.45959" lon="-0.6">
        <ele>33</ele>
        <time>2015-07-07T08:54:04.000Z</time>
      </trkpt>
      <trkpt lat="47.45961" lon="-0.60004">
        <ele>33</ele>
        <time>2015-07-07T08:54:05.000Z</time>
      </trkpt>
      <trkpt lat="47.45962" lon="-0.60009">
        <ele>33</ele>
        <time>2015-07-07T08:54:06.000Z</time>
      </trkpt>
      <trkpt lat="47.45962" lon="-0.60013">
        <ele>33</ele>
        <time>2015-07-07T08:54:07.000Z</time>
      </trkpt>
      <trkpt lat="47.45962" lon="-0.60017">
        <ele>32</ele>
        <time>2015-07-07T08:54:08.000Z</time>
      </trkpt>
      <trkpt lat="47.45963" lon="-0.60021">
        <ele>32</ele>
        <time>2015-07-07T08:54:09.000Z</time>
      </trkpt>
      <trkpt lat="47.45962" lon="-0.60025">
        <ele>31</ele>
        <time>2015-07-07T08:54:10.000Z</time>
      </trkpt>
      <trkpt lat="47.45962" lon="-0.60029">
        <ele>31</ele>
        <time>2015-07-07T08:54:11.000Z</time>
      </trkpt>
      <trkpt lat="47.45962" lon="-0.60033">
        <ele>32</ele>
        <time>2015-07-07T08:54:12.000Z</time>
      </trkpt>
      <trkpt lat="47.45962" lon="-0.60038">
        <ele>32</ele>
        <time>2015-07-07T08:54:13.000Z</time>
      </trkpt>
      <trkpt lat="47.45961" lon="-0.60043">
        <ele>33</ele>
        <time>2015-07-07T08:54:14.000Z</time>
      </trkpt>
      <trkpt lat="47.45961" lon="-0.60047">
        <ele>32</ele>
        <time>2015-07-07T08:54:15.000Z</time>
      </trkpt>
      <trkpt lat="47.4596" lon="-0.60051">
        <ele>33</ele>
        <time>2015-07-07T08:54:16.000Z</time>
      </trkpt>
      <trkpt lat="47.4596" lon="-0.60055">
        <ele>34</ele>
        <time>2015-07-07T08:54:17.000Z</time>
      </trkpt>
      <trkpt lat="47.4596" lon="-0.60059">
        <ele>34</ele>
        <time>2015-07-07T08:54:18.000Z</time>
      </trkpt>
      <trkpt lat="47.4596" lon="-0.60063">
        <ele>34</ele>
        <time>2015-07-07T08:54:19.000Z</time>
      </trkpt>
      <trkpt lat="47.45959" lon="-0.60067">
        <ele>34</ele>
        <time>2015-07-07T08:54:20.000Z</time>
      </trkpt>
      <trkpt lat="47.45959" lon="-0.60071">
        <ele>34</ele>
        <time>2015-07-07T08:54:21.000Z</time>
      </trkpt>
      <trkpt lat="47.45959" lon="-0.60075">
        <ele>34</ele>
        <time>2015-07-07T08:54:22.000Z</time>
      </trkpt>
      <trkpt lat="47.45959" lon="-0.6008">
        <ele>35</ele>
        <time>2015-07-07T08:54:23.000Z</time>
      </trkpt>
      <trkpt lat="47.45959" lon="-0.60084">
        <ele>35</ele>
        <time>2015-07-07T08:54:24.000Z</time>
      </trkpt>
      <trkpt lat="47.45959" lon="-0.60089">
        <ele>36</ele>
        <time>2015-07-07T08:54:25.000Z</time>
      </trkpt>
      <trkpt lat="47.45959" lon="-0.60093">
        <ele>36</ele>
        <time>2015-07-07T08:54:26.000Z</time>
      </trkpt>
      <trkpt lat="47.45959" lon="-0.60097">
        <ele>36</ele>
        <time>2015-07-07T08:54:27.000Z</time>
      </trkpt>
      <trkpt lat="47.45959" lon="-0.60101">
        <ele>36</ele>
        <time>2015-07-07T08:54:28.000Z</time>
      </trkpt>
      <trkpt lat="47.45959" lon="-0.60104">
        <ele>37</ele>
        <time>2015-07-07T08:54:29.000Z</time>
      </trkpt>
      <trkpt lat="47.4596" lon="-0.60108">
        <ele>37</ele>
        <time>2015-07-07T08:54:30.000Z</time>
      </trkpt>
      <trkpt lat="47.4596" lon="-0.60111">
        <ele>38</ele>
        <time>2015-07-07T08:54:31.000Z</time>
      </trkpt>
      <trkpt lat="47.4596" lon="-0.60114">
        <ele>37</ele>
        <time>2015-07-07T08:54:32.000Z</time>
      </trkpt>
      <trkpt lat="47.4596" lon="-0.60118">
        <ele>37</ele>
        <time>2015-07-07T08:54:33.000Z</time>
      </trkpt>
      <trkpt lat="47.4596" lon="-0.60122">
        <ele>37</ele>
        <time>2015-07-07T08:54:34.000Z</time>
      </trkpt>
      <trkpt lat="47.4596" lon="-0.60125">
        <ele>37</ele>
        <time>2015-07-07T08:54:35.000Z</time>
      </trkpt>
      <trkpt lat="47.45961" lon="-0.60129">
        <ele>37</ele>
        <time>2015-07-07T08:54:36.000Z</time>
      </trkpt>
      <trkpt lat="47.45961" lon="-0.60132">
        <ele>37</ele>
        <time>2015-07-07T08:54:37.000Z</time>
      </trkpt>
      <trkpt lat="47.45962" lon="-0.60135">
        <ele>37</ele>
        <time>2015-07-07T08:54:38.000Z</time>
      </trkpt>
      <trkpt lat="47.45963" lon="-0.60139">
        <ele>36</ele>
        <time>2015-07-07T08:54:39.000Z</time>
      </trkpt>
      <trkpt lat="47.45963" lon="-0.60142">
        <ele>36</ele>
        <time>2015-07-07T08:54:40.000Z</time>
      </trkpt>
      <trkpt lat="47.45964" lon="-0.60145">
        <ele>37</ele>
        <time>2015-07-07T08:54:41.000Z</time>
      </trkpt>
      <trkpt lat="47.45965" lon="-0.60148">
        <ele>37</ele>
        <time>2015-07-07T08:54:42.000Z</time>
      </trkpt>
      <trkpt lat="47.45966" lon="-0.60152">
        <ele>36</ele>
        <time>2015-07-07T08:54:43.000Z</time>
      </trkpt>
      <trkpt lat="47.45967" lon="-0.60155">
        <ele>36</ele>
        <time>2015-07-07T08:54:44.000Z</time>
      </trkpt>
      <trkpt lat="47.45968" lon="-0.6016">
        <ele>35</ele>
        <time>2015-07-07T08:54:45.000Z</time>
      </trkpt>
      <trkpt lat="47.4597" lon="-0.60164">
        <ele>35</ele>
        <time>2015-07-07T08:54:46.000Z</time>
      </trkpt>
      <trkpt lat="47.45971" lon="-0.60167">
        <ele>35</ele>
        <time>2015-07-07T08:54:47.000Z</time>
      </trkpt>
      <trkpt lat="47.45972" lon="-0.60171">
        <ele>37</ele>
        <time>2015-07-07T08:54:48.000Z</time>
      </trkpt>
      <trkpt lat="47.45974" lon="-0.60175">
        <ele>39</ele>
        <time>2015-07-07T08:54:49.000Z</time>
      </trkpt>
      <trkpt lat="47.45975" lon="-0.6018">
        <ele>38</ele>
        <time>2015-07-07T08:54:50.000Z</time>
      </trkpt>
      <trkpt lat="47.45977" lon="-0.60185">
        <ele>38</ele>
        <time>2015-07-07T08:54:51.000Z</time>
      </trkpt>
      <trkpt lat="47.45978" lon="-0.60189">
        <ele>39</ele>
        <time>2015-07-07T08:54:52.000Z</time>
      </trkpt>
      <trkpt lat="47.45979" lon="-0.60193">
        <ele>40</ele>
        <time>2015-07-07T08:54:53.000Z</time>
      </trkpt>
      <trkpt lat="47.4598" lon="-0.60198">
        <ele>40</ele>
        <time>2015-07-07T08:54:54.000Z</time>
      </trkpt>
      <trkpt lat="47.45982" lon="-0.60202">
        <ele>41</ele>
        <time>2015-07-07T08:54:55.000Z</time>
      </trkpt>
      <trkpt lat="47.45983" lon="-0.60207">
        <ele>42</ele>
        <time>2015-07-07T08:54:56.000Z</time>
      </trkpt>
      <trkpt lat="47.45984" lon="-0.60211">
        <ele>42</ele>
        <time>2015-07-07T08:54:57.000Z</time>
      </trkpt>
      <trkpt lat="47.45985" lon="-0.60215">
        <ele>42</ele>
        <time>2015-07-07T08:54:58.000Z</time>
      </trkpt>
      <trkpt lat="47.45986" lon="-0.60219">
        <ele>42</ele>
        <time>2015-07-07T08:54:59.000Z</time>
      </trkpt>
      <trkpt lat="47.45987" lon="-0.60223">
        <ele>43</ele>
        <time>2015-07-07T08:55:00.000Z</time>
      </trkpt>
      <trkpt lat="47.45988" lon="-0.60227">
        <ele>43</ele>
        <time>2015-07-07T08:55:01.000Z</time>
      </trkpt>
      <trkpt lat="47.45989" lon="-0.60231">
        <ele>43</ele>
        <time>2015-07-07T08:55:02.000Z</time>
      </trkpt>
      <trkpt lat="47.4599" lon="-0.60235">
        <ele>43</ele>
        <time>2015-07-07T08:55:03.000Z</time>
      </trkpt>
      <trkpt lat="47.45991" lon="-0.60239">
        <ele>43</ele>
        <time>2015-07-07T08:55:04.000Z</time>
      </trkpt>
      <trkpt lat="47.45991" lon="-0.60243">
        <ele>43</ele>
        <time>2015-07-07T08:55:05.000Z</time>
      </trkpt>
      <trkpt lat="47.45991" lon="-0.60246">
        <ele>43</ele>
        <time>2015-07-07T08:55:06.000Z</time>
      </trkpt>
      <trkpt lat="47.45991" lon="-0.6025">
        <ele>44</ele>
        <time>2015-07-07T08:55:07.000Z</time>
      </trkpt>
      <trkpt lat="47.45991" lon="-0.60254">
        <ele>44</ele>
        <time>2015-07-07T08:55:08.000Z</time>
      </trkpt>
      <trkpt lat="47.45991" lon="-0.60258">
        <ele>44</ele>
        <time>2015-07-07T08:55:09.000Z</time>
      </trkpt>
      <trkpt lat="47.4599" lon="-0.60263">
        <ele>44</ele>
        <time>2015-07-07T08:55:10.000Z</time>
      </trkpt>
      <trkpt lat="47.45989" lon="-0.60266">
        <ele>44</ele>
        <time>2015-07-07T08:55:11.000Z</time>
      </trkpt>
      <trkpt lat="47.45988" lon="-0.60269">
        <ele>44</ele>
        <time>2015-07-07T08:55:12.000Z</time>
      </trkpt>
      <trkpt lat="47.45987" lon="-0.60271">
        <ele>46</ele>
        <time>2015-07-07T08:55:13.000Z</time>
      </trkpt>
      <trkpt lat="47.45986" lon="-0.60274">
        <ele>46</ele>
        <time>2015-07-07T08:55:14.000Z</time>
      </trkpt>
      <trkpt lat="47.45985" lon="-0.60277">
        <ele>47</ele>
        <time>2015-07-07T08:55:15.000Z</time>
      </trkpt>
      <trkpt lat="47.45983" lon="-0.6028">
        <ele>48</ele>
        <time>2015-07-07T08:55:16.000Z</time>
      </trkpt>
      <trkpt lat="47.45981" lon="-0.60284">
        <ele>48</ele>
        <time>2015-07-07T08:55:17.000Z</time>
      </trkpt>
      <trkpt lat="47.45979" lon="-0.60287">
        <ele>48</ele>
        <time>2015-07-07T08:55:18.000Z</time>
      </trkpt>
      <trkpt lat="47.45977" lon="-0.60291">
        <ele>48</ele>
        <time>2015-07-07T08:55:19.000Z</time>
      </trkpt>
      <trkpt lat="47.45975" lon="-0.60294">
        <ele>49</ele>
        <time>2015-07-07T08:55:20.000Z</time>
      </trkpt>
      <trkpt lat="47.45973" lon="-0.60297">
        <ele>50</ele>
        <time>2015-07-07T08:55:21.000Z</time>
      </trkpt>
      <trkpt lat="47.45971" lon="-0.603">
        <ele>51</ele>
        <time>2015-07-07T08:55:22.000Z</time>
      </trkpt>
      <trkpt lat="47.4597" lon="-0.60304">
        <ele>51</ele>
        <time>2015-07-07T08:55:23.000Z</time>
      </trkpt>
      <trkpt lat="47.45968" lon="-0.60307">
        <ele>52</ele>
        <time>2015-07-07T08:55:24.000Z</time>
      </trkpt>
      <trkpt lat="47.45966" lon="-0.60309">
        <ele>53</ele>
        <time>2015-07-07T08:55:25.000Z</time>
      </trkpt>
      <trkpt lat="47.45965" lon="-0.60312">
        <ele>53</ele>
        <time>2015-07-07T08:55:26.000Z</time>
      </trkpt>
      <trkpt lat="47.45963" lon="-0.60314">
        <ele>54</ele>
        <time>2015-07-07T08:55:27.000Z</time>
      </trkpt>
      <trkpt lat="47.45961" lon="-0.60316">
        <ele>54</ele>
        <time>2015-07-07T08:55:28.000Z</time>
      </trkpt>
      <trkpt lat="47.45959" lon="-0.60318">
        <ele>55</ele>
        <time>2015-07-07T08:55:29.000Z</time>
      </trkpt>
      <trkpt lat="47.45957" lon="-0.6032">
        <ele>56</ele>
        <time>2015-07-07T08:55:30.000Z</time>
      </trkpt>
      <trkpt lat="47.45956" lon="-0.60323">
        <ele>57</ele>
        <time>2015-07-07T08:55:31.000Z</time>
      </trkpt>
      <trkpt lat="47.45954" lon="-0.60326">
        <ele>57</ele>
        <time>2015-07-07T08:55:32.000Z</time>
      </trkpt>
      <trkpt lat="47.45952" lon="-0.60329">
        <ele>56</ele>
        <time>2015-07-07T08:55:33.000Z</time>
      </trkpt>
      <trkpt lat="47.4595" lon="-0.60331">
        <ele>57</ele>
        <time>2015-07-07T08:55:34.000Z</time>
      </trkpt>
      <trkpt lat="47.45948" lon="-0.60334">
        <ele>56</ele>
        <time>2015-07-07T08:55:35.000Z</time>
      </trkpt>
      <trkpt lat="47.45946" lon="-0.60337">
        <ele>56</ele>
        <time>2015-07-07T08:55:36.000Z</time>
      </trkpt>
      <trkpt lat="47.45944" lon="-0.60339">
        <ele>56</ele>
        <time>2015-07-07T08:55:37.000Z</time>
      </trkpt>
      <trkpt lat="47.45942" lon="-0.60343">
        <ele>56</ele>
        <time>2015-07-07T08:55:38.000Z</time>
      </trkpt>
      <trkpt lat="47.4594" lon="-0.60346">
        <ele>56</ele>
        <time>2015-07-07T08:55:39.000Z</time>
      </trkpt>
      <trkpt lat="47.45938" lon="-0.6035">
        <ele>57</ele>
        <time>2015-07-07T08:55:40.000Z</time>
      </trkpt>
      <trkpt lat="47.45935" lon="-0.60354">
        <ele>57</ele>
        <time>2015-07-07T08:55:41.000Z</time>
      </trkpt>
      <trkpt lat="47.45933" lon="-0.60358">
        <ele>56</ele>
        <time>2015-07-07T08:55:42.000Z</time>
      </trkpt>
      <trkpt lat="47.45931" lon="-0.60362">
        <ele>57</ele>
        <time>2015-07-07T08:55:43.000Z</time>
      </trkpt>
      <trkpt lat="47.45929" lon="-0.60365">
        <ele>57</ele>
        <time>2015-07-07T08:55:44.000Z</time>
      </trkpt>
      <trkpt lat="47.45928" lon="-0.60368">
        <ele>57</ele>
        <time>2015-07-07T08:55:45.000Z</time>
      </trkpt>
      <trkpt lat="47.45926" lon="-0.60372">
        <ele>58</ele>
        <time>2015-07-07T08:55:46.000Z</time>
      </trkpt>
      <trkpt lat="47.45925" lon="-0.60376">
        <ele>58</ele>
        <time>2015-07-07T08:55:47.000Z</time>
      </trkpt>
      <trkpt lat="47.45922" lon="-0.60379">
        <ele>58</ele>
        <time>2015-07-07T08:55:48.000Z</time>
      </trkpt>
      <trkpt lat="47.4592" lon="-0.60381">
        <ele>57</ele>
        <time>2015-07-07T08:55:49.000Z</time>
      </trkpt>
      <trkpt lat="47.45918" lon="-0.60384">
        <ele>57</ele>
        <time>2015-07-07T08:55:50.000Z</time>
      </trkpt>
      <trkpt lat="47.45916" lon="-0.60387">
        <ele>57</ele>
        <time>2015-07-07T08:55:51.000Z</time>
      </trkpt>
      <trkpt lat="47.45914" lon="-0.6039">
        <ele>58</ele>
        <time>2015-07-07T08:55:52.000Z</time>
      </trkpt>
      <trkpt lat="47.45912" lon="-0.60393">
        <ele>57</ele>
        <time>2015-07-07T08:55:53.000Z</time>
      </trkpt>
      <trkpt lat="47.4591" lon="-0.60396">
        <ele>58</ele>
        <time>2015-07-07T08:55:54.000Z</time>
      </trkpt>
      <trkpt lat="47.45908" lon="-0.60399">
        <ele>58</ele>
        <time>2015-07-07T08:55:55.000Z</time>
      </trkpt>
      <trkpt lat="47.45907" lon="-0.60402">
        <ele>59</ele>
        <time>2015-07-07T08:55:56.000Z</time>
      </trkpt>
      <trkpt lat="47.45905" lon="-0.60405">
        <ele>59</ele>
        <time>2015-07-07T08:55:57.000Z</time>
      </trkpt>
      <trkpt lat="47.45903" lon="-0.60408">
        <ele>59</ele>
        <time>2015-07-07T08:55:58.000Z</time>
      </trkpt>
      <trkpt lat="47.45901" lon="-0.60411">
        <ele>57</ele>
        <time>2015-07-07T08:55:59.000Z</time>
      </trkpt>
      <trkpt lat="47.45899" lon="-0.60415">
        <ele>58</ele>
        <time>2015-07-07T08:56:00.000Z</time>
      </trkpt>
      <trkpt lat="47.45897" lon="-0.60418">
        <ele>58</ele>
        <time>2015-07-07T08:56:01.000Z</time>
      </trkpt>
      <trkpt lat="47.45895" lon="-0.60421">
        <ele>59</ele>
        <time>2015-07-07T08:56:02.000Z</time>
      </trkpt>
      <trkpt lat="47.45893" lon="-0.60424">
        <ele>59</ele>
        <time>2015-07-07T08:56:03.000Z</time>
      </trkpt>
      <trkpt lat="47.45891" lon="-0.60427">
        <ele>60</ele>
        <time>2015-07-07T08:56:04.000Z</time>
      </trkpt>
      <trkpt lat="47.45889" lon="-0.6043">
        <ele>60</ele>
        <time>2015-07-07T08:56:05.000Z</time>
      </trkpt>
      <trkpt lat="47.45887" lon="-0.60432">
        <ele>60</ele>
        <time>2015-07-07T08:56:06.000Z</time>
      </trkpt>
      <trkpt lat="47.45885" lon="-0.60434">
        <ele>60</ele>
        <time>2015-07-07T08:56:07.000Z</time>
      </trkpt>
      <trkpt lat="47.45884" lon="-0.60436">
        <ele>60</ele>
        <time>2015-07-07T08:56:08.000Z</time>
      </trkpt>
      <trkpt lat="47.45883" lon="-0.60439">
        <ele>59</ele>
        <time>2015-07-07T08:56:09.000Z</time>
      </trkpt>
      <trkpt lat="47.45881" lon="-0.60441">
        <ele>59</ele>
        <time>2015-07-07T08:56:10.000Z</time>
      </trkpt>
      <trkpt lat="47.4588" lon="-0.60442">
        <ele>59</ele>
        <time>2015-07-07T08:56:11.000Z</time>
      </trkpt>
      <trkpt lat="47.45878" lon="-0.60445">
        <ele>60</ele>
        <time>2015-07-07T08:56:12.000Z</time>
      </trkpt>
      <trkpt lat="47.45877" lon="-0.60446">
        <ele>60</ele>
        <time>2015-07-07T08:56:13.000Z</time>
      </trkpt>
      <trkpt lat="47.45875" lon="-0.60448">
        <ele>60</ele>
        <time>2015-07-07T08:56:14.000Z</time>
      </trkpt>
      <trkpt lat="47.45873" lon="-0.6045">
        <ele>61</ele>
        <time>2015-07-07T08:56:15.000Z</time>
      </trkpt>
      <trkpt lat="47.45872" lon="-0.60453">
        <ele>61</ele>
        <time>2015-07-07T08:56:16.000Z</time>
      </trkpt>
      <trkpt lat="47.4587" lon="-0.60455">
        <ele>62</ele>
        <time>2015-07-07T08:56:17.000Z</time>
      </trkpt>
      <trkpt lat="47.45868" lon="-0.60458">
        <ele>63</ele>
        <time>2015-07-07T08:56:18.000Z</time>
      </trkpt>
      <trkpt lat="47.45867" lon="-0.60461">
        <ele>63</ele>
        <time>2015-07-07T08:56:19.000Z</time>
      </trkpt>
      <trkpt lat="47.45865" lon="-0.60463">
        <ele>63</ele>
        <time>2015-07-07T08:56:20.000Z</time>
      </trkpt>
      <trkpt lat="47.45864" lon="-0.60466">
        <ele>63</ele>
        <time>2015-07-07T08:56:21.000Z</time>
      </trkpt>
      <trkpt lat="47.45863" lon="-0.60468">
        <ele>63</ele>
        <time>2015-07-07T08:56:22.000Z</time>
      </trkpt>
      <trkpt lat="47.45862" lon="-0.60471">
        <ele>63</ele>
        <time>2015-07-07T08:56:23.000Z</time>
      </trkpt>
      <trkpt lat="47.45861" lon="-0.60474">
        <ele>63</ele>
        <time>2015-07-07T08:56:24.000Z</time>
      </trkpt>
      <trkpt lat="47.4586" lon="-0.60478">
        <ele>64</ele>
        <time>2015-07-07T08:56:25.000Z</time>
      </trkpt>
      <trkpt lat="47.45859" lon="-0.60482">
        <ele>65</ele>
        <time>2015-07-07T08:56:26.000Z</time>
      </trkpt>
      <trkpt lat="47.45858" lon="-0.60485">
        <ele>65</ele>
        <time>2015-07-07T08:56:27.000Z</time>
      </trkpt>
      <trkpt lat="47.45856" lon="-0.60489">
        <ele>65</ele>
        <time>2015-07-07T08:56:28.000Z</time>
      </trkpt>
      <trkpt lat="47.45855" lon="-0.60493">
        <ele>65</ele>
        <time>2015-07-07T08:56:29.000Z</time>
      </trkpt>
      <trkpt lat="47.45854" lon="-0.60497">
        <ele>65</ele>
        <time>2015-07-07T08:56:30.000Z</time>
      </trkpt>
      <trkpt lat="47.45852" lon="-0.605">
        <ele>64</ele>
        <time>2015-07-07T08:56:31.000Z</time>
      </trkpt>
      <trkpt lat="47.45851" lon="-0.60505">
        <ele>65</ele>
        <time>2015-07-07T08:56:32.000Z</time>
      </trkpt>
      <trkpt lat="47.4585" lon="-0.60508">
        <ele>65</ele>
        <time>2015-07-07T08:56:33.000Z</time>
      </trkpt>
      <trkpt lat="47.45849" lon="-0.60512">
        <ele>66</ele>
        <time>2015-07-07T08:56:34.000Z</time>
      </trkpt>
      <trkpt lat="47.45849" lon="-0.60516">
        <ele>65</ele>
        <time>2015-07-07T08:56:35.000Z</time>
      </trkpt>
      <trkpt lat="47.45848" lon="-0.6052">
        <ele>66</ele>
        <time>2015-07-07T08:56:36.000Z</time>
      </trkpt>
      <trkpt lat="47.45847" lon="-0.60524">
        <ele>65</ele>
        <time>2015-07-07T08:56:37.000Z</time>
      </trkpt>
      <trkpt lat="47.45846" lon="-0.60528">
        <ele>66</ele>
        <time>2015-07-07T08:56:38.000Z</time>
      </trkpt>
      <trkpt lat="47.45846" lon="-0.60531">
        <ele>66</ele>
        <time>2015-07-07T08:56:39.000Z</time>
      </trkpt>
      <trkpt lat="47.45845" lon="-0.60535">
        <ele>65</ele>
        <time>2015-07-07T08:56:40.000Z</time>
      </trkpt>
      <trkpt lat="47.45844" lon="-0.60539">
        <ele>65</ele>
        <time>2015-07-07T08:56:41.000Z</time>
      </trkpt>
      <trkpt lat="47.45843" lon="-0.60542">
        <ele>65</ele>
        <time>2015-07-07T08:56:42.000Z</time>
      </trkpt>
      <trkpt lat="47.45843" lon="-0.60546">
        <ele>64</ele>
        <time>2015-07-07T08:56:43.000Z</time>
      </trkpt>
      <trkpt lat="47.45842" lon="-0.6055">
        <ele>63</ele>
        <time>2015-07-07T08:56:44.000Z</time>
      </trkpt>
      <trkpt lat="47.45841" lon="-0.60554">
        <ele>64</ele>
        <time>2015-07-07T08:56:45.000Z</time>
      </trkpt>
      <trkpt lat="47.4584" lon="-0.60558">
        <ele>65</ele>
        <time>2015-07-07T08:56:46.000Z</time>
      </trkpt>
      <trkpt lat="47.45838" lon="-0.60563">
        <ele>65</ele>
        <time>2015-07-07T08:56:47.000Z</time>
      </trkpt>
      <trkpt lat="47.45837" lon="-0.60567">
        <ele>65</ele>
        <time>2015-07-07T08:56:48.000Z</time>
      </trkpt>
      <trkpt lat="47.45836" lon="-0.60571">
        <ele>65</ele>
        <time>2015-07-07T08:56:49.000Z</time>
      </trkpt>
      <trkpt lat="47.45835" lon="-0.60575">
        <ele>66</ele>
        <time>2015-07-07T08:56:50.000Z</time>
      </trkpt>
      <trkpt lat="47.45834" lon="-0.60579">
        <ele>67</ele>
        <time>2015-07-07T08:56:51.000Z</time>
      </trkpt>
      <trkpt lat="47.45833" lon="-0.60583">
        <ele>67</ele>
        <time>2015-07-07T08:56:52.000Z</time>
      </trkpt>
      <trkpt lat="47.45832" lon="-0.60586">
        <ele>66</ele>
        <time>2015-07-07T08:56:53.000Z</time>
      </trkpt>
      <trkpt lat="47.4583" lon="-0.6059">
        <ele>66</ele>
        <time>2015-07-07T08:56:54.000Z</time>
      </trkpt>
      <trkpt lat="47.4583" lon="-0.60594">
        <ele>66</ele>
        <time>2015-07-07T08:56:55.000Z</time>
      </trkpt>
      <trkpt lat="47.45829" lon="-0.60598">
        <ele>65</ele>
        <time>2015-07-07T08:56:56.000Z</time>
      </trkpt>
      <trkpt lat="47.45828" lon="-0.60602">
        <ele>63</ele>
        <time>2015-07-07T08:56:57.000Z</time>
      </trkpt>
      <trkpt lat="47.45828" lon="-0.60606">
        <ele>62</ele>
        <time>2015-07-07T08:56:58.000Z</time>
      </trkpt>
      <trkpt lat="47.45827" lon="-0.60611">
        <ele>61</ele>
        <time>2015-07-07T08:56:59.000Z</time>
      </trkpt>
      <trkpt lat="47.45826" lon="-0.60616">
        <ele>62</ele>
        <time>2015-07-07T08:57:00.000Z</time>
      </trkpt>
      <trkpt lat="47.45825" lon="-0.6062">
        <ele>63</ele>
        <time>2015-07-07T08:57:01.000Z</time>
      </trkpt>
      <trkpt lat="47.45823" lon="-0.60625">
        <ele>63</ele>
        <time>2015-07-07T08:57:02.000Z</time>
      </trkpt>
      <trkpt lat="47.45821" lon="-0.6063">
        <ele>63</ele>
        <time>2015-07-07T08:57:03.000Z</time>
      </trkpt>
      <trkpt lat="47.45819" lon="-0.60634">
        <ele>63</ele>
        <time>2015-07-07T08:57:04.000Z</time>
      </trkpt>
      <trkpt lat="47.45818" lon="-0.60638">
        <ele>63</ele>
        <time>2015-07-07T08:57:05.000Z</time>
      </trkpt>
      <trkpt lat="47.45816" lon="-0.60641">
        <ele>64</ele>
        <time>2015-07-07T08:57:06.000Z</time>
      </trkpt>
      <trkpt lat="47.45814" lon="-0.60645">
        <ele>64</ele>
        <time>2015-07-07T08:57:07.000Z</time>
      </trkpt>
      <trkpt lat="47.45812" lon="-0.60648">
        <ele>64</ele>
        <time>2015-07-07T08:57:08.000Z</time>
      </trkpt>
      <trkpt lat="47.45811" lon="-0.60651">
        <ele>63</ele>
        <time>2015-07-07T08:57:09.000Z</time>
      </trkpt>
      <trkpt lat="47.45809" lon="-0.60655">
        <ele>63</ele>
        <time>2015-07-07T08:57:10.000Z</time>
      </trkpt>
      <trkpt lat="47.45807" lon="-0.60658">
        <ele>64</ele>
        <time>2015-07-07T08:57:11.000Z</time>
      </trkpt>
      <trkpt lat="47.45805" lon="-0.60662">
        <ele>64</ele>
        <time>2015-07-07T08:57:12.000Z</time>
      </trkpt>
      <trkpt lat="47.45803" lon="-0.60665">
        <ele>64</ele>
        <time>2015-07-07T08:57:13.000Z</time>
      </trkpt>
      <trkpt lat="47.45801" lon="-0.60669">
        <ele>64</ele>
        <time>2015-07-07T08:57:14.000Z</time>
      </trkpt>
      <trkpt lat="47.45799" lon="-0.60672">
        <ele>64</ele>
        <time>2015-07-07T08:57:15.000Z</time>
      </trkpt>
      <trkpt lat="47.45797" lon="-0.60674">
        <ele>64</ele>
        <time>2015-07-07T08:57:16.000Z</time>
      </trkpt>
      <trkpt lat="47.45795" lon="-0.60677">
        <ele>63</ele>
        <time>2015-07-07T08:57:17.000Z</time>
      </trkpt>
      <trkpt lat="47.45794" lon="-0.6068">
        <ele>63</ele>
        <time>2015-07-07T08:57:18.000Z</time>
      </trkpt>
      <trkpt lat="47.45792" lon="-0.60682">
        <ele>63</ele>
        <time>2015-07-07T08:57:19.000Z</time>
      </trkpt>
      <trkpt lat="47.4579" lon="-0.60685">
        <ele>62</ele>
        <time>2015-07-07T08:57:20.000Z</time>
      </trkpt>
      <trkpt lat="47.45789" lon="-0.60688">
        <ele>62</ele>
        <time>2015-07-07T08:57:21.000Z</time>
      </trkpt>
      <trkpt lat="47.45787" lon="-0.6069">
        <ele>61</ele>
        <time>2015-07-07T08:57:22.000Z</time>
      </trkpt>
      <trkpt lat="47.45785" lon="-0.60692">
        <ele>61</ele>
        <time>2015-07-07T08:57:23.000Z</time>
      </trkpt>
      <trkpt lat="47.45783" lon="-0.60694">
        <ele>61</ele>
        <time>2015-07-07T08:57:24.000Z</time>
      </trkpt>
      <trkpt lat="47.45781" lon="-0.60696">
        <ele>60</ele>
        <time>2015-07-07T08:57:25.000Z</time>
      </trkpt>
      <trkpt lat="47.4578" lon="-0.60698">
        <ele>59</ele>
        <time>2015-07-07T08:57:26.000Z</time>
      </trkpt>
      <trkpt lat="47.45778" lon="-0.607">
        <ele>59</ele>
        <time>2015-07-07T08:57:27.000Z</time>
      </trkpt>
      <trkpt lat="47.45776" lon="-0.60702">
        <ele>58</ele>
        <time>2015-07-07T08:57:28.000Z</time>
      </trkpt>
      <trkpt lat="47.45774" lon="-0.60705">
        <ele>57</ele>
        <time>2015-07-07T08:57:29.000Z</time>
      </trkpt>
      <trkpt lat="47.45771" lon="-0.60707">
        <ele>56</ele>
        <time>2015-07-07T08:57:30.000Z</time>
      </trkpt>
      <trkpt lat="47.45769" lon="-0.60709">
        <ele>56</ele>
        <time>2015-07-07T08:57:31.000Z</time>
      </trkpt>
      <trkpt lat="47.45766" lon="-0.60711">
        <ele>56</ele>
        <time>2015-07-07T08:57:32.000Z</time>
      </trkpt>
      <trkpt lat="47.45764" lon="-0.60714">
        <ele>55</ele>
        <time>2015-07-07T08:57:33.000Z</time>
      </trkpt>
      <trkpt lat="47.45761" lon="-0.60718">
        <ele>54</ele>
        <time>2015-07-07T08:57:34.000Z</time>
      </trkpt>
      <trkpt lat="47.45759" lon="-0.6072">
        <ele>54</ele>
        <time>2015-07-07T08:57:35.000Z</time>
      </trkpt>
      <trkpt lat="47.45756" lon="-0.60723">
        <ele>54</ele>
        <time>2015-07-07T08:57:36.000Z</time>
      </trkpt>
      <trkpt lat="47.45754" lon="-0.60725">
        <ele>53</ele>
        <time>2015-07-07T08:57:37.000Z</time>
      </trkpt>
      <trkpt lat="47.45752" lon="-0.60727">
        <ele>53</ele>
        <time>2015-07-07T08:57:38.000Z</time>
      </trkpt>
      <trkpt lat="47.4575" lon="-0.60729">
        <ele>52</ele>
        <time>2015-07-07T08:57:39.000Z</time>
      </trkpt>
      <trkpt lat="47.45748" lon="-0.60731">
        <ele>52</ele>
        <time>2015-07-07T08:57:40.000Z</time>
      </trkpt>
      <trkpt lat="47.45746" lon="-0.60734">
        <ele>53</ele>
        <time>2015-07-07T08:57:41.000Z</time>
      </trkpt>
      <trkpt lat="47.45743" lon="-0.60737">
        <ele>53</ele>
        <time>2015-07-07T08:57:42.000Z</time>
      </trkpt>
      <trkpt lat="47.4574" lon="-0.6074">
        <ele>53</ele>
        <time>2015-07-07T08:57:43.000Z</time>
      </trkpt>
      <trkpt lat="47.45738" lon="-0.60742">
        <ele>53</ele>
        <time>2015-07-07T08:57:44.000Z</time>
      </trkpt>
      <trkpt lat="47.45736" lon="-0.60745">
        <ele>53</ele>
        <time>2015-07-07T08:57:45.000Z</time>
      </trkpt>
      <trkpt lat="47.45734" lon="-0.60747">
        <ele>54</ele>
        <time>2015-07-07T08:57:46.000Z</time>
      </trkpt>
      <trkpt lat="47.45732" lon="-0.60749">
        <ele>53</ele>
        <time>2015-07-07T08:57:47.000Z</time>
      </trkpt>
      <trkpt lat="47.4573" lon="-0.60752">
        <ele>52</ele>
        <time>2015-07-07T08:57:48.000Z</time>
      </trkpt>
      <trkpt lat="47.45728" lon="-0.60754">
        <ele>52</ele>
        <time>2015-07-07T08:57:49.000Z</time>
      </trkpt>
      <trkpt lat="47.45726" lon="-0.60757">
        <ele>51</ele>
        <time>2015-07-07T08:57:50.000Z</time>
      </trkpt>
      <trkpt lat="47.45724" lon="-0.60759">
        <ele>51</ele>
        <time>2015-07-07T08:57:51.000Z</time>
      </trkpt>
      <trkpt lat="47.45722" lon="-0.60762">
        <ele>50</ele>
        <time>2015-07-07T08:57:52.000Z</time>
      </trkpt>
      <trkpt lat="47.4572" lon="-0.60765">
        <ele>50</ele>
        <time>2015-07-07T08:57:53.000Z</time>
      </trkpt>
      <trkpt lat="47.45718" lon="-0.60769">
        <ele>49</ele>
        <time>2015-07-07T08:57:54.000Z</time>
      </trkpt>
      <trkpt lat="47.45716" lon="-0.60772">
        <ele>48</ele>
        <time>2015-07-07T08:57:55.000Z</time>
      </trkpt>
      <trkpt lat="47.45714" lon="-0.60775">
        <ele>47</ele>
        <time>2015-07-07T08:57:56.000Z</time>
      </trkpt>
      <trkpt lat="47.45713" lon="-0.60779">
        <ele>47</ele>
        <time>2015-07-07T08:57:57.000Z</time>
      </trkpt>
      <trkpt lat="47.45711" lon="-0.60782">
        <ele>47</ele>
        <time>2015-07-07T08:57:58.000Z</time>
      </trkpt>
      <trkpt lat="47.4571" lon="-0.60785">
        <ele>47</ele>
        <time>2015-07-07T08:57:59.000Z</time>
      </trkpt>
      <trkpt lat="47.45708" lon="-0.60788">
        <ele>47</ele>
        <time>2015-07-07T08:58:00.000Z</time>
      </trkpt>
      <trkpt lat="47.45706" lon="-0.60791">
        <ele>46</ele>
        <time>2015-07-07T08:58:01.000Z</time>
      </trkpt>
      <trkpt lat="47.45704" lon="-0.60795">
        <ele>46</ele>
        <time>2015-07-07T08:58:02.000Z</time>
      </trkpt>
      <trkpt lat="47.45703" lon="-0.60798">
        <ele>46</ele>
        <time>2015-07-07T08:58:03.000Z</time>
      </trkpt>
      <trkpt lat="47.45701" lon="-0.60801">
        <ele>46</ele>
        <time>2015-07-07T08:58:04.000Z</time>
      </trkpt>
      <trkpt lat="47.457" lon="-0.60804">
        <ele>45</ele>
        <time>2015-07-07T08:58:05.000Z</time>
      </trkpt>
      <trkpt lat="47.45698" lon="-0.60807">
        <ele>45</ele>
        <time>2015-07-07T08:58:06.000Z</time>
      </trkpt>
      <trkpt lat="47.45697" lon="-0.6081">
        <ele>45</ele>
        <time>2015-07-07T08:58:07.000Z</time>
      </trkpt>
      <trkpt lat="47.45695" lon="-0.60813">
        <ele>45</ele>
        <time>2015-07-07T08:58:08.000Z</time>
      </trkpt>
      <trkpt lat="47.45693" lon="-0.60816">
        <ele>45</ele>
        <time>2015-07-07T08:58:09.000Z</time>
      </trkpt>
      <trkpt lat="47.45692" lon="-0.6082">
        <ele>44</ele>
        <time>2015-07-07T08:58:10.000Z</time>
      </trkpt>
      <trkpt lat="47.45691" lon="-0.60823">
        <ele>44</ele>
        <time>2015-07-07T08:58:11.000Z</time>
      </trkpt>
      <trkpt lat="47.45689" lon="-0.60826">
        <ele>43</ele>
        <time>2015-07-07T08:58:12.000Z</time>
      </trkpt>
      <trkpt lat="47.45688" lon="-0.6083">
        <ele>43</ele>
        <time>2015-07-07T08:58:13.000Z</time>
      </trkpt>
      <trkpt lat="47.45687" lon="-0.60834">
        <ele>43</ele>
        <time>2015-07-07T08:58:14.000Z</time>
      </trkpt>
      <trkpt lat="47.45686" lon="-0.60837">
        <ele>43</ele>
        <time>2015-07-07T08:58:15.000Z</time>
      </trkpt>
      <trkpt lat="47.45684" lon="-0.60841">
        <ele>42</ele>
        <time>2015-07-07T08:58:16.000Z</time>
      </trkpt>
      <trkpt lat="47.45682" lon="-0.60844">
        <ele>41</ele>
        <time>2015-07-07T08:58:17.000Z</time>
      </trkpt>
      <trkpt lat="47.4568" lon="-0.60846">
        <ele>40</ele>
        <time>2015-07-07T08:58:18.000Z</time>
      </trkpt>
      <trkpt lat="47.45678" lon="-0.60847">
        <ele>41</ele>
        <time>2015-07-07T08:58:19.000Z</time>
      </trkpt>
      <trkpt lat="47.45676" lon="-0.60847">
        <ele>41</ele>
        <time>2015-07-07T08:58:20.000Z</time>
      </trkpt>
      <trkpt lat="47.45675" lon="-0.60846">
        <ele>41</ele>
        <time>2015-07-07T08:58:21.000Z</time>
      </trkpt>
      <trkpt lat="47.45673" lon="-0.60844">
        <ele>42</ele>
        <time>2015-07-07T08:58:22.000Z</time>
      </trkpt>
      <trkpt lat="47.45672" lon="-0.60842">
        <ele>43</ele>
        <time>2015-07-07T08:58:23.000Z</time>
      </trkpt>
      <trkpt lat="47.4567" lon="-0.60839">
        <ele>43</ele>
        <time>2015-07-07T08:58:24.000Z</time>
      </trkpt>
      <trkpt lat="47.45668" lon="-0.60837">
        <ele>44</ele>
        <time>2015-07-07T08:58:25.000Z</time>
      </trkpt>
      <trkpt lat="47.45665" lon="-0.60834">
        <ele>45</ele>
        <time>2015-07-07T08:58:26.000Z</time>
      </trkpt>
      <trkpt lat="47.45663" lon="-0.60831">
        <ele>45</ele>
        <time>2015-07-07T08:58:27.000Z</time>
      </trkpt>
      <trkpt lat="47.45661" lon="-0.60828">
        <ele>45</ele>
        <time>2015-07-07T08:58:28.000Z</time>
      </trkpt>
      <trkpt lat="47.4566" lon="-0.60825">
        <ele>45</ele>
        <time>2015-07-07T08:58:29.000Z</time>
      </trkpt>
      <trkpt lat="47.45658" lon="-0.60823">
        <ele>45</ele>
        <time>2015-07-07T08:58:30.000Z</time>
      </trkpt>
      <trkpt lat="47.45656" lon="-0.6082">
        <ele>45</ele>
        <time>2015-07-07T08:58:31.000Z</time>
      </trkpt>
      <trkpt lat="47.45654" lon="-0.60817">
        <ele>45</ele>
        <time>2015-07-07T08:58:32.000Z</time>
      </trkpt>
      <trkpt lat="47.45653" lon="-0.60815">
        <ele>46</ele>
        <time>2015-07-07T08:58:33.000Z</time>
      </trkpt>
      <trkpt lat="47.45651" lon="-0.60812">
        <ele>45</ele>
        <time>2015-07-07T08:58:34.000Z</time>
      </trkpt>
      <trkpt lat="47.4565" lon="-0.60809">
        <ele>46</ele>
        <time>2015-07-07T08:58:35.000Z</time>
      </trkpt>
      <trkpt lat="47.45648" lon="-0.60807">
        <ele>47</ele>
        <time>2015-07-07T08:58:36.000Z</time>
      </trkpt>
      <trkpt lat="47.45646" lon="-0.60804">
        <ele>48</ele>
        <time>2015-07-07T08:58:37.000Z</time>
      </trkpt>
      <trkpt lat="47.45644" lon="-0.60802">
        <ele>48</ele>
        <time>2015-07-07T08:58:38.000Z</time>
      </trkpt>
      <trkpt lat="47.45642" lon="-0.60799">
        <ele>48</ele>
        <time>2015-07-07T08:58:39.000Z</time>
      </trkpt>
      <trkpt lat="47.4564" lon="-0.60796">
        <ele>47</ele>
        <time>2015-07-07T08:58:40.000Z</time>
      </trkpt>
      <trkpt lat="47.45639" lon="-0.60793">
        <ele>47</ele>
        <time>2015-07-07T08:58:41.000Z</time>
      </trkpt>
      <trkpt lat="47.45638" lon="-0.60789">
        <ele>44</ele>
        <time>2015-07-07T08:58:42.000Z</time>
      </trkpt>
      <trkpt lat="47.45636" lon="-0.60785">
        <ele>45</ele>
        <time>2015-07-07T08:58:43.000Z</time>
      </trkpt>
      <trkpt lat="47.45635" lon="-0.60781">
        <ele>45</ele>
        <time>2015-07-07T08:58:44.000Z</time>
      </trkpt>
      <trkpt lat="47.45633" lon="-0.60778">
        <ele>44</ele>
        <time>2015-07-07T08:58:45.000Z</time>
      </trkpt>
      <trkpt lat="47.45631" lon="-0.60774">
        <ele>43</ele>
        <time>2015-07-07T08:58:46.000Z</time>
      </trkpt>
      <trkpt lat="47.4563" lon="-0.6077">
        <ele>43</ele>
        <time>2015-07-07T08:58:47.000Z</time>
      </trkpt>
      <trkpt lat="47.45628" lon="-0.60766">
        <ele>43</ele>
        <time>2015-07-07T08:58:48.000Z</time>
      </trkpt>
      <trkpt lat="47.45627" lon="-0.60763">
        <ele>43</ele>
        <time>2015-07-07T08:58:49.000Z</time>
      </trkpt>
      <trkpt lat="47.45626" lon="-0.6076">
        <ele>43</ele>
        <time>2015-07-07T08:58:50.000Z</time>
      </trkpt>
      <trkpt lat="47.45624" lon="-0.60756">
        <ele>42</ele>
        <time>2015-07-07T08:58:51.000Z</time>
      </trkpt>
      <trkpt lat="47.45622" lon="-0.60753">
        <ele>41</ele>
        <time>2015-07-07T08:58:52.000Z</time>
      </trkpt>
      <trkpt lat="47.4562" lon="-0.60749">
        <ele>40</ele>
        <time>2015-07-07T08:58:53.000Z</time>
      </trkpt>
      <trkpt lat="47.45618" lon="-0.60746">
        <ele>40</ele>
        <time>2015-07-07T08:58:54.000Z</time>
      </trkpt>
      <trkpt lat="47.45617" lon="-0.60743">
        <ele>39</ele>
        <time>2015-07-07T08:58:55.000Z</time>
      </trkpt>
      <trkpt lat="47.45615" lon="-0.60739">
        <ele>39</ele>
        <time>2015-07-07T08:58:56.000Z</time>
      </trkpt>
      <trkpt lat="47.45613" lon="-0.60736">
        <ele>39</ele>
        <time>2015-07-07T08:58:57.000Z</time>
      </trkpt>
      <trkpt lat="47.45612" lon="-0.60732">
        <ele>38</ele>
        <time>2015-07-07T08:58:58.000Z</time>
      </trkpt>
      <trkpt lat="47.4561" lon="-0.60729">
        <ele>38</ele>
        <time>2015-07-07T08:58:59.000Z</time>
      </trkpt>
      <trkpt lat="47.45608" lon="-0.60726">
        <ele>38</ele>
        <time>2015-07-07T08:59:00.000Z</time>
      </trkpt>
      <trkpt lat="47.45606" lon="-0.60722">
        <ele>37</ele>
        <time>2015-07-07T08:59:01.000Z</time>
      </trkpt>
      <trkpt lat="47.45604" lon="-0.60719">
        <ele>37</ele>
        <time>2015-07-07T08:59:02.000Z</time>
      </trkpt>
      <trkpt lat="47.45602" lon="-0.60715">
        <ele>37</ele>
        <time>2015-07-07T08:59:03.000Z</time>
      </trkpt>
      <trkpt lat="47.456" lon="-0.60712">
        <ele>37</ele>
        <time>2015-07-07T08:59:04.000Z</time>
      </trkpt>
      <trkpt lat="47.45599" lon="-0.60709">
        <ele>37</ele>
        <time>2015-07-07T08:59:05.000Z</time>
      </trkpt>
      <trkpt lat="47.45597" lon="-0.60706">
        <ele>38</ele>
        <time>2015-07-07T08:59:06.000Z</time>
      </trkpt>
      <trkpt lat="47.45596" lon="-0.60703">
        <ele>38</ele>
        <time>2015-07-07T08:59:07.000Z</time>
      </trkpt>
      <trkpt lat="47.45595" lon="-0.607">
        <ele>37</ele>
        <time>2015-07-07T08:59:08.000Z</time>
      </trkpt>
      <trkpt lat="47.45594" lon="-0.60696">
        <ele>37</ele>
        <time>2015-07-07T08:59:09.000Z</time>
      </trkpt>
      <trkpt lat="47.45592" lon="-0.60691">
        <ele>37</ele>
        <time>2015-07-07T08:59:10.000Z</time>
      </trkpt>
      <trkpt lat="47.45591" lon="-0.60686">
        <ele>36</ele>
        <time>2015-07-07T08:59:11.000Z</time>
      </trkpt>
      <trkpt lat="47.45591" lon="-0.60681">
        <ele>35</ele>
        <time>2015-07-07T08:59:12.000Z</time>
      </trkpt>
      <trkpt lat="47.4559" lon="-0.60675">
        <ele>34</ele>
        <time>2015-07-07T08:59:13.000Z</time>
      </trkpt>
      <trkpt lat="47.4559" lon="-0.60669">
        <ele>34</ele>
        <time>2015-07-07T08:59:14.000Z</time>
      </trkpt>
      <trkpt lat="47.45589" lon="-0.60664">
        <ele>34</ele>
        <time>2015-07-07T08:59:15.000Z</time>
      </trkpt>
      <trkpt lat="47.45588" lon="-0.60659">
        <ele>34</ele>
        <time>2015-07-07T08:59:16.000Z</time>
      </trkpt>
      <trkpt lat="47.45588" lon="-0.60654">
        <ele>33</ele>
        <time>2015-07-07T08:59:17.000Z</time>
      </trkpt>
      <trkpt lat="47.45587" lon="-0.60649">
        <ele>34</ele>
        <time>2015-07-07T08:59:18.000Z</time>
      </trkpt>
      <trkpt lat="47.45587" lon="-0.60645">
        <ele>33</ele>
        <time>2015-07-07T08:59:19.000Z</time>
      </trkpt>
      <trkpt lat="47.45587" lon="-0.6064">
        <ele>33</ele>
        <time>2015-07-07T08:59:20.000Z</time>
      </trkpt>
      <trkpt lat="47.45586" lon="-0.60636">
        <ele>33</ele>
        <time>2015-07-07T08:59:21.000Z</time>
      </trkpt>
      <trkpt lat="47.45586" lon="-0.60631">
        <ele>33</ele>
        <time>2015-07-07T08:59:22.000Z</time>
      </trkpt>
      <trkpt lat="47.45586" lon="-0.60626">
        <ele>31</ele>
        <time>2015-07-07T08:59:23.000Z</time>
      </trkpt>
      <trkpt lat="47.45586" lon="-0.60622">
        <ele>31</ele>
        <time>2015-07-07T08:59:24.000Z</time>
      </trkpt>
      <trkpt lat="47.45586" lon="-0.60617">
        <ele>31</ele>
        <time>2015-07-07T08:59:25.000Z</time>
      </trkpt>
      <trkpt lat="47.45586" lon="-0.60612">
        <ele>31</ele>
        <time>2015-07-07T08:59:26.000Z</time>
      </trkpt>
      <trkpt lat="47.45586" lon="-0.60608">
        <ele>31</ele>
        <time>2015-07-07T08:59:27.000Z</time>
      </trkpt>
      <trkpt lat="47.45586" lon="-0.60603">
        <ele>32</ele>
        <time>2015-07-07T08:59:28.000Z</time>
      </trkpt>
      <trkpt lat="47.45586" lon="-0.60599">
        <ele>32</ele>
        <time>2015-07-07T08:59:29.000Z</time>
      </trkpt>
      <trkpt lat="47.45586" lon="-0.60595">
        <ele>32</ele>
        <time>2015-07-07T08:59:30.000Z</time>
      </trkpt>
      <trkpt lat="47.45586" lon="-0.60591">
        <ele>32</ele>
        <time>2015-07-07T08:59:31.000Z</time>
      </trkpt>
      <trkpt lat="47.45586" lon="-0.60587">
        <ele>32</ele>
        <time>2015-07-07T08:59:32.000Z</time>
      </trkpt>
      <trkpt lat="47.45586" lon="-0.60582">
        <ele>33</ele>
        <time>2015-07-07T08:59:33.000Z</time>
      </trkpt>
      <trkpt lat="47.45587" lon="-0.60578">
        <ele>32</ele>
        <time>2015-07-07T08:59:34.000Z</time>
      </trkpt>
      <trkpt lat="47.45588" lon="-0.60574">
        <ele>32</ele>
        <time>2015-07-07T08:59:35.000Z</time>
      </trkpt>
      <trkpt lat="47.45588" lon="-0.6057">
        <ele>32</ele>
        <time>2015-07-07T08:59:36.000Z</time>
      </trkpt>
      <trkpt lat="47.45589" lon="-0.60566">
        <ele>31</ele>
        <time>2015-07-07T08:59:37.000Z</time>
      </trkpt>
      <trkpt lat="47.45589" lon="-0.60562">
        <ele>31</ele>
        <time>2015-07-07T08:59:38.000Z</time>
      </trkpt>
      <trkpt lat="47.4559" lon="-0.60558">
        <ele>31</ele>
        <time>2015-07-07T08:59:39.000Z</time>
      </trkpt>
      <trkpt lat="47.45591" lon="-0.60553">
        <ele>31</ele>
        <time>2015-07-07T08:59:40.000Z</time>
      </trkpt>
      <trkpt lat="47.45591" lon="-0.60549">
        <ele>31</ele>
        <time>2015-07-07T08:59:41.000Z</time>
      </trkpt>
      <trkpt lat="47.45592" lon="-0.60544">
        <ele>30</ele>
        <time>2015-07-07T08:59:42.000Z</time>
      </trkpt>
      <trkpt lat="47.45593" lon="-0.6054">
        <ele>30</ele>
        <time>2015-07-07T08:59:43.000Z</time>
      </trkpt>
      <trkpt lat="47.45594" lon="-0.60536">
        <ele>30</ele>
        <time>2015-07-07T08:59:44.000Z</time>
      </trkpt>
      <trkpt lat="47.45595" lon="-0.60532">
        <ele>30</ele>
        <time>2015-07-07T08:59:45.000Z</time>
      </trkpt>
      <trkpt lat="47.45596" lon="-0.60527">
        <ele>30</ele>
        <time>2015-07-07T08:59:46.000Z</time>
      </trkpt>
      <trkpt lat="47.45597" lon="-0.60523">
        <ele>30</ele>
        <time>2015-07-07T08:59:47.000Z</time>
      </trkpt>
      <trkpt lat="47.45599" lon="-0.6052">
        <ele>29</ele>
        <time>2015-07-07T08:59:48.000Z</time>
      </trkpt>
      <trkpt lat="47.456" lon="-0.60516">
        <ele>29</ele>
        <time>2015-07-07T08:59:49.000Z</time>
      </trkpt>
      <trkpt lat="47.45601" lon="-0.60511">
        <ele>30</ele>
        <time>2015-07-07T08:59:50.000Z</time>
      </trkpt>
      <trkpt lat="47.45601" lon="-0.60507">
        <ele>30</ele>
        <time>2015-07-07T08:59:51.000Z</time>
      </trkpt>
      <trkpt lat="47.45602" lon="-0.60503">
        <ele>30</ele>
        <time>2015-07-07T08:59:52.000Z</time>
      </trkpt>
      <trkpt lat="47.45603" lon="-0.605">
        <ele>29</ele>
        <time>2015-07-07T08:59:53.000Z</time>
      </trkpt>
      <trkpt lat="47.45604" lon="-0.60496">
        <ele>28</ele>
        <time>2015-07-07T08:59:54.000Z</time>
      </trkpt>
      <trkpt lat="47.45604" lon="-0.60492">
        <ele>27</ele>
        <time>2015-07-07T08:59:55.000Z</time>
      </trkpt>
      <trkpt lat="47.45604" lon="-0.60488">
        <ele>26</ele>
        <time>2015-07-07T08:59:56.000Z</time>
      </trkpt>
      <trkpt lat="47.45604" lon="-0.60484">
        <ele>26</ele>
        <time>2015-07-07T08:59:57.000Z</time>
      </trkpt>
      <trkpt lat="47.45603" lon="-0.6048">
        <ele>26</ele>
        <time>2015-07-07T08:59:58.000Z</time>
      </trkpt>
      <trkpt lat="47.45604" lon="-0.60475">
        <ele>26</ele>
        <time>2015-07-07T08:59:59.000Z</time>
      </trkpt>
      <trkpt lat="47.45604" lon="-0.60471">
        <ele>25</ele>
        <time>2015-07-07T09:00:00.000Z</time>
      </trkpt>
      <trkpt lat="47.45604" lon="-0.60467">
        <ele>26</ele>
        <time>2015-07-07T09:00:01.000Z</time>
      </trkpt>
      <trkpt lat="47.45604" lon="-0.60463">
        <ele>26</ele>
        <time>2015-07-07T09:00:02.000Z</time>
      </trkpt>
      <trkpt lat="47.45605" lon="-0.60459">
        <ele>26</ele>
        <time>2015-07-07T09:00:03.000Z</time>
      </trkpt>
      <trkpt lat="47.45605" lon="-0.60455">
        <ele>26</ele>
        <time>2015-07-07T09:00:04.000Z</time>
      </trkpt>
      <trkpt lat="47.45605" lon="-0.60452">
        <ele>26</ele>
        <time>2015-07-07T09:00:05.000Z</time>
      </trkpt>
      <trkpt lat="47.45606" lon="-0.60448">
        <ele>27</ele>
        <time>2015-07-07T09:00:06.000Z</time>
      </trkpt>
      <trkpt lat="47.45606" lon="-0.60445">
        <ele>28</ele>
        <time>2015-07-07T09:00:07.000Z</time>
      </trkpt>
      <trkpt lat="47.45606" lon="-0.60442">
        <ele>29</ele>
        <time>2015-07-07T09:00:08.000Z</time>
      </trkpt>
      <trkpt lat="47.45606" lon="-0.60438">
        <ele>30</ele>
        <time>2015-07-07T09:00:09.000Z</time>
      </trkpt>
      <trkpt lat="47.45605" lon="-0.60435">
        <ele>30</ele>
        <time>2015-07-07T09:00:10.000Z</time>
      </trkpt>
      <trkpt lat="47.45605" lon="-0.60432">
        <ele>30</ele>
        <time>2015-07-07T09:00:11.000Z</time>
      </trkpt>
      <trkpt lat="47.45604" lon="-0.60429">
        <ele>30</ele>
        <time>2015-07-07T09:00:12.000Z</time>
      </trkpt>
      <trkpt lat="47.45604" lon="-0.60425">
        <ele>31</ele>
        <time>2015-07-07T09:00:13.000Z</time>
      </trkpt>
      <trkpt lat="47.45603" lon="-0.60422">
        <ele>30</ele>
        <time>2015-07-07T09:00:14.000Z</time>
      </trkpt>
      <trkpt lat="47.45602" lon="-0.60418">
        <ele>30</ele>
        <time>2015-07-07T09:00:15.000Z</time>
      </trkpt>
      <trkpt lat="47.45601" lon="-0.60415">
        <ele>30</ele>
        <time>2015-07-07T09:00:16.000Z</time>
      </trkpt>
      <trkpt lat="47.45601" lon="-0.60411">
        <ele>31</ele>
        <time>2015-07-07T09:00:17.000Z</time>
      </trkpt>
      <trkpt lat="47.45601" lon="-0.60408">
        <ele>30</ele>
        <time>2015-07-07T09:00:18.000Z</time>
      </trkpt>
      <trkpt lat="47.456" lon="-0.60405">
        <ele>29</ele>
        <time>2015-07-07T09:00:19.000Z</time>
      </trkpt>
      <trkpt lat="47.456" lon="-0.60402">
        <ele>30</ele>
        <time>2015-07-07T09:00:20.000Z</time>
      </trkpt>
      <trkpt lat="47.45599" lon="-0.60398">
        <ele>31</ele>
        <time>2015-07-07T09:00:21.000Z</time>
      </trkpt>
      <trkpt lat="47.45598" lon="-0.60395">
        <ele>32</ele>
        <time>2015-07-07T09:00:22.000Z</time>
      </trkpt>
      <trkpt lat="47.45598" lon="-0.60391">
        <ele>33</ele>
        <time>2015-07-07T09:00:23.000Z</time>
      </trkpt>
      <trkpt lat="47.45598" lon="-0.60388">
        <ele>34</ele>
        <time>2015-07-07T09:00:24.000Z</time>
      </trkpt>
      <trkpt lat="47.45597" lon="-0.60385">
        <ele>34</ele>
        <time>2015-07-07T09:00:25.000Z</time>
      </trkpt>
      <trkpt lat="47.45597" lon="-0.60381">
        <ele>34</ele>
        <time>2015-07-07T09:00:26.000Z</time>
      </trkpt>
      <trkpt lat="47.45596" lon="-0.60378">
        <ele>33</ele>
        <time>2015-07-07T09:00:27.000Z</time>
      </trkpt>
      <trkpt lat="47.45596" lon="-0.60374">
        <ele>33</ele>
        <time>2015-07-07T09:00:28.000Z</time>
      </trkpt>
      <trkpt lat="47.45595" lon="-0.60371">
        <ele>33</ele>
        <time>2015-07-07T09:00:29.000Z</time>
      </trkpt>
      <trkpt lat="47.45595" lon="-0.60367">
        <ele>31</ele>
        <time>2015-07-07T09:00:30.000Z</time>
      </trkpt>
      <trkpt lat="47.45594" lon="-0.60364">
        <ele>30</ele>
        <time>2015-07-07T09:00:31.000Z</time>
      </trkpt>
      <trkpt lat="47.45594" lon="-0.6036">
        <ele>29</ele>
        <time>2015-07-07T09:00:32.000Z</time>
      </trkpt>
      <trkpt lat="47.45593" lon="-0.60356">
        <ele>29</ele>
        <time>2015-07-07T09:00:33.000Z</time>
      </trkpt>
      <trkpt lat="47.45593" lon="-0.60352">
        <ele>29</ele>
        <time>2015-07-07T09:00:34.000Z</time>
      </trkpt>
      <trkpt lat="47.45593" lon="-0.60349">
        <ele>28</ele>
        <time>2015-07-07T09:00:35.000Z</time>
      </trkpt>
      <trkpt lat="47.45593" lon="-0.60345">
        <ele>29</ele>
        <time>2015-07-07T09:00:36.000Z</time>
      </trkpt>
      <trkpt lat="47.45593" lon="-0.60341">
        <ele>29</ele>
        <time>2015-07-07T09:00:37.000Z</time>
      </trkpt>
      <trkpt lat="47.45593" lon="-0.60338">
        <ele>29</ele>
        <time>2015-07-07T09:00:38.000Z</time>
      </trkpt>
      <trkpt lat="47.45593" lon="-0.60335">
        <ele>29</ele>
        <time>2015-07-07T09:00:39.000Z</time>
      </trkpt>
      <trkpt lat="47.45593" lon="-0.60332">
        <ele>29</ele>
        <time>2015-07-07T09:00:40.000Z</time>
      </trkpt>
      <trkpt lat="47.45593" lon="-0.60329">
        <ele>29</ele>
        <time>2015-07-07T09:00:41.000Z</time>
      </trkpt>
      <trkpt lat="47.45593" lon="-0.60326">
        <ele>29</ele>
        <time>2015-07-07T09:00:42.000Z</time>
      </trkpt>
      <trkpt lat="47.45592" lon="-0.60322">
        <ele>28</ele>
        <time>2015-07-07T09:00:43.000Z</time>
      </trkpt>
      <trkpt lat="47.45592" lon="-0.60317">
        <ele>29</ele>
        <time>2015-07-07T09:00:44.000Z</time>
      </trkpt>
      <trkpt lat="47.45591" lon="-0.60313">
        <ele>30</ele>
        <time>2015-07-07T09:00:45.000Z</time>
      </trkpt>
      <trkpt lat="47.45589" lon="-0.60309">
        <ele>31</ele>
        <time>2015-07-07T09:00:46.000Z</time>
      </trkpt>
      <trkpt lat="47.45588" lon="-0.60304">
        <ele>32</ele>
        <time>2015-07-07T09:00:47.000Z</time>
      </trkpt>
      <trkpt lat="47.45585" lon="-0.60299">
        <ele>31</ele>
        <time>2015-07-07T09:00:48.000Z</time>
      </trkpt>
      <trkpt lat="47.45583" lon="-0.60295">
        <ele>31</ele>
        <time>2015-07-07T09:00:49.000Z</time>
      </trkpt>
      <trkpt lat="47.45581" lon="-0.60291">
        <ele>29</ele>
        <time>2015-07-07T09:00:50.000Z</time>
      </trkpt>
      <trkpt lat="47.45579" lon="-0.60287">
        <ele>28</ele>
        <time>2015-07-07T09:00:51.000Z</time>
      </trkpt>
      <trkpt lat="47.45576" lon="-0.60283">
        <ele>27</ele>
        <time>2015-07-07T09:00:52.000Z</time>
      </trkpt>
      <trkpt lat="47.45574" lon="-0.60279">
        <ele>27</ele>
        <time>2015-07-07T09:00:53.000Z</time>
      </trkpt>
      <trkpt lat="47.45572" lon="-0.60276">
        <ele>26</ele>
        <time>2015-07-07T09:00:54.000Z</time>
      </trkpt>
      <trkpt lat="47.4557" lon="-0.60273">
        <ele>25</ele>
        <time>2015-07-07T09:00:55.000Z</time>
      </trkpt>
      <trkpt lat="47.45568" lon="-0.6027">
        <ele>25</ele>
        <time>2015-07-07T09:00:56.000Z</time>
      </trkpt>
      <trkpt lat="47.45566" lon="-0.60266">
        <ele>25</ele>
        <time>2015-07-07T09:00:57.000Z</time>
      </trkpt>
      <trkpt lat="47.45563" lon="-0.60263">
        <ele>24</ele>
        <time>2015-07-07T09:00:58.000Z</time>
      </trkpt>
      <trkpt lat="47.45561" lon="-0.60259">
        <ele>24</ele>
        <time>2015-07-07T09:00:59.000Z</time>
      </trkpt>
      <trkpt lat="47.45559" lon="-0.60255">
        <ele>24</ele>
        <time>2015-07-07T09:01:00.000Z</time>
      </trkpt>
      <trkpt lat="47.45557" lon="-0.60252">
        <ele>24</ele>
        <time>2015-07-07T09:01:01.000Z</time>
      </trkpt>
      <trkpt lat="47.45555" lon="-0.60248">
        <ele>22</ele>
        <time>2015-07-07T09:01:02.000Z</time>
      </trkpt>
      <trkpt lat="47.45553" lon="-0.60245">
        <ele>22</ele>
        <time>2015-07-07T09:01:03.000Z</time>
      </trkpt>
      <trkpt lat="47.45551" lon="-0.60243">
        <ele>22</ele>
        <time>2015-07-07T09:01:04.000Z</time>
      </trkpt>
      <trkpt lat="47.4555" lon="-0.6024">
        <ele>21</ele>
        <time>2015-07-07T09:01:05.000Z</time>
      </trkpt>
      <trkpt lat="47.45548" lon="-0.60238">
        <ele>20</ele>
        <time>2015-07-07T09:01:06.000Z</time>
      </trkpt>
      <trkpt lat="47.45547" lon="-0.60236">
        <ele>19</ele>
        <time>2015-07-07T09:01:07.000Z</time>
      </trkpt>
      <trkpt lat="47.45545" lon="-0.60234">
        <ele>19</ele>
        <time>2015-07-07T09:01:08.000Z</time>
      </trkpt>
      <trkpt lat="47.45543" lon="-0.6023">
        <ele>20</ele>
        <time>2015-07-07T09:01:09.000Z</time>
      </trkpt>
      <trkpt lat="47.45541" lon="-0.60226">
        <ele>20</ele>
        <time>2015-07-07T09:01:10.000Z</time>
      </trkpt>
      <trkpt lat="47.45539" lon="-0.60221">
        <ele>20</ele>
        <time>2015-07-07T09:01:11.000Z</time>
      </trkpt>
      <trkpt lat="47.45538" lon="-0.60217">
        <ele>20</ele>
        <time>2015-07-07T09:01:12.000Z</time>
      </trkpt>
      <trkpt lat="47.45538" lon="-0.60211">
        <ele>20</ele>
        <time>2015-07-07T09:01:13.000Z</time>
      </trkpt>
      <trkpt lat="47.45537" lon="-0.60207">
        <ele>20</ele>
        <time>2015-07-07T09:01:14.000Z</time>
      </trkpt>
      <trkpt lat="47.45538" lon="-0.60202">
        <ele>20</ele>
        <time>2015-07-07T09:01:15.000Z</time>
      </trkpt>
      <trkpt lat="47.45537" lon="-0.60197">
        <ele>21</ele>
        <time>2015-07-07T09:01:16.000Z</time>
      </trkpt>
      <trkpt lat="47.45536" lon="-0.60192">
        <ele>21</ele>
        <time>2015-07-07T09:01:17.000Z</time>
      </trkpt>
      <trkpt lat="47.45535" lon="-0.60187">
        <ele>21</ele>
        <time>2015-07-07T09:01:18.000Z</time>
      </trkpt>
      <trkpt lat="47.45534" lon="-0.60182">
        <ele>21</ele>
        <time>2015-07-07T09:01:19.000Z</time>
      </trkpt>
      <trkpt lat="47.45533" lon="-0.60178">
        <ele>20</ele>
        <time>2015-07-07T09:01:20.000Z</time>
      </trkpt>
      <trkpt lat="47.45532" lon="-0.60174">
        <ele>20</ele>
        <time>2015-07-07T09:01:21.000Z</time>
      </trkpt>
      <trkpt lat="47.4553" lon="-0.6017">
        <ele>21</ele>
        <time>2015-07-07T09:01:22.000Z</time>
      </trkpt>
      <trkpt lat="47.45529" lon="-0.60165">
        <ele>22</ele>
        <time>2015-07-07T09:01:23.000Z</time>
      </trkpt>
      <trkpt lat="47.45528" lon="-0.6016">
        <ele>23</ele>
        <time>2015-07-07T09:01:24.000Z</time>
      </trkpt>
      <trkpt lat="47.45527" lon="-0.60156">
        <ele>25</ele>
        <time>2015-07-07T09:01:25.000Z</time>
      </trkpt>
      <trkpt lat="47.45527" lon="-0.60151">
        <ele>26</ele>
        <time>2015-07-07T09:01:26.000Z</time>
      </trkpt>
      <trkpt lat="47.45526" lon="-0.60147">
        <ele>27</ele>
        <time>2015-07-07T09:01:27.000Z</time>
      </trkpt>
      <trkpt lat="47.45525" lon="-0.60142">
        <ele>27</ele>
        <time>2015-07-07T09:01:28.000Z</time>
      </trkpt>
      <trkpt lat="47.45524" lon="-0.60137">
        <ele>28</ele>
        <time>2015-07-07T09:01:29.000Z</time>
      </trkpt>
      <trkpt lat="47.45523" lon="-0.60133">
        <ele>29</ele>
        <time>2015-07-07T09:01:30.000Z</time>
      </trkpt>
      <trkpt lat="47.45522" lon="-0.60129">
        <ele>29</ele>
        <time>2015-07-07T09:01:31.000Z</time>
      </trkpt>
      <trkpt lat="47.45521" lon="-0.60126">
        <ele>29</ele>
        <time>2015-07-07T09:01:32.000Z</time>
      </trkpt>
      <trkpt lat="47.45519" lon="-0.60123">
        <ele>29</ele>
        <time>2015-07-07T09:01:33.000Z</time>
      </trkpt>
      <trkpt lat="47.45516" lon="-0.60121">
        <ele>28</ele>
        <time>2015-07-07T09:01:34.000Z</time>
      </trkpt>
      <trkpt lat="47.45513" lon="-0.6012">
        <ele>28</ele>
        <time>2015-07-07T09:01:35.000Z</time>
      </trkpt>
      <trkpt lat="47.45511" lon="-0.60119">
        <ele>27</ele>
        <time>2015-07-07T09:01:36.000Z</time>
      </trkpt>
      <trkpt lat="47.45508" lon="-0.60118">
        <ele>26</ele>
        <time>2015-07-07T09:01:37.000Z</time>
      </trkpt>
      <trkpt lat="47.45506" lon="-0.60116">
        <ele>25</ele>
        <time>2015-07-07T09:01:38.000Z</time>
      </trkpt>
      <trkpt lat="47.45503" lon="-0.60113">
        <ele>25</ele>
        <time>2015-07-07T09:01:39.000Z</time>
      </trkpt>
      <trkpt lat="47.455" lon="-0.60111">
        <ele>25</ele>
        <time>2015-07-07T09:01:40.000Z</time>
      </trkpt>
      <trkpt lat="47.45497" lon="-0.60108">
        <ele>24</ele>
        <time>2015-07-07T09:01:41.000Z</time>
      </trkpt>
      <trkpt lat="47.45495" lon="-0.60105">
        <ele>24</ele>
        <time>2015-07-07T09:01:42.000Z</time>
      </trkpt>
      <trkpt lat="47.45494" lon="-0.60103">
        <ele>24</ele>
        <time>2015-07-07T09:01:43.000Z</time>
      </trkpt>
      <trkpt lat="47.45493" lon="-0.60101">
        <ele>23</ele>
        <time>2015-07-07T09:01:44.000Z</time>
      </trkpt>
      <trkpt lat="47.45491" lon="-0.60099">
        <ele>23</ele>
        <time>2015-07-07T09:01:45.000Z</time>
      </trkpt>
      <trkpt lat="47.4549" lon="-0.60096">
        <ele>24</ele>
        <time>2015-07-07T09:01:46.000Z</time>
      </trkpt>
      <trkpt lat="47.45489" lon="-0.60092">
        <ele>24</ele>
        <time>2015-07-07T09:01:47.000Z</time>
      </trkpt>
      <trkpt lat="47.45487" lon="-0.60089">
        <ele>24</ele>
        <time>2015-07-07T09:01:48.000Z</time>
      </trkpt>
      <trkpt lat="47.45486" lon="-0.60085">
        <ele>25</ele>
        <time>2015-07-07T09:01:49.000Z</time>
      </trkpt>
      <trkpt lat="47.45484" lon="-0.60082">
        <ele>25</ele>
        <time>2015-07-07T09:01:50.000Z</time>
      </trkpt>
      <trkpt lat="47.45483" lon="-0.60079">
        <ele>25</ele>
        <time>2015-07-07T09:01:51.000Z</time>
      </trkpt>
      <trkpt lat="47.45482" lon="-0.60076">
        <ele>26</ele>
        <time>2015-07-07T09:01:52.000Z</time>
      </trkpt>
      <trkpt lat="47.4548" lon="-0.60073">
        <ele>26</ele>
        <time>2015-07-07T09:01:53.000Z</time>
      </trkpt>
      <trkpt lat="47.45479" lon="-0.60069">
        <ele>26</ele>
        <time>2015-07-07T09:01:54.000Z</time>
      </trkpt>
      <trkpt lat="47.45477" lon="-0.60065">
        <ele>26</ele>
        <time>2015-07-07T09:01:55.000Z</time>
      </trkpt>
      <trkpt lat="47.45476" lon="-0.60061">
        <ele>25</ele>
        <time>2015-07-07T09:01:56.000Z</time>
      </trkpt>
      <trkpt lat="47.45474" lon="-0.60058">
        <ele>25</ele>
        <time>2015-07-07T09:01:57.000Z</time>
      </trkpt>
      <trkpt lat="47.45473" lon="-0.60055">
        <ele>26</ele>
        <time>2015-07-07T09:01:58.000Z</time>
      </trkpt>
      <trkpt lat="47.45472" lon="-0.60051">
        <ele>25</ele>
        <time>2015-07-07T09:01:59.000Z</time>
      </trkpt>
      <trkpt lat="47.45471" lon="-0.60048">
        <ele>25</ele>
        <time>2015-07-07T09:02:00.000Z</time>
      </trkpt>
      <trkpt lat="47.45469" lon="-0.60046">
        <ele>24</ele>
        <time>2015-07-07T09:02:01.000Z</time>
      </trkpt>
      <trkpt lat="47.45467" lon="-0.60044">
        <ele>24</ele>
        <time>2015-07-07T09:02:02.000Z</time>
      </trkpt>
      <trkpt lat="47.45465" lon="-0.60041">
        <ele>23</ele>
        <time>2015-07-07T09:02:03.000Z</time>
      </trkpt>
      <trkpt lat="47.45462" lon="-0.60038">
        <ele>23</ele>
        <time>2015-07-07T09:02:04.000Z</time>
      </trkpt>
      <trkpt lat="47.4546" lon="-0.60034">
        <ele>23</ele>
        <time>2015-07-07T09:02:05.000Z</time>
      </trkpt>
      <trkpt lat="47.45457" lon="-0.60029">
        <ele>21</ele>
        <time>2015-07-07T09:02:06.000Z</time>
      </trkpt>
      <trkpt lat="47.45455" lon="-0.60024">
        <ele>20</ele>
        <time>2015-07-07T09:02:07.000Z</time>
      </trkpt>
      <trkpt lat="47.45452" lon="-0.6002">
        <ele>20</ele>
        <time>2015-07-07T09:02:08.000Z</time>
      </trkpt>
      <trkpt lat="47.4545" lon="-0.60017">
        <ele>20</ele>
        <time>2015-07-07T09:02:09.000Z</time>
      </trkpt>
      <trkpt lat="47.45447" lon="-0.60014">
        <ele>19</ele>
        <time>2015-07-07T09:02:10.000Z</time>
      </trkpt>
      <trkpt lat="47.45445" lon="-0.6001">
        <ele>19</ele>
        <time>2015-07-07T09:02:11.000Z</time>
      </trkpt>
      <trkpt lat="47.45443" lon="-0.60007">
        <ele>19</ele>
        <time>2015-07-07T09:02:12.000Z</time>
      </trkpt>
      <trkpt lat="47.45441" lon="-0.60004">
        <ele>19</ele>
        <time>2015-07-07T09:02:13.000Z</time>
      </trkpt>
      <trkpt lat="47.45439" lon="-0.6">
        <ele>18</ele>
        <time>2015-07-07T09:02:14.000Z</time>
      </trkpt>
      <trkpt lat="47.45437" lon="-0.59996">
        <ele>18</ele>
        <time>2015-07-07T09:02:15.000Z</time>
      </trkpt>
      <trkpt lat="47.45434" lon="-0.59993">
        <ele>18</ele>
        <time>2015-07-07T09:02:16.000Z</time>
      </trkpt>
      <trkpt lat="47.45432" lon="-0.59989">
        <ele>18</ele>
        <time>2015-07-07T09:02:17.000Z</time>
      </trkpt>
      <trkpt lat="47.4543" lon="-0.59985">
        <ele>18</ele>
        <time>2015-07-07T09:02:18.000Z</time>
      </trkpt>
      <trkpt lat="47.45428" lon="-0.59982">
        <ele>18</ele>
        <time>2015-07-07T09:02:19.000Z</time>
      </trkpt>
      <trkpt lat="47.45426" lon="-0.59978">
        <ele>18</ele>
        <time>2015-07-07T09:02:20.000Z</time>
      </trkpt>
      <trkpt lat="47.45425" lon="-0.59974">
        <ele>18</ele>
        <time>2015-07-07T09:02:21.000Z</time>
      </trkpt>
      <trkpt lat="47.45422" lon="-0.5997">
        <ele>18</ele>
        <time>2015-07-07T09:02:22.000Z</time>
      </trkpt>
      <trkpt lat="47.4542" lon="-0.59965">
        <ele>19</ele>
        <time>2015-07-07T09:02:23.000Z</time>
      </trkpt>
      <trkpt lat="47.45419" lon="-0.5996">
        <ele>19</ele>
        <time>2015-07-07T09:02:24.000Z</time>
      </trkpt>
      <trkpt lat="47.45418" lon="-0.59956">
        <ele>19</ele>
        <time>2015-07-07T09:02:25.000Z</time>
      </trkpt>
      <trkpt lat="47.45416" lon="-0.5995">
        <ele>19</ele>
        <time>2015-07-07T09:02:26.000Z</time>
      </trkpt>
      <trkpt lat="47.45415" lon="-0.59945">
        <ele>19</ele>
        <time>2015-07-07T09:02:27.000Z</time>
      </trkpt>
      <trkpt lat="47.45414" lon="-0.59939">
        <ele>19</ele>
        <time>2015-07-07T09:02:28.000Z</time>
      </trkpt>
      <trkpt lat="47.45413" lon="-0.59934">
        <ele>19</ele>
        <time>2015-07-07T09:02:29.000Z</time>
      </trkpt>
      <trkpt lat="47.45412" lon="-0.59929">
        <ele>20</ele>
        <time>2015-07-07T09:02:30.000Z</time>
      </trkpt>
      <trkpt lat="47.45412" lon="-0.59924">
        <ele>20</ele>
        <time>2015-07-07T09:02:31.000Z</time>
      </trkpt>
      <trkpt lat="47.45411" lon="-0.59919">
        <ele>20</ele>
        <time>2015-07-07T09:02:32.000Z</time>
      </trkpt>
      <trkpt lat="47.45412" lon="-0.59914">
        <ele>19</ele>
        <time>2015-07-07T09:02:33.000Z</time>
      </trkpt>
      <trkpt lat="47.45413" lon="-0.59909">
        <ele>20</ele>
        <time>2015-07-07T09:02:34.000Z</time>
      </trkpt>
      <trkpt lat="47.45415" lon="-0.59904">
        <ele>21</ele>
        <time>2015-07-07T09:02:35.000Z</time>
      </trkpt>
      <trkpt lat="47.45417" lon="-0.599">
        <ele>23</ele>
        <time>2015-07-07T09:02:36.000Z</time>
      </trkpt>
      <trkpt lat="47.45419" lon="-0.59897">
        <ele>22</ele>
        <time>2015-07-07T09:02:37.000Z</time>
      </trkpt>
      <trkpt lat="47.45421" lon="-0.59893">
        <ele>22</ele>
        <time>2015-07-07T09:02:38.000Z</time>
      </trkpt>
      <trkpt lat="47.45422" lon="-0.59889">
        <ele>22</ele>
        <time>2015-07-07T09:02:39.000Z</time>
      </trkpt>
      <trkpt lat="47.45423" lon="-0.59885">
        <ele>22</ele>
        <time>2015-07-07T09:02:40.000Z</time>
      </trkpt>
      <trkpt lat="47.45425" lon="-0.59882">
        <ele>22</ele>
        <time>2015-07-07T09:02:41.000Z</time>
      </trkpt>
      <trkpt lat="47.45426" lon="-0.59879">
        <ele>23</ele>
        <time>2015-07-07T09:02:42.000Z</time>
      </trkpt>
      <trkpt lat="47.45428" lon="-0.59876">
        <ele>23</ele>
        <time>2015-07-07T09:02:43.000Z</time>
      </trkpt>
      <trkpt lat="47.4543" lon="-0.59873">
        <ele>23</ele>
        <time>2015-07-07T09:02:44.000Z</time>
      </trkpt>
      <trkpt lat="47.45431" lon="-0.59871">
        <ele>22</ele>
        <time>2015-07-07T09:02:45.000Z</time>
      </trkpt>
      <trkpt lat="47.45433" lon="-0.59868">
        <ele>22</ele>
        <time>2015-07-07T09:02:46.000Z</time>
      </trkpt>
      <trkpt lat="47.45436" lon="-0.59866">
        <ele>22</ele>
        <time>2015-07-07T09:02:47.000Z</time>
      </trkpt>
      <trkpt lat="47.45438" lon="-0.59864">
        <ele>22</ele>
        <time>2015-07-07T09:02:48.000Z</time>
      </trkpt>
      <trkpt lat="47.45441" lon="-0.59862">
        <ele>21</ele>
        <time>2015-07-07T09:02:49.000Z</time>
      </trkpt>
      <trkpt lat="47.45443" lon="-0.59859">
        <ele>20</ele>
        <time>2015-07-07T09:02:50.000Z</time>
      </trkpt>
      <trkpt lat="47.45445" lon="-0.59857">
        <ele>20</ele>
        <time>2015-07-07T09:02:51.000Z</time>
      </trkpt>
      <trkpt lat="47.45448" lon="-0.59855">
        <ele>20</ele>
        <time>2015-07-07T09:02:52.000Z</time>
      </trkpt>
      <trkpt lat="47.4545" lon="-0.59853">
        <ele>19</ele>
        <time>2015-07-07T09:02:53.000Z</time>
      </trkpt>
      <trkpt lat="47.45453" lon="-0.59852">
        <ele>19</ele>
        <time>2015-07-07T09:02:54.000Z</time>
      </trkpt>
      <trkpt lat="47.45455" lon="-0.5985">
        <ele>19</ele>
        <time>2015-07-07T09:02:55.000Z</time>
      </trkpt>
      <trkpt lat="47.45457" lon="-0.59848">
        <ele>18</ele>
        <time>2015-07-07T09:02:56.000Z</time>
      </trkpt>
      <trkpt lat="47.4546" lon="-0.59847">
        <ele>18</ele>
        <time>2015-07-07T09:02:57.000Z</time>
      </trkpt>
      <trkpt lat="47.45462" lon="-0.59845">
        <ele>18</ele>
        <time>2015-07-07T09:02:58.000Z</time>
      </trkpt>
      <trkpt lat="47.45464" lon="-0.59843">
        <ele>17</ele>
        <time>2015-07-07T09:02:59.000Z</time>
      </trkpt>
      <trkpt lat="47.45466" lon="-0.5984">
        <ele>16</ele>
        <time>2015-07-07T09:03:00.000Z</time>
      </trkpt>
      <trkpt lat="47.45468" lon="-0.59837">
        <ele>16</ele>
        <time>2015-07-07T09:03:01.000Z</time>
      </trkpt>
      <trkpt lat="47.45469" lon="-0.59834">
        <ele>16</ele>
        <time>2015-07-07T09:03:02.000Z</time>
      </trkpt>
      <trkpt lat="47.45471" lon="-0.5983">
        <ele>15</ele>
        <time>2015-07-07T09:03:03.000Z</time>
      </trkpt>
      <trkpt lat="47.45472" lon="-0.59826">
        <ele>16</ele>
        <time>2015-07-07T09:03:04.000Z</time>
      </trkpt>
      <trkpt lat="47.45474" lon="-0.59822">
        <ele>16</ele>
        <time>2015-07-07T09:03:05.000Z</time>
      </trkpt>
      <trkpt lat="47.45476" lon="-0.59818">
        <ele>17</ele>
        <time>2015-07-07T09:03:06.000Z</time>
      </trkpt>
      <trkpt lat="47.45478" lon="-0.59814">
        <ele>17</ele>
        <time>2015-07-07T09:03:07.000Z</time>
      </trkpt>
      <trkpt lat="47.4548" lon="-0.5981">
        <ele>17</ele>
        <time>2015-07-07T09:03:08.000Z</time>
      </trkpt>
      <trkpt lat="47.45481" lon="-0.59806">
        <ele>18</ele>
        <time>2015-07-07T09:03:09.000Z</time>
      </trkpt>
      <trkpt lat="47.45483" lon="-0.59802">
        <ele>17</ele>
        <time>2015-07-07T09:03:10.000Z</time>
      </trkpt>
      <trkpt lat="47.45485" lon="-0.59799">
        <ele>18</ele>
        <time>2015-07-07T09:03:11.000Z</time>
      </trkpt>
      <trkpt lat="47.45487" lon="-0.59795">
        <ele>18</ele>
        <time>2015-07-07T09:03:12.000Z</time>
      </trkpt>
      <trkpt lat="47.45489" lon="-0.59792">
        <ele>18</ele>
        <time>2015-07-07T09:03:13.000Z</time>
      </trkpt>
      <trkpt lat="47.45491" lon="-0.59788">
        <ele>20</ele>
        <time>2015-07-07T09:03:14.000Z</time>
      </trkpt>
      <trkpt lat="47.45493" lon="-0.59784">
        <ele>21</ele>
        <time>2015-07-07T09:03:15.000Z</time>
      </trkpt>
      <trkpt lat="47.45496" lon="-0.5978">
        <ele>21</ele>
        <time>2015-07-07T09:03:16.000Z</time>
      </trkpt>
      <trkpt lat="47.45497" lon="-0.59776">
        <ele>21</ele>
        <time>2015-07-07T09:03:17.000Z</time>
      </trkpt>
      <trkpt lat="47.45499" lon="-0.59773">
        <ele>22</ele>
        <time>2015-07-07T09:03:18.000Z</time>
      </trkpt>
      <trkpt lat="47.45501" lon="-0.59769">
        <ele>23</ele>
        <time>2015-07-07T09:03:19.000Z</time>
      </trkpt>
      <trkpt lat="47.45504" lon="-0.59765">
        <ele>24</ele>
        <time>2015-07-07T09:03:20.000Z</time>
      </trkpt>
      <trkpt lat="47.45506" lon="-0.59762">
        <ele>24</ele>
        <time>2015-07-07T09:03:21.000Z</time>
      </trkpt>
      <trkpt lat="47.45508" lon="-0.59758">
        <ele>25</ele>
        <time>2015-07-07T09:03:22.000Z</time>
      </trkpt>
      <trkpt lat="47.4551" lon="-0.59755">
        <ele>24</ele>
        <time>2015-07-07T09:03:23.000Z</time>
      </trkpt>
      <trkpt lat="47.45512" lon="-0.59751">
        <ele>25</ele>
        <time>2015-07-07T09:03:24.000Z</time>
      </trkpt>
      <trkpt lat="47.45513" lon="-0.59748">
        <ele>25</ele>
        <time>2015-07-07T09:03:25.000Z</time>
      </trkpt>
      <trkpt lat="47.45515" lon="-0.59744">
        <ele>25</ele>
        <time>2015-07-07T09:03:26.000Z</time>
      </trkpt>
      <trkpt lat="47.45517" lon="-0.5974">
        <ele>24</ele>
        <time>2015-07-07T09:03:27.000Z</time>
      </trkpt>
      <trkpt lat="47.45518" lon="-0.59736">
        <ele>24</ele>
        <time>2015-07-07T09:03:28.000Z</time>
      </trkpt>
      <trkpt lat="47.45519" lon="-0.59733">
        <ele>24</ele>
        <time>2015-07-07T09:03:29.000Z</time>
      </trkpt>
      <trkpt lat="47.45521" lon="-0.59729">
        <ele>24</ele>
        <time>2015-07-07T09:03:30.000Z</time>
      </trkpt>
      <trkpt lat="47.45522" lon="-0.59725">
        <ele>25</ele>
        <time>2015-07-07T09:03:31.000Z</time>
      </trkpt>
      <trkpt lat="47.45523" lon="-0.59721">
        <ele>24</ele>
        <time>2015-07-07T09:03:32.000Z</time>
      </trkpt>
      <trkpt lat="47.45524" lon="-0.59718">
        <ele>25</ele>
        <time>2015-07-07T09:03:33.000Z</time>
      </trkpt>
      <trkpt lat="47.45524" lon="-0.59714">
        <ele>25</ele>
        <time>2015-07-07T09:03:34.000Z</time>
      </trkpt>
      <trkpt lat="47.45524" lon="-0.59711">
        <ele>25</ele>
        <time>2015-07-07T09:03:35.000Z</time>
      </trkpt>
      <trkpt lat="47.45524" lon="-0.59707">
        <ele>25</ele>
        <time>2015-07-07T09:03:36.000Z</time>
      </trkpt>
      <trkpt lat="47.45523" lon="-0.59704">
        <ele>25</ele>
        <time>2015-07-07T09:03:37.000Z</time>
      </trkpt>
      <trkpt lat="47.45521" lon="-0.59702">
        <ele>24</ele>
        <time>2015-07-07T09:03:38.000Z</time>
      </trkpt>
      <trkpt lat="47.45519" lon="-0.59701">
        <ele>24</ele>
        <time>2015-07-07T09:03:39.000Z</time>
      </trkpt>
      <trkpt lat="47.45516" lon="-0.597">
        <ele>23</ele>
        <time>2015-07-07T09:03:40.000Z</time>
      </trkpt>
      <trkpt lat="47.45513" lon="-0.59699">
        <ele>23</ele>
        <time>2015-07-07T09:03:41.000Z</time>
      </trkpt>
      <trkpt lat="47.45511" lon="-0.59698">
        <ele>23</ele>
        <time>2015-07-07T09:03:42.000Z</time>
      </trkpt>
      <trkpt lat="47.45508" lon="-0.59698">
        <ele>23</ele>
        <time>2015-07-07T09:03:43.000Z</time>
      </trkpt>
      <trkpt lat="47.45506" lon="-0.59697">
        <ele>23</ele>
        <time>2015-07-07T09:03:44.000Z</time>
      </trkpt>
      <trkpt lat="47.45503" lon="-0.59697">
        <ele>24</ele>
        <time>2015-07-07T09:03:45.000Z</time>
      </trkpt>
      <trkpt lat="47.455" lon="-0.59696">
        <ele>23</ele>
        <time>2015-07-07T09:03:46.000Z</time>
      </trkpt>
      <trkpt lat="47.45498" lon="-0.59695">
        <ele>23</ele>
        <time>2015-07-07T09:03:47.000Z</time>
      </trkpt>
      <trkpt lat="47.45495" lon="-0.59695">
        <ele>23</ele>
        <time>2015-07-07T09:03:48.000Z</time>
      </trkpt>
      <trkpt lat="47.45493" lon="-0.59693">
        <ele>23</ele>
        <time>2015-07-07T09:03:49.000Z</time>
      </trkpt>
      <trkpt lat="47.4549" lon="-0.59692">
        <ele>23</ele>
        <time>2015-07-07T09:03:50.000Z</time>
      </trkpt>
      <trkpt lat="47.45488" lon="-0.59691">
        <ele>22</ele>
        <time>2015-07-07T09:03:51.000Z</time>
      </trkpt>
      <trkpt lat="47.45486" lon="-0.59689">
        <ele>22</ele>
        <time>2015-07-07T09:03:52.000Z</time>
      </trkpt>
      <trkpt lat="47.45484" lon="-0.59686">
        <ele>22</ele>
        <time>2015-07-07T09:03:53.000Z</time>
      </trkpt>
      <trkpt lat="47.45482" lon="-0.59683">
        <ele>22</ele>
        <time>2015-07-07T09:03:54.000Z</time>
      </trkpt>
      <trkpt lat="47.45481" lon="-0.5968">
        <ele>21</ele>
        <time>2015-07-07T09:03:55.000Z</time>
      </trkpt>
      <trkpt lat="47.45479" lon="-0.59676">
        <ele>22</ele>
        <time>2015-07-07T09:03:56.000Z</time>
      </trkpt>
      <trkpt lat="47.45477" lon="-0.59672">
        <ele>21</ele>
        <time>2015-07-07T09:03:57.000Z</time>
      </trkpt>
      <trkpt lat="47.45476" lon="-0.59666">
        <ele>22</ele>
        <time>2015-07-07T09:03:58.000Z</time>
      </trkpt>
      <trkpt lat="47.45475" lon="-0.59661">
        <ele>23</ele>
        <time>2015-07-07T09:03:59.000Z</time>
      </trkpt>
      <trkpt lat="47.45475" lon="-0.59656">
        <ele>23</ele>
        <time>2015-07-07T09:04:00.000Z</time>
      </trkpt>
      <trkpt lat="47.45476" lon="-0.59651">
        <ele>23</ele>
        <time>2015-07-07T09:04:01.000Z</time>
      </trkpt>
      <trkpt lat="47.45476" lon="-0.59647">
        <ele>23</ele>
        <time>2015-07-07T09:04:02.000Z</time>
      </trkpt>
      <trkpt lat="47.45476" lon="-0.59642">
        <ele>23</ele>
        <time>2015-07-07T09:04:03.000Z</time>
      </trkpt>
      <trkpt lat="47.45476" lon="-0.59638">
        <ele>23</ele>
        <time>2015-07-07T09:04:04.000Z</time>
      </trkpt>
      <trkpt lat="47.45477" lon="-0.59633">
        <ele>23</ele>
        <time>2015-07-07T09:04:05.000Z</time>
      </trkpt>
      <trkpt lat="47.45477" lon="-0.59629">
        <ele>22</ele>
        <time>2015-07-07T09:04:06.000Z</time>
      </trkpt>
      <trkpt lat="47.45477" lon="-0.59624">
        <ele>22</ele>
        <time>2015-07-07T09:04:07.000Z</time>
      </trkpt>
      <trkpt lat="47.45478" lon="-0.5962">
        <ele>22</ele>
        <time>2015-07-07T09:04:08.000Z</time>
      </trkpt>
      <trkpt lat="47.45478" lon="-0.59616">
        <ele>21</ele>
        <time>2015-07-07T09:04:09.000Z</time>
      </trkpt>
      <trkpt lat="47.45479" lon="-0.59611">
        <ele>22</ele>
        <time>2015-07-07T09:04:10.000Z</time>
      </trkpt>
      <trkpt lat="47.4548" lon="-0.59607">
        <ele>21</ele>
        <time>2015-07-07T09:04:11.000Z</time>
      </trkpt>
      <trkpt lat="47.45481" lon="-0.59603">
        <ele>20</ele>
        <time>2015-07-07T09:04:12.000Z</time>
      </trkpt>
      <trkpt lat="47.45482" lon="-0.59598">
        <ele>20</ele>
        <time>2015-07-07T09:04:13.000Z</time>
      </trkpt>
      <trkpt lat="47.45482" lon="-0.59594">
        <ele>20</ele>
        <time>2015-07-07T09:04:14.000Z</time>
      </trkpt>
      <trkpt lat="47.45482" lon="-0.5959">
        <ele>20</ele>
        <time>2015-07-07T09:04:15.000Z</time>
      </trkpt>
      <trkpt lat="47.45481" lon="-0.59586">
        <ele>20</ele>
        <time>2015-07-07T09:04:16.000Z</time>
      </trkpt>
      <trkpt lat="47.45481" lon="-0.59581">
        <ele>20</ele>
        <time>2015-07-07T09:04:17.000Z</time>
      </trkpt>
      <trkpt lat="47.45481" lon="-0.59577">
        <ele>20</ele>
        <time>2015-07-07T09:04:18.000Z</time>
      </trkpt>
      <trkpt lat="47.45481" lon="-0.59573">
        <ele>20</ele>
        <time>2015-07-07T09:04:19.000Z</time>
      </trkpt>
      <trkpt lat="47.45481" lon="-0.5957">
        <ele>20</ele>
        <time>2015-07-07T09:04:20.000Z</time>
      </trkpt>
      <trkpt lat="47.45481" lon="-0.59566">
        <ele>20</ele>
        <time>2015-07-07T09:04:21.000Z</time>
      </trkpt>
      <trkpt lat="47.45481" lon="-0.59562">
        <ele>20</ele>
        <time>2015-07-07T09:04:22.000Z</time>
      </trkpt>
      <trkpt lat="47.45481" lon="-0.59558">
        <ele>20</ele>
        <time>2015-07-07T09:04:23.000Z</time>
      </trkpt>
      <trkpt lat="47.45481" lon="-0.59553">
        <ele>21</ele>
        <time>2015-07-07T09:04:24.000Z</time>
      </trkpt>
      <trkpt lat="47.45481" lon="-0.59549">
        <ele>21</ele>
        <time>2015-07-07T09:04:25.000Z</time>
      </trkpt>
      <trkpt lat="47.4548" lon="-0.59546">
        <ele>21</ele>
        <time>2015-07-07T09:04:26.000Z</time>
      </trkpt>
      <trkpt lat="47.4548" lon="-0.59542">
        <ele>21</ele>
        <time>2015-07-07T09:04:27.000Z</time>
      </trkpt>
      <trkpt lat="47.4548" lon="-0.59538">
        <ele>21</ele>
        <time>2015-07-07T09:04:28.000Z</time>
      </trkpt>
      <trkpt lat="47.4548" lon="-0.59534">
        <ele>20</ele>
        <time>2015-07-07T09:04:29.000Z</time>
      </trkpt>
      <trkpt lat="47.4548" lon="-0.5953">
        <ele>20</ele>
        <time>2015-07-07T09:04:30.000Z</time>
      </trkpt>
      <trkpt lat="47.45479" lon="-0.59526">
        <ele>20</ele>
        <time>2015-07-07T09:04:31.000Z</time>
      </trkpt>
      <trkpt lat="47.45479" lon="-0.59522">
        <ele>21</ele>
        <time>2015-07-07T09:04:32.000Z</time>
      </trkpt>
      <trkpt lat="47.45478" lon="-0.59517">
        <ele>22</ele>
        <time>2015-07-07T09:04:33.000Z</time>
      </trkpt>
      <trkpt lat="47.45478" lon="-0.59513">
        <ele>21</ele>
        <time>2015-07-07T09:04:34.000Z</time>
      </trkpt>
      <trkpt lat="47.45478" lon="-0.59508">
        <ele>21</ele>
        <time>2015-07-07T09:04:35.000Z</time>
      </trkpt>
      <trkpt lat="47.45477" lon="-0.59504">
        <ele>21</ele>
        <time>2015-07-07T09:04:36.000Z</time>
      </trkpt>
      <trkpt lat="47.45477" lon="-0.59499">
        <ele>20</ele>
        <time>2015-07-07T09:04:37.000Z</time>
      </trkpt>
      <trkpt lat="47.45476" lon="-0.59495">
        <ele>20</ele>
        <time>2015-07-07T09:04:38.000Z</time>
      </trkpt>
      <trkpt lat="47.45474" lon="-0.59491">
        <ele>20</ele>
        <time>2015-07-07T09:04:39.000Z</time>
      </trkpt>
      <trkpt lat="47.45473" lon="-0.59487">
        <ele>21</ele>
        <time>2015-07-07T09:04:40.000Z</time>
      </trkpt>
      <trkpt lat="47.45472" lon="-0.59483">
        <ele>20</ele>
        <time>2015-07-07T09:04:41.000Z</time>
      </trkpt>
      <trkpt lat="47.4547" lon="-0.59479">
        <ele>20</ele>
        <time>2015-07-07T09:04:42.000Z</time>
      </trkpt>
      <trkpt lat="47.45469" lon="-0.59475">
        <ele>21</ele>
        <time>2015-07-07T09:04:43.000Z</time>
      </trkpt>
      <trkpt lat="47.45467" lon="-0.59472">
        <ele>20</ele>
        <time>2015-07-07T09:04:44.000Z</time>
      </trkpt>
      <trkpt lat="47.45466" lon="-0.59469">
        <ele>20</ele>
        <time>2015-07-07T09:04:45.000Z</time>
      </trkpt>
      <trkpt lat="47.45464" lon="-0.59466">
        <ele>20</ele>
        <time>2015-07-07T09:04:46.000Z</time>
      </trkpt>
      <trkpt lat="47.45461" lon="-0.59463">
        <ele>21</ele>
        <time>2015-07-07T09:04:47.000Z</time>
      </trkpt>
      <trkpt lat="47.45459" lon="-0.59461">
        <ele>21</ele>
        <time>2015-07-07T09:04:48.000Z</time>
      </trkpt>
      <trkpt lat="47.45457" lon="-0.59458">
        <ele>21</ele>
        <time>2015-07-07T09:04:49.000Z</time>
      </trkpt>
      <trkpt lat="47.45454" lon="-0.59455">
        <ele>22</ele>
        <time>2015-07-07T09:04:50.000Z</time>
      </trkpt>
      <trkpt lat="47.45452" lon="-0.59453">
        <ele>22</ele>
        <time>2015-07-07T09:04:51.000Z</time>
      </trkpt>
      <trkpt lat="47.45449" lon="-0.5945">
        <ele>22</ele>
        <time>2015-07-07T09:04:52.000Z</time>
      </trkpt>
      <trkpt lat="47.45447" lon="-0.59448">
        <ele>22</ele>
        <time>2015-07-07T09:04:53.000Z</time>
      </trkpt>
      <trkpt lat="47.45444" lon="-0.59446">
        <ele>22</ele>
        <time>2015-07-07T09:04:54.000Z</time>
      </trkpt>
      <trkpt lat="47.45442" lon="-0.59445">
        <ele>22</ele>
        <time>2015-07-07T09:04:55.000Z</time>
      </trkpt>
      <trkpt lat="47.45439" lon="-0.59443">
        <ele>21</ele>
        <time>2015-07-07T09:04:56.000Z</time>
      </trkpt>
      <trkpt lat="47.45436" lon="-0.59441">
        <ele>21</ele>
        <time>2015-07-07T09:04:57.000Z</time>
      </trkpt>
      <trkpt lat="47.45434" lon="-0.5944">
        <ele>22</ele>
        <time>2015-07-07T09:04:58.000Z</time>
      </trkpt>
      <trkpt lat="47.45431" lon="-0.59438">
        <ele>22</ele>
        <time>2015-07-07T09:04:59.000Z</time>
      </trkpt>
      <trkpt lat="47.45428" lon="-0.59437">
        <ele>22</ele>
        <time>2015-07-07T09:05:00.000Z</time>
      </trkpt>
      <trkpt lat="47.45425" lon="-0.59436">
        <ele>22</ele>
        <time>2015-07-07T09:05:01.000Z</time>
      </trkpt>
      <trkpt lat="47.45422" lon="-0.59435">
        <ele>22</ele>
        <time>2015-07-07T09:05:02.000Z</time>
      </trkpt>
      <trkpt lat="47.45419" lon="-0.59435">
        <ele>22</ele>
        <time>2015-07-07T09:05:03.000Z</time>
      </trkpt>
      <trkpt lat="47.45416" lon="-0.59435">
        <ele>22</ele>
        <time>2015-07-07T09:05:04.000Z</time>
      </trkpt>
      <trkpt lat="47.45413" lon="-0.59434">
        <ele>22</ele>
        <time>2015-07-07T09:05:05.000Z</time>
      </trkpt>
      <trkpt lat="47.45411" lon="-0.59434">
        <ele>22</ele>
        <time>2015-07-07T09:05:06.000Z</time>
      </trkpt>
      <trkpt lat="47.45411" lon="-0.59434">
        <ele>22</ele>
        <time>2015-07-07T09:05:07.000Z</time>
      </trkpt>
      <trkpt lat="47.45408" lon="-0.59433">
        <ele>22</ele>
        <time>2015-07-07T09:05:08.000Z</time>
      </trkpt>
      <trkpt lat="47.45405" lon="-0.59433">
        <ele>22</ele>
        <time>2015-07-07T09:05:09.000Z</time>
      </trkpt>
      <trkpt lat="47.45401" lon="-0.59432">
        <ele>22</ele>
        <time>2015-07-07T09:05:10.000Z</time>
      </trkpt>
      <trkpt lat="47.45398" lon="-0.59432">
        <ele>22</ele>
        <time>2015-07-07T09:05:11.000Z</time>
      </trkpt>
      <trkpt lat="47.45395" lon="-0.59431">
        <ele>23</ele>
        <time>2015-07-07T09:05:12.000Z</time>
      </trkpt>
      <trkpt lat="47.45393" lon="-0.59431">
        <ele>22</ele>
        <time>2015-07-07T09:05:13.000Z</time>
      </trkpt>
      <trkpt lat="47.4539" lon="-0.59431">
        <ele>23</ele>
        <time>2015-07-07T09:05:14.000Z</time>
      </trkpt>
      <trkpt lat="47.45387" lon="-0.59431">
        <ele>23</ele>
        <time>2015-07-07T09:05:15.000Z</time>
      </trkpt>
      <trkpt lat="47.45384" lon="-0.5943">
        <ele>23</ele>
        <time>2015-07-07T09:05:16.000Z</time>
      </trkpt>
      <trkpt lat="47.45381" lon="-0.5943">
        <ele>23</ele>
        <time>2015-07-07T09:05:17.000Z</time>
      </trkpt>
      <trkpt lat="47.45378" lon="-0.59429">
        <ele>22</ele>
        <time>2015-07-07T09:05:18.000Z</time>
      </trkpt>
      <trkpt lat="47.45375" lon="-0.59429">
        <ele>22</ele>
        <time>2015-07-07T09:05:19.000Z</time>
      </trkpt>
      <trkpt lat="47.45371" lon="-0.59428">
        <ele>22</ele>
        <time>2015-07-07T09:05:20.000Z</time>
      </trkpt>
      <trkpt lat="47.45368" lon="-0.59427">
        <ele>22</ele>
        <time>2015-07-07T09:05:21.000Z</time>
      </trkpt>
      <trkpt lat="47.45365" lon="-0.59426">
        <ele>22</ele>
        <time>2015-07-07T09:05:22.000Z</time>
      </trkpt>
      <trkpt lat="47.45362" lon="-0.59425">
        <ele>23</ele>
        <time>2015-07-07T09:05:23.000Z</time>
      </trkpt>
      <trkpt lat="47.45359" lon="-0.59424">
        <ele>23</ele>
        <time>2015-07-07T09:05:24.000Z</time>
      </trkpt>
      <trkpt lat="47.45356" lon="-0.59423">
        <ele>23</ele>
        <time>2015-07-07T09:05:25.000Z</time>
      </trkpt>
      <trkpt lat="47.45353" lon="-0.59422">
        <ele>23</ele>
        <time>2015-07-07T09:05:26.000Z</time>
      </trkpt>
      <trkpt lat="47.45351" lon="-0.59422">
        <ele>22</ele>
        <time>2015-07-07T09:05:27.000Z</time>
      </trkpt>
      <trkpt lat="47.45348" lon="-0.59422">
        <ele>22</ele>
        <time>2015-07-07T09:05:28.000Z</time>
      </trkpt>
      <trkpt lat="47.45344" lon="-0.59422">
        <ele>23</ele>
        <time>2015-07-07T09:05:29.000Z</time>
      </trkpt>
      <trkpt lat="47.45341" lon="-0.59421">
        <ele>23</ele>
        <time>2015-07-07T09:05:30.000Z</time>
      </trkpt>
      <trkpt lat="47.45338" lon="-0.59421">
        <ele>23</ele>
        <time>2015-07-07T09:05:31.000Z</time>
      </trkpt>
      <trkpt lat="47.45335" lon="-0.59421">
        <ele>22</ele>
        <time>2015-07-07T09:05:32.000Z</time>
      </trkpt>
      <trkpt lat="47.45332" lon="-0.59421">
        <ele>22</ele>
        <time>2015-07-07T09:05:33.000Z</time>
      </trkpt>
      <trkpt lat="47.4533" lon="-0.59421">
        <ele>22</ele>
        <time>2015-07-07T09:05:34.000Z</time>
      </trkpt>
      <trkpt lat="47.45327" lon="-0.5942">
        <ele>22</ele>
        <time>2015-07-07T09:05:35.000Z</time>
      </trkpt>
      <trkpt lat="47.45324" lon="-0.59419">
        <ele>21</ele>
        <time>2015-07-07T09:05:36.000Z</time>
      </trkpt>
      <trkpt lat="47.45321" lon="-0.59419">
        <ele>21</ele>
        <time>2015-07-07T09:05:37.000Z</time>
      </trkpt>
      <trkpt lat="47.45319" lon="-0.59418">
        <ele>21</ele>
        <time>2015-07-07T09:05:38.000Z</time>
      </trkpt>
      <trkpt lat="47.45316" lon="-0.59417">
        <ele>21</ele>
        <time>2015-07-07T09:05:39.000Z</time>
      </trkpt>
      <trkpt lat="47.45313" lon="-0.59417">
        <ele>21</ele>
        <time>2015-07-07T09:05:40.000Z</time>
      </trkpt>
      <trkpt lat="47.4531" lon="-0.59416">
        <ele>21</ele>
        <time>2015-07-07T09:05:41.000Z</time>
      </trkpt>
      <trkpt lat="47.45307" lon="-0.59416">
        <ele>20</ele>
        <time>2015-07-07T09:05:42.000Z</time>
      </trkpt>
      <trkpt lat="47.45304" lon="-0.59416">
        <ele>20</ele>
        <time>2015-07-07T09:05:43.000Z</time>
      </trkpt>
      <trkpt lat="47.45302" lon="-0.59417">
        <ele>20</ele>
        <time>2015-07-07T09:05:44.000Z</time>
      </trkpt>
      <trkpt lat="47.45299" lon="-0.59417">
        <ele>20</ele>
        <time>2015-07-07T09:05:45.000Z</time>
      </trkpt>
      <trkpt lat="47.45297" lon="-0.59417">
        <ele>20</ele>
        <time>2015-07-07T09:05:46.000Z</time>
      </trkpt>
      <trkpt lat="47.45294" lon="-0.59418">
        <ele>20</ele>
        <time>2015-07-07T09:05:47.000Z</time>
      </trkpt>
      <trkpt lat="47.45291" lon="-0.59419">
        <ele>21</ele>
        <time>2015-07-07T09:05:48.000Z</time>
      </trkpt>
      <trkpt lat="47.45288" lon="-0.5942">
        <ele>20</ele>
        <time>2015-07-07T09:05:49.000Z</time>
      </trkpt>
      <trkpt lat="47.45285" lon="-0.59421">
        <ele>22</ele>
        <time>2015-07-07T09:05:50.000Z</time>
      </trkpt>
      <trkpt lat="47.45282" lon="-0.59422">
        <ele>22</ele>
        <time>2015-07-07T09:05:51.000Z</time>
      </trkpt>
      <trkpt lat="47.45279" lon="-0.59425">
        <ele>22</ele>
        <time>2015-07-07T09:05:52.000Z</time>
      </trkpt>
      <trkpt lat="47.45276" lon="-0.59427">
        <ele>22</ele>
        <time>2015-07-07T09:05:53.000Z</time>
      </trkpt>
      <trkpt lat="47.45273" lon="-0.59428">
        <ele>22</ele>
        <time>2015-07-07T09:05:54.000Z</time>
      </trkpt>
      <trkpt lat="47.45271" lon="-0.5943">
        <ele>22</ele>
        <time>2015-07-07T09:05:55.000Z</time>
      </trkpt>
      <trkpt lat="47.45268" lon="-0.59432">
        <ele>23</ele>
        <time>2015-07-07T09:05:56.000Z</time>
      </trkpt>
      <trkpt lat="47.45265" lon="-0.59434">
        <ele>22</ele>
        <time>2015-07-07T09:05:57.000Z</time>
      </trkpt>
      <trkpt lat="47.45262" lon="-0.59436">
        <ele>23</ele>
        <time>2015-07-07T09:05:58.000Z</time>
      </trkpt>
      <trkpt lat="47.45259" lon="-0.59438">
        <ele>23</ele>
        <time>2015-07-07T09:05:59.000Z</time>
      </trkpt>
      <trkpt lat="47.45256" lon="-0.5944">
        <ele>23</ele>
        <time>2015-07-07T09:06:00.000Z</time>
      </trkpt>
      <trkpt lat="47.45253" lon="-0.59443">
        <ele>23</ele>
        <time>2015-07-07T09:06:01.000Z</time>
      </trkpt>
      <trkpt lat="47.4525" lon="-0.59445">
        <ele>23</ele>
        <time>2015-07-07T09:06:02.000Z</time>
      </trkpt>
      <trkpt lat="47.45248" lon="-0.59447">
        <ele>24</ele>
        <time>2015-07-07T09:06:03.000Z</time>
      </trkpt>
      <trkpt lat="47.45245" lon="-0.59449">
        <ele>24</ele>
        <time>2015-07-07T09:06:04.000Z</time>
      </trkpt>
      <trkpt lat="47.45242" lon="-0.59451">
        <ele>24</ele>
        <time>2015-07-07T09:06:05.000Z</time>
      </trkpt>
      <trkpt lat="47.45239" lon="-0.59452">
        <ele>24</ele>
        <time>2015-07-07T09:06:06.000Z</time>
      </trkpt>
      <trkpt lat="47.45236" lon="-0.59453">
        <ele>24</ele>
        <time>2015-07-07T09:06:07.000Z</time>
      </trkpt>
      <trkpt lat="47.45233" lon="-0.59454">
        <ele>24</ele>
        <time>2015-07-07T09:06:08.000Z</time>
      </trkpt>
      <trkpt lat="47.4523" lon="-0.59455">
        <ele>24</ele>
        <time>2015-07-07T09:06:09.000Z</time>
      </trkpt>
      <trkpt lat="47.45227" lon="-0.59456">
        <ele>24</ele>
        <time>2015-07-07T09:06:10.000Z</time>
      </trkpt>
      <trkpt lat="47.45225" lon="-0.59456">
        <ele>24</ele>
        <time>2015-07-07T09:06:11.000Z</time>
      </trkpt>
      <trkpt lat="47.45222" lon="-0.59457">
        <ele>24</ele>
        <time>2015-07-07T09:06:12.000Z</time>
      </trkpt>
      <trkpt lat="47.45219" lon="-0.59458">
        <ele>23</ele>
        <time>2015-07-07T09:06:13.000Z</time>
      </trkpt>
      <trkpt lat="47.45216" lon="-0.59459">
        <ele>23</ele>
        <time>2015-07-07T09:06:14.000Z</time>
      </trkpt>
      <trkpt lat="47.45213" lon="-0.59459">
        <ele>23</ele>
        <time>2015-07-07T09:06:15.000Z</time>
      </trkpt>
      <trkpt lat="47.4521" lon="-0.5946">
        <ele>23</ele>
        <time>2015-07-07T09:06:16.000Z</time>
      </trkpt>
      <trkpt lat="47.45207" lon="-0.5946">
        <ele>23</ele>
        <time>2015-07-07T09:06:17.000Z</time>
      </trkpt>
      <trkpt lat="47.45204" lon="-0.5946">
        <ele>23</ele>
        <time>2015-07-07T09:06:18.000Z</time>
      </trkpt>
      <trkpt lat="47.45201" lon="-0.59461">
        <ele>23</ele>
        <time>2015-07-07T09:06:19.000Z</time>
      </trkpt>
      <trkpt lat="47.45198" lon="-0.59461">
        <ele>23</ele>
        <time>2015-07-07T09:06:20.000Z</time>
      </trkpt>
      <trkpt lat="47.45195" lon="-0.59461">
        <ele>23</ele>
        <time>2015-07-07T09:06:21.000Z</time>
      </trkpt>
      <trkpt lat="47.45192" lon="-0.59461">
        <ele>23</ele>
        <time>2015-07-07T09:06:22.000Z</time>
      </trkpt>
      <trkpt lat="47.45189" lon="-0.59461">
        <ele>24</ele>
        <time>2015-07-07T09:06:23.000Z</time>
      </trkpt>
      <trkpt lat="47.45186" lon="-0.59462">
        <ele>23</ele>
        <time>2015-07-07T09:06:24.000Z</time>
      </trkpt>
      <trkpt lat="47.45183" lon="-0.59462">
        <ele>23</ele>
        <time>2015-07-07T09:06:25.000Z</time>
      </trkpt>
      <trkpt lat="47.4518" lon="-0.59461">
        <ele>24</ele>
        <time>2015-07-07T09:06:26.000Z</time>
      </trkpt>
      <trkpt lat="47.45177" lon="-0.59461">
        <ele>24</ele>
        <time>2015-07-07T09:06:27.000Z</time>
      </trkpt>
      <trkpt lat="47.45174" lon="-0.59461">
        <ele>24</ele>
        <time>2015-07-07T09:06:28.000Z</time>
      </trkpt>
      <trkpt lat="47.45171" lon="-0.59461">
        <ele>24</ele>
        <time>2015-07-07T09:06:29.000Z</time>
      </trkpt>
      <trkpt lat="47.45168" lon="-0.59461">
        <ele>24</ele>
        <time>2015-07-07T09:06:30.000Z</time>
      </trkpt>
      <trkpt lat="47.45165" lon="-0.59461">
        <ele>24</ele>
        <time>2015-07-07T09:06:31.000Z</time>
      </trkpt>
      <trkpt lat="47.45162" lon="-0.59461">
        <ele>24</ele>
        <time>2015-07-07T09:06:32.000Z</time>
      </trkpt>
      <trkpt lat="47.4516" lon="-0.5946">
        <ele>24</ele>
        <time>2015-07-07T09:06:33.000Z</time>
      </trkpt>
      <trkpt lat="47.45157" lon="-0.59459">
        <ele>24</ele>
        <time>2015-07-07T09:06:34.000Z</time>
      </trkpt>
      <trkpt lat="47.45154" lon="-0.59458">
        <ele>24</ele>
        <time>2015-07-07T09:06:35.000Z</time>
      </trkpt>
      <trkpt lat="47.45151" lon="-0.59457">
        <ele>24</ele>
        <time>2015-07-07T09:06:36.000Z</time>
      </trkpt>
      <trkpt lat="47.45149" lon="-0.59455">
        <ele>24</ele>
        <time>2015-07-07T09:06:37.000Z</time>
      </trkpt>
      <trkpt lat="47.45146" lon="-0.59454">
        <ele>24</ele>
        <time>2015-07-07T09:06:38.000Z</time>
      </trkpt>
      <trkpt lat="47.45144" lon="-0.59452">
        <ele>23</ele>
        <time>2015-07-07T09:06:39.000Z</time>
      </trkpt>
      <trkpt lat="47.45142" lon="-0.5945">
        <ele>22</ele>
        <time>2015-07-07T09:06:40.000Z</time>
      </trkpt>
      <trkpt lat="47.4514" lon="-0.59447">
        <ele>22</ele>
        <time>2015-07-07T09:06:41.000Z</time>
      </trkpt>
      <trkpt lat="47.45138" lon="-0.59445">
        <ele>21</ele>
        <time>2015-07-07T09:06:42.000Z</time>
      </trkpt>
      <trkpt lat="47.45136" lon="-0.59443">
        <ele>21</ele>
        <time>2015-07-07T09:06:43.000Z</time>
      </trkpt>
      <trkpt lat="47.45134" lon="-0.5944">
        <ele>21</ele>
        <time>2015-07-07T09:06:44.000Z</time>
      </trkpt>
      <trkpt lat="47.45132" lon="-0.59438">
        <ele>20</ele>
        <time>2015-07-07T09:06:45.000Z</time>
      </trkpt>
      <trkpt lat="47.4513" lon="-0.59435">
        <ele>20</ele>
        <time>2015-07-07T09:06:46.000Z</time>
      </trkpt>
      <trkpt lat="47.45129" lon="-0.59432">
        <ele>20</ele>
        <time>2015-07-07T09:06:47.000Z</time>
      </trkpt>
      <trkpt lat="47.45127" lon="-0.5943">
        <ele>20</ele>
        <time>2015-07-07T09:06:48.000Z</time>
      </trkpt>
      <trkpt lat="47.45125" lon="-0.59427">
        <ele>20</ele>
        <time>2015-07-07T09:06:49.000Z</time>
      </trkpt>
      <trkpt lat="47.45123" lon="-0.59424">
        <ele>21</ele>
        <time>2015-07-07T09:06:50.000Z</time>
      </trkpt>
      <trkpt lat="47.45121" lon="-0.59421">
        <ele>20</ele>
        <time>2015-07-07T09:06:51.000Z</time>
      </trkpt>
      <trkpt lat="47.45119" lon="-0.59418">
        <ele>20</ele>
        <time>2015-07-07T09:06:52.000Z</time>
      </trkpt>
      <trkpt lat="47.45117" lon="-0.59416">
        <ele>20</ele>
        <time>2015-07-07T09:06:53.000Z</time>
      </trkpt>
      <trkpt lat="47.45116" lon="-0.59413">
        <ele>19</ele>
        <time>2015-07-07T09:06:54.000Z</time>
      </trkpt>
      <trkpt lat="47.45114" lon="-0.5941">
        <ele>18</ele>
        <time>2015-07-07T09:06:55.000Z</time>
      </trkpt>
      <trkpt lat="47.45113" lon="-0.59407">
        <ele>19</ele>
        <time>2015-07-07T09:06:56.000Z</time>
      </trkpt>
      <trkpt lat="47.45111" lon="-0.59405">
        <ele>18</ele>
        <time>2015-07-07T09:06:57.000Z</time>
      </trkpt>
      <trkpt lat="47.45109" lon="-0.59403">
        <ele>19</ele>
        <time>2015-07-07T09:06:58.000Z</time>
      </trkpt>
      <trkpt lat="47.45107" lon="-0.59401">
        <ele>18</ele>
        <time>2015-07-07T09:06:59.000Z</time>
      </trkpt>
      <trkpt lat="47.45106" lon="-0.59398">
        <ele>19</ele>
        <time>2015-07-07T09:07:00.000Z</time>
      </trkpt>
      <trkpt lat="47.45105" lon="-0.59396">
        <ele>18</ele>
        <time>2015-07-07T09:07:01.000Z</time>
      </trkpt>
      <trkpt lat="47.45103" lon="-0.59393">
        <ele>17</ele>
        <time>2015-07-07T09:07:02.000Z</time>
      </trkpt>
      <trkpt lat="47.45102" lon="-0.5939">
        <ele>17</ele>
        <time>2015-07-07T09:07:03.000Z</time>
      </trkpt>
      <trkpt lat="47.45101" lon="-0.59386">
        <ele>17</ele>
        <time>2015-07-07T09:07:04.000Z</time>
      </trkpt>
      <trkpt lat="47.451" lon="-0.59383">
        <ele>17</ele>
        <time>2015-07-07T09:07:05.000Z</time>
      </trkpt>
      <trkpt lat="47.45098" lon="-0.5938">
        <ele>16</ele>
        <time>2015-07-07T09:07:06.000Z</time>
      </trkpt>
      <trkpt lat="47.45098" lon="-0.59377">
        <ele>16</ele>
        <time>2015-07-07T09:07:07.000Z</time>
      </trkpt>
      <trkpt lat="47.45097" lon="-0.59374">
        <ele>16</ele>
        <time>2015-07-07T09:07:08.000Z</time>
      </trkpt>
      <trkpt lat="47.45096" lon="-0.59372">
        <ele>16</ele>
        <time>2015-07-07T09:07:09.000Z</time>
      </trkpt>
      <trkpt lat="47.45094" lon="-0.59369">
        <ele>17</ele>
        <time>2015-07-07T09:07:10.000Z</time>
      </trkpt>
      <trkpt lat="47.45093" lon="-0.59366">
        <ele>17</ele>
        <time>2015-07-07T09:07:11.000Z</time>
      </trkpt>
      <trkpt lat="47.45091" lon="-0.59363">
        <ele>16</ele>
        <time>2015-07-07T09:07:12.000Z</time>
      </trkpt>
      <trkpt lat="47.45089" lon="-0.5936">
        <ele>16</ele>
        <time>2015-07-07T09:07:13.000Z</time>
      </trkpt>
      <trkpt lat="47.45087" lon="-0.59356">
        <ele>18</ele>
        <time>2015-07-07T09:07:14.000Z</time>
      </trkpt>
      <trkpt lat="47.45085" lon="-0.59353">
        <ele>17</ele>
        <time>2015-07-07T09:07:15.000Z</time>
      </trkpt>
      <trkpt lat="47.45084" lon="-0.5935">
        <ele>17</ele>
        <time>2015-07-07T09:07:16.000Z</time>
      </trkpt>
      <trkpt lat="47.45083" lon="-0.59347">
        <ele>16</ele>
        <time>2015-07-07T09:07:17.000Z</time>
      </trkpt>
      <trkpt lat="47.45081" lon="-0.59343">
        <ele>16</ele>
        <time>2015-07-07T09:07:18.000Z</time>
      </trkpt>
      <trkpt lat="47.45079" lon="-0.59339">
        <ele>16</ele>
        <time>2015-07-07T09:07:19.000Z</time>
      </trkpt>
      <trkpt lat="47.45077" lon="-0.59336">
        <ele>16</ele>
        <time>2015-07-07T09:07:20.000Z</time>
      </trkpt>
      <trkpt lat="47.45075" lon="-0.59332">
        <ele>17</ele>
        <time>2015-07-07T09:07:21.000Z</time>
      </trkpt>
      <trkpt lat="47.45073" lon="-0.59328">
        <ele>16</ele>
        <time>2015-07-07T09:07:22.000Z</time>
      </trkpt>
      <trkpt lat="47.45071" lon="-0.59325">
        <ele>16</ele>
        <time>2015-07-07T09:07:23.000Z</time>
      </trkpt>
      <trkpt lat="47.45069" lon="-0.59322">
        <ele>16</ele>
        <time>2015-07-07T09:07:24.000Z</time>
      </trkpt>
      <trkpt lat="47.45067" lon="-0.59318">
        <ele>16</ele>
        <time>2015-07-07T09:07:25.000Z</time>
      </trkpt>
      <trkpt lat="47.45065" lon="-0.59315">
        <ele>16</ele>
        <time>2015-07-07T09:07:26.000Z</time>
      </trkpt>
      <trkpt lat="47.45064" lon="-0.59311">
        <ele>16</ele>
        <time>2015-07-07T09:07:27.000Z</time>
      </trkpt>
      <trkpt lat="47.45062" lon="-0.59308">
        <ele>17</ele>
        <time>2015-07-07T09:07:28.000Z</time>
      </trkpt>
      <trkpt lat="47.45059" lon="-0.59304">
        <ele>17</ele>
        <time>2015-07-07T09:07:29.000Z</time>
      </trkpt>
      <trkpt lat="47.45057" lon="-0.593">
        <ele>17</ele>
        <time>2015-07-07T09:07:30.000Z</time>
      </trkpt>
      <trkpt lat="47.45056" lon="-0.59296">
        <ele>17</ele>
        <time>2015-07-07T09:07:31.000Z</time>
      </trkpt>
      <trkpt lat="47.45054" lon="-0.59292">
        <ele>16</ele>
        <time>2015-07-07T09:07:32.000Z</time>
      </trkpt>
      <trkpt lat="47.45053" lon="-0.59288">
        <ele>16</ele>
        <time>2015-07-07T09:07:33.000Z</time>
      </trkpt>
      <trkpt lat="47.45052" lon="-0.59285">
        <ele>16</ele>
        <time>2015-07-07T09:07:34.000Z</time>
      </trkpt>
      <trkpt lat="47.45051" lon="-0.59282">
        <ele>16</ele>
        <time>2015-07-07T09:07:35.000Z</time>
      </trkpt>
      <trkpt lat="47.45049" lon="-0.59279">
        <ele>16</ele>
        <time>2015-07-07T09:07:36.000Z</time>
      </trkpt>
      <trkpt lat="47.45048" lon="-0.59276">
        <ele>16</ele>
        <time>2015-07-07T09:07:37.000Z</time>
      </trkpt>
      <trkpt lat="47.45048" lon="-0.59273">
        <ele>16</ele>
        <time>2015-07-07T09:07:38.000Z</time>
      </trkpt>
      <trkpt lat="47.45048" lon="-0.59269">
        <ele>16</ele>
        <time>2015-07-07T09:07:39.000Z</time>
      </trkpt>
      <trkpt lat="47.45047" lon="-0.59266">
        <ele>16</ele>
        <time>2015-07-07T09:07:40.000Z</time>
      </trkpt>
      <trkpt lat="47.45047" lon="-0.59262">
        <ele>16</ele>
        <time>2015-07-07T09:07:41.000Z</time>
      </trkpt>
      <trkpt lat="47.45048" lon="-0.59257">
        <ele>14</ele>
        <time>2015-07-07T09:07:42.000Z</time>
      </trkpt>
      <trkpt lat="47.45049" lon="-0.59252">
        <ele>15</ele>
        <time>2015-07-07T09:07:43.000Z</time>
      </trkpt>
      <trkpt lat="47.4505" lon="-0.59248">
        <ele>14</ele>
        <time>2015-07-07T09:07:44.000Z</time>
      </trkpt>
      <trkpt lat="47.45051" lon="-0.59245">
        <ele>14</ele>
        <time>2015-07-07T09:07:45.000Z</time>
      </trkpt>
      <trkpt lat="47.45051" lon="-0.59241">
        <ele>14</ele>
        <time>2015-07-07T09:07:46.000Z</time>
      </trkpt>
      <trkpt lat="47.45051" lon="-0.59237">
        <ele>13</ele>
        <time>2015-07-07T09:07:47.000Z</time>
      </trkpt>
      <trkpt lat="47.45052" lon="-0.59233">
        <ele>14</ele>
        <time>2015-07-07T09:07:48.000Z</time>
      </trkpt>
      <trkpt lat="47.45054" lon="-0.59229">
        <ele>14</ele>
        <time>2015-07-07T09:07:49.000Z</time>
      </trkpt>
      <trkpt lat="47.45055" lon="-0.59224">
        <ele>17</ele>
        <time>2015-07-07T09:07:50.000Z</time>
      </trkpt>
      <trkpt lat="47.45056" lon="-0.59219">
        <ele>18</ele>
        <time>2015-07-07T09:07:51.000Z</time>
      </trkpt>
      <trkpt lat="47.45057" lon="-0.59215">
        <ele>19</ele>
        <time>2015-07-07T09:07:52.000Z</time>
      </trkpt>
      <trkpt lat="47.45059" lon="-0.59211">
        <ele>20</ele>
        <time>2015-07-07T09:07:53.000Z</time>
      </trkpt>
      <trkpt lat="47.4506" lon="-0.59207">
        <ele>22</ele>
        <time>2015-07-07T09:07:54.000Z</time>
      </trkpt>
      <trkpt lat="47.45061" lon="-0.59204">
        <ele>22</ele>
        <time>2015-07-07T09:07:55.000Z</time>
      </trkpt>
      <trkpt lat="47.45063" lon="-0.592">
        <ele>23</ele>
        <time>2015-07-07T09:07:56.000Z</time>
      </trkpt>
      <trkpt lat="47.45064" lon="-0.59196">
        <ele>23</ele>
        <time>2015-07-07T09:07:57.000Z</time>
      </trkpt>
      <trkpt lat="47.45065" lon="-0.59192">
        <ele>23</ele>
        <time>2015-07-07T09:07:58.000Z</time>
      </trkpt>
      <trkpt lat="47.45067" lon="-0.59189">
        <ele>22</ele>
        <time>2015-07-07T09:07:59.000Z</time>
      </trkpt>
      <trkpt lat="47.45068" lon="-0.59185">
        <ele>23</ele>
        <time>2015-07-07T09:08:00.000Z</time>
      </trkpt>
      <trkpt lat="47.4507" lon="-0.59182">
        <ele>23</ele>
        <time>2015-07-07T09:08:01.000Z</time>
      </trkpt>
      <trkpt lat="47.45071" lon="-0.59179">
        <ele>22</ele>
        <time>2015-07-07T09:08:02.000Z</time>
      </trkpt>
      <trkpt lat="47.45073" lon="-0.59175">
        <ele>22</ele>
        <time>2015-07-07T09:08:03.000Z</time>
      </trkpt>
      <trkpt lat="47.45074" lon="-0.59172">
        <ele>22</ele>
        <time>2015-07-07T09:08:04.000Z</time>
      </trkpt>
      <trkpt lat="47.45075" lon="-0.59167">
        <ele>22</ele>
        <time>2015-07-07T09:08:05.000Z</time>
      </trkpt>
      <trkpt lat="47.45077" lon="-0.59163">
        <ele>21</ele>
        <time>2015-07-07T09:08:06.000Z</time>
      </trkpt>
      <trkpt lat="47.45079" lon="-0.59159">
        <ele>21</ele>
        <time>2015-07-07T09:08:07.000Z</time>
      </trkpt>
      <trkpt lat="47.45081" lon="-0.59155">
        <ele>21</ele>
        <time>2015-07-07T09:08:08.000Z</time>
      </trkpt>
      <trkpt lat="47.45083" lon="-0.59151">
        <ele>21</ele>
        <time>2015-07-07T09:08:09.000Z</time>
      </trkpt>
      <trkpt lat="47.45084" lon="-0.59148">
        <ele>21</ele>
        <time>2015-07-07T09:08:10.000Z</time>
      </trkpt>
      <trkpt lat="47.45086" lon="-0.59144">
        <ele>21</ele>
        <time>2015-07-07T09:08:11.000Z</time>
      </trkpt>
      <trkpt lat="47.45088" lon="-0.59141">
        <ele>22</ele>
        <time>2015-07-07T09:08:12.000Z</time>
      </trkpt>
      <trkpt lat="47.45089" lon="-0.59138">
        <ele>22</ele>
        <time>2015-07-07T09:08:13.000Z</time>
      </trkpt>
      <trkpt lat="47.45091" lon="-0.59134">
        <ele>23</ele>
        <time>2015-07-07T09:08:14.000Z</time>
      </trkpt>
      <trkpt lat="47.45093" lon="-0.59131">
        <ele>23</ele>
        <time>2015-07-07T09:08:15.000Z</time>
      </trkpt>
      <trkpt lat="47.45094" lon="-0.59128">
        <ele>23</ele>
        <time>2015-07-07T09:08:16.000Z</time>
      </trkpt>
      <trkpt lat="47.45095" lon="-0.59125">
        <ele>23</ele>
        <time>2015-07-07T09:08:17.000Z</time>
      </trkpt>
      <trkpt lat="47.45097" lon="-0.59122">
        <ele>23</ele>
        <time>2015-07-07T09:08:18.000Z</time>
      </trkpt>
      <trkpt lat="47.45098" lon="-0.59119">
        <ele>24</ele>
        <time>2015-07-07T09:08:19.000Z</time>
      </trkpt>
      <trkpt lat="47.451" lon="-0.59116">
        <ele>24</ele>
        <time>2015-07-07T09:08:20.000Z</time>
      </trkpt>
      <trkpt lat="47.45102" lon="-0.59112">
        <ele>25</ele>
        <time>2015-07-07T09:08:21.000Z</time>
      </trkpt>
      <trkpt lat="47.45104" lon="-0.59108">
        <ele>25</ele>
        <time>2015-07-07T09:08:22.000Z</time>
      </trkpt>
      <trkpt lat="47.45106" lon="-0.59104">
        <ele>25</ele>
        <time>2015-07-07T09:08:23.000Z</time>
      </trkpt>
      <trkpt lat="47.45107" lon="-0.59101">
        <ele>25</ele>
        <time>2015-07-07T09:08:24.000Z</time>
      </trkpt>
      <trkpt lat="47.45109" lon="-0.59098">
        <ele>25</ele>
        <time>2015-07-07T09:08:25.000Z</time>
      </trkpt>
      <trkpt lat="47.45111" lon="-0.59095">
        <ele>24</ele>
        <time>2015-07-07T09:08:26.000Z</time>
      </trkpt>
      <trkpt lat="47.45113" lon="-0.59091">
        <ele>25</ele>
        <time>2015-07-07T09:08:27.000Z</time>
      </trkpt>
      <trkpt lat="47.45115" lon="-0.59087">
        <ele>25</ele>
        <time>2015-07-07T09:08:28.000Z</time>
      </trkpt>
      <trkpt lat="47.45118" lon="-0.59083">
        <ele>25</ele>
        <time>2015-07-07T09:08:29.000Z</time>
      </trkpt>
      <trkpt lat="47.4512" lon="-0.59078">
        <ele>25</ele>
        <time>2015-07-07T09:08:30.000Z</time>
      </trkpt>
      <trkpt lat="47.45122" lon="-0.59074">
        <ele>24</ele>
        <time>2015-07-07T09:08:31.000Z</time>
      </trkpt>
      <trkpt lat="47.45123" lon="-0.5907">
        <ele>24</ele>
        <time>2015-07-07T09:08:32.000Z</time>
      </trkpt>
      <trkpt lat="47.45125" lon="-0.59067">
        <ele>25</ele>
        <time>2015-07-07T09:08:33.000Z</time>
      </trkpt>
      <trkpt lat="47.45127" lon="-0.59062">
        <ele>24</ele>
        <time>2015-07-07T09:08:34.000Z</time>
      </trkpt>
      <trkpt lat="47.45128" lon="-0.59059">
        <ele>24</ele>
        <time>2015-07-07T09:08:35.000Z</time>
      </trkpt>
      <trkpt lat="47.4513" lon="-0.59055">
        <ele>24</ele>
        <time>2015-07-07T09:08:36.000Z</time>
      </trkpt>
      <trkpt lat="47.45131" lon="-0.59052">
        <ele>25</ele>
        <time>2015-07-07T09:08:37.000Z</time>
      </trkpt>
      <trkpt lat="47.45133" lon="-0.59048">
        <ele>25</ele>
        <time>2015-07-07T09:08:38.000Z</time>
      </trkpt>
      <trkpt lat="47.45135" lon="-0.59044">
        <ele>25</ele>
        <time>2015-07-07T09:08:39.000Z</time>
      </trkpt>
      <trkpt lat="47.45137" lon="-0.5904">
        <ele>25</ele>
        <time>2015-07-07T09:08:40.000Z</time>
      </trkpt>
      <trkpt lat="47.45138" lon="-0.59036">
        <ele>25</ele>
        <time>2015-07-07T09:08:41.000Z</time>
      </trkpt>
      <trkpt lat="47.4514" lon="-0.59032">
        <ele>25</ele>
        <time>2015-07-07T09:08:42.000Z</time>
      </trkpt>
      <trkpt lat="47.45141" lon="-0.59029">
        <ele>25</ele>
        <time>2015-07-07T09:08:43.000Z</time>
      </trkpt>
      <trkpt lat="47.45142" lon="-0.59025">
        <ele>24</ele>
        <time>2015-07-07T09:08:44.000Z</time>
      </trkpt>
      <trkpt lat="47.45143" lon="-0.59021">
        <ele>24</ele>
        <time>2015-07-07T09:08:45.000Z</time>
      </trkpt>
      <trkpt lat="47.45144" lon="-0.59018">
        <ele>24</ele>
        <time>2015-07-07T09:08:46.000Z</time>
      </trkpt>
      <trkpt lat="47.45146" lon="-0.59015">
        <ele>24</ele>
        <time>2015-07-07T09:08:47.000Z</time>
      </trkpt>
      <trkpt lat="47.45147" lon="-0.59012">
        <ele>24</ele>
        <time>2015-07-07T09:08:48.000Z</time>
      </trkpt>
      <trkpt lat="47.45148" lon="-0.59009">
        <ele>23</ele>
        <time>2015-07-07T09:08:49.000Z</time>
      </trkpt>
      <trkpt lat="47.45149" lon="-0.59005">
        <ele>24</ele>
        <time>2015-07-07T09:08:50.000Z</time>
      </trkpt>
      <trkpt lat="47.4515" lon="-0.59001">
        <ele>23</ele>
        <time>2015-07-07T09:08:51.000Z</time>
      </trkpt>
      <trkpt lat="47.45151" lon="-0.58997">
        <ele>23</ele>
        <time>2015-07-07T09:08:52.000Z</time>
      </trkpt>
      <trkpt lat="47.45153" lon="-0.58994">
        <ele>22</ele>
        <time>2015-07-07T09:08:53.000Z</time>
      </trkpt>
      <trkpt lat="47.45154" lon="-0.58991">
        <ele>21</ele>
        <time>2015-07-07T09:08:54.000Z</time>
      </trkpt>
      <trkpt lat="47.45155" lon="-0.58988">
        <ele>20</ele>
        <time>2015-07-07T09:08:55.000Z</time>
      </trkpt>
      <trkpt lat="47.45156" lon="-0.58984">
        <ele>21</ele>
        <time>2015-07-07T09:08:56.000Z</time>
      </trkpt>
      <trkpt lat="47.45158" lon="-0.58981">
        <ele>22</ele>
        <time>2015-07-07T09:08:57.000Z</time>
      </trkpt>
      <trkpt lat="47.45159" lon="-0.58978">
        <ele>23</ele>
        <time>2015-07-07T09:08:58.000Z</time>
      </trkpt>
      <trkpt lat="47.4516" lon="-0.58974">
        <ele>23</ele>
        <time>2015-07-07T09:08:59.000Z</time>
      </trkpt>
      <trkpt lat="47.45161" lon="-0.5897">
        <ele>22</ele>
        <time>2015-07-07T09:09:00.000Z</time>
      </trkpt>
      <trkpt lat="47.45163" lon="-0.58966">
        <ele>22</ele>
        <time>2015-07-07T09:09:01.000Z</time>
      </trkpt>
      <trkpt lat="47.45164" lon="-0.58962">
        <ele>22</ele>
        <time>2015-07-07T09:09:02.000Z</time>
      </trkpt>
      <trkpt lat="47.45166" lon="-0.58958">
        <ele>21</ele>
        <time>2015-07-07T09:09:03.000Z</time>
      </trkpt>
      <trkpt lat="47.45167" lon="-0.58955">
        <ele>21</ele>
        <time>2015-07-07T09:09:04.000Z</time>
      </trkpt>
      <trkpt lat="47.45169" lon="-0.58951">
        <ele>21</ele>
        <time>2015-07-07T09:09:05.000Z</time>
      </trkpt>
      <trkpt lat="47.4517" lon="-0.58948">
        <ele>21</ele>
        <time>2015-07-07T09:09:06.000Z</time>
      </trkpt>
      <trkpt lat="47.45171" lon="-0.58946">
        <ele>21</ele>
        <time>2015-07-07T09:09:07.000Z</time>
      </trkpt>
      <trkpt lat="47.45173" lon="-0.58942">
        <ele>22</ele>
        <time>2015-07-07T09:09:08.000Z</time>
      </trkpt>
      <trkpt lat="47.45174" lon="-0.58939">
        <ele>21</ele>
        <time>2015-07-07T09:09:09.000Z</time>
      </trkpt>
      <trkpt lat="47.45175" lon="-0.58935">
        <ele>20</ele>
        <time>2015-07-07T09:09:10.000Z</time>
      </trkpt>
      <trkpt lat="47.45176" lon="-0.58931">
        <ele>20</ele>
        <time>2015-07-07T09:09:11.000Z</time>
      </trkpt>
      <trkpt lat="47.45178" lon="-0.58927">
        <ele>19</ele>
        <time>2015-07-07T09:09:12.000Z</time>
      </trkpt>
      <trkpt lat="47.45179" lon="-0.58923">
        <ele>20</ele>
        <time>2015-07-07T09:09:13.000Z</time>
      </trkpt>
      <trkpt lat="47.45181" lon="-0.58919">
        <ele>19</ele>
        <time>2015-07-07T09:09:14.000Z</time>
      </trkpt>
      <trkpt lat="47.45183" lon="-0.58914">
        <ele>19</ele>
        <time>2015-07-07T09:09:15.000Z</time>
      </trkpt>
      <trkpt lat="47.45184" lon="-0.5891">
        <ele>19</ele>
        <time>2015-07-07T09:09:16.000Z</time>
      </trkpt>
      <trkpt lat="47.45186" lon="-0.58906">
        <ele>19</ele>
        <time>2015-07-07T09:09:17.000Z</time>
      </trkpt>
      <trkpt lat="47.45187" lon="-0.58901">
        <ele>18</ele>
        <time>2015-07-07T09:09:18.000Z</time>
      </trkpt>
      <trkpt lat="47.45189" lon="-0.58897">
        <ele>19</ele>
        <time>2015-07-07T09:09:19.000Z</time>
      </trkpt>
      <trkpt lat="47.4519" lon="-0.58894">
        <ele>19</ele>
        <time>2015-07-07T09:09:20.000Z</time>
      </trkpt>
      <trkpt lat="47.45192" lon="-0.5889">
        <ele>19</ele>
        <time>2015-07-07T09:09:21.000Z</time>
      </trkpt>
      <trkpt lat="47.45194" lon="-0.58886">
        <ele>20</ele>
        <time>2015-07-07T09:09:22.000Z</time>
      </trkpt>
      <trkpt lat="47.45195" lon="-0.58882">
        <ele>19</ele>
        <time>2015-07-07T09:09:23.000Z</time>
      </trkpt>
      <trkpt lat="47.45196" lon="-0.58878">
        <ele>18</ele>
        <time>2015-07-07T09:09:24.000Z</time>
      </trkpt>
      <trkpt lat="47.45197" lon="-0.58874">
        <ele>18</ele>
        <time>2015-07-07T09:09:25.000Z</time>
      </trkpt>
      <trkpt lat="47.45199" lon="-0.58871">
        <ele>18</ele>
        <time>2015-07-07T09:09:26.000Z</time>
      </trkpt>
      <trkpt lat="47.452" lon="-0.58867">
        <ele>18</ele>
        <time>2015-07-07T09:09:27.000Z</time>
      </trkpt>
      <trkpt lat="47.45201" lon="-0.58864">
        <ele>18</ele>
        <time>2015-07-07T09:09:28.000Z</time>
      </trkpt>
      <trkpt lat="47.45202" lon="-0.5886">
        <ele>18</ele>
        <time>2015-07-07T09:09:29.000Z</time>
      </trkpt>
      <trkpt lat="47.45204" lon="-0.58856">
        <ele>19</ele>
        <time>2015-07-07T09:09:30.000Z</time>
      </trkpt>
      <trkpt lat="47.45205" lon="-0.58852">
        <ele>19</ele>
        <time>2015-07-07T09:09:31.000Z</time>
      </trkpt>
      <trkpt lat="47.45206" lon="-0.58848">
        <ele>19</ele>
        <time>2015-07-07T09:09:32.000Z</time>
      </trkpt>
      <trkpt lat="47.45208" lon="-0.58844">
        <ele>19</ele>
        <time>2015-07-07T09:09:33.000Z</time>
      </trkpt>
      <trkpt lat="47.45209" lon="-0.58841">
        <ele>19</ele>
        <time>2015-07-07T09:09:34.000Z</time>
      </trkpt>
      <trkpt lat="47.45211" lon="-0.58837">
        <ele>19</ele>
        <time>2015-07-07T09:09:35.000Z</time>
      </trkpt>
      <trkpt lat="47.45212" lon="-0.58833">
        <ele>19</ele>
        <time>2015-07-07T09:09:36.000Z</time>
      </trkpt>
      <trkpt lat="47.45213" lon="-0.58829">
        <ele>20</ele>
        <time>2015-07-07T09:09:37.000Z</time>
      </trkpt>
      <trkpt lat="47.45215" lon="-0.58826">
        <ele>19</ele>
        <time>2015-07-07T09:09:38.000Z</time>
      </trkpt>
      <trkpt lat="47.45216" lon="-0.58822">
        <ele>19</ele>
        <time>2015-07-07T09:09:39.000Z</time>
      </trkpt>
      <trkpt lat="47.45218" lon="-0.58819">
        <ele>19</ele>
        <time>2015-07-07T09:09:40.000Z</time>
      </trkpt>
      <trkpt lat="47.4522" lon="-0.58815">
        <ele>19</ele>
        <time>2015-07-07T09:09:41.000Z</time>
      </trkpt>
      <trkpt lat="47.45221" lon="-0.58811">
        <ele>19</ele>
        <time>2015-07-07T09:09:42.000Z</time>
      </trkpt>
      <trkpt lat="47.45223" lon="-0.58807">
        <ele>19</ele>
        <time>2015-07-07T09:09:43.000Z</time>
      </trkpt>
      <trkpt lat="47.45225" lon="-0.58803">
        <ele>19</ele>
        <time>2015-07-07T09:09:44.000Z</time>
      </trkpt>
      <trkpt lat="47.45227" lon="-0.58799">
        <ele>20</ele>
        <time>2015-07-07T09:09:45.000Z</time>
      </trkpt>
      <trkpt lat="47.45229" lon="-0.58796">
        <ele>20</ele>
        <time>2015-07-07T09:09:46.000Z</time>
      </trkpt>
      <trkpt lat="47.45231" lon="-0.58792">
        <ele>20</ele>
        <time>2015-07-07T09:09:47.000Z</time>
      </trkpt>
      <trkpt lat="47.45232" lon="-0.58788">
        <ele>20</ele>
        <time>2015-07-07T09:09:48.000Z</time>
      </trkpt>
      <trkpt lat="47.45234" lon="-0.58785">
        <ele>21</ele>
        <time>2015-07-07T09:09:49.000Z</time>
      </trkpt>
      <trkpt lat="47.45235" lon="-0.58782">
        <ele>21</ele>
        <time>2015-07-07T09:09:50.000Z</time>
      </trkpt>
      <trkpt lat="47.45237" lon="-0.58778">
        <ele>22</ele>
        <time>2015-07-07T09:09:51.000Z</time>
      </trkpt>
      <trkpt lat="47.45238" lon="-0.58774">
        <ele>22</ele>
        <time>2015-07-07T09:09:52.000Z</time>
      </trkpt>
      <trkpt lat="47.4524" lon="-0.5877">
        <ele>22</ele>
        <time>2015-07-07T09:09:53.000Z</time>
      </trkpt>
      <trkpt lat="47.45241" lon="-0.58767">
        <ele>21</ele>
        <time>2015-07-07T09:09:54.000Z</time>
      </trkpt>
      <trkpt lat="47.45242" lon="-0.58763">
        <ele>21</ele>
        <time>2015-07-07T09:09:55.000Z</time>
      </trkpt>
      <trkpt lat="47.45244" lon="-0.5876">
        <ele>20</ele>
        <time>2015-07-07T09:09:56.000Z</time>
      </trkpt>
      <trkpt lat="47.45244" lon="-0.58756">
        <ele>21</ele>
        <time>2015-07-07T09:09:57.000Z</time>
      </trkpt>
      <trkpt lat="47.45245" lon="-0.58752">
        <ele>20</ele>
        <time>2015-07-07T09:09:58.000Z</time>
      </trkpt>
      <trkpt lat="47.45246" lon="-0.58749">
        <ele>21</ele>
        <time>2015-07-07T09:09:59.000Z</time>
      </trkpt>
      <trkpt lat="47.45247" lon="-0.58746">
        <ele>20</ele>
        <time>2015-07-07T09:10:00.000Z</time>
      </trkpt>
      <trkpt lat="47.45248" lon="-0.58742">
        <ele>20</ele>
        <time>2015-07-07T09:10:01.000Z</time>
      </trkpt>
      <trkpt lat="47.4525" lon="-0.58739">
        <ele>20</ele>
        <time>2015-07-07T09:10:02.000Z</time>
      </trkpt>
      <trkpt lat="47.45251" lon="-0.58735">
        <ele>19</ele>
        <time>2015-07-07T09:10:03.000Z</time>
      </trkpt>
      <trkpt lat="47.45252" lon="-0.58732">
        <ele>18</ele>
        <time>2015-07-07T09:10:04.000Z</time>
      </trkpt>
      <trkpt lat="47.45253" lon="-0.58728">
        <ele>18</ele>
        <time>2015-07-07T09:10:05.000Z</time>
      </trkpt>
      <trkpt lat="47.45254" lon="-0.58725">
        <ele>17</ele>
        <time>2015-07-07T09:10:06.000Z</time>
      </trkpt>
      <trkpt lat="47.45255" lon="-0.58721">
        <ele>17</ele>
        <time>2015-07-07T09:10:07.000Z</time>
      </trkpt>
      <trkpt lat="47.45256" lon="-0.58718">
        <ele>17</ele>
        <time>2015-07-07T09:10:08.000Z</time>
      </trkpt>
      <trkpt lat="47.45257" lon="-0.58714">
        <ele>17</ele>
        <time>2015-07-07T09:10:09.000Z</time>
      </trkpt>
      <trkpt lat="47.45257" lon="-0.58711">
        <ele>16</ele>
        <time>2015-07-07T09:10:10.000Z</time>
      </trkpt>
      <trkpt lat="47.45259" lon="-0.58707">
        <ele>16</ele>
        <time>2015-07-07T09:10:11.000Z</time>
      </trkpt>
      <trkpt lat="47.4526" lon="-0.58704">
        <ele>16</ele>
        <time>2015-07-07T09:10:12.000Z</time>
      </trkpt>
      <trkpt lat="47.45261" lon="-0.587">
        <ele>16</ele>
        <time>2015-07-07T09:10:13.000Z</time>
      </trkpt>
      <trkpt lat="47.45262" lon="-0.58696">
        <ele>16</ele>
        <time>2015-07-07T09:10:14.000Z</time>
      </trkpt>
      <trkpt lat="47.45264" lon="-0.58693">
        <ele>16</ele>
        <time>2015-07-07T09:10:15.000Z</time>
      </trkpt>
      <trkpt lat="47.45265" lon="-0.58689">
        <ele>16</ele>
        <time>2015-07-07T09:10:16.000Z</time>
      </trkpt>
      <trkpt lat="47.45266" lon="-0.58685">
        <ele>15</ele>
        <time>2015-07-07T09:10:17.000Z</time>
      </trkpt>
      <trkpt lat="47.45267" lon="-0.58681">
        <ele>16</ele>
        <time>2015-07-07T09:10:18.000Z</time>
      </trkpt>
      <trkpt lat="47.45269" lon="-0.58677">
        <ele>15</ele>
        <time>2015-07-07T09:10:19.000Z</time>
      </trkpt>
      <trkpt lat="47.4527" lon="-0.58673">
        <ele>16</ele>
        <time>2015-07-07T09:10:20.000Z</time>
      </trkpt>
      <trkpt lat="47.45271" lon="-0.58669">
        <ele>16</ele>
        <time>2015-07-07T09:10:21.000Z</time>
      </trkpt>
      <trkpt lat="47.45272" lon="-0.58666">
        <ele>16</ele>
        <time>2015-07-07T09:10:22.000Z</time>
      </trkpt>
      <trkpt lat="47.45273" lon="-0.58663">
        <ele>16</ele>
        <time>2015-07-07T09:10:23.000Z</time>
      </trkpt>
      <trkpt lat="47.45274" lon="-0.5866">
        <ele>15</ele>
        <time>2015-07-07T09:10:24.000Z</time>
      </trkpt>
      <trkpt lat="47.45276" lon="-0.58656">
        <ele>15</ele>
        <time>2015-07-07T09:10:25.000Z</time>
      </trkpt>
      <trkpt lat="47.45277" lon="-0.58653">
        <ele>15</ele>
        <time>2015-07-07T09:10:26.000Z</time>
      </trkpt>
      <trkpt lat="47.45279" lon="-0.58649">
        <ele>15</ele>
        <time>2015-07-07T09:10:27.000Z</time>
      </trkpt>
      <trkpt lat="47.45281" lon="-0.58646">
        <ele>16</ele>
        <time>2015-07-07T09:10:28.000Z</time>
      </trkpt>
      <trkpt lat="47.45282" lon="-0.58643">
        <ele>17</ele>
        <time>2015-07-07T09:10:29.000Z</time>
      </trkpt>
      <trkpt lat="47.45283" lon="-0.58639">
        <ele>18</ele>
        <time>2015-07-07T09:10:30.000Z</time>
      </trkpt>
      <trkpt lat="47.45285" lon="-0.58635">
        <ele>19</ele>
        <time>2015-07-07T09:10:31.000Z</time>
      </trkpt>
      <trkpt lat="47.45286" lon="-0.58632">
        <ele>18</ele>
        <time>2015-07-07T09:10:32.000Z</time>
      </trkpt>
      <trkpt lat="47.45287" lon="-0.58628">
        <ele>18</ele>
        <time>2015-07-07T09:10:33.000Z</time>
      </trkpt>
      <trkpt lat="47.45289" lon="-0.58624">
        <ele>18</ele>
        <time>2015-07-07T09:10:34.000Z</time>
      </trkpt>
      <trkpt lat="47.45291" lon="-0.5862">
        <ele>18</ele>
        <time>2015-07-07T09:10:35.000Z</time>
      </trkpt>
      <trkpt lat="47.45292" lon="-0.58616">
        <ele>19</ele>
        <time>2015-07-07T09:10:36.000Z</time>
      </trkpt>
      <trkpt lat="47.45293" lon="-0.58612">
        <ele>19</ele>
        <time>2015-07-07T09:10:37.000Z</time>
      </trkpt>
      <trkpt lat="47.45295" lon="-0.58607">
        <ele>19</ele>
        <time>2015-07-07T09:10:38.000Z</time>
      </trkpt>
      <trkpt lat="47.45296" lon="-0.58603">
        <ele>20</ele>
        <time>2015-07-07T09:10:39.000Z</time>
      </trkpt>
      <trkpt lat="47.45298" lon="-0.58599">
        <ele>20</ele>
        <time>2015-07-07T09:10:40.000Z</time>
      </trkpt>
      <trkpt lat="47.45299" lon="-0.58596">
        <ele>19</ele>
        <time>2015-07-07T09:10:41.000Z</time>
      </trkpt>
      <trkpt lat="47.45301" lon="-0.58592">
        <ele>19</ele>
        <time>2015-07-07T09:10:42.000Z</time>
      </trkpt>
      <trkpt lat="47.45303" lon="-0.58588">
        <ele>18</ele>
        <time>2015-07-07T09:10:43.000Z</time>
      </trkpt>
      <trkpt lat="47.45305" lon="-0.58585">
        <ele>18</ele>
        <time>2015-07-07T09:10:44.000Z</time>
      </trkpt>
      <trkpt lat="47.45306" lon="-0.58581">
        <ele>19</ele>
        <time>2015-07-07T09:10:45.000Z</time>
      </trkpt>
      <trkpt lat="47.45308" lon="-0.58578">
        <ele>18</ele>
        <time>2015-07-07T09:10:46.000Z</time>
      </trkpt>
      <trkpt lat="47.45309" lon="-0.58575">
        <ele>18</ele>
        <time>2015-07-07T09:10:47.000Z</time>
      </trkpt>
      <trkpt lat="47.45311" lon="-0.58571">
        <ele>19</ele>
        <time>2015-07-07T09:10:48.000Z</time>
      </trkpt>
      <trkpt lat="47.45312" lon="-0.58568">
        <ele>19</ele>
        <time>2015-07-07T09:10:49.000Z</time>
      </trkpt>
      <trkpt lat="47.45313" lon="-0.58565">
        <ele>17</ele>
        <time>2015-07-07T09:10:50.000Z</time>
      </trkpt>
      <trkpt lat="47.45315" lon="-0.58562">
        <ele>17</ele>
        <time>2015-07-07T09:10:51.000Z</time>
      </trkpt>
      <trkpt lat="47.45317" lon="-0.58558">
        <ele>17</ele>
        <time>2015-07-07T09:10:52.000Z</time>
      </trkpt>
      <trkpt lat="47.45319" lon="-0.58555">
        <ele>18</ele>
        <time>2015-07-07T09:10:53.000Z</time>
      </trkpt>
      <trkpt lat="47.4532" lon="-0.58551">
        <ele>18</ele>
        <time>2015-07-07T09:10:54.000Z</time>
      </trkpt>
      <trkpt lat="47.45322" lon="-0.58548">
        <ele>17</ele>
        <time>2015-07-07T09:10:55.000Z</time>
      </trkpt>
      <trkpt lat="47.45324" lon="-0.58545">
        <ele>17</ele>
        <time>2015-07-07T09:10:56.000Z</time>
      </trkpt>
      <trkpt lat="47.45326" lon="-0.58541">
        <ele>18</ele>
        <time>2015-07-07T09:10:57.000Z</time>
      </trkpt>
      <trkpt lat="47.45328" lon="-0.58538">
        <ele>17</ele>
        <time>2015-07-07T09:10:58.000Z</time>
      </trkpt>
      <trkpt lat="47.45329" lon="-0.58535">
        <ele>17</ele>
        <time>2015-07-07T09:10:59.000Z</time>
      </trkpt>
      <trkpt lat="47.45331" lon="-0.58532">
        <ele>18</ele>
        <time>2015-07-07T09:11:00.000Z</time>
      </trkpt>
      <trkpt lat="47.45332" lon="-0.58529">
        <ele>18</ele>
        <time>2015-07-07T09:11:01.000Z</time>
      </trkpt>
      <trkpt lat="47.45333" lon="-0.58526">
        <ele>18</ele>
        <time>2015-07-07T09:11:02.000Z</time>
      </trkpt>
      <trkpt lat="47.45335" lon="-0.58524">
        <ele>18</ele>
        <time>2015-07-07T09:11:03.000Z</time>
      </trkpt>
      <trkpt lat="47.45336" lon="-0.5852">
        <ele>19</ele>
        <time>2015-07-07T09:11:04.000Z</time>
      </trkpt>
      <trkpt lat="47.45338" lon="-0.58517">
        <ele>18</ele>
        <time>2015-07-07T09:11:05.000Z</time>
      </trkpt>
      <trkpt lat="47.45339" lon="-0.58513">
        <ele>18</ele>
        <time>2015-07-07T09:11:06.000Z</time>
      </trkpt>
      <trkpt lat="47.45341" lon="-0.5851">
        <ele>19</ele>
        <time>2015-07-07T09:11:07.000Z</time>
      </trkpt>
      <trkpt lat="47.45342" lon="-0.58506">
        <ele>19</ele>
        <time>2015-07-07T09:11:08.000Z</time>
      </trkpt>
      <trkpt lat="47.45344" lon="-0.58502">
        <ele>21</ele>
        <time>2015-07-07T09:11:09.000Z</time>
      </trkpt>
      <trkpt lat="47.45345" lon="-0.58498">
        <ele>21</ele>
        <time>2015-07-07T09:11:10.000Z</time>
      </trkpt>
      <trkpt lat="47.45347" lon="-0.58494">
        <ele>21</ele>
        <time>2015-07-07T09:11:11.000Z</time>
      </trkpt>
      <trkpt lat="47.45348" lon="-0.5849">
        <ele>22</ele>
        <time>2015-07-07T09:11:12.000Z</time>
      </trkpt>
      <trkpt lat="47.4535" lon="-0.58486">
        <ele>22</ele>
        <time>2015-07-07T09:11:13.000Z</time>
      </trkpt>
      <trkpt lat="47.45352" lon="-0.58482">
        <ele>22</ele>
        <time>2015-07-07T09:11:14.000Z</time>
      </trkpt>
      <trkpt lat="47.45353" lon="-0.58479">
        <ele>22</ele>
        <time>2015-07-07T09:11:15.000Z</time>
      </trkpt>
      <trkpt lat="47.45355" lon="-0.58475">
        <ele>22</ele>
        <time>2015-07-07T09:11:16.000Z</time>
      </trkpt>
      <trkpt lat="47.45356" lon="-0.58472">
        <ele>21</ele>
        <time>2015-07-07T09:11:17.000Z</time>
      </trkpt>
      <trkpt lat="47.45358" lon="-0.58468">
        <ele>22</ele>
        <time>2015-07-07T09:11:18.000Z</time>
      </trkpt>
      <trkpt lat="47.4536" lon="-0.58465">
        <ele>22</ele>
        <time>2015-07-07T09:11:19.000Z</time>
      </trkpt>
      <trkpt lat="47.45362" lon="-0.58461">
        <ele>22</ele>
        <time>2015-07-07T09:11:20.000Z</time>
      </trkpt>
      <trkpt lat="47.45364" lon="-0.58458">
        <ele>21</ele>
        <time>2015-07-07T09:11:21.000Z</time>
      </trkpt>
      <trkpt lat="47.45366" lon="-0.58455">
        <ele>22</ele>
        <time>2015-07-07T09:11:22.000Z</time>
      </trkpt>
      <trkpt lat="47.45367" lon="-0.58451">
        <ele>22</ele>
        <time>2015-07-07T09:11:23.000Z</time>
      </trkpt>
      <trkpt lat="47.45369" lon="-0.58448">
        <ele>21</ele>
        <time>2015-07-07T09:11:24.000Z</time>
      </trkpt>
      <trkpt lat="47.45371" lon="-0.58444">
        <ele>21</ele>
        <time>2015-07-07T09:11:25.000Z</time>
      </trkpt>
      <trkpt lat="47.45373" lon="-0.58441">
        <ele>20</ele>
        <time>2015-07-07T09:11:26.000Z</time>
      </trkpt>
      <trkpt lat="47.45374" lon="-0.58438">
        <ele>20</ele>
        <time>2015-07-07T09:11:27.000Z</time>
      </trkpt>
      <trkpt lat="47.45376" lon="-0.58435">
        <ele>20</ele>
        <time>2015-07-07T09:11:28.000Z</time>
      </trkpt>
      <trkpt lat="47.45378" lon="-0.58433">
        <ele>20</ele>
        <time>2015-07-07T09:11:29.000Z</time>
      </trkpt>
      <trkpt lat="47.4538" lon="-0.5843">
        <ele>19</ele>
        <time>2015-07-07T09:11:30.000Z</time>
      </trkpt>
      <trkpt lat="47.45382" lon="-0.58427">
        <ele>18</ele>
        <time>2015-07-07T09:11:31.000Z</time>
      </trkpt>
      <trkpt lat="47.45383" lon="-0.58424">
        <ele>19</ele>
        <time>2015-07-07T09:11:32.000Z</time>
      </trkpt>
      <trkpt lat="47.45385" lon="-0.58421">
        <ele>19</ele>
        <time>2015-07-07T09:11:33.000Z</time>
      </trkpt>
      <trkpt lat="47.45386" lon="-0.58417">
        <ele>20</ele>
        <time>2015-07-07T09:11:34.000Z</time>
      </trkpt>
      <trkpt lat="47.45388" lon="-0.58413">
        <ele>21</ele>
        <time>2015-07-07T09:11:35.000Z</time>
      </trkpt>
      <trkpt lat="47.45389" lon="-0.5841">
        <ele>20</ele>
        <time>2015-07-07T09:11:36.000Z</time>
      </trkpt>
      <trkpt lat="47.45391" lon="-0.58406">
        <ele>20</ele>
        <time>2015-07-07T09:11:37.000Z</time>
      </trkpt>
      <trkpt lat="47.45392" lon="-0.58403">
        <ele>20</ele>
        <time>2015-07-07T09:11:38.000Z</time>
      </trkpt>
      <trkpt lat="47.45394" lon="-0.584">
        <ele>21</ele>
        <time>2015-07-07T09:11:39.000Z</time>
      </trkpt>
      <trkpt lat="47.45396" lon="-0.58396">
        <ele>21</ele>
        <time>2015-07-07T09:11:40.000Z</time>
      </trkpt>
      <trkpt lat="47.45397" lon="-0.58393">
        <ele>21</ele>
        <time>2015-07-07T09:11:41.000Z</time>
      </trkpt>
      <trkpt lat="47.45399" lon="-0.58389">
        <ele>21</ele>
        <time>2015-07-07T09:11:42.000Z</time>
      </trkpt>
      <trkpt lat="47.45401" lon="-0.58386">
        <ele>20</ele>
        <time>2015-07-07T09:11:43.000Z</time>
      </trkpt>
      <trkpt lat="47.45402" lon="-0.58382">
        <ele>20</ele>
        <time>2015-07-07T09:11:44.000Z</time>
      </trkpt>
      <trkpt lat="47.45404" lon="-0.58379">
        <ele>20</ele>
        <time>2015-07-07T09:11:45.000Z</time>
      </trkpt>
      <trkpt lat="47.45406" lon="-0.58375">
        <ele>20</ele>
        <time>2015-07-07T09:11:46.000Z</time>
      </trkpt>
      <trkpt lat="47.45408" lon="-0.58372">
        <ele>21</ele>
        <time>2015-07-07T09:11:47.000Z</time>
      </trkpt>
      <trkpt lat="47.45409" lon="-0.58368">
        <ele>21</ele>
        <time>2015-07-07T09:11:48.000Z</time>
      </trkpt>
      <trkpt lat="47.45411" lon="-0.58365">
        <ele>21</ele>
        <time>2015-07-07T09:11:49.000Z</time>
      </trkpt>
      <trkpt lat="47.45413" lon="-0.58361">
        <ele>21</ele>
        <time>2015-07-07T09:11:50.000Z</time>
      </trkpt>
      <trkpt lat="47.45415" lon="-0.58358">
        <ele>21</ele>
        <time>2015-07-07T09:11:51.000Z</time>
      </trkpt>
      <trkpt lat="47.45416" lon="-0.58355">
        <ele>21</ele>
        <time>2015-07-07T09:11:52.000Z</time>
      </trkpt>
      <trkpt lat="47.45417" lon="-0.58351">
        <ele>20</ele>
        <time>2015-07-07T09:11:53.000Z</time>
      </trkpt>
      <trkpt lat="47.45419" lon="-0.58348">
        <ele>20</ele>
        <time>2015-07-07T09:11:54.000Z</time>
      </trkpt>
      <trkpt lat="47.45421" lon="-0.58345">
        <ele>19</ele>
        <time>2015-07-07T09:11:55.000Z</time>
      </trkpt>
      <trkpt lat="47.45423" lon="-0.58342">
        <ele>19</ele>
        <time>2015-07-07T09:11:56.000Z</time>
      </trkpt>
      <trkpt lat="47.45425" lon="-0.5834">
        <ele>19</ele>
        <time>2015-07-07T09:11:57.000Z</time>
      </trkpt>
      <trkpt lat="47.45427" lon="-0.58338">
        <ele>18</ele>
        <time>2015-07-07T09:11:58.000Z</time>
      </trkpt>
      <trkpt lat="47.4543" lon="-0.58335">
        <ele>17</ele>
        <time>2015-07-07T09:11:59.000Z</time>
      </trkpt>
      <trkpt lat="47.45432" lon="-0.58331">
        <ele>18</ele>
        <time>2015-07-07T09:12:00.000Z</time>
      </trkpt>
      <trkpt lat="47.45435" lon="-0.58327">
        <ele>19</ele>
        <time>2015-07-07T09:12:01.000Z</time>
      </trkpt>
      <trkpt lat="47.45437" lon="-0.58323">
        <ele>20</ele>
        <time>2015-07-07T09:12:02.000Z</time>
      </trkpt>
      <trkpt lat="47.4544" lon="-0.58319">
        <ele>20</ele>
        <time>2015-07-07T09:12:03.000Z</time>
      </trkpt>
      <trkpt lat="47.45442" lon="-0.58316">
        <ele>20</ele>
        <time>2015-07-07T09:12:04.000Z</time>
      </trkpt>
      <trkpt lat="47.45444" lon="-0.58313">
        <ele>19</ele>
        <time>2015-07-07T09:12:05.000Z</time>
      </trkpt>
      <trkpt lat="47.45447" lon="-0.5831">
        <ele>18</ele>
        <time>2015-07-07T09:12:06.000Z</time>
      </trkpt>
      <trkpt lat="47.4545" lon="-0.58307">
        <ele>18</ele>
        <time>2015-07-07T09:12:07.000Z</time>
      </trkpt>
      <trkpt lat="47.45452" lon="-0.58305">
        <ele>18</ele>
        <time>2015-07-07T09:12:08.000Z</time>
      </trkpt>
      <trkpt lat="47.45454" lon="-0.58302">
        <ele>18</ele>
        <time>2015-07-07T09:12:09.000Z</time>
      </trkpt>
      <trkpt lat="47.45457" lon="-0.58299">
        <ele>18</ele>
        <time>2015-07-07T09:12:10.000Z</time>
      </trkpt>
      <trkpt lat="47.45459" lon="-0.58296">
        <ele>18</ele>
        <time>2015-07-07T09:12:11.000Z</time>
      </trkpt>
      <trkpt lat="47.45462" lon="-0.58293">
        <ele>18</ele>
        <time>2015-07-07T09:12:12.000Z</time>
      </trkpt>
      <trkpt lat="47.45464" lon="-0.5829">
        <ele>18</ele>
        <time>2015-07-07T09:12:13.000Z</time>
      </trkpt>
      <trkpt lat="47.45466" lon="-0.58287">
        <ele>18</ele>
        <time>2015-07-07T09:12:14.000Z</time>
      </trkpt>
      <trkpt lat="47.45468" lon="-0.58284">
        <ele>18</ele>
        <time>2015-07-07T09:12:15.000Z</time>
      </trkpt>
      <trkpt lat="47.4547" lon="-0.58281">
        <ele>18</ele>
        <time>2015-07-07T09:12:16.000Z</time>
      </trkpt>
      <trkpt lat="47.45472" lon="-0.58278">
        <ele>17</ele>
        <time>2015-07-07T09:12:17.000Z</time>
      </trkpt>
      <trkpt lat="47.45474" lon="-0.58275">
        <ele>17</ele>
        <time>2015-07-07T09:12:18.000Z</time>
      </trkpt>
      <trkpt lat="47.45475" lon="-0.58272">
        <ele>17</ele>
        <time>2015-07-07T09:12:19.000Z</time>
      </trkpt>
      <trkpt lat="47.45477" lon="-0.58269">
        <ele>17</ele>
        <time>2015-07-07T09:12:20.000Z</time>
      </trkpt>
      <trkpt lat="47.45479" lon="-0.58266">
        <ele>17</ele>
        <time>2015-07-07T09:12:21.000Z</time>
      </trkpt>
      <trkpt lat="47.45481" lon="-0.58263">
        <ele>17</ele>
        <time>2015-07-07T09:12:22.000Z</time>
      </trkpt>
      <trkpt lat="47.45482" lon="-0.58261">
        <ele>16</ele>
        <time>2015-07-07T09:12:23.000Z</time>
      </trkpt>
      <trkpt lat="47.45484" lon="-0.58258">
        <ele>16</ele>
        <time>2015-07-07T09:12:24.000Z</time>
      </trkpt>
      <trkpt lat="47.45485" lon="-0.58256">
        <ele>17</ele>
        <time>2015-07-07T09:12:25.000Z</time>
      </trkpt>
      <trkpt lat="47.45487" lon="-0.58254">
        <ele>17</ele>
        <time>2015-07-07T09:12:26.000Z</time>
      </trkpt>
      <trkpt lat="47.45489" lon="-0.58252">
        <ele>16</ele>
        <time>2015-07-07T09:12:27.000Z</time>
      </trkpt>
      <trkpt lat="47.45491" lon="-0.5825">
        <ele>16</ele>
        <time>2015-07-07T09:12:28.000Z</time>
      </trkpt>
      <trkpt lat="47.45493" lon="-0.58248">
        <ele>16</ele>
        <time>2015-07-07T09:12:29.000Z</time>
      </trkpt>
      <trkpt lat="47.45495" lon="-0.58246">
        <ele>16</ele>
        <time>2015-07-07T09:12:30.000Z</time>
      </trkpt>
      <trkpt lat="47.45496" lon="-0.58244">
        <ele>15</ele>
        <time>2015-07-07T09:12:31.000Z</time>
      </trkpt>
      <trkpt lat="47.45498" lon="-0.58241">
        <ele>16</ele>
        <time>2015-07-07T09:12:32.000Z</time>
      </trkpt>
      <trkpt lat="47.455" lon="-0.58238">
        <ele>15</ele>
        <time>2015-07-07T09:12:33.000Z</time>
      </trkpt>
      <trkpt lat="47.45502" lon="-0.58234">
        <ele>16</ele>
        <time>2015-07-07T09:12:34.000Z</time>
      </trkpt>
      <trkpt lat="47.45504" lon="-0.58232">
        <ele>15</ele>
        <time>2015-07-07T09:12:35.000Z</time>
      </trkpt>
      <trkpt lat="47.45506" lon="-0.58229">
        <ele>14</ele>
        <time>2015-07-07T09:12:36.000Z</time>
      </trkpt>
      <trkpt lat="47.45508" lon="-0.58227">
        <ele>16</ele>
        <time>2015-07-07T09:12:37.000Z</time>
      </trkpt>
      <trkpt lat="47.4551" lon="-0.58224">
        <ele>15</ele>
        <time>2015-07-07T09:12:38.000Z</time>
      </trkpt>
      <trkpt lat="47.45512" lon="-0.58221">
        <ele>15</ele>
        <time>2015-07-07T09:12:39.000Z</time>
      </trkpt>
      <trkpt lat="47.45514" lon="-0.58218">
        <ele>16</ele>
        <time>2015-07-07T09:12:40.000Z</time>
      </trkpt>
      <trkpt lat="47.45515" lon="-0.58215">
        <ele>16</ele>
        <time>2015-07-07T09:12:41.000Z</time>
      </trkpt>
      <trkpt lat="47.45517" lon="-0.58212">
        <ele>16</ele>
        <time>2015-07-07T09:12:42.000Z</time>
      </trkpt>
      <trkpt lat="47.45518" lon="-0.58209">
        <ele>16</ele>
        <time>2015-07-07T09:12:43.000Z</time>
      </trkpt>
      <trkpt lat="47.45521" lon="-0.58206">
        <ele>15</ele>
        <time>2015-07-07T09:12:44.000Z</time>
      </trkpt>
      <trkpt lat="47.45524" lon="-0.58202">
        <ele>15</ele>
        <time>2015-07-07T09:12:45.000Z</time>
      </trkpt>
      <trkpt lat="47.45527" lon="-0.58198">
        <ele>15</ele>
        <time>2015-07-07T09:12:46.000Z</time>
      </trkpt>
      <trkpt lat="47.4553" lon="-0.58194">
        <ele>16</ele>
        <time>2015-07-07T09:12:47.000Z</time>
      </trkpt>
      <trkpt lat="47.45532" lon="-0.58191">
        <ele>15</ele>
        <time>2015-07-07T09:12:48.000Z</time>
      </trkpt>
      <trkpt lat="47.45534" lon="-0.58189">
        <ele>16</ele>
        <time>2015-07-07T09:12:49.000Z</time>
      </trkpt>
      <trkpt lat="47.45537" lon="-0.58186">
        <ele>16</ele>
        <time>2015-07-07T09:12:50.000Z</time>
      </trkpt>
      <trkpt lat="47.45539" lon="-0.58184">
        <ele>16</ele>
        <time>2015-07-07T09:12:51.000Z</time>
      </trkpt>
      <trkpt lat="47.45542" lon="-0.58182">
        <ele>16</ele>
        <time>2015-07-07T09:12:52.000Z</time>
      </trkpt>
      <trkpt lat="47.45544" lon="-0.58179">
        <ele>16</ele>
        <time>2015-07-07T09:12:53.000Z</time>
      </trkpt>
      <trkpt lat="47.45547" lon="-0.58177">
        <ele>16</ele>
        <time>2015-07-07T09:12:54.000Z</time>
      </trkpt>
      <trkpt lat="47.45549" lon="-0.58174">
        <ele>16</ele>
        <time>2015-07-07T09:12:55.000Z</time>
      </trkpt>
      <trkpt lat="47.45552" lon="-0.58172">
        <ele>16</ele>
        <time>2015-07-07T09:12:56.000Z</time>
      </trkpt>
      <trkpt lat="47.45555" lon="-0.58169">
        <ele>16</ele>
        <time>2015-07-07T09:12:57.000Z</time>
      </trkpt>
      <trkpt lat="47.45557" lon="-0.58166">
        <ele>16</ele>
        <time>2015-07-07T09:12:58.000Z</time>
      </trkpt>
      <trkpt lat="47.45559" lon="-0.58164">
        <ele>16</ele>
        <time>2015-07-07T09:12:59.000Z</time>
      </trkpt>
      <trkpt lat="47.45561" lon="-0.58161">
        <ele>16</ele>
        <time>2015-07-07T09:13:00.000Z</time>
      </trkpt>
      <trkpt lat="47.45563" lon="-0.58158">
        <ele>16</ele>
        <time>2015-07-07T09:13:01.000Z</time>
      </trkpt>
      <trkpt lat="47.45565" lon="-0.58155">
        <ele>16</ele>
        <time>2015-07-07T09:13:02.000Z</time>
      </trkpt>
      <trkpt lat="47.45568" lon="-0.58153">
        <ele>16</ele>
        <time>2015-07-07T09:13:03.000Z</time>
      </trkpt>
      <trkpt lat="47.4557" lon="-0.5815">
        <ele>16</ele>
        <time>2015-07-07T09:13:04.000Z</time>
      </trkpt>
      <trkpt lat="47.45572" lon="-0.58148">
        <ele>16</ele>
        <time>2015-07-07T09:13:05.000Z</time>
      </trkpt>
      <trkpt lat="47.45573" lon="-0.58146">
        <ele>15</ele>
        <time>2015-07-07T09:13:06.000Z</time>
      </trkpt>
      <trkpt lat="47.45575" lon="-0.58144">
        <ele>14</ele>
        <time>2015-07-07T09:13:07.000Z</time>
      </trkpt>
      <trkpt lat="47.45577" lon="-0.58141">
        <ele>15</ele>
        <time>2015-07-07T09:13:08.000Z</time>
      </trkpt>
      <trkpt lat="47.45579" lon="-0.58139">
        <ele>15</ele>
        <time>2015-07-07T09:13:09.000Z</time>
      </trkpt>
      <trkpt lat="47.45581" lon="-0.58138">
        <ele>14</ele>
        <time>2015-07-07T09:13:10.000Z</time>
      </trkpt>
      <trkpt lat="47.45584" lon="-0.58136">
        <ele>15</ele>
        <time>2015-07-07T09:13:11.000Z</time>
      </trkpt>
      <trkpt lat="47.45586" lon="-0.58134">
        <ele>15</ele>
        <time>2015-07-07T09:13:12.000Z</time>
      </trkpt>
      <trkpt lat="47.45588" lon="-0.58132">
        <ele>14</ele>
        <time>2015-07-07T09:13:13.000Z</time>
      </trkpt>
      <trkpt lat="47.4559" lon="-0.5813">
        <ele>14</ele>
        <time>2015-07-07T09:13:14.000Z</time>
      </trkpt>
      <trkpt lat="47.45593" lon="-0.58128">
        <ele>14</ele>
        <time>2015-07-07T09:13:15.000Z</time>
      </trkpt>
      <trkpt lat="47.45595" lon="-0.58126">
        <ele>13</ele>
        <time>2015-07-07T09:13:16.000Z</time>
      </trkpt>
      <trkpt lat="47.45598" lon="-0.58124">
        <ele>13</ele>
        <time>2015-07-07T09:13:17.000Z</time>
      </trkpt>
      <trkpt lat="47.45601" lon="-0.58122">
        <ele>13</ele>
        <time>2015-07-07T09:13:18.000Z</time>
      </trkpt>
      <trkpt lat="47.45603" lon="-0.5812">
        <ele>13</ele>
        <time>2015-07-07T09:13:19.000Z</time>
      </trkpt>
      <trkpt lat="47.45605" lon="-0.58118">
        <ele>13</ele>
        <time>2015-07-07T09:13:20.000Z</time>
      </trkpt>
      <trkpt lat="47.45608" lon="-0.58116">
        <ele>14</ele>
        <time>2015-07-07T09:13:21.000Z</time>
      </trkpt>
      <trkpt lat="47.4561" lon="-0.58114">
        <ele>14</ele>
        <time>2015-07-07T09:13:22.000Z</time>
      </trkpt>
      <trkpt lat="47.45612" lon="-0.58111">
        <ele>15</ele>
        <time>2015-07-07T09:13:23.000Z</time>
      </trkpt>
      <trkpt lat="47.45615" lon="-0.58109">
        <ele>15</ele>
        <time>2015-07-07T09:13:24.000Z</time>
      </trkpt>
      <trkpt lat="47.45617" lon="-0.58107">
        <ele>15</ele>
        <time>2015-07-07T09:13:25.000Z</time>
      </trkpt>
      <trkpt lat="47.45619" lon="-0.58105">
        <ele>15</ele>
        <time>2015-07-07T09:13:26.000Z</time>
      </trkpt>
      <trkpt lat="47.45621" lon="-0.58103">
        <ele>14</ele>
        <time>2015-07-07T09:13:27.000Z</time>
      </trkpt>
      <trkpt lat="47.45624" lon="-0.58101">
        <ele>15</ele>
        <time>2015-07-07T09:13:28.000Z</time>
      </trkpt>
      <trkpt lat="47.45627" lon="-0.58098">
        <ele>16</ele>
        <time>2015-07-07T09:13:29.000Z</time>
      </trkpt>
      <trkpt lat="47.4563" lon="-0.58096">
        <ele>17</ele>
        <time>2015-07-07T09:13:30.000Z</time>
      </trkpt>
      <trkpt lat="47.45633" lon="-0.58093">
        <ele>17</ele>
        <time>2015-07-07T09:13:31.000Z</time>
      </trkpt>
      <trkpt lat="47.45636" lon="-0.58092">
        <ele>17</ele>
        <time>2015-07-07T09:13:32.000Z</time>
      </trkpt>
      <trkpt lat="47.45639" lon="-0.5809">
        <ele>18</ele>
        <time>2015-07-07T09:13:33.000Z</time>
      </trkpt>
      <trkpt lat="47.45641" lon="-0.58089">
        <ele>18</ele>
        <time>2015-07-07T09:13:34.000Z</time>
      </trkpt>
      <trkpt lat="47.45644" lon="-0.58087">
        <ele>19</ele>
        <time>2015-07-07T09:13:35.000Z</time>
      </trkpt>
      <trkpt lat="47.45646" lon="-0.58086">
        <ele>19</ele>
        <time>2015-07-07T09:13:36.000Z</time>
      </trkpt>
      <trkpt lat="47.45649" lon="-0.58084">
        <ele>19</ele>
        <time>2015-07-07T09:13:37.000Z</time>
      </trkpt>
      <trkpt lat="47.45651" lon="-0.58083">
        <ele>18</ele>
        <time>2015-07-07T09:13:38.000Z</time>
      </trkpt>
      <trkpt lat="47.45653" lon="-0.58081">
        <ele>19</ele>
        <time>2015-07-07T09:13:39.000Z</time>
      </trkpt>
      <trkpt lat="47.45656" lon="-0.58079">
        <ele>19</ele>
        <time>2015-07-07T09:13:40.000Z</time>
      </trkpt>
      <trkpt lat="47.45659" lon="-0.58077">
        <ele>20</ele>
        <time>2015-07-07T09:13:41.000Z</time>
      </trkpt>
      <trkpt lat="47.45662" lon="-0.58075">
        <ele>19</ele>
        <time>2015-07-07T09:13:42.000Z</time>
      </trkpt>
      <trkpt lat="47.45664" lon="-0.58074">
        <ele>20</ele>
        <time>2015-07-07T09:13:43.000Z</time>
      </trkpt>
      <trkpt lat="47.45667" lon="-0.58072">
        <ele>20</ele>
        <time>2015-07-07T09:13:44.000Z</time>
      </trkpt>
      <trkpt lat="47.45669" lon="-0.5807">
        <ele>20</ele>
        <time>2015-07-07T09:13:45.000Z</time>
      </trkpt>
      <trkpt lat="47.45672" lon="-0.58068">
        <ele>18</ele>
        <time>2015-07-07T09:13:46.000Z</time>
      </trkpt>
      <trkpt lat="47.45674" lon="-0.58066">
        <ele>19</ele>
        <time>2015-07-07T09:13:47.000Z</time>
      </trkpt>
      <trkpt lat="47.45677" lon="-0.58064">
        <ele>19</ele>
        <time>2015-07-07T09:13:48.000Z</time>
      </trkpt>
      <trkpt lat="47.45679" lon="-0.58062">
        <ele>19</ele>
        <time>2015-07-07T09:13:49.000Z</time>
      </trkpt>
      <trkpt lat="47.45681" lon="-0.58061">
        <ele>19</ele>
        <time>2015-07-07T09:13:50.000Z</time>
      </trkpt>
      <trkpt lat="47.45684" lon="-0.58059">
        <ele>20</ele>
        <time>2015-07-07T09:13:51.000Z</time>
      </trkpt>
      <trkpt lat="47.45686" lon="-0.58057">
        <ele>19</ele>
        <time>2015-07-07T09:13:52.000Z</time>
      </trkpt>
      <trkpt lat="47.45689" lon="-0.58055">
        <ele>20</ele>
        <time>2015-07-07T09:13:53.000Z</time>
      </trkpt>
      <trkpt lat="47.45691" lon="-0.58054">
        <ele>20</ele>
        <time>2015-07-07T09:13:54.000Z</time>
      </trkpt>
      <trkpt lat="47.45693" lon="-0.58052">
        <ele>20</ele>
        <time>2015-07-07T09:13:55.000Z</time>
      </trkpt>
      <trkpt lat="47.45695" lon="-0.5805">
        <ele>19</ele>
        <time>2015-07-07T09:13:56.000Z</time>
      </trkpt>
      <trkpt lat="47.45697" lon="-0.58049">
        <ele>19</ele>
        <time>2015-07-07T09:13:57.000Z</time>
      </trkpt>
      <trkpt lat="47.457" lon="-0.58047">
        <ele>19</ele>
        <time>2015-07-07T09:13:58.000Z</time>
      </trkpt>
      <trkpt lat="47.45702" lon="-0.58045">
        <ele>19</ele>
        <time>2015-07-07T09:13:59.000Z</time>
      </trkpt>
      <trkpt lat="47.45705" lon="-0.58042">
        <ele>19</ele>
        <time>2015-07-07T09:14:00.000Z</time>
      </trkpt>
      <trkpt lat="47.45708" lon="-0.58041">
        <ele>19</ele>
        <time>2015-07-07T09:14:01.000Z</time>
      </trkpt>
      <trkpt lat="47.4571" lon="-0.58039">
        <ele>20</ele>
        <time>2015-07-07T09:14:02.000Z</time>
      </trkpt>
      <trkpt lat="47.45712" lon="-0.58037">
        <ele>20</ele>
        <time>2015-07-07T09:14:03.000Z</time>
      </trkpt>
      <trkpt lat="47.45715" lon="-0.58035">
        <ele>20</ele>
        <time>2015-07-07T09:14:04.000Z</time>
      </trkpt>
      <trkpt lat="47.45717" lon="-0.58034">
        <ele>20</ele>
        <time>2015-07-07T09:14:05.000Z</time>
      </trkpt>
      <trkpt lat="47.4572" lon="-0.58032">
        <ele>20</ele>
        <time>2015-07-07T09:14:06.000Z</time>
      </trkpt>
      <trkpt lat="47.45723" lon="-0.5803">
        <ele>19</ele>
        <time>2015-07-07T09:14:07.000Z</time>
      </trkpt>
      <trkpt lat="47.45725" lon="-0.58028">
        <ele>19</ele>
        <time>2015-07-07T09:14:08.000Z</time>
      </trkpt>
      <trkpt lat="47.45728" lon="-0.58026">
        <ele>18</ele>
        <time>2015-07-07T09:14:09.000Z</time>
      </trkpt>
      <trkpt lat="47.4573" lon="-0.58024">
        <ele>18</ele>
        <time>2015-07-07T09:14:10.000Z</time>
      </trkpt>
      <trkpt lat="47.45733" lon="-0.58022">
        <ele>18</ele>
        <time>2015-07-07T09:14:11.000Z</time>
      </trkpt>
      <trkpt lat="47.45735" lon="-0.5802">
        <ele>18</ele>
        <time>2015-07-07T09:14:12.000Z</time>
      </trkpt>
      <trkpt lat="47.45738" lon="-0.58017">
        <ele>18</ele>
        <time>2015-07-07T09:14:13.000Z</time>
      </trkpt>
      <trkpt lat="47.4574" lon="-0.58015">
        <ele>17</ele>
        <time>2015-07-07T09:14:14.000Z</time>
      </trkpt>
      <trkpt lat="47.45742" lon="-0.58013">
        <ele>17</ele>
        <time>2015-07-07T09:14:15.000Z</time>
      </trkpt>
      <trkpt lat="47.45745" lon="-0.58011">
        <ele>18</ele>
        <time>2015-07-07T09:14:16.000Z</time>
      </trkpt>
      <trkpt lat="47.45747" lon="-0.5801">
        <ele>19</ele>
        <time>2015-07-07T09:14:17.000Z</time>
      </trkpt>
      <trkpt lat="47.4575" lon="-0.58008">
        <ele>18</ele>
        <time>2015-07-07T09:14:18.000Z</time>
      </trkpt>
      <trkpt lat="47.45753" lon="-0.58007">
        <ele>18</ele>
        <time>2015-07-07T09:14:19.000Z</time>
      </trkpt>
      <trkpt lat="47.45756" lon="-0.58005">
        <ele>17</ele>
        <time>2015-07-07T09:14:20.000Z</time>
      </trkpt>
      <trkpt lat="47.45759" lon="-0.58004">
        <ele>17</ele>
        <time>2015-07-07T09:14:21.000Z</time>
      </trkpt>
      <trkpt lat="47.45761" lon="-0.58002">
        <ele>17</ele>
        <time>2015-07-07T09:14:22.000Z</time>
      </trkpt>
      <trkpt lat="47.45764" lon="-0.58">
        <ele>19</ele>
        <time>2015-07-07T09:14:23.000Z</time>
      </trkpt>
      <trkpt lat="47.45767" lon="-0.57998">
        <ele>19</ele>
        <time>2015-07-07T09:14:24.000Z</time>
      </trkpt>
      <trkpt lat="47.45769" lon="-0.57996">
        <ele>18</ele>
        <time>2015-07-07T09:14:25.000Z</time>
      </trkpt>
      <trkpt lat="47.45772" lon="-0.57994">
        <ele>18</ele>
        <time>2015-07-07T09:14:26.000Z</time>
      </trkpt>
      <trkpt lat="47.45774" lon="-0.57992">
        <ele>19</ele>
        <time>2015-07-07T09:14:27.000Z</time>
      </trkpt>
      <trkpt lat="47.45777" lon="-0.57991">
        <ele>18</ele>
        <time>2015-07-07T09:14:28.000Z</time>
      </trkpt>
      <trkpt lat="47.45779" lon="-0.57989">
        <ele>16</ele>
        <time>2015-07-07T09:14:29.000Z</time>
      </trkpt>
      <trkpt lat="47.45782" lon="-0.57987">
        <ele>16</ele>
        <time>2015-07-07T09:14:30.000Z</time>
      </trkpt>
      <trkpt lat="47.45785" lon="-0.57986">
        <ele>15</ele>
        <time>2015-07-07T09:14:31.000Z</time>
      </trkpt>
      <trkpt lat="47.45788" lon="-0.57984">
        <ele>15</ele>
        <time>2015-07-07T09:14:32.000Z</time>
      </trkpt>
      <trkpt lat="47.45791" lon="-0.57982">
        <ele>16</ele>
        <time>2015-07-07T09:14:33.000Z</time>
      </trkpt>
      <trkpt lat="47.45794" lon="-0.5798">
        <ele>16</ele>
        <time>2015-07-07T09:14:34.000Z</time>
      </trkpt>
      <trkpt lat="47.45796" lon="-0.57979">
        <ele>15</ele>
        <time>2015-07-07T09:14:35.000Z</time>
      </trkpt>
      <trkpt lat="47.45799" lon="-0.57977">
        <ele>16</ele>
        <time>2015-07-07T09:14:36.000Z</time>
      </trkpt>
      <trkpt lat="47.45801" lon="-0.57975">
        <ele>16</ele>
        <time>2015-07-07T09:14:37.000Z</time>
      </trkpt>
      <trkpt lat="47.45804" lon="-0.57974">
        <ele>17</ele>
        <time>2015-07-07T09:14:38.000Z</time>
      </trkpt>
      <trkpt lat="47.45807" lon="-0.57972">
        <ele>17</ele>
        <time>2015-07-07T09:14:39.000Z</time>
      </trkpt>
      <trkpt lat="47.45809" lon="-0.5797">
        <ele>17</ele>
        <time>2015-07-07T09:14:40.000Z</time>
      </trkpt>
      <trkpt lat="47.45812" lon="-0.57968">
        <ele>17</ele>
        <time>2015-07-07T09:14:41.000Z</time>
      </trkpt>
      <trkpt lat="47.45815" lon="-0.57967">
        <ele>17</ele>
        <time>2015-07-07T09:14:42.000Z</time>
      </trkpt>
      <trkpt lat="47.45817" lon="-0.57965">
        <ele>17</ele>
        <time>2015-07-07T09:14:43.000Z</time>
      </trkpt>
      <trkpt lat="47.4582" lon="-0.57963">
        <ele>16</ele>
        <time>2015-07-07T09:14:44.000Z</time>
      </trkpt>
      <trkpt lat="47.45822" lon="-0.57962">
        <ele>16</ele>
        <time>2015-07-07T09:14:45.000Z</time>
      </trkpt>
      <trkpt lat="47.45824" lon="-0.5796">
        <ele>16</ele>
        <time>2015-07-07T09:14:46.000Z</time>
      </trkpt>
      <trkpt lat="47.45827" lon="-0.57958">
        <ele>16</ele>
        <time>2015-07-07T09:14:47.000Z</time>
      </trkpt>
      <trkpt lat="47.4583" lon="-0.57956">
        <ele>15</ele>
        <time>2015-07-07T09:14:48.000Z</time>
      </trkpt>
      <trkpt lat="47.45833" lon="-0.57953">
        <ele>16</ele>
        <time>2015-07-07T09:14:49.000Z</time>
      </trkpt>
      <trkpt lat="47.45837" lon="-0.57951">
        <ele>17</ele>
        <time>2015-07-07T09:14:50.000Z</time>
      </trkpt>
      <trkpt lat="47.45839" lon="-0.57948">
        <ele>17</ele>
        <time>2015-07-07T09:14:51.000Z</time>
      </trkpt>
      <trkpt lat="47.45842" lon="-0.57946">
        <ele>18</ele>
        <time>2015-07-07T09:14:52.000Z</time>
      </trkpt>
      <trkpt lat="47.45846" lon="-0.57944">
        <ele>19</ele>
        <time>2015-07-07T09:14:53.000Z</time>
      </trkpt>
      <trkpt lat="47.45849" lon="-0.57942">
        <ele>19</ele>
        <time>2015-07-07T09:14:54.000Z</time>
      </trkpt>
      <trkpt lat="47.45853" lon="-0.57941">
        <ele>20</ele>
        <time>2015-07-07T09:14:55.000Z</time>
      </trkpt>
      <trkpt lat="47.45856" lon="-0.57939">
        <ele>21</ele>
        <time>2015-07-07T09:14:56.000Z</time>
      </trkpt>
      <trkpt lat="47.45858" lon="-0.57937">
        <ele>21</ele>
        <time>2015-07-07T09:14:57.000Z</time>
      </trkpt>
      <trkpt lat="47.45861" lon="-0.57935">
        <ele>21</ele>
        <time>2015-07-07T09:14:58.000Z</time>
      </trkpt>
      <trkpt lat="47.45864" lon="-0.57933">
        <ele>22</ele>
        <time>2015-07-07T09:14:59.000Z</time>
      </trkpt>
      <trkpt lat="47.45867" lon="-0.57932">
        <ele>21</ele>
        <time>2015-07-07T09:15:00.000Z</time>
      </trkpt>
      <trkpt lat="47.4587" lon="-0.5793">
        <ele>22</ele>
        <time>2015-07-07T09:15:01.000Z</time>
      </trkpt>
      <trkpt lat="47.45872" lon="-0.57928">
        <ele>22</ele>
        <time>2015-07-07T09:15:02.000Z</time>
      </trkpt>
      <trkpt lat="47.45874" lon="-0.57926">
        <ele>22</ele>
        <time>2015-07-07T09:15:03.000Z</time>
      </trkpt>
      <trkpt lat="47.45876" lon="-0.57925">
        <ele>22</ele>
        <time>2015-07-07T09:15:04.000Z</time>
      </trkpt>
      <trkpt lat="47.45879" lon="-0.57923">
        <ele>22</ele>
        <time>2015-07-07T09:15:05.000Z</time>
      </trkpt>
      <trkpt lat="47.45881" lon="-0.57921">
        <ele>22</ele>
        <time>2015-07-07T09:15:06.000Z</time>
      </trkpt>
      <trkpt lat="47.45884" lon="-0.57919">
        <ele>21</ele>
        <time>2015-07-07T09:15:07.000Z</time>
      </trkpt>
      <trkpt lat="47.45887" lon="-0.57917">
        <ele>21</ele>
        <time>2015-07-07T09:15:08.000Z</time>
      </trkpt>
      <trkpt lat="47.45889" lon="-0.57916">
        <ele>21</ele>
        <time>2015-07-07T09:15:09.000Z</time>
      </trkpt>
      <trkpt lat="47.45891" lon="-0.57914">
        <ele>20</ele>
        <time>2015-07-07T09:15:10.000Z</time>
      </trkpt>
      <trkpt lat="47.45894" lon="-0.57912">
        <ele>19</ele>
        <time>2015-07-07T09:15:11.000Z</time>
      </trkpt>
      <trkpt lat="47.45896" lon="-0.57911">
        <ele>20</ele>
        <time>2015-07-07T09:15:12.000Z</time>
      </trkpt>
      <trkpt lat="47.45899" lon="-0.57909">
        <ele>20</ele>
        <time>2015-07-07T09:15:13.000Z</time>
      </trkpt>
      <trkpt lat="47.45901" lon="-0.57908">
        <ele>20</ele>
        <time>2015-07-07T09:15:14.000Z</time>
      </trkpt>
      <trkpt lat="47.45904" lon="-0.57907">
        <ele>19</ele>
        <time>2015-07-07T09:15:15.000Z</time>
      </trkpt>
      <trkpt lat="47.45906" lon="-0.57906">
        <ele>20</ele>
        <time>2015-07-07T09:15:16.000Z</time>
      </trkpt>
      <trkpt lat="47.45909" lon="-0.57904">
        <ele>20</ele>
        <time>2015-07-07T09:15:17.000Z</time>
      </trkpt>
      <trkpt lat="47.45911" lon="-0.57903">
        <ele>19</ele>
        <time>2015-07-07T09:15:18.000Z</time>
      </trkpt>
      <trkpt lat="47.45913" lon="-0.57901">
        <ele>19</ele>
        <time>2015-07-07T09:15:19.000Z</time>
      </trkpt>
      <trkpt lat="47.45916" lon="-0.579">
        <ele>19</ele>
        <time>2015-07-07T09:15:20.000Z</time>
      </trkpt>
      <trkpt lat="47.45918" lon="-0.57899">
        <ele>20</ele>
        <time>2015-07-07T09:15:21.000Z</time>
      </trkpt>
      <trkpt lat="47.45921" lon="-0.57898">
        <ele>20</ele>
        <time>2015-07-07T09:15:22.000Z</time>
      </trkpt>
      <trkpt lat="47.45925" lon="-0.57897">
        <ele>22</ele>
        <time>2015-07-07T09:15:23.000Z</time>
      </trkpt>
      <trkpt lat="47.45929" lon="-0.57895">
        <ele>23</ele>
        <time>2015-07-07T09:15:24.000Z</time>
      </trkpt>
      <trkpt lat="47.45933" lon="-0.57893">
        <ele>24</ele>
        <time>2015-07-07T09:15:25.000Z</time>
      </trkpt>
      <trkpt lat="47.45936" lon="-0.57892">
        <ele>23</ele>
        <time>2015-07-07T09:15:26.000Z</time>
      </trkpt>
      <trkpt lat="47.45938" lon="-0.5789">
        <ele>23</ele>
        <time>2015-07-07T09:15:27.000Z</time>
      </trkpt>
      <trkpt lat="47.45941" lon="-0.57887">
        <ele>23</ele>
        <time>2015-07-07T09:15:28.000Z</time>
      </trkpt>
      <trkpt lat="47.45944" lon="-0.57885">
        <ele>24</ele>
        <time>2015-07-07T09:15:29.000Z</time>
      </trkpt>
      <trkpt lat="47.45947" lon="-0.57883">
        <ele>23</ele>
        <time>2015-07-07T09:15:30.000Z</time>
      </trkpt>
      <trkpt lat="47.4595" lon="-0.57881">
        <ele>23</ele>
        <time>2015-07-07T09:15:31.000Z</time>
      </trkpt>
      <trkpt lat="47.45953" lon="-0.57878">
        <ele>23</ele>
        <time>2015-07-07T09:15:32.000Z</time>
      </trkpt>
      <trkpt lat="47.45956" lon="-0.57876">
        <ele>22</ele>
        <time>2015-07-07T09:15:33.000Z</time>
      </trkpt>
      <trkpt lat="47.45959" lon="-0.57874">
        <ele>22</ele>
        <time>2015-07-07T09:15:34.000Z</time>
      </trkpt>
      <trkpt lat="47.45962" lon="-0.57873">
        <ele>22</ele>
        <time>2015-07-07T09:15:35.000Z</time>
      </trkpt>
      <trkpt lat="47.45965" lon="-0.57871">
        <ele>22</ele>
        <time>2015-07-07T09:15:36.000Z</time>
      </trkpt>
      <trkpt lat="47.45968" lon="-0.5787">
        <ele>22</ele>
        <time>2015-07-07T09:15:37.000Z</time>
      </trkpt>
      <trkpt lat="47.4597" lon="-0.57868">
        <ele>22</ele>
        <time>2015-07-07T09:15:38.000Z</time>
      </trkpt>
      <trkpt lat="47.45973" lon="-0.57866">
        <ele>22</ele>
        <time>2015-07-07T09:15:39.000Z</time>
      </trkpt>
      <trkpt lat="47.45975" lon="-0.57863">
        <ele>22</ele>
        <time>2015-07-07T09:15:40.000Z</time>
      </trkpt>
      <trkpt lat="47.45978" lon="-0.57861">
        <ele>22</ele>
        <time>2015-07-07T09:15:41.000Z</time>
      </trkpt>
      <trkpt lat="47.45981" lon="-0.57859">
        <ele>22</ele>
        <time>2015-07-07T09:15:42.000Z</time>
      </trkpt>
      <trkpt lat="47.45983" lon="-0.57857">
        <ele>22</ele>
        <time>2015-07-07T09:15:43.000Z</time>
      </trkpt>
      <trkpt lat="47.45986" lon="-0.57855">
        <ele>22</ele>
        <time>2015-07-07T09:15:44.000Z</time>
      </trkpt>
      <trkpt lat="47.45988" lon="-0.57853">
        <ele>22</ele>
        <time>2015-07-07T09:15:45.000Z</time>
      </trkpt>
      <trkpt lat="47.4599" lon="-0.57851">
        <ele>23</ele>
        <time>2015-07-07T09:15:46.000Z</time>
      </trkpt>
      <trkpt lat="47.45992" lon="-0.57849">
        <ele>23</ele>
        <time>2015-07-07T09:15:47.000Z</time>
      </trkpt>
      <trkpt lat="47.45994" lon="-0.57847">
        <ele>22</ele>
        <time>2015-07-07T09:15:48.000Z</time>
      </trkpt>
      <trkpt lat="47.45996" lon="-0.57846">
        <ele>22</ele>
        <time>2015-07-07T09:15:49.000Z</time>
      </trkpt>
      <trkpt lat="47.45998" lon="-0.57844">
        <ele>22</ele>
        <time>2015-07-07T09:15:50.000Z</time>
      </trkpt>
      <trkpt lat="47.46" lon="-0.57843">
        <ele>22</ele>
        <time>2015-07-07T09:15:51.000Z</time>
      </trkpt>
      <trkpt lat="47.46002" lon="-0.57841">
        <ele>22</ele>
        <time>2015-07-07T09:15:52.000Z</time>
      </trkpt>
      <trkpt lat="47.46005" lon="-0.5784">
        <ele>21</ele>
        <time>2015-07-07T09:15:53.000Z</time>
      </trkpt>
      <trkpt lat="47.46007" lon="-0.57837">
        <ele>21</ele>
        <time>2015-07-07T09:15:54.000Z</time>
      </trkpt>
      <trkpt lat="47.46009" lon="-0.57835">
        <ele>21</ele>
        <time>2015-07-07T09:15:55.000Z</time>
      </trkpt>
      <trkpt lat="47.46012" lon="-0.57833">
        <ele>21</ele>
        <time>2015-07-07T09:15:56.000Z</time>
      </trkpt>
      <trkpt lat="47.46014" lon="-0.5783">
        <ele>20</ele>
        <time>2015-07-07T09:15:57.000Z</time>
      </trkpt>
      <trkpt lat="47.46016" lon="-0.57828">
        <ele>20</ele>
        <time>2015-07-07T09:15:58.000Z</time>
      </trkpt>
      <trkpt lat="47.46019" lon="-0.57827">
        <ele>21</ele>
        <time>2015-07-07T09:15:59.000Z</time>
      </trkpt>
      <trkpt lat="47.46021" lon="-0.57825">
        <ele>22</ele>
        <time>2015-07-07T09:16:00.000Z</time>
      </trkpt>
      <trkpt lat="47.46024" lon="-0.57823">
        <ele>22</ele>
        <time>2015-07-07T09:16:01.000Z</time>
      </trkpt>
      <trkpt lat="47.46027" lon="-0.57821">
        <ele>21</ele>
        <time>2015-07-07T09:16:02.000Z</time>
      </trkpt>
      <trkpt lat="47.46031" lon="-0.57819">
        <ele>21</ele>
        <time>2015-07-07T09:16:03.000Z</time>
      </trkpt>
      <trkpt lat="47.46034" lon="-0.57818">
        <ele>21</ele>
        <time>2015-07-07T09:16:04.000Z</time>
      </trkpt>
      <trkpt lat="47.46037" lon="-0.57816">
        <ele>21</ele>
        <time>2015-07-07T09:16:05.000Z</time>
      </trkpt>
      <trkpt lat="47.46039" lon="-0.57814">
        <ele>20</ele>
        <time>2015-07-07T09:16:06.000Z</time>
      </trkpt>
      <trkpt lat="47.46042" lon="-0.57812">
        <ele>21</ele>
        <time>2015-07-07T09:16:07.000Z</time>
      </trkpt>
      <trkpt lat="47.46044" lon="-0.5781">
        <ele>20</ele>
        <time>2015-07-07T09:16:08.000Z</time>
      </trkpt>
      <trkpt lat="47.46047" lon="-0.57809">
        <ele>19</ele>
        <time>2015-07-07T09:16:09.000Z</time>
      </trkpt>
      <trkpt lat="47.46049" lon="-0.57807">
        <ele>20</ele>
        <time>2015-07-07T09:16:10.000Z</time>
      </trkpt>
      <trkpt lat="47.46052" lon="-0.57805">
        <ele>20</ele>
        <time>2015-07-07T09:16:11.000Z</time>
      </trkpt>
      <trkpt lat="47.46055" lon="-0.57803">
        <ele>21</ele>
        <time>2015-07-07T09:16:12.000Z</time>
      </trkpt>
      <trkpt lat="47.46058" lon="-0.57801">
        <ele>20</ele>
        <time>2015-07-07T09:16:13.000Z</time>
      </trkpt>
      <trkpt lat="47.46061" lon="-0.578">
        <ele>21</ele>
        <time>2015-07-07T09:16:14.000Z</time>
      </trkpt>
      <trkpt lat="47.46063" lon="-0.57798">
        <ele>21</ele>
        <time>2015-07-07T09:16:15.000Z</time>
      </trkpt>
      <trkpt lat="47.46066" lon="-0.57797">
        <ele>21</ele>
        <time>2015-07-07T09:16:16.000Z</time>
      </trkpt>
      <trkpt lat="47.46069" lon="-0.57795">
        <ele>22</ele>
        <time>2015-07-07T09:16:17.000Z</time>
      </trkpt>
      <trkpt lat="47.46072" lon="-0.57795">
        <ele>22</ele>
        <time>2015-07-07T09:16:18.000Z</time>
      </trkpt>
      <trkpt lat="47.46075" lon="-0.57793">
        <ele>22</ele>
        <time>2015-07-07T09:16:19.000Z</time>
      </trkpt>
      <trkpt lat="47.46078" lon="-0.57792">
        <ele>23</ele>
        <time>2015-07-07T09:16:20.000Z</time>
      </trkpt>
      <trkpt lat="47.46081" lon="-0.57791">
        <ele>23</ele>
        <time>2015-07-07T09:16:21.000Z</time>
      </trkpt>
      <trkpt lat="47.46084" lon="-0.5779">
        <ele>22</ele>
        <time>2015-07-07T09:16:22.000Z</time>
      </trkpt>
      <trkpt lat="47.46087" lon="-0.57789">
        <ele>22</ele>
        <time>2015-07-07T09:16:23.000Z</time>
      </trkpt>
      <trkpt lat="47.4609" lon="-0.57788">
        <ele>22</ele>
        <time>2015-07-07T09:16:24.000Z</time>
      </trkpt>
      <trkpt lat="47.46092" lon="-0.57787">
        <ele>22</ele>
        <time>2015-07-07T09:16:25.000Z</time>
      </trkpt>
      <trkpt lat="47.46095" lon="-0.57785">
        <ele>22</ele>
        <time>2015-07-07T09:16:26.000Z</time>
      </trkpt>
      <trkpt lat="47.46098" lon="-0.57784">
        <ele>22</ele>
        <time>2015-07-07T09:16:27.000Z</time>
      </trkpt>
      <trkpt lat="47.461" lon="-0.57783">
        <ele>22</ele>
        <time>2015-07-07T09:16:28.000Z</time>
      </trkpt>
      <trkpt lat="47.46103" lon="-0.57782">
        <ele>22</ele>
        <time>2015-07-07T09:16:29.000Z</time>
      </trkpt>
      <trkpt lat="47.46106" lon="-0.5778">
        <ele>22</ele>
        <time>2015-07-07T09:16:30.000Z</time>
      </trkpt>
      <trkpt lat="47.46108" lon="-0.57779">
        <ele>22</ele>
        <time>2015-07-07T09:16:31.000Z</time>
      </trkpt>
      <trkpt lat="47.46111" lon="-0.57777">
        <ele>22</ele>
        <time>2015-07-07T09:16:32.000Z</time>
      </trkpt>
      <trkpt lat="47.46113" lon="-0.57776">
        <ele>22</ele>
        <time>2015-07-07T09:16:33.000Z</time>
      </trkpt>
      <trkpt lat="47.46116" lon="-0.57775">
        <ele>22</ele>
        <time>2015-07-07T09:16:34.000Z</time>
      </trkpt>
      <trkpt lat="47.46119" lon="-0.57773">
        <ele>23</ele>
        <time>2015-07-07T09:16:35.000Z</time>
      </trkpt>
      <trkpt lat="47.46121" lon="-0.57771">
        <ele>23</ele>
        <time>2015-07-07T09:16:36.000Z</time>
      </trkpt>
      <trkpt lat="47.46124" lon="-0.5777">
        <ele>22</ele>
        <time>2015-07-07T09:16:37.000Z</time>
      </trkpt>
      <trkpt lat="47.46127" lon="-0.57769">
        <ele>23</ele>
        <time>2015-07-07T09:16:38.000Z</time>
      </trkpt>
      <trkpt lat="47.4613" lon="-0.57767">
        <ele>24</ele>
        <time>2015-07-07T09:16:39.000Z</time>
      </trkpt>
      <trkpt lat="47.46133" lon="-0.57766">
        <ele>25</ele>
        <time>2015-07-07T09:16:40.000Z</time>
      </trkpt>
      <trkpt lat="47.46136" lon="-0.57764">
        <ele>24</ele>
        <time>2015-07-07T09:16:41.000Z</time>
      </trkpt>
      <trkpt lat="47.46139" lon="-0.57763">
        <ele>24</ele>
        <time>2015-07-07T09:16:42.000Z</time>
      </trkpt>
      <trkpt lat="47.46142" lon="-0.57762">
        <ele>22</ele>
        <time>2015-07-07T09:16:43.000Z</time>
      </trkpt>
      <trkpt lat="47.46144" lon="-0.5776">
        <ele>21</ele>
        <time>2015-07-07T09:16:44.000Z</time>
      </trkpt>
      <trkpt lat="47.46147" lon="-0.57759">
        <ele>21</ele>
        <time>2015-07-07T09:16:45.000Z</time>
      </trkpt>
      <trkpt lat="47.46149" lon="-0.57758">
        <ele>21</ele>
        <time>2015-07-07T09:16:46.000Z</time>
      </trkpt>
      <trkpt lat="47.46152" lon="-0.57757">
        <ele>22</ele>
        <time>2015-07-07T09:16:47.000Z</time>
      </trkpt>
      <trkpt lat="47.46155" lon="-0.57756">
        <ele>20</ele>
        <time>2015-07-07T09:16:48.000Z</time>
      </trkpt>
      <trkpt lat="47.46158" lon="-0.57755">
        <ele>21</ele>
        <time>2015-07-07T09:16:49.000Z</time>
      </trkpt>
      <trkpt lat="47.46161" lon="-0.57753">
        <ele>21</ele>
        <time>2015-07-07T09:16:50.000Z</time>
      </trkpt>
      <trkpt lat="47.46163" lon="-0.57752">
        <ele>21</ele>
        <time>2015-07-07T09:16:51.000Z</time>
      </trkpt>
      <trkpt lat="47.46166" lon="-0.5775">
        <ele>22</ele>
        <time>2015-07-07T09:16:52.000Z</time>
      </trkpt>
      <trkpt lat="47.46169" lon="-0.57748">
        <ele>21</ele>
        <time>2015-07-07T09:16:53.000Z</time>
      </trkpt>
      <trkpt lat="47.46172" lon="-0.57746">
        <ele>21</ele>
        <time>2015-07-07T09:16:54.000Z</time>
      </trkpt>
      <trkpt lat="47.46175" lon="-0.57744">
        <ele>21</ele>
        <time>2015-07-07T09:16:55.000Z</time>
      </trkpt>
      <trkpt lat="47.46177" lon="-0.57742">
        <ele>21</ele>
        <time>2015-07-07T09:16:56.000Z</time>
      </trkpt>
      <trkpt lat="47.4618" lon="-0.5774">
        <ele>22</ele>
        <time>2015-07-07T09:16:57.000Z</time>
      </trkpt>
      <trkpt lat="47.46183" lon="-0.57739">
        <ele>22</ele>
        <time>2015-07-07T09:16:58.000Z</time>
      </trkpt>
      <trkpt lat="47.46185" lon="-0.57737">
        <ele>21</ele>
        <time>2015-07-07T09:16:59.000Z</time>
      </trkpt>
      <trkpt lat="47.46188" lon="-0.57736">
        <ele>21</ele>
        <time>2015-07-07T09:17:00.000Z</time>
      </trkpt>
      <trkpt lat="47.46191" lon="-0.57734">
        <ele>21</ele>
        <time>2015-07-07T09:17:01.000Z</time>
      </trkpt>
      <trkpt lat="47.46194" lon="-0.57733">
        <ele>21</ele>
        <time>2015-07-07T09:17:02.000Z</time>
      </trkpt>
      <trkpt lat="47.46196" lon="-0.57731">
        <ele>21</ele>
        <time>2015-07-07T09:17:03.000Z</time>
      </trkpt>
      <trkpt lat="47.46199" lon="-0.5773">
        <ele>20</ele>
        <time>2015-07-07T09:17:04.000Z</time>
      </trkpt>
      <trkpt lat="47.46202" lon="-0.57729">
        <ele>20</ele>
        <time>2015-07-07T09:17:05.000Z</time>
      </trkpt>
      <trkpt lat="47.46205" lon="-0.57728">
        <ele>20</ele>
        <time>2015-07-07T09:17:06.000Z</time>
      </trkpt>
      <trkpt lat="47.46208" lon="-0.57727">
        <ele>21</ele>
        <time>2015-07-07T09:17:07.000Z</time>
      </trkpt>
      <trkpt lat="47.46211" lon="-0.57727">
        <ele>21</ele>
        <time>2015-07-07T09:17:08.000Z</time>
      </trkpt>
      <trkpt lat="47.46215" lon="-0.57726">
        <ele>21</ele>
        <time>2015-07-07T09:17:09.000Z</time>
      </trkpt>
      <trkpt lat="47.46218" lon="-0.57724">
        <ele>21</ele>
        <time>2015-07-07T09:17:10.000Z</time>
      </trkpt>
      <trkpt lat="47.46222" lon="-0.57723">
        <ele>21</ele>
        <time>2015-07-07T09:17:11.000Z</time>
      </trkpt>
      <trkpt lat="47.46225" lon="-0.57722">
        <ele>20</ele>
        <time>2015-07-07T09:17:12.000Z</time>
      </trkpt>
      <trkpt lat="47.46227" lon="-0.57721">
        <ele>21</ele>
        <time>2015-07-07T09:17:13.000Z</time>
      </trkpt>
      <trkpt lat="47.4623" lon="-0.57719">
        <ele>21</ele>
        <time>2015-07-07T09:17:14.000Z</time>
      </trkpt>
      <trkpt lat="47.46232" lon="-0.57718">
        <ele>22</ele>
        <time>2015-07-07T09:17:15.000Z</time>
      </trkpt>
      <trkpt lat="47.46235" lon="-0.57717">
        <ele>21</ele>
        <time>2015-07-07T09:17:16.000Z</time>
      </trkpt>
      <trkpt lat="47.46238" lon="-0.57716">
        <ele>22</ele>
        <time>2015-07-07T09:17:17.000Z</time>
      </trkpt>
      <trkpt lat="47.46241" lon="-0.57715">
        <ele>22</ele>
        <time>2015-07-07T09:17:18.000Z</time>
      </trkpt>
      <trkpt lat="47.46244" lon="-0.57713">
        <ele>22</ele>
        <time>2015-07-07T09:17:19.000Z</time>
      </trkpt>
      <trkpt lat="47.46248" lon="-0.57712">
        <ele>22</ele>
        <time>2015-07-07T09:17:20.000Z</time>
      </trkpt>
      <trkpt lat="47.46251" lon="-0.5771">
        <ele>22</ele>
        <time>2015-07-07T09:17:21.000Z</time>
      </trkpt>
      <trkpt lat="47.46255" lon="-0.57708">
        <ele>23</ele>
        <time>2015-07-07T09:17:22.000Z</time>
      </trkpt>
      <trkpt lat="47.46259" lon="-0.57707">
        <ele>23</ele>
        <time>2015-07-07T09:17:23.000Z</time>
      </trkpt>
      <trkpt lat="47.46262" lon="-0.57705">
        <ele>23</ele>
        <time>2015-07-07T09:17:24.000Z</time>
      </trkpt>
      <trkpt lat="47.46265" lon="-0.57703">
        <ele>24</ele>
        <time>2015-07-07T09:17:25.000Z</time>
      </trkpt>
      <trkpt lat="47.46269" lon="-0.57701">
        <ele>24</ele>
        <time>2015-07-07T09:17:26.000Z</time>
      </trkpt>
      <trkpt lat="47.46272" lon="-0.57699">
        <ele>23</ele>
        <time>2015-07-07T09:17:27.000Z</time>
      </trkpt>
      <trkpt lat="47.46275" lon="-0.57697">
        <ele>23</ele>
        <time>2015-07-07T09:17:28.000Z</time>
      </trkpt>
      <trkpt lat="47.46278" lon="-0.57696">
        <ele>24</ele>
        <time>2015-07-07T09:17:29.000Z</time>
      </trkpt>
      <trkpt lat="47.46281" lon="-0.57694">
        <ele>24</ele>
        <time>2015-07-07T09:17:30.000Z</time>
      </trkpt>
      <trkpt lat="47.46284" lon="-0.57692">
        <ele>24</ele>
        <time>2015-07-07T09:17:31.000Z</time>
      </trkpt>
      <trkpt lat="47.46287" lon="-0.57691">
        <ele>24</ele>
        <time>2015-07-07T09:17:32.000Z</time>
      </trkpt>
      <trkpt lat="47.4629" lon="-0.5769">
        <ele>24</ele>
        <time>2015-07-07T09:17:33.000Z</time>
      </trkpt>
      <trkpt lat="47.46293" lon="-0.57689">
        <ele>23</ele>
        <time>2015-07-07T09:17:34.000Z</time>
      </trkpt>
      <trkpt lat="47.46296" lon="-0.57687">
        <ele>23</ele>
        <time>2015-07-07T09:17:35.000Z</time>
      </trkpt>
      <trkpt lat="47.46299" lon="-0.57686">
        <ele>23</ele>
        <time>2015-07-07T09:17:36.000Z</time>
      </trkpt>
      <trkpt lat="47.46302" lon="-0.57684">
        <ele>22</ele>
        <time>2015-07-07T09:17:37.000Z</time>
      </trkpt>
      <trkpt lat="47.46305" lon="-0.57683">
        <ele>22</ele>
        <time>2015-07-07T09:17:38.000Z</time>
      </trkpt>
      <trkpt lat="47.46308" lon="-0.57681">
        <ele>22</ele>
        <time>2015-07-07T09:17:39.000Z</time>
      </trkpt>
      <trkpt lat="47.46311" lon="-0.57679">
        <ele>22</ele>
        <time>2015-07-07T09:17:40.000Z</time>
      </trkpt>
      <trkpt lat="47.46313" lon="-0.57677">
        <ele>22</ele>
        <time>2015-07-07T09:17:41.000Z</time>
      </trkpt>
      <trkpt lat="47.46316" lon="-0.57675">
        <ele>21</ele>
        <time>2015-07-07T09:17:42.000Z</time>
      </trkpt>
      <trkpt lat="47.46319" lon="-0.57674">
        <ele>21</ele>
        <time>2015-07-07T09:17:43.000Z</time>
      </trkpt>
      <trkpt lat="47.46321" lon="-0.57672">
        <ele>21</ele>
        <time>2015-07-07T09:17:44.000Z</time>
      </trkpt>
      <trkpt lat="47.46324" lon="-0.57671">
        <ele>20</ele>
        <time>2015-07-07T09:17:45.000Z</time>
      </trkpt>
      <trkpt lat="47.46326" lon="-0.5767">
        <ele>20</ele>
        <time>2015-07-07T09:17:46.000Z</time>
      </trkpt>
      <trkpt lat="47.46329" lon="-0.57668">
        <ele>20</ele>
        <time>2015-07-07T09:17:47.000Z</time>
      </trkpt>
      <trkpt lat="47.46331" lon="-0.57667">
        <ele>20</ele>
        <time>2015-07-07T09:17:48.000Z</time>
      </trkpt>
      <trkpt lat="47.46333" lon="-0.57666">
        <ele>19</ele>
        <time>2015-07-07T09:17:49.000Z</time>
      </trkpt>
      <trkpt lat="47.46335" lon="-0.57664">
        <ele>19</ele>
        <time>2015-07-07T09:17:50.000Z</time>
      </trkpt>
      <trkpt lat="47.46338" lon="-0.57662">
        <ele>19</ele>
        <time>2015-07-07T09:17:51.000Z</time>
      </trkpt>
      <trkpt lat="47.4634" lon="-0.5766">
        <ele>18</ele>
        <time>2015-07-07T09:17:52.000Z</time>
      </trkpt>
      <trkpt lat="47.46342" lon="-0.57658">
        <ele>18</ele>
        <time>2015-07-07T09:17:53.000Z</time>
      </trkpt>
      <trkpt lat="47.46345" lon="-0.57657">
        <ele>18</ele>
        <time>2015-07-07T09:17:54.000Z</time>
      </trkpt>
      <trkpt lat="47.46347" lon="-0.57655">
        <ele>18</ele>
        <time>2015-07-07T09:17:55.000Z</time>
      </trkpt>
      <trkpt lat="47.46349" lon="-0.57653">
        <ele>19</ele>
        <time>2015-07-07T09:17:56.000Z</time>
      </trkpt>
      <trkpt lat="47.46352" lon="-0.57651">
        <ele>20</ele>
        <time>2015-07-07T09:17:57.000Z</time>
      </trkpt>
      <trkpt lat="47.46355" lon="-0.5765">
        <ele>21</ele>
        <time>2015-07-07T09:17:58.000Z</time>
      </trkpt>
      <trkpt lat="47.46359" lon="-0.57648">
        <ele>21</ele>
        <time>2015-07-07T09:17:59.000Z</time>
      </trkpt>
      <trkpt lat="47.46362" lon="-0.57646">
        <ele>21</ele>
        <time>2015-07-07T09:18:00.000Z</time>
      </trkpt>
      <trkpt lat="47.46365" lon="-0.57644">
        <ele>22</ele>
        <time>2015-07-07T09:18:01.000Z</time>
      </trkpt>
      <trkpt lat="47.46368" lon="-0.57642">
        <ele>22</ele>
        <time>2015-07-07T09:18:02.000Z</time>
      </trkpt>
      <trkpt lat="47.46371" lon="-0.5764">
        <ele>22</ele>
        <time>2015-07-07T09:18:03.000Z</time>
      </trkpt>
      <trkpt lat="47.46374" lon="-0.57638">
        <ele>21</ele>
        <time>2015-07-07T09:18:04.000Z</time>
      </trkpt>
      <trkpt lat="47.46376" lon="-0.57636">
        <ele>21</ele>
        <time>2015-07-07T09:18:05.000Z</time>
      </trkpt>
      <trkpt lat="47.46379" lon="-0.57634">
        <ele>21</ele>
        <time>2015-07-07T09:18:06.000Z</time>
      </trkpt>
      <trkpt lat="47.46382" lon="-0.57631">
        <ele>21</ele>
        <time>2015-07-07T09:18:07.000Z</time>
      </trkpt>
      <trkpt lat="47.46385" lon="-0.57629">
        <ele>21</ele>
        <time>2015-07-07T09:18:08.000Z</time>
      </trkpt>
      <trkpt lat="47.46387" lon="-0.57626">
        <ele>21</ele>
        <time>2015-07-07T09:18:09.000Z</time>
      </trkpt>
      <trkpt lat="47.4639" lon="-0.57624">
        <ele>20</ele>
        <time>2015-07-07T09:18:10.000Z</time>
      </trkpt>
      <trkpt lat="47.46393" lon="-0.57621">
        <ele>20</ele>
        <time>2015-07-07T09:18:11.000Z</time>
      </trkpt>
      <trkpt lat="47.46395" lon="-0.57619">
        <ele>20</ele>
        <time>2015-07-07T09:18:12.000Z</time>
      </trkpt>
      <trkpt lat="47.46398" lon="-0.57617">
        <ele>20</ele>
        <time>2015-07-07T09:18:13.000Z</time>
      </trkpt>
      <trkpt lat="47.464" lon="-0.57614">
        <ele>20</ele>
        <time>2015-07-07T09:18:14.000Z</time>
      </trkpt>
      <trkpt lat="47.46402" lon="-0.57612">
        <ele>20</ele>
        <time>2015-07-07T09:18:15.000Z</time>
      </trkpt>
      <trkpt lat="47.46404" lon="-0.5761">
        <ele>20</ele>
        <time>2015-07-07T09:18:16.000Z</time>
      </trkpt>
      <trkpt lat="47.46406" lon="-0.57608">
        <ele>20</ele>
        <time>2015-07-07T09:18:17.000Z</time>
      </trkpt>
      <trkpt lat="47.46408" lon="-0.57606">
        <ele>19</ele>
        <time>2015-07-07T09:18:18.000Z</time>
      </trkpt>
      <trkpt lat="47.4641" lon="-0.57604">
        <ele>18</ele>
        <time>2015-07-07T09:18:19.000Z</time>
      </trkpt>
      <trkpt lat="47.46412" lon="-0.57602">
        <ele>17</ele>
        <time>2015-07-07T09:18:20.000Z</time>
      </trkpt>
      <trkpt lat="47.46414" lon="-0.576">
        <ele>16</ele>
        <time>2015-07-07T09:18:21.000Z</time>
      </trkpt>
      <trkpt lat="47.46416" lon="-0.57598">
        <ele>15</ele>
        <time>2015-07-07T09:18:22.000Z</time>
      </trkpt>
      <trkpt lat="47.46418" lon="-0.57596">
        <ele>15</ele>
        <time>2015-07-07T09:18:23.000Z</time>
      </trkpt>
      <trkpt lat="47.46421" lon="-0.57593">
        <ele>14</ele>
        <time>2015-07-07T09:18:24.000Z</time>
      </trkpt>
      <trkpt lat="47.46422" lon="-0.57592">
        <ele>13</ele>
        <time>2015-07-07T09:18:25.000Z</time>
      </trkpt>
      <trkpt lat="47.46424" lon="-0.5759">
        <ele>13</ele>
        <time>2015-07-07T09:18:26.000Z</time>
      </trkpt>
      <trkpt lat="47.46426" lon="-0.57588">
        <ele>13</ele>
        <time>2015-07-07T09:18:27.000Z</time>
      </trkpt>
      <trkpt lat="47.46428" lon="-0.57587">
        <ele>12</ele>
        <time>2015-07-07T09:18:28.000Z</time>
      </trkpt>
      <trkpt lat="47.4643" lon="-0.57586">
        <ele>12</ele>
        <time>2015-07-07T09:18:29.000Z</time>
      </trkpt>
      <trkpt lat="47.46432" lon="-0.57584">
        <ele>12</ele>
        <time>2015-07-07T09:18:30.000Z</time>
      </trkpt>
      <trkpt lat="47.46435" lon="-0.57583">
        <ele>12</ele>
        <time>2015-07-07T09:18:31.000Z</time>
      </trkpt>
      <trkpt lat="47.46437" lon="-0.5758">
        <ele>16</ele>
        <time>2015-07-07T09:18:32.000Z</time>
      </trkpt>
      <trkpt lat="47.4644" lon="-0.57576">
        <ele>18</ele>
        <time>2015-07-07T09:18:33.000Z</time>
      </trkpt>
      <trkpt lat="47.46442" lon="-0.57573">
        <ele>18</ele>
        <time>2015-07-07T09:18:34.000Z</time>
      </trkpt>
      <trkpt lat="47.46445" lon="-0.5757">
        <ele>18</ele>
        <time>2015-07-07T09:18:35.000Z</time>
      </trkpt>
      <trkpt lat="47.46447" lon="-0.57567">
        <ele>18</ele>
        <time>2015-07-07T09:18:36.000Z</time>
      </trkpt>
      <trkpt lat="47.46449" lon="-0.57564">
        <ele>17</ele>
        <time>2015-07-07T09:18:37.000Z</time>
      </trkpt>
      <trkpt lat="47.46451" lon="-0.57562">
        <ele>17</ele>
        <time>2015-07-07T09:18:38.000Z</time>
      </trkpt>
      <trkpt lat="47.46453" lon="-0.5756">
        <ele>18</ele>
        <time>2015-07-07T09:18:39.000Z</time>
      </trkpt>
      <trkpt lat="47.46455" lon="-0.57558">
        <ele>18</ele>
        <time>2015-07-07T09:18:40.000Z</time>
      </trkpt>
      <trkpt lat="47.46458" lon="-0.57556">
        <ele>17</ele>
        <time>2015-07-07T09:18:41.000Z</time>
      </trkpt>
      <trkpt lat="47.46459" lon="-0.57554">
        <ele>17</ele>
        <time>2015-07-07T09:18:42.000Z</time>
      </trkpt>
      <trkpt lat="47.46461" lon="-0.57552">
        <ele>18</ele>
        <time>2015-07-07T09:18:43.000Z</time>
      </trkpt>
      <trkpt lat="47.46463" lon="-0.5755">
        <ele>18</ele>
        <time>2015-07-07T09:18:44.000Z</time>
      </trkpt>
      <trkpt lat="47.46465" lon="-0.57548">
        <ele>18</ele>
        <time>2015-07-07T09:18:45.000Z</time>
      </trkpt>
      <trkpt lat="47.46467" lon="-0.57546">
        <ele>18</ele>
        <time>2015-07-07T09:18:46.000Z</time>
      </trkpt>
      <trkpt lat="47.46469" lon="-0.57544">
        <ele>18</ele>
        <time>2015-07-07T09:18:47.000Z</time>
      </trkpt>
      <trkpt lat="47.46472" lon="-0.57542">
        <ele>18</ele>
        <time>2015-07-07T09:18:48.000Z</time>
      </trkpt>
      <trkpt lat="47.46474" lon="-0.5754">
        <ele>18</ele>
        <time>2015-07-07T09:18:49.000Z</time>
      </trkpt>
      <trkpt lat="47.46476" lon="-0.57538">
        <ele>18</ele>
        <time>2015-07-07T09:18:50.000Z</time>
      </trkpt>
      <trkpt lat="47.46478" lon="-0.57537">
        <ele>19</ele>
        <time>2015-07-07T09:18:51.000Z</time>
      </trkpt>
      <trkpt lat="47.46481" lon="-0.57535">
        <ele>19</ele>
        <time>2015-07-07T09:18:52.000Z</time>
      </trkpt>
      <trkpt lat="47.46483" lon="-0.57533">
        <ele>21</ele>
        <time>2015-07-07T09:18:53.000Z</time>
      </trkpt>
      <trkpt lat="47.46484" lon="-0.57531">
        <ele>21</ele>
        <time>2015-07-07T09:18:54.000Z</time>
      </trkpt>
      <trkpt lat="47.46486" lon="-0.57529">
        <ele>21</ele>
        <time>2015-07-07T09:18:55.000Z</time>
      </trkpt>
      <trkpt lat="47.46488" lon="-0.57528">
        <ele>20</ele>
        <time>2015-07-07T09:18:56.000Z</time>
      </trkpt>
      <trkpt lat="47.4649" lon="-0.57525">
        <ele>19</ele>
        <time>2015-07-07T09:18:57.000Z</time>
      </trkpt>
      <trkpt lat="47.46492" lon="-0.57523">
        <ele>19</ele>
        <time>2015-07-07T09:18:58.000Z</time>
      </trkpt>
      <trkpt lat="47.46494" lon="-0.5752">
        <ele>18</ele>
        <time>2015-07-07T09:18:59.000Z</time>
      </trkpt>
      <trkpt lat="47.46496" lon="-0.57518">
        <ele>17</ele>
        <time>2015-07-07T09:19:00.000Z</time>
      </trkpt>
      <trkpt lat="47.46498" lon="-0.57515">
        <ele>17</ele>
        <time>2015-07-07T09:19:01.000Z</time>
      </trkpt>
      <trkpt lat="47.465" lon="-0.57512">
        <ele>16</ele>
        <time>2015-07-07T09:19:02.000Z</time>
      </trkpt>
      <trkpt lat="47.46503" lon="-0.57509">
        <ele>16</ele>
        <time>2015-07-07T09:19:03.000Z</time>
      </trkpt>
      <trkpt lat="47.46505" lon="-0.57505">
        <ele>16</ele>
        <time>2015-07-07T09:19:04.000Z</time>
      </trkpt>
      <trkpt lat="47.46508" lon="-0.57502">
        <ele>15</ele>
        <time>2015-07-07T09:19:05.000Z</time>
      </trkpt>
      <trkpt lat="47.4651" lon="-0.57499">
        <ele>15</ele>
        <time>2015-07-07T09:19:06.000Z</time>
      </trkpt>
      <trkpt lat="47.46512" lon="-0.57497">
        <ele>14</ele>
        <time>2015-07-07T09:19:07.000Z</time>
      </trkpt>
      <trkpt lat="47.46514" lon="-0.57494">
        <ele>14</ele>
        <time>2015-07-07T09:19:08.000Z</time>
      </trkpt>
      <trkpt lat="47.46516" lon="-0.57492">
        <ele>14</ele>
        <time>2015-07-07T09:19:09.000Z</time>
      </trkpt>
      <trkpt lat="47.46518" lon="-0.5749">
        <ele>14</ele>
        <time>2015-07-07T09:19:10.000Z</time>
      </trkpt>
      <trkpt lat="47.46521" lon="-0.57488">
        <ele>14</ele>
        <time>2015-07-07T09:19:11.000Z</time>
      </trkpt>
      <trkpt lat="47.46523" lon="-0.57486">
        <ele>15</ele>
        <time>2015-07-07T09:19:12.000Z</time>
      </trkpt>
      <trkpt lat="47.46526" lon="-0.57484">
        <ele>15</ele>
        <time>2015-07-07T09:19:13.000Z</time>
      </trkpt>
      <trkpt lat="47.46528" lon="-0.57482">
        <ele>15</ele>
        <time>2015-07-07T09:19:14.000Z</time>
      </trkpt>
      <trkpt lat="47.46531" lon="-0.57481">
        <ele>17</ele>
        <time>2015-07-07T09:19:15.000Z</time>
      </trkpt>
      <trkpt lat="47.46534" lon="-0.57479">
        <ele>21</ele>
        <time>2015-07-07T09:19:16.000Z</time>
      </trkpt>
      <trkpt lat="47.46538" lon="-0.57476">
        <ele>21</ele>
        <time>2015-07-07T09:19:17.000Z</time>
      </trkpt>
      <trkpt lat="47.46541" lon="-0.57474">
        <ele>21</ele>
        <time>2015-07-07T09:19:18.000Z</time>
      </trkpt>
      <trkpt lat="47.46545" lon="-0.57472">
        <ele>21</ele>
        <time>2015-07-07T09:19:19.000Z</time>
      </trkpt>
      <trkpt lat="47.46549" lon="-0.57471">
        <ele>23</ele>
        <time>2015-07-07T09:19:20.000Z</time>
      </trkpt>
      <trkpt lat="47.46553" lon="-0.5747">
        <ele>24</ele>
        <time>2015-07-07T09:19:21.000Z</time>
      </trkpt>
      <trkpt lat="47.46556" lon="-0.5747">
        <ele>26</ele>
        <time>2015-07-07T09:19:22.000Z</time>
      </trkpt>
      <trkpt lat="47.4656" lon="-0.5747">
        <ele>26</ele>
        <time>2015-07-07T09:19:23.000Z</time>
      </trkpt>
      <trkpt lat="47.46563" lon="-0.5747">
        <ele>26</ele>
        <time>2015-07-07T09:19:24.000Z</time>
      </trkpt>
      <trkpt lat="47.46567" lon="-0.57471">
        <ele>27</ele>
        <time>2015-07-07T09:19:25.000Z</time>
      </trkpt>
      <trkpt lat="47.4657" lon="-0.57472">
        <ele>27</ele>
        <time>2015-07-07T09:19:26.000Z</time>
      </trkpt>
      <trkpt lat="47.46573" lon="-0.57472">
        <ele>27</ele>
        <time>2015-07-07T09:19:27.000Z</time>
      </trkpt>
      <trkpt lat="47.46576" lon="-0.57473">
        <ele>27</ele>
        <time>2015-07-07T09:19:28.000Z</time>
      </trkpt>
      <trkpt lat="47.46579" lon="-0.57473">
        <ele>27</ele>
        <time>2015-07-07T09:19:29.000Z</time>
      </trkpt>
      <trkpt lat="47.46581" lon="-0.57472">
        <ele>27</ele>
        <time>2015-07-07T09:19:30.000Z</time>
      </trkpt>
      <trkpt lat="47.46584" lon="-0.57471">
        <ele>26</ele>
        <time>2015-07-07T09:19:31.000Z</time>
      </trkpt>
      <trkpt lat="47.46587" lon="-0.57469">
        <ele>26</ele>
        <time>2015-07-07T09:19:32.000Z</time>
      </trkpt>
      <trkpt lat="47.46589" lon="-0.57467">
        <ele>26</ele>
        <time>2015-07-07T09:19:33.000Z</time>
      </trkpt>
      <trkpt lat="47.46591" lon="-0.57464">
        <ele>25</ele>
        <time>2015-07-07T09:19:34.000Z</time>
      </trkpt>
      <trkpt lat="47.46594" lon="-0.57462">
        <ele>26</ele>
        <time>2015-07-07T09:19:35.000Z</time>
      </trkpt>
      <trkpt lat="47.46596" lon="-0.5746">
        <ele>26</ele>
        <time>2015-07-07T09:19:36.000Z</time>
      </trkpt>
      <trkpt lat="47.46598" lon="-0.57457">
        <ele>26</ele>
        <time>2015-07-07T09:19:37.000Z</time>
      </trkpt>
      <trkpt lat="47.46601" lon="-0.57455">
        <ele>25</ele>
        <time>2015-07-07T09:19:38.000Z</time>
      </trkpt>
      <trkpt lat="47.46603" lon="-0.57452">
        <ele>25</ele>
        <time>2015-07-07T09:19:39.000Z</time>
      </trkpt>
      <trkpt lat="47.46605" lon="-0.57449">
        <ele>25</ele>
        <time>2015-07-07T09:19:40.000Z</time>
      </trkpt>
      <trkpt lat="47.46607" lon="-0.57447">
        <ele>25</ele>
        <time>2015-07-07T09:19:41.000Z</time>
      </trkpt>
      <trkpt lat="47.4661" lon="-0.57444">
        <ele>24</ele>
        <time>2015-07-07T09:19:42.000Z</time>
      </trkpt>
      <trkpt lat="47.46612" lon="-0.57441">
        <ele>24</ele>
        <time>2015-07-07T09:19:43.000Z</time>
      </trkpt>
      <trkpt lat="47.46614" lon="-0.57438">
        <ele>24</ele>
        <time>2015-07-07T09:19:44.000Z</time>
      </trkpt>
      <trkpt lat="47.46616" lon="-0.57436">
        <ele>24</ele>
        <time>2015-07-07T09:19:45.000Z</time>
      </trkpt>
      <trkpt lat="47.46619" lon="-0.57433">
        <ele>24</ele>
        <time>2015-07-07T09:19:46.000Z</time>
      </trkpt>
      <trkpt lat="47.46621" lon="-0.5743">
        <ele>23</ele>
        <time>2015-07-07T09:19:47.000Z</time>
      </trkpt>
      <trkpt lat="47.46623" lon="-0.57428">
        <ele>24</ele>
        <time>2015-07-07T09:19:48.000Z</time>
      </trkpt>
      <trkpt lat="47.46625" lon="-0.57426">
        <ele>23</ele>
        <time>2015-07-07T09:19:49.000Z</time>
      </trkpt>
      <trkpt lat="47.46627" lon="-0.57423">
        <ele>24</ele>
        <time>2015-07-07T09:19:50.000Z</time>
      </trkpt>
      <trkpt lat="47.4663" lon="-0.57421">
        <ele>23</ele>
        <time>2015-07-07T09:19:51.000Z</time>
      </trkpt>
      <trkpt lat="47.46632" lon="-0.57418">
        <ele>24</ele>
        <time>2015-07-07T09:19:52.000Z</time>
      </trkpt>
      <trkpt lat="47.46635" lon="-0.57415">
        <ele>24</ele>
        <time>2015-07-07T09:19:53.000Z</time>
      </trkpt>
      <trkpt lat="47.46637" lon="-0.57412">
        <ele>23</ele>
        <time>2015-07-07T09:19:54.000Z</time>
      </trkpt>
      <trkpt lat="47.4664" lon="-0.5741">
        <ele>23</ele>
        <time>2015-07-07T09:19:55.000Z</time>
      </trkpt>
      <trkpt lat="47.46642" lon="-0.57408">
        <ele>23</ele>
        <time>2015-07-07T09:19:56.000Z</time>
      </trkpt>
      <trkpt lat="47.46644" lon="-0.57405">
        <ele>22</ele>
        <time>2015-07-07T09:19:57.000Z</time>
      </trkpt>
      <trkpt lat="47.46647" lon="-0.57402">
        <ele>22</ele>
        <time>2015-07-07T09:19:58.000Z</time>
      </trkpt>
      <trkpt lat="47.4665" lon="-0.57399">
        <ele>23</ele>
        <time>2015-07-07T09:19:59.000Z</time>
      </trkpt>
      <trkpt lat="47.46652" lon="-0.57397">
        <ele>23</ele>
        <time>2015-07-07T09:20:00.000Z</time>
      </trkpt>
      <trkpt lat="47.46654" lon="-0.57395">
        <ele>22</ele>
        <time>2015-07-07T09:20:01.000Z</time>
      </trkpt>
      <trkpt lat="47.46657" lon="-0.57392">
        <ele>22</ele>
        <time>2015-07-07T09:20:02.000Z</time>
      </trkpt>
      <trkpt lat="47.46659" lon="-0.57389">
        <ele>22</ele>
        <time>2015-07-07T09:20:03.000Z</time>
      </trkpt>
      <trkpt lat="47.46661" lon="-0.57387">
        <ele>22</ele>
        <time>2015-07-07T09:20:04.000Z</time>
      </trkpt>
      <trkpt lat="47.46664" lon="-0.57384">
        <ele>22</ele>
        <time>2015-07-07T09:20:05.000Z</time>
      </trkpt>
      <trkpt lat="47.46666" lon="-0.57382">
        <ele>22</ele>
        <time>2015-07-07T09:20:06.000Z</time>
      </trkpt>
      <trkpt lat="47.46669" lon="-0.5738">
        <ele>22</ele>
        <time>2015-07-07T09:20:07.000Z</time>
      </trkpt>
      <trkpt lat="47.46671" lon="-0.57377">
        <ele>23</ele>
        <time>2015-07-07T09:20:08.000Z</time>
      </trkpt>
      <trkpt lat="47.46674" lon="-0.57374">
        <ele>23</ele>
        <time>2015-07-07T09:20:09.000Z</time>
      </trkpt>
      <trkpt lat="47.46676" lon="-0.57372">
        <ele>24</ele>
        <time>2015-07-07T09:20:10.000Z</time>
      </trkpt>
      <trkpt lat="47.46678" lon="-0.57369">
        <ele>24</ele>
        <time>2015-07-07T09:20:11.000Z</time>
      </trkpt>
      <trkpt lat="47.4668" lon="-0.57366">
        <ele>24</ele>
        <time>2015-07-07T09:20:12.000Z</time>
      </trkpt>
      <trkpt lat="47.46683" lon="-0.57363">
        <ele>25</ele>
        <time>2015-07-07T09:20:13.000Z</time>
      </trkpt>
      <trkpt lat="47.46685" lon="-0.5736">
        <ele>25</ele>
        <time>2015-07-07T09:20:14.000Z</time>
      </trkpt>
      <trkpt lat="47.46687" lon="-0.57357">
        <ele>26</ele>
        <time>2015-07-07T09:20:15.000Z</time>
      </trkpt>
      <trkpt lat="47.4669" lon="-0.57354">
        <ele>26</ele>
        <time>2015-07-07T09:20:16.000Z</time>
      </trkpt>
      <trkpt lat="47.46692" lon="-0.57351">
        <ele>26</ele>
        <time>2015-07-07T09:20:17.000Z</time>
      </trkpt>
      <trkpt lat="47.46694" lon="-0.57348">
        <ele>25</ele>
        <time>2015-07-07T09:20:18.000Z</time>
      </trkpt>
      <trkpt lat="47.46697" lon="-0.57345">
        <ele>25</ele>
        <time>2015-07-07T09:20:19.000Z</time>
      </trkpt>
      <trkpt lat="47.46699" lon="-0.57342">
        <ele>25</ele>
        <time>2015-07-07T09:20:20.000Z</time>
      </trkpt>
      <trkpt lat="47.46701" lon="-0.5734">
        <ele>25</ele>
        <time>2015-07-07T09:20:21.000Z</time>
      </trkpt>
      <trkpt lat="47.46703" lon="-0.57337">
        <ele>25</ele>
        <time>2015-07-07T09:20:22.000Z</time>
      </trkpt>
      <trkpt lat="47.46705" lon="-0.57334">
        <ele>25</ele>
        <time>2015-07-07T09:20:23.000Z</time>
      </trkpt>
      <trkpt lat="47.46707" lon="-0.57331">
        <ele>25</ele>
        <time>2015-07-07T09:20:24.000Z</time>
      </trkpt>
      <trkpt lat="47.4671" lon="-0.57328">
        <ele>25</ele>
        <time>2015-07-07T09:20:25.000Z</time>
      </trkpt>
      <trkpt lat="47.46712" lon="-0.57326">
        <ele>25</ele>
        <time>2015-07-07T09:20:26.000Z</time>
      </trkpt>
      <trkpt lat="47.46714" lon="-0.57323">
        <ele>24</ele>
        <time>2015-07-07T09:20:27.000Z</time>
      </trkpt>
      <trkpt lat="47.46716" lon="-0.5732">
        <ele>24</ele>
        <time>2015-07-07T09:20:28.000Z</time>
      </trkpt>
      <trkpt lat="47.46718" lon="-0.57317">
        <ele>24</ele>
        <time>2015-07-07T09:20:29.000Z</time>
      </trkpt>
      <trkpt lat="47.4672" lon="-0.57314">
        <ele>23</ele>
        <time>2015-07-07T09:20:30.000Z</time>
      </trkpt>
      <trkpt lat="47.46722" lon="-0.57311">
        <ele>23</ele>
        <time>2015-07-07T09:20:31.000Z</time>
      </trkpt>
      <trkpt lat="47.46725" lon="-0.57308">
        <ele>22</ele>
        <time>2015-07-07T09:20:32.000Z</time>
      </trkpt>
      <trkpt lat="47.46727" lon="-0.57306">
        <ele>22</ele>
        <time>2015-07-07T09:20:33.000Z</time>
      </trkpt>
      <trkpt lat="47.46729" lon="-0.57303">
        <ele>22</ele>
        <time>2015-07-07T09:20:34.000Z</time>
      </trkpt>
      <trkpt lat="47.46731" lon="-0.573">
        <ele>22</ele>
        <time>2015-07-07T09:20:35.000Z</time>
      </trkpt>
      <trkpt lat="47.46733" lon="-0.57297">
        <ele>22</ele>
        <time>2015-07-07T09:20:36.000Z</time>
      </trkpt>
      <trkpt lat="47.46735" lon="-0.57294">
        <ele>21</ele>
        <time>2015-07-07T09:20:37.000Z</time>
      </trkpt>
      <trkpt lat="47.46737" lon="-0.57291">
        <ele>21</ele>
        <time>2015-07-07T09:20:38.000Z</time>
      </trkpt>
      <trkpt lat="47.46739" lon="-0.57288">
        <ele>21</ele>
        <time>2015-07-07T09:20:39.000Z</time>
      </trkpt>
      <trkpt lat="47.4674" lon="-0.57285">
        <ele>20</ele>
        <time>2015-07-07T09:20:40.000Z</time>
      </trkpt>
      <trkpt lat="47.46742" lon="-0.57281">
        <ele>20</ele>
        <time>2015-07-07T09:20:41.000Z</time>
      </trkpt>
      <trkpt lat="47.46744" lon="-0.57278">
        <ele>20</ele>
        <time>2015-07-07T09:20:42.000Z</time>
      </trkpt>
      <trkpt lat="47.46746" lon="-0.57275">
        <ele>20</ele>
        <time>2015-07-07T09:20:43.000Z</time>
      </trkpt>
      <trkpt lat="47.46748" lon="-0.57272">
        <ele>21</ele>
        <time>2015-07-07T09:20:44.000Z</time>
      </trkpt>
      <trkpt lat="47.4675" lon="-0.57269">
        <ele>20</ele>
        <time>2015-07-07T09:20:45.000Z</time>
      </trkpt>
      <trkpt lat="47.46752" lon="-0.57265">
        <ele>20</ele>
        <time>2015-07-07T09:20:46.000Z</time>
      </trkpt>
      <trkpt lat="47.46753" lon="-0.57262">
        <ele>20</ele>
        <time>2015-07-07T09:20:47.000Z</time>
      </trkpt>
      <trkpt lat="47.46755" lon="-0.57259">
        <ele>20</ele>
        <time>2015-07-07T09:20:48.000Z</time>
      </trkpt>
      <trkpt lat="47.46757" lon="-0.57256">
        <ele>20</ele>
        <time>2015-07-07T09:20:49.000Z</time>
      </trkpt>
      <trkpt lat="47.46759" lon="-0.57253">
        <ele>21</ele>
        <time>2015-07-07T09:20:50.000Z</time>
      </trkpt>
      <trkpt lat="47.46761" lon="-0.5725">
        <ele>21</ele>
        <time>2015-07-07T09:20:51.000Z</time>
      </trkpt>
      <trkpt lat="47.46764" lon="-0.57247">
        <ele>21</ele>
        <time>2015-07-07T09:20:52.000Z</time>
      </trkpt>
      <trkpt lat="47.46765" lon="-0.57244">
        <ele>19</ele>
        <time>2015-07-07T09:20:53.000Z</time>
      </trkpt>
      <trkpt lat="47.46767" lon="-0.5724">
        <ele>20</ele>
        <time>2015-07-07T09:20:54.000Z</time>
      </trkpt>
      <trkpt lat="47.46769" lon="-0.57237">
        <ele>19</ele>
        <time>2015-07-07T09:20:55.000Z</time>
      </trkpt>
      <trkpt lat="47.46771" lon="-0.57234">
        <ele>20</ele>
        <time>2015-07-07T09:20:56.000Z</time>
      </trkpt>
      <trkpt lat="47.46772" lon="-0.57231">
        <ele>19</ele>
        <time>2015-07-07T09:20:57.000Z</time>
      </trkpt>
      <trkpt lat="47.46774" lon="-0.57227">
        <ele>19</ele>
        <time>2015-07-07T09:20:58.000Z</time>
      </trkpt>
      <trkpt lat="47.46776" lon="-0.57224">
        <ele>20</ele>
        <time>2015-07-07T09:20:59.000Z</time>
      </trkpt>
      <trkpt lat="47.46778" lon="-0.57221">
        <ele>20</ele>
        <time>2015-07-07T09:21:00.000Z</time>
      </trkpt>
      <trkpt lat="47.4678" lon="-0.57218">
        <ele>20</ele>
        <time>2015-07-07T09:21:01.000Z</time>
      </trkpt>
      <trkpt lat="47.46782" lon="-0.57214">
        <ele>20</ele>
        <time>2015-07-07T09:21:02.000Z</time>
      </trkpt>
      <trkpt lat="47.46784" lon="-0.57212">
        <ele>21</ele>
        <time>2015-07-07T09:21:03.000Z</time>
      </trkpt>
      <trkpt lat="47.46787" lon="-0.57209">
        <ele>21</ele>
        <time>2015-07-07T09:21:04.000Z</time>
      </trkpt>
      <trkpt lat="47.46789" lon="-0.57206">
        <ele>20</ele>
        <time>2015-07-07T09:21:05.000Z</time>
      </trkpt>
      <trkpt lat="47.4679" lon="-0.57202">
        <ele>22</ele>
        <time>2015-07-07T09:21:06.000Z</time>
      </trkpt>
      <trkpt lat="47.46792" lon="-0.57199">
        <ele>22</ele>
        <time>2015-07-07T09:21:07.000Z</time>
      </trkpt>
      <trkpt lat="47.46794" lon="-0.57195">
        <ele>22</ele>
        <time>2015-07-07T09:21:08.000Z</time>
      </trkpt>
      <trkpt lat="47.46796" lon="-0.57192">
        <ele>22</ele>
        <time>2015-07-07T09:21:09.000Z</time>
      </trkpt>
      <trkpt lat="47.46799" lon="-0.57189">
        <ele>22</ele>
        <time>2015-07-07T09:21:10.000Z</time>
      </trkpt>
      <trkpt lat="47.46801" lon="-0.57186">
        <ele>23</ele>
        <time>2015-07-07T09:21:11.000Z</time>
      </trkpt>
      <trkpt lat="47.46803" lon="-0.57183">
        <ele>23</ele>
        <time>2015-07-07T09:21:12.000Z</time>
      </trkpt>
      <trkpt lat="47.46805" lon="-0.5718">
        <ele>24</ele>
        <time>2015-07-07T09:21:13.000Z</time>
      </trkpt>
      <trkpt lat="47.46807" lon="-0.57178">
        <ele>24</ele>
        <time>2015-07-07T09:21:14.000Z</time>
      </trkpt>
      <trkpt lat="47.46809" lon="-0.57176">
        <ele>25</ele>
        <time>2015-07-07T09:21:15.000Z</time>
      </trkpt>
      <trkpt lat="47.46812" lon="-0.57175">
        <ele>25</ele>
        <time>2015-07-07T09:21:16.000Z</time>
      </trkpt>
      <trkpt lat="47.46815" lon="-0.57174">
        <ele>25</ele>
        <time>2015-07-07T09:21:17.000Z</time>
      </trkpt>
      <trkpt lat="47.46817" lon="-0.57173">
        <ele>25</ele>
        <time>2015-07-07T09:21:18.000Z</time>
      </trkpt>
      <trkpt lat="47.4682" lon="-0.57172">
        <ele>25</ele>
        <time>2015-07-07T09:21:19.000Z</time>
      </trkpt>
      <trkpt lat="47.46823" lon="-0.57171">
        <ele>24</ele>
        <time>2015-07-07T09:21:20.000Z</time>
      </trkpt>
      <trkpt lat="47.46825" lon="-0.5717">
        <ele>24</ele>
        <time>2015-07-07T09:21:21.000Z</time>
      </trkpt>
      <trkpt lat="47.46827" lon="-0.57168">
        <ele>23</ele>
        <time>2015-07-07T09:21:22.000Z</time>
      </trkpt>
      <trkpt lat="47.46829" lon="-0.57167">
        <ele>23</ele>
        <time>2015-07-07T09:21:23.000Z</time>
      </trkpt>
      <trkpt lat="47.46832" lon="-0.57165">
        <ele>22</ele>
        <time>2015-07-07T09:21:24.000Z</time>
      </trkpt>
      <trkpt lat="47.46834" lon="-0.57163">
        <ele>22</ele>
        <time>2015-07-07T09:21:25.000Z</time>
      </trkpt>
      <trkpt lat="47.46836" lon="-0.57161">
        <ele>22</ele>
        <time>2015-07-07T09:21:26.000Z</time>
      </trkpt>
      <trkpt lat="47.46839" lon="-0.57159">
        <ele>22</ele>
        <time>2015-07-07T09:21:27.000Z</time>
      </trkpt>
      <trkpt lat="47.46841" lon="-0.57156">
        <ele>21</ele>
        <time>2015-07-07T09:21:28.000Z</time>
      </trkpt>
      <trkpt lat="47.46843" lon="-0.57154">
        <ele>21</ele>
        <time>2015-07-07T09:21:29.000Z</time>
      </trkpt>
      <trkpt lat="47.46845" lon="-0.57151">
        <ele>21</ele>
        <time>2015-07-07T09:21:30.000Z</time>
      </trkpt>
      <trkpt lat="47.46847" lon="-0.57149">
        <ele>21</ele>
        <time>2015-07-07T09:21:31.000Z</time>
      </trkpt>
      <trkpt lat="47.4685" lon="-0.57148">
        <ele>21</ele>
        <time>2015-07-07T09:21:32.000Z</time>
      </trkpt>
      <trkpt lat="47.46853" lon="-0.57147">
        <ele>21</ele>
        <time>2015-07-07T09:21:33.000Z</time>
      </trkpt>
      <trkpt lat="47.46855" lon="-0.57146">
        <ele>21</ele>
        <time>2015-07-07T09:21:34.000Z</time>
      </trkpt>
      <trkpt lat="47.46858" lon="-0.57145">
        <ele>20</ele>
        <time>2015-07-07T09:21:35.000Z</time>
      </trkpt>
      <trkpt lat="47.4686" lon="-0.57144">
        <ele>20</ele>
        <time>2015-07-07T09:21:36.000Z</time>
      </trkpt>
      <trkpt lat="47.46863" lon="-0.57143">
        <ele>20</ele>
        <time>2015-07-07T09:21:37.000Z</time>
      </trkpt>
      <trkpt lat="47.46865" lon="-0.57143">
        <ele>20</ele>
        <time>2015-07-07T09:21:38.000Z</time>
      </trkpt>
      <trkpt lat="47.46868" lon="-0.57142">
        <ele>20</ele>
        <time>2015-07-07T09:21:39.000Z</time>
      </trkpt>
      <trkpt lat="47.4687" lon="-0.57142">
        <ele>20</ele>
        <time>2015-07-07T09:21:40.000Z</time>
      </trkpt>
      <trkpt lat="47.46873" lon="-0.57141">
        <ele>19</ele>
        <time>2015-07-07T09:21:41.000Z</time>
      </trkpt>
      <trkpt lat="47.46876" lon="-0.5714">
        <ele>18</ele>
        <time>2015-07-07T09:21:42.000Z</time>
      </trkpt>
      <trkpt lat="47.46879" lon="-0.57138">
        <ele>18</ele>
        <time>2015-07-07T09:21:43.000Z</time>
      </trkpt>
      <trkpt lat="47.46882" lon="-0.57137">
        <ele>18</ele>
        <time>2015-07-07T09:21:44.000Z</time>
      </trkpt>
      <trkpt lat="47.46885" lon="-0.57136">
        <ele>18</ele>
        <time>2015-07-07T09:21:45.000Z</time>
      </trkpt>
      <trkpt lat="47.46887" lon="-0.57136">
        <ele>18</ele>
        <time>2015-07-07T09:21:46.000Z</time>
      </trkpt>
      <trkpt lat="47.4689" lon="-0.57134">
        <ele>19</ele>
        <time>2015-07-07T09:21:47.000Z</time>
      </trkpt>
      <trkpt lat="47.46893" lon="-0.57133">
        <ele>19</ele>
        <time>2015-07-07T09:21:48.000Z</time>
      </trkpt>
      <trkpt lat="47.46895" lon="-0.57131">
        <ele>19</ele>
        <time>2015-07-07T09:21:49.000Z</time>
      </trkpt>
      <trkpt lat="47.46898" lon="-0.5713">
        <ele>19</ele>
        <time>2015-07-07T09:21:50.000Z</time>
      </trkpt>
      <trkpt lat="47.469" lon="-0.57128">
        <ele>19</ele>
        <time>2015-07-07T09:21:51.000Z</time>
      </trkpt>
      <trkpt lat="47.46902" lon="-0.57126">
        <ele>19</ele>
        <time>2015-07-07T09:21:52.000Z</time>
      </trkpt>
      <trkpt lat="47.46905" lon="-0.57123">
        <ele>19</ele>
        <time>2015-07-07T09:21:53.000Z</time>
      </trkpt>
      <trkpt lat="47.46907" lon="-0.57121">
        <ele>20</ele>
        <time>2015-07-07T09:21:54.000Z</time>
      </trkpt>
      <trkpt lat="47.46909" lon="-0.57118">
        <ele>20</ele>
        <time>2015-07-07T09:21:55.000Z</time>
      </trkpt>
      <trkpt lat="47.46911" lon="-0.57116">
        <ele>20</ele>
        <time>2015-07-07T09:21:56.000Z</time>
      </trkpt>
      <trkpt lat="47.46913" lon="-0.57114">
        <ele>21</ele>
        <time>2015-07-07T09:21:57.000Z</time>
      </trkpt>
      <trkpt lat="47.46916" lon="-0.57112">
        <ele>22</ele>
        <time>2015-07-07T09:21:58.000Z</time>
      </trkpt>
      <trkpt lat="47.46918" lon="-0.57109">
        <ele>22</ele>
        <time>2015-07-07T09:21:59.000Z</time>
      </trkpt>
      <trkpt lat="47.4692" lon="-0.57106">
        <ele>22</ele>
        <time>2015-07-07T09:22:00.000Z</time>
      </trkpt>
      <trkpt lat="47.46922" lon="-0.57104">
        <ele>22</ele>
        <time>2015-07-07T09:22:01.000Z</time>
      </trkpt>
      <trkpt lat="47.46924" lon="-0.57101">
        <ele>21</ele>
        <time>2015-07-07T09:22:02.000Z</time>
      </trkpt>
      <trkpt lat="47.46926" lon="-0.57098">
        <ele>22</ele>
        <time>2015-07-07T09:22:03.000Z</time>
      </trkpt>
      <trkpt lat="47.46928" lon="-0.57096">
        <ele>21</ele>
        <time>2015-07-07T09:22:04.000Z</time>
      </trkpt>
      <trkpt lat="47.4693" lon="-0.57093">
        <ele>21</ele>
        <time>2015-07-07T09:22:05.000Z</time>
      </trkpt>
      <trkpt lat="47.46932" lon="-0.5709">
        <ele>21</ele>
        <time>2015-07-07T09:22:06.000Z</time>
      </trkpt>
      <trkpt lat="47.46933" lon="-0.57087">
        <ele>21</ele>
        <time>2015-07-07T09:22:07.000Z</time>
      </trkpt>
      <trkpt lat="47.46935" lon="-0.57084">
        <ele>21</ele>
        <time>2015-07-07T09:22:08.000Z</time>
      </trkpt>
      <trkpt lat="47.46938" lon="-0.57081">
        <ele>20</ele>
        <time>2015-07-07T09:22:09.000Z</time>
      </trkpt>
      <trkpt lat="47.4694" lon="-0.57078">
        <ele>20</ele>
        <time>2015-07-07T09:22:10.000Z</time>
      </trkpt>
      <trkpt lat="47.46942" lon="-0.57076">
        <ele>20</ele>
        <time>2015-07-07T09:22:11.000Z</time>
      </trkpt>
      <trkpt lat="47.46944" lon="-0.57073">
        <ele>19</ele>
        <time>2015-07-07T09:22:12.000Z</time>
      </trkpt>
      <trkpt lat="47.46946" lon="-0.5707">
        <ele>20</ele>
        <time>2015-07-07T09:22:13.000Z</time>
      </trkpt>
      <trkpt lat="47.46948" lon="-0.57068">
        <ele>19</ele>
        <time>2015-07-07T09:22:14.000Z</time>
      </trkpt>
      <trkpt lat="47.4695" lon="-0.57066">
        <ele>19</ele>
        <time>2015-07-07T09:22:15.000Z</time>
      </trkpt>
      <trkpt lat="47.46952" lon="-0.57063">
        <ele>19</ele>
        <time>2015-07-07T09:22:16.000Z</time>
      </trkpt>
      <trkpt lat="47.46953" lon="-0.57061">
        <ele>18</ele>
        <time>2015-07-07T09:22:17.000Z</time>
      </trkpt>
      <trkpt lat="47.46955" lon="-0.57059">
        <ele>18</ele>
        <time>2015-07-07T09:22:18.000Z</time>
      </trkpt>
      <trkpt lat="47.46957" lon="-0.57056">
        <ele>18</ele>
        <time>2015-07-07T09:22:19.000Z</time>
      </trkpt>
      <trkpt lat="47.46959" lon="-0.57054">
        <ele>18</ele>
        <time>2015-07-07T09:22:20.000Z</time>
      </trkpt>
      <trkpt lat="47.46961" lon="-0.57051">
        <ele>18</ele>
        <time>2015-07-07T09:22:21.000Z</time>
      </trkpt>
      <trkpt lat="47.46963" lon="-0.57048">
        <ele>17</ele>
        <time>2015-07-07T09:22:22.000Z</time>
      </trkpt>
      <trkpt lat="47.46965" lon="-0.57046">
        <ele>17</ele>
        <time>2015-07-07T09:22:23.000Z</time>
      </trkpt>
      <trkpt lat="47.46968" lon="-0.57043">
        <ele>17</ele>
        <time>2015-07-07T09:22:24.000Z</time>
      </trkpt>
      <trkpt lat="47.4697" lon="-0.5704">
        <ele>17</ele>
        <time>2015-07-07T09:22:25.000Z</time>
      </trkpt>
      <trkpt lat="47.46972" lon="-0.57037">
        <ele>18</ele>
        <time>2015-07-07T09:22:26.000Z</time>
      </trkpt>
      <trkpt lat="47.46975" lon="-0.57034">
        <ele>18</ele>
        <time>2015-07-07T09:22:27.000Z</time>
      </trkpt>
      <trkpt lat="47.46977" lon="-0.57031">
        <ele>18</ele>
        <time>2015-07-07T09:22:28.000Z</time>
      </trkpt>
      <trkpt lat="47.46979" lon="-0.57028">
        <ele>18</ele>
        <time>2015-07-07T09:22:29.000Z</time>
      </trkpt>
      <trkpt lat="47.46981" lon="-0.57026">
        <ele>17</ele>
        <time>2015-07-07T09:22:30.000Z</time>
      </trkpt>
      <trkpt lat="47.46983" lon="-0.57023">
        <ele>17</ele>
        <time>2015-07-07T09:22:31.000Z</time>
      </trkpt>
      <trkpt lat="47.46985" lon="-0.57021">
        <ele>17</ele>
        <time>2015-07-07T09:22:32.000Z</time>
      </trkpt>
      <trkpt lat="47.46987" lon="-0.57019">
        <ele>18</ele>
        <time>2015-07-07T09:22:33.000Z</time>
      </trkpt>
      <trkpt lat="47.46989" lon="-0.57017">
        <ele>17</ele>
        <time>2015-07-07T09:22:34.000Z</time>
      </trkpt>
      <trkpt lat="47.46991" lon="-0.57016">
        <ele>17</ele>
        <time>2015-07-07T09:22:35.000Z</time>
      </trkpt>
      <trkpt lat="47.46994" lon="-0.57014">
        <ele>17</ele>
        <time>2015-07-07T09:22:36.000Z</time>
      </trkpt>
      <trkpt lat="47.46996" lon="-0.57013">
        <ele>17</ele>
        <time>2015-07-07T09:22:37.000Z</time>
      </trkpt>
      <trkpt lat="47.46998" lon="-0.57012">
        <ele>18</ele>
        <time>2015-07-07T09:22:38.000Z</time>
      </trkpt>
      <trkpt lat="47.47001" lon="-0.57011">
        <ele>18</ele>
        <time>2015-07-07T09:22:39.000Z</time>
      </trkpt>
      <trkpt lat="47.47004" lon="-0.57012">
        <ele>18</ele>
        <time>2015-07-07T09:22:40.000Z</time>
      </trkpt>
      <trkpt lat="47.47007" lon="-0.57013">
        <ele>18</ele>
        <time>2015-07-07T09:22:41.000Z</time>
      </trkpt>
      <trkpt lat="47.47009" lon="-0.57015">
        <ele>17</ele>
        <time>2015-07-07T09:22:42.000Z</time>
      </trkpt>
      <trkpt lat="47.47012" lon="-0.57017">
        <ele>16</ele>
        <time>2015-07-07T09:22:43.000Z</time>
      </trkpt>
      <trkpt lat="47.47014" lon="-0.57019">
        <ele>15</ele>
        <time>2015-07-07T09:22:44.000Z</time>
      </trkpt>
      <trkpt lat="47.47016" lon="-0.57021">
        <ele>15</ele>
        <time>2015-07-07T09:22:45.000Z</time>
      </trkpt>
      <trkpt lat="47.47018" lon="-0.57023">
        <ele>14</ele>
        <time>2015-07-07T09:22:46.000Z</time>
      </trkpt>
      <trkpt lat="47.47019" lon="-0.57025">
        <ele>14</ele>
        <time>2015-07-07T09:22:47.000Z</time>
      </trkpt>
      <trkpt lat="47.47021" lon="-0.57028">
        <ele>13</ele>
        <time>2015-07-07T09:22:48.000Z</time>
      </trkpt>
      <trkpt lat="47.47023" lon="-0.57031">
        <ele>13</ele>
        <time>2015-07-07T09:22:49.000Z</time>
      </trkpt>
      <trkpt lat="47.47024" lon="-0.57034">
        <ele>13</ele>
        <time>2015-07-07T09:22:50.000Z</time>
      </trkpt>
      <trkpt lat="47.47026" lon="-0.57037">
        <ele>14</ele>
        <time>2015-07-07T09:22:51.000Z</time>
      </trkpt>
      <trkpt lat="47.47026" lon="-0.57041">
        <ele>14</ele>
        <time>2015-07-07T09:22:52.000Z</time>
      </trkpt>
      <trkpt lat="47.47027" lon="-0.57045">
        <ele>14</ele>
        <time>2015-07-07T09:22:53.000Z</time>
      </trkpt>
      <trkpt lat="47.47028" lon="-0.57049">
        <ele>14</ele>
        <time>2015-07-07T09:22:54.000Z</time>
      </trkpt>
      <trkpt lat="47.47029" lon="-0.57053">
        <ele>14</ele>
        <time>2015-07-07T09:22:55.000Z</time>
      </trkpt>
      <trkpt lat="47.4703" lon="-0.57056">
        <ele>14</ele>
        <time>2015-07-07T09:22:56.000Z</time>
      </trkpt>
      <trkpt lat="47.47031" lon="-0.5706">
        <ele>14</ele>
        <time>2015-07-07T09:22:57.000Z</time>
      </trkpt>
      <trkpt lat="47.47033" lon="-0.57063">
        <ele>13</ele>
        <time>2015-07-07T09:22:58.000Z</time>
      </trkpt>
      <trkpt lat="47.47034" lon="-0.57067">
        <ele>12</ele>
        <time>2015-07-07T09:22:59.000Z</time>
      </trkpt>
      <trkpt lat="47.47035" lon="-0.5707">
        <ele>12</ele>
        <time>2015-07-07T09:23:00.000Z</time>
      </trkpt>
      <trkpt lat="47.47036" lon="-0.57074">
        <ele>12</ele>
        <time>2015-07-07T09:23:01.000Z</time>
      </trkpt>
      <trkpt lat="47.47038" lon="-0.57078">
        <ele>13</ele>
        <time>2015-07-07T09:23:02.000Z</time>
      </trkpt>
      <trkpt lat="47.47039" lon="-0.57082">
        <ele>13</ele>
        <time>2015-07-07T09:23:03.000Z</time>
      </trkpt>
      <trkpt lat="47.4704" lon="-0.57086">
        <ele>14</ele>
        <time>2015-07-07T09:23:04.000Z</time>
      </trkpt>
      <trkpt lat="47.47042" lon="-0.5709">
        <ele>14</ele>
        <time>2015-07-07T09:23:05.000Z</time>
      </trkpt>
      <trkpt lat="47.47043" lon="-0.57095">
        <ele>15</ele>
        <time>2015-07-07T09:23:06.000Z</time>
      </trkpt>
      <trkpt lat="47.47045" lon="-0.571">
        <ele>16</ele>
        <time>2015-07-07T09:23:07.000Z</time>
      </trkpt>
      <trkpt lat="47.47046" lon="-0.57104">
        <ele>16</ele>
        <time>2015-07-07T09:23:08.000Z</time>
      </trkpt>
      <trkpt lat="47.47047" lon="-0.57109">
        <ele>16</ele>
        <time>2015-07-07T09:23:09.000Z</time>
      </trkpt>
      <trkpt lat="47.47049" lon="-0.57113">
        <ele>17</ele>
        <time>2015-07-07T09:23:10.000Z</time>
      </trkpt>
      <trkpt lat="47.4705" lon="-0.57118">
        <ele>18</ele>
        <time>2015-07-07T09:23:11.000Z</time>
      </trkpt>
      <trkpt lat="47.47051" lon="-0.57123">
        <ele>19</ele>
        <time>2015-07-07T09:23:12.000Z</time>
      </trkpt>
      <trkpt lat="47.47052" lon="-0.57127">
        <ele>19</ele>
        <time>2015-07-07T09:23:13.000Z</time>
      </trkpt>
      <trkpt lat="47.47053" lon="-0.57131">
        <ele>19</ele>
        <time>2015-07-07T09:23:14.000Z</time>
      </trkpt>
      <trkpt lat="47.47054" lon="-0.57135">
        <ele>19</ele>
        <time>2015-07-07T09:23:15.000Z</time>
      </trkpt>
      <trkpt lat="47.47056" lon="-0.57139">
        <ele>19</ele>
        <time>2015-07-07T09:23:16.000Z</time>
      </trkpt>
      <trkpt lat="47.47057" lon="-0.57142">
        <ele>19</ele>
        <time>2015-07-07T09:23:17.000Z</time>
      </trkpt>
      <trkpt lat="47.47058" lon="-0.57146">
        <ele>19</ele>
        <time>2015-07-07T09:23:18.000Z</time>
      </trkpt>
      <trkpt lat="47.47059" lon="-0.5715">
        <ele>20</ele>
        <time>2015-07-07T09:23:19.000Z</time>
      </trkpt>
      <trkpt lat="47.4706" lon="-0.57154">
        <ele>20</ele>
        <time>2015-07-07T09:23:20.000Z</time>
      </trkpt>
      <trkpt lat="47.47062" lon="-0.57157">
        <ele>21</ele>
        <time>2015-07-07T09:23:21.000Z</time>
      </trkpt>
      <trkpt lat="47.47063" lon="-0.57161">
        <ele>21</ele>
        <time>2015-07-07T09:23:22.000Z</time>
      </trkpt>
      <trkpt lat="47.47065" lon="-0.57165">
        <ele>21</ele>
        <time>2015-07-07T09:23:23.000Z</time>
      </trkpt>
      <trkpt lat="47.47066" lon="-0.57168">
        <ele>22</ele>
        <time>2015-07-07T09:23:24.000Z</time>
      </trkpt>
      <trkpt lat="47.47068" lon="-0.57172">
        <ele>22</ele>
        <time>2015-07-07T09:23:25.000Z</time>
      </trkpt>
      <trkpt lat="47.47069" lon="-0.57176">
        <ele>22</ele>
        <time>2015-07-07T09:23:26.000Z</time>
      </trkpt>
      <trkpt lat="47.47071" lon="-0.57179">
        <ele>21</ele>
        <time>2015-07-07T09:23:27.000Z</time>
      </trkpt>
      <trkpt lat="47.47072" lon="-0.57183">
        <ele>21</ele>
        <time>2015-07-07T09:23:28.000Z</time>
      </trkpt>
      <trkpt lat="47.47073" lon="-0.57187">
        <ele>20</ele>
        <time>2015-07-07T09:23:29.000Z</time>
      </trkpt>
      <trkpt lat="47.47074" lon="-0.5719">
        <ele>21</ele>
        <time>2015-07-07T09:23:30.000Z</time>
      </trkpt>
      <trkpt lat="47.47075" lon="-0.57194">
        <ele>20</ele>
        <time>2015-07-07T09:23:31.000Z</time>
      </trkpt>
      <trkpt lat="47.47076" lon="-0.57198">
        <ele>19</ele>
        <time>2015-07-07T09:23:32.000Z</time>
      </trkpt>
      <trkpt lat="47.47077" lon="-0.57201">
        <ele>19</ele>
        <time>2015-07-07T09:23:33.000Z</time>
      </trkpt>
      <trkpt lat="47.47078" lon="-0.57206">
        <ele>19</ele>
        <time>2015-07-07T09:23:34.000Z</time>
      </trkpt>
      <trkpt lat="47.47079" lon="-0.5721">
        <ele>18</ele>
        <time>2015-07-07T09:23:35.000Z</time>
      </trkpt>
      <trkpt lat="47.47081" lon="-0.57214">
        <ele>18</ele>
        <time>2015-07-07T09:23:36.000Z</time>
      </trkpt>
      <trkpt lat="47.47082" lon="-0.57218">
        <ele>17</ele>
        <time>2015-07-07T09:23:37.000Z</time>
      </trkpt>
      <trkpt lat="47.47083" lon="-0.57221">
        <ele>17</ele>
        <time>2015-07-07T09:23:38.000Z</time>
      </trkpt>
      <trkpt lat="47.47084" lon="-0.57225">
        <ele>18</ele>
        <time>2015-07-07T09:23:39.000Z</time>
      </trkpt>
      <trkpt lat="47.47086" lon="-0.57229">
        <ele>18</ele>
        <time>2015-07-07T09:23:40.000Z</time>
      </trkpt>
      <trkpt lat="47.47087" lon="-0.57233">
        <ele>18</ele>
        <time>2015-07-07T09:23:41.000Z</time>
      </trkpt>
      <trkpt lat="47.47089" lon="-0.57236">
        <ele>19</ele>
        <time>2015-07-07T09:23:42.000Z</time>
      </trkpt>
      <trkpt lat="47.4709" lon="-0.5724">
        <ele>19</ele>
        <time>2015-07-07T09:23:43.000Z</time>
      </trkpt>
      <trkpt lat="47.47091" lon="-0.57244">
        <ele>20</ele>
        <time>2015-07-07T09:23:44.000Z</time>
      </trkpt>
      <trkpt lat="47.47092" lon="-0.57249">
        <ele>21</ele>
        <time>2015-07-07T09:23:45.000Z</time>
      </trkpt>
      <trkpt lat="47.47094" lon="-0.57253">
        <ele>21</ele>
        <time>2015-07-07T09:23:46.000Z</time>
      </trkpt>
      <trkpt lat="47.47095" lon="-0.57257">
        <ele>21</ele>
        <time>2015-07-07T09:23:47.000Z</time>
      </trkpt>
      <trkpt lat="47.47096" lon="-0.57262">
        <ele>21</ele>
        <time>2015-07-07T09:23:48.000Z</time>
      </trkpt>
      <trkpt lat="47.47097" lon="-0.57266">
        <ele>21</ele>
        <time>2015-07-07T09:23:49.000Z</time>
      </trkpt>
      <trkpt lat="47.47098" lon="-0.5727">
        <ele>21</ele>
        <time>2015-07-07T09:23:50.000Z</time>
      </trkpt>
      <trkpt lat="47.47099" lon="-0.57274">
        <ele>20</ele>
        <time>2015-07-07T09:23:51.000Z</time>
      </trkpt>
      <trkpt lat="47.471" lon="-0.57278">
        <ele>20</ele>
        <time>2015-07-07T09:23:52.000Z</time>
      </trkpt>
      <trkpt lat="47.47101" lon="-0.57281">
        <ele>20</ele>
        <time>2015-07-07T09:23:53.000Z</time>
      </trkpt>
      <trkpt lat="47.47102" lon="-0.57285">
        <ele>20</ele>
        <time>2015-07-07T09:23:54.000Z</time>
      </trkpt>
      <trkpt lat="47.47103" lon="-0.57289">
        <ele>20</ele>
        <time>2015-07-07T09:23:55.000Z</time>
      </trkpt>
      <trkpt lat="47.47104" lon="-0.57293">
        <ele>20</ele>
        <time>2015-07-07T09:23:56.000Z</time>
      </trkpt>
      <trkpt lat="47.47105" lon="-0.57297">
        <ele>20</ele>
        <time>2015-07-07T09:23:57.000Z</time>
      </trkpt>
      <trkpt lat="47.47106" lon="-0.57301">
        <ele>20</ele>
        <time>2015-07-07T09:23:58.000Z</time>
      </trkpt>
      <trkpt lat="47.47107" lon="-0.57305">
        <ele>21</ele>
        <time>2015-07-07T09:23:59.000Z</time>
      </trkpt>
      <trkpt lat="47.47108" lon="-0.57309">
        <ele>21</ele>
        <time>2015-07-07T09:24:00.000Z</time>
      </trkpt>
      <trkpt lat="47.47109" lon="-0.57313">
        <ele>21</ele>
        <time>2015-07-07T09:24:01.000Z</time>
      </trkpt>
      <trkpt lat="47.4711" lon="-0.57316">
        <ele>22</ele>
        <time>2015-07-07T09:24:02.000Z</time>
      </trkpt>
      <trkpt lat="47.47111" lon="-0.57319">
        <ele>22</ele>
        <time>2015-07-07T09:24:03.000Z</time>
      </trkpt>
      <trkpt lat="47.47112" lon="-0.57323">
        <ele>22</ele>
        <time>2015-07-07T09:24:04.000Z</time>
      </trkpt>
      <trkpt lat="47.47113" lon="-0.57326">
        <ele>22</ele>
        <time>2015-07-07T09:24:05.000Z</time>
      </trkpt>
      <trkpt lat="47.47114" lon="-0.5733">
        <ele>23</ele>
        <time>2015-07-07T09:24:06.000Z</time>
      </trkpt>
      <trkpt lat="47.47116" lon="-0.57333">
        <ele>23</ele>
        <time>2015-07-07T09:24:07.000Z</time>
      </trkpt>
      <trkpt lat="47.47117" lon="-0.57336">
        <ele>23</ele>
        <time>2015-07-07T09:24:08.000Z</time>
      </trkpt>
      <trkpt lat="47.47117" lon="-0.57341">
        <ele>23</ele>
        <time>2015-07-07T09:24:09.000Z</time>
      </trkpt>
      <trkpt lat="47.47118" lon="-0.57345">
        <ele>23</ele>
        <time>2015-07-07T09:24:10.000Z</time>
      </trkpt>
      <trkpt lat="47.47118" lon="-0.5735">
        <ele>23</ele>
        <time>2015-07-07T09:24:11.000Z</time>
      </trkpt>
      <trkpt lat="47.47118" lon="-0.57354">
        <ele>23</ele>
        <time>2015-07-07T09:24:12.000Z</time>
      </trkpt>
      <trkpt lat="47.47119" lon="-0.57357">
        <ele>23</ele>
        <time>2015-07-07T09:24:13.000Z</time>
      </trkpt>
      <trkpt lat="47.4712" lon="-0.5736">
        <ele>22</ele>
        <time>2015-07-07T09:24:14.000Z</time>
      </trkpt>
      <trkpt lat="47.4712" lon="-0.57363">
        <ele>22</ele>
        <time>2015-07-07T09:24:15.000Z</time>
      </trkpt>
      <trkpt lat="47.47121" lon="-0.57366">
        <ele>22</ele>
        <time>2015-07-07T09:24:16.000Z</time>
      </trkpt>
      <trkpt lat="47.47122" lon="-0.57368">
        <ele>21</ele>
        <time>2015-07-07T09:24:17.000Z</time>
      </trkpt>
      <trkpt lat="47.47124" lon="-0.57371">
        <ele>21</ele>
        <time>2015-07-07T09:24:18.000Z</time>
      </trkpt>
      <trkpt lat="47.47125" lon="-0.57373">
        <ele>21</ele>
        <time>2015-07-07T09:24:19.000Z</time>
      </trkpt>
      <trkpt lat="47.47127" lon="-0.57377">
        <ele>21</ele>
        <time>2015-07-07T09:24:20.000Z</time>
      </trkpt>
      <trkpt lat="47.47128" lon="-0.5738">
        <ele>21</ele>
        <time>2015-07-07T09:24:21.000Z</time>
      </trkpt>
      <trkpt lat="47.4713" lon="-0.57384">
        <ele>21</ele>
        <time>2015-07-07T09:24:22.000Z</time>
      </trkpt>
      <trkpt lat="47.47132" lon="-0.57388">
        <ele>21</ele>
        <time>2015-07-07T09:24:23.000Z</time>
      </trkpt>
      <trkpt lat="47.47134" lon="-0.57392">
        <ele>23</ele>
        <time>2015-07-07T09:24:24.000Z</time>
      </trkpt>
      <trkpt lat="47.47135" lon="-0.57396">
        <ele>24</ele>
        <time>2015-07-07T09:24:25.000Z</time>
      </trkpt>
      <trkpt lat="47.47136" lon="-0.57399">
        <ele>25</ele>
        <time>2015-07-07T09:24:26.000Z</time>
      </trkpt>
      <trkpt lat="47.47137" lon="-0.57403">
        <ele>24</ele>
        <time>2015-07-07T09:24:27.000Z</time>
      </trkpt>
      <trkpt lat="47.47137" lon="-0.57406">
        <ele>25</ele>
        <time>2015-07-07T09:24:28.000Z</time>
      </trkpt>
      <trkpt lat="47.47138" lon="-0.57409">
        <ele>25</ele>
        <time>2015-07-07T09:24:29.000Z</time>
      </trkpt>
      <trkpt lat="47.47138" lon="-0.57413">
        <ele>26</ele>
        <time>2015-07-07T09:24:30.000Z</time>
      </trkpt>
      <trkpt lat="47.47138" lon="-0.57418">
        <ele>26</ele>
        <time>2015-07-07T09:24:31.000Z</time>
      </trkpt>
      <trkpt lat="47.47139" lon="-0.57421">
        <ele>27</ele>
        <time>2015-07-07T09:24:32.000Z</time>
      </trkpt>
      <trkpt lat="47.47139" lon="-0.57426">
        <ele>27</ele>
        <time>2015-07-07T09:24:33.000Z</time>
      </trkpt>
      <trkpt lat="47.4714" lon="-0.57431">
        <ele>27</ele>
        <time>2015-07-07T09:24:34.000Z</time>
      </trkpt>
      <trkpt lat="47.4714" lon="-0.57435">
        <ele>27</ele>
        <time>2015-07-07T09:24:35.000Z</time>
      </trkpt>
      <trkpt lat="47.47141" lon="-0.5744">
        <ele>29</ele>
        <time>2015-07-07T09:24:36.000Z</time>
      </trkpt>
      <trkpt lat="47.47142" lon="-0.57444">
        <ele>29</ele>
        <time>2015-07-07T09:24:37.000Z</time>
      </trkpt>
      <trkpt lat="47.47143" lon="-0.57448">
        <ele>29</ele>
        <time>2015-07-07T09:24:38.000Z</time>
      </trkpt>
      <trkpt lat="47.47144" lon="-0.57452">
        <ele>29</ele>
        <time>2015-07-07T09:24:39.000Z</time>
      </trkpt>
      <trkpt lat="47.47145" lon="-0.57455">
        <ele>30</ele>
        <time>2015-07-07T09:24:40.000Z</time>
      </trkpt>
      <trkpt lat="47.47146" lon="-0.57459">
        <ele>30</ele>
        <time>2015-07-07T09:24:41.000Z</time>
      </trkpt>
      <trkpt lat="47.47147" lon="-0.57462">
        <ele>30</ele>
        <time>2015-07-07T09:24:42.000Z</time>
      </trkpt>
      <trkpt lat="47.47147" lon="-0.57465">
        <ele>30</ele>
        <time>2015-07-07T09:24:43.000Z</time>
      </trkpt>
      <trkpt lat="47.47148" lon="-0.57468">
        <ele>29</ele>
        <time>2015-07-07T09:24:44.000Z</time>
      </trkpt>
      <trkpt lat="47.47149" lon="-0.57471">
        <ele>29</ele>
        <time>2015-07-07T09:24:45.000Z</time>
      </trkpt>
      <trkpt lat="47.4715" lon="-0.57474">
        <ele>28</ele>
        <time>2015-07-07T09:24:46.000Z</time>
      </trkpt>
      <trkpt lat="47.47152" lon="-0.57478">
        <ele>27</ele>
        <time>2015-07-07T09:24:47.000Z</time>
      </trkpt>
      <trkpt lat="47.47153" lon="-0.57481">
        <ele>26</ele>
        <time>2015-07-07T09:24:48.000Z</time>
      </trkpt>
      <trkpt lat="47.47154" lon="-0.57485">
        <ele>25</ele>
        <time>2015-07-07T09:24:49.000Z</time>
      </trkpt>
      <trkpt lat="47.47155" lon="-0.57488">
        <ele>24</ele>
        <time>2015-07-07T09:24:50.000Z</time>
      </trkpt>
      <trkpt lat="47.47156" lon="-0.57492">
        <ele>24</ele>
        <time>2015-07-07T09:24:51.000Z</time>
      </trkpt>
      <trkpt lat="47.47157" lon="-0.57496">
        <ele>23</ele>
        <time>2015-07-07T09:24:52.000Z</time>
      </trkpt>
      <trkpt lat="47.47158" lon="-0.57499">
        <ele>23</ele>
        <time>2015-07-07T09:24:53.000Z</time>
      </trkpt>
      <trkpt lat="47.4716" lon="-0.57503">
        <ele>23</ele>
        <time>2015-07-07T09:24:54.000Z</time>
      </trkpt>
      <trkpt lat="47.47162" lon="-0.57506">
        <ele>22</ele>
        <time>2015-07-07T09:24:55.000Z</time>
      </trkpt>
      <trkpt lat="47.47163" lon="-0.57509">
        <ele>22</ele>
        <time>2015-07-07T09:24:56.000Z</time>
      </trkpt>
      <trkpt lat="47.47165" lon="-0.57513">
        <ele>22</ele>
        <time>2015-07-07T09:24:57.000Z</time>
      </trkpt>
      <trkpt lat="47.47167" lon="-0.57517">
        <ele>21</ele>
        <time>2015-07-07T09:24:58.000Z</time>
      </trkpt>
      <trkpt lat="47.47169" lon="-0.5752">
        <ele>21</ele>
        <time>2015-07-07T09:24:59.000Z</time>
      </trkpt>
      <trkpt lat="47.4717" lon="-0.57523">
        <ele>20</ele>
        <time>2015-07-07T09:25:00.000Z</time>
      </trkpt>
      <trkpt lat="47.47172" lon="-0.57527">
        <ele>21</ele>
        <time>2015-07-07T09:25:01.000Z</time>
      </trkpt>
      <trkpt lat="47.47174" lon="-0.5753">
        <ele>22</ele>
        <time>2015-07-07T09:25:02.000Z</time>
      </trkpt>
      <trkpt lat="47.47176" lon="-0.57534">
        <ele>22</ele>
        <time>2015-07-07T09:25:03.000Z</time>
      </trkpt>
      <trkpt lat="47.47177" lon="-0.57538">
        <ele>22</ele>
        <time>2015-07-07T09:25:04.000Z</time>
      </trkpt>
      <trkpt lat="47.47179" lon="-0.57541">
        <ele>22</ele>
        <time>2015-07-07T09:25:05.000Z</time>
      </trkpt>
      <trkpt lat="47.47181" lon="-0.57545">
        <ele>22</ele>
        <time>2015-07-07T09:25:06.000Z</time>
      </trkpt>
      <trkpt lat="47.47183" lon="-0.57549">
        <ele>22</ele>
        <time>2015-07-07T09:25:07.000Z</time>
      </trkpt>
      <trkpt lat="47.47185" lon="-0.57552">
        <ele>23</ele>
        <time>2015-07-07T09:25:08.000Z</time>
      </trkpt>
      <trkpt lat="47.47187" lon="-0.57555">
        <ele>23</ele>
        <time>2015-07-07T09:25:09.000Z</time>
      </trkpt>
      <trkpt lat="47.47188" lon="-0.57559">
        <ele>22</ele>
        <time>2015-07-07T09:25:10.000Z</time>
      </trkpt>
      <trkpt lat="47.47189" lon="-0.57563">
        <ele>22</ele>
        <time>2015-07-07T09:25:11.000Z</time>
      </trkpt>
      <trkpt lat="47.47191" lon="-0.57567">
        <ele>22</ele>
        <time>2015-07-07T09:25:12.000Z</time>
      </trkpt>
      <trkpt lat="47.47192" lon="-0.57571">
        <ele>22</ele>
        <time>2015-07-07T09:25:13.000Z</time>
      </trkpt>
      <trkpt lat="47.47194" lon="-0.57575">
        <ele>23</ele>
        <time>2015-07-07T09:25:14.000Z</time>
      </trkpt>
      <trkpt lat="47.47195" lon="-0.57578">
        <ele>23</ele>
        <time>2015-07-07T09:25:15.000Z</time>
      </trkpt>
      <trkpt lat="47.47197" lon="-0.57581">
        <ele>23</ele>
        <time>2015-07-07T09:25:16.000Z</time>
      </trkpt>
      <trkpt lat="47.47199" lon="-0.57584">
        <ele>23</ele>
        <time>2015-07-07T09:25:17.000Z</time>
      </trkpt>
      <trkpt lat="47.47201" lon="-0.57587">
        <ele>24</ele>
        <time>2015-07-07T09:25:18.000Z</time>
      </trkpt>
      <trkpt lat="47.47203" lon="-0.5759">
        <ele>23</ele>
        <time>2015-07-07T09:25:19.000Z</time>
      </trkpt>
      <trkpt lat="47.47205" lon="-0.57593">
        <ele>24</ele>
        <time>2015-07-07T09:25:20.000Z</time>
      </trkpt>
      <trkpt lat="47.47208" lon="-0.57596">
        <ele>24</ele>
        <time>2015-07-07T09:25:21.000Z</time>
      </trkpt>
      <trkpt lat="47.4721" lon="-0.576">
        <ele>25</ele>
        <time>2015-07-07T09:25:22.000Z</time>
      </trkpt>
      <trkpt lat="47.47212" lon="-0.57603">
        <ele>25</ele>
        <time>2015-07-07T09:25:23.000Z</time>
      </trkpt>
      <trkpt lat="47.47215" lon="-0.57606">
        <ele>25</ele>
        <time>2015-07-07T09:25:24.000Z</time>
      </trkpt>
      <trkpt lat="47.47217" lon="-0.57608">
        <ele>25</ele>
        <time>2015-07-07T09:25:25.000Z</time>
      </trkpt>
      <trkpt lat="47.47219" lon="-0.5761">
        <ele>26</ele>
        <time>2015-07-07T09:25:26.000Z</time>
      </trkpt>
      <trkpt lat="47.4722" lon="-0.57613">
        <ele>27</ele>
        <time>2015-07-07T09:25:27.000Z</time>
      </trkpt>
      <trkpt lat="47.47222" lon="-0.57616">
        <ele>28</ele>
        <time>2015-07-07T09:25:28.000Z</time>
      </trkpt>
      <trkpt lat="47.47224" lon="-0.57618">
        <ele>28</ele>
        <time>2015-07-07T09:25:29.000Z</time>
      </trkpt>
      <trkpt lat="47.47226" lon="-0.57621">
        <ele>28</ele>
        <time>2015-07-07T09:25:30.000Z</time>
      </trkpt>
      <trkpt lat="47.47228" lon="-0.57622">
        <ele>28</ele>
        <time>2015-07-07T09:25:31.000Z</time>
      </trkpt>
      <trkpt lat="47.4723" lon="-0.57624">
        <ele>28</ele>
        <time>2015-07-07T09:25:32.000Z</time>
      </trkpt>
      <trkpt lat="47.47232" lon="-0.57625">
        <ele>28</ele>
        <time>2015-07-07T09:25:33.000Z</time>
      </trkpt>
      <trkpt lat="47.47234" lon="-0.57627">
        <ele>28</ele>
        <time>2015-07-07T09:25:34.000Z</time>
      </trkpt>
      <trkpt lat="47.47237" lon="-0.57629">
        <ele>28</ele>
        <time>2015-07-07T09:25:35.000Z</time>
      </trkpt>
      <trkpt lat="47.4724" lon="-0.5763">
        <ele>28</ele>
        <time>2015-07-07T09:25:36.000Z</time>
      </trkpt>
      <trkpt lat="47.47243" lon="-0.57631">
        <ele>28</ele>
        <time>2015-07-07T09:25:37.000Z</time>
      </trkpt>
      <trkpt lat="47.47246" lon="-0.57632">
        <ele>28</ele>
        <time>2015-07-07T09:25:38.000Z</time>
      </trkpt>
      <trkpt lat="47.47249" lon="-0.57633">
        <ele>29</ele>
        <time>2015-07-07T09:25:39.000Z</time>
      </trkpt>
      <trkpt lat="47.47252" lon="-0.57634">
        <ele>29</ele>
        <time>2015-07-07T09:25:40.000Z</time>
      </trkpt>
      <trkpt lat="47.47255" lon="-0.57636">
        <ele>28</ele>
        <time>2015-07-07T09:25:41.000Z</time>
      </trkpt>
      <trkpt lat="47.47258" lon="-0.57638">
        <ele>28</ele>
        <time>2015-07-07T09:25:42.000Z</time>
      </trkpt>
      <trkpt lat="47.47261" lon="-0.57641">
        <ele>28</ele>
        <time>2015-07-07T09:25:43.000Z</time>
      </trkpt>
      <trkpt lat="47.47264" lon="-0.57644">
        <ele>28</ele>
        <time>2015-07-07T09:25:44.000Z</time>
      </trkpt>
      <trkpt lat="47.47267" lon="-0.57646">
        <ele>28</ele>
        <time>2015-07-07T09:25:45.000Z</time>
      </trkpt>
      <trkpt lat="47.4727" lon="-0.57648">
        <ele>28</ele>
        <time>2015-07-07T09:25:46.000Z</time>
      </trkpt>
      <trkpt lat="47.47272" lon="-0.5765">
        <ele>29</ele>
        <time>2015-07-07T09:25:47.000Z</time>
      </trkpt>
      <trkpt lat="47.47275" lon="-0.57652">
        <ele>28</ele>
        <time>2015-07-07T09:25:48.000Z</time>
      </trkpt>
      <trkpt lat="47.47278" lon="-0.57654">
        <ele>28</ele>
        <time>2015-07-07T09:25:49.000Z</time>
      </trkpt>
      <trkpt lat="47.4728" lon="-0.57657">
        <ele>28</ele>
        <time>2015-07-07T09:25:50.000Z</time>
      </trkpt>
      <trkpt lat="47.47283" lon="-0.5766">
        <ele>27</ele>
        <time>2015-07-07T09:25:51.000Z</time>
      </trkpt>
      <trkpt lat="47.47285" lon="-0.57663">
        <ele>26</ele>
        <time>2015-07-07T09:25:52.000Z</time>
      </trkpt>
      <trkpt lat="47.47286" lon="-0.57667">
        <ele>26</ele>
        <time>2015-07-07T09:25:53.000Z</time>
      </trkpt>
      <trkpt lat="47.47288" lon="-0.5767">
        <ele>26</ele>
        <time>2015-07-07T09:25:54.000Z</time>
      </trkpt>
      <trkpt lat="47.4729" lon="-0.57674">
        <ele>27</ele>
        <time>2015-07-07T09:25:55.000Z</time>
      </trkpt>
      <trkpt lat="47.47292" lon="-0.57677">
        <ele>27</ele>
        <time>2015-07-07T09:25:56.000Z</time>
      </trkpt>
      <trkpt lat="47.47294" lon="-0.57679">
        <ele>26</ele>
        <time>2015-07-07T09:25:57.000Z</time>
      </trkpt>
      <trkpt lat="47.47297" lon="-0.57679">
        <ele>24</ele>
        <time>2015-07-07T09:25:58.000Z</time>
      </trkpt>
      <trkpt lat="47.47299" lon="-0.57679">
        <ele>24</ele>
        <time>2015-07-07T09:25:59.000Z</time>
      </trkpt>
      <trkpt lat="47.47302" lon="-0.57678">
        <ele>24</ele>
        <time>2015-07-07T09:26:00.000Z</time>
      </trkpt>
      <trkpt lat="47.47306" lon="-0.57678">
        <ele>24</ele>
        <time>2015-07-07T09:26:01.000Z</time>
      </trkpt>
      <trkpt lat="47.47308" lon="-0.57677">
        <ele>25</ele>
        <time>2015-07-07T09:26:02.000Z</time>
      </trkpt>
      <trkpt lat="47.47311" lon="-0.57677">
        <ele>24</ele>
        <time>2015-07-07T09:26:03.000Z</time>
      </trkpt>
      <trkpt lat="47.47314" lon="-0.57676">
        <ele>25</ele>
        <time>2015-07-07T09:26:04.000Z</time>
      </trkpt>
      <trkpt lat="47.47317" lon="-0.57676">
        <ele>25</ele>
        <time>2015-07-07T09:26:05.000Z</time>
      </trkpt>
      <trkpt lat="47.4732" lon="-0.57675">
        <ele>25</ele>
        <time>2015-07-07T09:26:06.000Z</time>
      </trkpt>
      <trkpt lat="47.47322" lon="-0.57674">
        <ele>25</ele>
        <time>2015-07-07T09:26:07.000Z</time>
      </trkpt>
      <trkpt lat="47.47325" lon="-0.57673">
        <ele>25</ele>
        <time>2015-07-07T09:26:08.000Z</time>
      </trkpt>
      <trkpt lat="47.47328" lon="-0.57672">
        <ele>24</ele>
        <time>2015-07-07T09:26:09.000Z</time>
      </trkpt>
      <trkpt lat="47.4733" lon="-0.57672">
        <ele>24</ele>
        <time>2015-07-07T09:26:10.000Z</time>
      </trkpt>
      <trkpt lat="47.47333" lon="-0.57671">
        <ele>25</ele>
        <time>2015-07-07T09:26:11.000Z</time>
      </trkpt>
      <trkpt lat="47.47336" lon="-0.5767">
        <ele>24</ele>
        <time>2015-07-07T09:26:12.000Z</time>
      </trkpt>
      <trkpt lat="47.47339" lon="-0.57669">
        <ele>24</ele>
        <time>2015-07-07T09:26:13.000Z</time>
      </trkpt>
      <trkpt lat="47.47342" lon="-0.57668">
        <ele>24</ele>
        <time>2015-07-07T09:26:14.000Z</time>
      </trkpt>
      <trkpt lat="47.47345" lon="-0.57668">
        <ele>25</ele>
        <time>2015-07-07T09:26:15.000Z</time>
      </trkpt>
      <trkpt lat="47.47348" lon="-0.57667">
        <ele>25</ele>
        <time>2015-07-07T09:26:16.000Z</time>
      </trkpt>
      <trkpt lat="47.47351" lon="-0.57667">
        <ele>25</ele>
        <time>2015-07-07T09:26:17.000Z</time>
      </trkpt>
      <trkpt lat="47.47354" lon="-0.57666">
        <ele>24</ele>
        <time>2015-07-07T09:26:18.000Z</time>
      </trkpt>
      <trkpt lat="47.47356" lon="-0.57666">
        <ele>24</ele>
        <time>2015-07-07T09:26:19.000Z</time>
      </trkpt>
      <trkpt lat="47.47359" lon="-0.57665">
        <ele>24</ele>
        <time>2015-07-07T09:26:20.000Z</time>
      </trkpt>
      <trkpt lat="47.47362" lon="-0.57664">
        <ele>24</ele>
        <time>2015-07-07T09:26:21.000Z</time>
      </trkpt>
      <trkpt lat="47.47365" lon="-0.57664">
        <ele>25</ele>
        <time>2015-07-07T09:26:22.000Z</time>
      </trkpt>
      <trkpt lat="47.47368" lon="-0.57663">
        <ele>24</ele>
        <time>2015-07-07T09:26:23.000Z</time>
      </trkpt>
      <trkpt lat="47.4737" lon="-0.57662">
        <ele>24</ele>
        <time>2015-07-07T09:26:24.000Z</time>
      </trkpt>
      <trkpt lat="47.47372" lon="-0.57662">
        <ele>25</ele>
        <time>2015-07-07T09:26:25.000Z</time>
      </trkpt>
      <trkpt lat="47.47375" lon="-0.57662">
        <ele>25</ele>
        <time>2015-07-07T09:26:26.000Z</time>
      </trkpt>
      <trkpt lat="47.47378" lon="-0.57662">
        <ele>25</ele>
        <time>2015-07-07T09:26:27.000Z</time>
      </trkpt>
      <trkpt lat="47.4738" lon="-0.57662">
        <ele>26</ele>
        <time>2015-07-07T09:26:28.000Z</time>
      </trkpt>
      <trkpt lat="47.47383" lon="-0.57662">
        <ele>26</ele>
        <time>2015-07-07T09:26:29.000Z</time>
      </trkpt>
      <trkpt lat="47.47386" lon="-0.57662">
        <ele>26</ele>
        <time>2015-07-07T09:26:30.000Z</time>
      </trkpt>
      <trkpt lat="47.47388" lon="-0.57662">
        <ele>26</ele>
        <time>2015-07-07T09:26:31.000Z</time>
      </trkpt>
      <trkpt lat="47.47391" lon="-0.57662">
        <ele>26</ele>
        <time>2015-07-07T09:26:32.000Z</time>
      </trkpt>
      <trkpt lat="47.47394" lon="-0.57662">
        <ele>26</ele>
        <time>2015-07-07T09:26:33.000Z</time>
      </trkpt>
      <trkpt lat="47.47397" lon="-0.57661">
        <ele>26</ele>
        <time>2015-07-07T09:26:34.000Z</time>
      </trkpt>
      <trkpt lat="47.474" lon="-0.57661">
        <ele>25</ele>
        <time>2015-07-07T09:26:35.000Z</time>
      </trkpt>
      <trkpt lat="47.47403" lon="-0.5766">
        <ele>26</ele>
        <time>2015-07-07T09:26:36.000Z</time>
      </trkpt>
      <trkpt lat="47.47406" lon="-0.57658">
        <ele>26</ele>
        <time>2015-07-07T09:26:37.000Z</time>
      </trkpt>
      <trkpt lat="47.47409" lon="-0.57657">
        <ele>26</ele>
        <time>2015-07-07T09:26:38.000Z</time>
      </trkpt>
      <trkpt lat="47.47412" lon="-0.57656">
        <ele>25</ele>
        <time>2015-07-07T09:26:39.000Z</time>
      </trkpt>
      <trkpt lat="47.47414" lon="-0.57655">
        <ele>25</ele>
        <time>2015-07-07T09:26:40.000Z</time>
      </trkpt>
      <trkpt lat="47.47417" lon="-0.57653">
        <ele>25</ele>
        <time>2015-07-07T09:26:41.000Z</time>
      </trkpt>
      <trkpt lat="47.4742" lon="-0.57653">
        <ele>25</ele>
        <time>2015-07-07T09:26:42.000Z</time>
      </trkpt>
      <trkpt lat="47.47423" lon="-0.57652">
        <ele>25</ele>
        <time>2015-07-07T09:26:43.000Z</time>
      </trkpt>
      <trkpt lat="47.47426" lon="-0.57652">
        <ele>25</ele>
        <time>2015-07-07T09:26:44.000Z</time>
      </trkpt>
      <trkpt lat="47.4743" lon="-0.57652">
        <ele>26</ele>
        <time>2015-07-07T09:26:45.000Z</time>
      </trkpt>
      <trkpt lat="47.47433" lon="-0.57653">
        <ele>26</ele>
        <time>2015-07-07T09:26:46.000Z</time>
      </trkpt>
      <trkpt lat="47.47437" lon="-0.57653">
        <ele>26</ele>
        <time>2015-07-07T09:26:47.000Z</time>
      </trkpt>
      <trkpt lat="47.4744" lon="-0.57654">
        <ele>26</ele>
        <time>2015-07-07T09:26:48.000Z</time>
      </trkpt>
      <trkpt lat="47.47443" lon="-0.57655">
        <ele>27</ele>
        <time>2015-07-07T09:26:49.000Z</time>
      </trkpt>
      <trkpt lat="47.47446" lon="-0.57656">
        <ele>27</ele>
        <time>2015-07-07T09:26:50.000Z</time>
      </trkpt>
      <trkpt lat="47.4745" lon="-0.57657">
        <ele>27</ele>
        <time>2015-07-07T09:26:51.000Z</time>
      </trkpt>
      <trkpt lat="47.47453" lon="-0.57658">
        <ele>27</ele>
        <time>2015-07-07T09:26:52.000Z</time>
      </trkpt>
      <trkpt lat="47.47456" lon="-0.57659">
        <ele>27</ele>
        <time>2015-07-07T09:26:53.000Z</time>
      </trkpt>
      <trkpt lat="47.47459" lon="-0.5766">
        <ele>27</ele>
        <time>2015-07-07T09:26:54.000Z</time>
      </trkpt>
      <trkpt lat="47.47461" lon="-0.57662">
        <ele>28</ele>
        <time>2015-07-07T09:26:55.000Z</time>
      </trkpt>
      <trkpt lat="47.47464" lon="-0.57663">
        <ele>27</ele>
        <time>2015-07-07T09:26:56.000Z</time>
      </trkpt>
      <trkpt lat="47.47467" lon="-0.57664">
        <ele>27</ele>
        <time>2015-07-07T09:26:57.000Z</time>
      </trkpt>
      <trkpt lat="47.4747" lon="-0.57665">
        <ele>27</ele>
        <time>2015-07-07T09:26:58.000Z</time>
      </trkpt>
      <trkpt lat="47.47473" lon="-0.57667">
        <ele>27</ele>
        <time>2015-07-07T09:26:59.000Z</time>
      </trkpt>
      <trkpt lat="47.47476" lon="-0.57668">
        <ele>25</ele>
        <time>2015-07-07T09:27:00.000Z</time>
      </trkpt>
      <trkpt lat="47.47478" lon="-0.5767">
        <ele>25</ele>
        <time>2015-07-07T09:27:01.000Z</time>
      </trkpt>
      <trkpt lat="47.4748" lon="-0.57672">
        <ele>25</ele>
        <time>2015-07-07T09:27:02.000Z</time>
      </trkpt>
      <trkpt lat="47.47482" lon="-0.57675">
        <ele>26</ele>
        <time>2015-07-07T09:27:03.000Z</time>
      </trkpt>
      <trkpt lat="47.47484" lon="-0.57679">
        <ele>26</ele>
        <time>2015-07-07T09:27:04.000Z</time>
      </trkpt>
      <trkpt lat="47.47486" lon="-0.57682">
        <ele>25</ele>
        <time>2015-07-07T09:27:05.000Z</time>
      </trkpt>
      <trkpt lat="47.47489" lon="-0.57684">
        <ele>24</ele>
        <time>2015-07-07T09:27:06.000Z</time>
      </trkpt>
      <trkpt lat="47.47491" lon="-0.57687">
        <ele>24</ele>
        <time>2015-07-07T09:27:07.000Z</time>
      </trkpt>
      <trkpt lat="47.47494" lon="-0.57689">
        <ele>23</ele>
        <time>2015-07-07T09:27:08.000Z</time>
      </trkpt>
      <trkpt lat="47.47496" lon="-0.57692">
        <ele>23</ele>
        <time>2015-07-07T09:27:09.000Z</time>
      </trkpt>
      <trkpt lat="47.47498" lon="-0.57695">
        <ele>24</ele>
        <time>2015-07-07T09:27:10.000Z</time>
      </trkpt>
      <trkpt lat="47.475" lon="-0.57698">
        <ele>24</ele>
        <time>2015-07-07T09:27:11.000Z</time>
      </trkpt>
      <trkpt lat="47.47502" lon="-0.57702">
        <ele>24</ele>
        <time>2015-07-07T09:27:12.000Z</time>
      </trkpt>
      <trkpt lat="47.47504" lon="-0.57706">
        <ele>24</ele>
        <time>2015-07-07T09:27:13.000Z</time>
      </trkpt>
      <trkpt lat="47.47505" lon="-0.57709">
        <ele>25</ele>
        <time>2015-07-07T09:27:14.000Z</time>
      </trkpt>
      <trkpt lat="47.47507" lon="-0.57713">
        <ele>25</ele>
        <time>2015-07-07T09:27:15.000Z</time>
      </trkpt>
      <trkpt lat="47.47509" lon="-0.57717">
        <ele>25</ele>
        <time>2015-07-07T09:27:16.000Z</time>
      </trkpt>
      <trkpt lat="47.4751" lon="-0.57721">
        <ele>26</ele>
        <time>2015-07-07T09:27:17.000Z</time>
      </trkpt>
      <trkpt lat="47.47511" lon="-0.57725">
        <ele>24</ele>
        <time>2015-07-07T09:27:18.000Z</time>
      </trkpt>
      <trkpt lat="47.47512" lon="-0.57729">
        <ele>24</ele>
        <time>2015-07-07T09:27:19.000Z</time>
      </trkpt>
      <trkpt lat="47.47513" lon="-0.57733">
        <ele>23</ele>
        <time>2015-07-07T09:27:20.000Z</time>
      </trkpt>
      <trkpt lat="47.47515" lon="-0.57737">
        <ele>24</ele>
        <time>2015-07-07T09:27:21.000Z</time>
      </trkpt>
      <trkpt lat="47.47516" lon="-0.5774">
        <ele>24</ele>
        <time>2015-07-07T09:27:22.000Z</time>
      </trkpt>
      <trkpt lat="47.47517" lon="-0.57744">
        <ele>24</ele>
        <time>2015-07-07T09:27:23.000Z</time>
      </trkpt>
      <trkpt lat="47.47519" lon="-0.57747">
        <ele>23</ele>
        <time>2015-07-07T09:27:24.000Z</time>
      </trkpt>
      <trkpt lat="47.4752" lon="-0.57751">
        <ele>23</ele>
        <time>2015-07-07T09:27:25.000Z</time>
      </trkpt>
      <trkpt lat="47.47522" lon="-0.57754">
        <ele>24</ele>
        <time>2015-07-07T09:27:26.000Z</time>
      </trkpt>
      <trkpt lat="47.47523" lon="-0.57757">
        <ele>26</ele>
        <time>2015-07-07T09:27:27.000Z</time>
      </trkpt>
      <trkpt lat="47.47525" lon="-0.57759">
        <ele>26</ele>
        <time>2015-07-07T09:27:28.000Z</time>
      </trkpt>
      <trkpt lat="47.47527" lon="-0.57762">
        <ele>27</ele>
        <time>2015-07-07T09:27:29.000Z</time>
      </trkpt>
      <trkpt lat="47.47529" lon="-0.57764">
        <ele>27</ele>
        <time>2015-07-07T09:27:30.000Z</time>
      </trkpt>
      <trkpt lat="47.47531" lon="-0.57766">
        <ele>28</ele>
        <time>2015-07-07T09:27:31.000Z</time>
      </trkpt>
      <trkpt lat="47.47533" lon="-0.57768">
        <ele>27</ele>
        <time>2015-07-07T09:27:32.000Z</time>
      </trkpt>
      <trkpt lat="47.47534" lon="-0.5777">
        <ele>28</ele>
        <time>2015-07-07T09:27:33.000Z</time>
      </trkpt>
      <trkpt lat="47.47536" lon="-0.57772">
        <ele>28</ele>
        <time>2015-07-07T09:27:34.000Z</time>
      </trkpt>
      <trkpt lat="47.47538" lon="-0.57775">
        <ele>28</ele>
        <time>2015-07-07T09:27:35.000Z</time>
      </trkpt>
      <trkpt lat="47.47539" lon="-0.57778">
        <ele>28</ele>
        <time>2015-07-07T09:27:36.000Z</time>
      </trkpt>
      <trkpt lat="47.47541" lon="-0.5778">
        <ele>28</ele>
        <time>2015-07-07T09:27:37.000Z</time>
      </trkpt>
      <trkpt lat="47.47542" lon="-0.57782">
        <ele>28</ele>
        <time>2015-07-07T09:27:38.000Z</time>
      </trkpt>
      <trkpt lat="47.47544" lon="-0.57785">
        <ele>27</ele>
        <time>2015-07-07T09:27:39.000Z</time>
      </trkpt>
      <trkpt lat="47.47545" lon="-0.57788">
        <ele>27</ele>
        <time>2015-07-07T09:27:40.000Z</time>
      </trkpt>
      <trkpt lat="47.47546" lon="-0.57792">
        <ele>26</ele>
        <time>2015-07-07T09:27:41.000Z</time>
      </trkpt>
      <trkpt lat="47.47547" lon="-0.57796">
        <ele>26</ele>
        <time>2015-07-07T09:27:42.000Z</time>
      </trkpt>
      <trkpt lat="47.47548" lon="-0.578">
        <ele>26</ele>
        <time>2015-07-07T09:27:43.000Z</time>
      </trkpt>
      <trkpt lat="47.47549" lon="-0.57804">
        <ele>27</ele>
        <time>2015-07-07T09:27:44.000Z</time>
      </trkpt>
      <trkpt lat="47.47551" lon="-0.57808">
        <ele>27</ele>
        <time>2015-07-07T09:27:45.000Z</time>
      </trkpt>
      <trkpt lat="47.47552" lon="-0.57813">
        <ele>27</ele>
        <time>2015-07-07T09:27:46.000Z</time>
      </trkpt>
      <trkpt lat="47.47553" lon="-0.57818">
        <ele>28</ele>
        <time>2015-07-07T09:27:47.000Z</time>
      </trkpt>
      <trkpt lat="47.47554" lon="-0.57822">
        <ele>28</ele>
        <time>2015-07-07T09:27:48.000Z</time>
      </trkpt>
      <trkpt lat="47.47555" lon="-0.57826">
        <ele>28</ele>
        <time>2015-07-07T09:27:49.000Z</time>
      </trkpt>
      <trkpt lat="47.47556" lon="-0.5783">
        <ele>28</ele>
        <time>2015-07-07T09:27:50.000Z</time>
      </trkpt>
      <trkpt lat="47.47557" lon="-0.57834">
        <ele>27</ele>
        <time>2015-07-07T09:27:51.000Z</time>
      </trkpt>
      <trkpt lat="47.47558" lon="-0.57838">
        <ele>27</ele>
        <time>2015-07-07T09:27:52.000Z</time>
      </trkpt>
      <trkpt lat="47.47559" lon="-0.57842">
        <ele>28</ele>
        <time>2015-07-07T09:27:53.000Z</time>
      </trkpt>
      <trkpt lat="47.47559" lon="-0.57847">
        <ele>29</ele>
        <time>2015-07-07T09:27:54.000Z</time>
      </trkpt>
      <trkpt lat="47.4756" lon="-0.57851">
        <ele>30</ele>
        <time>2015-07-07T09:27:55.000Z</time>
      </trkpt>
      <trkpt lat="47.4756" lon="-0.57856">
        <ele>30</ele>
        <time>2015-07-07T09:27:56.000Z</time>
      </trkpt>
      <trkpt lat="47.47561" lon="-0.5786">
        <ele>31</ele>
        <time>2015-07-07T09:27:57.000Z</time>
      </trkpt>
      <trkpt lat="47.47562" lon="-0.57864">
        <ele>31</ele>
        <time>2015-07-07T09:27:58.000Z</time>
      </trkpt>
      <trkpt lat="47.47563" lon="-0.57869">
        <ele>31</ele>
        <time>2015-07-07T09:27:59.000Z</time>
      </trkpt>
      <trkpt lat="47.47564" lon="-0.57873">
        <ele>31</ele>
        <time>2015-07-07T09:28:00.000Z</time>
      </trkpt>
      <trkpt lat="47.47565" lon="-0.57877">
        <ele>31</ele>
        <time>2015-07-07T09:28:01.000Z</time>
      </trkpt>
      <trkpt lat="47.47566" lon="-0.57881">
        <ele>32</ele>
        <time>2015-07-07T09:28:02.000Z</time>
      </trkpt>
      <trkpt lat="47.47567" lon="-0.57885">
        <ele>32</ele>
        <time>2015-07-07T09:28:03.000Z</time>
      </trkpt>
      <trkpt lat="47.47567" lon="-0.57889">
        <ele>33</ele>
        <time>2015-07-07T09:28:04.000Z</time>
      </trkpt>
      <trkpt lat="47.47568" lon="-0.57894">
        <ele>32</ele>
        <time>2015-07-07T09:28:05.000Z</time>
      </trkpt>
      <trkpt lat="47.47568" lon="-0.57898">
        <ele>32</ele>
        <time>2015-07-07T09:28:06.000Z</time>
      </trkpt>
      <trkpt lat="47.4757" lon="-0.57902">
        <ele>32</ele>
        <time>2015-07-07T09:28:07.000Z</time>
      </trkpt>
      <trkpt lat="47.47571" lon="-0.57907">
        <ele>32</ele>
        <time>2015-07-07T09:28:08.000Z</time>
      </trkpt>
      <trkpt lat="47.47572" lon="-0.57912">
        <ele>33</ele>
        <time>2015-07-07T09:28:09.000Z</time>
      </trkpt>
      <trkpt lat="47.47573" lon="-0.57916">
        <ele>33</ele>
        <time>2015-07-07T09:28:10.000Z</time>
      </trkpt>
      <trkpt lat="47.47574" lon="-0.57921">
        <ele>35</ele>
        <time>2015-07-07T09:28:11.000Z</time>
      </trkpt>
      <trkpt lat="47.47574" lon="-0.57925">
        <ele>35</ele>
        <time>2015-07-07T09:28:12.000Z</time>
      </trkpt>
      <trkpt lat="47.47574" lon="-0.57931">
        <ele>36</ele>
        <time>2015-07-07T09:28:13.000Z</time>
      </trkpt>
      <trkpt lat="47.47575" lon="-0.57935">
        <ele>37</ele>
        <time>2015-07-07T09:28:14.000Z</time>
      </trkpt>
      <trkpt lat="47.47576" lon="-0.57939">
        <ele>37</ele>
        <time>2015-07-07T09:28:15.000Z</time>
      </trkpt>
      <trkpt lat="47.47576" lon="-0.57943">
        <ele>37</ele>
        <time>2015-07-07T09:28:16.000Z</time>
      </trkpt>
      <trkpt lat="47.47577" lon="-0.57947">
        <ele>37</ele>
        <time>2015-07-07T09:28:17.000Z</time>
      </trkpt>
      <trkpt lat="47.47577" lon="-0.57951">
        <ele>36</ele>
        <time>2015-07-07T09:28:18.000Z</time>
      </trkpt>
      <trkpt lat="47.47578" lon="-0.57956">
        <ele>36</ele>
        <time>2015-07-07T09:28:19.000Z</time>
      </trkpt>
      <trkpt lat="47.47579" lon="-0.5796">
        <ele>36</ele>
        <time>2015-07-07T09:28:20.000Z</time>
      </trkpt>
      <trkpt lat="47.4758" lon="-0.57965">
        <ele>36</ele>
        <time>2015-07-07T09:28:21.000Z</time>
      </trkpt>
      <trkpt lat="47.4758" lon="-0.57969">
        <ele>36</ele>
        <time>2015-07-07T09:28:22.000Z</time>
      </trkpt>
      <trkpt lat="47.47582" lon="-0.57973">
        <ele>36</ele>
        <time>2015-07-07T09:28:23.000Z</time>
      </trkpt>
      <trkpt lat="47.47583" lon="-0.57977">
        <ele>35</ele>
        <time>2015-07-07T09:28:24.000Z</time>
      </trkpt>
      <trkpt lat="47.47584" lon="-0.57981">
        <ele>35</ele>
        <time>2015-07-07T09:28:25.000Z</time>
      </trkpt>
      <trkpt lat="47.47585" lon="-0.57985">
        <ele>35</ele>
        <time>2015-07-07T09:28:26.000Z</time>
      </trkpt>
      <trkpt lat="47.47586" lon="-0.5799">
        <ele>36</ele>
        <time>2015-07-07T09:28:27.000Z</time>
      </trkpt>
      <trkpt lat="47.47587" lon="-0.57994">
        <ele>36</ele>
        <time>2015-07-07T09:28:28.000Z</time>
      </trkpt>
      <trkpt lat="47.47588" lon="-0.57998">
        <ele>36</ele>
        <time>2015-07-07T09:28:29.000Z</time>
      </trkpt>
      <trkpt lat="47.47589" lon="-0.58003">
        <ele>37</ele>
        <time>2015-07-07T09:28:30.000Z</time>
      </trkpt>
      <trkpt lat="47.4759" lon="-0.58007">
        <ele>36</ele>
        <time>2015-07-07T09:28:31.000Z</time>
      </trkpt>
      <trkpt lat="47.47591" lon="-0.5801">
        <ele>36</ele>
        <time>2015-07-07T09:28:32.000Z</time>
      </trkpt>
      <trkpt lat="47.47593" lon="-0.58014">
        <ele>36</ele>
        <time>2015-07-07T09:28:33.000Z</time>
      </trkpt>
      <trkpt lat="47.47594" lon="-0.58018">
        <ele>36</ele>
        <time>2015-07-07T09:28:34.000Z</time>
      </trkpt>
      <trkpt lat="47.47595" lon="-0.58022">
        <ele>37</ele>
        <time>2015-07-07T09:28:35.000Z</time>
      </trkpt>
      <trkpt lat="47.47596" lon="-0.58026">
        <ele>37</ele>
        <time>2015-07-07T09:28:36.000Z</time>
      </trkpt>
      <trkpt lat="47.47598" lon="-0.58029">
        <ele>37</ele>
        <time>2015-07-07T09:28:37.000Z</time>
      </trkpt>
      <trkpt lat="47.47599" lon="-0.58033">
        <ele>37</ele>
        <time>2015-07-07T09:28:38.000Z</time>
      </trkpt>
      <trkpt lat="47.47601" lon="-0.58035">
        <ele>37</ele>
        <time>2015-07-07T09:28:39.000Z</time>
      </trkpt>
      <trkpt lat="47.47602" lon="-0.58038">
        <ele>37</ele>
        <time>2015-07-07T09:28:40.000Z</time>
      </trkpt>
      <trkpt lat="47.47604" lon="-0.58042">
        <ele>37</ele>
        <time>2015-07-07T09:28:41.000Z</time>
      </trkpt>
      <trkpt lat="47.47606" lon="-0.58045">
        <ele>37</ele>
        <time>2015-07-07T09:28:42.000Z</time>
      </trkpt>
      <trkpt lat="47.47608" lon="-0.58049">
        <ele>37</ele>
        <time>2015-07-07T09:28:43.000Z</time>
      </trkpt>
      <trkpt lat="47.47611" lon="-0.58052">
        <ele>36</ele>
        <time>2015-07-07T09:28:44.000Z</time>
      </trkpt>
      <trkpt lat="47.47612" lon="-0.58055">
        <ele>36</ele>
        <time>2015-07-07T09:28:45.000Z</time>
      </trkpt>
      <trkpt lat="47.47614" lon="-0.58058">
        <ele>35</ele>
        <time>2015-07-07T09:28:46.000Z</time>
      </trkpt>
      <trkpt lat="47.47616" lon="-0.58061">
        <ele>35</ele>
        <time>2015-07-07T09:28:47.000Z</time>
      </trkpt>
      <trkpt lat="47.47618" lon="-0.58063">
        <ele>34</ele>
        <time>2015-07-07T09:28:48.000Z</time>
      </trkpt>
      <trkpt lat="47.4762" lon="-0.58066">
        <ele>34</ele>
        <time>2015-07-07T09:28:49.000Z</time>
      </trkpt>
      <trkpt lat="47.47622" lon="-0.58068">
        <ele>34</ele>
        <time>2015-07-07T09:28:50.000Z</time>
      </trkpt>
      <trkpt lat="47.47625" lon="-0.5807">
        <ele>34</ele>
        <time>2015-07-07T09:28:51.000Z</time>
      </trkpt>
      <trkpt lat="47.47627" lon="-0.58072">
        <ele>33</ele>
        <time>2015-07-07T09:28:52.000Z</time>
      </trkpt>
      <trkpt lat="47.4763" lon="-0.58073">
        <ele>32</ele>
        <time>2015-07-07T09:28:53.000Z</time>
      </trkpt>
      <trkpt lat="47.47633" lon="-0.58073">
        <ele>33</ele>
        <time>2015-07-07T09:28:54.000Z</time>
      </trkpt>
      <trkpt lat="47.47635" lon="-0.58072">
        <ele>32</ele>
        <time>2015-07-07T09:28:55.000Z</time>
      </trkpt>
      <trkpt lat="47.47638" lon="-0.58072">
        <ele>33</ele>
        <time>2015-07-07T09:28:56.000Z</time>
      </trkpt>
      <trkpt lat="47.4764" lon="-0.58071">
        <ele>33</ele>
        <time>2015-07-07T09:28:57.000Z</time>
      </trkpt>
      <trkpt lat="47.47642" lon="-0.5807">
        <ele>33</ele>
        <time>2015-07-07T09:28:58.000Z</time>
      </trkpt>
      <trkpt lat="47.47645" lon="-0.5807">
        <ele>32</ele>
        <time>2015-07-07T09:28:59.000Z</time>
      </trkpt>
      <trkpt lat="47.47648" lon="-0.5807">
        <ele>32</ele>
        <time>2015-07-07T09:29:00.000Z</time>
      </trkpt>
      <trkpt lat="47.47651" lon="-0.58069">
        <ele>31</ele>
        <time>2015-07-07T09:29:01.000Z</time>
      </trkpt>
      <trkpt lat="47.47653" lon="-0.58069">
        <ele>31</ele>
        <time>2015-07-07T09:29:02.000Z</time>
      </trkpt>
      <trkpt lat="47.47656" lon="-0.58068">
        <ele>31</ele>
        <time>2015-07-07T09:29:03.000Z</time>
      </trkpt>
      <trkpt lat="47.47659" lon="-0.58068">
        <ele>31</ele>
        <time>2015-07-07T09:29:04.000Z</time>
      </trkpt>
      <trkpt lat="47.47662" lon="-0.58069">
        <ele>32</ele>
        <time>2015-07-07T09:29:05.000Z</time>
      </trkpt>
      <trkpt lat="47.47665" lon="-0.58068">
        <ele>32</ele>
        <time>2015-07-07T09:29:06.000Z</time>
      </trkpt>
      <trkpt lat="47.47668" lon="-0.58068">
        <ele>32</ele>
        <time>2015-07-07T09:29:07.000Z</time>
      </trkpt>
      <trkpt lat="47.47672" lon="-0.58068">
        <ele>32</ele>
        <time>2015-07-07T09:29:08.000Z</time>
      </trkpt>
      <trkpt lat="47.47675" lon="-0.58067">
        <ele>31</ele>
        <time>2015-07-07T09:29:09.000Z</time>
      </trkpt>
      <trkpt lat="47.47679" lon="-0.58067">
        <ele>32</ele>
        <time>2015-07-07T09:29:10.000Z</time>
      </trkpt>
      <trkpt lat="47.47683" lon="-0.58068">
        <ele>33</ele>
        <time>2015-07-07T09:29:11.000Z</time>
      </trkpt>
      <trkpt lat="47.47686" lon="-0.58069">
        <ele>33</ele>
        <time>2015-07-07T09:29:12.000Z</time>
      </trkpt>
      <trkpt lat="47.4769" lon="-0.58069">
        <ele>33</ele>
        <time>2015-07-07T09:29:13.000Z</time>
      </trkpt>
      <trkpt lat="47.47693" lon="-0.58069">
        <ele>33</ele>
        <time>2015-07-07T09:29:14.000Z</time>
      </trkpt>
      <trkpt lat="47.47696" lon="-0.58069">
        <ele>33</ele>
        <time>2015-07-07T09:29:15.000Z</time>
      </trkpt>
      <trkpt lat="47.47699" lon="-0.58068">
        <ele>32</ele>
        <time>2015-07-07T09:29:16.000Z</time>
      </trkpt>
      <trkpt lat="47.47702" lon="-0.58067">
        <ele>32</ele>
        <time>2015-07-07T09:29:17.000Z</time>
      </trkpt>
      <trkpt lat="47.47705" lon="-0.58066">
        <ele>32</ele>
        <time>2015-07-07T09:29:18.000Z</time>
      </trkpt>
      <trkpt lat="47.47707" lon="-0.58064">
        <ele>32</ele>
        <time>2015-07-07T09:29:19.000Z</time>
      </trkpt>
      <trkpt lat="47.4771" lon="-0.58063">
        <ele>32</ele>
        <time>2015-07-07T09:29:20.000Z</time>
      </trkpt>
      <trkpt lat="47.47713" lon="-0.58061">
        <ele>32</ele>
        <time>2015-07-07T09:29:21.000Z</time>
      </trkpt>
      <trkpt lat="47.47715" lon="-0.58059">
        <ele>31</ele>
        <time>2015-07-07T09:29:22.000Z</time>
      </trkpt>
      <trkpt lat="47.47718" lon="-0.58057">
        <ele>31</ele>
        <time>2015-07-07T09:29:23.000Z</time>
      </trkpt>
      <trkpt lat="47.4772" lon="-0.58054">
        <ele>32</ele>
        <time>2015-07-07T09:29:24.000Z</time>
      </trkpt>
      <trkpt lat="47.47723" lon="-0.58051">
        <ele>32</ele>
        <time>2015-07-07T09:29:25.000Z</time>
      </trkpt>
      <trkpt lat="47.47725" lon="-0.58048">
        <ele>32</ele>
        <time>2015-07-07T09:29:26.000Z</time>
      </trkpt>
      <trkpt lat="47.47728" lon="-0.58045">
        <ele>31</ele>
        <time>2015-07-07T09:29:27.000Z</time>
      </trkpt>
      <trkpt lat="47.4773" lon="-0.58041">
        <ele>31</ele>
        <time>2015-07-07T09:29:28.000Z</time>
      </trkpt>
      <trkpt lat="47.47732" lon="-0.58037">
        <ele>31</ele>
        <time>2015-07-07T09:29:29.000Z</time>
      </trkpt>
      <trkpt lat="47.47734" lon="-0.58034">
        <ele>30</ele>
        <time>2015-07-07T09:29:30.000Z</time>
      </trkpt>
      <trkpt lat="47.47735" lon="-0.58031">
        <ele>31</ele>
        <time>2015-07-07T09:29:31.000Z</time>
      </trkpt>
      <trkpt lat="47.47737" lon="-0.58028">
        <ele>30</ele>
        <time>2015-07-07T09:29:32.000Z</time>
      </trkpt>
      <trkpt lat="47.47739" lon="-0.58025">
        <ele>29</ele>
        <time>2015-07-07T09:29:33.000Z</time>
      </trkpt>
      <trkpt lat="47.4774" lon="-0.58022">
        <ele>28</ele>
        <time>2015-07-07T09:29:34.000Z</time>
      </trkpt>
      <trkpt lat="47.47742" lon="-0.58019">
        <ele>27</ele>
        <time>2015-07-07T09:29:35.000Z</time>
      </trkpt>
      <trkpt lat="47.47744" lon="-0.58016">
        <ele>25</ele>
        <time>2015-07-07T09:29:36.000Z</time>
      </trkpt>
      <trkpt lat="47.47745" lon="-0.58014">
        <ele>25</ele>
        <time>2015-07-07T09:29:37.000Z</time>
      </trkpt>
      <trkpt lat="47.47747" lon="-0.58011">
        <ele>26</ele>
        <time>2015-07-07T09:29:38.000Z</time>
      </trkpt>
      <trkpt lat="47.47748" lon="-0.58007">
        <ele>26</ele>
        <time>2015-07-07T09:29:39.000Z</time>
      </trkpt>
      <trkpt lat="47.4775" lon="-0.58002">
        <ele>25</ele>
        <time>2015-07-07T09:29:40.000Z</time>
      </trkpt>
      <trkpt lat="47.47751" lon="-0.57998">
        <ele>26</ele>
        <time>2015-07-07T09:29:41.000Z</time>
      </trkpt>
      <trkpt lat="47.47753" lon="-0.57993">
        <ele>26</ele>
        <time>2015-07-07T09:29:42.000Z</time>
      </trkpt>
      <trkpt lat="47.47754" lon="-0.57989">
        <ele>26</ele>
        <time>2015-07-07T09:29:43.000Z</time>
      </trkpt>
      <trkpt lat="47.47757" lon="-0.57986">
        <ele>28</ele>
        <time>2015-07-07T09:29:44.000Z</time>
      </trkpt>
      <trkpt lat="47.47759" lon="-0.57983">
        <ele>28</ele>
        <time>2015-07-07T09:29:45.000Z</time>
      </trkpt>
      <trkpt lat="47.47761" lon="-0.57979">
        <ele>28</ele>
        <time>2015-07-07T09:29:46.000Z</time>
      </trkpt>
      <trkpt lat="47.47763" lon="-0.57976">
        <ele>27</ele>
        <time>2015-07-07T09:29:47.000Z</time>
      </trkpt>
      <trkpt lat="47.47764" lon="-0.57973">
        <ele>28</ele>
        <time>2015-07-07T09:29:48.000Z</time>
      </trkpt>
      <trkpt lat="47.47765" lon="-0.5797">
        <ele>28</ele>
        <time>2015-07-07T09:29:49.000Z</time>
      </trkpt>
      <trkpt lat="47.47767" lon="-0.57966">
        <ele>29</ele>
        <time>2015-07-07T09:29:50.000Z</time>
      </trkpt>
      <trkpt lat="47.47769" lon="-0.57962">
        <ele>29</ele>
        <time>2015-07-07T09:29:51.000Z</time>
      </trkpt>
      <trkpt lat="47.4777" lon="-0.57959">
        <ele>30</ele>
        <time>2015-07-07T09:29:52.000Z</time>
      </trkpt>
      <trkpt lat="47.47772" lon="-0.57955">
        <ele>30</ele>
        <time>2015-07-07T09:29:53.000Z</time>
      </trkpt>
      <trkpt lat="47.47773" lon="-0.57952">
        <ele>30</ele>
        <time>2015-07-07T09:29:54.000Z</time>
      </trkpt>
      <trkpt lat="47.47774" lon="-0.57949">
        <ele>31</ele>
        <time>2015-07-07T09:29:55.000Z</time>
      </trkpt>
      <trkpt lat="47.47775" lon="-0.57946">
        <ele>32</ele>
        <time>2015-07-07T09:29:56.000Z</time>
      </trkpt>
      <trkpt lat="47.47776" lon="-0.57944">
        <ele>32</ele>
        <time>2015-07-07T09:29:57.000Z</time>
      </trkpt>
      <trkpt lat="47.47778" lon="-0.57942">
        <ele>32</ele>
        <time>2015-07-07T09:29:58.000Z</time>
      </trkpt>
      <trkpt lat="47.47779" lon="-0.57939">
        <ele>33</ele>
        <time>2015-07-07T09:29:59.000Z</time>
      </trkpt>
      <trkpt lat="47.47781" lon="-0.57936">
        <ele>33</ele>
        <time>2015-07-07T09:30:00.000Z</time>
      </trkpt>
      <trkpt lat="47.47783" lon="-0.57933">
        <ele>34</ele>
        <time>2015-07-07T09:30:01.000Z</time>
      </trkpt>
      <trkpt lat="47.47786" lon="-0.5793">
        <ele>35</ele>
        <time>2015-07-07T09:30:02.000Z</time>
      </trkpt>
      <trkpt lat="47.47788" lon="-0.57928">
        <ele>34</ele>
        <time>2015-07-07T09:30:03.000Z</time>
      </trkpt>
      <trkpt lat="47.4779" lon="-0.57925">
        <ele>35</ele>
        <time>2015-07-07T09:30:04.000Z</time>
      </trkpt>
      <trkpt lat="47.47792" lon="-0.57923">
        <ele>35</ele>
        <time>2015-07-07T09:30:05.000Z</time>
      </trkpt>
      <trkpt lat="47.47795" lon="-0.57921">
        <ele>38</ele>
        <time>2015-07-07T09:30:06.000Z</time>
      </trkpt>
      <trkpt lat="47.47797" lon="-0.57919">
        <ele>38</ele>
        <time>2015-07-07T09:30:07.000Z</time>
      </trkpt>
      <trkpt lat="47.478" lon="-0.57916">
        <ele>40</ele>
        <time>2015-07-07T09:30:08.000Z</time>
      </trkpt>
      <trkpt lat="47.47801" lon="-0.57913">
        <ele>41</ele>
        <time>2015-07-07T09:30:09.000Z</time>
      </trkpt>
      <trkpt lat="47.47803" lon="-0.5791">
        <ele>42</ele>
        <time>2015-07-07T09:30:10.000Z</time>
      </trkpt>
      <trkpt lat="47.47804" lon="-0.57907">
        <ele>43</ele>
        <time>2015-07-07T09:30:11.000Z</time>
      </trkpt>
      <trkpt lat="47.47806" lon="-0.57904">
        <ele>43</ele>
        <time>2015-07-07T09:30:12.000Z</time>
      </trkpt>
      <trkpt lat="47.47807" lon="-0.57902">
        <ele>44</ele>
        <time>2015-07-07T09:30:13.000Z</time>
      </trkpt>
      <trkpt lat="47.47809" lon="-0.57899">
        <ele>44</ele>
        <time>2015-07-07T09:30:14.000Z</time>
      </trkpt>
      <trkpt lat="47.47811" lon="-0.57897">
        <ele>43</ele>
        <time>2015-07-07T09:30:15.000Z</time>
      </trkpt>
      <trkpt lat="47.47814" lon="-0.57894">
        <ele>43</ele>
        <time>2015-07-07T09:30:16.000Z</time>
      </trkpt>
      <trkpt lat="47.47816" lon="-0.57891">
        <ele>43</ele>
        <time>2015-07-07T09:30:17.000Z</time>
      </trkpt>
      <trkpt lat="47.47819" lon="-0.57888">
        <ele>44</ele>
        <time>2015-07-07T09:30:18.000Z</time>
      </trkpt>
      <trkpt lat="47.47822" lon="-0.57885">
        <ele>44</ele>
        <time>2015-07-07T09:30:19.000Z</time>
      </trkpt>
      <trkpt lat="47.47825" lon="-0.57882">
        <ele>44</ele>
        <time>2015-07-07T09:30:20.000Z</time>
      </trkpt>
      <trkpt lat="47.47827" lon="-0.57879">
        <ele>43</ele>
        <time>2015-07-07T09:30:21.000Z</time>
      </trkpt>
      <trkpt lat="47.47829" lon="-0.57877">
        <ele>43</ele>
        <time>2015-07-07T09:30:22.000Z</time>
      </trkpt>
      <trkpt lat="47.47831" lon="-0.57874">
        <ele>42</ele>
        <time>2015-07-07T09:30:23.000Z</time>
      </trkpt>
      <trkpt lat="47.47834" lon="-0.57872">
        <ele>42</ele>
        <time>2015-07-07T09:30:24.000Z</time>
      </trkpt>
      <trkpt lat="47.47837" lon="-0.5787">
        <ele>42</ele>
        <time>2015-07-07T09:30:25.000Z</time>
      </trkpt>
      <trkpt lat="47.47839" lon="-0.57868">
        <ele>42</ele>
        <time>2015-07-07T09:30:26.000Z</time>
      </trkpt>
      <trkpt lat="47.47842" lon="-0.57866">
        <ele>41</ele>
        <time>2015-07-07T09:30:27.000Z</time>
      </trkpt>
      <trkpt lat="47.47845" lon="-0.57864">
        <ele>41</ele>
        <time>2015-07-07T09:30:28.000Z</time>
      </trkpt>
      <trkpt lat="47.47848" lon="-0.57863">
        <ele>41</ele>
        <time>2015-07-07T09:30:29.000Z</time>
      </trkpt>
      <trkpt lat="47.4785" lon="-0.57862">
        <ele>40</ele>
        <time>2015-07-07T09:30:30.000Z</time>
      </trkpt>
      <trkpt lat="47.47854" lon="-0.5786">
        <ele>39</ele>
        <time>2015-07-07T09:30:31.000Z</time>
      </trkpt>
      <trkpt lat="47.47856" lon="-0.57859">
        <ele>39</ele>
        <time>2015-07-07T09:30:32.000Z</time>
      </trkpt>
      <trkpt lat="47.47859" lon="-0.57858">
        <ele>39</ele>
        <time>2015-07-07T09:30:33.000Z</time>
      </trkpt>
      <trkpt lat="47.47862" lon="-0.5786">
        <ele>39</ele>
        <time>2015-07-07T09:30:34.000Z</time>
      </trkpt>
      <trkpt lat="47.47865" lon="-0.57861">
        <ele>39</ele>
        <time>2015-07-07T09:30:35.000Z</time>
      </trkpt>
      <trkpt lat="47.47868" lon="-0.57863">
        <ele>39</ele>
        <time>2015-07-07T09:30:36.000Z</time>
      </trkpt>
      <trkpt lat="47.47871" lon="-0.57865">
        <ele>39</ele>
        <time>2015-07-07T09:30:37.000Z</time>
      </trkpt>
      <trkpt lat="47.47874" lon="-0.57867">
        <ele>38</ele>
        <time>2015-07-07T09:30:38.000Z</time>
      </trkpt>
      <trkpt lat="47.47877" lon="-0.5787">
        <ele>37</ele>
        <time>2015-07-07T09:30:39.000Z</time>
      </trkpt>
      <trkpt lat="47.47879" lon="-0.57873">
        <ele>37</ele>
        <time>2015-07-07T09:30:40.000Z</time>
      </trkpt>
      <trkpt lat="47.4788" lon="-0.57876">
        <ele>33</ele>
        <time>2015-07-07T09:30:41.000Z</time>
      </trkpt>
      <trkpt lat="47.47881" lon="-0.57878">
        <ele>31</ele>
        <time>2015-07-07T09:30:42.000Z</time>
      </trkpt>
      <trkpt lat="47.47881" lon="-0.57881">
        <ele>30</ele>
        <time>2015-07-07T09:30:43.000Z</time>
      </trkpt>
      <trkpt lat="47.47883" lon="-0.57884">
        <ele>29</ele>
        <time>2015-07-07T09:30:44.000Z</time>
      </trkpt>
      <trkpt lat="47.47884" lon="-0.57888">
        <ele>28</ele>
        <time>2015-07-07T09:30:45.000Z</time>
      </trkpt>
      <trkpt lat="47.47885" lon="-0.57891">
        <ele>27</ele>
        <time>2015-07-07T09:30:46.000Z</time>
      </trkpt>
      <trkpt lat="47.47886" lon="-0.57894">
        <ele>25</ele>
        <time>2015-07-07T09:30:47.000Z</time>
      </trkpt>
      <trkpt lat="47.47886" lon="-0.57897">
        <ele>24</ele>
        <time>2015-07-07T09:30:48.000Z</time>
      </trkpt>
      <trkpt lat="47.47886" lon="-0.579">
        <ele>22</ele>
        <time>2015-07-07T09:30:49.000Z</time>
      </trkpt>
      <trkpt lat="47.47886" lon="-0.57904">
        <ele>22</ele>
        <time>2015-07-07T09:30:50.000Z</time>
      </trkpt>
      <trkpt lat="47.47886" lon="-0.57908">
        <ele>21</ele>
        <time>2015-07-07T09:30:51.000Z</time>
      </trkpt>
      <trkpt lat="47.47887" lon="-0.57912">
        <ele>21</ele>
        <time>2015-07-07T09:30:52.000Z</time>
      </trkpt>
      <trkpt lat="47.47888" lon="-0.57916">
        <ele>23</ele>
        <time>2015-07-07T09:30:53.000Z</time>
      </trkpt>
      <trkpt lat="47.47889" lon="-0.5792">
        <ele>23</ele>
        <time>2015-07-07T09:30:54.000Z</time>
      </trkpt>
      <trkpt lat="47.47891" lon="-0.57924">
        <ele>24</ele>
        <time>2015-07-07T09:30:55.000Z</time>
      </trkpt>
      <trkpt lat="47.47892" lon="-0.57928">
        <ele>25</ele>
        <time>2015-07-07T09:30:56.000Z</time>
      </trkpt>
      <trkpt lat="47.47894" lon="-0.57932">
        <ele>26</ele>
        <time>2015-07-07T09:30:57.000Z</time>
      </trkpt>
      <trkpt lat="47.47896" lon="-0.57936">
        <ele>26</ele>
        <time>2015-07-07T09:30:58.000Z</time>
      </trkpt>
      <trkpt lat="47.47897" lon="-0.5794">
        <ele>26</ele>
        <time>2015-07-07T09:30:59.000Z</time>
      </trkpt>
      <trkpt lat="47.47898" lon="-0.57944">
        <ele>27</ele>
        <time>2015-07-07T09:31:00.000Z</time>
      </trkpt>
      <trkpt lat="47.47899" lon="-0.57948">
        <ele>27</ele>
        <time>2015-07-07T09:31:01.000Z</time>
      </trkpt>
      <trkpt lat="47.479" lon="-0.57953">
        <ele>27</ele>
        <time>2015-07-07T09:31:02.000Z</time>
      </trkpt>
      <trkpt lat="47.47901" lon="-0.57958">
        <ele>27</ele>
        <time>2015-07-07T09:31:03.000Z</time>
      </trkpt>
      <trkpt lat="47.47902" lon="-0.57962">
        <ele>27</ele>
        <time>2015-07-07T09:31:04.000Z</time>
      </trkpt>
      <trkpt lat="47.47903" lon="-0.57966">
        <ele>27</ele>
        <time>2015-07-07T09:31:05.000Z</time>
      </trkpt>
      <trkpt lat="47.47904" lon="-0.5797">
        <ele>28</ele>
        <time>2015-07-07T09:31:06.000Z</time>
      </trkpt>
      <trkpt lat="47.47905" lon="-0.57973">
        <ele>28</ele>
        <time>2015-07-07T09:31:07.000Z</time>
      </trkpt>
      <trkpt lat="47.47906" lon="-0.57977">
        <ele>29</ele>
        <time>2015-07-07T09:31:08.000Z</time>
      </trkpt>
      <trkpt lat="47.47907" lon="-0.57981">
        <ele>28</ele>
        <time>2015-07-07T09:31:09.000Z</time>
      </trkpt>
      <trkpt lat="47.47908" lon="-0.57986">
        <ele>28</ele>
        <time>2015-07-07T09:31:10.000Z</time>
      </trkpt>
      <trkpt lat="47.47909" lon="-0.5799">
        <ele>28</ele>
        <time>2015-07-07T09:31:11.000Z</time>
      </trkpt>
      <trkpt lat="47.4791" lon="-0.57994">
        <ele>28</ele>
        <time>2015-07-07T09:31:12.000Z</time>
      </trkpt>
      <trkpt lat="47.47912" lon="-0.57999">
        <ele>29</ele>
        <time>2015-07-07T09:31:13.000Z</time>
      </trkpt>
      <trkpt lat="47.47913" lon="-0.58003">
        <ele>29</ele>
        <time>2015-07-07T09:31:14.000Z</time>
      </trkpt>
      <trkpt lat="47.47914" lon="-0.58007">
        <ele>29</ele>
        <time>2015-07-07T09:31:15.000Z</time>
      </trkpt>
      <trkpt lat="47.47916" lon="-0.58011">
        <ele>29</ele>
        <time>2015-07-07T09:31:16.000Z</time>
      </trkpt>
      <trkpt lat="47.47917" lon="-0.58015">
        <ele>29</ele>
        <time>2015-07-07T09:31:17.000Z</time>
      </trkpt>
      <trkpt lat="47.47918" lon="-0.58019">
        <ele>28</ele>
        <time>2015-07-07T09:31:18.000Z</time>
      </trkpt>
      <trkpt lat="47.47919" lon="-0.58024">
        <ele>28</ele>
        <time>2015-07-07T09:31:19.000Z</time>
      </trkpt>
      <trkpt lat="47.47921" lon="-0.58028">
        <ele>28</ele>
        <time>2015-07-07T09:31:20.000Z</time>
      </trkpt>
      <trkpt lat="47.47922" lon="-0.58032">
        <ele>28</ele>
        <time>2015-07-07T09:31:21.000Z</time>
      </trkpt>
      <trkpt lat="47.47923" lon="-0.58036">
        <ele>27</ele>
        <time>2015-07-07T09:31:22.000Z</time>
      </trkpt>
      <trkpt lat="47.47925" lon="-0.5804">
        <ele>27</ele>
        <time>2015-07-07T09:31:23.000Z</time>
      </trkpt>
      <trkpt lat="47.47926" lon="-0.58043">
        <ele>28</ele>
        <time>2015-07-07T09:31:24.000Z</time>
      </trkpt>
      <trkpt lat="47.47927" lon="-0.58047">
        <ele>28</ele>
        <time>2015-07-07T09:31:25.000Z</time>
      </trkpt>
      <trkpt lat="47.47929" lon="-0.5805">
        <ele>27</ele>
        <time>2015-07-07T09:31:26.000Z</time>
      </trkpt>
      <trkpt lat="47.47931" lon="-0.58053">
        <ele>26</ele>
        <time>2015-07-07T09:31:27.000Z</time>
      </trkpt>
      <trkpt lat="47.47933" lon="-0.58057">
        <ele>27</ele>
        <time>2015-07-07T09:31:28.000Z</time>
      </trkpt>
      <trkpt lat="47.47935" lon="-0.5806">
        <ele>27</ele>
        <time>2015-07-07T09:31:29.000Z</time>
      </trkpt>
      <trkpt lat="47.47937" lon="-0.58063">
        <ele>27</ele>
        <time>2015-07-07T09:31:30.000Z</time>
      </trkpt>
      <trkpt lat="47.4794" lon="-0.58066">
        <ele>26</ele>
        <time>2015-07-07T09:31:31.000Z</time>
      </trkpt>
      <trkpt lat="47.47941" lon="-0.5807">
        <ele>27</ele>
        <time>2015-07-07T09:31:32.000Z</time>
      </trkpt>
      <trkpt lat="47.47944" lon="-0.58073">
        <ele>28</ele>
        <time>2015-07-07T09:31:33.000Z</time>
      </trkpt>
      <trkpt lat="47.47946" lon="-0.58076">
        <ele>28</ele>
        <time>2015-07-07T09:31:34.000Z</time>
      </trkpt>
      <trkpt lat="47.47948" lon="-0.5808">
        <ele>28</ele>
        <time>2015-07-07T09:31:35.000Z</time>
      </trkpt>
      <trkpt lat="47.4795" lon="-0.58084">
        <ele>28</ele>
        <time>2015-07-07T09:31:36.000Z</time>
      </trkpt>
      <trkpt lat="47.47951" lon="-0.58088">
        <ele>30</ele>
        <time>2015-07-07T09:31:37.000Z</time>
      </trkpt>
      <trkpt lat="47.47952" lon="-0.58091">
        <ele>30</ele>
        <time>2015-07-07T09:31:38.000Z</time>
      </trkpt>
      <trkpt lat="47.47953" lon="-0.58095">
        <ele>30</ele>
        <time>2015-07-07T09:31:39.000Z</time>
      </trkpt>
      <trkpt lat="47.47954" lon="-0.58099">
        <ele>30</ele>
        <time>2015-07-07T09:31:40.000Z</time>
      </trkpt>
      <trkpt lat="47.47955" lon="-0.58103">
        <ele>30</ele>
        <time>2015-07-07T09:31:41.000Z</time>
      </trkpt>
      <trkpt lat="47.47956" lon="-0.58107">
        <ele>30</ele>
        <time>2015-07-07T09:31:42.000Z</time>
      </trkpt>
      <trkpt lat="47.47957" lon="-0.58111">
        <ele>30</ele>
        <time>2015-07-07T09:31:43.000Z</time>
      </trkpt>
      <trkpt lat="47.47958" lon="-0.58115">
        <ele>30</ele>
        <time>2015-07-07T09:31:44.000Z</time>
      </trkpt>
      <trkpt lat="47.47959" lon="-0.58118">
        <ele>30</ele>
        <time>2015-07-07T09:31:45.000Z</time>
      </trkpt>
      <trkpt lat="47.47959" lon="-0.58122">
        <ele>31</ele>
        <time>2015-07-07T09:31:46.000Z</time>
      </trkpt>
      <trkpt lat="47.47959" lon="-0.58126">
        <ele>31</ele>
        <time>2015-07-07T09:31:47.000Z</time>
      </trkpt>
      <trkpt lat="47.47958" lon="-0.5813">
        <ele>30</ele>
        <time>2015-07-07T09:31:48.000Z</time>
      </trkpt>
      <trkpt lat="47.47958" lon="-0.58134">
        <ele>30</ele>
        <time>2015-07-07T09:31:49.000Z</time>
      </trkpt>
      <trkpt lat="47.47958" lon="-0.58138">
        <ele>30</ele>
        <time>2015-07-07T09:31:50.000Z</time>
      </trkpt>
      <trkpt lat="47.47959" lon="-0.58141">
        <ele>30</ele>
        <time>2015-07-07T09:31:51.000Z</time>
      </trkpt>
      <trkpt lat="47.47959" lon="-0.58145">
        <ele>30</ele>
        <time>2015-07-07T09:31:52.000Z</time>
      </trkpt>
      <trkpt lat="47.4796" lon="-0.58148">
        <ele>29</ele>
        <time>2015-07-07T09:31:53.000Z</time>
      </trkpt>
      <trkpt lat="47.4796" lon="-0.58151">
        <ele>29</ele>
        <time>2015-07-07T09:31:54.000Z</time>
      </trkpt>
      <trkpt lat="47.47961" lon="-0.58155">
        <ele>29</ele>
        <time>2015-07-07T09:31:55.000Z</time>
      </trkpt>
      <trkpt lat="47.47962" lon="-0.58158">
        <ele>30</ele>
        <time>2015-07-07T09:31:56.000Z</time>
      </trkpt>
      <trkpt lat="47.47963" lon="-0.58162">
        <ele>30</ele>
        <time>2015-07-07T09:31:57.000Z</time>
      </trkpt>
      <trkpt lat="47.47963" lon="-0.58166">
        <ele>30</ele>
        <time>2015-07-07T09:31:58.000Z</time>
      </trkpt>
      <trkpt lat="47.47964" lon="-0.5817">
        <ele>29</ele>
        <time>2015-07-07T09:31:59.000Z</time>
      </trkpt>
      <trkpt lat="47.47964" lon="-0.58174">
        <ele>29</ele>
        <time>2015-07-07T09:32:00.000Z</time>
      </trkpt>
      <trkpt lat="47.47965" lon="-0.58177">
        <ele>29</ele>
        <time>2015-07-07T09:32:01.000Z</time>
      </trkpt>
      <trkpt lat="47.47965" lon="-0.58181">
        <ele>29</ele>
        <time>2015-07-07T09:32:02.000Z</time>
      </trkpt>
      <trkpt lat="47.47966" lon="-0.58185">
        <ele>28</ele>
        <time>2015-07-07T09:32:03.000Z</time>
      </trkpt>
      <trkpt lat="47.47967" lon="-0.58189">
        <ele>28</ele>
        <time>2015-07-07T09:32:04.000Z</time>
      </trkpt>
      <trkpt lat="47.47968" lon="-0.58194">
        <ele>27</ele>
        <time>2015-07-07T09:32:05.000Z</time>
      </trkpt>
      <trkpt lat="47.47969" lon="-0.58198">
        <ele>28</ele>
        <time>2015-07-07T09:32:06.000Z</time>
      </trkpt>
      <trkpt lat="47.4797" lon="-0.58202">
        <ele>27</ele>
        <time>2015-07-07T09:32:07.000Z</time>
      </trkpt>
      <trkpt lat="47.4797" lon="-0.58206">
        <ele>28</ele>
        <time>2015-07-07T09:32:08.000Z</time>
      </trkpt>
      <trkpt lat="47.47971" lon="-0.5821">
        <ele>28</ele>
        <time>2015-07-07T09:32:09.000Z</time>
      </trkpt>
      <trkpt lat="47.47972" lon="-0.58214">
        <ele>28</ele>
        <time>2015-07-07T09:32:10.000Z</time>
      </trkpt>
      <trkpt lat="47.47973" lon="-0.58218">
        <ele>28</ele>
        <time>2015-07-07T09:32:11.000Z</time>
      </trkpt>
      <trkpt lat="47.47975" lon="-0.58222">
        <ele>28</ele>
        <time>2015-07-07T09:32:12.000Z</time>
      </trkpt>
      <trkpt lat="47.47976" lon="-0.58226">
        <ele>28</ele>
        <time>2015-07-07T09:32:13.000Z</time>
      </trkpt>
      <trkpt lat="47.47977" lon="-0.5823">
        <ele>28</ele>
        <time>2015-07-07T09:32:14.000Z</time>
      </trkpt>
      <trkpt lat="47.47978" lon="-0.58234">
        <ele>29</ele>
        <time>2015-07-07T09:32:15.000Z</time>
      </trkpt>
      <trkpt lat="47.47979" lon="-0.58238">
        <ele>29</ele>
        <time>2015-07-07T09:32:16.000Z</time>
      </trkpt>
      <trkpt lat="47.47979" lon="-0.58242">
        <ele>28</ele>
        <time>2015-07-07T09:32:17.000Z</time>
      </trkpt>
      <trkpt lat="47.4798" lon="-0.58245">
        <ele>28</ele>
        <time>2015-07-07T09:32:18.000Z</time>
      </trkpt>
      <trkpt lat="47.47981" lon="-0.58248">
        <ele>28</ele>
        <time>2015-07-07T09:32:19.000Z</time>
      </trkpt>
      <trkpt lat="47.47981" lon="-0.58251">
        <ele>27</ele>
        <time>2015-07-07T09:32:20.000Z</time>
      </trkpt>
      <trkpt lat="47.47981" lon="-0.58255">
        <ele>27</ele>
        <time>2015-07-07T09:32:21.000Z</time>
      </trkpt>
      <trkpt lat="47.47982" lon="-0.58258">
        <ele>26</ele>
        <time>2015-07-07T09:32:22.000Z</time>
      </trkpt>
      <trkpt lat="47.47982" lon="-0.58262">
        <ele>25</ele>
        <time>2015-07-07T09:32:23.000Z</time>
      </trkpt>
      <trkpt lat="47.47983" lon="-0.58266">
        <ele>24</ele>
        <time>2015-07-07T09:32:24.000Z</time>
      </trkpt>
      <trkpt lat="47.47984" lon="-0.5827">
        <ele>24</ele>
        <time>2015-07-07T09:32:25.000Z</time>
      </trkpt>
      <trkpt lat="47.47984" lon="-0.58274">
        <ele>23</ele>
        <time>2015-07-07T09:32:26.000Z</time>
      </trkpt>
      <trkpt lat="47.47985" lon="-0.58278">
        <ele>23</ele>
        <time>2015-07-07T09:32:27.000Z</time>
      </trkpt>
      <trkpt lat="47.47985" lon="-0.58282">
        <ele>23</ele>
        <time>2015-07-07T09:32:28.000Z</time>
      </trkpt>
      <trkpt lat="47.47985" lon="-0.58287">
        <ele>23</ele>
        <time>2015-07-07T09:32:29.000Z</time>
      </trkpt>
      <trkpt lat="47.47985" lon="-0.58292">
        <ele>22</ele>
        <time>2015-07-07T09:32:30.000Z</time>
      </trkpt>
      <trkpt lat="47.47985" lon="-0.58297">
        <ele>22</ele>
        <time>2015-07-07T09:32:31.000Z</time>
      </trkpt>
      <trkpt lat="47.47986" lon="-0.58302">
        <ele>21</ele>
        <time>2015-07-07T09:32:32.000Z</time>
      </trkpt>
      <trkpt lat="47.47987" lon="-0.58306">
        <ele>23</ele>
        <time>2015-07-07T09:32:33.000Z</time>
      </trkpt>
      <trkpt lat="47.47988" lon="-0.5831">
        <ele>23</ele>
        <time>2015-07-07T09:32:34.000Z</time>
      </trkpt>
      <trkpt lat="47.47989" lon="-0.58314">
        <ele>23</ele>
        <time>2015-07-07T09:32:35.000Z</time>
      </trkpt>
      <trkpt lat="47.47991" lon="-0.58317">
        <ele>24</ele>
        <time>2015-07-07T09:32:36.000Z</time>
      </trkpt>
      <trkpt lat="47.47992" lon="-0.58321">
        <ele>24</ele>
        <time>2015-07-07T09:32:37.000Z</time>
      </trkpt>
      <trkpt lat="47.47993" lon="-0.58324">
        <ele>23</ele>
        <time>2015-07-07T09:32:38.000Z</time>
      </trkpt>
      <trkpt lat="47.47995" lon="-0.58328">
        <ele>23</ele>
        <time>2015-07-07T09:32:39.000Z</time>
      </trkpt>
      <trkpt lat="47.47996" lon="-0.58332">
        <ele>22</ele>
        <time>2015-07-07T09:32:40.000Z</time>
      </trkpt>
      <trkpt lat="47.47998" lon="-0.58335">
        <ele>23</ele>
        <time>2015-07-07T09:32:41.000Z</time>
      </trkpt>
      <trkpt lat="47.47999" lon="-0.58339">
        <ele>23</ele>
        <time>2015-07-07T09:32:42.000Z</time>
      </trkpt>
      <trkpt lat="47.48" lon="-0.58342">
        <ele>23</ele>
        <time>2015-07-07T09:32:43.000Z</time>
      </trkpt>
      <trkpt lat="47.48002" lon="-0.58346">
        <ele>23</ele>
        <time>2015-07-07T09:32:44.000Z</time>
      </trkpt>
      <trkpt lat="47.48003" lon="-0.5835">
        <ele>23</ele>
        <time>2015-07-07T09:32:45.000Z</time>
      </trkpt>
      <trkpt lat="47.48004" lon="-0.58354">
        <ele>23</ele>
        <time>2015-07-07T09:32:46.000Z</time>
      </trkpt>
      <trkpt lat="47.48006" lon="-0.58358">
        <ele>22</ele>
        <time>2015-07-07T09:32:47.000Z</time>
      </trkpt>
      <trkpt lat="47.48007" lon="-0.58362">
        <ele>22</ele>
        <time>2015-07-07T09:32:48.000Z</time>
      </trkpt>
      <trkpt lat="47.48009" lon="-0.58365">
        <ele>22</ele>
        <time>2015-07-07T09:32:49.000Z</time>
      </trkpt>
      <trkpt lat="47.4801" lon="-0.58369">
        <ele>23</ele>
        <time>2015-07-07T09:32:50.000Z</time>
      </trkpt>
      <trkpt lat="47.48011" lon="-0.58372">
        <ele>23</ele>
        <time>2015-07-07T09:32:51.000Z</time>
      </trkpt>
      <trkpt lat="47.48012" lon="-0.58376">
        <ele>23</ele>
        <time>2015-07-07T09:32:52.000Z</time>
      </trkpt>
      <trkpt lat="47.48013" lon="-0.5838">
        <ele>22</ele>
        <time>2015-07-07T09:32:53.000Z</time>
      </trkpt>
      <trkpt lat="47.48014" lon="-0.58383">
        <ele>22</ele>
        <time>2015-07-07T09:32:54.000Z</time>
      </trkpt>
      <trkpt lat="47.48016" lon="-0.58386">
        <ele>23</ele>
        <time>2015-07-07T09:32:55.000Z</time>
      </trkpt>
      <trkpt lat="47.48017" lon="-0.5839">
        <ele>23</ele>
        <time>2015-07-07T09:32:56.000Z</time>
      </trkpt>
      <trkpt lat="47.48018" lon="-0.58394">
        <ele>24</ele>
        <time>2015-07-07T09:32:57.000Z</time>
      </trkpt>
      <trkpt lat="47.4802" lon="-0.58398">
        <ele>24</ele>
        <time>2015-07-07T09:32:58.000Z</time>
      </trkpt>
      <trkpt lat="47.48022" lon="-0.58401">
        <ele>24</ele>
        <time>2015-07-07T09:32:59.000Z</time>
      </trkpt>
      <trkpt lat="47.48023" lon="-0.58405">
        <ele>24</ele>
        <time>2015-07-07T09:33:00.000Z</time>
      </trkpt>
      <trkpt lat="47.48024" lon="-0.58409">
        <ele>24</ele>
        <time>2015-07-07T09:33:01.000Z</time>
      </trkpt>
      <trkpt lat="47.48026" lon="-0.58412">
        <ele>24</ele>
        <time>2015-07-07T09:33:02.000Z</time>
      </trkpt>
      <trkpt lat="47.48027" lon="-0.58416">
        <ele>24</ele>
        <time>2015-07-07T09:33:03.000Z</time>
      </trkpt>
      <trkpt lat="47.48028" lon="-0.58419">
        <ele>25</ele>
        <time>2015-07-07T09:33:04.000Z</time>
      </trkpt>
      <trkpt lat="47.4803" lon="-0.58422">
        <ele>25</ele>
        <time>2015-07-07T09:33:05.000Z</time>
      </trkpt>
      <trkpt lat="47.48032" lon="-0.58426">
        <ele>24</ele>
        <time>2015-07-07T09:33:06.000Z</time>
      </trkpt>
      <trkpt lat="47.48033" lon="-0.58429">
        <ele>24</ele>
        <time>2015-07-07T09:33:07.000Z</time>
      </trkpt>
      <trkpt lat="47.48036" lon="-0.58432">
        <ele>25</ele>
        <time>2015-07-07T09:33:08.000Z</time>
      </trkpt>
      <trkpt lat="47.48037" lon="-0.58435">
        <ele>25</ele>
        <time>2015-07-07T09:33:09.000Z</time>
      </trkpt>
      <trkpt lat="47.48039" lon="-0.58438">
        <ele>25</ele>
        <time>2015-07-07T09:33:10.000Z</time>
      </trkpt>
      <trkpt lat="47.48041" lon="-0.58441">
        <ele>24</ele>
        <time>2015-07-07T09:33:11.000Z</time>
      </trkpt>
      <trkpt lat="47.48042" lon="-0.58444">
        <ele>24</ele>
        <time>2015-07-07T09:33:12.000Z</time>
      </trkpt>
      <trkpt lat="47.48044" lon="-0.58448">
        <ele>23</ele>
        <time>2015-07-07T09:33:13.000Z</time>
      </trkpt>
      <trkpt lat="47.48046" lon="-0.58451">
        <ele>23</ele>
        <time>2015-07-07T09:33:14.000Z</time>
      </trkpt>
      <trkpt lat="47.48048" lon="-0.58454">
        <ele>23</ele>
        <time>2015-07-07T09:33:15.000Z</time>
      </trkpt>
      <trkpt lat="47.4805" lon="-0.58456">
        <ele>22</ele>
        <time>2015-07-07T09:33:16.000Z</time>
      </trkpt>
      <trkpt lat="47.48053" lon="-0.58459">
        <ele>22</ele>
        <time>2015-07-07T09:33:17.000Z</time>
      </trkpt>
      <trkpt lat="47.48055" lon="-0.58462">
        <ele>21</ele>
        <time>2015-07-07T09:33:18.000Z</time>
      </trkpt>
      <trkpt lat="47.48058" lon="-0.58465">
        <ele>22</ele>
        <time>2015-07-07T09:33:19.000Z</time>
      </trkpt>
      <trkpt lat="47.4806" lon="-0.58468">
        <ele>23</ele>
        <time>2015-07-07T09:33:20.000Z</time>
      </trkpt>
      <trkpt lat="47.48063" lon="-0.58471">
        <ele>23</ele>
        <time>2015-07-07T09:33:21.000Z</time>
      </trkpt>
      <trkpt lat="47.48066" lon="-0.58474">
        <ele>22</ele>
        <time>2015-07-07T09:33:22.000Z</time>
      </trkpt>
      <trkpt lat="47.48068" lon="-0.58477">
        <ele>22</ele>
        <time>2015-07-07T09:33:23.000Z</time>
      </trkpt>
      <trkpt lat="47.48071" lon="-0.58479">
        <ele>21</ele>
        <time>2015-07-07T09:33:24.000Z</time>
      </trkpt>
      <trkpt lat="47.48073" lon="-0.58482">
        <ele>21</ele>
        <time>2015-07-07T09:33:25.000Z</time>
      </trkpt>
      <trkpt lat="47.48075" lon="-0.58484">
        <ele>20</ele>
        <time>2015-07-07T09:33:26.000Z</time>
      </trkpt>
      <trkpt lat="47.48078" lon="-0.58486">
        <ele>19</ele>
        <time>2015-07-07T09:33:27.000Z</time>
      </trkpt>
      <trkpt lat="47.4808" lon="-0.58487">
        <ele>19</ele>
        <time>2015-07-07T09:33:28.000Z</time>
      </trkpt>
      <trkpt lat="47.48083" lon="-0.58488">
        <ele>18</ele>
        <time>2015-07-07T09:33:29.000Z</time>
      </trkpt>
      <trkpt lat="47.48085" lon="-0.58489">
        <ele>19</ele>
        <time>2015-07-07T09:33:30.000Z</time>
      </trkpt>
      <trkpt lat="47.48088" lon="-0.58491">
        <ele>19</ele>
        <time>2015-07-07T09:33:31.000Z</time>
      </trkpt>
      <trkpt lat="47.4809" lon="-0.58492">
        <ele>19</ele>
        <time>2015-07-07T09:33:32.000Z</time>
      </trkpt>
      <trkpt lat="47.48093" lon="-0.58494">
        <ele>20</ele>
        <time>2015-07-07T09:33:33.000Z</time>
      </trkpt>
      <trkpt lat="47.48096" lon="-0.58496">
        <ele>20</ele>
        <time>2015-07-07T09:33:34.000Z</time>
      </trkpt>
      <trkpt lat="47.48099" lon="-0.58499">
        <ele>18</ele>
        <time>2015-07-07T09:33:35.000Z</time>
      </trkpt>
      <trkpt lat="47.48101" lon="-0.58502">
        <ele>18</ele>
        <time>2015-07-07T09:33:36.000Z</time>
      </trkpt>
      <trkpt lat="47.48104" lon="-0.58505">
        <ele>19</ele>
        <time>2015-07-07T09:33:37.000Z</time>
      </trkpt>
      <trkpt lat="47.48106" lon="-0.58507">
        <ele>19</ele>
        <time>2015-07-07T09:33:38.000Z</time>
      </trkpt>
      <trkpt lat="47.48108" lon="-0.58511">
        <ele>18</ele>
        <time>2015-07-07T09:33:39.000Z</time>
      </trkpt>
      <trkpt lat="47.48111" lon="-0.58514">
        <ele>20</ele>
        <time>2015-07-07T09:33:40.000Z</time>
      </trkpt>
      <trkpt lat="47.48112" lon="-0.58518">
        <ele>20</ele>
        <time>2015-07-07T09:33:41.000Z</time>
      </trkpt>
      <trkpt lat="47.48115" lon="-0.58521">
        <ele>19</ele>
        <time>2015-07-07T09:33:42.000Z</time>
      </trkpt>
      <trkpt lat="47.48117" lon="-0.58524">
        <ele>19</ele>
        <time>2015-07-07T09:33:43.000Z</time>
      </trkpt>
      <trkpt lat="47.48119" lon="-0.58527">
        <ele>19</ele>
        <time>2015-07-07T09:33:44.000Z</time>
      </trkpt>
      <trkpt lat="47.48122" lon="-0.58529">
        <ele>19</ele>
        <time>2015-07-07T09:33:45.000Z</time>
      </trkpt>
      <trkpt lat="47.48124" lon="-0.58532">
        <ele>20</ele>
        <time>2015-07-07T09:33:46.000Z</time>
      </trkpt>
      <trkpt lat="47.48127" lon="-0.58535">
        <ele>19</ele>
        <time>2015-07-07T09:33:47.000Z</time>
      </trkpt>
      <trkpt lat="47.48129" lon="-0.58537">
        <ele>19</ele>
        <time>2015-07-07T09:33:48.000Z</time>
      </trkpt>
      <trkpt lat="47.48131" lon="-0.58539">
        <ele>20</ele>
        <time>2015-07-07T09:33:49.000Z</time>
      </trkpt>
      <trkpt lat="47.48133" lon="-0.58542">
        <ele>21</ele>
        <time>2015-07-07T09:33:50.000Z</time>
      </trkpt>
      <trkpt lat="47.48135" lon="-0.58545">
        <ele>20</ele>
        <time>2015-07-07T09:33:51.000Z</time>
      </trkpt>
      <trkpt lat="47.48137" lon="-0.58547">
        <ele>20</ele>
        <time>2015-07-07T09:33:52.000Z</time>
      </trkpt>
      <trkpt lat="47.48139" lon="-0.5855">
        <ele>20</ele>
        <time>2015-07-07T09:33:53.000Z</time>
      </trkpt>
      <trkpt lat="47.48142" lon="-0.58551">
        <ele>20</ele>
        <time>2015-07-07T09:33:54.000Z</time>
      </trkpt>
      <trkpt lat="47.48145" lon="-0.58552">
        <ele>21</ele>
        <time>2015-07-07T09:33:55.000Z</time>
      </trkpt>
      <trkpt lat="47.48147" lon="-0.58554">
        <ele>21</ele>
        <time>2015-07-07T09:33:56.000Z</time>
      </trkpt>
      <trkpt lat="47.48149" lon="-0.58556">
        <ele>20</ele>
        <time>2015-07-07T09:33:57.000Z</time>
      </trkpt>
      <trkpt lat="47.48151" lon="-0.58558">
        <ele>19</ele>
        <time>2015-07-07T09:33:58.000Z</time>
      </trkpt>
      <trkpt lat="47.48153" lon="-0.5856">
        <ele>18</ele>
        <time>2015-07-07T09:33:59.000Z</time>
      </trkpt>
      <trkpt lat="47.48155" lon="-0.58561">
        <ele>18</ele>
        <time>2015-07-07T09:34:00.000Z</time>
      </trkpt>
      <trkpt lat="47.48158" lon="-0.58563">
        <ele>17</ele>
        <time>2015-07-07T09:34:01.000Z</time>
      </trkpt>
      <trkpt lat="47.48161" lon="-0.58565">
        <ele>16</ele>
        <time>2015-07-07T09:34:02.000Z</time>
      </trkpt>
      <trkpt lat="47.48163" lon="-0.58566">
        <ele>16</ele>
        <time>2015-07-07T09:34:03.000Z</time>
      </trkpt>
      <trkpt lat="47.48166" lon="-0.58569">
        <ele>16</ele>
        <time>2015-07-07T09:34:04.000Z</time>
      </trkpt>
      <trkpt lat="47.48169" lon="-0.58571">
        <ele>16</ele>
        <time>2015-07-07T09:34:05.000Z</time>
      </trkpt>
      <trkpt lat="47.48172" lon="-0.58573">
        <ele>16</ele>
        <time>2015-07-07T09:34:06.000Z</time>
      </trkpt>
      <trkpt lat="47.48174" lon="-0.58575">
        <ele>16</ele>
        <time>2015-07-07T09:34:07.000Z</time>
      </trkpt>
      <trkpt lat="47.48177" lon="-0.58576">
        <ele>15</ele>
        <time>2015-07-07T09:34:08.000Z</time>
      </trkpt>
      <trkpt lat="47.4818" lon="-0.58578">
        <ele>14</ele>
        <time>2015-07-07T09:34:09.000Z</time>
      </trkpt>
      <trkpt lat="47.48183" lon="-0.58579">
        <ele>13</ele>
        <time>2015-07-07T09:34:10.000Z</time>
      </trkpt>
      <trkpt lat="47.48186" lon="-0.58581">
        <ele>12</ele>
        <time>2015-07-07T09:34:11.000Z</time>
      </trkpt>
      <trkpt lat="47.48189" lon="-0.58582">
        <ele>12</ele>
        <time>2015-07-07T09:34:12.000Z</time>
      </trkpt>
      <trkpt lat="47.48192" lon="-0.58584">
        <ele>13</ele>
        <time>2015-07-07T09:34:13.000Z</time>
      </trkpt>
      <trkpt lat="47.48195" lon="-0.58587">
        <ele>14</ele>
        <time>2015-07-07T09:34:14.000Z</time>
      </trkpt>
      <trkpt lat="47.48198" lon="-0.5859">
        <ele>16</ele>
        <time>2015-07-07T09:34:15.000Z</time>
      </trkpt>
      <trkpt lat="47.482" lon="-0.58592">
        <ele>17</ele>
        <time>2015-07-07T09:34:16.000Z</time>
      </trkpt>
      <trkpt lat="47.48203" lon="-0.58594">
        <ele>17</ele>
        <time>2015-07-07T09:34:17.000Z</time>
      </trkpt>
      <trkpt lat="47.48206" lon="-0.58596">
        <ele>18</ele>
        <time>2015-07-07T09:34:18.000Z</time>
      </trkpt>
      <trkpt lat="47.48209" lon="-0.58598">
        <ele>18</ele>
        <time>2015-07-07T09:34:19.000Z</time>
      </trkpt>
      <trkpt lat="47.48211" lon="-0.58601">
        <ele>18</ele>
        <time>2015-07-07T09:34:20.000Z</time>
      </trkpt>
      <trkpt lat="47.48214" lon="-0.58604">
        <ele>18</ele>
        <time>2015-07-07T09:34:21.000Z</time>
      </trkpt>
      <trkpt lat="47.48216" lon="-0.58607">
        <ele>19</ele>
        <time>2015-07-07T09:34:22.000Z</time>
      </trkpt>
      <trkpt lat="47.48218" lon="-0.5861">
        <ele>19</ele>
        <time>2015-07-07T09:34:23.000Z</time>
      </trkpt>
      <trkpt lat="47.48221" lon="-0.58613">
        <ele>20</ele>
        <time>2015-07-07T09:34:24.000Z</time>
      </trkpt>
      <trkpt lat="47.48223" lon="-0.58615">
        <ele>20</ele>
        <time>2015-07-07T09:34:25.000Z</time>
      </trkpt>
      <trkpt lat="47.48226" lon="-0.58618">
        <ele>19</ele>
        <time>2015-07-07T09:34:26.000Z</time>
      </trkpt>
      <trkpt lat="47.48229" lon="-0.58621">
        <ele>22</ele>
        <time>2015-07-07T09:34:27.000Z</time>
      </trkpt>
      <trkpt lat="47.48232" lon="-0.58624">
        <ele>22</ele>
        <time>2015-07-07T09:34:28.000Z</time>
      </trkpt>
      <trkpt lat="47.48235" lon="-0.58627">
        <ele>22</ele>
        <time>2015-07-07T09:34:29.000Z</time>
      </trkpt>
      <trkpt lat="47.48237" lon="-0.5863">
        <ele>22</ele>
        <time>2015-07-07T09:34:30.000Z</time>
      </trkpt>
      <trkpt lat="47.4824" lon="-0.58633">
        <ele>23</ele>
        <time>2015-07-07T09:34:31.000Z</time>
      </trkpt>
      <trkpt lat="47.48242" lon="-0.58635">
        <ele>24</ele>
        <time>2015-07-07T09:34:32.000Z</time>
      </trkpt>
      <trkpt lat="47.48244" lon="-0.58637">
        <ele>24</ele>
        <time>2015-07-07T09:34:33.000Z</time>
      </trkpt>
      <trkpt lat="47.48246" lon="-0.5864">
        <ele>25</ele>
        <time>2015-07-07T09:34:34.000Z</time>
      </trkpt>
      <trkpt lat="47.48248" lon="-0.58643">
        <ele>25</ele>
        <time>2015-07-07T09:34:35.000Z</time>
      </trkpt>
      <trkpt lat="47.4825" lon="-0.58646">
        <ele>26</ele>
        <time>2015-07-07T09:34:36.000Z</time>
      </trkpt>
      <trkpt lat="47.48251" lon="-0.5865">
        <ele>26</ele>
        <time>2015-07-07T09:34:37.000Z</time>
      </trkpt>
      <trkpt lat="47.48252" lon="-0.58654">
        <ele>27</ele>
        <time>2015-07-07T09:34:38.000Z</time>
      </trkpt>
      <trkpt lat="47.48253" lon="-0.58658">
        <ele>28</ele>
        <time>2015-07-07T09:34:39.000Z</time>
      </trkpt>
      <trkpt lat="47.48254" lon="-0.58662">
        <ele>29</ele>
        <time>2015-07-07T09:34:40.000Z</time>
      </trkpt>
      <trkpt lat="47.48254" lon="-0.58666">
        <ele>28</ele>
        <time>2015-07-07T09:34:41.000Z</time>
      </trkpt>
      <trkpt lat="47.48255" lon="-0.58671">
        <ele>29</ele>
        <time>2015-07-07T09:34:42.000Z</time>
      </trkpt>
      <trkpt lat="47.48256" lon="-0.58675">
        <ele>29</ele>
        <time>2015-07-07T09:34:43.000Z</time>
      </trkpt>
      <trkpt lat="47.48257" lon="-0.5868">
        <ele>29</ele>
        <time>2015-07-07T09:34:44.000Z</time>
      </trkpt>
      <trkpt lat="47.48259" lon="-0.58684">
        <ele>28</ele>
        <time>2015-07-07T09:34:45.000Z</time>
      </trkpt>
      <trkpt lat="47.4826" lon="-0.58687">
        <ele>28</ele>
        <time>2015-07-07T09:34:46.000Z</time>
      </trkpt>
      <trkpt lat="47.48261" lon="-0.58691">
        <ele>28</ele>
        <time>2015-07-07T09:34:47.000Z</time>
      </trkpt>
      <trkpt lat="47.48262" lon="-0.58694">
        <ele>28</ele>
        <time>2015-07-07T09:34:48.000Z</time>
      </trkpt>
      <trkpt lat="47.48263" lon="-0.58698">
        <ele>28</ele>
        <time>2015-07-07T09:34:49.000Z</time>
      </trkpt>
      <trkpt lat="47.48264" lon="-0.58701">
        <ele>28</ele>
        <time>2015-07-07T09:34:50.000Z</time>
      </trkpt>
      <trkpt lat="47.48265" lon="-0.58705">
        <ele>26</ele>
        <time>2015-07-07T09:34:51.000Z</time>
      </trkpt>
      <trkpt lat="47.48266" lon="-0.5871">
        <ele>26</ele>
        <time>2015-07-07T09:34:52.000Z</time>
      </trkpt>
      <trkpt lat="47.48267" lon="-0.58714">
        <ele>26</ele>
        <time>2015-07-07T09:34:53.000Z</time>
      </trkpt>
      <trkpt lat="47.48268" lon="-0.58717">
        <ele>26</ele>
        <time>2015-07-07T09:34:54.000Z</time>
      </trkpt>
      <trkpt lat="47.48269" lon="-0.58721">
        <ele>26</ele>
        <time>2015-07-07T09:34:55.000Z</time>
      </trkpt>
      <trkpt lat="47.48269" lon="-0.58724">
        <ele>26</ele>
        <time>2015-07-07T09:34:56.000Z</time>
      </trkpt>
      <trkpt lat="47.4827" lon="-0.58727">
        <ele>27</ele>
        <time>2015-07-07T09:34:57.000Z</time>
      </trkpt>
      <trkpt lat="47.4827" lon="-0.58731">
        <ele>26</ele>
        <time>2015-07-07T09:34:58.000Z</time>
      </trkpt>
      <trkpt lat="47.48271" lon="-0.58735">
        <ele>27</ele>
        <time>2015-07-07T09:34:59.000Z</time>
      </trkpt>
      <trkpt lat="47.48271" lon="-0.58739">
        <ele>27</ele>
        <time>2015-07-07T09:35:00.000Z</time>
      </trkpt>
      <trkpt lat="47.48272" lon="-0.58742">
        <ele>27</ele>
        <time>2015-07-07T09:35:01.000Z</time>
      </trkpt>
      <trkpt lat="47.48272" lon="-0.58746">
        <ele>27</ele>
        <time>2015-07-07T09:35:02.000Z</time>
      </trkpt>
      <trkpt lat="47.48272" lon="-0.58749">
        <ele>27</ele>
        <time>2015-07-07T09:35:03.000Z</time>
      </trkpt>
      <trkpt lat="47.48272" lon="-0.58753">
        <ele>27</ele>
        <time>2015-07-07T09:35:04.000Z</time>
      </trkpt>
      <trkpt lat="47.48271" lon="-0.58756">
        <ele>28</ele>
        <time>2015-07-07T09:35:05.000Z</time>
      </trkpt>
      <trkpt lat="47.4827" lon="-0.5876">
        <ele>29</ele>
        <time>2015-07-07T09:35:06.000Z</time>
      </trkpt>
      <trkpt lat="47.48269" lon="-0.58765">
        <ele>30</ele>
        <time>2015-07-07T09:35:07.000Z</time>
      </trkpt>
      <trkpt lat="47.48268" lon="-0.5877">
        <ele>32</ele>
        <time>2015-07-07T09:35:08.000Z</time>
      </trkpt>
      <trkpt lat="47.48268" lon="-0.58775">
        <ele>32</ele>
        <time>2015-07-07T09:35:09.000Z</time>
      </trkpt>
      <trkpt lat="47.48269" lon="-0.58779">
        <ele>32</ele>
        <time>2015-07-07T09:35:10.000Z</time>
      </trkpt>
      <trkpt lat="47.4827" lon="-0.58783">
        <ele>33</ele>
        <time>2015-07-07T09:35:11.000Z</time>
      </trkpt>
      <trkpt lat="47.48271" lon="-0.58787">
        <ele>33</ele>
        <time>2015-07-07T09:35:12.000Z</time>
      </trkpt>
      <trkpt lat="47.48271" lon="-0.58791">
        <ele>34</ele>
        <time>2015-07-07T09:35:13.000Z</time>
      </trkpt>
      <trkpt lat="47.48271" lon="-0.58795">
        <ele>33</ele>
        <time>2015-07-07T09:35:14.000Z</time>
      </trkpt>
      <trkpt lat="47.48271" lon="-0.58799">
        <ele>33</ele>
        <time>2015-07-07T09:35:15.000Z</time>
      </trkpt>
      <trkpt lat="47.48272" lon="-0.58803">
        <ele>31</ele>
        <time>2015-07-07T09:35:16.000Z</time>
      </trkpt>
      <trkpt lat="47.48273" lon="-0.58807">
        <ele>31</ele>
        <time>2015-07-07T09:35:17.000Z</time>
      </trkpt>
      <trkpt lat="47.48274" lon="-0.58812">
        <ele>30</ele>
        <time>2015-07-07T09:35:18.000Z</time>
      </trkpt>
      <trkpt lat="47.48274" lon="-0.58816">
        <ele>29</ele>
        <time>2015-07-07T09:35:19.000Z</time>
      </trkpt>
      <trkpt lat="47.48275" lon="-0.5882">
        <ele>29</ele>
        <time>2015-07-07T09:35:20.000Z</time>
      </trkpt>
      <trkpt lat="47.48276" lon="-0.58823">
        <ele>29</ele>
        <time>2015-07-07T09:35:21.000Z</time>
      </trkpt>
      <trkpt lat="47.48278" lon="-0.58827">
        <ele>29</ele>
        <time>2015-07-07T09:35:22.000Z</time>
      </trkpt>
      <trkpt lat="47.4828" lon="-0.58831">
        <ele>27</ele>
        <time>2015-07-07T09:35:23.000Z</time>
      </trkpt>
      <trkpt lat="47.48281" lon="-0.58835">
        <ele>26</ele>
        <time>2015-07-07T09:35:24.000Z</time>
      </trkpt>
      <trkpt lat="47.48282" lon="-0.58838">
        <ele>26</ele>
        <time>2015-07-07T09:35:25.000Z</time>
      </trkpt>
      <trkpt lat="47.48283" lon="-0.58842">
        <ele>27</ele>
        <time>2015-07-07T09:35:26.000Z</time>
      </trkpt>
      <trkpt lat="47.48284" lon="-0.58847">
        <ele>28</ele>
        <time>2015-07-07T09:35:27.000Z</time>
      </trkpt>
      <trkpt lat="47.48285" lon="-0.58852">
        <ele>28</ele>
        <time>2015-07-07T09:35:28.000Z</time>
      </trkpt>
      <trkpt lat="47.48285" lon="-0.58857">
        <ele>28</ele>
        <time>2015-07-07T09:35:29.000Z</time>
      </trkpt>
      <trkpt lat="47.48286" lon="-0.58861">
        <ele>28</ele>
        <time>2015-07-07T09:35:30.000Z</time>
      </trkpt>
      <trkpt lat="47.48286" lon="-0.58865">
        <ele>28</ele>
        <time>2015-07-07T09:35:31.000Z</time>
      </trkpt>
      <trkpt lat="47.48287" lon="-0.58869">
        <ele>28</ele>
        <time>2015-07-07T09:35:32.000Z</time>
      </trkpt>
      <trkpt lat="47.48288" lon="-0.58872">
        <ele>27</ele>
        <time>2015-07-07T09:35:33.000Z</time>
      </trkpt>
      <trkpt lat="47.48288" lon="-0.58876">
        <ele>27</ele>
        <time>2015-07-07T09:35:34.000Z</time>
      </trkpt>
      <trkpt lat="47.48288" lon="-0.5888">
        <ele>27</ele>
        <time>2015-07-07T09:35:35.000Z</time>
      </trkpt>
      <trkpt lat="47.48288" lon="-0.58885">
        <ele>29</ele>
        <time>2015-07-07T09:35:36.000Z</time>
      </trkpt>
      <trkpt lat="47.48287" lon="-0.5889">
        <ele>30</ele>
        <time>2015-07-07T09:35:37.000Z</time>
      </trkpt>
      <trkpt lat="47.48287" lon="-0.58896">
        <ele>31</ele>
        <time>2015-07-07T09:35:38.000Z</time>
      </trkpt>
      <trkpt lat="47.48287" lon="-0.58901">
        <ele>31</ele>
        <time>2015-07-07T09:35:39.000Z</time>
      </trkpt>
      <trkpt lat="47.48287" lon="-0.58905">
        <ele>32</ele>
        <time>2015-07-07T09:35:40.000Z</time>
      </trkpt>
      <trkpt lat="47.48288" lon="-0.58909">
        <ele>33</ele>
        <time>2015-07-07T09:35:41.000Z</time>
      </trkpt>
      <trkpt lat="47.48289" lon="-0.58913">
        <ele>33</ele>
        <time>2015-07-07T09:35:42.000Z</time>
      </trkpt>
      <trkpt lat="47.48289" lon="-0.58917">
        <ele>34</ele>
        <time>2015-07-07T09:35:43.000Z</time>
      </trkpt>
      <trkpt lat="47.48289" lon="-0.58921">
        <ele>34</ele>
        <time>2015-07-07T09:35:44.000Z</time>
      </trkpt>
      <trkpt lat="47.48289" lon="-0.58925">
        <ele>35</ele>
        <time>2015-07-07T09:35:45.000Z</time>
      </trkpt>
      <trkpt lat="47.48289" lon="-0.58929">
        <ele>35</ele>
        <time>2015-07-07T09:35:46.000Z</time>
      </trkpt>
      <trkpt lat="47.48288" lon="-0.58933">
        <ele>35</ele>
        <time>2015-07-07T09:35:47.000Z</time>
      </trkpt>
      <trkpt lat="47.48288" lon="-0.58938">
        <ele>35</ele>
        <time>2015-07-07T09:35:48.000Z</time>
      </trkpt>
      <trkpt lat="47.48289" lon="-0.58942">
        <ele>34</ele>
        <time>2015-07-07T09:35:49.000Z</time>
      </trkpt>
      <trkpt lat="47.48289" lon="-0.58947">
        <ele>33</ele>
        <time>2015-07-07T09:35:50.000Z</time>
      </trkpt>
      <trkpt lat="47.4829" lon="-0.58951">
        <ele>33</ele>
        <time>2015-07-07T09:35:51.000Z</time>
      </trkpt>
      <trkpt lat="47.48291" lon="-0.58955">
        <ele>32</ele>
        <time>2015-07-07T09:35:52.000Z</time>
      </trkpt>
      <trkpt lat="47.48291" lon="-0.58959">
        <ele>32</ele>
        <time>2015-07-07T09:35:53.000Z</time>
      </trkpt>
      <trkpt lat="47.48292" lon="-0.58962">
        <ele>31</ele>
        <time>2015-07-07T09:35:54.000Z</time>
      </trkpt>
      <trkpt lat="47.48293" lon="-0.58966">
        <ele>31</ele>
        <time>2015-07-07T09:35:55.000Z</time>
      </trkpt>
      <trkpt lat="47.48293" lon="-0.58969">
        <ele>31</ele>
        <time>2015-07-07T09:35:56.000Z</time>
      </trkpt>
      <trkpt lat="47.48294" lon="-0.58972">
        <ele>31</ele>
        <time>2015-07-07T09:35:57.000Z</time>
      </trkpt>
      <trkpt lat="47.48295" lon="-0.58976">
        <ele>31</ele>
        <time>2015-07-07T09:35:58.000Z</time>
      </trkpt>
      <trkpt lat="47.48296" lon="-0.58979">
        <ele>31</ele>
        <time>2015-07-07T09:35:59.000Z</time>
      </trkpt>
      <trkpt lat="47.48296" lon="-0.58983">
        <ele>31</ele>
        <time>2015-07-07T09:36:00.000Z</time>
      </trkpt>
      <trkpt lat="47.48295" lon="-0.58987">
        <ele>30</ele>
        <time>2015-07-07T09:36:01.000Z</time>
      </trkpt>
      <trkpt lat="47.48295" lon="-0.58992">
        <ele>30</ele>
        <time>2015-07-07T09:36:02.000Z</time>
      </trkpt>
      <trkpt lat="47.48295" lon="-0.58996">
        <ele>29</ele>
        <time>2015-07-07T09:36:03.000Z</time>
      </trkpt>
      <trkpt lat="47.48295" lon="-0.59">
        <ele>30</ele>
        <time>2015-07-07T09:36:04.000Z</time>
      </trkpt>
      <trkpt lat="47.48295" lon="-0.59005">
        <ele>30</ele>
        <time>2015-07-07T09:36:05.000Z</time>
      </trkpt>
      <trkpt lat="47.48294" lon="-0.59009">
        <ele>30</ele>
        <time>2015-07-07T09:36:06.000Z</time>
      </trkpt>
      <trkpt lat="47.48294" lon="-0.59014">
        <ele>28</ele>
        <time>2015-07-07T09:36:07.000Z</time>
      </trkpt>
      <trkpt lat="47.48295" lon="-0.59018">
        <ele>28</ele>
        <time>2015-07-07T09:36:08.000Z</time>
      </trkpt>
      <trkpt lat="47.48295" lon="-0.59023">
        <ele>28</ele>
        <time>2015-07-07T09:36:09.000Z</time>
      </trkpt>
      <trkpt lat="47.48296" lon="-0.59027">
        <ele>29</ele>
        <time>2015-07-07T09:36:10.000Z</time>
      </trkpt>
      <trkpt lat="47.48296" lon="-0.59032">
        <ele>29</ele>
        <time>2015-07-07T09:36:11.000Z</time>
      </trkpt>
      <trkpt lat="47.48296" lon="-0.59036">
        <ele>28</ele>
        <time>2015-07-07T09:36:12.000Z</time>
      </trkpt>
      <trkpt lat="47.48296" lon="-0.5904">
        <ele>28</ele>
        <time>2015-07-07T09:36:13.000Z</time>
      </trkpt>
      <trkpt lat="47.48296" lon="-0.59045">
        <ele>28</ele>
        <time>2015-07-07T09:36:14.000Z</time>
      </trkpt>
      <trkpt lat="47.48296" lon="-0.59049">
        <ele>28</ele>
        <time>2015-07-07T09:36:15.000Z</time>
      </trkpt>
      <trkpt lat="47.48296" lon="-0.59053">
        <ele>29</ele>
        <time>2015-07-07T09:36:16.000Z</time>
      </trkpt>
      <trkpt lat="47.48296" lon="-0.59057">
        <ele>29</ele>
        <time>2015-07-07T09:36:17.000Z</time>
      </trkpt>
      <trkpt lat="47.48297" lon="-0.59061">
        <ele>29</ele>
        <time>2015-07-07T09:36:18.000Z</time>
      </trkpt>
      <trkpt lat="47.48297" lon="-0.59065">
        <ele>29</ele>
        <time>2015-07-07T09:36:19.000Z</time>
      </trkpt>
      <trkpt lat="47.48298" lon="-0.59069">
        <ele>29</ele>
        <time>2015-07-07T09:36:20.000Z</time>
      </trkpt>
      <trkpt lat="47.483" lon="-0.59072">
        <ele>28</ele>
        <time>2015-07-07T09:36:21.000Z</time>
      </trkpt>
      <trkpt lat="47.48301" lon="-0.59076">
        <ele>28</ele>
        <time>2015-07-07T09:36:22.000Z</time>
      </trkpt>
      <trkpt lat="47.48301" lon="-0.5908">
        <ele>28</ele>
        <time>2015-07-07T09:36:23.000Z</time>
      </trkpt>
      <trkpt lat="47.48302" lon="-0.59084">
        <ele>27</ele>
        <time>2015-07-07T09:36:24.000Z</time>
      </trkpt>
      <trkpt lat="47.48302" lon="-0.59088">
        <ele>25</ele>
        <time>2015-07-07T09:36:25.000Z</time>
      </trkpt>
      <trkpt lat="47.48303" lon="-0.59093">
        <ele>25</ele>
        <time>2015-07-07T09:36:26.000Z</time>
      </trkpt>
      <trkpt lat="47.48304" lon="-0.59098">
        <ele>25</ele>
        <time>2015-07-07T09:36:27.000Z</time>
      </trkpt>
      <trkpt lat="47.48304" lon="-0.59102">
        <ele>24</ele>
        <time>2015-07-07T09:36:28.000Z</time>
      </trkpt>
      <trkpt lat="47.48304" lon="-0.59106">
        <ele>23</ele>
        <time>2015-07-07T09:36:29.000Z</time>
      </trkpt>
      <trkpt lat="47.48304" lon="-0.5911">
        <ele>24</ele>
        <time>2015-07-07T09:36:30.000Z</time>
      </trkpt>
      <trkpt lat="47.48304" lon="-0.59114">
        <ele>23</ele>
        <time>2015-07-07T09:36:31.000Z</time>
      </trkpt>
      <trkpt lat="47.48304" lon="-0.59119">
        <ele>23</ele>
        <time>2015-07-07T09:36:32.000Z</time>
      </trkpt>
      <trkpt lat="47.48305" lon="-0.59123">
        <ele>23</ele>
        <time>2015-07-07T09:36:33.000Z</time>
      </trkpt>
      <trkpt lat="47.48305" lon="-0.59127">
        <ele>22</ele>
        <time>2015-07-07T09:36:34.000Z</time>
      </trkpt>
      <trkpt lat="47.48305" lon="-0.59131">
        <ele>23</ele>
        <time>2015-07-07T09:36:35.000Z</time>
      </trkpt>
      <trkpt lat="47.48306" lon="-0.59136">
        <ele>23</ele>
        <time>2015-07-07T09:36:36.000Z</time>
      </trkpt>
      <trkpt lat="47.48305" lon="-0.59141">
        <ele>23</ele>
        <time>2015-07-07T09:36:37.000Z</time>
      </trkpt>
      <trkpt lat="47.48305" lon="-0.59146">
        <ele>22</ele>
        <time>2015-07-07T09:36:38.000Z</time>
      </trkpt>
      <trkpt lat="47.48305" lon="-0.59151">
        <ele>22</ele>
        <time>2015-07-07T09:36:39.000Z</time>
      </trkpt>
      <trkpt lat="47.48306" lon="-0.59156">
        <ele>22</ele>
        <time>2015-07-07T09:36:40.000Z</time>
      </trkpt>
      <trkpt lat="47.48306" lon="-0.59161">
        <ele>22</ele>
        <time>2015-07-07T09:36:41.000Z</time>
      </trkpt>
      <trkpt lat="47.48306" lon="-0.59166">
        <ele>23</ele>
        <time>2015-07-07T09:36:42.000Z</time>
      </trkpt>
      <trkpt lat="47.48306" lon="-0.59171">
        <ele>24</ele>
        <time>2015-07-07T09:36:43.000Z</time>
      </trkpt>
      <trkpt lat="47.48305" lon="-0.59176">
        <ele>24</ele>
        <time>2015-07-07T09:36:44.000Z</time>
      </trkpt>
      <trkpt lat="47.48305" lon="-0.59181">
        <ele>24</ele>
        <time>2015-07-07T09:36:45.000Z</time>
      </trkpt>
      <trkpt lat="47.48305" lon="-0.59186">
        <ele>25</ele>
        <time>2015-07-07T09:36:46.000Z</time>
      </trkpt>
      <trkpt lat="47.48305" lon="-0.5919">
        <ele>25</ele>
        <time>2015-07-07T09:36:47.000Z</time>
      </trkpt>
      <trkpt lat="47.48306" lon="-0.59194">
        <ele>25</ele>
        <time>2015-07-07T09:36:48.000Z</time>
      </trkpt>
      <trkpt lat="47.48306" lon="-0.59197">
        <ele>24</ele>
        <time>2015-07-07T09:36:49.000Z</time>
      </trkpt>
      <trkpt lat="47.48307" lon="-0.592">
        <ele>24</ele>
        <time>2015-07-07T09:36:50.000Z</time>
      </trkpt>
      <trkpt lat="47.48308" lon="-0.59203">
        <ele>24</ele>
        <time>2015-07-07T09:36:51.000Z</time>
      </trkpt>
      <trkpt lat="47.48309" lon="-0.59206">
        <ele>23</ele>
        <time>2015-07-07T09:36:52.000Z</time>
      </trkpt>
      <trkpt lat="47.4831" lon="-0.5921">
        <ele>22</ele>
        <time>2015-07-07T09:36:53.000Z</time>
      </trkpt>
      <trkpt lat="47.4831" lon="-0.59214">
        <ele>22</ele>
        <time>2015-07-07T09:36:54.000Z</time>
      </trkpt>
      <trkpt lat="47.48311" lon="-0.59218">
        <ele>21</ele>
        <time>2015-07-07T09:36:55.000Z</time>
      </trkpt>
      <trkpt lat="47.48311" lon="-0.59222">
        <ele>21</ele>
        <time>2015-07-07T09:36:56.000Z</time>
      </trkpt>
      <trkpt lat="47.48311" lon="-0.59226">
        <ele>20</ele>
        <time>2015-07-07T09:36:57.000Z</time>
      </trkpt>
      <trkpt lat="47.48312" lon="-0.59229">
        <ele>20</ele>
        <time>2015-07-07T09:36:58.000Z</time>
      </trkpt>
      <trkpt lat="47.48312" lon="-0.59233">
        <ele>19</ele>
        <time>2015-07-07T09:36:59.000Z</time>
      </trkpt>
      <trkpt lat="47.48314" lon="-0.59236">
        <ele>18</ele>
        <time>2015-07-07T09:37:00.000Z</time>
      </trkpt>
      <trkpt lat="47.48315" lon="-0.59239">
        <ele>16</ele>
        <time>2015-07-07T09:37:01.000Z</time>
      </trkpt>
      <trkpt lat="47.48317" lon="-0.59241">
        <ele>15</ele>
        <time>2015-07-07T09:37:02.000Z</time>
      </trkpt>
      <trkpt lat="47.4832" lon="-0.59244">
        <ele>14</ele>
        <time>2015-07-07T09:37:03.000Z</time>
      </trkpt>
      <trkpt lat="47.48321" lon="-0.59247">
        <ele>13</ele>
        <time>2015-07-07T09:37:04.000Z</time>
      </trkpt>
      <trkpt lat="47.48322" lon="-0.5925">
        <ele>12</ele>
        <time>2015-07-07T09:37:05.000Z</time>
      </trkpt>
      <trkpt lat="47.48323" lon="-0.59253">
        <ele>11</ele>
        <time>2015-07-07T09:37:06.000Z</time>
      </trkpt>
      <trkpt lat="47.48324" lon="-0.59257">
        <ele>10</ele>
        <time>2015-07-07T09:37:07.000Z</time>
      </trkpt>
      <trkpt lat="47.48324" lon="-0.59261">
        <ele>9</ele>
        <time>2015-07-07T09:37:08.000Z</time>
      </trkpt>
      <trkpt lat="47.48325" lon="-0.59264">
        <ele>8</ele>
        <time>2015-07-07T09:37:09.000Z</time>
      </trkpt>
      <trkpt lat="47.48325" lon="-0.59267">
        <ele>7</ele>
        <time>2015-07-07T09:37:10.000Z</time>
      </trkpt>
      <trkpt lat="47.48325" lon="-0.5927">
        <ele>6</ele>
        <time>2015-07-07T09:37:11.000Z</time>
      </trkpt>
      <trkpt lat="47.48326" lon="-0.59274">
        <ele>6</ele>
        <time>2015-07-07T09:37:12.000Z</time>
      </trkpt>
      <trkpt lat="47.48326" lon="-0.59277">
        <ele>7</ele>
        <time>2015-07-07T09:37:13.000Z</time>
      </trkpt>
      <trkpt lat="47.48326" lon="-0.59281">
        <ele>7</ele>
        <time>2015-07-07T09:37:14.000Z</time>
      </trkpt>
      <trkpt lat="47.48327" lon="-0.59285">
        <ele>8</ele>
        <time>2015-07-07T09:37:15.000Z</time>
      </trkpt>
      <trkpt lat="47.48327" lon="-0.5929">
        <ele>11</ele>
        <time>2015-07-07T09:37:16.000Z</time>
      </trkpt>
      <trkpt lat="47.48328" lon="-0.59294">
        <ele>12</ele>
        <time>2015-07-07T09:37:17.000Z</time>
      </trkpt>
      <trkpt lat="47.48329" lon="-0.59299">
        <ele>13</ele>
        <time>2015-07-07T09:37:18.000Z</time>
      </trkpt>
      <trkpt lat="47.4833" lon="-0.59303">
        <ele>14</ele>
        <time>2015-07-07T09:37:19.000Z</time>
      </trkpt>
      <trkpt lat="47.4833" lon="-0.59307">
        <ele>16</ele>
        <time>2015-07-07T09:37:20.000Z</time>
      </trkpt>
      <trkpt lat="47.4833" lon="-0.59312">
        <ele>17</ele>
        <time>2015-07-07T09:37:21.000Z</time>
      </trkpt>
      <trkpt lat="47.48329" lon="-0.59317">
        <ele>19</ele>
        <time>2015-07-07T09:37:22.000Z</time>
      </trkpt>
      <trkpt lat="47.48329" lon="-0.59322">
        <ele>20</ele>
        <time>2015-07-07T09:37:23.000Z</time>
      </trkpt>
      <trkpt lat="47.48329" lon="-0.59326">
        <ele>21</ele>
        <time>2015-07-07T09:37:24.000Z</time>
      </trkpt>
      <trkpt lat="47.48329" lon="-0.59331">
        <ele>22</ele>
        <time>2015-07-07T09:37:25.000Z</time>
      </trkpt>
      <trkpt lat="47.4833" lon="-0.59335">
        <ele>22</ele>
        <time>2015-07-07T09:37:26.000Z</time>
      </trkpt>
      <trkpt lat="47.48329" lon="-0.5934">
        <ele>23</ele>
        <time>2015-07-07T09:37:27.000Z</time>
      </trkpt>
      <trkpt lat="47.48329" lon="-0.59345">
        <ele>25</ele>
        <time>2015-07-07T09:37:28.000Z</time>
      </trkpt>
      <trkpt lat="47.48329" lon="-0.5935">
        <ele>26</ele>
        <time>2015-07-07T09:37:29.000Z</time>
      </trkpt>
      <trkpt lat="47.48329" lon="-0.59354">
        <ele>27</ele>
        <time>2015-07-07T09:37:30.000Z</time>
      </trkpt>
      <trkpt lat="47.48328" lon="-0.59359">
        <ele>28</ele>
        <time>2015-07-07T09:37:31.000Z</time>
      </trkpt>
      <trkpt lat="47.48327" lon="-0.59364">
        <ele>30</ele>
        <time>2015-07-07T09:37:32.000Z</time>
      </trkpt>
      <trkpt lat="47.48327" lon="-0.59368">
        <ele>30</ele>
        <time>2015-07-07T09:37:33.000Z</time>
      </trkpt>
      <trkpt lat="47.48326" lon="-0.59373">
        <ele>32</ele>
        <time>2015-07-07T09:37:34.000Z</time>
      </trkpt>
      <trkpt lat="47.48326" lon="-0.59377">
        <ele>32</ele>
        <time>2015-07-07T09:37:35.000Z</time>
      </trkpt>
      <trkpt lat="47.48326" lon="-0.59381">
        <ele>32</ele>
        <time>2015-07-07T09:37:36.000Z</time>
      </trkpt>
      <trkpt lat="47.48326" lon="-0.59385">
        <ele>33</ele>
        <time>2015-07-07T09:37:37.000Z</time>
      </trkpt>
      <trkpt lat="47.48326" lon="-0.59389">
        <ele>32</ele>
        <time>2015-07-07T09:37:38.000Z</time>
      </trkpt>
      <trkpt lat="47.48325" lon="-0.59394">
        <ele>32</ele>
        <time>2015-07-07T09:37:39.000Z</time>
      </trkpt>
      <trkpt lat="47.48325" lon="-0.59399">
        <ele>32</ele>
        <time>2015-07-07T09:37:40.000Z</time>
      </trkpt>
      <trkpt lat="47.48324" lon="-0.59403">
        <ele>32</ele>
        <time>2015-07-07T09:37:41.000Z</time>
      </trkpt>
      <trkpt lat="47.48324" lon="-0.59408">
        <ele>32</ele>
        <time>2015-07-07T09:37:42.000Z</time>
      </trkpt>
      <trkpt lat="47.48323" lon="-0.59413">
        <ele>33</ele>
        <time>2015-07-07T09:37:43.000Z</time>
      </trkpt>
      <trkpt lat="47.48323" lon="-0.59418">
        <ele>33</ele>
        <time>2015-07-07T09:37:44.000Z</time>
      </trkpt>
      <trkpt lat="47.48323" lon="-0.59422">
        <ele>34</ele>
        <time>2015-07-07T09:37:45.000Z</time>
      </trkpt>
      <trkpt lat="47.48323" lon="-0.59427">
        <ele>34</ele>
        <time>2015-07-07T09:37:46.000Z</time>
      </trkpt>
      <trkpt lat="47.48323" lon="-0.59431">
        <ele>34</ele>
        <time>2015-07-07T09:37:47.000Z</time>
      </trkpt>
      <trkpt lat="47.48323" lon="-0.59435">
        <ele>34</ele>
        <time>2015-07-07T09:37:48.000Z</time>
      </trkpt>
      <trkpt lat="47.48323" lon="-0.59439">
        <ele>35</ele>
        <time>2015-07-07T09:37:49.000Z</time>
      </trkpt>
      <trkpt lat="47.48324" lon="-0.59444">
        <ele>35</ele>
        <time>2015-07-07T09:37:50.000Z</time>
      </trkpt>
      <trkpt lat="47.48324" lon="-0.59448">
        <ele>35</ele>
        <time>2015-07-07T09:37:51.000Z</time>
      </trkpt>
      <trkpt lat="47.48324" lon="-0.59453">
        <ele>36</ele>
        <time>2015-07-07T09:37:52.000Z</time>
      </trkpt>
      <trkpt lat="47.48323" lon="-0.59458">
        <ele>36</ele>
        <time>2015-07-07T09:37:53.000Z</time>
      </trkpt>
      <trkpt lat="47.48323" lon="-0.59463">
        <ele>36</ele>
        <time>2015-07-07T09:37:54.000Z</time>
      </trkpt>
      <trkpt lat="47.48322" lon="-0.59468">
        <ele>36</ele>
        <time>2015-07-07T09:37:55.000Z</time>
      </trkpt>
      <trkpt lat="47.48321" lon="-0.59473">
        <ele>37</ele>
        <time>2015-07-07T09:37:56.000Z</time>
      </trkpt>
      <trkpt lat="47.4832" lon="-0.59478">
        <ele>38</ele>
        <time>2015-07-07T09:37:57.000Z</time>
      </trkpt>
      <trkpt lat="47.4832" lon="-0.59483">
        <ele>37</ele>
        <time>2015-07-07T09:37:58.000Z</time>
      </trkpt>
      <trkpt lat="47.48319" lon="-0.59488">
        <ele>37</ele>
        <time>2015-07-07T09:37:59.000Z</time>
      </trkpt>
      <trkpt lat="47.48318" lon="-0.59492">
        <ele>37</ele>
        <time>2015-07-07T09:38:00.000Z</time>
      </trkpt>
      <trkpt lat="47.48318" lon="-0.59497">
        <ele>37</ele>
        <time>2015-07-07T09:38:01.000Z</time>
      </trkpt>
      <trkpt lat="47.48319" lon="-0.59501">
        <ele>37</ele>
        <time>2015-07-07T09:38:02.000Z</time>
      </trkpt>
      <trkpt lat="47.4832" lon="-0.59505">
        <ele>38</ele>
        <time>2015-07-07T09:38:03.000Z</time>
      </trkpt>
      <trkpt lat="47.4832" lon="-0.59509">
        <ele>37</ele>
        <time>2015-07-07T09:38:04.000Z</time>
      </trkpt>
      <trkpt lat="47.4832" lon="-0.59514">
        <ele>38</ele>
        <time>2015-07-07T09:38:05.000Z</time>
      </trkpt>
      <trkpt lat="47.4832" lon="-0.59519">
        <ele>39</ele>
        <time>2015-07-07T09:38:06.000Z</time>
      </trkpt>
      <trkpt lat="47.48321" lon="-0.59523">
        <ele>39</ele>
        <time>2015-07-07T09:38:07.000Z</time>
      </trkpt>
      <trkpt lat="47.48322" lon="-0.59527">
        <ele>38</ele>
        <time>2015-07-07T09:38:08.000Z</time>
      </trkpt>
      <trkpt lat="47.48324" lon="-0.59532">
        <ele>38</ele>
        <time>2015-07-07T09:38:09.000Z</time>
      </trkpt>
      <trkpt lat="47.48325" lon="-0.59536">
        <ele>38</ele>
        <time>2015-07-07T09:38:10.000Z</time>
      </trkpt>
      <trkpt lat="47.48326" lon="-0.5954">
        <ele>38</ele>
        <time>2015-07-07T09:38:11.000Z</time>
      </trkpt>
      <trkpt lat="47.48327" lon="-0.59544">
        <ele>37</ele>
        <time>2015-07-07T09:38:12.000Z</time>
      </trkpt>
      <trkpt lat="47.48328" lon="-0.59548">
        <ele>37</ele>
        <time>2015-07-07T09:38:13.000Z</time>
      </trkpt>
      <trkpt lat="47.48328" lon="-0.59552">
        <ele>37</ele>
        <time>2015-07-07T09:38:14.000Z</time>
      </trkpt>
      <trkpt lat="47.48329" lon="-0.59556">
        <ele>36</ele>
        <time>2015-07-07T09:38:15.000Z</time>
      </trkpt>
      <trkpt lat="47.4833" lon="-0.59561">
        <ele>36</ele>
        <time>2015-07-07T09:38:16.000Z</time>
      </trkpt>
      <trkpt lat="47.4833" lon="-0.59565">
        <ele>35</ele>
        <time>2015-07-07T09:38:17.000Z</time>
      </trkpt>
      <trkpt lat="47.48331" lon="-0.5957">
        <ele>35</ele>
        <time>2015-07-07T09:38:18.000Z</time>
      </trkpt>
      <trkpt lat="47.48331" lon="-0.59574">
        <ele>35</ele>
        <time>2015-07-07T09:38:19.000Z</time>
      </trkpt>
      <trkpt lat="47.48332" lon="-0.59579">
        <ele>35</ele>
        <time>2015-07-07T09:38:20.000Z</time>
      </trkpt>
      <trkpt lat="47.48332" lon="-0.59583">
        <ele>35</ele>
        <time>2015-07-07T09:38:21.000Z</time>
      </trkpt>
      <trkpt lat="47.48333" lon="-0.59588">
        <ele>35</ele>
        <time>2015-07-07T09:38:22.000Z</time>
      </trkpt>
      <trkpt lat="47.48333" lon="-0.59592">
        <ele>34</ele>
        <time>2015-07-07T09:38:23.000Z</time>
      </trkpt>
      <trkpt lat="47.48333" lon="-0.59597">
        <ele>33</ele>
        <time>2015-07-07T09:38:24.000Z</time>
      </trkpt>
      <trkpt lat="47.48332" lon="-0.59601">
        <ele>32</ele>
        <time>2015-07-07T09:38:25.000Z</time>
      </trkpt>
      <trkpt lat="47.48332" lon="-0.59606">
        <ele>33</ele>
        <time>2015-07-07T09:38:26.000Z</time>
      </trkpt>
      <trkpt lat="47.48332" lon="-0.59611">
        <ele>33</ele>
        <time>2015-07-07T09:38:27.000Z</time>
      </trkpt>
      <trkpt lat="47.48332" lon="-0.59616">
        <ele>33</ele>
        <time>2015-07-07T09:38:28.000Z</time>
      </trkpt>
      <trkpt lat="47.48332" lon="-0.5962">
        <ele>34</ele>
        <time>2015-07-07T09:38:29.000Z</time>
      </trkpt>
      <trkpt lat="47.48332" lon="-0.59624">
        <ele>35</ele>
        <time>2015-07-07T09:38:30.000Z</time>
      </trkpt>
      <trkpt lat="47.48333" lon="-0.59629">
        <ele>35</ele>
        <time>2015-07-07T09:38:31.000Z</time>
      </trkpt>
      <trkpt lat="47.48333" lon="-0.59633">
        <ele>34</ele>
        <time>2015-07-07T09:38:32.000Z</time>
      </trkpt>
      <trkpt lat="47.48334" lon="-0.59638">
        <ele>33</ele>
        <time>2015-07-07T09:38:33.000Z</time>
      </trkpt>
      <trkpt lat="47.48335" lon="-0.59642">
        <ele>33</ele>
        <time>2015-07-07T09:38:34.000Z</time>
      </trkpt>
      <trkpt lat="47.48336" lon="-0.59646">
        <ele>32</ele>
        <time>2015-07-07T09:38:35.000Z</time>
      </trkpt>
      <trkpt lat="47.48336" lon="-0.59651">
        <ele>32</ele>
        <time>2015-07-07T09:38:36.000Z</time>
      </trkpt>
      <trkpt lat="47.48336" lon="-0.59656">
        <ele>32</ele>
        <time>2015-07-07T09:38:37.000Z</time>
      </trkpt>
      <trkpt lat="47.48337" lon="-0.5966">
        <ele>33</ele>
        <time>2015-07-07T09:38:38.000Z</time>
      </trkpt>
      <trkpt lat="47.48338" lon="-0.59665">
        <ele>33</ele>
        <time>2015-07-07T09:38:39.000Z</time>
      </trkpt>
      <trkpt lat="47.48339" lon="-0.59669">
        <ele>32</ele>
        <time>2015-07-07T09:38:40.000Z</time>
      </trkpt>
      <trkpt lat="47.4834" lon="-0.59673">
        <ele>32</ele>
        <time>2015-07-07T09:38:41.000Z</time>
      </trkpt>
      <trkpt lat="47.4834" lon="-0.59676">
        <ele>32</ele>
        <time>2015-07-07T09:38:42.000Z</time>
      </trkpt>
      <trkpt lat="47.48341" lon="-0.5968">
        <ele>33</ele>
        <time>2015-07-07T09:38:43.000Z</time>
      </trkpt>
      <trkpt lat="47.48341" lon="-0.59684">
        <ele>33</ele>
        <time>2015-07-07T09:38:44.000Z</time>
      </trkpt>
      <trkpt lat="47.48341" lon="-0.59689">
        <ele>33</ele>
        <time>2015-07-07T09:38:45.000Z</time>
      </trkpt>
      <trkpt lat="47.48341" lon="-0.59693">
        <ele>32</ele>
        <time>2015-07-07T09:38:46.000Z</time>
      </trkpt>
      <trkpt lat="47.48342" lon="-0.59696">
        <ele>32</ele>
        <time>2015-07-07T09:38:47.000Z</time>
      </trkpt>
      <trkpt lat="47.48342" lon="-0.597">
        <ele>32</ele>
        <time>2015-07-07T09:38:48.000Z</time>
      </trkpt>
      <trkpt lat="47.48343" lon="-0.59704">
        <ele>31</ele>
        <time>2015-07-07T09:38:49.000Z</time>
      </trkpt>
      <trkpt lat="47.48343" lon="-0.59708">
        <ele>30</ele>
        <time>2015-07-07T09:38:50.000Z</time>
      </trkpt>
      <trkpt lat="47.48344" lon="-0.59712">
        <ele>32</ele>
        <time>2015-07-07T09:38:51.000Z</time>
      </trkpt>
      <trkpt lat="47.48344" lon="-0.59716">
        <ele>32</ele>
        <time>2015-07-07T09:38:52.000Z</time>
      </trkpt>
      <trkpt lat="47.48343" lon="-0.5972">
        <ele>32</ele>
        <time>2015-07-07T09:38:53.000Z</time>
      </trkpt>
      <trkpt lat="47.48343" lon="-0.59725">
        <ele>31</ele>
        <time>2015-07-07T09:38:54.000Z</time>
      </trkpt>
      <trkpt lat="47.48343" lon="-0.5973">
        <ele>32</ele>
        <time>2015-07-07T09:38:55.000Z</time>
      </trkpt>
      <trkpt lat="47.48343" lon="-0.59735">
        <ele>32</ele>
        <time>2015-07-07T09:38:56.000Z</time>
      </trkpt>
      <trkpt lat="47.48343" lon="-0.59739">
        <ele>32</ele>
        <time>2015-07-07T09:38:57.000Z</time>
      </trkpt>
      <trkpt lat="47.48343" lon="-0.59743">
        <ele>33</ele>
        <time>2015-07-07T09:38:58.000Z</time>
      </trkpt>
      <trkpt lat="47.48343" lon="-0.59748">
        <ele>33</ele>
        <time>2015-07-07T09:38:59.000Z</time>
      </trkpt>
      <trkpt lat="47.48343" lon="-0.59751">
        <ele>32</ele>
        <time>2015-07-07T09:39:00.000Z</time>
      </trkpt>
      <trkpt lat="47.48344" lon="-0.59755">
        <ele>32</ele>
        <time>2015-07-07T09:39:01.000Z</time>
      </trkpt>
      <trkpt lat="47.48344" lon="-0.59758">
        <ele>31</ele>
        <time>2015-07-07T09:39:02.000Z</time>
      </trkpt>
      <trkpt lat="47.48345" lon="-0.59761">
        <ele>30</ele>
        <time>2015-07-07T09:39:03.000Z</time>
      </trkpt>
      <trkpt lat="47.48345" lon="-0.59764">
        <ele>30</ele>
        <time>2015-07-07T09:39:04.000Z</time>
      </trkpt>
      <trkpt lat="47.48345" lon="-0.59767">
        <ele>30</ele>
        <time>2015-07-07T09:39:05.000Z</time>
      </trkpt>
      <trkpt lat="47.48346" lon="-0.5977">
        <ele>30</ele>
        <time>2015-07-07T09:39:06.000Z</time>
      </trkpt>
      <trkpt lat="47.48346" lon="-0.59773">
        <ele>30</ele>
        <time>2015-07-07T09:39:07.000Z</time>
      </trkpt>
      <trkpt lat="47.48346" lon="-0.59776">
        <ele>30</ele>
        <time>2015-07-07T09:39:08.000Z</time>
      </trkpt>
    </trkseg>
  </trk>
</gpx>